<?xml version="1.0" encoding="UTF-8" standalone="no" ?>
<gpx xmlns="http://www.topografix.com/GPX/1/1" xmlns:xsi="http://www.w3.org/2001/XMLSchema-instance" xsi:schemaLocation="http://www.topografix.com/GPX/1/1 http://www.topografix.com/GPX/1/1/gpx.xsd" version="1.1" creator="VisuGPX - https://www.visugpx.com">
  <metadata>
    <name>Beynes </name>
  </metadata>
  <trk>
    <name><![CDATA[Beynes _1]]></name>
    <extensions>
      <line xmlns="http://www.topografix.com/GPX/gpx_style/0/2">
        <color>0000FF</color>
        <width>4</width>
      </line>
    </extensions>
    <trkseg>
      <trkpt lat="48.62252" lon="2.01522">
        <ele>116.6</ele>
        <time>2023-12-20T08:54:00Z</time>
      </trkpt>
      <trkpt lat="48.62252" lon="2.01522">
        <ele>116.6</ele>
        <time>2023-12-20T08:54:01Z</time>
      </trkpt>
      <trkpt lat="48.62252" lon="2.01516">
        <ele>116.6</ele>
        <time>2023-12-20T08:54:02Z</time>
      </trkpt>
      <trkpt lat="48.62253" lon="2.01509">
        <ele>116.6</ele>
        <time>2023-12-20T08:54:03Z</time>
      </trkpt>
      <trkpt lat="48.62253" lon="2.01502">
        <ele>116.6</ele>
        <time>2023-12-20T08:54:04Z</time>
      </trkpt>
      <trkpt lat="48.62253" lon="2.01496">
        <ele>116.6</ele>
        <time>2023-12-20T08:54:05Z</time>
      </trkpt>
      <trkpt lat="48.62253" lon="2.01489">
        <ele>116.6</ele>
        <time>2023-12-20T08:54:06Z</time>
      </trkpt>
      <trkpt lat="48.62253" lon="2.01482">
        <ele>116.8</ele>
        <time>2023-12-20T08:54:07Z</time>
      </trkpt>
      <trkpt lat="48.62253" lon="2.01476">
        <ele>116.8</ele>
        <time>2023-12-20T08:54:08Z</time>
      </trkpt>
      <trkpt lat="48.62254" lon="2.01469">
        <ele>116.8</ele>
        <time>2023-12-20T08:54:09Z</time>
      </trkpt>
      <trkpt lat="48.62254" lon="2.01462">
        <ele>116.4</ele>
        <time>2023-12-20T08:54:10Z</time>
      </trkpt>
      <trkpt lat="48.62254" lon="2.01455">
        <ele>116.6</ele>
        <time>2023-12-20T08:54:11Z</time>
      </trkpt>
      <trkpt lat="48.62254" lon="2.01449">
        <ele>116.6</ele>
        <time>2023-12-20T08:54:12Z</time>
      </trkpt>
      <trkpt lat="48.62254" lon="2.01442">
        <ele>116.6</ele>
        <time>2023-12-20T08:54:13Z</time>
      </trkpt>
      <trkpt lat="48.62254" lon="2.01436">
        <ele>117.2</ele>
        <time>2023-12-20T08:54:14Z</time>
      </trkpt>
      <trkpt lat="48.62254" lon="2.01429">
        <ele>116.8</ele>
        <time>2023-12-20T08:54:15Z</time>
      </trkpt>
      <trkpt lat="48.62254" lon="2.01422">
        <ele>116.8</ele>
        <time>2023-12-20T08:54:16Z</time>
      </trkpt>
      <trkpt lat="48.62254" lon="2.01416">
        <ele>116.8</ele>
        <time>2023-12-20T08:54:17Z</time>
      </trkpt>
      <trkpt lat="48.62254" lon="2.01409">
        <ele>117.4</ele>
        <time>2023-12-20T08:54:18Z</time>
      </trkpt>
      <trkpt lat="48.62254" lon="2.01403">
        <ele>118.2</ele>
        <time>2023-12-20T08:54:19Z</time>
      </trkpt>
      <trkpt lat="48.62254" lon="2.01396">
        <ele>118.2</ele>
        <time>2023-12-20T08:54:20Z</time>
      </trkpt>
      <trkpt lat="48.62254" lon="2.0139">
        <ele>118.2</ele>
        <time>2023-12-20T08:54:21Z</time>
      </trkpt>
      <trkpt lat="48.62255" lon="2.01384">
        <ele>118.2</ele>
        <time>2023-12-20T08:54:22Z</time>
      </trkpt>
      <trkpt lat="48.62255" lon="2.01378">
        <ele>118.8</ele>
        <time>2023-12-20T08:54:23Z</time>
      </trkpt>
      <trkpt lat="48.62255" lon="2.01371">
        <ele>118.8</ele>
        <time>2023-12-20T08:54:24Z</time>
      </trkpt>
      <trkpt lat="48.62255" lon="2.01365">
        <ele>118.8</ele>
        <time>2023-12-20T08:54:25Z</time>
      </trkpt>
      <trkpt lat="48.62255" lon="2.01359">
        <ele>118.8</ele>
        <time>2023-12-20T08:54:26Z</time>
      </trkpt>
      <trkpt lat="48.62255" lon="2.01353">
        <ele>118.8</ele>
        <time>2023-12-20T08:54:27Z</time>
      </trkpt>
      <trkpt lat="48.62256" lon="2.01346">
        <ele>118.8</ele>
        <time>2023-12-20T08:54:28Z</time>
      </trkpt>
      <trkpt lat="48.62256" lon="2.0134">
        <ele>118.8</ele>
        <time>2023-12-20T08:54:29Z</time>
      </trkpt>
      <trkpt lat="48.62256" lon="2.01334">
        <ele>118.8</ele>
        <time>2023-12-20T08:54:30Z</time>
      </trkpt>
      <trkpt lat="48.62256" lon="2.01328">
        <ele>119.6</ele>
        <time>2023-12-20T08:54:31Z</time>
      </trkpt>
      <trkpt lat="48.62256" lon="2.01322">
        <ele>119.6</ele>
        <time>2023-12-20T08:54:32Z</time>
      </trkpt>
      <trkpt lat="48.62256" lon="2.01315">
        <ele>119.6</ele>
        <time>2023-12-20T08:54:33Z</time>
      </trkpt>
      <trkpt lat="48.62257" lon="2.01309">
        <ele>120.6</ele>
        <time>2023-12-20T08:54:34Z</time>
      </trkpt>
      <trkpt lat="48.62257" lon="2.01303">
        <ele>120.8</ele>
        <time>2023-12-20T08:54:35Z</time>
      </trkpt>
      <trkpt lat="48.62256" lon="2.01297">
        <ele>120.8</ele>
        <time>2023-12-20T08:54:36Z</time>
      </trkpt>
      <trkpt lat="48.62256" lon="2.01291">
        <ele>120.8</ele>
        <time>2023-12-20T08:54:37Z</time>
      </trkpt>
      <trkpt lat="48.62256" lon="2.01285">
        <ele>120.8</ele>
        <time>2023-12-20T08:54:38Z</time>
      </trkpt>
      <trkpt lat="48.62257" lon="2.01279">
        <ele>121.8</ele>
        <time>2023-12-20T08:54:39Z</time>
      </trkpt>
      <trkpt lat="48.62257" lon="2.01273">
        <ele>121.8</ele>
        <time>2023-12-20T08:54:40Z</time>
      </trkpt>
      <trkpt lat="48.62257" lon="2.01267">
        <ele>121.8</ele>
        <time>2023-12-20T08:54:41Z</time>
      </trkpt>
      <trkpt lat="48.62257" lon="2.0126">
        <ele>121.8</ele>
        <time>2023-12-20T08:54:42Z</time>
      </trkpt>
      <trkpt lat="48.62257" lon="2.01254">
        <ele>122</ele>
        <time>2023-12-20T08:54:43Z</time>
      </trkpt>
      <trkpt lat="48.62257" lon="2.01248">
        <ele>122</ele>
        <time>2023-12-20T08:54:44Z</time>
      </trkpt>
      <trkpt lat="48.62257" lon="2.01242">
        <ele>122</ele>
        <time>2023-12-20T08:54:45Z</time>
      </trkpt>
      <trkpt lat="48.62257" lon="2.01236">
        <ele>122.4</ele>
        <time>2023-12-20T08:54:46Z</time>
      </trkpt>
      <trkpt lat="48.62257" lon="2.0123">
        <ele>122.6</ele>
        <time>2023-12-20T08:54:47Z</time>
      </trkpt>
      <trkpt lat="48.62258" lon="2.01224">
        <ele>122.6</ele>
        <time>2023-12-20T08:54:48Z</time>
      </trkpt>
      <trkpt lat="48.62258" lon="2.01219">
        <ele>122.6</ele>
        <time>2023-12-20T08:54:49Z</time>
      </trkpt>
      <trkpt lat="48.62258" lon="2.01213">
        <ele>123.2</ele>
        <time>2023-12-20T08:54:50Z</time>
      </trkpt>
      <trkpt lat="48.62258" lon="2.01207">
        <ele>123.2</ele>
        <time>2023-12-20T08:54:51Z</time>
      </trkpt>
      <trkpt lat="48.62258" lon="2.01201">
        <ele>123.2</ele>
        <time>2023-12-20T08:54:52Z</time>
      </trkpt>
      <trkpt lat="48.62258" lon="2.01195">
        <ele>123.2</ele>
        <time>2023-12-20T08:54:53Z</time>
      </trkpt>
      <trkpt lat="48.62259" lon="2.01189">
        <ele>123</ele>
        <time>2023-12-20T08:54:54Z</time>
      </trkpt>
      <trkpt lat="48.62259" lon="2.01183">
        <ele>123</ele>
        <time>2023-12-20T08:54:55Z</time>
      </trkpt>
      <trkpt lat="48.62259" lon="2.01177">
        <ele>123</ele>
        <time>2023-12-20T08:54:56Z</time>
      </trkpt>
      <trkpt lat="48.62259" lon="2.01171">
        <ele>123</ele>
        <time>2023-12-20T08:54:57Z</time>
      </trkpt>
      <trkpt lat="48.6226" lon="2.01165">
        <ele>123</ele>
        <time>2023-12-20T08:54:58Z</time>
      </trkpt>
      <trkpt lat="48.6226" lon="2.01159">
        <ele>122.8</ele>
        <time>2023-12-20T08:54:59Z</time>
      </trkpt>
      <trkpt lat="48.6226" lon="2.01152">
        <ele>122.8</ele>
        <time>2023-12-20T08:55:00Z</time>
      </trkpt>
      <trkpt lat="48.6226" lon="2.01145">
        <ele>122.8</ele>
        <time>2023-12-20T08:55:01Z</time>
      </trkpt>
      <trkpt lat="48.62259" lon="2.01139">
        <ele>121.8</ele>
        <time>2023-12-20T08:55:02Z</time>
      </trkpt>
      <trkpt lat="48.6226" lon="2.01133">
        <ele>121.4</ele>
        <time>2023-12-20T08:55:03Z</time>
      </trkpt>
      <trkpt lat="48.6226" lon="2.01126">
        <ele>121.4</ele>
        <time>2023-12-20T08:55:04Z</time>
      </trkpt>
      <trkpt lat="48.6226" lon="2.01119">
        <ele>121.4</ele>
        <time>2023-12-20T08:55:05Z</time>
      </trkpt>
      <trkpt lat="48.62259" lon="2.01112">
        <ele>120.4</ele>
        <time>2023-12-20T08:55:06Z</time>
      </trkpt>
      <trkpt lat="48.62259" lon="2.01104">
        <ele>120</ele>
        <time>2023-12-20T08:55:07Z</time>
      </trkpt>
      <trkpt lat="48.62258" lon="2.01097">
        <ele>120</ele>
        <time>2023-12-20T08:55:08Z</time>
      </trkpt>
      <trkpt lat="48.62258" lon="2.01089">
        <ele>120</ele>
        <time>2023-12-20T08:55:09Z</time>
      </trkpt>
      <trkpt lat="48.62258" lon="2.01082">
        <ele>119</ele>
        <time>2023-12-20T08:55:10Z</time>
      </trkpt>
      <trkpt lat="48.62259" lon="2.01076">
        <ele>118.2</ele>
        <time>2023-12-20T08:55:11Z</time>
      </trkpt>
      <trkpt lat="48.62258" lon="2.01069">
        <ele>118.2</ele>
        <time>2023-12-20T08:55:12Z</time>
      </trkpt>
      <trkpt lat="48.62258" lon="2.01061">
        <ele>118.2</ele>
        <time>2023-12-20T08:55:13Z</time>
      </trkpt>
      <trkpt lat="48.62257" lon="2.01053">
        <ele>117.2</ele>
        <time>2023-12-20T08:55:14Z</time>
      </trkpt>
      <trkpt lat="48.62256" lon="2.01044">
        <ele>116.2</ele>
        <time>2023-12-20T08:55:15Z</time>
      </trkpt>
      <trkpt lat="48.62255" lon="2.01034">
        <ele>116.2</ele>
        <time>2023-12-20T08:55:16Z</time>
      </trkpt>
      <trkpt lat="48.62254" lon="2.01024">
        <ele>116.2</ele>
        <time>2023-12-20T08:55:17Z</time>
      </trkpt>
      <trkpt lat="48.62253" lon="2.01014">
        <ele>115.2</ele>
        <time>2023-12-20T08:55:18Z</time>
      </trkpt>
      <trkpt lat="48.62251" lon="2.01003">
        <ele>114.2</ele>
        <time>2023-12-20T08:55:19Z</time>
      </trkpt>
      <trkpt lat="48.62249" lon="2.00992">
        <ele>114.2</ele>
        <time>2023-12-20T08:55:20Z</time>
      </trkpt>
      <trkpt lat="48.62248" lon="2.0098">
        <ele>114.2</ele>
        <time>2023-12-20T08:55:21Z</time>
      </trkpt>
      <trkpt lat="48.62247" lon="2.00969">
        <ele>113.2</ele>
        <time>2023-12-20T08:55:22Z</time>
      </trkpt>
      <trkpt lat="48.62245" lon="2.00958">
        <ele>111.6</ele>
        <time>2023-12-20T08:55:23Z</time>
      </trkpt>
      <trkpt lat="48.62244" lon="2.00946">
        <ele>111.6</ele>
        <time>2023-12-20T08:55:24Z</time>
      </trkpt>
      <trkpt lat="48.62242" lon="2.00933">
        <ele>111.6</ele>
        <time>2023-12-20T08:55:25Z</time>
      </trkpt>
      <trkpt lat="48.6224" lon="2.0092">
        <ele>111.6</ele>
        <time>2023-12-20T08:55:26Z</time>
      </trkpt>
      <trkpt lat="48.62237" lon="2.00907">
        <ele>109.4</ele>
        <time>2023-12-20T08:55:27Z</time>
      </trkpt>
      <trkpt lat="48.62235" lon="2.00894">
        <ele>109.4</ele>
        <time>2023-12-20T08:55:28Z</time>
      </trkpt>
      <trkpt lat="48.62233" lon="2.0088">
        <ele>109.4</ele>
        <time>2023-12-20T08:55:29Z</time>
      </trkpt>
      <trkpt lat="48.62231" lon="2.00866">
        <ele>108.4</ele>
        <time>2023-12-20T08:55:30Z</time>
      </trkpt>
      <trkpt lat="48.62229" lon="2.00852">
        <ele>106.6</ele>
        <time>2023-12-20T08:55:31Z</time>
      </trkpt>
      <trkpt lat="48.62228" lon="2.00838">
        <ele>106.6</ele>
        <time>2023-12-20T08:55:32Z</time>
      </trkpt>
      <trkpt lat="48.62226" lon="2.00824">
        <ele>106.6</ele>
        <time>2023-12-20T08:55:33Z</time>
      </trkpt>
      <trkpt lat="48.62224" lon="2.00809">
        <ele>106.6</ele>
        <time>2023-12-20T08:55:34Z</time>
      </trkpt>
      <trkpt lat="48.62223" lon="2.00794">
        <ele>105.6</ele>
        <time>2023-12-20T08:55:35Z</time>
      </trkpt>
      <trkpt lat="48.62221" lon="2.0078">
        <ele>105.6</ele>
        <time>2023-12-20T08:55:36Z</time>
      </trkpt>
      <trkpt lat="48.62219" lon="2.00766">
        <ele>105.6</ele>
        <time>2023-12-20T08:55:37Z</time>
      </trkpt>
      <trkpt lat="48.62216" lon="2.00753">
        <ele>105</ele>
        <time>2023-12-20T08:55:38Z</time>
      </trkpt>
      <trkpt lat="48.62215" lon="2.00739">
        <ele>104.6</ele>
        <time>2023-12-20T08:55:39Z</time>
      </trkpt>
      <trkpt lat="48.62213" lon="2.00726">
        <ele>104.6</ele>
        <time>2023-12-20T08:55:40Z</time>
      </trkpt>
      <trkpt lat="48.62211" lon="2.00713">
        <ele>104.6</ele>
        <time>2023-12-20T08:55:41Z</time>
      </trkpt>
      <trkpt lat="48.62209" lon="2.007">
        <ele>105</ele>
        <time>2023-12-20T08:55:42Z</time>
      </trkpt>
      <trkpt lat="48.62208" lon="2.00687">
        <ele>105</ele>
        <time>2023-12-20T08:55:43Z</time>
      </trkpt>
      <trkpt lat="48.62207" lon="2.00675">
        <ele>105</ele>
        <time>2023-12-20T08:55:44Z</time>
      </trkpt>
      <trkpt lat="48.62206" lon="2.00662">
        <ele>105</ele>
        <time>2023-12-20T08:55:45Z</time>
      </trkpt>
      <trkpt lat="48.62205" lon="2.00651">
        <ele>105</ele>
        <time>2023-12-20T08:55:46Z</time>
      </trkpt>
      <trkpt lat="48.62203" lon="2.0064">
        <ele>104.6</ele>
        <time>2023-12-20T08:55:47Z</time>
      </trkpt>
      <trkpt lat="48.62202" lon="2.00628">
        <ele>104.6</ele>
        <time>2023-12-20T08:55:48Z</time>
      </trkpt>
      <trkpt lat="48.62201" lon="2.00617">
        <ele>104.6</ele>
        <time>2023-12-20T08:55:49Z</time>
      </trkpt>
      <trkpt lat="48.62199" lon="2.00606">
        <ele>104.6</ele>
        <time>2023-12-20T08:55:50Z</time>
      </trkpt>
      <trkpt lat="48.62198" lon="2.00596">
        <ele>104.6</ele>
        <time>2023-12-20T08:55:51Z</time>
      </trkpt>
      <trkpt lat="48.62197" lon="2.00585">
        <ele>104.6</ele>
        <time>2023-12-20T08:55:52Z</time>
      </trkpt>
      <trkpt lat="48.62196" lon="2.00574">
        <ele>104.6</ele>
        <time>2023-12-20T08:55:53Z</time>
      </trkpt>
      <trkpt lat="48.62195" lon="2.00563">
        <ele>104.6</ele>
        <time>2023-12-20T08:55:54Z</time>
      </trkpt>
      <trkpt lat="48.62193" lon="2.00552">
        <ele>104.8</ele>
        <time>2023-12-20T08:55:55Z</time>
      </trkpt>
      <trkpt lat="48.62192" lon="2.00542">
        <ele>104.8</ele>
        <time>2023-12-20T08:55:56Z</time>
      </trkpt>
      <trkpt lat="48.62191" lon="2.00531">
        <ele>104.8</ele>
        <time>2023-12-20T08:55:57Z</time>
      </trkpt>
      <trkpt lat="48.62189" lon="2.00521">
        <ele>104.8</ele>
        <time>2023-12-20T08:55:58Z</time>
      </trkpt>
      <trkpt lat="48.62188" lon="2.00511">
        <ele>104.8</ele>
        <time>2023-12-20T08:55:59Z</time>
      </trkpt>
      <trkpt lat="48.62187" lon="2.00501">
        <ele>104.8</ele>
        <time>2023-12-20T08:56:00Z</time>
      </trkpt>
      <trkpt lat="48.62186" lon="2.00491">
        <ele>104.8</ele>
        <time>2023-12-20T08:56:01Z</time>
      </trkpt>
      <trkpt lat="48.62184" lon="2.00481">
        <ele>104.2</ele>
        <time>2023-12-20T08:56:02Z</time>
      </trkpt>
      <trkpt lat="48.62183" lon="2.00471">
        <ele>104.6</ele>
        <time>2023-12-20T08:56:03Z</time>
      </trkpt>
      <trkpt lat="48.62182" lon="2.00461">
        <ele>104.6</ele>
        <time>2023-12-20T08:56:04Z</time>
      </trkpt>
      <trkpt lat="48.62181" lon="2.00452">
        <ele>104.6</ele>
        <time>2023-12-20T08:56:05Z</time>
      </trkpt>
      <trkpt lat="48.6218" lon="2.00442">
        <ele>104.2</ele>
        <time>2023-12-20T08:56:06Z</time>
      </trkpt>
      <trkpt lat="48.62179" lon="2.00433">
        <ele>104.2</ele>
        <time>2023-12-20T08:56:07Z</time>
      </trkpt>
      <trkpt lat="48.62178" lon="2.00424">
        <ele>104.2</ele>
        <time>2023-12-20T08:56:08Z</time>
      </trkpt>
      <trkpt lat="48.62177" lon="2.00414">
        <ele>104.2</ele>
        <time>2023-12-20T08:56:09Z</time>
      </trkpt>
      <trkpt lat="48.62176" lon="2.00405">
        <ele>103.8</ele>
        <time>2023-12-20T08:56:10Z</time>
      </trkpt>
      <trkpt lat="48.62175" lon="2.00395">
        <ele>104</ele>
        <time>2023-12-20T08:56:11Z</time>
      </trkpt>
      <trkpt lat="48.62173" lon="2.00386">
        <ele>104</ele>
        <time>2023-12-20T08:56:12Z</time>
      </trkpt>
      <trkpt lat="48.62172" lon="2.00376">
        <ele>104</ele>
        <time>2023-12-20T08:56:13Z</time>
      </trkpt>
      <trkpt lat="48.62171" lon="2.00367">
        <ele>103.6</ele>
        <time>2023-12-20T08:56:14Z</time>
      </trkpt>
      <trkpt lat="48.6217" lon="2.00358">
        <ele>103.8</ele>
        <time>2023-12-20T08:56:15Z</time>
      </trkpt>
      <trkpt lat="48.62169" lon="2.00348">
        <ele>103.8</ele>
        <time>2023-12-20T08:56:16Z</time>
      </trkpt>
      <trkpt lat="48.62167" lon="2.00339">
        <ele>103.8</ele>
        <time>2023-12-20T08:56:17Z</time>
      </trkpt>
      <trkpt lat="48.62166" lon="2.00329">
        <ele>104.2</ele>
        <time>2023-12-20T08:56:18Z</time>
      </trkpt>
      <trkpt lat="48.62165" lon="2.0032">
        <ele>104.6</ele>
        <time>2023-12-20T08:56:19Z</time>
      </trkpt>
      <trkpt lat="48.62163" lon="2.00311">
        <ele>104.6</ele>
        <time>2023-12-20T08:56:20Z</time>
      </trkpt>
      <trkpt lat="48.62162" lon="2.00303">
        <ele>104.6</ele>
        <time>2023-12-20T08:56:21Z</time>
      </trkpt>
      <trkpt lat="48.62161" lon="2.00294">
        <ele>104.6</ele>
        <time>2023-12-20T08:56:22Z</time>
      </trkpt>
      <trkpt lat="48.6216" lon="2.00285">
        <ele>104.6</ele>
        <time>2023-12-20T08:56:23Z</time>
      </trkpt>
      <trkpt lat="48.62159" lon="2.00277">
        <ele>104.6</ele>
        <time>2023-12-20T08:56:24Z</time>
      </trkpt>
      <trkpt lat="48.62157" lon="2.00268">
        <ele>104.6</ele>
        <time>2023-12-20T08:56:25Z</time>
      </trkpt>
      <trkpt lat="48.62156" lon="2.00261">
        <ele>104.8</ele>
        <time>2023-12-20T08:56:26Z</time>
      </trkpt>
      <trkpt lat="48.62153" lon="2.00253">
        <ele>104.2</ele>
        <time>2023-12-20T08:56:27Z</time>
      </trkpt>
      <trkpt lat="48.6215" lon="2.00246">
        <ele>104.2</ele>
        <time>2023-12-20T08:56:28Z</time>
      </trkpt>
      <trkpt lat="48.62146" lon="2.00238">
        <ele>104.2</ele>
        <time>2023-12-20T08:56:29Z</time>
      </trkpt>
      <trkpt lat="48.62143" lon="2.0023">
        <ele>104.2</ele>
        <time>2023-12-20T08:56:30Z</time>
      </trkpt>
      <trkpt lat="48.6214" lon="2.00221">
        <ele>102.6</ele>
        <time>2023-12-20T08:56:31Z</time>
      </trkpt>
      <trkpt lat="48.62138" lon="2.00212">
        <ele>102.6</ele>
        <time>2023-12-20T08:56:32Z</time>
      </trkpt>
      <trkpt lat="48.62135" lon="2.00204">
        <ele>102.6</ele>
        <time>2023-12-20T08:56:33Z</time>
      </trkpt>
      <trkpt lat="48.62132" lon="2.00195">
        <ele>101.8</ele>
        <time>2023-12-20T08:56:34Z</time>
      </trkpt>
      <trkpt lat="48.62128" lon="2.00186">
        <ele>101.2</ele>
        <time>2023-12-20T08:56:35Z</time>
      </trkpt>
      <trkpt lat="48.62125" lon="2.00178">
        <ele>101.2</ele>
        <time>2023-12-20T08:56:36Z</time>
      </trkpt>
      <trkpt lat="48.62121" lon="2.00169">
        <ele>101.2</ele>
        <time>2023-12-20T08:56:37Z</time>
      </trkpt>
      <trkpt lat="48.62118" lon="2.0016">
        <ele>100.4</ele>
        <time>2023-12-20T08:56:38Z</time>
      </trkpt>
      <trkpt lat="48.62115" lon="2.00151">
        <ele>100.4</ele>
        <time>2023-12-20T08:56:39Z</time>
      </trkpt>
      <trkpt lat="48.62111" lon="2.00142">
        <ele>100.4</ele>
        <time>2023-12-20T08:56:40Z</time>
      </trkpt>
      <trkpt lat="48.62108" lon="2.00132">
        <ele>100.4</ele>
        <time>2023-12-20T08:56:41Z</time>
      </trkpt>
      <trkpt lat="48.62105" lon="2.00123">
        <ele>100.4</ele>
        <time>2023-12-20T08:56:42Z</time>
      </trkpt>
      <trkpt lat="48.62101" lon="2.00114">
        <ele>99.8</ele>
        <time>2023-12-20T08:56:43Z</time>
      </trkpt>
      <trkpt lat="48.62098" lon="2.00105">
        <ele>99.8</ele>
        <time>2023-12-20T08:56:44Z</time>
      </trkpt>
      <trkpt lat="48.62095" lon="2.00096">
        <ele>99.8</ele>
        <time>2023-12-20T08:56:45Z</time>
      </trkpt>
      <trkpt lat="48.62092" lon="2.00087">
        <ele>99.4</ele>
        <time>2023-12-20T08:56:46Z</time>
      </trkpt>
      <trkpt lat="48.62089" lon="2.00078">
        <ele>99.8</ele>
        <time>2023-12-20T08:56:47Z</time>
      </trkpt>
      <trkpt lat="48.62085" lon="2.00068">
        <ele>99.8</ele>
        <time>2023-12-20T08:56:48Z</time>
      </trkpt>
      <trkpt lat="48.62082" lon="2.00059">
        <ele>99.8</ele>
        <time>2023-12-20T08:56:49Z</time>
      </trkpt>
      <trkpt lat="48.62079" lon="2.00049">
        <ele>99.2</ele>
        <time>2023-12-20T08:56:50Z</time>
      </trkpt>
      <trkpt lat="48.62077" lon="2.00039">
        <ele>98.8</ele>
        <time>2023-12-20T08:56:51Z</time>
      </trkpt>
      <trkpt lat="48.62074" lon="2.00029">
        <ele>98.8</ele>
        <time>2023-12-20T08:56:52Z</time>
      </trkpt>
      <trkpt lat="48.62072" lon="2.00019">
        <ele>98.8</ele>
        <time>2023-12-20T08:56:53Z</time>
      </trkpt>
      <trkpt lat="48.62071" lon="2.0001">
        <ele>98.8</ele>
        <time>2023-12-20T08:56:54Z</time>
      </trkpt>
      <trkpt lat="48.6207" lon="2">
        <ele>99</ele>
        <time>2023-12-20T08:56:55Z</time>
      </trkpt>
      <trkpt lat="48.62068" lon="1.9999">
        <ele>99</ele>
        <time>2023-12-20T08:56:56Z</time>
      </trkpt>
      <trkpt lat="48.62067" lon="1.99981">
        <ele>99</ele>
        <time>2023-12-20T08:56:57Z</time>
      </trkpt>
      <trkpt lat="48.62066" lon="1.99971">
        <ele>99</ele>
        <time>2023-12-20T08:56:58Z</time>
      </trkpt>
      <trkpt lat="48.62065" lon="1.99961">
        <ele>99</ele>
        <time>2023-12-20T08:56:59Z</time>
      </trkpt>
      <trkpt lat="48.62064" lon="1.99952">
        <ele>99</ele>
        <time>2023-12-20T08:57:00Z</time>
      </trkpt>
      <trkpt lat="48.62063" lon="1.99943">
        <ele>99</ele>
        <time>2023-12-20T08:57:01Z</time>
      </trkpt>
      <trkpt lat="48.62062" lon="1.99934">
        <ele>100</ele>
        <time>2023-12-20T08:57:02Z</time>
      </trkpt>
      <trkpt lat="48.62061" lon="1.99926">
        <ele>100.2</ele>
        <time>2023-12-20T08:57:03Z</time>
      </trkpt>
      <trkpt lat="48.62061" lon="1.99917">
        <ele>100.2</ele>
        <time>2023-12-20T08:57:04Z</time>
      </trkpt>
      <trkpt lat="48.62063" lon="1.99909">
        <ele>100.2</ele>
        <time>2023-12-20T08:57:05Z</time>
      </trkpt>
      <trkpt lat="48.62066" lon="1.99902">
        <ele>100.2</ele>
        <time>2023-12-20T08:57:06Z</time>
      </trkpt>
      <trkpt lat="48.62069" lon="1.99897">
        <ele>100.4</ele>
        <time>2023-12-20T08:57:07Z</time>
      </trkpt>
      <trkpt lat="48.62073" lon="1.99892">
        <ele>100.4</ele>
        <time>2023-12-20T08:57:08Z</time>
      </trkpt>
      <trkpt lat="48.62078" lon="1.99887">
        <ele>100.4</ele>
        <time>2023-12-20T08:57:09Z</time>
      </trkpt>
      <trkpt lat="48.62082" lon="1.99884">
        <ele>100.8</ele>
        <time>2023-12-20T08:57:10Z</time>
      </trkpt>
      <trkpt lat="48.62086" lon="1.9988">
        <ele>101</ele>
        <time>2023-12-20T08:57:11Z</time>
      </trkpt>
      <trkpt lat="48.62091" lon="1.99876">
        <ele>101</ele>
        <time>2023-12-20T08:57:12Z</time>
      </trkpt>
      <trkpt lat="48.62096" lon="1.99873">
        <ele>101</ele>
        <time>2023-12-20T08:57:13Z</time>
      </trkpt>
      <trkpt lat="48.62101" lon="1.9987">
        <ele>101.4</ele>
        <time>2023-12-20T08:57:14Z</time>
      </trkpt>
      <trkpt lat="48.62106" lon="1.99866">
        <ele>101</ele>
        <time>2023-12-20T08:57:15Z</time>
      </trkpt>
      <trkpt lat="48.62111" lon="1.99863">
        <ele>101</ele>
        <time>2023-12-20T08:57:16Z</time>
      </trkpt>
      <trkpt lat="48.62115" lon="1.99859">
        <ele>101</ele>
        <time>2023-12-20T08:57:17Z</time>
      </trkpt>
      <trkpt lat="48.62119" lon="1.99856">
        <ele>102</ele>
        <time>2023-12-20T08:57:18Z</time>
      </trkpt>
      <trkpt lat="48.62124" lon="1.99853">
        <ele>102.2</ele>
        <time>2023-12-20T08:57:19Z</time>
      </trkpt>
      <trkpt lat="48.62128" lon="1.9985">
        <ele>102.2</ele>
        <time>2023-12-20T08:57:20Z</time>
      </trkpt>
      <trkpt lat="48.62132" lon="1.99846">
        <ele>102.2</ele>
        <time>2023-12-20T08:57:21Z</time>
      </trkpt>
      <trkpt lat="48.62136" lon="1.99843">
        <ele>103</ele>
        <time>2023-12-20T08:57:22Z</time>
      </trkpt>
      <trkpt lat="48.6214" lon="1.9984">
        <ele>103.4</ele>
        <time>2023-12-20T08:57:23Z</time>
      </trkpt>
      <trkpt lat="48.62144" lon="1.99837">
        <ele>103.4</ele>
        <time>2023-12-20T08:57:24Z</time>
      </trkpt>
      <trkpt lat="48.62148" lon="1.99834">
        <ele>103.4</ele>
        <time>2023-12-20T08:57:25Z</time>
      </trkpt>
      <trkpt lat="48.62152" lon="1.9983">
        <ele>104.2</ele>
        <time>2023-12-20T08:57:26Z</time>
      </trkpt>
      <trkpt lat="48.62155" lon="1.99827">
        <ele>104.2</ele>
        <time>2023-12-20T08:57:27Z</time>
      </trkpt>
      <trkpt lat="48.62159" lon="1.99823">
        <ele>104.2</ele>
        <time>2023-12-20T08:57:28Z</time>
      </trkpt>
      <trkpt lat="48.62163" lon="1.99819">
        <ele>104.2</ele>
        <time>2023-12-20T08:57:29Z</time>
      </trkpt>
      <trkpt lat="48.62166" lon="1.99815">
        <ele>104.8</ele>
        <time>2023-12-20T08:57:30Z</time>
      </trkpt>
      <trkpt lat="48.6217" lon="1.99811">
        <ele>105</ele>
        <time>2023-12-20T08:57:31Z</time>
      </trkpt>
      <trkpt lat="48.62173" lon="1.99806">
        <ele>105</ele>
        <time>2023-12-20T08:57:32Z</time>
      </trkpt>
      <trkpt lat="48.62177" lon="1.99802">
        <ele>105</ele>
        <time>2023-12-20T08:57:33Z</time>
      </trkpt>
      <trkpt lat="48.6218" lon="1.99798">
        <ele>105</ele>
        <time>2023-12-20T08:57:34Z</time>
      </trkpt>
      <trkpt lat="48.62183" lon="1.99793">
        <ele>105.4</ele>
        <time>2023-12-20T08:57:35Z</time>
      </trkpt>
      <trkpt lat="48.62186" lon="1.99789">
        <ele>105.4</ele>
        <time>2023-12-20T08:57:36Z</time>
      </trkpt>
      <trkpt lat="48.62189" lon="1.99784">
        <ele>105.4</ele>
        <time>2023-12-20T08:57:37Z</time>
      </trkpt>
      <trkpt lat="48.62191" lon="1.9978">
        <ele>105.6</ele>
        <time>2023-12-20T08:57:38Z</time>
      </trkpt>
      <trkpt lat="48.62194" lon="1.99775">
        <ele>105.4</ele>
        <time>2023-12-20T08:57:39Z</time>
      </trkpt>
      <trkpt lat="48.62196" lon="1.9977">
        <ele>105.4</ele>
        <time>2023-12-20T08:57:40Z</time>
      </trkpt>
      <trkpt lat="48.62199" lon="1.99765">
        <ele>105.4</ele>
        <time>2023-12-20T08:57:41Z</time>
      </trkpt>
      <trkpt lat="48.62201" lon="1.99759">
        <ele>105.4</ele>
        <time>2023-12-20T08:57:42Z</time>
      </trkpt>
      <trkpt lat="48.62203" lon="1.99753">
        <ele>104.6</ele>
        <time>2023-12-20T08:57:43Z</time>
      </trkpt>
      <trkpt lat="48.62204" lon="1.99747">
        <ele>104.6</ele>
        <time>2023-12-20T08:57:44Z</time>
      </trkpt>
      <trkpt lat="48.62205" lon="1.9974">
        <ele>104.6</ele>
        <time>2023-12-20T08:57:45Z</time>
      </trkpt>
      <trkpt lat="48.62206" lon="1.99733">
        <ele>104.6</ele>
        <time>2023-12-20T08:57:46Z</time>
      </trkpt>
      <trkpt lat="48.62206" lon="1.99726">
        <ele>104.6</ele>
        <time>2023-12-20T08:57:47Z</time>
      </trkpt>
      <trkpt lat="48.62206" lon="1.99719">
        <ele>104.6</ele>
        <time>2023-12-20T08:57:48Z</time>
      </trkpt>
      <trkpt lat="48.62206" lon="1.99712">
        <ele>104.6</ele>
        <time>2023-12-20T08:57:49Z</time>
      </trkpt>
      <trkpt lat="48.62206" lon="1.99704">
        <ele>104.2</ele>
        <time>2023-12-20T08:57:50Z</time>
      </trkpt>
      <trkpt lat="48.62206" lon="1.99697">
        <ele>103.8</ele>
        <time>2023-12-20T08:57:51Z</time>
      </trkpt>
      <trkpt lat="48.62206" lon="1.99689">
        <ele>103.8</ele>
        <time>2023-12-20T08:57:52Z</time>
      </trkpt>
      <trkpt lat="48.62206" lon="1.99682">
        <ele>103.8</ele>
        <time>2023-12-20T08:57:53Z</time>
      </trkpt>
      <trkpt lat="48.62206" lon="1.99674">
        <ele>103</ele>
        <time>2023-12-20T08:57:54Z</time>
      </trkpt>
      <trkpt lat="48.62207" lon="1.99666">
        <ele>102.4</ele>
        <time>2023-12-20T08:57:55Z</time>
      </trkpt>
      <trkpt lat="48.62208" lon="1.99657">
        <ele>102.4</ele>
        <time>2023-12-20T08:57:56Z</time>
      </trkpt>
      <trkpt lat="48.62209" lon="1.99649">
        <ele>102.4</ele>
        <time>2023-12-20T08:57:57Z</time>
      </trkpt>
      <trkpt lat="48.6221" lon="1.9964">
        <ele>101.4</ele>
        <time>2023-12-20T08:57:58Z</time>
      </trkpt>
      <trkpt lat="48.62211" lon="1.9963">
        <ele>100.6</ele>
        <time>2023-12-20T08:57:59Z</time>
      </trkpt>
      <trkpt lat="48.62213" lon="1.99621">
        <ele>100.6</ele>
        <time>2023-12-20T08:58:00Z</time>
      </trkpt>
      <trkpt lat="48.62214" lon="1.99611">
        <ele>100.6</ele>
        <time>2023-12-20T08:58:01Z</time>
      </trkpt>
      <trkpt lat="48.62215" lon="1.99601">
        <ele>99.6</ele>
        <time>2023-12-20T08:58:02Z</time>
      </trkpt>
      <trkpt lat="48.62216" lon="1.9959">
        <ele>100.2</ele>
        <time>2023-12-20T08:58:03Z</time>
      </trkpt>
      <trkpt lat="48.62217" lon="1.99581">
        <ele>100.2</ele>
        <time>2023-12-20T08:58:04Z</time>
      </trkpt>
      <trkpt lat="48.62217" lon="1.99574">
        <ele>100.2</ele>
        <time>2023-12-20T08:58:05Z</time>
      </trkpt>
      <trkpt lat="48.62218" lon="1.99567">
        <ele>100.2</ele>
        <time>2023-12-20T08:58:06Z</time>
      </trkpt>
      <trkpt lat="48.62218" lon="1.9956">
        <ele>100</ele>
        <time>2023-12-20T08:58:07Z</time>
      </trkpt>
      <trkpt lat="48.62218" lon="1.99554">
        <ele>100</ele>
        <time>2023-12-20T08:58:08Z</time>
      </trkpt>
      <trkpt lat="48.62218" lon="1.99549">
        <ele>100</ele>
        <time>2023-12-20T08:58:09Z</time>
      </trkpt>
      <trkpt lat="48.62218" lon="1.99545">
        <ele>100</ele>
        <time>2023-12-20T08:58:10Z</time>
      </trkpt>
      <trkpt lat="48.62218" lon="1.99541">
        <ele>99.2</ele>
        <time>2023-12-20T08:58:11Z</time>
      </trkpt>
      <trkpt lat="48.62218" lon="1.99536">
        <ele>99.2</ele>
        <time>2023-12-20T08:58:12Z</time>
      </trkpt>
      <trkpt lat="48.62218" lon="1.99531">
        <ele>99.2</ele>
        <time>2023-12-20T08:58:13Z</time>
      </trkpt>
      <trkpt lat="48.62218" lon="1.99525">
        <ele>98.2</ele>
        <time>2023-12-20T08:58:14Z</time>
      </trkpt>
      <trkpt lat="48.62218" lon="1.99518">
        <ele>97.8</ele>
        <time>2023-12-20T08:58:15Z</time>
      </trkpt>
      <trkpt lat="48.62218" lon="1.99511">
        <ele>97.8</ele>
        <time>2023-12-20T08:58:16Z</time>
      </trkpt>
      <trkpt lat="48.62218" lon="1.99503">
        <ele>97.8</ele>
        <time>2023-12-20T08:58:17Z</time>
      </trkpt>
      <trkpt lat="48.62217" lon="1.99494">
        <ele>96.8</ele>
        <time>2023-12-20T08:58:18Z</time>
      </trkpt>
      <trkpt lat="48.62217" lon="1.99485">
        <ele>96.8</ele>
        <time>2023-12-20T08:58:19Z</time>
      </trkpt>
      <trkpt lat="48.62216" lon="1.99476">
        <ele>96.8</ele>
        <time>2023-12-20T08:58:20Z</time>
      </trkpt>
      <trkpt lat="48.62216" lon="1.99467">
        <ele>96.8</ele>
        <time>2023-12-20T08:58:21Z</time>
      </trkpt>
      <trkpt lat="48.62216" lon="1.99458">
        <ele>95.8</ele>
        <time>2023-12-20T08:58:22Z</time>
      </trkpt>
      <trkpt lat="48.62215" lon="1.99449">
        <ele>95</ele>
        <time>2023-12-20T08:58:23Z</time>
      </trkpt>
      <trkpt lat="48.62215" lon="1.99439">
        <ele>95</ele>
        <time>2023-12-20T08:58:24Z</time>
      </trkpt>
      <trkpt lat="48.62215" lon="1.99429">
        <ele>95</ele>
        <time>2023-12-20T08:58:25Z</time>
      </trkpt>
      <trkpt lat="48.62214" lon="1.99419">
        <ele>94</ele>
        <time>2023-12-20T08:58:26Z</time>
      </trkpt>
      <trkpt lat="48.62214" lon="1.99409">
        <ele>94.2</ele>
        <time>2023-12-20T08:58:27Z</time>
      </trkpt>
      <trkpt lat="48.62213" lon="1.99401">
        <ele>94.2</ele>
        <time>2023-12-20T08:58:28Z</time>
      </trkpt>
      <trkpt lat="48.62212" lon="1.9939">
        <ele>94.2</ele>
        <time>2023-12-20T08:58:29Z</time>
      </trkpt>
      <trkpt lat="48.62212" lon="1.9938">
        <ele>93.8</ele>
        <time>2023-12-20T08:58:30Z</time>
      </trkpt>
      <trkpt lat="48.62212" lon="1.9937">
        <ele>93.6</ele>
        <time>2023-12-20T08:58:31Z</time>
      </trkpt>
      <trkpt lat="48.62211" lon="1.9936">
        <ele>93.6</ele>
        <time>2023-12-20T08:58:32Z</time>
      </trkpt>
      <trkpt lat="48.62211" lon="1.99349">
        <ele>93.6</ele>
        <time>2023-12-20T08:58:33Z</time>
      </trkpt>
      <trkpt lat="48.6221" lon="1.99339">
        <ele>93.6</ele>
        <time>2023-12-20T08:58:34Z</time>
      </trkpt>
      <trkpt lat="48.62209" lon="1.99329">
        <ele>93.2</ele>
        <time>2023-12-20T08:58:35Z</time>
      </trkpt>
      <trkpt lat="48.62207" lon="1.99319">
        <ele>93.2</ele>
        <time>2023-12-20T08:58:36Z</time>
      </trkpt>
      <trkpt lat="48.62205" lon="1.99309">
        <ele>93.2</ele>
        <time>2023-12-20T08:58:37Z</time>
      </trkpt>
      <trkpt lat="48.62203" lon="1.993">
        <ele>93.2</ele>
        <time>2023-12-20T08:58:38Z</time>
      </trkpt>
      <trkpt lat="48.62201" lon="1.9929">
        <ele>93.4</ele>
        <time>2023-12-20T08:58:39Z</time>
      </trkpt>
      <trkpt lat="48.62199" lon="1.99281">
        <ele>93.4</ele>
        <time>2023-12-20T08:58:40Z</time>
      </trkpt>
      <trkpt lat="48.62196" lon="1.99272">
        <ele>93.4</ele>
        <time>2023-12-20T08:58:41Z</time>
      </trkpt>
      <trkpt lat="48.62194" lon="1.99264">
        <ele>93.4</ele>
        <time>2023-12-20T08:58:42Z</time>
      </trkpt>
      <trkpt lat="48.62191" lon="1.99256">
        <ele>93.8</ele>
        <time>2023-12-20T08:58:43Z</time>
      </trkpt>
      <trkpt lat="48.62189" lon="1.99249">
        <ele>93.8</ele>
        <time>2023-12-20T08:58:44Z</time>
      </trkpt>
      <trkpt lat="48.62188" lon="1.99242">
        <ele>93.8</ele>
        <time>2023-12-20T08:58:45Z</time>
      </trkpt>
      <trkpt lat="48.62187" lon="1.99234">
        <ele>93.8</ele>
        <time>2023-12-20T08:58:46Z</time>
      </trkpt>
      <trkpt lat="48.62188" lon="1.99226">
        <ele>94.4</ele>
        <time>2023-12-20T08:58:47Z</time>
      </trkpt>
      <trkpt lat="48.62191" lon="1.99219">
        <ele>94.4</ele>
        <time>2023-12-20T08:58:48Z</time>
      </trkpt>
      <trkpt lat="48.62195" lon="1.99213">
        <ele>94.4</ele>
        <time>2023-12-20T08:58:49Z</time>
      </trkpt>
      <trkpt lat="48.62199" lon="1.99208">
        <ele>94.4</ele>
        <time>2023-12-20T08:58:50Z</time>
      </trkpt>
      <trkpt lat="48.62203" lon="1.99203">
        <ele>93.6</ele>
        <time>2023-12-20T08:58:51Z</time>
      </trkpt>
      <trkpt lat="48.62207" lon="1.99198">
        <ele>93.6</ele>
        <time>2023-12-20T08:58:52Z</time>
      </trkpt>
      <trkpt lat="48.62212" lon="1.99193">
        <ele>93.6</ele>
        <time>2023-12-20T08:58:53Z</time>
      </trkpt>
      <trkpt lat="48.62216" lon="1.99187">
        <ele>93</ele>
        <time>2023-12-20T08:58:54Z</time>
      </trkpt>
      <trkpt lat="48.6222" lon="1.99181">
        <ele>93.2</ele>
        <time>2023-12-20T08:58:55Z</time>
      </trkpt>
      <trkpt lat="48.62225" lon="1.99176">
        <ele>93.2</ele>
        <time>2023-12-20T08:58:56Z</time>
      </trkpt>
      <trkpt lat="48.62229" lon="1.9917">
        <ele>93.2</ele>
        <time>2023-12-20T08:58:57Z</time>
      </trkpt>
      <trkpt lat="48.62233" lon="1.99164">
        <ele>93.2</ele>
        <time>2023-12-20T08:58:58Z</time>
      </trkpt>
      <trkpt lat="48.62238" lon="1.99159">
        <ele>93.4</ele>
        <time>2023-12-20T08:58:59Z</time>
      </trkpt>
      <trkpt lat="48.62242" lon="1.99154">
        <ele>93.4</ele>
        <time>2023-12-20T08:59:00Z</time>
      </trkpt>
      <trkpt lat="48.62246" lon="1.99149">
        <ele>93.4</ele>
        <time>2023-12-20T08:59:01Z</time>
      </trkpt>
      <trkpt lat="48.62251" lon="1.99144">
        <ele>93.4</ele>
        <time>2023-12-20T08:59:02Z</time>
      </trkpt>
      <trkpt lat="48.62255" lon="1.99139">
        <ele>94.2</ele>
        <time>2023-12-20T08:59:03Z</time>
      </trkpt>
      <trkpt lat="48.62259" lon="1.99134">
        <ele>94.2</ele>
        <time>2023-12-20T08:59:04Z</time>
      </trkpt>
      <trkpt lat="48.62264" lon="1.99129">
        <ele>94.2</ele>
        <time>2023-12-20T08:59:05Z</time>
      </trkpt>
      <trkpt lat="48.62268" lon="1.99125">
        <ele>94.2</ele>
        <time>2023-12-20T08:59:06Z</time>
      </trkpt>
      <trkpt lat="48.62272" lon="1.9912">
        <ele>94.4</ele>
        <time>2023-12-20T08:59:07Z</time>
      </trkpt>
      <trkpt lat="48.62276" lon="1.99115">
        <ele>94.4</ele>
        <time>2023-12-20T08:59:08Z</time>
      </trkpt>
      <trkpt lat="48.6228" lon="1.99111">
        <ele>94.4</ele>
        <time>2023-12-20T08:59:09Z</time>
      </trkpt>
      <trkpt lat="48.62284" lon="1.99106">
        <ele>94.4</ele>
        <time>2023-12-20T08:59:10Z</time>
      </trkpt>
      <trkpt lat="48.62288" lon="1.99102">
        <ele>94.6</ele>
        <time>2023-12-20T08:59:11Z</time>
      </trkpt>
      <trkpt lat="48.62292" lon="1.99098">
        <ele>94.6</ele>
        <time>2023-12-20T08:59:12Z</time>
      </trkpt>
      <trkpt lat="48.62296" lon="1.99093">
        <ele>94.6</ele>
        <time>2023-12-20T08:59:13Z</time>
      </trkpt>
      <trkpt lat="48.623" lon="1.99089">
        <ele>94.6</ele>
        <time>2023-12-20T08:59:14Z</time>
      </trkpt>
      <trkpt lat="48.62304" lon="1.99084">
        <ele>95</ele>
        <time>2023-12-20T08:59:15Z</time>
      </trkpt>
      <trkpt lat="48.62308" lon="1.99079">
        <ele>95</ele>
        <time>2023-12-20T08:59:16Z</time>
      </trkpt>
      <trkpt lat="48.62311" lon="1.99074">
        <ele>95</ele>
        <time>2023-12-20T08:59:17Z</time>
      </trkpt>
      <trkpt lat="48.62315" lon="1.99069">
        <ele>95</ele>
        <time>2023-12-20T08:59:18Z</time>
      </trkpt>
      <trkpt lat="48.62318" lon="1.99063">
        <ele>95</ele>
        <time>2023-12-20T08:59:19Z</time>
      </trkpt>
      <trkpt lat="48.62322" lon="1.99058">
        <ele>95</ele>
        <time>2023-12-20T08:59:20Z</time>
      </trkpt>
      <trkpt lat="48.62325" lon="1.99053">
        <ele>95</ele>
        <time>2023-12-20T08:59:21Z</time>
      </trkpt>
      <trkpt lat="48.62328" lon="1.99047">
        <ele>95.4</ele>
        <time>2023-12-20T08:59:22Z</time>
      </trkpt>
      <trkpt lat="48.62331" lon="1.99041">
        <ele>95.6</ele>
        <time>2023-12-20T08:59:23Z</time>
      </trkpt>
      <trkpt lat="48.62334" lon="1.99036">
        <ele>95.6</ele>
        <time>2023-12-20T08:59:24Z</time>
      </trkpt>
      <trkpt lat="48.62337" lon="1.9903">
        <ele>95.6</ele>
        <time>2023-12-20T08:59:25Z</time>
      </trkpt>
      <trkpt lat="48.6234" lon="1.99023">
        <ele>95.6</ele>
        <time>2023-12-20T08:59:26Z</time>
      </trkpt>
      <trkpt lat="48.62341" lon="1.99017">
        <ele>95.8</ele>
        <time>2023-12-20T08:59:27Z</time>
      </trkpt>
      <trkpt lat="48.62343" lon="1.9901">
        <ele>95.8</ele>
        <time>2023-12-20T08:59:28Z</time>
      </trkpt>
      <trkpt lat="48.62344" lon="1.99003">
        <ele>95.8</ele>
        <time>2023-12-20T08:59:29Z</time>
      </trkpt>
      <trkpt lat="48.62344" lon="1.98997">
        <ele>95.8</ele>
        <time>2023-12-20T08:59:30Z</time>
      </trkpt>
      <trkpt lat="48.62343" lon="1.9899">
        <ele>95.4</ele>
        <time>2023-12-20T08:59:31Z</time>
      </trkpt>
      <trkpt lat="48.62342" lon="1.98983">
        <ele>95.4</ele>
        <time>2023-12-20T08:59:32Z</time>
      </trkpt>
      <trkpt lat="48.62341" lon="1.98977">
        <ele>95.4</ele>
        <time>2023-12-20T08:59:33Z</time>
      </trkpt>
      <trkpt lat="48.6234" lon="1.98971">
        <ele>95.8</ele>
        <time>2023-12-20T08:59:34Z</time>
      </trkpt>
      <trkpt lat="48.62339" lon="1.98964">
        <ele>95.6</ele>
        <time>2023-12-20T08:59:35Z</time>
      </trkpt>
      <trkpt lat="48.62338" lon="1.98958">
        <ele>95.6</ele>
        <time>2023-12-20T08:59:36Z</time>
      </trkpt>
      <trkpt lat="48.62337" lon="1.98951">
        <ele>95.6</ele>
        <time>2023-12-20T08:59:37Z</time>
      </trkpt>
      <trkpt lat="48.62336" lon="1.98945">
        <ele>96.6</ele>
        <time>2023-12-20T08:59:38Z</time>
      </trkpt>
      <trkpt lat="48.62335" lon="1.98938">
        <ele>96.6</ele>
        <time>2023-12-20T08:59:39Z</time>
      </trkpt>
      <trkpt lat="48.62334" lon="1.98931">
        <ele>96.6</ele>
        <time>2023-12-20T08:59:40Z</time>
      </trkpt>
      <trkpt lat="48.62334" lon="1.98925">
        <ele>96.6</ele>
        <time>2023-12-20T08:59:41Z</time>
      </trkpt>
      <trkpt lat="48.62334" lon="1.98918">
        <ele>96.6</ele>
        <time>2023-12-20T08:59:42Z</time>
      </trkpt>
      <trkpt lat="48.62334" lon="1.98911">
        <ele>96.6</ele>
        <time>2023-12-20T08:59:43Z</time>
      </trkpt>
      <trkpt lat="48.62335" lon="1.98904">
        <ele>96.6</ele>
        <time>2023-12-20T08:59:44Z</time>
      </trkpt>
      <trkpt lat="48.62336" lon="1.98897">
        <ele>96.6</ele>
        <time>2023-12-20T08:59:45Z</time>
      </trkpt>
      <trkpt lat="48.62338" lon="1.98891">
        <ele>97.4</ele>
        <time>2023-12-20T08:59:46Z</time>
      </trkpt>
      <trkpt lat="48.62339" lon="1.98884">
        <ele>97.2</ele>
        <time>2023-12-20T08:59:47Z</time>
      </trkpt>
      <trkpt lat="48.62341" lon="1.98877">
        <ele>97.2</ele>
        <time>2023-12-20T08:59:48Z</time>
      </trkpt>
      <trkpt lat="48.62343" lon="1.98871">
        <ele>97.2</ele>
        <time>2023-12-20T08:59:49Z</time>
      </trkpt>
      <trkpt lat="48.62345" lon="1.98864">
        <ele>97.4</ele>
        <time>2023-12-20T08:59:50Z</time>
      </trkpt>
      <trkpt lat="48.62347" lon="1.98858">
        <ele>98</ele>
        <time>2023-12-20T08:59:51Z</time>
      </trkpt>
      <trkpt lat="48.6235" lon="1.98852">
        <ele>98</ele>
        <time>2023-12-20T08:59:52Z</time>
      </trkpt>
      <trkpt lat="48.62353" lon="1.98846">
        <ele>98</ele>
        <time>2023-12-20T08:59:53Z</time>
      </trkpt>
      <trkpt lat="48.62355" lon="1.9884">
        <ele>97.8</ele>
        <time>2023-12-20T08:59:54Z</time>
      </trkpt>
      <trkpt lat="48.62358" lon="1.98834">
        <ele>98.2</ele>
        <time>2023-12-20T08:59:55Z</time>
      </trkpt>
      <trkpt lat="48.6236" lon="1.98828">
        <ele>98.2</ele>
        <time>2023-12-20T08:59:56Z</time>
      </trkpt>
      <trkpt lat="48.62363" lon="1.98823">
        <ele>98.2</ele>
        <time>2023-12-20T08:59:57Z</time>
      </trkpt>
      <trkpt lat="48.62366" lon="1.98817">
        <ele>98.2</ele>
        <time>2023-12-20T08:59:58Z</time>
      </trkpt>
      <trkpt lat="48.62369" lon="1.98811">
        <ele>98.6</ele>
        <time>2023-12-20T08:59:59Z</time>
      </trkpt>
      <trkpt lat="48.62371" lon="1.98805">
        <ele>98.6</ele>
        <time>2023-12-20T09:00:00Z</time>
      </trkpt>
      <trkpt lat="48.62374" lon="1.98799">
        <ele>98.6</ele>
        <time>2023-12-20T09:00:01Z</time>
      </trkpt>
      <trkpt lat="48.62377" lon="1.98794">
        <ele>98.4</ele>
        <time>2023-12-20T09:00:02Z</time>
      </trkpt>
      <trkpt lat="48.6238" lon="1.98788">
        <ele>98.6</ele>
        <time>2023-12-20T09:00:03Z</time>
      </trkpt>
      <trkpt lat="48.62383" lon="1.98782">
        <ele>98.6</ele>
        <time>2023-12-20T09:00:04Z</time>
      </trkpt>
      <trkpt lat="48.62386" lon="1.98777">
        <ele>98.6</ele>
        <time>2023-12-20T09:00:05Z</time>
      </trkpt>
      <trkpt lat="48.62388" lon="1.98771">
        <ele>98.8</ele>
        <time>2023-12-20T09:00:06Z</time>
      </trkpt>
      <trkpt lat="48.62391" lon="1.98765">
        <ele>98.8</ele>
        <time>2023-12-20T09:00:07Z</time>
      </trkpt>
      <trkpt lat="48.62394" lon="1.9876">
        <ele>98.8</ele>
        <time>2023-12-20T09:00:08Z</time>
      </trkpt>
      <trkpt lat="48.62396" lon="1.98754">
        <ele>98.8</ele>
        <time>2023-12-20T09:00:09Z</time>
      </trkpt>
      <trkpt lat="48.62399" lon="1.98749">
        <ele>98.8</ele>
        <time>2023-12-20T09:00:10Z</time>
      </trkpt>
      <trkpt lat="48.62401" lon="1.98743">
        <ele>99.4</ele>
        <time>2023-12-20T09:00:11Z</time>
      </trkpt>
      <trkpt lat="48.62404" lon="1.98737">
        <ele>99.4</ele>
        <time>2023-12-20T09:00:12Z</time>
      </trkpt>
      <trkpt lat="48.62406" lon="1.98731">
        <ele>99.4</ele>
        <time>2023-12-20T09:00:13Z</time>
      </trkpt>
      <trkpt lat="48.62408" lon="1.98724">
        <ele>99.4</ele>
        <time>2023-12-20T09:00:14Z</time>
      </trkpt>
      <trkpt lat="48.6241" lon="1.98718">
        <ele>99</ele>
        <time>2023-12-20T09:00:15Z</time>
      </trkpt>
      <trkpt lat="48.62411" lon="1.98712">
        <ele>99</ele>
        <time>2023-12-20T09:00:16Z</time>
      </trkpt>
      <trkpt lat="48.62413" lon="1.98705">
        <ele>99</ele>
        <time>2023-12-20T09:00:17Z</time>
      </trkpt>
      <trkpt lat="48.62415" lon="1.98699">
        <ele>99.4</ele>
        <time>2023-12-20T09:00:18Z</time>
      </trkpt>
      <trkpt lat="48.62417" lon="1.98692">
        <ele>99.6</ele>
        <time>2023-12-20T09:00:19Z</time>
      </trkpt>
      <trkpt lat="48.62419" lon="1.98686">
        <ele>99.6</ele>
        <time>2023-12-20T09:00:20Z</time>
      </trkpt>
      <trkpt lat="48.62421" lon="1.9868">
        <ele>99.6</ele>
        <time>2023-12-20T09:00:21Z</time>
      </trkpt>
      <trkpt lat="48.62422" lon="1.98673">
        <ele>99.6</ele>
        <time>2023-12-20T09:00:22Z</time>
      </trkpt>
      <trkpt lat="48.62424" lon="1.98667">
        <ele>100.6</ele>
        <time>2023-12-20T09:00:23Z</time>
      </trkpt>
      <trkpt lat="48.62426" lon="1.98661">
        <ele>100.6</ele>
        <time>2023-12-20T09:00:24Z</time>
      </trkpt>
      <trkpt lat="48.62427" lon="1.98655">
        <ele>100.6</ele>
        <time>2023-12-20T09:00:25Z</time>
      </trkpt>
      <trkpt lat="48.62429" lon="1.98649">
        <ele>100.6</ele>
        <time>2023-12-20T09:00:26Z</time>
      </trkpt>
      <trkpt lat="48.62431" lon="1.98643">
        <ele>101.4</ele>
        <time>2023-12-20T09:00:27Z</time>
      </trkpt>
      <trkpt lat="48.62433" lon="1.98637">
        <ele>101.4</ele>
        <time>2023-12-20T09:00:28Z</time>
      </trkpt>
      <trkpt lat="48.62435" lon="1.9863">
        <ele>101.4</ele>
        <time>2023-12-20T09:00:29Z</time>
      </trkpt>
      <trkpt lat="48.62436" lon="1.98624">
        <ele>101.4</ele>
        <time>2023-12-20T09:00:30Z</time>
      </trkpt>
      <trkpt lat="48.62438" lon="1.98618">
        <ele>101.6</ele>
        <time>2023-12-20T09:00:31Z</time>
      </trkpt>
      <trkpt lat="48.6244" lon="1.98612">
        <ele>101.6</ele>
        <time>2023-12-20T09:00:32Z</time>
      </trkpt>
      <trkpt lat="48.62442" lon="1.98605">
        <ele>101.6</ele>
        <time>2023-12-20T09:00:33Z</time>
      </trkpt>
      <trkpt lat="48.62444" lon="1.98599">
        <ele>102</ele>
        <time>2023-12-20T09:00:34Z</time>
      </trkpt>
      <trkpt lat="48.62445" lon="1.98593">
        <ele>102.2</ele>
        <time>2023-12-20T09:00:35Z</time>
      </trkpt>
      <trkpt lat="48.62447" lon="1.98587">
        <ele>102.2</ele>
        <time>2023-12-20T09:00:36Z</time>
      </trkpt>
      <trkpt lat="48.62449" lon="1.98581">
        <ele>102.2</ele>
        <time>2023-12-20T09:00:37Z</time>
      </trkpt>
      <trkpt lat="48.62451" lon="1.98575">
        <ele>102.8</ele>
        <time>2023-12-20T09:00:38Z</time>
      </trkpt>
      <trkpt lat="48.62452" lon="1.98569">
        <ele>103.2</ele>
        <time>2023-12-20T09:00:39Z</time>
      </trkpt>
      <trkpt lat="48.62454" lon="1.98563">
        <ele>103.2</ele>
        <time>2023-12-20T09:00:40Z</time>
      </trkpt>
      <trkpt lat="48.62456" lon="1.98556">
        <ele>103.2</ele>
        <time>2023-12-20T09:00:41Z</time>
      </trkpt>
      <trkpt lat="48.62458" lon="1.9855">
        <ele>103.2</ele>
        <time>2023-12-20T09:00:42Z</time>
      </trkpt>
      <trkpt lat="48.62459" lon="1.98544">
        <ele>103.8</ele>
        <time>2023-12-20T09:00:43Z</time>
      </trkpt>
      <trkpt lat="48.62461" lon="1.98538">
        <ele>103.8</ele>
        <time>2023-12-20T09:00:44Z</time>
      </trkpt>
      <trkpt lat="48.62463" lon="1.98532">
        <ele>103.8</ele>
        <time>2023-12-20T09:00:45Z</time>
      </trkpt>
      <trkpt lat="48.62465" lon="1.98526">
        <ele>104.2</ele>
        <time>2023-12-20T09:00:46Z</time>
      </trkpt>
      <trkpt lat="48.62466" lon="1.9852">
        <ele>104.2</ele>
        <time>2023-12-20T09:00:47Z</time>
      </trkpt>
      <trkpt lat="48.62468" lon="1.98513">
        <ele>104.2</ele>
        <time>2023-12-20T09:00:48Z</time>
      </trkpt>
      <trkpt lat="48.6247" lon="1.98507">
        <ele>104.2</ele>
        <time>2023-12-20T09:00:49Z</time>
      </trkpt>
      <trkpt lat="48.62472" lon="1.98501">
        <ele>104.8</ele>
        <time>2023-12-20T09:00:50Z</time>
      </trkpt>
      <trkpt lat="48.62473" lon="1.98495">
        <ele>105</ele>
        <time>2023-12-20T09:00:51Z</time>
      </trkpt>
      <trkpt lat="48.62475" lon="1.98489">
        <ele>105</ele>
        <time>2023-12-20T09:00:52Z</time>
      </trkpt>
      <trkpt lat="48.62477" lon="1.98483">
        <ele>105</ele>
        <time>2023-12-20T09:00:53Z</time>
      </trkpt>
      <trkpt lat="48.62479" lon="1.98477">
        <ele>105</ele>
        <time>2023-12-20T09:00:54Z</time>
      </trkpt>
      <trkpt lat="48.62481" lon="1.9847">
        <ele>104.8</ele>
        <time>2023-12-20T09:00:55Z</time>
      </trkpt>
      <trkpt lat="48.62483" lon="1.98464">
        <ele>104.8</ele>
        <time>2023-12-20T09:00:56Z</time>
      </trkpt>
      <trkpt lat="48.62484" lon="1.98458">
        <ele>104.8</ele>
        <time>2023-12-20T09:00:57Z</time>
      </trkpt>
      <trkpt lat="48.62486" lon="1.98451">
        <ele>105</ele>
        <time>2023-12-20T09:00:58Z</time>
      </trkpt>
      <trkpt lat="48.62488" lon="1.98445">
        <ele>105.6</ele>
        <time>2023-12-20T09:00:59Z</time>
      </trkpt>
      <trkpt lat="48.6249" lon="1.98439">
        <ele>105.6</ele>
        <time>2023-12-20T09:01:00Z</time>
      </trkpt>
      <trkpt lat="48.62491" lon="1.98432">
        <ele>105.6</ele>
        <time>2023-12-20T09:01:01Z</time>
      </trkpt>
      <trkpt lat="48.62493" lon="1.98426">
        <ele>105.8</ele>
        <time>2023-12-20T09:01:02Z</time>
      </trkpt>
      <trkpt lat="48.62495" lon="1.9842">
        <ele>106</ele>
        <time>2023-12-20T09:01:03Z</time>
      </trkpt>
      <trkpt lat="48.62497" lon="1.98414">
        <ele>106</ele>
        <time>2023-12-20T09:01:04Z</time>
      </trkpt>
      <trkpt lat="48.62498" lon="1.98407">
        <ele>106</ele>
        <time>2023-12-20T09:01:05Z</time>
      </trkpt>
      <trkpt lat="48.625" lon="1.98401">
        <ele>106</ele>
        <time>2023-12-20T09:01:06Z</time>
      </trkpt>
      <trkpt lat="48.62502" lon="1.98394">
        <ele>106.2</ele>
        <time>2023-12-20T09:01:07Z</time>
      </trkpt>
      <trkpt lat="48.62504" lon="1.98388">
        <ele>106.2</ele>
        <time>2023-12-20T09:01:08Z</time>
      </trkpt>
      <trkpt lat="48.62506" lon="1.98382">
        <ele>106.2</ele>
        <time>2023-12-20T09:01:09Z</time>
      </trkpt>
      <trkpt lat="48.62508" lon="1.98376">
        <ele>106.2</ele>
        <time>2023-12-20T09:01:10Z</time>
      </trkpt>
      <trkpt lat="48.6251" lon="1.98369">
        <ele>106.8</ele>
        <time>2023-12-20T09:01:11Z</time>
      </trkpt>
      <trkpt lat="48.62511" lon="1.98363">
        <ele>106.8</ele>
        <time>2023-12-20T09:01:12Z</time>
      </trkpt>
      <trkpt lat="48.62513" lon="1.98357">
        <ele>106.8</ele>
        <time>2023-12-20T09:01:13Z</time>
      </trkpt>
      <trkpt lat="48.62515" lon="1.9835">
        <ele>106.8</ele>
        <time>2023-12-20T09:01:14Z</time>
      </trkpt>
      <trkpt lat="48.62517" lon="1.98344">
        <ele>107.2</ele>
        <time>2023-12-20T09:01:15Z</time>
      </trkpt>
      <trkpt lat="48.62519" lon="1.98338">
        <ele>107.2</ele>
        <time>2023-12-20T09:01:16Z</time>
      </trkpt>
      <trkpt lat="48.6252" lon="1.98332">
        <ele>107.2</ele>
        <time>2023-12-20T09:01:17Z</time>
      </trkpt>
      <trkpt lat="48.62522" lon="1.98325">
        <ele>107.2</ele>
        <time>2023-12-20T09:01:18Z</time>
      </trkpt>
      <trkpt lat="48.62524" lon="1.98319">
        <ele>107.6</ele>
        <time>2023-12-20T09:01:19Z</time>
      </trkpt>
      <trkpt lat="48.62526" lon="1.98313">
        <ele>107.6</ele>
        <time>2023-12-20T09:01:20Z</time>
      </trkpt>
      <trkpt lat="48.62528" lon="1.98306">
        <ele>107.6</ele>
        <time>2023-12-20T09:01:21Z</time>
      </trkpt>
      <trkpt lat="48.62529" lon="1.983">
        <ele>107.6</ele>
        <time>2023-12-20T09:01:22Z</time>
      </trkpt>
      <trkpt lat="48.62531" lon="1.98294">
        <ele>107.8</ele>
        <time>2023-12-20T09:01:23Z</time>
      </trkpt>
      <trkpt lat="48.62533" lon="1.98287">
        <ele>107.8</ele>
        <time>2023-12-20T09:01:24Z</time>
      </trkpt>
      <trkpt lat="48.62535" lon="1.98281">
        <ele>107.8</ele>
        <time>2023-12-20T09:01:25Z</time>
      </trkpt>
      <trkpt lat="48.62537" lon="1.98274">
        <ele>107.8</ele>
        <time>2023-12-20T09:01:26Z</time>
      </trkpt>
      <trkpt lat="48.62539" lon="1.98268">
        <ele>108</ele>
        <time>2023-12-20T09:01:27Z</time>
      </trkpt>
      <trkpt lat="48.62541" lon="1.98262">
        <ele>108</ele>
        <time>2023-12-20T09:01:28Z</time>
      </trkpt>
      <trkpt lat="48.62542" lon="1.98255">
        <ele>108</ele>
        <time>2023-12-20T09:01:29Z</time>
      </trkpt>
      <trkpt lat="48.62544" lon="1.98249">
        <ele>108</ele>
        <time>2023-12-20T09:01:30Z</time>
      </trkpt>
      <trkpt lat="48.62546" lon="1.98242">
        <ele>108</ele>
        <time>2023-12-20T09:01:31Z</time>
      </trkpt>
      <trkpt lat="48.62548" lon="1.98236">
        <ele>108</ele>
        <time>2023-12-20T09:01:32Z</time>
      </trkpt>
      <trkpt lat="48.6255" lon="1.9823">
        <ele>108</ele>
        <time>2023-12-20T09:01:33Z</time>
      </trkpt>
      <trkpt lat="48.62552" lon="1.98223">
        <ele>109</ele>
        <time>2023-12-20T09:01:34Z</time>
      </trkpt>
      <trkpt lat="48.62553" lon="1.98217">
        <ele>109</ele>
        <time>2023-12-20T09:01:35Z</time>
      </trkpt>
      <trkpt lat="48.62555" lon="1.98211">
        <ele>109</ele>
        <time>2023-12-20T09:01:36Z</time>
      </trkpt>
      <trkpt lat="48.62557" lon="1.98205">
        <ele>109</ele>
        <time>2023-12-20T09:01:37Z</time>
      </trkpt>
      <trkpt lat="48.62559" lon="1.98198">
        <ele>109.8</ele>
        <time>2023-12-20T09:01:38Z</time>
      </trkpt>
      <trkpt lat="48.6256" lon="1.98192">
        <ele>109.8</ele>
        <time>2023-12-20T09:01:39Z</time>
      </trkpt>
      <trkpt lat="48.62562" lon="1.98186">
        <ele>109.8</ele>
        <time>2023-12-20T09:01:40Z</time>
      </trkpt>
      <trkpt lat="48.62564" lon="1.9818">
        <ele>109.8</ele>
        <time>2023-12-20T09:01:41Z</time>
      </trkpt>
      <trkpt lat="48.62566" lon="1.98174">
        <ele>110</ele>
        <time>2023-12-20T09:01:42Z</time>
      </trkpt>
      <trkpt lat="48.62567" lon="1.98168">
        <ele>110.4</ele>
        <time>2023-12-20T09:01:43Z</time>
      </trkpt>
      <trkpt lat="48.62569" lon="1.98162">
        <ele>110.4</ele>
        <time>2023-12-20T09:01:44Z</time>
      </trkpt>
      <trkpt lat="48.62571" lon="1.98156">
        <ele>110.4</ele>
        <time>2023-12-20T09:01:45Z</time>
      </trkpt>
      <trkpt lat="48.62573" lon="1.9815">
        <ele>111.4</ele>
        <time>2023-12-20T09:01:46Z</time>
      </trkpt>
      <trkpt lat="48.62574" lon="1.98144">
        <ele>111.8</ele>
        <time>2023-12-20T09:01:47Z</time>
      </trkpt>
      <trkpt lat="48.62576" lon="1.98138">
        <ele>111.8</ele>
        <time>2023-12-20T09:01:48Z</time>
      </trkpt>
      <trkpt lat="48.62577" lon="1.98132">
        <ele>111.8</ele>
        <time>2023-12-20T09:01:49Z</time>
      </trkpt>
      <trkpt lat="48.62579" lon="1.98126">
        <ele>111.8</ele>
        <time>2023-12-20T09:01:50Z</time>
      </trkpt>
      <trkpt lat="48.62581" lon="1.9812">
        <ele>112.6</ele>
        <time>2023-12-20T09:01:51Z</time>
      </trkpt>
      <trkpt lat="48.62583" lon="1.98114">
        <ele>112.6</ele>
        <time>2023-12-20T09:01:52Z</time>
      </trkpt>
      <trkpt lat="48.62584" lon="1.98109">
        <ele>112.6</ele>
        <time>2023-12-20T09:01:53Z</time>
      </trkpt>
      <trkpt lat="48.62586" lon="1.98104">
        <ele>113</ele>
        <time>2023-12-20T09:01:54Z</time>
      </trkpt>
      <trkpt lat="48.62587" lon="1.98099">
        <ele>112.6</ele>
        <time>2023-12-20T09:01:55Z</time>
      </trkpt>
      <trkpt lat="48.62589" lon="1.98095">
        <ele>112.6</ele>
        <time>2023-12-20T09:01:56Z</time>
      </trkpt>
      <trkpt lat="48.6259" lon="1.98091">
        <ele>112.6</ele>
        <time>2023-12-20T09:01:57Z</time>
      </trkpt>
      <trkpt lat="48.62591" lon="1.98086">
        <ele>113.4</ele>
        <time>2023-12-20T09:01:58Z</time>
      </trkpt>
      <trkpt lat="48.62593" lon="1.98082">
        <ele>113.8</ele>
        <time>2023-12-20T09:01:59Z</time>
      </trkpt>
      <trkpt lat="48.62594" lon="1.98078">
        <ele>113.8</ele>
        <time>2023-12-20T09:02:00Z</time>
      </trkpt>
      <trkpt lat="48.62595" lon="1.98075">
        <ele>113.8</ele>
        <time>2023-12-20T09:02:01Z</time>
      </trkpt>
      <trkpt lat="48.62594" lon="1.98073">
        <ele>113.8</ele>
        <time>2023-12-20T09:02:02Z</time>
      </trkpt>
      <trkpt lat="48.62593" lon="1.98074">
        <ele>113.6</ele>
        <time>2023-12-20T09:02:03Z</time>
      </trkpt>
      <trkpt lat="48.62592" lon="1.98076">
        <ele>113.6</ele>
        <time>2023-12-20T09:02:04Z</time>
      </trkpt>
      <trkpt lat="48.62591" lon="1.98079">
        <ele>113.6</ele>
        <time>2023-12-20T09:02:05Z</time>
      </trkpt>
      <trkpt lat="48.6259" lon="1.98083">
        <ele>113.6</ele>
        <time>2023-12-20T09:02:06Z</time>
      </trkpt>
      <trkpt lat="48.6259" lon="1.98086">
        <ele>113</ele>
        <time>2023-12-20T09:02:07Z</time>
      </trkpt>
      <trkpt lat="48.62589" lon="1.9809">
        <ele>113</ele>
        <time>2023-12-20T09:02:08Z</time>
      </trkpt>
      <trkpt lat="48.62588" lon="1.98094">
        <ele>113</ele>
        <time>2023-12-20T09:02:09Z</time>
      </trkpt>
      <trkpt lat="48.62587" lon="1.98096">
        <ele>113.4</ele>
        <time>2023-12-20T09:02:10Z</time>
      </trkpt>
      <trkpt lat="48.62587" lon="1.98097">
        <ele>113.4</ele>
        <time>2023-12-20T09:02:11Z</time>
      </trkpt>
      <trkpt lat="48.62587" lon="1.98097">
        <ele>113.4</ele>
        <time>2023-12-20T09:02:12Z</time>
      </trkpt>
      <trkpt lat="48.62591" lon="1.98091">
        <ele>113.8</ele>
        <time>2023-12-20T09:02:24Z</time>
      </trkpt>
      <trkpt lat="48.62591" lon="1.98088">
        <ele>113.8</ele>
        <time>2023-12-20T09:02:25Z</time>
      </trkpt>
      <trkpt lat="48.62592" lon="1.98086">
        <ele>113.8</ele>
        <time>2023-12-20T09:02:26Z</time>
      </trkpt>
      <trkpt lat="48.62593" lon="1.98084">
        <ele>114.2</ele>
        <time>2023-12-20T09:02:27Z</time>
      </trkpt>
      <trkpt lat="48.62593" lon="1.98083">
        <ele>114.2</ele>
        <time>2023-12-20T09:02:28Z</time>
      </trkpt>
      <trkpt lat="48.62593" lon="1.98082">
        <ele>114.2</ele>
        <time>2023-12-20T09:02:29Z</time>
      </trkpt>
      <trkpt lat="48.62594" lon="1.98081">
        <ele>114</ele>
        <time>2023-12-20T09:02:45Z</time>
      </trkpt>
      <trkpt lat="48.62594" lon="1.98079">
        <ele>114.2</ele>
        <time>2023-12-20T09:02:46Z</time>
      </trkpt>
      <trkpt lat="48.62595" lon="1.98076">
        <ele>114.2</ele>
        <time>2023-12-20T09:02:47Z</time>
      </trkpt>
      <trkpt lat="48.62596" lon="1.98073">
        <ele>114.2</ele>
        <time>2023-12-20T09:02:48Z</time>
      </trkpt>
      <trkpt lat="48.62596" lon="1.98071">
        <ele>114.2</ele>
        <time>2023-12-20T09:02:49Z</time>
      </trkpt>
      <trkpt lat="48.62597" lon="1.98068">
        <ele>114.2</ele>
        <time>2023-12-20T09:02:50Z</time>
      </trkpt>
      <trkpt lat="48.62597" lon="1.98066">
        <ele>114.6</ele>
        <time>2023-12-20T09:02:51Z</time>
      </trkpt>
      <trkpt lat="48.62598" lon="1.98064">
        <ele>114.6</ele>
        <time>2023-12-20T09:02:52Z</time>
      </trkpt>
      <trkpt lat="48.62599" lon="1.98062">
        <ele>114.6</ele>
        <time>2023-12-20T09:02:53Z</time>
      </trkpt>
      <trkpt lat="48.626" lon="1.98059">
        <ele>114.6</ele>
        <time>2023-12-20T09:02:54Z</time>
      </trkpt>
      <trkpt lat="48.62601" lon="1.98056">
        <ele>114.8</ele>
        <time>2023-12-20T09:02:55Z</time>
      </trkpt>
      <trkpt lat="48.62602" lon="1.98053">
        <ele>114.8</ele>
        <time>2023-12-20T09:02:56Z</time>
      </trkpt>
      <trkpt lat="48.62603" lon="1.98049">
        <ele>114.8</ele>
        <time>2023-12-20T09:02:57Z</time>
      </trkpt>
      <trkpt lat="48.62604" lon="1.98045">
        <ele>114.8</ele>
        <time>2023-12-20T09:02:58Z</time>
      </trkpt>
      <trkpt lat="48.62605" lon="1.9804">
        <ele>115</ele>
        <time>2023-12-20T09:02:59Z</time>
      </trkpt>
      <trkpt lat="48.62607" lon="1.98036">
        <ele>115</ele>
        <time>2023-12-20T09:03:00Z</time>
      </trkpt>
      <trkpt lat="48.62608" lon="1.98031">
        <ele>115</ele>
        <time>2023-12-20T09:03:01Z</time>
      </trkpt>
      <trkpt lat="48.62609" lon="1.98026">
        <ele>115</ele>
        <time>2023-12-20T09:03:02Z</time>
      </trkpt>
      <trkpt lat="48.62611" lon="1.98022">
        <ele>115.4</ele>
        <time>2023-12-20T09:03:03Z</time>
      </trkpt>
      <trkpt lat="48.62612" lon="1.98017">
        <ele>115.4</ele>
        <time>2023-12-20T09:03:04Z</time>
      </trkpt>
      <trkpt lat="48.62613" lon="1.98013">
        <ele>115.4</ele>
        <time>2023-12-20T09:03:05Z</time>
      </trkpt>
      <trkpt lat="48.62615" lon="1.98008">
        <ele>115.4</ele>
        <time>2023-12-20T09:03:06Z</time>
      </trkpt>
      <trkpt lat="48.62617" lon="1.98003">
        <ele>115.4</ele>
        <time>2023-12-20T09:03:07Z</time>
      </trkpt>
      <trkpt lat="48.62618" lon="1.97997">
        <ele>115.4</ele>
        <time>2023-12-20T09:03:08Z</time>
      </trkpt>
      <trkpt lat="48.6262" lon="1.97992">
        <ele>115.4</ele>
        <time>2023-12-20T09:03:09Z</time>
      </trkpt>
      <trkpt lat="48.62621" lon="1.97986">
        <ele>116.2</ele>
        <time>2023-12-20T09:03:10Z</time>
      </trkpt>
      <trkpt lat="48.62622" lon="1.9798">
        <ele>116.2</ele>
        <time>2023-12-20T09:03:11Z</time>
      </trkpt>
      <trkpt lat="48.62623" lon="1.97975">
        <ele>116.2</ele>
        <time>2023-12-20T09:03:12Z</time>
      </trkpt>
      <trkpt lat="48.62624" lon="1.9797">
        <ele>116.2</ele>
        <time>2023-12-20T09:03:13Z</time>
      </trkpt>
      <trkpt lat="48.62626" lon="1.97964">
        <ele>116.8</ele>
        <time>2023-12-20T09:03:14Z</time>
      </trkpt>
      <trkpt lat="48.62627" lon="1.97958">
        <ele>116.8</ele>
        <time>2023-12-20T09:03:15Z</time>
      </trkpt>
      <trkpt lat="48.62628" lon="1.97952">
        <ele>116.8</ele>
        <time>2023-12-20T09:03:16Z</time>
      </trkpt>
      <trkpt lat="48.62629" lon="1.97946">
        <ele>116.8</ele>
        <time>2023-12-20T09:03:17Z</time>
      </trkpt>
      <trkpt lat="48.6263" lon="1.9794">
        <ele>116.8</ele>
        <time>2023-12-20T09:03:18Z</time>
      </trkpt>
      <trkpt lat="48.62631" lon="1.97934">
        <ele>116.8</ele>
        <time>2023-12-20T09:03:19Z</time>
      </trkpt>
      <trkpt lat="48.62632" lon="1.97927">
        <ele>116.8</ele>
        <time>2023-12-20T09:03:20Z</time>
      </trkpt>
      <trkpt lat="48.62632" lon="1.97921">
        <ele>116.8</ele>
        <time>2023-12-20T09:03:21Z</time>
      </trkpt>
      <trkpt lat="48.62632" lon="1.97915">
        <ele>116.8</ele>
        <time>2023-12-20T09:03:22Z</time>
      </trkpt>
      <trkpt lat="48.62633" lon="1.97908">
        <ele>117.2</ele>
        <time>2023-12-20T09:03:23Z</time>
      </trkpt>
      <trkpt lat="48.62633" lon="1.97902">
        <ele>117.2</ele>
        <time>2023-12-20T09:03:24Z</time>
      </trkpt>
      <trkpt lat="48.62634" lon="1.97896">
        <ele>117.2</ele>
        <time>2023-12-20T09:03:25Z</time>
      </trkpt>
      <trkpt lat="48.62634" lon="1.97889">
        <ele>117.2</ele>
        <time>2023-12-20T09:03:26Z</time>
      </trkpt>
      <trkpt lat="48.62635" lon="1.97883">
        <ele>116.8</ele>
        <time>2023-12-20T09:03:27Z</time>
      </trkpt>
      <trkpt lat="48.62635" lon="1.97877">
        <ele>116.8</ele>
        <time>2023-12-20T09:03:28Z</time>
      </trkpt>
      <trkpt lat="48.62636" lon="1.9787">
        <ele>116.8</ele>
        <time>2023-12-20T09:03:29Z</time>
      </trkpt>
      <trkpt lat="48.62636" lon="1.97864">
        <ele>117.6</ele>
        <time>2023-12-20T09:03:30Z</time>
      </trkpt>
      <trkpt lat="48.62636" lon="1.97857">
        <ele>117.8</ele>
        <time>2023-12-20T09:03:31Z</time>
      </trkpt>
      <trkpt lat="48.62636" lon="1.97851">
        <ele>117.8</ele>
        <time>2023-12-20T09:03:32Z</time>
      </trkpt>
      <trkpt lat="48.62636" lon="1.97844">
        <ele>117.8</ele>
        <time>2023-12-20T09:03:33Z</time>
      </trkpt>
      <trkpt lat="48.62637" lon="1.97838">
        <ele>117.8</ele>
        <time>2023-12-20T09:03:34Z</time>
      </trkpt>
      <trkpt lat="48.62637" lon="1.97832">
        <ele>118.4</ele>
        <time>2023-12-20T09:03:35Z</time>
      </trkpt>
      <trkpt lat="48.62637" lon="1.97826">
        <ele>118.4</ele>
        <time>2023-12-20T09:03:36Z</time>
      </trkpt>
      <trkpt lat="48.62638" lon="1.9782">
        <ele>118.4</ele>
        <time>2023-12-20T09:03:37Z</time>
      </trkpt>
      <trkpt lat="48.62638" lon="1.97813">
        <ele>118.4</ele>
        <time>2023-12-20T09:03:38Z</time>
      </trkpt>
      <trkpt lat="48.62638" lon="1.97807">
        <ele>119</ele>
        <time>2023-12-20T09:03:39Z</time>
      </trkpt>
      <trkpt lat="48.62638" lon="1.97801">
        <ele>119</ele>
        <time>2023-12-20T09:03:40Z</time>
      </trkpt>
      <trkpt lat="48.62639" lon="1.97794">
        <ele>119</ele>
        <time>2023-12-20T09:03:41Z</time>
      </trkpt>
      <trkpt lat="48.62639" lon="1.97788">
        <ele>119</ele>
        <time>2023-12-20T09:03:42Z</time>
      </trkpt>
      <trkpt lat="48.6264" lon="1.97782">
        <ele>119</ele>
        <time>2023-12-20T09:03:43Z</time>
      </trkpt>
      <trkpt lat="48.6264" lon="1.97776">
        <ele>119</ele>
        <time>2023-12-20T09:03:44Z</time>
      </trkpt>
      <trkpt lat="48.6264" lon="1.9777">
        <ele>119</ele>
        <time>2023-12-20T09:03:45Z</time>
      </trkpt>
      <trkpt lat="48.6264" lon="1.97764">
        <ele>119.6</ele>
        <time>2023-12-20T09:03:46Z</time>
      </trkpt>
      <trkpt lat="48.62641" lon="1.97758">
        <ele>119.8</ele>
        <time>2023-12-20T09:03:47Z</time>
      </trkpt>
      <trkpt lat="48.62641" lon="1.97752">
        <ele>119.8</ele>
        <time>2023-12-20T09:03:48Z</time>
      </trkpt>
      <trkpt lat="48.62641" lon="1.97746">
        <ele>119.8</ele>
        <time>2023-12-20T09:03:49Z</time>
      </trkpt>
      <trkpt lat="48.62642" lon="1.9774">
        <ele>120</ele>
        <time>2023-12-20T09:03:50Z</time>
      </trkpt>
      <trkpt lat="48.62642" lon="1.97734">
        <ele>119.6</ele>
        <time>2023-12-20T09:03:51Z</time>
      </trkpt>
      <trkpt lat="48.62642" lon="1.97728">
        <ele>119.6</ele>
        <time>2023-12-20T09:03:52Z</time>
      </trkpt>
      <trkpt lat="48.62642" lon="1.97722">
        <ele>119.6</ele>
        <time>2023-12-20T09:03:53Z</time>
      </trkpt>
      <trkpt lat="48.62642" lon="1.97716">
        <ele>120.4</ele>
        <time>2023-12-20T09:03:54Z</time>
      </trkpt>
      <trkpt lat="48.62643" lon="1.9771">
        <ele>120.6</ele>
        <time>2023-12-20T09:03:55Z</time>
      </trkpt>
      <trkpt lat="48.62643" lon="1.97704">
        <ele>120.6</ele>
        <time>2023-12-20T09:03:56Z</time>
      </trkpt>
      <trkpt lat="48.62643" lon="1.97698">
        <ele>120.6</ele>
        <time>2023-12-20T09:03:57Z</time>
      </trkpt>
      <trkpt lat="48.62644" lon="1.97692">
        <ele>120.6</ele>
        <time>2023-12-20T09:03:58Z</time>
      </trkpt>
      <trkpt lat="48.62644" lon="1.97685">
        <ele>121.2</ele>
        <time>2023-12-20T09:03:59Z</time>
      </trkpt>
      <trkpt lat="48.62645" lon="1.97679">
        <ele>121.2</ele>
        <time>2023-12-20T09:04:00Z</time>
      </trkpt>
      <trkpt lat="48.62645" lon="1.97673">
        <ele>121.2</ele>
        <time>2023-12-20T09:04:01Z</time>
      </trkpt>
      <trkpt lat="48.62645" lon="1.97666">
        <ele>121.2</ele>
        <time>2023-12-20T09:04:02Z</time>
      </trkpt>
      <trkpt lat="48.62645" lon="1.9766">
        <ele>121.6</ele>
        <time>2023-12-20T09:04:03Z</time>
      </trkpt>
      <trkpt lat="48.62646" lon="1.97654">
        <ele>121.6</ele>
        <time>2023-12-20T09:04:04Z</time>
      </trkpt>
      <trkpt lat="48.62646" lon="1.97647">
        <ele>121.6</ele>
        <time>2023-12-20T09:04:05Z</time>
      </trkpt>
      <trkpt lat="48.62646" lon="1.97641">
        <ele>121.8</ele>
        <time>2023-12-20T09:04:06Z</time>
      </trkpt>
      <trkpt lat="48.62647" lon="1.97634">
        <ele>121.6</ele>
        <time>2023-12-20T09:04:07Z</time>
      </trkpt>
      <trkpt lat="48.62647" lon="1.97628">
        <ele>121.6</ele>
        <time>2023-12-20T09:04:08Z</time>
      </trkpt>
      <trkpt lat="48.62647" lon="1.97621">
        <ele>121.6</ele>
        <time>2023-12-20T09:04:09Z</time>
      </trkpt>
      <trkpt lat="48.62647" lon="1.97614">
        <ele>122.4</ele>
        <time>2023-12-20T09:04:10Z</time>
      </trkpt>
      <trkpt lat="48.62648" lon="1.97608">
        <ele>122.2</ele>
        <time>2023-12-20T09:04:11Z</time>
      </trkpt>
      <trkpt lat="48.62648" lon="1.97601">
        <ele>122.2</ele>
        <time>2023-12-20T09:04:12Z</time>
      </trkpt>
      <trkpt lat="48.62649" lon="1.97595">
        <ele>122.2</ele>
        <time>2023-12-20T09:04:13Z</time>
      </trkpt>
      <trkpt lat="48.62649" lon="1.97589">
        <ele>123</ele>
        <time>2023-12-20T09:04:14Z</time>
      </trkpt>
      <trkpt lat="48.62649" lon="1.97582">
        <ele>123</ele>
        <time>2023-12-20T09:04:15Z</time>
      </trkpt>
      <trkpt lat="48.62649" lon="1.97576">
        <ele>123</ele>
        <time>2023-12-20T09:04:16Z</time>
      </trkpt>
      <trkpt lat="48.6265" lon="1.9757">
        <ele>123</ele>
        <time>2023-12-20T09:04:17Z</time>
      </trkpt>
      <trkpt lat="48.6265" lon="1.97563">
        <ele>124</ele>
        <time>2023-12-20T09:04:18Z</time>
      </trkpt>
      <trkpt lat="48.6265" lon="1.97557">
        <ele>124.4</ele>
        <time>2023-12-20T09:04:19Z</time>
      </trkpt>
      <trkpt lat="48.62651" lon="1.97551">
        <ele>124.4</ele>
        <time>2023-12-20T09:04:20Z</time>
      </trkpt>
      <trkpt lat="48.62651" lon="1.97546">
        <ele>124.4</ele>
        <time>2023-12-20T09:04:21Z</time>
      </trkpt>
      <trkpt lat="48.62651" lon="1.9754">
        <ele>124.4</ele>
        <time>2023-12-20T09:04:22Z</time>
      </trkpt>
      <trkpt lat="48.62652" lon="1.97534">
        <ele>124.8</ele>
        <time>2023-12-20T09:04:23Z</time>
      </trkpt>
      <trkpt lat="48.62652" lon="1.97528">
        <ele>124.8</ele>
        <time>2023-12-20T09:04:24Z</time>
      </trkpt>
      <trkpt lat="48.62652" lon="1.97522">
        <ele>124.8</ele>
        <time>2023-12-20T09:04:25Z</time>
      </trkpt>
      <trkpt lat="48.62652" lon="1.97516">
        <ele>125.8</ele>
        <time>2023-12-20T09:04:26Z</time>
      </trkpt>
      <trkpt lat="48.62653" lon="1.9751">
        <ele>125.8</ele>
        <time>2023-12-20T09:04:27Z</time>
      </trkpt>
      <trkpt lat="48.62653" lon="1.97504">
        <ele>125.8</ele>
        <time>2023-12-20T09:04:28Z</time>
      </trkpt>
      <trkpt lat="48.62654" lon="1.97498">
        <ele>125.8</ele>
        <time>2023-12-20T09:04:29Z</time>
      </trkpt>
      <trkpt lat="48.62654" lon="1.97492">
        <ele>125.8</ele>
        <time>2023-12-20T09:04:30Z</time>
      </trkpt>
      <trkpt lat="48.62654" lon="1.97486">
        <ele>126.8</ele>
        <time>2023-12-20T09:04:31Z</time>
      </trkpt>
      <trkpt lat="48.62655" lon="1.9748">
        <ele>126.8</ele>
        <time>2023-12-20T09:04:32Z</time>
      </trkpt>
      <trkpt lat="48.62655" lon="1.97474">
        <ele>126.8</ele>
        <time>2023-12-20T09:04:33Z</time>
      </trkpt>
      <trkpt lat="48.62655" lon="1.97468">
        <ele>127</ele>
        <time>2023-12-20T09:04:34Z</time>
      </trkpt>
      <trkpt lat="48.62655" lon="1.97462">
        <ele>127.2</ele>
        <time>2023-12-20T09:04:35Z</time>
      </trkpt>
      <trkpt lat="48.62656" lon="1.97456">
        <ele>127.2</ele>
        <time>2023-12-20T09:04:36Z</time>
      </trkpt>
      <trkpt lat="48.62656" lon="1.9745">
        <ele>127.2</ele>
        <time>2023-12-20T09:04:37Z</time>
      </trkpt>
      <trkpt lat="48.62656" lon="1.97444">
        <ele>127.2</ele>
        <time>2023-12-20T09:04:38Z</time>
      </trkpt>
      <trkpt lat="48.62657" lon="1.97438">
        <ele>127.8</ele>
        <time>2023-12-20T09:04:39Z</time>
      </trkpt>
      <trkpt lat="48.62657" lon="1.97433">
        <ele>127.8</ele>
        <time>2023-12-20T09:04:40Z</time>
      </trkpt>
      <trkpt lat="48.62657" lon="1.97427">
        <ele>127.8</ele>
        <time>2023-12-20T09:04:41Z</time>
      </trkpt>
      <trkpt lat="48.62657" lon="1.97421">
        <ele>128.8</ele>
        <time>2023-12-20T09:04:42Z</time>
      </trkpt>
      <trkpt lat="48.62658" lon="1.97415">
        <ele>128.8</ele>
        <time>2023-12-20T09:04:43Z</time>
      </trkpt>
      <trkpt lat="48.62658" lon="1.97409">
        <ele>128.8</ele>
        <time>2023-12-20T09:04:44Z</time>
      </trkpt>
      <trkpt lat="48.62658" lon="1.97403">
        <ele>128.8</ele>
        <time>2023-12-20T09:04:45Z</time>
      </trkpt>
      <trkpt lat="48.62659" lon="1.97397">
        <ele>129.6</ele>
        <time>2023-12-20T09:04:46Z</time>
      </trkpt>
      <trkpt lat="48.62659" lon="1.97391">
        <ele>130</ele>
        <time>2023-12-20T09:04:47Z</time>
      </trkpt>
      <trkpt lat="48.62659" lon="1.97386">
        <ele>130</ele>
        <time>2023-12-20T09:04:48Z</time>
      </trkpt>
      <trkpt lat="48.6266" lon="1.9738">
        <ele>130</ele>
        <time>2023-12-20T09:04:49Z</time>
      </trkpt>
      <trkpt lat="48.6266" lon="1.97374">
        <ele>130</ele>
        <time>2023-12-20T09:04:50Z</time>
      </trkpt>
      <trkpt lat="48.6266" lon="1.97368">
        <ele>130.2</ele>
        <time>2023-12-20T09:04:51Z</time>
      </trkpt>
      <trkpt lat="48.62661" lon="1.97363">
        <ele>130.2</ele>
        <time>2023-12-20T09:04:52Z</time>
      </trkpt>
      <trkpt lat="48.62661" lon="1.97358">
        <ele>130.2</ele>
        <time>2023-12-20T09:04:53Z</time>
      </trkpt>
      <trkpt lat="48.62662" lon="1.97353">
        <ele>131</ele>
        <time>2023-12-20T09:04:54Z</time>
      </trkpt>
      <trkpt lat="48.62662" lon="1.97348">
        <ele>131.2</ele>
        <time>2023-12-20T09:04:55Z</time>
      </trkpt>
      <trkpt lat="48.62662" lon="1.97344">
        <ele>131.2</ele>
        <time>2023-12-20T09:04:56Z</time>
      </trkpt>
      <trkpt lat="48.62663" lon="1.9734">
        <ele>131.2</ele>
        <time>2023-12-20T09:04:57Z</time>
      </trkpt>
      <trkpt lat="48.62664" lon="1.97335">
        <ele>131.4</ele>
        <time>2023-12-20T09:04:58Z</time>
      </trkpt>
      <trkpt lat="48.62664" lon="1.9733">
        <ele>132</ele>
        <time>2023-12-20T09:04:59Z</time>
      </trkpt>
      <trkpt lat="48.62664" lon="1.97325">
        <ele>132</ele>
        <time>2023-12-20T09:05:00Z</time>
      </trkpt>
      <trkpt lat="48.62665" lon="1.97321">
        <ele>132</ele>
        <time>2023-12-20T09:05:01Z</time>
      </trkpt>
      <trkpt lat="48.62666" lon="1.97317">
        <ele>132</ele>
        <time>2023-12-20T09:05:02Z</time>
      </trkpt>
      <trkpt lat="48.62666" lon="1.97311">
        <ele>132.6</ele>
        <time>2023-12-20T09:05:03Z</time>
      </trkpt>
      <trkpt lat="48.62667" lon="1.97306">
        <ele>132.6</ele>
        <time>2023-12-20T09:05:04Z</time>
      </trkpt>
      <trkpt lat="48.62668" lon="1.97302">
        <ele>132.6</ele>
        <time>2023-12-20T09:05:05Z</time>
      </trkpt>
      <trkpt lat="48.62668" lon="1.97297">
        <ele>132.6</ele>
        <time>2023-12-20T09:05:06Z</time>
      </trkpt>
      <trkpt lat="48.62668" lon="1.97291">
        <ele>133</ele>
        <time>2023-12-20T09:05:07Z</time>
      </trkpt>
      <trkpt lat="48.62669" lon="1.97286">
        <ele>133</ele>
        <time>2023-12-20T09:05:08Z</time>
      </trkpt>
      <trkpt lat="48.62669" lon="1.9728">
        <ele>133</ele>
        <time>2023-12-20T09:05:09Z</time>
      </trkpt>
      <trkpt lat="48.62669" lon="1.97274">
        <ele>133.8</ele>
        <time>2023-12-20T09:05:10Z</time>
      </trkpt>
      <trkpt lat="48.6267" lon="1.97268">
        <ele>134</ele>
        <time>2023-12-20T09:05:11Z</time>
      </trkpt>
      <trkpt lat="48.6267" lon="1.97262">
        <ele>134</ele>
        <time>2023-12-20T09:05:12Z</time>
      </trkpt>
      <trkpt lat="48.6267" lon="1.97256">
        <ele>134</ele>
        <time>2023-12-20T09:05:13Z</time>
      </trkpt>
      <trkpt lat="48.62671" lon="1.9725">
        <ele>134.2</ele>
        <time>2023-12-20T09:05:14Z</time>
      </trkpt>
      <trkpt lat="48.62671" lon="1.97244">
        <ele>134.2</ele>
        <time>2023-12-20T09:05:15Z</time>
      </trkpt>
      <trkpt lat="48.62672" lon="1.97237">
        <ele>134.2</ele>
        <time>2023-12-20T09:05:16Z</time>
      </trkpt>
      <trkpt lat="48.62672" lon="1.97231">
        <ele>134.2</ele>
        <time>2023-12-20T09:05:17Z</time>
      </trkpt>
      <trkpt lat="48.62673" lon="1.97226">
        <ele>135</ele>
        <time>2023-12-20T09:05:18Z</time>
      </trkpt>
      <trkpt lat="48.62674" lon="1.97221">
        <ele>135.2</ele>
        <time>2023-12-20T09:05:19Z</time>
      </trkpt>
      <trkpt lat="48.62674" lon="1.97216">
        <ele>135.2</ele>
        <time>2023-12-20T09:05:20Z</time>
      </trkpt>
      <trkpt lat="48.62675" lon="1.9721">
        <ele>135.2</ele>
        <time>2023-12-20T09:05:21Z</time>
      </trkpt>
      <trkpt lat="48.62675" lon="1.97204">
        <ele>135.4</ele>
        <time>2023-12-20T09:05:22Z</time>
      </trkpt>
      <trkpt lat="48.62676" lon="1.97199">
        <ele>135.4</ele>
        <time>2023-12-20T09:05:23Z</time>
      </trkpt>
      <trkpt lat="48.62676" lon="1.97193">
        <ele>135.4</ele>
        <time>2023-12-20T09:05:24Z</time>
      </trkpt>
      <trkpt lat="48.62676" lon="1.97187">
        <ele>135.4</ele>
        <time>2023-12-20T09:05:25Z</time>
      </trkpt>
      <trkpt lat="48.62677" lon="1.97181">
        <ele>135.4</ele>
        <time>2023-12-20T09:05:26Z</time>
      </trkpt>
      <trkpt lat="48.62677" lon="1.97176">
        <ele>135.4</ele>
        <time>2023-12-20T09:05:27Z</time>
      </trkpt>
      <trkpt lat="48.62678" lon="1.9717">
        <ele>135.4</ele>
        <time>2023-12-20T09:05:28Z</time>
      </trkpt>
      <trkpt lat="48.62678" lon="1.97164">
        <ele>135.4</ele>
        <time>2023-12-20T09:05:29Z</time>
      </trkpt>
      <trkpt lat="48.62679" lon="1.97158">
        <ele>135.4</ele>
        <time>2023-12-20T09:05:30Z</time>
      </trkpt>
      <trkpt lat="48.62679" lon="1.97151">
        <ele>134</ele>
        <time>2023-12-20T09:05:31Z</time>
      </trkpt>
      <trkpt lat="48.62679" lon="1.97143">
        <ele>134</ele>
        <time>2023-12-20T09:05:32Z</time>
      </trkpt>
      <trkpt lat="48.6268" lon="1.97137">
        <ele>134</ele>
        <time>2023-12-20T09:05:33Z</time>
      </trkpt>
      <trkpt lat="48.62682" lon="1.97132">
        <ele>133</ele>
        <time>2023-12-20T09:05:34Z</time>
      </trkpt>
      <trkpt lat="48.62683" lon="1.97125">
        <ele>131.6</ele>
        <time>2023-12-20T09:05:35Z</time>
      </trkpt>
      <trkpt lat="48.62684" lon="1.97118">
        <ele>131.6</ele>
        <time>2023-12-20T09:05:36Z</time>
      </trkpt>
      <trkpt lat="48.62685" lon="1.97111">
        <ele>131.6</ele>
        <time>2023-12-20T09:05:37Z</time>
      </trkpt>
      <trkpt lat="48.62687" lon="1.97104">
        <ele>131.6</ele>
        <time>2023-12-20T09:05:38Z</time>
      </trkpt>
      <trkpt lat="48.62689" lon="1.97096">
        <ele>130</ele>
        <time>2023-12-20T09:05:39Z</time>
      </trkpt>
      <trkpt lat="48.62691" lon="1.97087">
        <ele>130</ele>
        <time>2023-12-20T09:05:40Z</time>
      </trkpt>
      <trkpt lat="48.62692" lon="1.97077">
        <ele>130</ele>
        <time>2023-12-20T09:05:41Z</time>
      </trkpt>
      <trkpt lat="48.62693" lon="1.97067">
        <ele>129</ele>
        <time>2023-12-20T09:05:42Z</time>
      </trkpt>
      <trkpt lat="48.62694" lon="1.97057">
        <ele>128.4</ele>
        <time>2023-12-20T09:05:43Z</time>
      </trkpt>
      <trkpt lat="48.62696" lon="1.97046">
        <ele>128.4</ele>
        <time>2023-12-20T09:05:44Z</time>
      </trkpt>
      <trkpt lat="48.62698" lon="1.97035">
        <ele>128.4</ele>
        <time>2023-12-20T09:05:45Z</time>
      </trkpt>
      <trkpt lat="48.62701" lon="1.97024">
        <ele>127.4</ele>
        <time>2023-12-20T09:05:46Z</time>
      </trkpt>
      <trkpt lat="48.62704" lon="1.97014">
        <ele>125.6</ele>
        <time>2023-12-20T09:05:47Z</time>
      </trkpt>
      <trkpt lat="48.62708" lon="1.97004">
        <ele>125.6</ele>
        <time>2023-12-20T09:05:48Z</time>
      </trkpt>
      <trkpt lat="48.62713" lon="1.96993">
        <ele>125.6</ele>
        <time>2023-12-20T09:05:49Z</time>
      </trkpt>
      <trkpt lat="48.62718" lon="1.96982">
        <ele>125.6</ele>
        <time>2023-12-20T09:05:50Z</time>
      </trkpt>
      <trkpt lat="48.62722" lon="1.96971">
        <ele>124.4</ele>
        <time>2023-12-20T09:05:51Z</time>
      </trkpt>
      <trkpt lat="48.62727" lon="1.96961">
        <ele>124.4</ele>
        <time>2023-12-20T09:05:52Z</time>
      </trkpt>
      <trkpt lat="48.62733" lon="1.96952">
        <ele>124.4</ele>
        <time>2023-12-20T09:05:53Z</time>
      </trkpt>
      <trkpt lat="48.62738" lon="1.96942">
        <ele>125.2</ele>
        <time>2023-12-20T09:05:54Z</time>
      </trkpt>
      <trkpt lat="48.62743" lon="1.96933">
        <ele>126</ele>
        <time>2023-12-20T09:05:55Z</time>
      </trkpt>
      <trkpt lat="48.62747" lon="1.96924">
        <ele>126</ele>
        <time>2023-12-20T09:05:56Z</time>
      </trkpt>
      <trkpt lat="48.62752" lon="1.96916">
        <ele>126</ele>
        <time>2023-12-20T09:05:57Z</time>
      </trkpt>
      <trkpt lat="48.62757" lon="1.96907">
        <ele>126.4</ele>
        <time>2023-12-20T09:05:58Z</time>
      </trkpt>
      <trkpt lat="48.62761" lon="1.96897">
        <ele>126.4</ele>
        <time>2023-12-20T09:05:59Z</time>
      </trkpt>
      <trkpt lat="48.62765" lon="1.96887">
        <ele>126.4</ele>
        <time>2023-12-20T09:06:00Z</time>
      </trkpt>
      <trkpt lat="48.6277" lon="1.96879">
        <ele>126.4</ele>
        <time>2023-12-20T09:06:01Z</time>
      </trkpt>
      <trkpt lat="48.62774" lon="1.96871">
        <ele>127</ele>
        <time>2023-12-20T09:06:02Z</time>
      </trkpt>
      <trkpt lat="48.62779" lon="1.96863">
        <ele>127.4</ele>
        <time>2023-12-20T09:06:03Z</time>
      </trkpt>
      <trkpt lat="48.62783" lon="1.96855">
        <ele>127.4</ele>
        <time>2023-12-20T09:06:04Z</time>
      </trkpt>
      <trkpt lat="48.62787" lon="1.96847">
        <ele>127.4</ele>
        <time>2023-12-20T09:06:05Z</time>
      </trkpt>
      <trkpt lat="48.62791" lon="1.96839">
        <ele>128.4</ele>
        <time>2023-12-20T09:06:06Z</time>
      </trkpt>
      <trkpt lat="48.62794" lon="1.9683">
        <ele>128.6</ele>
        <time>2023-12-20T09:06:07Z</time>
      </trkpt>
      <trkpt lat="48.62798" lon="1.96822">
        <ele>128.6</ele>
        <time>2023-12-20T09:06:08Z</time>
      </trkpt>
      <trkpt lat="48.62801" lon="1.96815">
        <ele>128.6</ele>
        <time>2023-12-20T09:06:09Z</time>
      </trkpt>
      <trkpt lat="48.62805" lon="1.96808">
        <ele>129.2</ele>
        <time>2023-12-20T09:06:10Z</time>
      </trkpt>
      <trkpt lat="48.62809" lon="1.96801">
        <ele>129.6</ele>
        <time>2023-12-20T09:06:11Z</time>
      </trkpt>
      <trkpt lat="48.62812" lon="1.96794">
        <ele>129.6</ele>
        <time>2023-12-20T09:06:12Z</time>
      </trkpt>
      <trkpt lat="48.62816" lon="1.96787">
        <ele>129.6</ele>
        <time>2023-12-20T09:06:13Z</time>
      </trkpt>
      <trkpt lat="48.62819" lon="1.9678">
        <ele>129.2</ele>
        <time>2023-12-20T09:06:14Z</time>
      </trkpt>
      <trkpt lat="48.62822" lon="1.96773">
        <ele>129.6</ele>
        <time>2023-12-20T09:06:15Z</time>
      </trkpt>
      <trkpt lat="48.62826" lon="1.96766">
        <ele>129.6</ele>
        <time>2023-12-20T09:06:16Z</time>
      </trkpt>
      <trkpt lat="48.62829" lon="1.96759">
        <ele>129.6</ele>
        <time>2023-12-20T09:06:17Z</time>
      </trkpt>
      <trkpt lat="48.62833" lon="1.96752">
        <ele>129</ele>
        <time>2023-12-20T09:06:18Z</time>
      </trkpt>
      <trkpt lat="48.62836" lon="1.96745">
        <ele>128.6</ele>
        <time>2023-12-20T09:06:19Z</time>
      </trkpt>
      <trkpt lat="48.6284" lon="1.96738">
        <ele>128.6</ele>
        <time>2023-12-20T09:06:20Z</time>
      </trkpt>
      <trkpt lat="48.62844" lon="1.96731">
        <ele>128.6</ele>
        <time>2023-12-20T09:06:21Z</time>
      </trkpt>
      <trkpt lat="48.62847" lon="1.96723">
        <ele>128.2</ele>
        <time>2023-12-20T09:06:22Z</time>
      </trkpt>
      <trkpt lat="48.62851" lon="1.96716">
        <ele>127.8</ele>
        <time>2023-12-20T09:06:23Z</time>
      </trkpt>
      <trkpt lat="48.62855" lon="1.96709">
        <ele>127.8</ele>
        <time>2023-12-20T09:06:24Z</time>
      </trkpt>
      <trkpt lat="48.62859" lon="1.96703">
        <ele>127.8</ele>
        <time>2023-12-20T09:06:25Z</time>
      </trkpt>
      <trkpt lat="48.62862" lon="1.96695">
        <ele>127.6</ele>
        <time>2023-12-20T09:06:26Z</time>
      </trkpt>
      <trkpt lat="48.62866" lon="1.96688">
        <ele>127.4</ele>
        <time>2023-12-20T09:06:27Z</time>
      </trkpt>
      <trkpt lat="48.62869" lon="1.9668">
        <ele>127.4</ele>
        <time>2023-12-20T09:06:28Z</time>
      </trkpt>
      <trkpt lat="48.62873" lon="1.96671">
        <ele>127.4</ele>
        <time>2023-12-20T09:06:29Z</time>
      </trkpt>
      <trkpt lat="48.62877" lon="1.96664">
        <ele>126.6</ele>
        <time>2023-12-20T09:06:30Z</time>
      </trkpt>
      <trkpt lat="48.62881" lon="1.96656">
        <ele>126.4</ele>
        <time>2023-12-20T09:06:31Z</time>
      </trkpt>
      <trkpt lat="48.62885" lon="1.96648">
        <ele>126.4</ele>
        <time>2023-12-20T09:06:32Z</time>
      </trkpt>
      <trkpt lat="48.62888" lon="1.9664">
        <ele>126.4</ele>
        <time>2023-12-20T09:06:33Z</time>
      </trkpt>
      <trkpt lat="48.62892" lon="1.96631">
        <ele>126.4</ele>
        <time>2023-12-20T09:06:34Z</time>
      </trkpt>
      <trkpt lat="48.62896" lon="1.96624">
        <ele>126.4</ele>
        <time>2023-12-20T09:06:35Z</time>
      </trkpt>
      <trkpt lat="48.629" lon="1.96616">
        <ele>126.4</ele>
        <time>2023-12-20T09:06:36Z</time>
      </trkpt>
      <trkpt lat="48.62905" lon="1.96609">
        <ele>126.4</ele>
        <time>2023-12-20T09:06:37Z</time>
      </trkpt>
      <trkpt lat="48.62909" lon="1.96601">
        <ele>126.4</ele>
        <time>2023-12-20T09:06:38Z</time>
      </trkpt>
      <trkpt lat="48.62913" lon="1.96594">
        <ele>125.8</ele>
        <time>2023-12-20T09:06:39Z</time>
      </trkpt>
      <trkpt lat="48.62918" lon="1.96587">
        <ele>125.8</ele>
        <time>2023-12-20T09:06:40Z</time>
      </trkpt>
      <trkpt lat="48.62922" lon="1.9658">
        <ele>125.8</ele>
        <time>2023-12-20T09:06:41Z</time>
      </trkpt>
      <trkpt lat="48.62927" lon="1.96573">
        <ele>125.2</ele>
        <time>2023-12-20T09:06:42Z</time>
      </trkpt>
      <trkpt lat="48.62931" lon="1.96565">
        <ele>125</ele>
        <time>2023-12-20T09:06:43Z</time>
      </trkpt>
      <trkpt lat="48.62936" lon="1.96558">
        <ele>125</ele>
        <time>2023-12-20T09:06:44Z</time>
      </trkpt>
      <trkpt lat="48.6294" lon="1.96552">
        <ele>125</ele>
        <time>2023-12-20T09:06:45Z</time>
      </trkpt>
      <trkpt lat="48.62945" lon="1.96545">
        <ele>125</ele>
        <time>2023-12-20T09:06:46Z</time>
      </trkpt>
      <trkpt lat="48.62949" lon="1.96538">
        <ele>124.2</ele>
        <time>2023-12-20T09:06:47Z</time>
      </trkpt>
      <trkpt lat="48.62954" lon="1.96531">
        <ele>124.2</ele>
        <time>2023-12-20T09:06:48Z</time>
      </trkpt>
      <trkpt lat="48.62958" lon="1.96524">
        <ele>124.2</ele>
        <time>2023-12-20T09:06:49Z</time>
      </trkpt>
      <trkpt lat="48.62963" lon="1.96517">
        <ele>123.2</ele>
        <time>2023-12-20T09:06:50Z</time>
      </trkpt>
      <trkpt lat="48.62967" lon="1.96509">
        <ele>123.2</ele>
        <time>2023-12-20T09:06:51Z</time>
      </trkpt>
      <trkpt lat="48.62972" lon="1.96502">
        <ele>123.2</ele>
        <time>2023-12-20T09:06:52Z</time>
      </trkpt>
      <trkpt lat="48.62976" lon="1.96494">
        <ele>123.2</ele>
        <time>2023-12-20T09:06:53Z</time>
      </trkpt>
      <trkpt lat="48.6298" lon="1.96485">
        <ele>122.4</ele>
        <time>2023-12-20T09:06:54Z</time>
      </trkpt>
      <trkpt lat="48.62985" lon="1.96477">
        <ele>122.2</ele>
        <time>2023-12-20T09:06:55Z</time>
      </trkpt>
      <trkpt lat="48.62989" lon="1.96468">
        <ele>122.2</ele>
        <time>2023-12-20T09:06:56Z</time>
      </trkpt>
      <trkpt lat="48.62993" lon="1.9646">
        <ele>122.2</ele>
        <time>2023-12-20T09:06:57Z</time>
      </trkpt>
      <trkpt lat="48.62998" lon="1.96451">
        <ele>121.2</ele>
        <time>2023-12-20T09:06:58Z</time>
      </trkpt>
      <trkpt lat="48.63003" lon="1.96442">
        <ele>121</ele>
        <time>2023-12-20T09:06:59Z</time>
      </trkpt>
      <trkpt lat="48.63007" lon="1.96433">
        <ele>121</ele>
        <time>2023-12-20T09:07:00Z</time>
      </trkpt>
      <trkpt lat="48.63012" lon="1.96425">
        <ele>121</ele>
        <time>2023-12-20T09:07:01Z</time>
      </trkpt>
      <trkpt lat="48.63018" lon="1.96416">
        <ele>121</ele>
        <time>2023-12-20T09:07:02Z</time>
      </trkpt>
      <trkpt lat="48.63023" lon="1.96407">
        <ele>120.8</ele>
        <time>2023-12-20T09:07:03Z</time>
      </trkpt>
      <trkpt lat="48.63028" lon="1.96398">
        <ele>120.8</ele>
        <time>2023-12-20T09:07:04Z</time>
      </trkpt>
      <trkpt lat="48.63033" lon="1.96388">
        <ele>120.8</ele>
        <time>2023-12-20T09:07:05Z</time>
      </trkpt>
      <trkpt lat="48.63037" lon="1.96379">
        <ele>121.4</ele>
        <time>2023-12-20T09:07:06Z</time>
      </trkpt>
      <trkpt lat="48.63042" lon="1.9637">
        <ele>122</ele>
        <time>2023-12-20T09:07:07Z</time>
      </trkpt>
      <trkpt lat="48.63046" lon="1.96361">
        <ele>122</ele>
        <time>2023-12-20T09:07:08Z</time>
      </trkpt>
      <trkpt lat="48.6305" lon="1.96353">
        <ele>122</ele>
        <time>2023-12-20T09:07:09Z</time>
      </trkpt>
      <trkpt lat="48.63054" lon="1.96344">
        <ele>123</ele>
        <time>2023-12-20T09:07:10Z</time>
      </trkpt>
      <trkpt lat="48.63057" lon="1.96336">
        <ele>123.4</ele>
        <time>2023-12-20T09:07:11Z</time>
      </trkpt>
      <trkpt lat="48.63061" lon="1.96328">
        <ele>123.4</ele>
        <time>2023-12-20T09:07:12Z</time>
      </trkpt>
      <trkpt lat="48.63064" lon="1.96321">
        <ele>123.4</ele>
        <time>2023-12-20T09:07:13Z</time>
      </trkpt>
      <trkpt lat="48.63067" lon="1.96314">
        <ele>124.4</ele>
        <time>2023-12-20T09:07:14Z</time>
      </trkpt>
      <trkpt lat="48.63071" lon="1.96307">
        <ele>124.2</ele>
        <time>2023-12-20T09:07:15Z</time>
      </trkpt>
      <trkpt lat="48.63073" lon="1.96302">
        <ele>124.2</ele>
        <time>2023-12-20T09:07:16Z</time>
      </trkpt>
      <trkpt lat="48.63076" lon="1.96295">
        <ele>124.2</ele>
        <time>2023-12-20T09:07:17Z</time>
      </trkpt>
      <trkpt lat="48.63079" lon="1.96288">
        <ele>124.2</ele>
        <time>2023-12-20T09:07:18Z</time>
      </trkpt>
      <trkpt lat="48.63082" lon="1.96281">
        <ele>124.8</ele>
        <time>2023-12-20T09:07:19Z</time>
      </trkpt>
      <trkpt lat="48.63085" lon="1.96275">
        <ele>124.8</ele>
        <time>2023-12-20T09:07:20Z</time>
      </trkpt>
      <trkpt lat="48.63088" lon="1.96267">
        <ele>124.8</ele>
        <time>2023-12-20T09:07:21Z</time>
      </trkpt>
      <trkpt lat="48.63091" lon="1.96261">
        <ele>125.2</ele>
        <time>2023-12-20T09:07:22Z</time>
      </trkpt>
      <trkpt lat="48.63093" lon="1.96254">
        <ele>125.2</ele>
        <time>2023-12-20T09:07:23Z</time>
      </trkpt>
      <trkpt lat="48.63095" lon="1.96246">
        <ele>125.2</ele>
        <time>2023-12-20T09:07:24Z</time>
      </trkpt>
      <trkpt lat="48.63098" lon="1.96237">
        <ele>125.2</ele>
        <time>2023-12-20T09:07:25Z</time>
      </trkpt>
      <trkpt lat="48.63101" lon="1.9623">
        <ele>124.6</ele>
        <time>2023-12-20T09:07:26Z</time>
      </trkpt>
      <trkpt lat="48.63104" lon="1.96222">
        <ele>124.6</ele>
        <time>2023-12-20T09:07:27Z</time>
      </trkpt>
      <trkpt lat="48.63107" lon="1.96214">
        <ele>124.6</ele>
        <time>2023-12-20T09:07:28Z</time>
      </trkpt>
      <trkpt lat="48.6311" lon="1.96205">
        <ele>124.6</ele>
        <time>2023-12-20T09:07:29Z</time>
      </trkpt>
      <trkpt lat="48.63112" lon="1.96197">
        <ele>124.6</ele>
        <time>2023-12-20T09:07:30Z</time>
      </trkpt>
      <trkpt lat="48.63114" lon="1.96188">
        <ele>124.2</ele>
        <time>2023-12-20T09:07:31Z</time>
      </trkpt>
      <trkpt lat="48.63116" lon="1.96179">
        <ele>124.2</ele>
        <time>2023-12-20T09:07:32Z</time>
      </trkpt>
      <trkpt lat="48.63118" lon="1.9617">
        <ele>124.2</ele>
        <time>2023-12-20T09:07:33Z</time>
      </trkpt>
      <trkpt lat="48.6312" lon="1.96162">
        <ele>124.2</ele>
        <time>2023-12-20T09:07:34Z</time>
      </trkpt>
      <trkpt lat="48.63121" lon="1.96153">
        <ele>123.8</ele>
        <time>2023-12-20T09:07:35Z</time>
      </trkpt>
      <trkpt lat="48.63123" lon="1.96145">
        <ele>123.8</ele>
        <time>2023-12-20T09:07:36Z</time>
      </trkpt>
      <trkpt lat="48.63124" lon="1.96137">
        <ele>123.8</ele>
        <time>2023-12-20T09:07:37Z</time>
      </trkpt>
      <trkpt lat="48.63127" lon="1.96127">
        <ele>122.8</ele>
        <time>2023-12-20T09:07:38Z</time>
      </trkpt>
      <trkpt lat="48.63129" lon="1.96119">
        <ele>122.8</ele>
        <time>2023-12-20T09:07:39Z</time>
      </trkpt>
      <trkpt lat="48.6313" lon="1.96112">
        <ele>122.8</ele>
        <time>2023-12-20T09:07:40Z</time>
      </trkpt>
      <trkpt lat="48.63133" lon="1.96104">
        <ele>122.8</ele>
        <time>2023-12-20T09:07:41Z</time>
      </trkpt>
      <trkpt lat="48.63135" lon="1.96095">
        <ele>122.8</ele>
        <time>2023-12-20T09:07:42Z</time>
      </trkpt>
      <trkpt lat="48.63137" lon="1.96086">
        <ele>122.2</ele>
        <time>2023-12-20T09:07:43Z</time>
      </trkpt>
      <trkpt lat="48.6314" lon="1.96076">
        <ele>122.2</ele>
        <time>2023-12-20T09:07:44Z</time>
      </trkpt>
      <trkpt lat="48.63141" lon="1.96066">
        <ele>122.2</ele>
        <time>2023-12-20T09:07:45Z</time>
      </trkpt>
      <trkpt lat="48.63144" lon="1.96056">
        <ele>122.2</ele>
        <time>2023-12-20T09:07:46Z</time>
      </trkpt>
      <trkpt lat="48.63146" lon="1.96046">
        <ele>121.6</ele>
        <time>2023-12-20T09:07:47Z</time>
      </trkpt>
      <trkpt lat="48.63148" lon="1.96035">
        <ele>121.6</ele>
        <time>2023-12-20T09:07:48Z</time>
      </trkpt>
      <trkpt lat="48.6315" lon="1.96024">
        <ele>121.6</ele>
        <time>2023-12-20T09:07:49Z</time>
      </trkpt>
      <trkpt lat="48.63153" lon="1.96014">
        <ele>120.6</ele>
        <time>2023-12-20T09:07:50Z</time>
      </trkpt>
      <trkpt lat="48.63154" lon="1.96003">
        <ele>120.4</ele>
        <time>2023-12-20T09:07:51Z</time>
      </trkpt>
      <trkpt lat="48.63156" lon="1.95993">
        <ele>120.4</ele>
        <time>2023-12-20T09:07:52Z</time>
      </trkpt>
      <trkpt lat="48.63159" lon="1.95983">
        <ele>120.4</ele>
        <time>2023-12-20T09:07:53Z</time>
      </trkpt>
      <trkpt lat="48.63162" lon="1.95972">
        <ele>119.4</ele>
        <time>2023-12-20T09:07:54Z</time>
      </trkpt>
      <trkpt lat="48.63164" lon="1.95962">
        <ele>119</ele>
        <time>2023-12-20T09:07:55Z</time>
      </trkpt>
      <trkpt lat="48.63167" lon="1.95951">
        <ele>119</ele>
        <time>2023-12-20T09:07:56Z</time>
      </trkpt>
      <trkpt lat="48.63169" lon="1.95939">
        <ele>119</ele>
        <time>2023-12-20T09:07:57Z</time>
      </trkpt>
      <trkpt lat="48.63172" lon="1.95928">
        <ele>118</ele>
        <time>2023-12-20T09:07:58Z</time>
      </trkpt>
      <trkpt lat="48.63175" lon="1.95917">
        <ele>117.6</ele>
        <time>2023-12-20T09:07:59Z</time>
      </trkpt>
      <trkpt lat="48.63178" lon="1.95906">
        <ele>117.6</ele>
        <time>2023-12-20T09:08:00Z</time>
      </trkpt>
      <trkpt lat="48.63181" lon="1.95894">
        <ele>117.6</ele>
        <time>2023-12-20T09:08:01Z</time>
      </trkpt>
      <trkpt lat="48.63184" lon="1.95883">
        <ele>116.8</ele>
        <time>2023-12-20T09:08:02Z</time>
      </trkpt>
      <trkpt lat="48.63188" lon="1.95873">
        <ele>116.8</ele>
        <time>2023-12-20T09:08:03Z</time>
      </trkpt>
      <trkpt lat="48.63193" lon="1.95862">
        <ele>116.8</ele>
        <time>2023-12-20T09:08:04Z</time>
      </trkpt>
      <trkpt lat="48.63197" lon="1.95852">
        <ele>116.8</ele>
        <time>2023-12-20T09:08:05Z</time>
      </trkpt>
      <trkpt lat="48.63202" lon="1.95843">
        <ele>116.8</ele>
        <time>2023-12-20T09:08:06Z</time>
      </trkpt>
      <trkpt lat="48.63207" lon="1.95834">
        <ele>117.4</ele>
        <time>2023-12-20T09:08:07Z</time>
      </trkpt>
      <trkpt lat="48.63212" lon="1.95826">
        <ele>117.4</ele>
        <time>2023-12-20T09:08:08Z</time>
      </trkpt>
      <trkpt lat="48.63217" lon="1.95818">
        <ele>117.4</ele>
        <time>2023-12-20T09:08:09Z</time>
      </trkpt>
      <trkpt lat="48.63222" lon="1.9581">
        <ele>118.4</ele>
        <time>2023-12-20T09:08:10Z</time>
      </trkpt>
      <trkpt lat="48.63227" lon="1.95803">
        <ele>118.8</ele>
        <time>2023-12-20T09:08:11Z</time>
      </trkpt>
      <trkpt lat="48.63232" lon="1.95796">
        <ele>118.8</ele>
        <time>2023-12-20T09:08:12Z</time>
      </trkpt>
      <trkpt lat="48.63236" lon="1.95789">
        <ele>118.8</ele>
        <time>2023-12-20T09:08:13Z</time>
      </trkpt>
      <trkpt lat="48.63241" lon="1.95782">
        <ele>119.8</ele>
        <time>2023-12-20T09:08:14Z</time>
      </trkpt>
      <trkpt lat="48.63245" lon="1.95776">
        <ele>119.4</ele>
        <time>2023-12-20T09:08:15Z</time>
      </trkpt>
      <trkpt lat="48.63249" lon="1.95769">
        <ele>119.4</ele>
        <time>2023-12-20T09:08:16Z</time>
      </trkpt>
      <trkpt lat="48.63253" lon="1.95763">
        <ele>119.4</ele>
        <time>2023-12-20T09:08:17Z</time>
      </trkpt>
      <trkpt lat="48.63257" lon="1.95757">
        <ele>119.4</ele>
        <time>2023-12-20T09:08:18Z</time>
      </trkpt>
      <trkpt lat="48.63262" lon="1.95751">
        <ele>119</ele>
        <time>2023-12-20T09:08:19Z</time>
      </trkpt>
      <trkpt lat="48.63266" lon="1.95744">
        <ele>119</ele>
        <time>2023-12-20T09:08:20Z</time>
      </trkpt>
      <trkpt lat="48.6327" lon="1.95738">
        <ele>119</ele>
        <time>2023-12-20T09:08:21Z</time>
      </trkpt>
      <trkpt lat="48.63274" lon="1.95731">
        <ele>119</ele>
        <time>2023-12-20T09:08:22Z</time>
      </trkpt>
      <trkpt lat="48.63279" lon="1.95725">
        <ele>118.2</ele>
        <time>2023-12-20T09:08:23Z</time>
      </trkpt>
      <trkpt lat="48.63283" lon="1.95719">
        <ele>118.2</ele>
        <time>2023-12-20T09:08:24Z</time>
      </trkpt>
      <trkpt lat="48.63288" lon="1.95712">
        <ele>118.2</ele>
        <time>2023-12-20T09:08:25Z</time>
      </trkpt>
      <trkpt lat="48.63292" lon="1.95705">
        <ele>117.2</ele>
        <time>2023-12-20T09:08:26Z</time>
      </trkpt>
      <trkpt lat="48.63297" lon="1.95698">
        <ele>117.2</ele>
        <time>2023-12-20T09:08:27Z</time>
      </trkpt>
      <trkpt lat="48.63301" lon="1.95691">
        <ele>117.2</ele>
        <time>2023-12-20T09:08:28Z</time>
      </trkpt>
      <trkpt lat="48.63306" lon="1.95684">
        <ele>117.2</ele>
        <time>2023-12-20T09:08:29Z</time>
      </trkpt>
      <trkpt lat="48.6331" lon="1.95678">
        <ele>117.2</ele>
        <time>2023-12-20T09:08:30Z</time>
      </trkpt>
      <trkpt lat="48.63315" lon="1.95671">
        <ele>117.2</ele>
        <time>2023-12-20T09:08:31Z</time>
      </trkpt>
      <trkpt lat="48.63319" lon="1.95665">
        <ele>117.2</ele>
        <time>2023-12-20T09:08:32Z</time>
      </trkpt>
      <trkpt lat="48.63323" lon="1.95658">
        <ele>117.2</ele>
        <time>2023-12-20T09:08:33Z</time>
      </trkpt>
      <trkpt lat="48.63327" lon="1.95652">
        <ele>117.2</ele>
        <time>2023-12-20T09:08:34Z</time>
      </trkpt>
      <trkpt lat="48.63331" lon="1.95646">
        <ele>117.2</ele>
        <time>2023-12-20T09:08:35Z</time>
      </trkpt>
      <trkpt lat="48.63336" lon="1.9564">
        <ele>117.2</ele>
        <time>2023-12-20T09:08:36Z</time>
      </trkpt>
      <trkpt lat="48.6334" lon="1.95633">
        <ele>117.2</ele>
        <time>2023-12-20T09:08:37Z</time>
      </trkpt>
      <trkpt lat="48.63344" lon="1.95627">
        <ele>117.2</ele>
        <time>2023-12-20T09:08:38Z</time>
      </trkpt>
      <trkpt lat="48.63348" lon="1.95621">
        <ele>117.4</ele>
        <time>2023-12-20T09:08:39Z</time>
      </trkpt>
      <trkpt lat="48.63352" lon="1.95615">
        <ele>117.4</ele>
        <time>2023-12-20T09:08:40Z</time>
      </trkpt>
      <trkpt lat="48.63356" lon="1.95608">
        <ele>117.4</ele>
        <time>2023-12-20T09:08:41Z</time>
      </trkpt>
      <trkpt lat="48.6336" lon="1.95602">
        <ele>116.4</ele>
        <time>2023-12-20T09:08:42Z</time>
      </trkpt>
      <trkpt lat="48.63364" lon="1.95597">
        <ele>117.2</ele>
        <time>2023-12-20T09:08:43Z</time>
      </trkpt>
      <trkpt lat="48.63369" lon="1.95591">
        <ele>117.2</ele>
        <time>2023-12-20T09:08:44Z</time>
      </trkpt>
      <trkpt lat="48.63373" lon="1.95585">
        <ele>117.2</ele>
        <time>2023-12-20T09:08:45Z</time>
      </trkpt>
      <trkpt lat="48.63377" lon="1.95579">
        <ele>116.4</ele>
        <time>2023-12-20T09:08:46Z</time>
      </trkpt>
      <trkpt lat="48.63381" lon="1.95573">
        <ele>117.2</ele>
        <time>2023-12-20T09:08:47Z</time>
      </trkpt>
      <trkpt lat="48.63385" lon="1.95568">
        <ele>117.2</ele>
        <time>2023-12-20T09:08:48Z</time>
      </trkpt>
      <trkpt lat="48.63389" lon="1.95562">
        <ele>117.2</ele>
        <time>2023-12-20T09:08:49Z</time>
      </trkpt>
      <trkpt lat="48.63393" lon="1.95557">
        <ele>117.2</ele>
        <time>2023-12-20T09:08:50Z</time>
      </trkpt>
      <trkpt lat="48.63397" lon="1.95551">
        <ele>116.8</ele>
        <time>2023-12-20T09:08:51Z</time>
      </trkpt>
      <trkpt lat="48.63401" lon="1.95546">
        <ele>116.8</ele>
        <time>2023-12-20T09:08:52Z</time>
      </trkpt>
      <trkpt lat="48.63405" lon="1.95541">
        <ele>116.8</ele>
        <time>2023-12-20T09:08:53Z</time>
      </trkpt>
      <trkpt lat="48.63409" lon="1.95536">
        <ele>116.8</ele>
        <time>2023-12-20T09:08:54Z</time>
      </trkpt>
      <trkpt lat="48.63413" lon="1.95531">
        <ele>116.4</ele>
        <time>2023-12-20T09:08:55Z</time>
      </trkpt>
      <trkpt lat="48.63417" lon="1.95526">
        <ele>116.4</ele>
        <time>2023-12-20T09:08:56Z</time>
      </trkpt>
      <trkpt lat="48.6342" lon="1.95519">
        <ele>116.4</ele>
        <time>2023-12-20T09:08:57Z</time>
      </trkpt>
      <trkpt lat="48.63424" lon="1.95512">
        <ele>117</ele>
        <time>2023-12-20T09:08:58Z</time>
      </trkpt>
      <trkpt lat="48.63428" lon="1.95506">
        <ele>116.6</ele>
        <time>2023-12-20T09:08:59Z</time>
      </trkpt>
      <trkpt lat="48.63432" lon="1.955">
        <ele>116.6</ele>
        <time>2023-12-20T09:09:00Z</time>
      </trkpt>
      <trkpt lat="48.63436" lon="1.95493">
        <ele>116.6</ele>
        <time>2023-12-20T09:09:01Z</time>
      </trkpt>
      <trkpt lat="48.63439" lon="1.95486">
        <ele>116.6</ele>
        <time>2023-12-20T09:09:02Z</time>
      </trkpt>
      <trkpt lat="48.63443" lon="1.9548">
        <ele>116.2</ele>
        <time>2023-12-20T09:09:03Z</time>
      </trkpt>
      <trkpt lat="48.63447" lon="1.95473">
        <ele>116.2</ele>
        <time>2023-12-20T09:09:04Z</time>
      </trkpt>
      <trkpt lat="48.6345" lon="1.95466">
        <ele>116.2</ele>
        <time>2023-12-20T09:09:05Z</time>
      </trkpt>
      <trkpt lat="48.63454" lon="1.95461">
        <ele>116.2</ele>
        <time>2023-12-20T09:09:06Z</time>
      </trkpt>
      <trkpt lat="48.63459" lon="1.95455">
        <ele>115.6</ele>
        <time>2023-12-20T09:09:07Z</time>
      </trkpt>
      <trkpt lat="48.63463" lon="1.9545">
        <ele>115.6</ele>
        <time>2023-12-20T09:09:08Z</time>
      </trkpt>
      <trkpt lat="48.63468" lon="1.95444">
        <ele>115.6</ele>
        <time>2023-12-20T09:09:09Z</time>
      </trkpt>
      <trkpt lat="48.63472" lon="1.95439">
        <ele>115.6</ele>
        <time>2023-12-20T09:09:10Z</time>
      </trkpt>
      <trkpt lat="48.63477" lon="1.95435">
        <ele>115.6</ele>
        <time>2023-12-20T09:09:11Z</time>
      </trkpt>
      <trkpt lat="48.63482" lon="1.95431">
        <ele>115.6</ele>
        <time>2023-12-20T09:09:12Z</time>
      </trkpt>
      <trkpt lat="48.63487" lon="1.95427">
        <ele>115.6</ele>
        <time>2023-12-20T09:09:13Z</time>
      </trkpt>
      <trkpt lat="48.63492" lon="1.95423">
        <ele>115.6</ele>
        <time>2023-12-20T09:09:14Z</time>
      </trkpt>
      <trkpt lat="48.63497" lon="1.95419">
        <ele>113.6</ele>
        <time>2023-12-20T09:09:15Z</time>
      </trkpt>
      <trkpt lat="48.63503" lon="1.95416">
        <ele>113.6</ele>
        <time>2023-12-20T09:09:16Z</time>
      </trkpt>
      <trkpt lat="48.63508" lon="1.95412">
        <ele>113.6</ele>
        <time>2023-12-20T09:09:17Z</time>
      </trkpt>
      <trkpt lat="48.63514" lon="1.95409">
        <ele>113.6</ele>
        <time>2023-12-20T09:09:18Z</time>
      </trkpt>
      <trkpt lat="48.6352" lon="1.95406">
        <ele>113.4</ele>
        <time>2023-12-20T09:09:19Z</time>
      </trkpt>
      <trkpt lat="48.63525" lon="1.95404">
        <ele>113.4</ele>
        <time>2023-12-20T09:09:20Z</time>
      </trkpt>
      <trkpt lat="48.63531" lon="1.954">
        <ele>113.4</ele>
        <time>2023-12-20T09:09:21Z</time>
      </trkpt>
      <trkpt lat="48.63536" lon="1.95397">
        <ele>112.4</ele>
        <time>2023-12-20T09:09:22Z</time>
      </trkpt>
      <trkpt lat="48.63542" lon="1.95395">
        <ele>113</ele>
        <time>2023-12-20T09:09:23Z</time>
      </trkpt>
      <trkpt lat="48.63548" lon="1.95393">
        <ele>113</ele>
        <time>2023-12-20T09:09:24Z</time>
      </trkpt>
      <trkpt lat="48.63554" lon="1.95391">
        <ele>113</ele>
        <time>2023-12-20T09:09:25Z</time>
      </trkpt>
      <trkpt lat="48.63559" lon="1.9539">
        <ele>113</ele>
        <time>2023-12-20T09:09:26Z</time>
      </trkpt>
      <trkpt lat="48.63565" lon="1.9539">
        <ele>112</ele>
        <time>2023-12-20T09:09:27Z</time>
      </trkpt>
      <trkpt lat="48.6357" lon="1.9539">
        <ele>112</ele>
        <time>2023-12-20T09:09:28Z</time>
      </trkpt>
      <trkpt lat="48.63575" lon="1.95392">
        <ele>112</ele>
        <time>2023-12-20T09:09:29Z</time>
      </trkpt>
      <trkpt lat="48.63581" lon="1.95394">
        <ele>112.4</ele>
        <time>2023-12-20T09:09:30Z</time>
      </trkpt>
      <trkpt lat="48.63586" lon="1.95395">
        <ele>112.6</ele>
        <time>2023-12-20T09:09:31Z</time>
      </trkpt>
      <trkpt lat="48.63592" lon="1.95397">
        <ele>112.6</ele>
        <time>2023-12-20T09:09:32Z</time>
      </trkpt>
      <trkpt lat="48.63597" lon="1.95399">
        <ele>112.6</ele>
        <time>2023-12-20T09:09:33Z</time>
      </trkpt>
      <trkpt lat="48.63602" lon="1.95401">
        <ele>112.4</ele>
        <time>2023-12-20T09:09:34Z</time>
      </trkpt>
      <trkpt lat="48.63607" lon="1.95403">
        <ele>112.6</ele>
        <time>2023-12-20T09:09:35Z</time>
      </trkpt>
      <trkpt lat="48.63612" lon="1.95405">
        <ele>112.6</ele>
        <time>2023-12-20T09:09:36Z</time>
      </trkpt>
      <trkpt lat="48.63617" lon="1.95407">
        <ele>112.6</ele>
        <time>2023-12-20T09:09:37Z</time>
      </trkpt>
      <trkpt lat="48.63622" lon="1.95409">
        <ele>112.4</ele>
        <time>2023-12-20T09:09:38Z</time>
      </trkpt>
      <trkpt lat="48.63628" lon="1.9541">
        <ele>112.4</ele>
        <time>2023-12-20T09:09:39Z</time>
      </trkpt>
      <trkpt lat="48.63634" lon="1.95411">
        <ele>112.4</ele>
        <time>2023-12-20T09:09:40Z</time>
      </trkpt>
      <trkpt lat="48.63639" lon="1.95413">
        <ele>112.4</ele>
        <time>2023-12-20T09:09:41Z</time>
      </trkpt>
      <trkpt lat="48.63645" lon="1.95415">
        <ele>112.4</ele>
        <time>2023-12-20T09:09:42Z</time>
      </trkpt>
      <trkpt lat="48.6365" lon="1.95416">
        <ele>112.2</ele>
        <time>2023-12-20T09:09:43Z</time>
      </trkpt>
      <trkpt lat="48.63656" lon="1.95418">
        <ele>112.2</ele>
        <time>2023-12-20T09:09:44Z</time>
      </trkpt>
      <trkpt lat="48.63661" lon="1.9542">
        <ele>112.2</ele>
        <time>2023-12-20T09:09:45Z</time>
      </trkpt>
      <trkpt lat="48.63666" lon="1.95422">
        <ele>113</ele>
        <time>2023-12-20T09:09:46Z</time>
      </trkpt>
      <trkpt lat="48.63671" lon="1.95424">
        <ele>112.8</ele>
        <time>2023-12-20T09:09:47Z</time>
      </trkpt>
      <trkpt lat="48.63676" lon="1.95425">
        <ele>112.8</ele>
        <time>2023-12-20T09:09:48Z</time>
      </trkpt>
      <trkpt lat="48.63681" lon="1.95427">
        <ele>112.8</ele>
        <time>2023-12-20T09:09:49Z</time>
      </trkpt>
      <trkpt lat="48.63686" lon="1.95429">
        <ele>113.8</ele>
        <time>2023-12-20T09:09:50Z</time>
      </trkpt>
      <trkpt lat="48.63691" lon="1.9543">
        <ele>113.8</ele>
        <time>2023-12-20T09:09:51Z</time>
      </trkpt>
      <trkpt lat="48.63696" lon="1.95431">
        <ele>113.8</ele>
        <time>2023-12-20T09:09:52Z</time>
      </trkpt>
      <trkpt lat="48.637" lon="1.95432">
        <ele>113.8</ele>
        <time>2023-12-20T09:09:53Z</time>
      </trkpt>
      <trkpt lat="48.63705" lon="1.95432">
        <ele>113.8</ele>
        <time>2023-12-20T09:09:54Z</time>
      </trkpt>
      <trkpt lat="48.63709" lon="1.95431">
        <ele>114.2</ele>
        <time>2023-12-20T09:09:55Z</time>
      </trkpt>
      <trkpt lat="48.63713" lon="1.9543">
        <ele>114.2</ele>
        <time>2023-12-20T09:09:56Z</time>
      </trkpt>
      <trkpt lat="48.63717" lon="1.95429">
        <ele>114.2</ele>
        <time>2023-12-20T09:09:57Z</time>
      </trkpt>
      <trkpt lat="48.6372" lon="1.95427">
        <ele>115</ele>
        <time>2023-12-20T09:09:58Z</time>
      </trkpt>
      <trkpt lat="48.63724" lon="1.95424">
        <ele>115.6</ele>
        <time>2023-12-20T09:09:59Z</time>
      </trkpt>
      <trkpt lat="48.63727" lon="1.95422">
        <ele>115.6</ele>
        <time>2023-12-20T09:10:00Z</time>
      </trkpt>
      <trkpt lat="48.63731" lon="1.95419">
        <ele>115.6</ele>
        <time>2023-12-20T09:10:01Z</time>
      </trkpt>
      <trkpt lat="48.63734" lon="1.95415">
        <ele>116.4</ele>
        <time>2023-12-20T09:10:02Z</time>
      </trkpt>
      <trkpt lat="48.63736" lon="1.95411">
        <ele>116</ele>
        <time>2023-12-20T09:10:03Z</time>
      </trkpt>
      <trkpt lat="48.63739" lon="1.95406">
        <ele>116</ele>
        <time>2023-12-20T09:10:04Z</time>
      </trkpt>
      <trkpt lat="48.63741" lon="1.95401">
        <ele>116</ele>
        <time>2023-12-20T09:10:05Z</time>
      </trkpt>
      <trkpt lat="48.63743" lon="1.95397">
        <ele>116.8</ele>
        <time>2023-12-20T09:10:06Z</time>
      </trkpt>
      <trkpt lat="48.63746" lon="1.95392">
        <ele>116.8</ele>
        <time>2023-12-20T09:10:07Z</time>
      </trkpt>
      <trkpt lat="48.63749" lon="1.95389">
        <ele>116.8</ele>
        <time>2023-12-20T09:10:08Z</time>
      </trkpt>
      <trkpt lat="48.6375" lon="1.95383">
        <ele>116.8</ele>
        <time>2023-12-20T09:10:09Z</time>
      </trkpt>
      <trkpt lat="48.63752" lon="1.95378">
        <ele>117.4</ele>
        <time>2023-12-20T09:10:10Z</time>
      </trkpt>
      <trkpt lat="48.63754" lon="1.95372">
        <ele>117.2</ele>
        <time>2023-12-20T09:10:11Z</time>
      </trkpt>
      <trkpt lat="48.63756" lon="1.95367">
        <ele>117.2</ele>
        <time>2023-12-20T09:10:12Z</time>
      </trkpt>
      <trkpt lat="48.63757" lon="1.95361">
        <ele>117.2</ele>
        <time>2023-12-20T09:10:13Z</time>
      </trkpt>
      <trkpt lat="48.63759" lon="1.95356">
        <ele>117.2</ele>
        <time>2023-12-20T09:10:14Z</time>
      </trkpt>
      <trkpt lat="48.63761" lon="1.95351">
        <ele>117.4</ele>
        <time>2023-12-20T09:10:15Z</time>
      </trkpt>
      <trkpt lat="48.63763" lon="1.95345">
        <ele>117.4</ele>
        <time>2023-12-20T09:10:16Z</time>
      </trkpt>
      <trkpt lat="48.63765" lon="1.95339">
        <ele>117.4</ele>
        <time>2023-12-20T09:10:17Z</time>
      </trkpt>
      <trkpt lat="48.63767" lon="1.95334">
        <ele>117.6</ele>
        <time>2023-12-20T09:10:18Z</time>
      </trkpt>
      <trkpt lat="48.63769" lon="1.95328">
        <ele>117.8</ele>
        <time>2023-12-20T09:10:19Z</time>
      </trkpt>
      <trkpt lat="48.63771" lon="1.95322">
        <ele>117.8</ele>
        <time>2023-12-20T09:10:20Z</time>
      </trkpt>
      <trkpt lat="48.63774" lon="1.95316">
        <ele>117.8</ele>
        <time>2023-12-20T09:10:21Z</time>
      </trkpt>
      <trkpt lat="48.63776" lon="1.95309">
        <ele>117.8</ele>
        <time>2023-12-20T09:10:22Z</time>
      </trkpt>
      <trkpt lat="48.63778" lon="1.95303">
        <ele>117.6</ele>
        <time>2023-12-20T09:10:23Z</time>
      </trkpt>
      <trkpt lat="48.63781" lon="1.95297">
        <ele>117.6</ele>
        <time>2023-12-20T09:10:24Z</time>
      </trkpt>
      <trkpt lat="48.63783" lon="1.95291">
        <ele>117.6</ele>
        <time>2023-12-20T09:10:25Z</time>
      </trkpt>
      <trkpt lat="48.63785" lon="1.95285">
        <ele>117.8</ele>
        <time>2023-12-20T09:10:26Z</time>
      </trkpt>
      <trkpt lat="48.63787" lon="1.95278">
        <ele>117.8</ele>
        <time>2023-12-20T09:10:27Z</time>
      </trkpt>
      <trkpt lat="48.63789" lon="1.95271">
        <ele>117.8</ele>
        <time>2023-12-20T09:10:28Z</time>
      </trkpt>
      <trkpt lat="48.63791" lon="1.95265">
        <ele>117.8</ele>
        <time>2023-12-20T09:10:29Z</time>
      </trkpt>
      <trkpt lat="48.63793" lon="1.95258">
        <ele>117.8</ele>
        <time>2023-12-20T09:10:30Z</time>
      </trkpt>
      <trkpt lat="48.63796" lon="1.95251">
        <ele>117.6</ele>
        <time>2023-12-20T09:10:31Z</time>
      </trkpt>
      <trkpt lat="48.63798" lon="1.95244">
        <ele>117.6</ele>
        <time>2023-12-20T09:10:32Z</time>
      </trkpt>
      <trkpt lat="48.638" lon="1.95238">
        <ele>117.6</ele>
        <time>2023-12-20T09:10:33Z</time>
      </trkpt>
      <trkpt lat="48.63801" lon="1.95231">
        <ele>117.6</ele>
        <time>2023-12-20T09:10:34Z</time>
      </trkpt>
      <trkpt lat="48.63803" lon="1.95224">
        <ele>117.8</ele>
        <time>2023-12-20T09:10:35Z</time>
      </trkpt>
      <trkpt lat="48.63805" lon="1.95217">
        <ele>117.8</ele>
        <time>2023-12-20T09:10:36Z</time>
      </trkpt>
      <trkpt lat="48.63806" lon="1.9521">
        <ele>117.8</ele>
        <time>2023-12-20T09:10:37Z</time>
      </trkpt>
      <trkpt lat="48.63809" lon="1.95204">
        <ele>117.8</ele>
        <time>2023-12-20T09:10:38Z</time>
      </trkpt>
      <trkpt lat="48.63812" lon="1.95198">
        <ele>118</ele>
        <time>2023-12-20T09:10:39Z</time>
      </trkpt>
      <trkpt lat="48.63813" lon="1.95192">
        <ele>118</ele>
        <time>2023-12-20T09:10:40Z</time>
      </trkpt>
      <trkpt lat="48.63814" lon="1.95185">
        <ele>118</ele>
        <time>2023-12-20T09:10:41Z</time>
      </trkpt>
      <trkpt lat="48.63816" lon="1.95178">
        <ele>117</ele>
        <time>2023-12-20T09:10:42Z</time>
      </trkpt>
      <trkpt lat="48.63817" lon="1.9517">
        <ele>116.2</ele>
        <time>2023-12-20T09:10:43Z</time>
      </trkpt>
      <trkpt lat="48.6382" lon="1.95164">
        <ele>116.2</ele>
        <time>2023-12-20T09:10:44Z</time>
      </trkpt>
      <trkpt lat="48.63824" lon="1.95157">
        <ele>116.2</ele>
        <time>2023-12-20T09:10:45Z</time>
      </trkpt>
      <trkpt lat="48.63828" lon="1.9515">
        <ele>116.2</ele>
        <time>2023-12-20T09:10:46Z</time>
      </trkpt>
      <trkpt lat="48.63832" lon="1.95143">
        <ele>115.8</ele>
        <time>2023-12-20T09:10:47Z</time>
      </trkpt>
      <trkpt lat="48.63836" lon="1.95137">
        <ele>115.8</ele>
        <time>2023-12-20T09:10:48Z</time>
      </trkpt>
      <trkpt lat="48.6384" lon="1.95131">
        <ele>115.8</ele>
        <time>2023-12-20T09:10:49Z</time>
      </trkpt>
      <trkpt lat="48.63845" lon="1.95125">
        <ele>115.8</ele>
        <time>2023-12-20T09:10:50Z</time>
      </trkpt>
      <trkpt lat="48.63849" lon="1.95119">
        <ele>115.6</ele>
        <time>2023-12-20T09:10:51Z</time>
      </trkpt>
      <trkpt lat="48.63854" lon="1.95114">
        <ele>115.6</ele>
        <time>2023-12-20T09:10:52Z</time>
      </trkpt>
      <trkpt lat="48.63858" lon="1.95109">
        <ele>115.6</ele>
        <time>2023-12-20T09:10:53Z</time>
      </trkpt>
      <trkpt lat="48.63863" lon="1.95105">
        <ele>115.6</ele>
        <time>2023-12-20T09:10:54Z</time>
      </trkpt>
      <trkpt lat="48.63868" lon="1.95101">
        <ele>116</ele>
        <time>2023-12-20T09:10:55Z</time>
      </trkpt>
      <trkpt lat="48.63873" lon="1.95098">
        <ele>116</ele>
        <time>2023-12-20T09:10:56Z</time>
      </trkpt>
      <trkpt lat="48.63878" lon="1.95094">
        <ele>116</ele>
        <time>2023-12-20T09:10:57Z</time>
      </trkpt>
      <trkpt lat="48.63883" lon="1.9509">
        <ele>116</ele>
        <time>2023-12-20T09:10:58Z</time>
      </trkpt>
      <trkpt lat="48.63888" lon="1.95087">
        <ele>117.2</ele>
        <time>2023-12-20T09:10:59Z</time>
      </trkpt>
      <trkpt lat="48.63892" lon="1.95083">
        <ele>117.2</ele>
        <time>2023-12-20T09:11:00Z</time>
      </trkpt>
      <trkpt lat="48.63897" lon="1.95081">
        <ele>117.2</ele>
        <time>2023-12-20T09:11:01Z</time>
      </trkpt>
      <trkpt lat="48.63901" lon="1.95079">
        <ele>116.6</ele>
        <time>2023-12-20T09:11:02Z</time>
      </trkpt>
      <trkpt lat="48.63905" lon="1.95077">
        <ele>116.4</ele>
        <time>2023-12-20T09:11:03Z</time>
      </trkpt>
      <trkpt lat="48.6391" lon="1.95075">
        <ele>116.4</ele>
        <time>2023-12-20T09:11:04Z</time>
      </trkpt>
      <trkpt lat="48.63914" lon="1.95073">
        <ele>116.4</ele>
        <time>2023-12-20T09:11:05Z</time>
      </trkpt>
      <trkpt lat="48.63918" lon="1.9507">
        <ele>116.8</ele>
        <time>2023-12-20T09:11:06Z</time>
      </trkpt>
      <trkpt lat="48.63922" lon="1.95067">
        <ele>116.8</ele>
        <time>2023-12-20T09:11:07Z</time>
      </trkpt>
      <trkpt lat="48.63927" lon="1.95065">
        <ele>116.8</ele>
        <time>2023-12-20T09:11:08Z</time>
      </trkpt>
      <trkpt lat="48.63931" lon="1.95063">
        <ele>116.8</ele>
        <time>2023-12-20T09:11:09Z</time>
      </trkpt>
      <trkpt lat="48.63936" lon="1.9506">
        <ele>116.4</ele>
        <time>2023-12-20T09:11:10Z</time>
      </trkpt>
      <trkpt lat="48.63941" lon="1.95057">
        <ele>116.4</ele>
        <time>2023-12-20T09:11:11Z</time>
      </trkpt>
      <trkpt lat="48.63946" lon="1.95054">
        <ele>116.4</ele>
        <time>2023-12-20T09:11:12Z</time>
      </trkpt>
      <trkpt lat="48.63952" lon="1.95051">
        <ele>116.4</ele>
        <time>2023-12-20T09:11:13Z</time>
      </trkpt>
      <trkpt lat="48.63957" lon="1.95048">
        <ele>116.4</ele>
        <time>2023-12-20T09:11:14Z</time>
      </trkpt>
      <trkpt lat="48.63962" lon="1.95045">
        <ele>116.6</ele>
        <time>2023-12-20T09:11:15Z</time>
      </trkpt>
      <trkpt lat="48.63966" lon="1.95041">
        <ele>116.6</ele>
        <time>2023-12-20T09:11:16Z</time>
      </trkpt>
      <trkpt lat="48.63971" lon="1.95037">
        <ele>116.6</ele>
        <time>2023-12-20T09:11:17Z</time>
      </trkpt>
      <trkpt lat="48.63976" lon="1.95033">
        <ele>117</ele>
        <time>2023-12-20T09:11:18Z</time>
      </trkpt>
      <trkpt lat="48.6398" lon="1.9503">
        <ele>117.2</ele>
        <time>2023-12-20T09:11:19Z</time>
      </trkpt>
      <trkpt lat="48.63986" lon="1.95028">
        <ele>117.2</ele>
        <time>2023-12-20T09:11:20Z</time>
      </trkpt>
      <trkpt lat="48.63991" lon="1.95027">
        <ele>117.2</ele>
        <time>2023-12-20T09:11:21Z</time>
      </trkpt>
      <trkpt lat="48.63996" lon="1.95026">
        <ele>117</ele>
        <time>2023-12-20T09:11:22Z</time>
      </trkpt>
      <trkpt lat="48.64002" lon="1.95025">
        <ele>117</ele>
        <time>2023-12-20T09:11:23Z</time>
      </trkpt>
      <trkpt lat="48.64007" lon="1.95024">
        <ele>117</ele>
        <time>2023-12-20T09:11:24Z</time>
      </trkpt>
      <trkpt lat="48.64013" lon="1.95023">
        <ele>117</ele>
        <time>2023-12-20T09:11:25Z</time>
      </trkpt>
      <trkpt lat="48.64018" lon="1.95023">
        <ele>116.4</ele>
        <time>2023-12-20T09:11:26Z</time>
      </trkpt>
      <trkpt lat="48.64022" lon="1.95022">
        <ele>116.6</ele>
        <time>2023-12-20T09:11:27Z</time>
      </trkpt>
      <trkpt lat="48.64028" lon="1.95022">
        <ele>116.6</ele>
        <time>2023-12-20T09:11:28Z</time>
      </trkpt>
      <trkpt lat="48.64033" lon="1.95022">
        <ele>116.6</ele>
        <time>2023-12-20T09:11:29Z</time>
      </trkpt>
      <trkpt lat="48.64039" lon="1.95023">
        <ele>116.6</ele>
        <time>2023-12-20T09:11:30Z</time>
      </trkpt>
      <trkpt lat="48.64045" lon="1.95025">
        <ele>116.4</ele>
        <time>2023-12-20T09:11:31Z</time>
      </trkpt>
      <trkpt lat="48.6405" lon="1.95027">
        <ele>116.4</ele>
        <time>2023-12-20T09:11:32Z</time>
      </trkpt>
      <trkpt lat="48.64056" lon="1.95029">
        <ele>116.4</ele>
        <time>2023-12-20T09:11:33Z</time>
      </trkpt>
      <trkpt lat="48.6406" lon="1.95031">
        <ele>116.4</ele>
        <time>2023-12-20T09:11:34Z</time>
      </trkpt>
      <trkpt lat="48.64065" lon="1.95034">
        <ele>116.4</ele>
        <time>2023-12-20T09:11:35Z</time>
      </trkpt>
      <trkpt lat="48.6407" lon="1.95037">
        <ele>116.4</ele>
        <time>2023-12-20T09:11:36Z</time>
      </trkpt>
      <trkpt lat="48.64074" lon="1.9504">
        <ele>116.4</ele>
        <time>2023-12-20T09:11:37Z</time>
      </trkpt>
      <trkpt lat="48.64078" lon="1.95043">
        <ele>117</ele>
        <time>2023-12-20T09:11:38Z</time>
      </trkpt>
      <trkpt lat="48.64083" lon="1.95047">
        <ele>117.2</ele>
        <time>2023-12-20T09:11:39Z</time>
      </trkpt>
      <trkpt lat="48.64088" lon="1.9505">
        <ele>117.2</ele>
        <time>2023-12-20T09:11:40Z</time>
      </trkpt>
      <trkpt lat="48.64093" lon="1.95052">
        <ele>117.2</ele>
        <time>2023-12-20T09:11:41Z</time>
      </trkpt>
      <trkpt lat="48.64098" lon="1.95055">
        <ele>117.8</ele>
        <time>2023-12-20T09:11:42Z</time>
      </trkpt>
      <trkpt lat="48.64104" lon="1.95058">
        <ele>118</ele>
        <time>2023-12-20T09:11:43Z</time>
      </trkpt>
      <trkpt lat="48.64109" lon="1.9506">
        <ele>118</ele>
        <time>2023-12-20T09:11:44Z</time>
      </trkpt>
      <trkpt lat="48.64115" lon="1.95062">
        <ele>118</ele>
        <time>2023-12-20T09:11:45Z</time>
      </trkpt>
      <trkpt lat="48.6412" lon="1.95065">
        <ele>118.6</ele>
        <time>2023-12-20T09:11:46Z</time>
      </trkpt>
      <trkpt lat="48.64125" lon="1.95067">
        <ele>118.2</ele>
        <time>2023-12-20T09:11:47Z</time>
      </trkpt>
      <trkpt lat="48.6413" lon="1.95069">
        <ele>118.2</ele>
        <time>2023-12-20T09:11:48Z</time>
      </trkpt>
      <trkpt lat="48.64135" lon="1.95071">
        <ele>118.2</ele>
        <time>2023-12-20T09:11:49Z</time>
      </trkpt>
      <trkpt lat="48.6414" lon="1.95073">
        <ele>118.2</ele>
        <time>2023-12-20T09:11:50Z</time>
      </trkpt>
      <trkpt lat="48.64145" lon="1.95075">
        <ele>118.8</ele>
        <time>2023-12-20T09:11:51Z</time>
      </trkpt>
      <trkpt lat="48.64151" lon="1.95077">
        <ele>118.8</ele>
        <time>2023-12-20T09:11:52Z</time>
      </trkpt>
      <trkpt lat="48.64156" lon="1.95079">
        <ele>118.8</ele>
        <time>2023-12-20T09:11:53Z</time>
      </trkpt>
      <trkpt lat="48.64161" lon="1.9508">
        <ele>118.8</ele>
        <time>2023-12-20T09:11:54Z</time>
      </trkpt>
      <trkpt lat="48.64167" lon="1.95082">
        <ele>119</ele>
        <time>2023-12-20T09:11:55Z</time>
      </trkpt>
      <trkpt lat="48.64172" lon="1.95083">
        <ele>119</ele>
        <time>2023-12-20T09:11:56Z</time>
      </trkpt>
      <trkpt lat="48.64177" lon="1.95085">
        <ele>119</ele>
        <time>2023-12-20T09:11:57Z</time>
      </trkpt>
      <trkpt lat="48.64183" lon="1.95087">
        <ele>119</ele>
        <time>2023-12-20T09:11:58Z</time>
      </trkpt>
      <trkpt lat="48.64188" lon="1.95089">
        <ele>118.8</ele>
        <time>2023-12-20T09:11:59Z</time>
      </trkpt>
      <trkpt lat="48.64193" lon="1.9509">
        <ele>118.8</ele>
        <time>2023-12-20T09:12:00Z</time>
      </trkpt>
      <trkpt lat="48.64199" lon="1.95092">
        <ele>118.8</ele>
        <time>2023-12-20T09:12:01Z</time>
      </trkpt>
      <trkpt lat="48.64204" lon="1.95093">
        <ele>119.2</ele>
        <time>2023-12-20T09:12:02Z</time>
      </trkpt>
      <trkpt lat="48.64209" lon="1.95095">
        <ele>118.8</ele>
        <time>2023-12-20T09:12:03Z</time>
      </trkpt>
      <trkpt lat="48.64215" lon="1.95097">
        <ele>118.8</ele>
        <time>2023-12-20T09:12:04Z</time>
      </trkpt>
      <trkpt lat="48.6422" lon="1.95099">
        <ele>118.8</ele>
        <time>2023-12-20T09:12:05Z</time>
      </trkpt>
      <trkpt lat="48.64224" lon="1.95101">
        <ele>119.2</ele>
        <time>2023-12-20T09:12:06Z</time>
      </trkpt>
      <trkpt lat="48.6423" lon="1.95103">
        <ele>118.8</ele>
        <time>2023-12-20T09:12:07Z</time>
      </trkpt>
      <trkpt lat="48.64235" lon="1.95105">
        <ele>118.8</ele>
        <time>2023-12-20T09:12:08Z</time>
      </trkpt>
      <trkpt lat="48.64241" lon="1.95107">
        <ele>118.8</ele>
        <time>2023-12-20T09:12:09Z</time>
      </trkpt>
      <trkpt lat="48.64246" lon="1.95109">
        <ele>118.8</ele>
        <time>2023-12-20T09:12:10Z</time>
      </trkpt>
      <trkpt lat="48.64252" lon="1.9511">
        <ele>119.2</ele>
        <time>2023-12-20T09:12:11Z</time>
      </trkpt>
      <trkpt lat="48.64257" lon="1.95112">
        <ele>119.2</ele>
        <time>2023-12-20T09:12:12Z</time>
      </trkpt>
      <trkpt lat="48.64263" lon="1.95114">
        <ele>119.2</ele>
        <time>2023-12-20T09:12:13Z</time>
      </trkpt>
      <trkpt lat="48.64268" lon="1.95115">
        <ele>119.2</ele>
        <time>2023-12-20T09:12:14Z</time>
      </trkpt>
      <trkpt lat="48.64273" lon="1.95117">
        <ele>119.2</ele>
        <time>2023-12-20T09:12:15Z</time>
      </trkpt>
      <trkpt lat="48.64278" lon="1.9512">
        <ele>119.2</ele>
        <time>2023-12-20T09:12:16Z</time>
      </trkpt>
      <trkpt lat="48.64283" lon="1.95122">
        <ele>119.2</ele>
        <time>2023-12-20T09:12:17Z</time>
      </trkpt>
      <trkpt lat="48.64288" lon="1.95124">
        <ele>119.2</ele>
        <time>2023-12-20T09:12:18Z</time>
      </trkpt>
      <trkpt lat="48.64292" lon="1.95125">
        <ele>120</ele>
        <time>2023-12-20T09:12:19Z</time>
      </trkpt>
      <trkpt lat="48.64297" lon="1.95126">
        <ele>120</ele>
        <time>2023-12-20T09:12:20Z</time>
      </trkpt>
      <trkpt lat="48.64302" lon="1.95126">
        <ele>120</ele>
        <time>2023-12-20T09:12:21Z</time>
      </trkpt>
      <trkpt lat="48.64307" lon="1.95126">
        <ele>120</ele>
        <time>2023-12-20T09:12:22Z</time>
      </trkpt>
      <trkpt lat="48.64313" lon="1.95126">
        <ele>120.4</ele>
        <time>2023-12-20T09:12:23Z</time>
      </trkpt>
      <trkpt lat="48.64318" lon="1.95125">
        <ele>120.4</ele>
        <time>2023-12-20T09:12:24Z</time>
      </trkpt>
      <trkpt lat="48.64323" lon="1.95123">
        <ele>120.4</ele>
        <time>2023-12-20T09:12:25Z</time>
      </trkpt>
      <trkpt lat="48.64328" lon="1.95122">
        <ele>120.8</ele>
        <time>2023-12-20T09:12:26Z</time>
      </trkpt>
      <trkpt lat="48.64333" lon="1.9512">
        <ele>121.2</ele>
        <time>2023-12-20T09:12:27Z</time>
      </trkpt>
      <trkpt lat="48.64338" lon="1.95118">
        <ele>121.2</ele>
        <time>2023-12-20T09:12:28Z</time>
      </trkpt>
      <trkpt lat="48.64343" lon="1.95115">
        <ele>121.2</ele>
        <time>2023-12-20T09:12:29Z</time>
      </trkpt>
      <trkpt lat="48.64348" lon="1.95112">
        <ele>121.8</ele>
        <time>2023-12-20T09:12:30Z</time>
      </trkpt>
      <trkpt lat="48.64353" lon="1.9511">
        <ele>121.8</ele>
        <time>2023-12-20T09:12:31Z</time>
      </trkpt>
      <trkpt lat="48.64357" lon="1.95107">
        <ele>121.8</ele>
        <time>2023-12-20T09:12:32Z</time>
      </trkpt>
      <trkpt lat="48.64362" lon="1.95104">
        <ele>121.8</ele>
        <time>2023-12-20T09:12:33Z</time>
      </trkpt>
      <trkpt lat="48.64366" lon="1.95102">
        <ele>121.8</ele>
        <time>2023-12-20T09:12:34Z</time>
      </trkpt>
      <trkpt lat="48.6437" lon="1.951">
        <ele>122.6</ele>
        <time>2023-12-20T09:12:35Z</time>
      </trkpt>
      <trkpt lat="48.64374" lon="1.95097">
        <ele>122.6</ele>
        <time>2023-12-20T09:12:36Z</time>
      </trkpt>
      <trkpt lat="48.64378" lon="1.95095">
        <ele>122.6</ele>
        <time>2023-12-20T09:12:37Z</time>
      </trkpt>
      <trkpt lat="48.64383" lon="1.95094">
        <ele>123</ele>
        <time>2023-12-20T09:12:38Z</time>
      </trkpt>
      <trkpt lat="48.64386" lon="1.95092">
        <ele>123.6</ele>
        <time>2023-12-20T09:12:39Z</time>
      </trkpt>
      <trkpt lat="48.64391" lon="1.9509">
        <ele>123.6</ele>
        <time>2023-12-20T09:12:40Z</time>
      </trkpt>
      <trkpt lat="48.64395" lon="1.95088">
        <ele>123.6</ele>
        <time>2023-12-20T09:12:41Z</time>
      </trkpt>
      <trkpt lat="48.64399" lon="1.95086">
        <ele>124.4</ele>
        <time>2023-12-20T09:12:42Z</time>
      </trkpt>
      <trkpt lat="48.64404" lon="1.95084">
        <ele>124.4</ele>
        <time>2023-12-20T09:12:43Z</time>
      </trkpt>
      <trkpt lat="48.64408" lon="1.95082">
        <ele>124.4</ele>
        <time>2023-12-20T09:12:44Z</time>
      </trkpt>
      <trkpt lat="48.64412" lon="1.9508">
        <ele>124.4</ele>
        <time>2023-12-20T09:12:45Z</time>
      </trkpt>
      <trkpt lat="48.64417" lon="1.95078">
        <ele>124.4</ele>
        <time>2023-12-20T09:12:46Z</time>
      </trkpt>
      <trkpt lat="48.64421" lon="1.95077">
        <ele>124.6</ele>
        <time>2023-12-20T09:12:47Z</time>
      </trkpt>
      <trkpt lat="48.64425" lon="1.95075">
        <ele>124.6</ele>
        <time>2023-12-20T09:12:48Z</time>
      </trkpt>
      <trkpt lat="48.64429" lon="1.95073">
        <ele>124.6</ele>
        <time>2023-12-20T09:12:49Z</time>
      </trkpt>
      <trkpt lat="48.64434" lon="1.95072">
        <ele>125</ele>
        <time>2023-12-20T09:12:50Z</time>
      </trkpt>
      <trkpt lat="48.64438" lon="1.95071">
        <ele>125.8</ele>
        <time>2023-12-20T09:12:51Z</time>
      </trkpt>
      <trkpt lat="48.64442" lon="1.9507">
        <ele>125.8</ele>
        <time>2023-12-20T09:12:52Z</time>
      </trkpt>
      <trkpt lat="48.64446" lon="1.95069">
        <ele>125.8</ele>
        <time>2023-12-20T09:12:53Z</time>
      </trkpt>
      <trkpt lat="48.6445" lon="1.95068">
        <ele>125.8</ele>
        <time>2023-12-20T09:12:54Z</time>
      </trkpt>
      <trkpt lat="48.64454" lon="1.95067">
        <ele>126.2</ele>
        <time>2023-12-20T09:12:55Z</time>
      </trkpt>
      <trkpt lat="48.64458" lon="1.95066">
        <ele>126.2</ele>
        <time>2023-12-20T09:12:56Z</time>
      </trkpt>
      <trkpt lat="48.64462" lon="1.95065">
        <ele>126.2</ele>
        <time>2023-12-20T09:12:57Z</time>
      </trkpt>
      <trkpt lat="48.64466" lon="1.95065">
        <ele>127.2</ele>
        <time>2023-12-20T09:12:58Z</time>
      </trkpt>
      <trkpt lat="48.6447" lon="1.95065">
        <ele>127.6</ele>
        <time>2023-12-20T09:12:59Z</time>
      </trkpt>
      <trkpt lat="48.64474" lon="1.95065">
        <ele>127.6</ele>
        <time>2023-12-20T09:13:00Z</time>
      </trkpt>
      <trkpt lat="48.64478" lon="1.95066">
        <ele>127.6</ele>
        <time>2023-12-20T09:13:01Z</time>
      </trkpt>
      <trkpt lat="48.64481" lon="1.95066">
        <ele>127.6</ele>
        <time>2023-12-20T09:13:02Z</time>
      </trkpt>
      <trkpt lat="48.64485" lon="1.95067">
        <ele>128</ele>
        <time>2023-12-20T09:13:03Z</time>
      </trkpt>
      <trkpt lat="48.64489" lon="1.95067">
        <ele>128</ele>
        <time>2023-12-20T09:13:04Z</time>
      </trkpt>
      <trkpt lat="48.64492" lon="1.95068">
        <ele>128</ele>
        <time>2023-12-20T09:13:05Z</time>
      </trkpt>
      <trkpt lat="48.64496" lon="1.95069">
        <ele>128.2</ele>
        <time>2023-12-20T09:13:06Z</time>
      </trkpt>
      <trkpt lat="48.645" lon="1.9507">
        <ele>128.6</ele>
        <time>2023-12-20T09:13:07Z</time>
      </trkpt>
      <trkpt lat="48.64504" lon="1.95072">
        <ele>128.6</ele>
        <time>2023-12-20T09:13:08Z</time>
      </trkpt>
      <trkpt lat="48.64507" lon="1.95073">
        <ele>128.6</ele>
        <time>2023-12-20T09:13:09Z</time>
      </trkpt>
      <trkpt lat="48.64511" lon="1.95074">
        <ele>129.6</ele>
        <time>2023-12-20T09:13:10Z</time>
      </trkpt>
      <trkpt lat="48.64514" lon="1.95075">
        <ele>129.8</ele>
        <time>2023-12-20T09:13:11Z</time>
      </trkpt>
      <trkpt lat="48.64518" lon="1.95076">
        <ele>129.8</ele>
        <time>2023-12-20T09:13:12Z</time>
      </trkpt>
      <trkpt lat="48.64521" lon="1.95077">
        <ele>129.8</ele>
        <time>2023-12-20T09:13:13Z</time>
      </trkpt>
      <trkpt lat="48.64525" lon="1.95078">
        <ele>130.4</ele>
        <time>2023-12-20T09:13:14Z</time>
      </trkpt>
      <trkpt lat="48.64528" lon="1.95079">
        <ele>131</ele>
        <time>2023-12-20T09:13:15Z</time>
      </trkpt>
      <trkpt lat="48.64532" lon="1.9508">
        <ele>131</ele>
        <time>2023-12-20T09:13:16Z</time>
      </trkpt>
      <trkpt lat="48.64535" lon="1.95081">
        <ele>131</ele>
        <time>2023-12-20T09:13:17Z</time>
      </trkpt>
      <trkpt lat="48.64538" lon="1.95082">
        <ele>132</ele>
        <time>2023-12-20T09:13:18Z</time>
      </trkpt>
      <trkpt lat="48.64542" lon="1.95083">
        <ele>132.4</ele>
        <time>2023-12-20T09:13:19Z</time>
      </trkpt>
      <trkpt lat="48.64545" lon="1.95084">
        <ele>132.4</ele>
        <time>2023-12-20T09:13:20Z</time>
      </trkpt>
      <trkpt lat="48.64548" lon="1.95085">
        <ele>132.4</ele>
        <time>2023-12-20T09:13:21Z</time>
      </trkpt>
      <trkpt lat="48.64551" lon="1.95085">
        <ele>133.2</ele>
        <time>2023-12-20T09:13:22Z</time>
      </trkpt>
      <trkpt lat="48.64555" lon="1.95086">
        <ele>133.4</ele>
        <time>2023-12-20T09:13:23Z</time>
      </trkpt>
      <trkpt lat="48.64558" lon="1.95086">
        <ele>133.4</ele>
        <time>2023-12-20T09:13:24Z</time>
      </trkpt>
      <trkpt lat="48.64561" lon="1.95087">
        <ele>133.4</ele>
        <time>2023-12-20T09:13:25Z</time>
      </trkpt>
      <trkpt lat="48.64564" lon="1.95087">
        <ele>134.4</ele>
        <time>2023-12-20T09:13:26Z</time>
      </trkpt>
      <trkpt lat="48.64568" lon="1.95087">
        <ele>134.8</ele>
        <time>2023-12-20T09:13:27Z</time>
      </trkpt>
      <trkpt lat="48.64571" lon="1.95088">
        <ele>134.8</ele>
        <time>2023-12-20T09:13:28Z</time>
      </trkpt>
      <trkpt lat="48.64574" lon="1.95088">
        <ele>134.8</ele>
        <time>2023-12-20T09:13:29Z</time>
      </trkpt>
      <trkpt lat="48.64578" lon="1.95088">
        <ele>134.8</ele>
        <time>2023-12-20T09:13:30Z</time>
      </trkpt>
      <trkpt lat="48.64581" lon="1.95088">
        <ele>135</ele>
        <time>2023-12-20T09:13:31Z</time>
      </trkpt>
      <trkpt lat="48.64584" lon="1.95088">
        <ele>135</ele>
        <time>2023-12-20T09:13:32Z</time>
      </trkpt>
      <trkpt lat="48.64588" lon="1.95088">
        <ele>135</ele>
        <time>2023-12-20T09:13:33Z</time>
      </trkpt>
      <trkpt lat="48.64591" lon="1.95088">
        <ele>135.6</ele>
        <time>2023-12-20T09:13:34Z</time>
      </trkpt>
      <trkpt lat="48.64595" lon="1.95087">
        <ele>135.8</ele>
        <time>2023-12-20T09:13:35Z</time>
      </trkpt>
      <trkpt lat="48.64598" lon="1.95087">
        <ele>135.8</ele>
        <time>2023-12-20T09:13:36Z</time>
      </trkpt>
      <trkpt lat="48.64602" lon="1.95086">
        <ele>135.8</ele>
        <time>2023-12-20T09:13:37Z</time>
      </trkpt>
      <trkpt lat="48.64605" lon="1.95085">
        <ele>135.8</ele>
        <time>2023-12-20T09:13:38Z</time>
      </trkpt>
      <trkpt lat="48.64609" lon="1.95084">
        <ele>136.2</ele>
        <time>2023-12-20T09:13:39Z</time>
      </trkpt>
      <trkpt lat="48.64612" lon="1.95083">
        <ele>136.2</ele>
        <time>2023-12-20T09:13:40Z</time>
      </trkpt>
      <trkpt lat="48.64616" lon="1.95082">
        <ele>136.2</ele>
        <time>2023-12-20T09:13:41Z</time>
      </trkpt>
      <trkpt lat="48.64619" lon="1.9508">
        <ele>136.8</ele>
        <time>2023-12-20T09:13:42Z</time>
      </trkpt>
      <trkpt lat="48.64622" lon="1.95078">
        <ele>136.8</ele>
        <time>2023-12-20T09:13:43Z</time>
      </trkpt>
      <trkpt lat="48.64625" lon="1.95076">
        <ele>136.8</ele>
        <time>2023-12-20T09:13:44Z</time>
      </trkpt>
      <trkpt lat="48.64629" lon="1.95074">
        <ele>136.8</ele>
        <time>2023-12-20T09:13:45Z</time>
      </trkpt>
      <trkpt lat="48.64632" lon="1.95071">
        <ele>137.6</ele>
        <time>2023-12-20T09:13:46Z</time>
      </trkpt>
      <trkpt lat="48.64635" lon="1.95069">
        <ele>137.8</ele>
        <time>2023-12-20T09:13:47Z</time>
      </trkpt>
      <trkpt lat="48.64638" lon="1.95067">
        <ele>137.8</ele>
        <time>2023-12-20T09:13:48Z</time>
      </trkpt>
      <trkpt lat="48.64641" lon="1.95065">
        <ele>137.8</ele>
        <time>2023-12-20T09:13:49Z</time>
      </trkpt>
      <trkpt lat="48.64645" lon="1.95063">
        <ele>138.6</ele>
        <time>2023-12-20T09:13:50Z</time>
      </trkpt>
      <trkpt lat="48.64648" lon="1.95061">
        <ele>138.6</ele>
        <time>2023-12-20T09:13:51Z</time>
      </trkpt>
      <trkpt lat="48.64651" lon="1.95058">
        <ele>138.6</ele>
        <time>2023-12-20T09:13:52Z</time>
      </trkpt>
      <trkpt lat="48.64654" lon="1.95056">
        <ele>138.6</ele>
        <time>2023-12-20T09:13:53Z</time>
      </trkpt>
      <trkpt lat="48.64657" lon="1.95054">
        <ele>139.2</ele>
        <time>2023-12-20T09:13:54Z</time>
      </trkpt>
      <trkpt lat="48.64659" lon="1.95051">
        <ele>139</ele>
        <time>2023-12-20T09:13:55Z</time>
      </trkpt>
      <trkpt lat="48.64662" lon="1.95049">
        <ele>139</ele>
        <time>2023-12-20T09:13:56Z</time>
      </trkpt>
      <trkpt lat="48.64666" lon="1.95046">
        <ele>139</ele>
        <time>2023-12-20T09:13:57Z</time>
      </trkpt>
      <trkpt lat="48.64669" lon="1.95044">
        <ele>139</ele>
        <time>2023-12-20T09:13:58Z</time>
      </trkpt>
      <trkpt lat="48.64672" lon="1.95041">
        <ele>139.8</ele>
        <time>2023-12-20T09:13:59Z</time>
      </trkpt>
      <trkpt lat="48.64675" lon="1.95038">
        <ele>139.8</ele>
        <time>2023-12-20T09:14:00Z</time>
      </trkpt>
      <trkpt lat="48.64678" lon="1.95035">
        <ele>139.8</ele>
        <time>2023-12-20T09:14:01Z</time>
      </trkpt>
      <trkpt lat="48.64681" lon="1.95032">
        <ele>139</ele>
        <time>2023-12-20T09:14:02Z</time>
      </trkpt>
      <trkpt lat="48.64685" lon="1.95029">
        <ele>139.4</ele>
        <time>2023-12-20T09:14:03Z</time>
      </trkpt>
      <trkpt lat="48.64688" lon="1.95027">
        <ele>139.4</ele>
        <time>2023-12-20T09:14:04Z</time>
      </trkpt>
      <trkpt lat="48.64692" lon="1.95024">
        <ele>139.4</ele>
        <time>2023-12-20T09:14:05Z</time>
      </trkpt>
      <trkpt lat="48.64695" lon="1.95022">
        <ele>139.8</ele>
        <time>2023-12-20T09:14:06Z</time>
      </trkpt>
      <trkpt lat="48.64698" lon="1.95019">
        <ele>139.8</ele>
        <time>2023-12-20T09:14:07Z</time>
      </trkpt>
      <trkpt lat="48.64702" lon="1.95016">
        <ele>139.8</ele>
        <time>2023-12-20T09:14:08Z</time>
      </trkpt>
      <trkpt lat="48.64706" lon="1.95013">
        <ele>139.8</ele>
        <time>2023-12-20T09:14:09Z</time>
      </trkpt>
      <trkpt lat="48.64709" lon="1.9501">
        <ele>140.2</ele>
        <time>2023-12-20T09:14:10Z</time>
      </trkpt>
      <trkpt lat="48.64713" lon="1.95007">
        <ele>140.6</ele>
        <time>2023-12-20T09:14:11Z</time>
      </trkpt>
      <trkpt lat="48.64716" lon="1.95005">
        <ele>140.6</ele>
        <time>2023-12-20T09:14:12Z</time>
      </trkpt>
      <trkpt lat="48.6472" lon="1.95002">
        <ele>140.6</ele>
        <time>2023-12-20T09:14:13Z</time>
      </trkpt>
      <trkpt lat="48.64724" lon="1.94999">
        <ele>140.8</ele>
        <time>2023-12-20T09:14:14Z</time>
      </trkpt>
      <trkpt lat="48.64727" lon="1.94996">
        <ele>140.6</ele>
        <time>2023-12-20T09:14:15Z</time>
      </trkpt>
      <trkpt lat="48.64731" lon="1.94994">
        <ele>140.6</ele>
        <time>2023-12-20T09:14:16Z</time>
      </trkpt>
      <trkpt lat="48.64735" lon="1.94991">
        <ele>140.6</ele>
        <time>2023-12-20T09:14:17Z</time>
      </trkpt>
      <trkpt lat="48.64738" lon="1.94989">
        <ele>140.8</ele>
        <time>2023-12-20T09:14:18Z</time>
      </trkpt>
      <trkpt lat="48.64742" lon="1.94986">
        <ele>141.6</ele>
        <time>2023-12-20T09:14:19Z</time>
      </trkpt>
      <trkpt lat="48.64746" lon="1.94984">
        <ele>141.6</ele>
        <time>2023-12-20T09:14:20Z</time>
      </trkpt>
      <trkpt lat="48.6475" lon="1.94981">
        <ele>141.6</ele>
        <time>2023-12-20T09:14:21Z</time>
      </trkpt>
      <trkpt lat="48.64753" lon="1.94978">
        <ele>141.6</ele>
        <time>2023-12-20T09:14:22Z</time>
      </trkpt>
      <trkpt lat="48.64757" lon="1.94976">
        <ele>141.8</ele>
        <time>2023-12-20T09:14:23Z</time>
      </trkpt>
      <trkpt lat="48.64761" lon="1.94973">
        <ele>141.8</ele>
        <time>2023-12-20T09:14:24Z</time>
      </trkpt>
      <trkpt lat="48.64765" lon="1.9497">
        <ele>141.8</ele>
        <time>2023-12-20T09:14:25Z</time>
      </trkpt>
      <trkpt lat="48.64769" lon="1.94967">
        <ele>141.8</ele>
        <time>2023-12-20T09:14:26Z</time>
      </trkpt>
      <trkpt lat="48.64772" lon="1.94965">
        <ele>142</ele>
        <time>2023-12-20T09:14:27Z</time>
      </trkpt>
      <trkpt lat="48.64776" lon="1.94962">
        <ele>142</ele>
        <time>2023-12-20T09:14:28Z</time>
      </trkpt>
      <trkpt lat="48.6478" lon="1.9496">
        <ele>142</ele>
        <time>2023-12-20T09:14:29Z</time>
      </trkpt>
      <trkpt lat="48.64783" lon="1.94958">
        <ele>142.2</ele>
        <time>2023-12-20T09:14:30Z</time>
      </trkpt>
      <trkpt lat="48.64787" lon="1.94955">
        <ele>142.8</ele>
        <time>2023-12-20T09:14:31Z</time>
      </trkpt>
      <trkpt lat="48.64791" lon="1.94953">
        <ele>142.8</ele>
        <time>2023-12-20T09:14:32Z</time>
      </trkpt>
      <trkpt lat="48.64795" lon="1.94951">
        <ele>142.8</ele>
        <time>2023-12-20T09:14:33Z</time>
      </trkpt>
      <trkpt lat="48.64799" lon="1.94949">
        <ele>142.4</ele>
        <time>2023-12-20T09:14:34Z</time>
      </trkpt>
      <trkpt lat="48.64802" lon="1.94946">
        <ele>142.8</ele>
        <time>2023-12-20T09:14:35Z</time>
      </trkpt>
      <trkpt lat="48.64806" lon="1.94943">
        <ele>142.8</ele>
        <time>2023-12-20T09:14:36Z</time>
      </trkpt>
      <trkpt lat="48.6481" lon="1.94941">
        <ele>142.8</ele>
        <time>2023-12-20T09:14:37Z</time>
      </trkpt>
      <trkpt lat="48.64814" lon="1.94938">
        <ele>142.8</ele>
        <time>2023-12-20T09:14:38Z</time>
      </trkpt>
      <trkpt lat="48.64818" lon="1.94936">
        <ele>142.6</ele>
        <time>2023-12-20T09:14:39Z</time>
      </trkpt>
      <trkpt lat="48.64821" lon="1.94933">
        <ele>142.6</ele>
        <time>2023-12-20T09:14:40Z</time>
      </trkpt>
      <trkpt lat="48.64825" lon="1.94931">
        <ele>142.6</ele>
        <time>2023-12-20T09:14:41Z</time>
      </trkpt>
      <trkpt lat="48.64829" lon="1.94928">
        <ele>142.8</ele>
        <time>2023-12-20T09:14:42Z</time>
      </trkpt>
      <trkpt lat="48.64833" lon="1.94926">
        <ele>142.8</ele>
        <time>2023-12-20T09:14:43Z</time>
      </trkpt>
      <trkpt lat="48.64837" lon="1.94924">
        <ele>142.8</ele>
        <time>2023-12-20T09:14:44Z</time>
      </trkpt>
      <trkpt lat="48.64841" lon="1.94922">
        <ele>142.8</ele>
        <time>2023-12-20T09:14:45Z</time>
      </trkpt>
      <trkpt lat="48.64845" lon="1.9492">
        <ele>142.8</ele>
        <time>2023-12-20T09:14:46Z</time>
      </trkpt>
      <trkpt lat="48.64849" lon="1.94917">
        <ele>143.6</ele>
        <time>2023-12-20T09:14:47Z</time>
      </trkpt>
      <trkpt lat="48.64853" lon="1.94915">
        <ele>143.6</ele>
        <time>2023-12-20T09:14:48Z</time>
      </trkpt>
      <trkpt lat="48.64857" lon="1.94913">
        <ele>143.6</ele>
        <time>2023-12-20T09:14:49Z</time>
      </trkpt>
      <trkpt lat="48.64861" lon="1.94911">
        <ele>143.6</ele>
        <time>2023-12-20T09:14:50Z</time>
      </trkpt>
      <trkpt lat="48.64865" lon="1.9491">
        <ele>143.8</ele>
        <time>2023-12-20T09:14:51Z</time>
      </trkpt>
      <trkpt lat="48.64869" lon="1.94909">
        <ele>143.8</ele>
        <time>2023-12-20T09:14:52Z</time>
      </trkpt>
      <trkpt lat="48.64873" lon="1.94908">
        <ele>143.8</ele>
        <time>2023-12-20T09:14:53Z</time>
      </trkpt>
      <trkpt lat="48.64877" lon="1.94908">
        <ele>144</ele>
        <time>2023-12-20T09:14:54Z</time>
      </trkpt>
      <trkpt lat="48.64882" lon="1.94907">
        <ele>144.2</ele>
        <time>2023-12-20T09:14:55Z</time>
      </trkpt>
      <trkpt lat="48.64886" lon="1.94907">
        <ele>144.2</ele>
        <time>2023-12-20T09:14:56Z</time>
      </trkpt>
      <trkpt lat="48.6489" lon="1.94906">
        <ele>144.2</ele>
        <time>2023-12-20T09:14:57Z</time>
      </trkpt>
      <trkpt lat="48.64894" lon="1.94905">
        <ele>144.4</ele>
        <time>2023-12-20T09:14:58Z</time>
      </trkpt>
      <trkpt lat="48.64898" lon="1.94905">
        <ele>144.4</ele>
        <time>2023-12-20T09:14:59Z</time>
      </trkpt>
      <trkpt lat="48.64902" lon="1.94905">
        <ele>144.4</ele>
        <time>2023-12-20T09:15:00Z</time>
      </trkpt>
      <trkpt lat="48.64906" lon="1.94905">
        <ele>144.4</ele>
        <time>2023-12-20T09:15:01Z</time>
      </trkpt>
      <trkpt lat="48.6491" lon="1.94905">
        <ele>144.4</ele>
        <time>2023-12-20T09:15:02Z</time>
      </trkpt>
      <trkpt lat="48.64915" lon="1.94904">
        <ele>144.8</ele>
        <time>2023-12-20T09:15:03Z</time>
      </trkpt>
      <trkpt lat="48.64919" lon="1.94904">
        <ele>144.8</ele>
        <time>2023-12-20T09:15:04Z</time>
      </trkpt>
      <trkpt lat="48.64924" lon="1.94901">
        <ele>144.8</ele>
        <time>2023-12-20T09:15:05Z</time>
      </trkpt>
      <trkpt lat="48.64928" lon="1.949">
        <ele>145.2</ele>
        <time>2023-12-20T09:15:06Z</time>
      </trkpt>
      <trkpt lat="48.64933" lon="1.94898">
        <ele>145</ele>
        <time>2023-12-20T09:15:07Z</time>
      </trkpt>
      <trkpt lat="48.64937" lon="1.94895">
        <ele>145</ele>
        <time>2023-12-20T09:15:08Z</time>
      </trkpt>
      <trkpt lat="48.64942" lon="1.94891">
        <ele>145</ele>
        <time>2023-12-20T09:15:09Z</time>
      </trkpt>
      <trkpt lat="48.64946" lon="1.94887">
        <ele>144.8</ele>
        <time>2023-12-20T09:15:10Z</time>
      </trkpt>
      <trkpt lat="48.64951" lon="1.94883">
        <ele>144.8</ele>
        <time>2023-12-20T09:15:11Z</time>
      </trkpt>
      <trkpt lat="48.64955" lon="1.94878">
        <ele>144.8</ele>
        <time>2023-12-20T09:15:12Z</time>
      </trkpt>
      <trkpt lat="48.6496" lon="1.94874">
        <ele>144.8</ele>
        <time>2023-12-20T09:15:13Z</time>
      </trkpt>
      <trkpt lat="48.64964" lon="1.94869">
        <ele>144.4</ele>
        <time>2023-12-20T09:15:14Z</time>
      </trkpt>
      <trkpt lat="48.64968" lon="1.94864">
        <ele>144.2</ele>
        <time>2023-12-20T09:15:15Z</time>
      </trkpt>
      <trkpt lat="48.64973" lon="1.94859">
        <ele>144.2</ele>
        <time>2023-12-20T09:15:16Z</time>
      </trkpt>
      <trkpt lat="48.64977" lon="1.94854">
        <ele>144.2</ele>
        <time>2023-12-20T09:15:17Z</time>
      </trkpt>
      <trkpt lat="48.64982" lon="1.94848">
        <ele>143.4</ele>
        <time>2023-12-20T09:15:18Z</time>
      </trkpt>
      <trkpt lat="48.64986" lon="1.94843">
        <ele>142.8</ele>
        <time>2023-12-20T09:15:19Z</time>
      </trkpt>
      <trkpt lat="48.64991" lon="1.94839">
        <ele>142.8</ele>
        <time>2023-12-20T09:15:20Z</time>
      </trkpt>
      <trkpt lat="48.64996" lon="1.94834">
        <ele>142.8</ele>
        <time>2023-12-20T09:15:21Z</time>
      </trkpt>
      <trkpt lat="48.65001" lon="1.94828">
        <ele>142.8</ele>
        <time>2023-12-20T09:15:22Z</time>
      </trkpt>
      <trkpt lat="48.65006" lon="1.94821">
        <ele>142</ele>
        <time>2023-12-20T09:15:23Z</time>
      </trkpt>
      <trkpt lat="48.65011" lon="1.94815">
        <ele>142</ele>
        <time>2023-12-20T09:15:24Z</time>
      </trkpt>
      <trkpt lat="48.65015" lon="1.94808">
        <ele>142</ele>
        <time>2023-12-20T09:15:25Z</time>
      </trkpt>
      <trkpt lat="48.65021" lon="1.94803">
        <ele>141</ele>
        <time>2023-12-20T09:15:26Z</time>
      </trkpt>
      <trkpt lat="48.65027" lon="1.94797">
        <ele>140.4</ele>
        <time>2023-12-20T09:15:27Z</time>
      </trkpt>
      <trkpt lat="48.65032" lon="1.9479">
        <ele>140.4</ele>
        <time>2023-12-20T09:15:28Z</time>
      </trkpt>
      <trkpt lat="48.65038" lon="1.94784">
        <ele>140.4</ele>
        <time>2023-12-20T09:15:29Z</time>
      </trkpt>
      <trkpt lat="48.65043" lon="1.94777">
        <ele>139.4</ele>
        <time>2023-12-20T09:15:30Z</time>
      </trkpt>
      <trkpt lat="48.6505" lon="1.94772">
        <ele>138</ele>
        <time>2023-12-20T09:15:31Z</time>
      </trkpt>
      <trkpt lat="48.65056" lon="1.94767">
        <ele>138</ele>
        <time>2023-12-20T09:15:32Z</time>
      </trkpt>
      <trkpt lat="48.65063" lon="1.94761">
        <ele>138</ele>
        <time>2023-12-20T09:15:33Z</time>
      </trkpt>
      <trkpt lat="48.65069" lon="1.94755">
        <ele>137</ele>
        <time>2023-12-20T09:15:34Z</time>
      </trkpt>
      <trkpt lat="48.65076" lon="1.94749">
        <ele>136.2</ele>
        <time>2023-12-20T09:15:35Z</time>
      </trkpt>
      <trkpt lat="48.65083" lon="1.94742">
        <ele>136.2</ele>
        <time>2023-12-20T09:15:36Z</time>
      </trkpt>
      <trkpt lat="48.6509" lon="1.94735">
        <ele>136.2</ele>
        <time>2023-12-20T09:15:37Z</time>
      </trkpt>
      <trkpt lat="48.65097" lon="1.94727">
        <ele>136.2</ele>
        <time>2023-12-20T09:15:38Z</time>
      </trkpt>
      <trkpt lat="48.65104" lon="1.9472">
        <ele>132.8</ele>
        <time>2023-12-20T09:15:39Z</time>
      </trkpt>
      <trkpt lat="48.65111" lon="1.94713">
        <ele>132.8</ele>
        <time>2023-12-20T09:15:40Z</time>
      </trkpt>
      <trkpt lat="48.65118" lon="1.94705">
        <ele>132.8</ele>
        <time>2023-12-20T09:15:41Z</time>
      </trkpt>
      <trkpt lat="48.65124" lon="1.94698">
        <ele>131.8</ele>
        <time>2023-12-20T09:15:42Z</time>
      </trkpt>
      <trkpt lat="48.65131" lon="1.9469">
        <ele>132</ele>
        <time>2023-12-20T09:15:43Z</time>
      </trkpt>
      <trkpt lat="48.65138" lon="1.94682">
        <ele>132</ele>
        <time>2023-12-20T09:15:44Z</time>
      </trkpt>
      <trkpt lat="48.65145" lon="1.94674">
        <ele>132</ele>
        <time>2023-12-20T09:15:45Z</time>
      </trkpt>
      <trkpt lat="48.65151" lon="1.94667">
        <ele>132</ele>
        <time>2023-12-20T09:15:46Z</time>
      </trkpt>
      <trkpt lat="48.65157" lon="1.94659">
        <ele>131.2</ele>
        <time>2023-12-20T09:15:47Z</time>
      </trkpt>
      <trkpt lat="48.65163" lon="1.94652">
        <ele>131.2</ele>
        <time>2023-12-20T09:15:48Z</time>
      </trkpt>
      <trkpt lat="48.65169" lon="1.94647">
        <ele>131.2</ele>
        <time>2023-12-20T09:15:49Z</time>
      </trkpt>
      <trkpt lat="48.65175" lon="1.94641">
        <ele>132.2</ele>
        <time>2023-12-20T09:15:50Z</time>
      </trkpt>
      <trkpt lat="48.6518" lon="1.94633">
        <ele>132.8</ele>
        <time>2023-12-20T09:15:51Z</time>
      </trkpt>
      <trkpt lat="48.65185" lon="1.94626">
        <ele>132.8</ele>
        <time>2023-12-20T09:15:52Z</time>
      </trkpt>
      <trkpt lat="48.6519" lon="1.9462">
        <ele>132.8</ele>
        <time>2023-12-20T09:15:53Z</time>
      </trkpt>
      <trkpt lat="48.65195" lon="1.94612">
        <ele>133.8</ele>
        <time>2023-12-20T09:15:54Z</time>
      </trkpt>
      <trkpt lat="48.65199" lon="1.94604">
        <ele>134.2</ele>
        <time>2023-12-20T09:15:55Z</time>
      </trkpt>
      <trkpt lat="48.65202" lon="1.94596">
        <ele>134.2</ele>
        <time>2023-12-20T09:15:56Z</time>
      </trkpt>
      <trkpt lat="48.65206" lon="1.94587">
        <ele>134.2</ele>
        <time>2023-12-20T09:15:57Z</time>
      </trkpt>
      <trkpt lat="48.65209" lon="1.94579">
        <ele>133.6</ele>
        <time>2023-12-20T09:15:58Z</time>
      </trkpt>
      <trkpt lat="48.65213" lon="1.94572">
        <ele>133.4</ele>
        <time>2023-12-20T09:15:59Z</time>
      </trkpt>
      <trkpt lat="48.65217" lon="1.94564">
        <ele>133.4</ele>
        <time>2023-12-20T09:16:00Z</time>
      </trkpt>
      <trkpt lat="48.6522" lon="1.94556">
        <ele>133.4</ele>
        <time>2023-12-20T09:16:01Z</time>
      </trkpt>
      <trkpt lat="48.65224" lon="1.94548">
        <ele>134</ele>
        <time>2023-12-20T09:16:02Z</time>
      </trkpt>
      <trkpt lat="48.65227" lon="1.9454">
        <ele>134</ele>
        <time>2023-12-20T09:16:03Z</time>
      </trkpt>
      <trkpt lat="48.6523" lon="1.94532">
        <ele>134</ele>
        <time>2023-12-20T09:16:04Z</time>
      </trkpt>
      <trkpt lat="48.65233" lon="1.94524">
        <ele>134</ele>
        <time>2023-12-20T09:16:05Z</time>
      </trkpt>
      <trkpt lat="48.65236" lon="1.94516">
        <ele>134</ele>
        <time>2023-12-20T09:16:06Z</time>
      </trkpt>
      <trkpt lat="48.6524" lon="1.94509">
        <ele>133.8</ele>
        <time>2023-12-20T09:16:07Z</time>
      </trkpt>
      <trkpt lat="48.65243" lon="1.94501">
        <ele>133.8</ele>
        <time>2023-12-20T09:16:08Z</time>
      </trkpt>
      <trkpt lat="48.65246" lon="1.94493">
        <ele>133.8</ele>
        <time>2023-12-20T09:16:09Z</time>
      </trkpt>
      <trkpt lat="48.65249" lon="1.94485">
        <ele>134.2</ele>
        <time>2023-12-20T09:16:10Z</time>
      </trkpt>
      <trkpt lat="48.65252" lon="1.94477">
        <ele>134</ele>
        <time>2023-12-20T09:16:11Z</time>
      </trkpt>
      <trkpt lat="48.65254" lon="1.9447">
        <ele>134</ele>
        <time>2023-12-20T09:16:12Z</time>
      </trkpt>
      <trkpt lat="48.65257" lon="1.94462">
        <ele>134</ele>
        <time>2023-12-20T09:16:13Z</time>
      </trkpt>
      <trkpt lat="48.65259" lon="1.94455">
        <ele>134.4</ele>
        <time>2023-12-20T09:16:14Z</time>
      </trkpt>
      <trkpt lat="48.65263" lon="1.94449">
        <ele>134.4</ele>
        <time>2023-12-20T09:16:15Z</time>
      </trkpt>
      <trkpt lat="48.65265" lon="1.94442">
        <ele>134.4</ele>
        <time>2023-12-20T09:16:16Z</time>
      </trkpt>
      <trkpt lat="48.65268" lon="1.94434">
        <ele>134.4</ele>
        <time>2023-12-20T09:16:17Z</time>
      </trkpt>
      <trkpt lat="48.65271" lon="1.94427">
        <ele>134.4</ele>
        <time>2023-12-20T09:16:18Z</time>
      </trkpt>
      <trkpt lat="48.65273" lon="1.94419">
        <ele>134.4</ele>
        <time>2023-12-20T09:16:19Z</time>
      </trkpt>
      <trkpt lat="48.65276" lon="1.94412">
        <ele>134.4</ele>
        <time>2023-12-20T09:16:20Z</time>
      </trkpt>
      <trkpt lat="48.65279" lon="1.94406">
        <ele>134.4</ele>
        <time>2023-12-20T09:16:21Z</time>
      </trkpt>
      <trkpt lat="48.65282" lon="1.94398">
        <ele>134.2</ele>
        <time>2023-12-20T09:16:22Z</time>
      </trkpt>
      <trkpt lat="48.65286" lon="1.94391">
        <ele>134.6</ele>
        <time>2023-12-20T09:16:23Z</time>
      </trkpt>
      <trkpt lat="48.65288" lon="1.94383">
        <ele>134.6</ele>
        <time>2023-12-20T09:16:24Z</time>
      </trkpt>
      <trkpt lat="48.65291" lon="1.94375">
        <ele>134.6</ele>
        <time>2023-12-20T09:16:25Z</time>
      </trkpt>
      <trkpt lat="48.65294" lon="1.94368">
        <ele>134.6</ele>
        <time>2023-12-20T09:16:26Z</time>
      </trkpt>
      <trkpt lat="48.65298" lon="1.94362">
        <ele>134.8</ele>
        <time>2023-12-20T09:16:27Z</time>
      </trkpt>
      <trkpt lat="48.653" lon="1.94354">
        <ele>134.8</ele>
        <time>2023-12-20T09:16:28Z</time>
      </trkpt>
      <trkpt lat="48.65303" lon="1.94347">
        <ele>134.8</ele>
        <time>2023-12-20T09:16:29Z</time>
      </trkpt>
      <trkpt lat="48.65306" lon="1.9434">
        <ele>135</ele>
        <time>2023-12-20T09:16:30Z</time>
      </trkpt>
      <trkpt lat="48.65309" lon="1.94335">
        <ele>135.4</ele>
        <time>2023-12-20T09:16:31Z</time>
      </trkpt>
      <trkpt lat="48.65312" lon="1.94328">
        <ele>135.4</ele>
        <time>2023-12-20T09:16:32Z</time>
      </trkpt>
      <trkpt lat="48.65314" lon="1.9432">
        <ele>135.4</ele>
        <time>2023-12-20T09:16:33Z</time>
      </trkpt>
      <trkpt lat="48.65317" lon="1.94314">
        <ele>135.4</ele>
        <time>2023-12-20T09:16:34Z</time>
      </trkpt>
      <trkpt lat="48.6532" lon="1.94307">
        <ele>135.4</ele>
        <time>2023-12-20T09:16:35Z</time>
      </trkpt>
      <trkpt lat="48.65323" lon="1.94303">
        <ele>135.4</ele>
        <time>2023-12-20T09:16:36Z</time>
      </trkpt>
      <trkpt lat="48.65326" lon="1.94296">
        <ele>135.4</ele>
        <time>2023-12-20T09:16:37Z</time>
      </trkpt>
      <trkpt lat="48.65329" lon="1.9429">
        <ele>135.4</ele>
        <time>2023-12-20T09:16:38Z</time>
      </trkpt>
      <trkpt lat="48.65332" lon="1.94284">
        <ele>135.6</ele>
        <time>2023-12-20T09:16:39Z</time>
      </trkpt>
      <trkpt lat="48.65335" lon="1.94278">
        <ele>135.6</ele>
        <time>2023-12-20T09:16:40Z</time>
      </trkpt>
      <trkpt lat="48.65338" lon="1.94271">
        <ele>135.6</ele>
        <time>2023-12-20T09:16:41Z</time>
      </trkpt>
      <trkpt lat="48.6534" lon="1.94264">
        <ele>135.6</ele>
        <time>2023-12-20T09:16:42Z</time>
      </trkpt>
      <trkpt lat="48.65343" lon="1.94257">
        <ele>136.2</ele>
        <time>2023-12-20T09:16:43Z</time>
      </trkpt>
      <trkpt lat="48.65346" lon="1.94251">
        <ele>136.2</ele>
        <time>2023-12-20T09:16:44Z</time>
      </trkpt>
      <trkpt lat="48.65348" lon="1.94245">
        <ele>136.2</ele>
        <time>2023-12-20T09:16:45Z</time>
      </trkpt>
      <trkpt lat="48.65351" lon="1.94239">
        <ele>136.4</ele>
        <time>2023-12-20T09:16:46Z</time>
      </trkpt>
      <trkpt lat="48.65354" lon="1.94233">
        <ele>136.8</ele>
        <time>2023-12-20T09:16:47Z</time>
      </trkpt>
      <trkpt lat="48.65356" lon="1.94228">
        <ele>136.8</ele>
        <time>2023-12-20T09:16:48Z</time>
      </trkpt>
      <trkpt lat="48.65358" lon="1.94222">
        <ele>136.8</ele>
        <time>2023-12-20T09:16:49Z</time>
      </trkpt>
      <trkpt lat="48.65361" lon="1.94219">
        <ele>136.8</ele>
        <time>2023-12-20T09:16:50Z</time>
      </trkpt>
      <trkpt lat="48.65364" lon="1.94213">
        <ele>137.6</ele>
        <time>2023-12-20T09:16:51Z</time>
      </trkpt>
      <trkpt lat="48.65366" lon="1.94207">
        <ele>137.6</ele>
        <time>2023-12-20T09:16:52Z</time>
      </trkpt>
      <trkpt lat="48.65368" lon="1.942">
        <ele>137.6</ele>
        <time>2023-12-20T09:16:53Z</time>
      </trkpt>
      <trkpt lat="48.6537" lon="1.94193">
        <ele>137.6</ele>
        <time>2023-12-20T09:16:54Z</time>
      </trkpt>
      <trkpt lat="48.65373" lon="1.94186">
        <ele>138</ele>
        <time>2023-12-20T09:16:55Z</time>
      </trkpt>
      <trkpt lat="48.65376" lon="1.9418">
        <ele>138</ele>
        <time>2023-12-20T09:16:56Z</time>
      </trkpt>
      <trkpt lat="48.65378" lon="1.94172">
        <ele>138</ele>
        <time>2023-12-20T09:16:57Z</time>
      </trkpt>
      <trkpt lat="48.65381" lon="1.94166">
        <ele>137.8</ele>
        <time>2023-12-20T09:16:58Z</time>
      </trkpt>
      <trkpt lat="48.65383" lon="1.94158">
        <ele>138.4</ele>
        <time>2023-12-20T09:16:59Z</time>
      </trkpt>
      <trkpt lat="48.65386" lon="1.94153">
        <ele>138.4</ele>
        <time>2023-12-20T09:17:00Z</time>
      </trkpt>
      <trkpt lat="48.65389" lon="1.94147">
        <ele>138.4</ele>
        <time>2023-12-20T09:17:01Z</time>
      </trkpt>
      <trkpt lat="48.65392" lon="1.94141">
        <ele>138.4</ele>
        <time>2023-12-20T09:17:02Z</time>
      </trkpt>
      <trkpt lat="48.65394" lon="1.94135">
        <ele>139.2</ele>
        <time>2023-12-20T09:17:03Z</time>
      </trkpt>
      <trkpt lat="48.65398" lon="1.9413">
        <ele>139.2</ele>
        <time>2023-12-20T09:17:04Z</time>
      </trkpt>
      <trkpt lat="48.65401" lon="1.94125">
        <ele>139.2</ele>
        <time>2023-12-20T09:17:05Z</time>
      </trkpt>
      <trkpt lat="48.65404" lon="1.9412">
        <ele>139.4</ele>
        <time>2023-12-20T09:17:06Z</time>
      </trkpt>
      <trkpt lat="48.65408" lon="1.94115">
        <ele>139.4</ele>
        <time>2023-12-20T09:17:07Z</time>
      </trkpt>
      <trkpt lat="48.65411" lon="1.9411">
        <ele>139.4</ele>
        <time>2023-12-20T09:17:08Z</time>
      </trkpt>
      <trkpt lat="48.65415" lon="1.94106">
        <ele>139.4</ele>
        <time>2023-12-20T09:17:09Z</time>
      </trkpt>
      <trkpt lat="48.65419" lon="1.94101">
        <ele>139.6</ele>
        <time>2023-12-20T09:17:10Z</time>
      </trkpt>
      <trkpt lat="48.65423" lon="1.94096">
        <ele>139.6</ele>
        <time>2023-12-20T09:17:11Z</time>
      </trkpt>
      <trkpt lat="48.65426" lon="1.9409">
        <ele>139.6</ele>
        <time>2023-12-20T09:17:12Z</time>
      </trkpt>
      <trkpt lat="48.65429" lon="1.94084">
        <ele>139.6</ele>
        <time>2023-12-20T09:17:13Z</time>
      </trkpt>
      <trkpt lat="48.65432" lon="1.94078">
        <ele>140.2</ele>
        <time>2023-12-20T09:17:14Z</time>
      </trkpt>
      <trkpt lat="48.65435" lon="1.94073">
        <ele>140.4</ele>
        <time>2023-12-20T09:17:15Z</time>
      </trkpt>
      <trkpt lat="48.6544" lon="1.94069">
        <ele>140.4</ele>
        <time>2023-12-20T09:17:16Z</time>
      </trkpt>
      <trkpt lat="48.65443" lon="1.94064">
        <ele>140.4</ele>
        <time>2023-12-20T09:17:17Z</time>
      </trkpt>
      <trkpt lat="48.65447" lon="1.94059">
        <ele>139.8</ele>
        <time>2023-12-20T09:17:18Z</time>
      </trkpt>
      <trkpt lat="48.6545" lon="1.94054">
        <ele>140.2</ele>
        <time>2023-12-20T09:17:19Z</time>
      </trkpt>
      <trkpt lat="48.65454" lon="1.9405">
        <ele>140.2</ele>
        <time>2023-12-20T09:17:20Z</time>
      </trkpt>
      <trkpt lat="48.65458" lon="1.94047">
        <ele>140.2</ele>
        <time>2023-12-20T09:17:21Z</time>
      </trkpt>
      <trkpt lat="48.65462" lon="1.94043">
        <ele>140.6</ele>
        <time>2023-12-20T09:17:22Z</time>
      </trkpt>
      <trkpt lat="48.65466" lon="1.9404">
        <ele>140.4</ele>
        <time>2023-12-20T09:17:23Z</time>
      </trkpt>
      <trkpt lat="48.65469" lon="1.94037">
        <ele>140.4</ele>
        <time>2023-12-20T09:17:24Z</time>
      </trkpt>
      <trkpt lat="48.65471" lon="1.94033">
        <ele>140.4</ele>
        <time>2023-12-20T09:17:25Z</time>
      </trkpt>
      <trkpt lat="48.65476" lon="1.9403">
        <ele>140.4</ele>
        <time>2023-12-20T09:17:26Z</time>
      </trkpt>
      <trkpt lat="48.6548" lon="1.94027">
        <ele>139.6</ele>
        <time>2023-12-20T09:17:27Z</time>
      </trkpt>
      <trkpt lat="48.65484" lon="1.94024">
        <ele>139.6</ele>
        <time>2023-12-20T09:17:28Z</time>
      </trkpt>
      <trkpt lat="48.65487" lon="1.9402">
        <ele>139.6</ele>
        <time>2023-12-20T09:17:29Z</time>
      </trkpt>
      <trkpt lat="48.65491" lon="1.94016">
        <ele>139.6</ele>
        <time>2023-12-20T09:17:30Z</time>
      </trkpt>
      <trkpt lat="48.65496" lon="1.94012">
        <ele>138.6</ele>
        <time>2023-12-20T09:17:31Z</time>
      </trkpt>
      <trkpt lat="48.65502" lon="1.94009">
        <ele>138.6</ele>
        <time>2023-12-20T09:17:32Z</time>
      </trkpt>
      <trkpt lat="48.65507" lon="1.94007">
        <ele>138.6</ele>
        <time>2023-12-20T09:17:33Z</time>
      </trkpt>
      <trkpt lat="48.65512" lon="1.94004">
        <ele>138.2</ele>
        <time>2023-12-20T09:17:34Z</time>
      </trkpt>
      <trkpt lat="48.65518" lon="1.94">
        <ele>138.4</ele>
        <time>2023-12-20T09:17:35Z</time>
      </trkpt>
      <trkpt lat="48.65523" lon="1.93997">
        <ele>138.4</ele>
        <time>2023-12-20T09:17:36Z</time>
      </trkpt>
      <trkpt lat="48.6553" lon="1.93996">
        <ele>138.4</ele>
        <time>2023-12-20T09:17:37Z</time>
      </trkpt>
      <trkpt lat="48.65536" lon="1.93994">
        <ele>138</ele>
        <time>2023-12-20T09:17:38Z</time>
      </trkpt>
      <trkpt lat="48.65541" lon="1.93991">
        <ele>137.4</ele>
        <time>2023-12-20T09:17:39Z</time>
      </trkpt>
      <trkpt lat="48.65546" lon="1.93989">
        <ele>137.4</ele>
        <time>2023-12-20T09:17:40Z</time>
      </trkpt>
      <trkpt lat="48.65552" lon="1.93987">
        <ele>137.4</ele>
        <time>2023-12-20T09:17:41Z</time>
      </trkpt>
      <trkpt lat="48.65558" lon="1.93985">
        <ele>137.4</ele>
        <time>2023-12-20T09:17:42Z</time>
      </trkpt>
      <trkpt lat="48.65564" lon="1.93982">
        <ele>137.6</ele>
        <time>2023-12-20T09:17:43Z</time>
      </trkpt>
      <trkpt lat="48.6557" lon="1.93979">
        <ele>137.6</ele>
        <time>2023-12-20T09:17:44Z</time>
      </trkpt>
      <trkpt lat="48.65575" lon="1.93975">
        <ele>137.6</ele>
        <time>2023-12-20T09:17:45Z</time>
      </trkpt>
      <trkpt lat="48.65579" lon="1.93972">
        <ele>138.6</ele>
        <time>2023-12-20T09:17:46Z</time>
      </trkpt>
      <trkpt lat="48.65584" lon="1.93968">
        <ele>139.4</ele>
        <time>2023-12-20T09:17:47Z</time>
      </trkpt>
      <trkpt lat="48.65589" lon="1.93965">
        <ele>139.4</ele>
        <time>2023-12-20T09:17:48Z</time>
      </trkpt>
      <trkpt lat="48.65592" lon="1.93961">
        <ele>139.4</ele>
        <time>2023-12-20T09:17:49Z</time>
      </trkpt>
      <trkpt lat="48.65594" lon="1.93957">
        <ele>140.2</ele>
        <time>2023-12-20T09:17:50Z</time>
      </trkpt>
      <trkpt lat="48.65596" lon="1.93953">
        <ele>140.6</ele>
        <time>2023-12-20T09:17:51Z</time>
      </trkpt>
      <trkpt lat="48.656" lon="1.93948">
        <ele>140.6</ele>
        <time>2023-12-20T09:17:52Z</time>
      </trkpt>
      <trkpt lat="48.65603" lon="1.93944">
        <ele>140.6</ele>
        <time>2023-12-20T09:17:53Z</time>
      </trkpt>
      <trkpt lat="48.65606" lon="1.93941">
        <ele>140.6</ele>
        <time>2023-12-20T09:17:54Z</time>
      </trkpt>
      <trkpt lat="48.65609" lon="1.93937">
        <ele>140.8</ele>
        <time>2023-12-20T09:17:55Z</time>
      </trkpt>
      <trkpt lat="48.65611" lon="1.93933">
        <ele>140.8</ele>
        <time>2023-12-20T09:17:56Z</time>
      </trkpt>
      <trkpt lat="48.65613" lon="1.93929">
        <ele>140.8</ele>
        <time>2023-12-20T09:17:57Z</time>
      </trkpt>
      <trkpt lat="48.65615" lon="1.93924">
        <ele>141.6</ele>
        <time>2023-12-20T09:17:58Z</time>
      </trkpt>
      <trkpt lat="48.65617" lon="1.93919">
        <ele>142</ele>
        <time>2023-12-20T09:17:59Z</time>
      </trkpt>
      <trkpt lat="48.65618" lon="1.93915">
        <ele>142</ele>
        <time>2023-12-20T09:18:00Z</time>
      </trkpt>
      <trkpt lat="48.65619" lon="1.93909">
        <ele>142</ele>
        <time>2023-12-20T09:18:01Z</time>
      </trkpt>
      <trkpt lat="48.65621" lon="1.93905">
        <ele>142.8</ele>
        <time>2023-12-20T09:18:02Z</time>
      </trkpt>
      <trkpt lat="48.65624" lon="1.93901">
        <ele>143</ele>
        <time>2023-12-20T09:18:03Z</time>
      </trkpt>
      <trkpt lat="48.65627" lon="1.93896">
        <ele>143</ele>
        <time>2023-12-20T09:18:04Z</time>
      </trkpt>
      <trkpt lat="48.6563" lon="1.93891">
        <ele>143</ele>
        <time>2023-12-20T09:18:05Z</time>
      </trkpt>
      <trkpt lat="48.65632" lon="1.93886">
        <ele>143.2</ele>
        <time>2023-12-20T09:18:06Z</time>
      </trkpt>
      <trkpt lat="48.65635" lon="1.9388">
        <ele>143.4</ele>
        <time>2023-12-20T09:18:07Z</time>
      </trkpt>
      <trkpt lat="48.65637" lon="1.93874">
        <ele>143.4</ele>
        <time>2023-12-20T09:18:08Z</time>
      </trkpt>
      <trkpt lat="48.65638" lon="1.93868">
        <ele>143.4</ele>
        <time>2023-12-20T09:18:09Z</time>
      </trkpt>
      <trkpt lat="48.6564" lon="1.93864">
        <ele>143.8</ele>
        <time>2023-12-20T09:18:10Z</time>
      </trkpt>
      <trkpt lat="48.65643" lon="1.93859">
        <ele>143.8</ele>
        <time>2023-12-20T09:18:11Z</time>
      </trkpt>
      <trkpt lat="48.65644" lon="1.93855">
        <ele>143.8</ele>
        <time>2023-12-20T09:18:12Z</time>
      </trkpt>
      <trkpt lat="48.65646" lon="1.93849">
        <ele>143.8</ele>
        <time>2023-12-20T09:18:13Z</time>
      </trkpt>
      <trkpt lat="48.65647" lon="1.93843">
        <ele>144.4</ele>
        <time>2023-12-20T09:18:14Z</time>
      </trkpt>
      <trkpt lat="48.65649" lon="1.93838">
        <ele>144.8</ele>
        <time>2023-12-20T09:18:15Z</time>
      </trkpt>
      <trkpt lat="48.6565" lon="1.93832">
        <ele>144.8</ele>
        <time>2023-12-20T09:18:16Z</time>
      </trkpt>
      <trkpt lat="48.65652" lon="1.93828">
        <ele>144.8</ele>
        <time>2023-12-20T09:18:17Z</time>
      </trkpt>
      <trkpt lat="48.65653" lon="1.93822">
        <ele>144.8</ele>
        <time>2023-12-20T09:18:18Z</time>
      </trkpt>
      <trkpt lat="48.65655" lon="1.93818">
        <ele>145.4</ele>
        <time>2023-12-20T09:18:19Z</time>
      </trkpt>
      <trkpt lat="48.65658" lon="1.93812">
        <ele>145.4</ele>
        <time>2023-12-20T09:18:20Z</time>
      </trkpt>
      <trkpt lat="48.6566" lon="1.93808">
        <ele>145.4</ele>
        <time>2023-12-20T09:18:21Z</time>
      </trkpt>
      <trkpt lat="48.65661" lon="1.93803">
        <ele>146</ele>
        <time>2023-12-20T09:18:22Z</time>
      </trkpt>
      <trkpt lat="48.65664" lon="1.93799">
        <ele>145.8</ele>
        <time>2023-12-20T09:18:23Z</time>
      </trkpt>
      <trkpt lat="48.65665" lon="1.93794">
        <ele>145.8</ele>
        <time>2023-12-20T09:18:24Z</time>
      </trkpt>
      <trkpt lat="48.65667" lon="1.93789">
        <ele>145.8</ele>
        <time>2023-12-20T09:18:25Z</time>
      </trkpt>
      <trkpt lat="48.65669" lon="1.93784">
        <ele>146.8</ele>
        <time>2023-12-20T09:18:26Z</time>
      </trkpt>
      <trkpt lat="48.65671" lon="1.9378">
        <ele>147</ele>
        <time>2023-12-20T09:18:27Z</time>
      </trkpt>
      <trkpt lat="48.65673" lon="1.93776">
        <ele>147</ele>
        <time>2023-12-20T09:18:28Z</time>
      </trkpt>
      <trkpt lat="48.65675" lon="1.93771">
        <ele>147</ele>
        <time>2023-12-20T09:18:29Z</time>
      </trkpt>
      <trkpt lat="48.65677" lon="1.93766">
        <ele>147</ele>
        <time>2023-12-20T09:18:30Z</time>
      </trkpt>
      <trkpt lat="48.65679" lon="1.93762">
        <ele>147.2</ele>
        <time>2023-12-20T09:18:31Z</time>
      </trkpt>
      <trkpt lat="48.65681" lon="1.93757">
        <ele>147.2</ele>
        <time>2023-12-20T09:18:32Z</time>
      </trkpt>
      <trkpt lat="48.65683" lon="1.93754">
        <ele>147.2</ele>
        <time>2023-12-20T09:18:33Z</time>
      </trkpt>
      <trkpt lat="48.65685" lon="1.93749">
        <ele>147.8</ele>
        <time>2023-12-20T09:18:34Z</time>
      </trkpt>
      <trkpt lat="48.65688" lon="1.93745">
        <ele>148.2</ele>
        <time>2023-12-20T09:18:35Z</time>
      </trkpt>
      <trkpt lat="48.65689" lon="1.93741">
        <ele>148.2</ele>
        <time>2023-12-20T09:18:36Z</time>
      </trkpt>
      <trkpt lat="48.65692" lon="1.93738">
        <ele>148.2</ele>
        <time>2023-12-20T09:18:37Z</time>
      </trkpt>
      <trkpt lat="48.65694" lon="1.93733">
        <ele>148.2</ele>
        <time>2023-12-20T09:18:38Z</time>
      </trkpt>
      <trkpt lat="48.65696" lon="1.93729">
        <ele>148.4</ele>
        <time>2023-12-20T09:18:39Z</time>
      </trkpt>
      <trkpt lat="48.65698" lon="1.93725">
        <ele>148.4</ele>
        <time>2023-12-20T09:18:40Z</time>
      </trkpt>
      <trkpt lat="48.657" lon="1.93721">
        <ele>148.4</ele>
        <time>2023-12-20T09:18:41Z</time>
      </trkpt>
      <trkpt lat="48.65702" lon="1.93717">
        <ele>149.4</ele>
        <time>2023-12-20T09:18:42Z</time>
      </trkpt>
      <trkpt lat="48.65705" lon="1.93714">
        <ele>149.8</ele>
        <time>2023-12-20T09:18:43Z</time>
      </trkpt>
      <trkpt lat="48.65707" lon="1.93709">
        <ele>149.8</ele>
        <time>2023-12-20T09:18:44Z</time>
      </trkpt>
      <trkpt lat="48.65709" lon="1.93705">
        <ele>149.8</ele>
        <time>2023-12-20T09:18:45Z</time>
      </trkpt>
      <trkpt lat="48.65711" lon="1.93702">
        <ele>150.4</ele>
        <time>2023-12-20T09:18:46Z</time>
      </trkpt>
      <trkpt lat="48.65713" lon="1.93697">
        <ele>150.4</ele>
        <time>2023-12-20T09:18:47Z</time>
      </trkpt>
      <trkpt lat="48.65715" lon="1.93693">
        <ele>150.4</ele>
        <time>2023-12-20T09:18:48Z</time>
      </trkpt>
      <trkpt lat="48.65717" lon="1.93689">
        <ele>150.4</ele>
        <time>2023-12-20T09:18:49Z</time>
      </trkpt>
      <trkpt lat="48.65719" lon="1.93685">
        <ele>150.4</ele>
        <time>2023-12-20T09:18:50Z</time>
      </trkpt>
      <trkpt lat="48.65721" lon="1.9368">
        <ele>150.8</ele>
        <time>2023-12-20T09:18:51Z</time>
      </trkpt>
      <trkpt lat="48.65723" lon="1.93676">
        <ele>150.8</ele>
        <time>2023-12-20T09:18:52Z</time>
      </trkpt>
      <trkpt lat="48.65725" lon="1.93672">
        <ele>150.8</ele>
        <time>2023-12-20T09:18:53Z</time>
      </trkpt>
      <trkpt lat="48.65727" lon="1.93667">
        <ele>151.6</ele>
        <time>2023-12-20T09:18:54Z</time>
      </trkpt>
      <trkpt lat="48.65729" lon="1.93663">
        <ele>152</ele>
        <time>2023-12-20T09:18:55Z</time>
      </trkpt>
      <trkpt lat="48.65731" lon="1.93658">
        <ele>152</ele>
        <time>2023-12-20T09:18:56Z</time>
      </trkpt>
      <trkpt lat="48.65734" lon="1.93654">
        <ele>152</ele>
        <time>2023-12-20T09:18:57Z</time>
      </trkpt>
      <trkpt lat="48.65735" lon="1.9365">
        <ele>152</ele>
        <time>2023-12-20T09:18:58Z</time>
      </trkpt>
      <trkpt lat="48.65737" lon="1.93647">
        <ele>152.6</ele>
        <time>2023-12-20T09:18:59Z</time>
      </trkpt>
      <trkpt lat="48.6574" lon="1.93642">
        <ele>152.6</ele>
        <time>2023-12-20T09:19:00Z</time>
      </trkpt>
      <trkpt lat="48.65742" lon="1.9364">
        <ele>152.6</ele>
        <time>2023-12-20T09:19:01Z</time>
      </trkpt>
      <trkpt lat="48.65744" lon="1.93636">
        <ele>152.6</ele>
        <time>2023-12-20T09:19:02Z</time>
      </trkpt>
      <trkpt lat="48.65747" lon="1.93633">
        <ele>153.2</ele>
        <time>2023-12-20T09:19:03Z</time>
      </trkpt>
      <trkpt lat="48.6575" lon="1.9363">
        <ele>153.2</ele>
        <time>2023-12-20T09:19:04Z</time>
      </trkpt>
      <trkpt lat="48.65752" lon="1.93626">
        <ele>153.2</ele>
        <time>2023-12-20T09:19:05Z</time>
      </trkpt>
      <trkpt lat="48.65755" lon="1.93623">
        <ele>154.2</ele>
        <time>2023-12-20T09:19:06Z</time>
      </trkpt>
      <trkpt lat="48.65758" lon="1.93619">
        <ele>154.6</ele>
        <time>2023-12-20T09:19:07Z</time>
      </trkpt>
      <trkpt lat="48.6576" lon="1.93612">
        <ele>154.6</ele>
        <time>2023-12-20T09:19:08Z</time>
      </trkpt>
      <trkpt lat="48.65762" lon="1.93608">
        <ele>154.6</ele>
        <time>2023-12-20T09:19:09Z</time>
      </trkpt>
      <trkpt lat="48.65765" lon="1.93605">
        <ele>154.6</ele>
        <time>2023-12-20T09:19:10Z</time>
      </trkpt>
      <trkpt lat="48.65769" lon="1.93602">
        <ele>155.4</ele>
        <time>2023-12-20T09:19:11Z</time>
      </trkpt>
      <trkpt lat="48.65772" lon="1.936">
        <ele>155.4</ele>
        <time>2023-12-20T09:19:12Z</time>
      </trkpt>
      <trkpt lat="48.65775" lon="1.93594">
        <ele>155.4</ele>
        <time>2023-12-20T09:19:13Z</time>
      </trkpt>
      <trkpt lat="48.65777" lon="1.93591">
        <ele>156.2</ele>
        <time>2023-12-20T09:19:14Z</time>
      </trkpt>
      <trkpt lat="48.6578" lon="1.93586">
        <ele>156.2</ele>
        <time>2023-12-20T09:19:15Z</time>
      </trkpt>
      <trkpt lat="48.65783" lon="1.93582">
        <ele>156.2</ele>
        <time>2023-12-20T09:19:16Z</time>
      </trkpt>
      <trkpt lat="48.65786" lon="1.9358">
        <ele>156.2</ele>
        <time>2023-12-20T09:19:17Z</time>
      </trkpt>
      <trkpt lat="48.65789" lon="1.93578">
        <ele>156.2</ele>
        <time>2023-12-20T09:19:18Z</time>
      </trkpt>
      <trkpt lat="48.65792" lon="1.93575">
        <ele>156.6</ele>
        <time>2023-12-20T09:19:19Z</time>
      </trkpt>
      <trkpt lat="48.65795" lon="1.93572">
        <ele>156.6</ele>
        <time>2023-12-20T09:19:20Z</time>
      </trkpt>
      <trkpt lat="48.65798" lon="1.93569">
        <ele>156.6</ele>
        <time>2023-12-20T09:19:21Z</time>
      </trkpt>
      <trkpt lat="48.65802" lon="1.93566">
        <ele>157.6</ele>
        <time>2023-12-20T09:19:22Z</time>
      </trkpt>
      <trkpt lat="48.65805" lon="1.93564">
        <ele>157.8</ele>
        <time>2023-12-20T09:19:23Z</time>
      </trkpt>
      <trkpt lat="48.65808" lon="1.93561">
        <ele>157.8</ele>
        <time>2023-12-20T09:19:24Z</time>
      </trkpt>
      <trkpt lat="48.65811" lon="1.93559">
        <ele>157.8</ele>
        <time>2023-12-20T09:19:25Z</time>
      </trkpt>
      <trkpt lat="48.65815" lon="1.93556">
        <ele>158.4</ele>
        <time>2023-12-20T09:19:26Z</time>
      </trkpt>
      <trkpt lat="48.65817" lon="1.93554">
        <ele>159.2</ele>
        <time>2023-12-20T09:19:27Z</time>
      </trkpt>
      <trkpt lat="48.6582" lon="1.93551">
        <ele>159.2</ele>
        <time>2023-12-20T09:19:28Z</time>
      </trkpt>
      <trkpt lat="48.65824" lon="1.93549">
        <ele>159.2</ele>
        <time>2023-12-20T09:19:29Z</time>
      </trkpt>
      <trkpt lat="48.65827" lon="1.93547">
        <ele>159.2</ele>
        <time>2023-12-20T09:19:30Z</time>
      </trkpt>
      <trkpt lat="48.6583" lon="1.93545">
        <ele>159.6</ele>
        <time>2023-12-20T09:19:31Z</time>
      </trkpt>
      <trkpt lat="48.65833" lon="1.93543">
        <ele>159.6</ele>
        <time>2023-12-20T09:19:32Z</time>
      </trkpt>
      <trkpt lat="48.65835" lon="1.9354">
        <ele>159.6</ele>
        <time>2023-12-20T09:19:33Z</time>
      </trkpt>
      <trkpt lat="48.65838" lon="1.93538">
        <ele>159.6</ele>
        <time>2023-12-20T09:19:34Z</time>
      </trkpt>
      <trkpt lat="48.65841" lon="1.93536">
        <ele>160.2</ele>
        <time>2023-12-20T09:19:35Z</time>
      </trkpt>
      <trkpt lat="48.65844" lon="1.93533">
        <ele>160.2</ele>
        <time>2023-12-20T09:19:36Z</time>
      </trkpt>
      <trkpt lat="48.65847" lon="1.93531">
        <ele>160.2</ele>
        <time>2023-12-20T09:19:37Z</time>
      </trkpt>
      <trkpt lat="48.65851" lon="1.93528">
        <ele>160.6</ele>
        <time>2023-12-20T09:19:38Z</time>
      </trkpt>
      <trkpt lat="48.65854" lon="1.93525">
        <ele>160.8</ele>
        <time>2023-12-20T09:19:39Z</time>
      </trkpt>
      <trkpt lat="48.65858" lon="1.93523">
        <ele>160.8</ele>
        <time>2023-12-20T09:19:40Z</time>
      </trkpt>
      <trkpt lat="48.65862" lon="1.9352">
        <ele>160.8</ele>
        <time>2023-12-20T09:19:41Z</time>
      </trkpt>
      <trkpt lat="48.65865" lon="1.93516">
        <ele>160.6</ele>
        <time>2023-12-20T09:19:42Z</time>
      </trkpt>
      <trkpt lat="48.65869" lon="1.93514">
        <ele>160.6</ele>
        <time>2023-12-20T09:19:43Z</time>
      </trkpt>
      <trkpt lat="48.65871" lon="1.93512">
        <ele>160.6</ele>
        <time>2023-12-20T09:19:44Z</time>
      </trkpt>
      <trkpt lat="48.65874" lon="1.93509">
        <ele>160.6</ele>
        <time>2023-12-20T09:19:45Z</time>
      </trkpt>
      <trkpt lat="48.65878" lon="1.93506">
        <ele>161</ele>
        <time>2023-12-20T09:19:46Z</time>
      </trkpt>
      <trkpt lat="48.65882" lon="1.93503">
        <ele>160.8</ele>
        <time>2023-12-20T09:19:47Z</time>
      </trkpt>
      <trkpt lat="48.65884" lon="1.93501">
        <ele>160.8</ele>
        <time>2023-12-20T09:19:48Z</time>
      </trkpt>
      <trkpt lat="48.65887" lon="1.93498">
        <ele>160.8</ele>
        <time>2023-12-20T09:19:49Z</time>
      </trkpt>
      <trkpt lat="48.65889" lon="1.93495">
        <ele>161.2</ele>
        <time>2023-12-20T09:19:50Z</time>
      </trkpt>
      <trkpt lat="48.65893" lon="1.93491">
        <ele>161.2</ele>
        <time>2023-12-20T09:19:51Z</time>
      </trkpt>
      <trkpt lat="48.65896" lon="1.93487">
        <ele>161.2</ele>
        <time>2023-12-20T09:19:52Z</time>
      </trkpt>
      <trkpt lat="48.65899" lon="1.93484">
        <ele>161.2</ele>
        <time>2023-12-20T09:19:53Z</time>
      </trkpt>
      <trkpt lat="48.65902" lon="1.9348">
        <ele>161.2</ele>
        <time>2023-12-20T09:19:54Z</time>
      </trkpt>
      <trkpt lat="48.65905" lon="1.93475">
        <ele>161.2</ele>
        <time>2023-12-20T09:19:55Z</time>
      </trkpt>
      <trkpt lat="48.65908" lon="1.93472">
        <ele>161.2</ele>
        <time>2023-12-20T09:19:56Z</time>
      </trkpt>
      <trkpt lat="48.65911" lon="1.93468">
        <ele>161.2</ele>
        <time>2023-12-20T09:19:57Z</time>
      </trkpt>
      <trkpt lat="48.65914" lon="1.93465">
        <ele>161.2</ele>
        <time>2023-12-20T09:19:58Z</time>
      </trkpt>
      <trkpt lat="48.65917" lon="1.93461">
        <ele>160.6</ele>
        <time>2023-12-20T09:19:59Z</time>
      </trkpt>
      <trkpt lat="48.65919" lon="1.93456">
        <ele>160.6</ele>
        <time>2023-12-20T09:20:00Z</time>
      </trkpt>
      <trkpt lat="48.65922" lon="1.93452">
        <ele>160.6</ele>
        <time>2023-12-20T09:20:01Z</time>
      </trkpt>
      <trkpt lat="48.65925" lon="1.93448">
        <ele>161.2</ele>
        <time>2023-12-20T09:20:02Z</time>
      </trkpt>
      <trkpt lat="48.6593" lon="1.93443">
        <ele>161.2</ele>
        <time>2023-12-20T09:20:03Z</time>
      </trkpt>
      <trkpt lat="48.65934" lon="1.93439">
        <ele>161.2</ele>
        <time>2023-12-20T09:20:04Z</time>
      </trkpt>
      <trkpt lat="48.65938" lon="1.93434">
        <ele>161.2</ele>
        <time>2023-12-20T09:20:05Z</time>
      </trkpt>
      <trkpt lat="48.65941" lon="1.9343">
        <ele>161.2</ele>
        <time>2023-12-20T09:20:06Z</time>
      </trkpt>
      <trkpt lat="48.65944" lon="1.93425">
        <ele>161.4</ele>
        <time>2023-12-20T09:20:07Z</time>
      </trkpt>
      <trkpt lat="48.65948" lon="1.9342">
        <ele>161.4</ele>
        <time>2023-12-20T09:20:08Z</time>
      </trkpt>
      <trkpt lat="48.65952" lon="1.93415">
        <ele>161.4</ele>
        <time>2023-12-20T09:20:09Z</time>
      </trkpt>
      <trkpt lat="48.65956" lon="1.93411">
        <ele>162</ele>
        <time>2023-12-20T09:20:10Z</time>
      </trkpt>
      <trkpt lat="48.65961" lon="1.93406">
        <ele>162</ele>
        <time>2023-12-20T09:20:11Z</time>
      </trkpt>
      <trkpt lat="48.65965" lon="1.93402">
        <ele>162</ele>
        <time>2023-12-20T09:20:12Z</time>
      </trkpt>
      <trkpt lat="48.65969" lon="1.93397">
        <ele>162</ele>
        <time>2023-12-20T09:20:13Z</time>
      </trkpt>
      <trkpt lat="48.65974" lon="1.93393">
        <ele>161.6</ele>
        <time>2023-12-20T09:20:14Z</time>
      </trkpt>
      <trkpt lat="48.65979" lon="1.93389">
        <ele>161.8</ele>
        <time>2023-12-20T09:20:15Z</time>
      </trkpt>
      <trkpt lat="48.65984" lon="1.93386">
        <ele>161.8</ele>
        <time>2023-12-20T09:20:16Z</time>
      </trkpt>
      <trkpt lat="48.65989" lon="1.93383">
        <ele>161.8</ele>
        <time>2023-12-20T09:20:17Z</time>
      </trkpt>
      <trkpt lat="48.65993" lon="1.9338">
        <ele>161.8</ele>
        <time>2023-12-20T09:20:18Z</time>
      </trkpt>
      <trkpt lat="48.65998" lon="1.93377">
        <ele>162</ele>
        <time>2023-12-20T09:20:19Z</time>
      </trkpt>
      <trkpt lat="48.66003" lon="1.93374">
        <ele>162</ele>
        <time>2023-12-20T09:20:20Z</time>
      </trkpt>
      <trkpt lat="48.66007" lon="1.93372">
        <ele>162</ele>
        <time>2023-12-20T09:20:21Z</time>
      </trkpt>
      <trkpt lat="48.66011" lon="1.93369">
        <ele>161.8</ele>
        <time>2023-12-20T09:20:22Z</time>
      </trkpt>
      <trkpt lat="48.66016" lon="1.93367">
        <ele>162</ele>
        <time>2023-12-20T09:20:23Z</time>
      </trkpt>
      <trkpt lat="48.66021" lon="1.93364">
        <ele>162</ele>
        <time>2023-12-20T09:20:24Z</time>
      </trkpt>
      <trkpt lat="48.66027" lon="1.93361">
        <ele>162</ele>
        <time>2023-12-20T09:20:25Z</time>
      </trkpt>
      <trkpt lat="48.66032" lon="1.93358">
        <ele>162</ele>
        <time>2023-12-20T09:20:26Z</time>
      </trkpt>
      <trkpt lat="48.66038" lon="1.93356">
        <ele>162.2</ele>
        <time>2023-12-20T09:20:27Z</time>
      </trkpt>
      <trkpt lat="48.66043" lon="1.93354">
        <ele>162.2</ele>
        <time>2023-12-20T09:20:28Z</time>
      </trkpt>
      <trkpt lat="48.66048" lon="1.93351">
        <ele>162.2</ele>
        <time>2023-12-20T09:20:29Z</time>
      </trkpt>
      <trkpt lat="48.66053" lon="1.93349">
        <ele>162</ele>
        <time>2023-12-20T09:20:30Z</time>
      </trkpt>
      <trkpt lat="48.66058" lon="1.93346">
        <ele>162.2</ele>
        <time>2023-12-20T09:20:31Z</time>
      </trkpt>
      <trkpt lat="48.66063" lon="1.93344">
        <ele>162.2</ele>
        <time>2023-12-20T09:20:32Z</time>
      </trkpt>
      <trkpt lat="48.66068" lon="1.93342">
        <ele>162.2</ele>
        <time>2023-12-20T09:20:33Z</time>
      </trkpt>
      <trkpt lat="48.66073" lon="1.9334">
        <ele>162.2</ele>
        <time>2023-12-20T09:20:34Z</time>
      </trkpt>
      <trkpt lat="48.66078" lon="1.93338">
        <ele>162</ele>
        <time>2023-12-20T09:20:35Z</time>
      </trkpt>
      <trkpt lat="48.66083" lon="1.93335">
        <ele>162</ele>
        <time>2023-12-20T09:20:36Z</time>
      </trkpt>
      <trkpt lat="48.66087" lon="1.93333">
        <ele>162</ele>
        <time>2023-12-20T09:20:37Z</time>
      </trkpt>
      <trkpt lat="48.66092" lon="1.93331">
        <ele>162</ele>
        <time>2023-12-20T09:20:38Z</time>
      </trkpt>
      <trkpt lat="48.66096" lon="1.93328">
        <ele>162.2</ele>
        <time>2023-12-20T09:20:39Z</time>
      </trkpt>
      <trkpt lat="48.66098" lon="1.93326">
        <ele>162.2</ele>
        <time>2023-12-20T09:20:40Z</time>
      </trkpt>
      <trkpt lat="48.66103" lon="1.93323">
        <ele>162.2</ele>
        <time>2023-12-20T09:20:41Z</time>
      </trkpt>
      <trkpt lat="48.66108" lon="1.9332">
        <ele>162.2</ele>
        <time>2023-12-20T09:20:42Z</time>
      </trkpt>
      <trkpt lat="48.66113" lon="1.93316">
        <ele>161.8</ele>
        <time>2023-12-20T09:20:43Z</time>
      </trkpt>
      <trkpt lat="48.66118" lon="1.93313">
        <ele>161.8</ele>
        <time>2023-12-20T09:20:44Z</time>
      </trkpt>
      <trkpt lat="48.66124" lon="1.93309">
        <ele>161.8</ele>
        <time>2023-12-20T09:20:45Z</time>
      </trkpt>
      <trkpt lat="48.66128" lon="1.93304">
        <ele>161.8</ele>
        <time>2023-12-20T09:20:46Z</time>
      </trkpt>
      <trkpt lat="48.66132" lon="1.93299">
        <ele>162</ele>
        <time>2023-12-20T09:20:47Z</time>
      </trkpt>
      <trkpt lat="48.66135" lon="1.93294">
        <ele>162</ele>
        <time>2023-12-20T09:20:48Z</time>
      </trkpt>
      <trkpt lat="48.6614" lon="1.9329">
        <ele>162</ele>
        <time>2023-12-20T09:20:49Z</time>
      </trkpt>
      <trkpt lat="48.66144" lon="1.93285">
        <ele>161.6</ele>
        <time>2023-12-20T09:20:50Z</time>
      </trkpt>
      <trkpt lat="48.66149" lon="1.9328">
        <ele>161.8</ele>
        <time>2023-12-20T09:20:51Z</time>
      </trkpt>
      <trkpt lat="48.66153" lon="1.93275">
        <ele>161.8</ele>
        <time>2023-12-20T09:20:52Z</time>
      </trkpt>
      <trkpt lat="48.66158" lon="1.93272">
        <ele>161.8</ele>
        <time>2023-12-20T09:20:53Z</time>
      </trkpt>
      <trkpt lat="48.66163" lon="1.93268">
        <ele>161.6</ele>
        <time>2023-12-20T09:20:54Z</time>
      </trkpt>
      <trkpt lat="48.66167" lon="1.93265">
        <ele>161.6</ele>
        <time>2023-12-20T09:20:55Z</time>
      </trkpt>
      <trkpt lat="48.66172" lon="1.93263">
        <ele>161.6</ele>
        <time>2023-12-20T09:20:56Z</time>
      </trkpt>
      <trkpt lat="48.66177" lon="1.93263">
        <ele>161.6</ele>
        <time>2023-12-20T09:20:57Z</time>
      </trkpt>
      <trkpt lat="48.66183" lon="1.93261">
        <ele>162.2</ele>
        <time>2023-12-20T09:20:58Z</time>
      </trkpt>
      <trkpt lat="48.66188" lon="1.9326">
        <ele>161.8</ele>
        <time>2023-12-20T09:20:59Z</time>
      </trkpt>
      <trkpt lat="48.66194" lon="1.93259">
        <ele>161.8</ele>
        <time>2023-12-20T09:21:00Z</time>
      </trkpt>
      <trkpt lat="48.66199" lon="1.93258">
        <ele>161.8</ele>
        <time>2023-12-20T09:21:01Z</time>
      </trkpt>
      <trkpt lat="48.66204" lon="1.93258">
        <ele>161.8</ele>
        <time>2023-12-20T09:21:02Z</time>
      </trkpt>
      <trkpt lat="48.6621" lon="1.93257">
        <ele>162.2</ele>
        <time>2023-12-20T09:21:03Z</time>
      </trkpt>
      <trkpt lat="48.66215" lon="1.93257">
        <ele>162.2</ele>
        <time>2023-12-20T09:21:04Z</time>
      </trkpt>
      <trkpt lat="48.66221" lon="1.93257">
        <ele>162.2</ele>
        <time>2023-12-20T09:21:05Z</time>
      </trkpt>
      <trkpt lat="48.66227" lon="1.93256">
        <ele>162.2</ele>
        <time>2023-12-20T09:21:06Z</time>
      </trkpt>
      <trkpt lat="48.66232" lon="1.93256">
        <ele>162.2</ele>
        <time>2023-12-20T09:21:07Z</time>
      </trkpt>
      <trkpt lat="48.66237" lon="1.93256">
        <ele>162.2</ele>
        <time>2023-12-20T09:21:08Z</time>
      </trkpt>
      <trkpt lat="48.66243" lon="1.93255">
        <ele>162.2</ele>
        <time>2023-12-20T09:21:09Z</time>
      </trkpt>
      <trkpt lat="48.66249" lon="1.93254">
        <ele>162.2</ele>
        <time>2023-12-20T09:21:10Z</time>
      </trkpt>
      <trkpt lat="48.66255" lon="1.93253">
        <ele>162</ele>
        <time>2023-12-20T09:21:11Z</time>
      </trkpt>
      <trkpt lat="48.6626" lon="1.93251">
        <ele>162</ele>
        <time>2023-12-20T09:21:12Z</time>
      </trkpt>
      <trkpt lat="48.66265" lon="1.9325">
        <ele>162</ele>
        <time>2023-12-20T09:21:13Z</time>
      </trkpt>
      <trkpt lat="48.66271" lon="1.93248">
        <ele>162</ele>
        <time>2023-12-20T09:21:14Z</time>
      </trkpt>
      <trkpt lat="48.66277" lon="1.93246">
        <ele>161.8</ele>
        <time>2023-12-20T09:21:15Z</time>
      </trkpt>
      <trkpt lat="48.66282" lon="1.93243">
        <ele>161.8</ele>
        <time>2023-12-20T09:21:16Z</time>
      </trkpt>
      <trkpt lat="48.66288" lon="1.9324">
        <ele>161.8</ele>
        <time>2023-12-20T09:21:17Z</time>
      </trkpt>
      <trkpt lat="48.66293" lon="1.93237">
        <ele>162.2</ele>
        <time>2023-12-20T09:21:18Z</time>
      </trkpt>
      <trkpt lat="48.66299" lon="1.93234">
        <ele>162.2</ele>
        <time>2023-12-20T09:21:19Z</time>
      </trkpt>
      <trkpt lat="48.66304" lon="1.93231">
        <ele>162.2</ele>
        <time>2023-12-20T09:21:20Z</time>
      </trkpt>
      <trkpt lat="48.66308" lon="1.93227">
        <ele>162.2</ele>
        <time>2023-12-20T09:21:21Z</time>
      </trkpt>
      <trkpt lat="48.66313" lon="1.93224">
        <ele>162.4</ele>
        <time>2023-12-20T09:21:22Z</time>
      </trkpt>
      <trkpt lat="48.66317" lon="1.93221">
        <ele>162</ele>
        <time>2023-12-20T09:21:23Z</time>
      </trkpt>
      <trkpt lat="48.66322" lon="1.93218">
        <ele>162</ele>
        <time>2023-12-20T09:21:24Z</time>
      </trkpt>
      <trkpt lat="48.66326" lon="1.93214">
        <ele>162</ele>
        <time>2023-12-20T09:21:25Z</time>
      </trkpt>
      <trkpt lat="48.66331" lon="1.93211">
        <ele>162</ele>
        <time>2023-12-20T09:21:26Z</time>
      </trkpt>
      <trkpt lat="48.66335" lon="1.93207">
        <ele>161.6</ele>
        <time>2023-12-20T09:21:27Z</time>
      </trkpt>
      <trkpt lat="48.66339" lon="1.93203">
        <ele>161.6</ele>
        <time>2023-12-20T09:21:28Z</time>
      </trkpt>
      <trkpt lat="48.66343" lon="1.932">
        <ele>161.6</ele>
        <time>2023-12-20T09:21:29Z</time>
      </trkpt>
      <trkpt lat="48.66348" lon="1.93197">
        <ele>161.2</ele>
        <time>2023-12-20T09:21:30Z</time>
      </trkpt>
      <trkpt lat="48.66354" lon="1.93195">
        <ele>161.2</ele>
        <time>2023-12-20T09:21:31Z</time>
      </trkpt>
      <trkpt lat="48.66359" lon="1.93191">
        <ele>161.2</ele>
        <time>2023-12-20T09:21:32Z</time>
      </trkpt>
      <trkpt lat="48.66364" lon="1.93187">
        <ele>161.2</ele>
        <time>2023-12-20T09:21:33Z</time>
      </trkpt>
      <trkpt lat="48.66368" lon="1.93184">
        <ele>160.4</ele>
        <time>2023-12-20T09:21:34Z</time>
      </trkpt>
      <trkpt lat="48.66372" lon="1.9318">
        <ele>160</ele>
        <time>2023-12-20T09:21:35Z</time>
      </trkpt>
      <trkpt lat="48.66376" lon="1.93175">
        <ele>160</ele>
        <time>2023-12-20T09:21:36Z</time>
      </trkpt>
      <trkpt lat="48.6638" lon="1.93169">
        <ele>160</ele>
        <time>2023-12-20T09:21:37Z</time>
      </trkpt>
      <trkpt lat="48.66383" lon="1.93161">
        <ele>159</ele>
        <time>2023-12-20T09:21:38Z</time>
      </trkpt>
      <trkpt lat="48.66385" lon="1.93152">
        <ele>158.4</ele>
        <time>2023-12-20T09:21:39Z</time>
      </trkpt>
      <trkpt lat="48.66386" lon="1.93143">
        <ele>158.4</ele>
        <time>2023-12-20T09:21:40Z</time>
      </trkpt>
      <trkpt lat="48.66386" lon="1.93134">
        <ele>158.4</ele>
        <time>2023-12-20T09:21:41Z</time>
      </trkpt>
      <trkpt lat="48.66386" lon="1.93125">
        <ele>158.4</ele>
        <time>2023-12-20T09:21:42Z</time>
      </trkpt>
      <trkpt lat="48.66386" lon="1.93115">
        <ele>157.4</ele>
        <time>2023-12-20T09:21:43Z</time>
      </trkpt>
      <trkpt lat="48.66387" lon="1.93106">
        <ele>157.4</ele>
        <time>2023-12-20T09:21:44Z</time>
      </trkpt>
      <trkpt lat="48.66387" lon="1.93097">
        <ele>157.4</ele>
        <time>2023-12-20T09:21:45Z</time>
      </trkpt>
      <trkpt lat="48.66386" lon="1.93087">
        <ele>157.4</ele>
        <time>2023-12-20T09:21:46Z</time>
      </trkpt>
      <trkpt lat="48.66386" lon="1.93076">
        <ele>156.8</ele>
        <time>2023-12-20T09:21:47Z</time>
      </trkpt>
      <trkpt lat="48.66386" lon="1.93066">
        <ele>156.8</ele>
        <time>2023-12-20T09:21:48Z</time>
      </trkpt>
      <trkpt lat="48.66385" lon="1.93057">
        <ele>156.8</ele>
        <time>2023-12-20T09:21:49Z</time>
      </trkpt>
      <trkpt lat="48.66384" lon="1.93047">
        <ele>156.8</ele>
        <time>2023-12-20T09:21:50Z</time>
      </trkpt>
      <trkpt lat="48.66383" lon="1.93037">
        <ele>156.6</ele>
        <time>2023-12-20T09:21:51Z</time>
      </trkpt>
      <trkpt lat="48.66382" lon="1.93027">
        <ele>156.6</ele>
        <time>2023-12-20T09:21:52Z</time>
      </trkpt>
      <trkpt lat="48.66381" lon="1.93017">
        <ele>156.6</ele>
        <time>2023-12-20T09:21:53Z</time>
      </trkpt>
      <trkpt lat="48.6638" lon="1.93008">
        <ele>157</ele>
        <time>2023-12-20T09:21:54Z</time>
      </trkpt>
      <trkpt lat="48.66379" lon="1.92998">
        <ele>157.2</ele>
        <time>2023-12-20T09:21:55Z</time>
      </trkpt>
      <trkpt lat="48.66379" lon="1.92989">
        <ele>157.2</ele>
        <time>2023-12-20T09:21:56Z</time>
      </trkpt>
      <trkpt lat="48.6638" lon="1.9298">
        <ele>157.2</ele>
        <time>2023-12-20T09:21:57Z</time>
      </trkpt>
      <trkpt lat="48.66382" lon="1.92972">
        <ele>157.2</ele>
        <time>2023-12-20T09:21:58Z</time>
      </trkpt>
      <trkpt lat="48.66384" lon="1.92965">
        <ele>158.4</ele>
        <time>2023-12-20T09:21:59Z</time>
      </trkpt>
      <trkpt lat="48.66388" lon="1.92959">
        <ele>158.4</ele>
        <time>2023-12-20T09:22:00Z</time>
      </trkpt>
      <trkpt lat="48.66391" lon="1.92954">
        <ele>158.4</ele>
        <time>2023-12-20T09:22:01Z</time>
      </trkpt>
      <trkpt lat="48.66395" lon="1.9295">
        <ele>158.4</ele>
        <time>2023-12-20T09:22:02Z</time>
      </trkpt>
      <trkpt lat="48.664" lon="1.92947">
        <ele>158.4</ele>
        <time>2023-12-20T09:22:03Z</time>
      </trkpt>
      <trkpt lat="48.66405" lon="1.92945">
        <ele>158.4</ele>
        <time>2023-12-20T09:22:04Z</time>
      </trkpt>
      <trkpt lat="48.66409" lon="1.92942">
        <ele>158.4</ele>
        <time>2023-12-20T09:22:05Z</time>
      </trkpt>
      <trkpt lat="48.66414" lon="1.9294">
        <ele>158.4</ele>
        <time>2023-12-20T09:22:06Z</time>
      </trkpt>
      <trkpt lat="48.66419" lon="1.92937">
        <ele>158.2</ele>
        <time>2023-12-20T09:22:07Z</time>
      </trkpt>
      <trkpt lat="48.66424" lon="1.92934">
        <ele>158.2</ele>
        <time>2023-12-20T09:22:08Z</time>
      </trkpt>
      <trkpt lat="48.66429" lon="1.92932">
        <ele>158.2</ele>
        <time>2023-12-20T09:22:09Z</time>
      </trkpt>
      <trkpt lat="48.66434" lon="1.9293">
        <ele>159.2</ele>
        <time>2023-12-20T09:22:10Z</time>
      </trkpt>
      <trkpt lat="48.66438" lon="1.92927">
        <ele>159.2</ele>
        <time>2023-12-20T09:22:11Z</time>
      </trkpt>
      <trkpt lat="48.66443" lon="1.92924">
        <ele>159.2</ele>
        <time>2023-12-20T09:22:12Z</time>
      </trkpt>
      <trkpt lat="48.66447" lon="1.92922">
        <ele>159.2</ele>
        <time>2023-12-20T09:22:13Z</time>
      </trkpt>
      <trkpt lat="48.66452" lon="1.9292">
        <ele>159.8</ele>
        <time>2023-12-20T09:22:14Z</time>
      </trkpt>
      <trkpt lat="48.66457" lon="1.92919">
        <ele>159.6</ele>
        <time>2023-12-20T09:22:15Z</time>
      </trkpt>
      <trkpt lat="48.66462" lon="1.92917">
        <ele>159.6</ele>
        <time>2023-12-20T09:22:16Z</time>
      </trkpt>
      <trkpt lat="48.66466" lon="1.92915">
        <ele>159.6</ele>
        <time>2023-12-20T09:22:17Z</time>
      </trkpt>
      <trkpt lat="48.66471" lon="1.92913">
        <ele>159.8</ele>
        <time>2023-12-20T09:22:18Z</time>
      </trkpt>
      <trkpt lat="48.66475" lon="1.92912">
        <ele>160.4</ele>
        <time>2023-12-20T09:22:19Z</time>
      </trkpt>
      <trkpt lat="48.66479" lon="1.92911">
        <ele>160.4</ele>
        <time>2023-12-20T09:22:20Z</time>
      </trkpt>
      <trkpt lat="48.66482" lon="1.92909">
        <ele>160.4</ele>
        <time>2023-12-20T09:22:21Z</time>
      </trkpt>
      <trkpt lat="48.66486" lon="1.92908">
        <ele>160.8</ele>
        <time>2023-12-20T09:22:22Z</time>
      </trkpt>
      <trkpt lat="48.6649" lon="1.92909">
        <ele>160.8</ele>
        <time>2023-12-20T09:22:23Z</time>
      </trkpt>
      <trkpt lat="48.66493" lon="1.92908">
        <ele>160.8</ele>
        <time>2023-12-20T09:22:24Z</time>
      </trkpt>
      <trkpt lat="48.66497" lon="1.92907">
        <ele>160.8</ele>
        <time>2023-12-20T09:22:25Z</time>
      </trkpt>
      <trkpt lat="48.665" lon="1.92908">
        <ele>160.8</ele>
        <time>2023-12-20T09:22:26Z</time>
      </trkpt>
      <trkpt lat="48.66504" lon="1.92908">
        <ele>161.4</ele>
        <time>2023-12-20T09:22:27Z</time>
      </trkpt>
      <trkpt lat="48.66509" lon="1.92908">
        <ele>161.4</ele>
        <time>2023-12-20T09:22:28Z</time>
      </trkpt>
      <trkpt lat="48.66513" lon="1.92909">
        <ele>161.4</ele>
        <time>2023-12-20T09:22:29Z</time>
      </trkpt>
      <trkpt lat="48.66516" lon="1.92909">
        <ele>161.8</ele>
        <time>2023-12-20T09:22:30Z</time>
      </trkpt>
      <trkpt lat="48.66519" lon="1.92907">
        <ele>161.6</ele>
        <time>2023-12-20T09:22:31Z</time>
      </trkpt>
      <trkpt lat="48.66524" lon="1.92906">
        <ele>161.6</ele>
        <time>2023-12-20T09:22:32Z</time>
      </trkpt>
      <trkpt lat="48.66529" lon="1.92905">
        <ele>161.6</ele>
        <time>2023-12-20T09:22:33Z</time>
      </trkpt>
      <trkpt lat="48.66533" lon="1.92901">
        <ele>161.6</ele>
        <time>2023-12-20T09:22:34Z</time>
      </trkpt>
      <trkpt lat="48.66538" lon="1.92895">
        <ele>161.6</ele>
        <time>2023-12-20T09:22:35Z</time>
      </trkpt>
      <trkpt lat="48.66542" lon="1.92893">
        <ele>161.6</ele>
        <time>2023-12-20T09:22:36Z</time>
      </trkpt>
      <trkpt lat="48.66547" lon="1.92893">
        <ele>161.6</ele>
        <time>2023-12-20T09:22:37Z</time>
      </trkpt>
      <trkpt lat="48.66551" lon="1.92891">
        <ele>161.6</ele>
        <time>2023-12-20T09:22:38Z</time>
      </trkpt>
      <trkpt lat="48.66555" lon="1.9289">
        <ele>161</ele>
        <time>2023-12-20T09:22:39Z</time>
      </trkpt>
      <trkpt lat="48.66561" lon="1.92888">
        <ele>161</ele>
        <time>2023-12-20T09:22:40Z</time>
      </trkpt>
      <trkpt lat="48.66566" lon="1.92886">
        <ele>161</ele>
        <time>2023-12-20T09:22:41Z</time>
      </trkpt>
      <trkpt lat="48.6657" lon="1.92884">
        <ele>161.8</ele>
        <time>2023-12-20T09:22:42Z</time>
      </trkpt>
      <trkpt lat="48.66575" lon="1.92882">
        <ele>162.2</ele>
        <time>2023-12-20T09:22:43Z</time>
      </trkpt>
      <trkpt lat="48.6658" lon="1.92877">
        <ele>162.2</ele>
        <time>2023-12-20T09:22:44Z</time>
      </trkpt>
      <trkpt lat="48.66585" lon="1.92872">
        <ele>162.2</ele>
        <time>2023-12-20T09:22:45Z</time>
      </trkpt>
      <trkpt lat="48.66591" lon="1.92865">
        <ele>162.2</ele>
        <time>2023-12-20T09:22:46Z</time>
      </trkpt>
      <trkpt lat="48.66596" lon="1.92861">
        <ele>163</ele>
        <time>2023-12-20T09:22:47Z</time>
      </trkpt>
      <trkpt lat="48.66601" lon="1.92858">
        <ele>163</ele>
        <time>2023-12-20T09:22:48Z</time>
      </trkpt>
      <trkpt lat="48.66605" lon="1.92854">
        <ele>163</ele>
        <time>2023-12-20T09:22:49Z</time>
      </trkpt>
      <trkpt lat="48.6661" lon="1.92849">
        <ele>163</ele>
        <time>2023-12-20T09:22:50Z</time>
      </trkpt>
      <trkpt lat="48.66614" lon="1.92846">
        <ele>162.2</ele>
        <time>2023-12-20T09:22:51Z</time>
      </trkpt>
      <trkpt lat="48.66619" lon="1.92843">
        <ele>162.2</ele>
        <time>2023-12-20T09:22:52Z</time>
      </trkpt>
      <trkpt lat="48.66623" lon="1.92839">
        <ele>162.2</ele>
        <time>2023-12-20T09:22:53Z</time>
      </trkpt>
      <trkpt lat="48.66627" lon="1.92837">
        <ele>162.6</ele>
        <time>2023-12-20T09:22:54Z</time>
      </trkpt>
      <trkpt lat="48.66632" lon="1.92831">
        <ele>162.8</ele>
        <time>2023-12-20T09:22:55Z</time>
      </trkpt>
      <trkpt lat="48.66636" lon="1.92827">
        <ele>162.8</ele>
        <time>2023-12-20T09:22:56Z</time>
      </trkpt>
      <trkpt lat="48.66641" lon="1.92823">
        <ele>162.8</ele>
        <time>2023-12-20T09:22:57Z</time>
      </trkpt>
      <trkpt lat="48.66645" lon="1.9282">
        <ele>162.8</ele>
        <time>2023-12-20T09:22:58Z</time>
      </trkpt>
      <trkpt lat="48.6665" lon="1.92815">
        <ele>162.6</ele>
        <time>2023-12-20T09:22:59Z</time>
      </trkpt>
      <trkpt lat="48.66656" lon="1.9281">
        <ele>162.6</ele>
        <time>2023-12-20T09:23:00Z</time>
      </trkpt>
      <trkpt lat="48.66661" lon="1.92804">
        <ele>162.6</ele>
        <time>2023-12-20T09:23:01Z</time>
      </trkpt>
      <trkpt lat="48.66666" lon="1.92797">
        <ele>162.6</ele>
        <time>2023-12-20T09:23:02Z</time>
      </trkpt>
      <trkpt lat="48.66671" lon="1.92792">
        <ele>163.8</ele>
        <time>2023-12-20T09:23:03Z</time>
      </trkpt>
      <trkpt lat="48.66675" lon="1.92787">
        <ele>163.8</ele>
        <time>2023-12-20T09:23:04Z</time>
      </trkpt>
      <trkpt lat="48.6668" lon="1.92783">
        <ele>163.8</ele>
        <time>2023-12-20T09:23:05Z</time>
      </trkpt>
      <trkpt lat="48.66685" lon="1.92779">
        <ele>164.4</ele>
        <time>2023-12-20T09:23:06Z</time>
      </trkpt>
      <trkpt lat="48.66689" lon="1.92774">
        <ele>163.4</ele>
        <time>2023-12-20T09:23:07Z</time>
      </trkpt>
      <trkpt lat="48.66694" lon="1.9277">
        <ele>163.4</ele>
        <time>2023-12-20T09:23:08Z</time>
      </trkpt>
      <trkpt lat="48.66699" lon="1.92765">
        <ele>163.4</ele>
        <time>2023-12-20T09:23:09Z</time>
      </trkpt>
      <trkpt lat="48.66703" lon="1.92759">
        <ele>163.4</ele>
        <time>2023-12-20T09:23:10Z</time>
      </trkpt>
      <trkpt lat="48.66707" lon="1.92754">
        <ele>164.6</ele>
        <time>2023-12-20T09:23:11Z</time>
      </trkpt>
      <trkpt lat="48.66711" lon="1.92749">
        <ele>164.6</ele>
        <time>2023-12-20T09:23:12Z</time>
      </trkpt>
      <trkpt lat="48.66716" lon="1.92745">
        <ele>164.6</ele>
        <time>2023-12-20T09:23:13Z</time>
      </trkpt>
      <trkpt lat="48.6672" lon="1.9274">
        <ele>164.2</ele>
        <time>2023-12-20T09:23:14Z</time>
      </trkpt>
      <trkpt lat="48.66724" lon="1.92735">
        <ele>164.6</ele>
        <time>2023-12-20T09:23:15Z</time>
      </trkpt>
      <trkpt lat="48.66728" lon="1.92731">
        <ele>164.6</ele>
        <time>2023-12-20T09:23:16Z</time>
      </trkpt>
      <trkpt lat="48.66732" lon="1.92727">
        <ele>164.6</ele>
        <time>2023-12-20T09:23:17Z</time>
      </trkpt>
      <trkpt lat="48.66736" lon="1.92722">
        <ele>165.4</ele>
        <time>2023-12-20T09:23:18Z</time>
      </trkpt>
      <trkpt lat="48.66741" lon="1.92718">
        <ele>165.4</ele>
        <time>2023-12-20T09:23:19Z</time>
      </trkpt>
      <trkpt lat="48.66745" lon="1.92713">
        <ele>165.4</ele>
        <time>2023-12-20T09:23:20Z</time>
      </trkpt>
      <trkpt lat="48.66749" lon="1.92709">
        <ele>165.4</ele>
        <time>2023-12-20T09:23:21Z</time>
      </trkpt>
      <trkpt lat="48.66753" lon="1.92704">
        <ele>164.6</ele>
        <time>2023-12-20T09:23:22Z</time>
      </trkpt>
      <trkpt lat="48.66758" lon="1.927">
        <ele>164.8</ele>
        <time>2023-12-20T09:23:23Z</time>
      </trkpt>
      <trkpt lat="48.66763" lon="1.92697">
        <ele>164.8</ele>
        <time>2023-12-20T09:23:24Z</time>
      </trkpt>
      <trkpt lat="48.66767" lon="1.92692">
        <ele>164.8</ele>
        <time>2023-12-20T09:23:25Z</time>
      </trkpt>
      <trkpt lat="48.66771" lon="1.92687">
        <ele>164.8</ele>
        <time>2023-12-20T09:23:26Z</time>
      </trkpt>
      <trkpt lat="48.66774" lon="1.92681">
        <ele>165</ele>
        <time>2023-12-20T09:23:27Z</time>
      </trkpt>
      <trkpt lat="48.66778" lon="1.92675">
        <ele>165</ele>
        <time>2023-12-20T09:23:28Z</time>
      </trkpt>
      <trkpt lat="48.66782" lon="1.92671">
        <ele>165</ele>
        <time>2023-12-20T09:23:29Z</time>
      </trkpt>
      <trkpt lat="48.66786" lon="1.92668">
        <ele>165.4</ele>
        <time>2023-12-20T09:23:30Z</time>
      </trkpt>
      <trkpt lat="48.6679" lon="1.92664">
        <ele>165</ele>
        <time>2023-12-20T09:23:31Z</time>
      </trkpt>
      <trkpt lat="48.66794" lon="1.92659">
        <ele>165</ele>
        <time>2023-12-20T09:23:32Z</time>
      </trkpt>
      <trkpt lat="48.66798" lon="1.92655">
        <ele>165</ele>
        <time>2023-12-20T09:23:33Z</time>
      </trkpt>
      <trkpt lat="48.66801" lon="1.92649">
        <ele>165.2</ele>
        <time>2023-12-20T09:23:34Z</time>
      </trkpt>
      <trkpt lat="48.66805" lon="1.92644">
        <ele>165.2</ele>
        <time>2023-12-20T09:23:35Z</time>
      </trkpt>
      <trkpt lat="48.66809" lon="1.92639">
        <ele>165.2</ele>
        <time>2023-12-20T09:23:36Z</time>
      </trkpt>
      <trkpt lat="48.66812" lon="1.92634">
        <ele>165.2</ele>
        <time>2023-12-20T09:23:37Z</time>
      </trkpt>
      <trkpt lat="48.66816" lon="1.92629">
        <ele>165.2</ele>
        <time>2023-12-20T09:23:38Z</time>
      </trkpt>
      <trkpt lat="48.6682" lon="1.92624">
        <ele>165</ele>
        <time>2023-12-20T09:23:39Z</time>
      </trkpt>
      <trkpt lat="48.66824" lon="1.92619">
        <ele>165</ele>
        <time>2023-12-20T09:23:40Z</time>
      </trkpt>
      <trkpt lat="48.66828" lon="1.92615">
        <ele>165</ele>
        <time>2023-12-20T09:23:41Z</time>
      </trkpt>
      <trkpt lat="48.66831" lon="1.92609">
        <ele>165.4</ele>
        <time>2023-12-20T09:23:42Z</time>
      </trkpt>
      <trkpt lat="48.66835" lon="1.92606">
        <ele>165.8</ele>
        <time>2023-12-20T09:23:43Z</time>
      </trkpt>
      <trkpt lat="48.66838" lon="1.92602">
        <ele>165.8</ele>
        <time>2023-12-20T09:23:44Z</time>
      </trkpt>
      <trkpt lat="48.66841" lon="1.92597">
        <ele>165.8</ele>
        <time>2023-12-20T09:23:45Z</time>
      </trkpt>
      <trkpt lat="48.66845" lon="1.9259">
        <ele>165.8</ele>
        <time>2023-12-20T09:23:46Z</time>
      </trkpt>
      <trkpt lat="48.66849" lon="1.92584">
        <ele>166</ele>
        <time>2023-12-20T09:23:47Z</time>
      </trkpt>
      <trkpt lat="48.66853" lon="1.92579">
        <ele>166</ele>
        <time>2023-12-20T09:23:48Z</time>
      </trkpt>
      <trkpt lat="48.66856" lon="1.92571">
        <ele>166</ele>
        <time>2023-12-20T09:23:49Z</time>
      </trkpt>
      <trkpt lat="48.6686" lon="1.92566">
        <ele>166</ele>
        <time>2023-12-20T09:23:50Z</time>
      </trkpt>
      <trkpt lat="48.66864" lon="1.92559">
        <ele>165.2</ele>
        <time>2023-12-20T09:23:51Z</time>
      </trkpt>
      <trkpt lat="48.66867" lon="1.92552">
        <ele>165.2</ele>
        <time>2023-12-20T09:23:52Z</time>
      </trkpt>
      <trkpt lat="48.66871" lon="1.92545">
        <ele>165.2</ele>
        <time>2023-12-20T09:23:53Z</time>
      </trkpt>
      <trkpt lat="48.66875" lon="1.92538">
        <ele>166.2</ele>
        <time>2023-12-20T09:23:54Z</time>
      </trkpt>
      <trkpt lat="48.66878" lon="1.92531">
        <ele>166</ele>
        <time>2023-12-20T09:23:55Z</time>
      </trkpt>
      <trkpt lat="48.66881" lon="1.92524">
        <ele>166</ele>
        <time>2023-12-20T09:23:56Z</time>
      </trkpt>
      <trkpt lat="48.66885" lon="1.92515">
        <ele>166</ele>
        <time>2023-12-20T09:23:57Z</time>
      </trkpt>
      <trkpt lat="48.66888" lon="1.92507">
        <ele>166</ele>
        <time>2023-12-20T09:23:58Z</time>
      </trkpt>
      <trkpt lat="48.66891" lon="1.92498">
        <ele>165.6</ele>
        <time>2023-12-20T09:23:59Z</time>
      </trkpt>
      <trkpt lat="48.66894" lon="1.9249">
        <ele>165.6</ele>
        <time>2023-12-20T09:24:00Z</time>
      </trkpt>
      <trkpt lat="48.66897" lon="1.92482">
        <ele>165.6</ele>
        <time>2023-12-20T09:24:01Z</time>
      </trkpt>
      <trkpt lat="48.66901" lon="1.92474">
        <ele>165.6</ele>
        <time>2023-12-20T09:24:02Z</time>
      </trkpt>
      <trkpt lat="48.66904" lon="1.92465">
        <ele>166.2</ele>
        <time>2023-12-20T09:24:03Z</time>
      </trkpt>
      <trkpt lat="48.66908" lon="1.92457">
        <ele>166.2</ele>
        <time>2023-12-20T09:24:04Z</time>
      </trkpt>
      <trkpt lat="48.66911" lon="1.92449">
        <ele>166.2</ele>
        <time>2023-12-20T09:24:05Z</time>
      </trkpt>
      <trkpt lat="48.66914" lon="1.9244">
        <ele>165.8</ele>
        <time>2023-12-20T09:24:06Z</time>
      </trkpt>
      <trkpt lat="48.66917" lon="1.92432">
        <ele>166.2</ele>
        <time>2023-12-20T09:24:07Z</time>
      </trkpt>
      <trkpt lat="48.6692" lon="1.92424">
        <ele>166.2</ele>
        <time>2023-12-20T09:24:08Z</time>
      </trkpt>
      <trkpt lat="48.66923" lon="1.92416">
        <ele>166.2</ele>
        <time>2023-12-20T09:24:09Z</time>
      </trkpt>
      <trkpt lat="48.66926" lon="1.92408">
        <ele>166.2</ele>
        <time>2023-12-20T09:24:10Z</time>
      </trkpt>
      <trkpt lat="48.66929" lon="1.92401">
        <ele>165.6</ele>
        <time>2023-12-20T09:24:11Z</time>
      </trkpt>
      <trkpt lat="48.66931" lon="1.92393">
        <ele>165.6</ele>
        <time>2023-12-20T09:24:12Z</time>
      </trkpt>
      <trkpt lat="48.66934" lon="1.92385">
        <ele>165.6</ele>
        <time>2023-12-20T09:24:13Z</time>
      </trkpt>
      <trkpt lat="48.66937" lon="1.92378">
        <ele>166.6</ele>
        <time>2023-12-20T09:24:14Z</time>
      </trkpt>
      <trkpt lat="48.6694" lon="1.92371">
        <ele>166.4</ele>
        <time>2023-12-20T09:24:15Z</time>
      </trkpt>
      <trkpt lat="48.66943" lon="1.92363">
        <ele>166.4</ele>
        <time>2023-12-20T09:24:16Z</time>
      </trkpt>
      <trkpt lat="48.66946" lon="1.92355">
        <ele>166.4</ele>
        <time>2023-12-20T09:24:17Z</time>
      </trkpt>
      <trkpt lat="48.66949" lon="1.92347">
        <ele>166.4</ele>
        <time>2023-12-20T09:24:18Z</time>
      </trkpt>
      <trkpt lat="48.66952" lon="1.92339">
        <ele>165.8</ele>
        <time>2023-12-20T09:24:19Z</time>
      </trkpt>
      <trkpt lat="48.66954" lon="1.9233">
        <ele>165.8</ele>
        <time>2023-12-20T09:24:20Z</time>
      </trkpt>
      <trkpt lat="48.66957" lon="1.92322">
        <ele>165.8</ele>
        <time>2023-12-20T09:24:21Z</time>
      </trkpt>
      <trkpt lat="48.66959" lon="1.92314">
        <ele>166</ele>
        <time>2023-12-20T09:24:22Z</time>
      </trkpt>
      <trkpt lat="48.66962" lon="1.92306">
        <ele>166</ele>
        <time>2023-12-20T09:24:23Z</time>
      </trkpt>
      <trkpt lat="48.66964" lon="1.92298">
        <ele>166</ele>
        <time>2023-12-20T09:24:24Z</time>
      </trkpt>
      <trkpt lat="48.66966" lon="1.9229">
        <ele>166</ele>
        <time>2023-12-20T09:24:25Z</time>
      </trkpt>
      <trkpt lat="48.66968" lon="1.92282">
        <ele>166</ele>
        <time>2023-12-20T09:24:26Z</time>
      </trkpt>
      <trkpt lat="48.6697" lon="1.92274">
        <ele>166.2</ele>
        <time>2023-12-20T09:24:27Z</time>
      </trkpt>
      <trkpt lat="48.66972" lon="1.92266">
        <ele>166.2</ele>
        <time>2023-12-20T09:24:28Z</time>
      </trkpt>
      <trkpt lat="48.66975" lon="1.92258">
        <ele>166.2</ele>
        <time>2023-12-20T09:24:29Z</time>
      </trkpt>
      <trkpt lat="48.66977" lon="1.9225">
        <ele>167.2</ele>
        <time>2023-12-20T09:24:30Z</time>
      </trkpt>
      <trkpt lat="48.66979" lon="1.92242">
        <ele>167</ele>
        <time>2023-12-20T09:24:31Z</time>
      </trkpt>
      <trkpt lat="48.66981" lon="1.92233">
        <ele>167</ele>
        <time>2023-12-20T09:24:32Z</time>
      </trkpt>
      <trkpt lat="48.66983" lon="1.92225">
        <ele>167</ele>
        <time>2023-12-20T09:24:33Z</time>
      </trkpt>
      <trkpt lat="48.66985" lon="1.92217">
        <ele>166.4</ele>
        <time>2023-12-20T09:24:34Z</time>
      </trkpt>
      <trkpt lat="48.66988" lon="1.92208">
        <ele>166.2</ele>
        <time>2023-12-20T09:24:35Z</time>
      </trkpt>
      <trkpt lat="48.6699" lon="1.922">
        <ele>166.2</ele>
        <time>2023-12-20T09:24:36Z</time>
      </trkpt>
      <trkpt lat="48.66993" lon="1.92192">
        <ele>166.2</ele>
        <time>2023-12-20T09:24:37Z</time>
      </trkpt>
      <trkpt lat="48.66995" lon="1.92183">
        <ele>166.2</ele>
        <time>2023-12-20T09:24:38Z</time>
      </trkpt>
      <trkpt lat="48.66998" lon="1.92175">
        <ele>165.6</ele>
        <time>2023-12-20T09:24:39Z</time>
      </trkpt>
      <trkpt lat="48.67001" lon="1.92167">
        <ele>165.6</ele>
        <time>2023-12-20T09:24:40Z</time>
      </trkpt>
      <trkpt lat="48.67004" lon="1.92159">
        <ele>165.6</ele>
        <time>2023-12-20T09:24:41Z</time>
      </trkpt>
      <trkpt lat="48.67007" lon="1.9215">
        <ele>166.2</ele>
        <time>2023-12-20T09:24:42Z</time>
      </trkpt>
      <trkpt lat="48.6701" lon="1.92142">
        <ele>166.2</ele>
        <time>2023-12-20T09:24:43Z</time>
      </trkpt>
      <trkpt lat="48.67013" lon="1.92135">
        <ele>166.2</ele>
        <time>2023-12-20T09:24:44Z</time>
      </trkpt>
      <trkpt lat="48.67016" lon="1.92127">
        <ele>166.2</ele>
        <time>2023-12-20T09:24:45Z</time>
      </trkpt>
      <trkpt lat="48.67019" lon="1.9212">
        <ele>166.2</ele>
        <time>2023-12-20T09:24:46Z</time>
      </trkpt>
      <trkpt lat="48.67023" lon="1.92113">
        <ele>166.6</ele>
        <time>2023-12-20T09:24:47Z</time>
      </trkpt>
      <trkpt lat="48.67026" lon="1.92106">
        <ele>166.6</ele>
        <time>2023-12-20T09:24:48Z</time>
      </trkpt>
      <trkpt lat="48.6703" lon="1.92098">
        <ele>166.6</ele>
        <time>2023-12-20T09:24:49Z</time>
      </trkpt>
      <trkpt lat="48.67033" lon="1.92091">
        <ele>166.8</ele>
        <time>2023-12-20T09:24:50Z</time>
      </trkpt>
      <trkpt lat="48.67036" lon="1.92083">
        <ele>166.8</ele>
        <time>2023-12-20T09:24:51Z</time>
      </trkpt>
      <trkpt lat="48.67039" lon="1.92076">
        <ele>166.8</ele>
        <time>2023-12-20T09:24:52Z</time>
      </trkpt>
      <trkpt lat="48.67043" lon="1.9207">
        <ele>166.8</ele>
        <time>2023-12-20T09:24:53Z</time>
      </trkpt>
      <trkpt lat="48.67046" lon="1.92062">
        <ele>166.8</ele>
        <time>2023-12-20T09:24:54Z</time>
      </trkpt>
      <trkpt lat="48.67049" lon="1.92055">
        <ele>166.6</ele>
        <time>2023-12-20T09:24:55Z</time>
      </trkpt>
      <trkpt lat="48.67052" lon="1.92048">
        <ele>166.6</ele>
        <time>2023-12-20T09:24:56Z</time>
      </trkpt>
      <trkpt lat="48.67055" lon="1.92041">
        <ele>166.6</ele>
        <time>2023-12-20T09:24:57Z</time>
      </trkpt>
      <trkpt lat="48.67058" lon="1.92034">
        <ele>166.6</ele>
        <time>2023-12-20T09:24:58Z</time>
      </trkpt>
      <trkpt lat="48.67062" lon="1.92028">
        <ele>167.6</ele>
        <time>2023-12-20T09:24:59Z</time>
      </trkpt>
      <trkpt lat="48.67065" lon="1.9202">
        <ele>167.6</ele>
        <time>2023-12-20T09:25:00Z</time>
      </trkpt>
      <trkpt lat="48.67069" lon="1.92014">
        <ele>167.6</ele>
        <time>2023-12-20T09:25:01Z</time>
      </trkpt>
      <trkpt lat="48.67073" lon="1.92007">
        <ele>167.6</ele>
        <time>2023-12-20T09:25:02Z</time>
      </trkpt>
      <trkpt lat="48.67076" lon="1.92">
        <ele>166.8</ele>
        <time>2023-12-20T09:25:03Z</time>
      </trkpt>
      <trkpt lat="48.6708" lon="1.91994">
        <ele>166.8</ele>
        <time>2023-12-20T09:25:04Z</time>
      </trkpt>
      <trkpt lat="48.67083" lon="1.91988">
        <ele>166.8</ele>
        <time>2023-12-20T09:25:05Z</time>
      </trkpt>
      <trkpt lat="48.67087" lon="1.91981">
        <ele>166.8</ele>
        <time>2023-12-20T09:25:06Z</time>
      </trkpt>
      <trkpt lat="48.67091" lon="1.91973">
        <ele>167</ele>
        <time>2023-12-20T09:25:07Z</time>
      </trkpt>
      <trkpt lat="48.67094" lon="1.91966">
        <ele>167</ele>
        <time>2023-12-20T09:25:08Z</time>
      </trkpt>
      <trkpt lat="48.67097" lon="1.91958">
        <ele>167</ele>
        <time>2023-12-20T09:25:09Z</time>
      </trkpt>
      <trkpt lat="48.67101" lon="1.91951">
        <ele>167</ele>
        <time>2023-12-20T09:25:10Z</time>
      </trkpt>
      <trkpt lat="48.67104" lon="1.91944">
        <ele>167.2</ele>
        <time>2023-12-20T09:25:11Z</time>
      </trkpt>
      <trkpt lat="48.67108" lon="1.91937">
        <ele>167.2</ele>
        <time>2023-12-20T09:25:12Z</time>
      </trkpt>
      <trkpt lat="48.67112" lon="1.91929">
        <ele>167.2</ele>
        <time>2023-12-20T09:25:13Z</time>
      </trkpt>
      <trkpt lat="48.67115" lon="1.9192">
        <ele>167.2</ele>
        <time>2023-12-20T09:25:14Z</time>
      </trkpt>
      <trkpt lat="48.67119" lon="1.91912">
        <ele>166.6</ele>
        <time>2023-12-20T09:25:15Z</time>
      </trkpt>
      <trkpt lat="48.67122" lon="1.91905">
        <ele>166.6</ele>
        <time>2023-12-20T09:25:16Z</time>
      </trkpt>
      <trkpt lat="48.67126" lon="1.91897">
        <ele>166.6</ele>
        <time>2023-12-20T09:25:17Z</time>
      </trkpt>
      <trkpt lat="48.67129" lon="1.91889">
        <ele>166.6</ele>
        <time>2023-12-20T09:25:18Z</time>
      </trkpt>
      <trkpt lat="48.67132" lon="1.91881">
        <ele>166.2</ele>
        <time>2023-12-20T09:25:19Z</time>
      </trkpt>
      <trkpt lat="48.67136" lon="1.91873">
        <ele>166.2</ele>
        <time>2023-12-20T09:25:20Z</time>
      </trkpt>
      <trkpt lat="48.67139" lon="1.91865">
        <ele>166.2</ele>
        <time>2023-12-20T09:25:21Z</time>
      </trkpt>
      <trkpt lat="48.67143" lon="1.91856">
        <ele>166.4</ele>
        <time>2023-12-20T09:25:22Z</time>
      </trkpt>
      <trkpt lat="48.67146" lon="1.91848">
        <ele>167</ele>
        <time>2023-12-20T09:25:23Z</time>
      </trkpt>
      <trkpt lat="48.6715" lon="1.91841">
        <ele>167</ele>
        <time>2023-12-20T09:25:24Z</time>
      </trkpt>
      <trkpt lat="48.67154" lon="1.91833">
        <ele>167</ele>
        <time>2023-12-20T09:25:25Z</time>
      </trkpt>
      <trkpt lat="48.67158" lon="1.91826">
        <ele>167</ele>
        <time>2023-12-20T09:25:26Z</time>
      </trkpt>
      <trkpt lat="48.67163" lon="1.91819">
        <ele>166.6</ele>
        <time>2023-12-20T09:25:27Z</time>
      </trkpt>
      <trkpt lat="48.67167" lon="1.91812">
        <ele>166.6</ele>
        <time>2023-12-20T09:25:28Z</time>
      </trkpt>
      <trkpt lat="48.67171" lon="1.91806">
        <ele>166.6</ele>
        <time>2023-12-20T09:25:29Z</time>
      </trkpt>
      <trkpt lat="48.67175" lon="1.91799">
        <ele>166.6</ele>
        <time>2023-12-20T09:25:30Z</time>
      </trkpt>
      <trkpt lat="48.6718" lon="1.91793">
        <ele>166.8</ele>
        <time>2023-12-20T09:25:31Z</time>
      </trkpt>
      <trkpt lat="48.67184" lon="1.91787">
        <ele>166.8</ele>
        <time>2023-12-20T09:25:32Z</time>
      </trkpt>
      <trkpt lat="48.67189" lon="1.91781">
        <ele>166.8</ele>
        <time>2023-12-20T09:25:33Z</time>
      </trkpt>
      <trkpt lat="48.67193" lon="1.91775">
        <ele>166.8</ele>
        <time>2023-12-20T09:25:34Z</time>
      </trkpt>
      <trkpt lat="48.67197" lon="1.91768">
        <ele>167.4</ele>
        <time>2023-12-20T09:25:35Z</time>
      </trkpt>
      <trkpt lat="48.67202" lon="1.91762">
        <ele>167.4</ele>
        <time>2023-12-20T09:25:36Z</time>
      </trkpt>
      <trkpt lat="48.67206" lon="1.91757">
        <ele>167.4</ele>
        <time>2023-12-20T09:25:37Z</time>
      </trkpt>
      <trkpt lat="48.67211" lon="1.91751">
        <ele>168</ele>
        <time>2023-12-20T09:25:38Z</time>
      </trkpt>
      <trkpt lat="48.67215" lon="1.91745">
        <ele>167.4</ele>
        <time>2023-12-20T09:25:39Z</time>
      </trkpt>
      <trkpt lat="48.6722" lon="1.91739">
        <ele>167.4</ele>
        <time>2023-12-20T09:25:40Z</time>
      </trkpt>
      <trkpt lat="48.67224" lon="1.91733">
        <ele>167.4</ele>
        <time>2023-12-20T09:25:41Z</time>
      </trkpt>
      <trkpt lat="48.67229" lon="1.91727">
        <ele>168.2</ele>
        <time>2023-12-20T09:25:42Z</time>
      </trkpt>
      <trkpt lat="48.67234" lon="1.91721">
        <ele>167.2</ele>
        <time>2023-12-20T09:25:43Z</time>
      </trkpt>
      <trkpt lat="48.67238" lon="1.91715">
        <ele>167.2</ele>
        <time>2023-12-20T09:25:44Z</time>
      </trkpt>
      <trkpt lat="48.67243" lon="1.9171">
        <ele>167.2</ele>
        <time>2023-12-20T09:25:45Z</time>
      </trkpt>
      <trkpt lat="48.67248" lon="1.91704">
        <ele>167.6</ele>
        <time>2023-12-20T09:25:46Z</time>
      </trkpt>
      <trkpt lat="48.67252" lon="1.91698">
        <ele>167.6</ele>
        <time>2023-12-20T09:25:47Z</time>
      </trkpt>
      <trkpt lat="48.67257" lon="1.91692">
        <ele>167.6</ele>
        <time>2023-12-20T09:25:48Z</time>
      </trkpt>
      <trkpt lat="48.67261" lon="1.91686">
        <ele>167.6</ele>
        <time>2023-12-20T09:25:49Z</time>
      </trkpt>
      <trkpt lat="48.67266" lon="1.9168">
        <ele>167.6</ele>
        <time>2023-12-20T09:25:50Z</time>
      </trkpt>
      <trkpt lat="48.67271" lon="1.91674">
        <ele>167</ele>
        <time>2023-12-20T09:25:51Z</time>
      </trkpt>
      <trkpt lat="48.67276" lon="1.91668">
        <ele>167</ele>
        <time>2023-12-20T09:25:52Z</time>
      </trkpt>
      <trkpt lat="48.6728" lon="1.91662">
        <ele>167</ele>
        <time>2023-12-20T09:25:53Z</time>
      </trkpt>
      <trkpt lat="48.67285" lon="1.91656">
        <ele>167.2</ele>
        <time>2023-12-20T09:25:54Z</time>
      </trkpt>
      <trkpt lat="48.67289" lon="1.9165">
        <ele>167.6</ele>
        <time>2023-12-20T09:25:55Z</time>
      </trkpt>
      <trkpt lat="48.67294" lon="1.91644">
        <ele>167.6</ele>
        <time>2023-12-20T09:25:56Z</time>
      </trkpt>
      <trkpt lat="48.67298" lon="1.91638">
        <ele>167.6</ele>
        <time>2023-12-20T09:25:57Z</time>
      </trkpt>
      <trkpt lat="48.67302" lon="1.91631">
        <ele>167.6</ele>
        <time>2023-12-20T09:25:58Z</time>
      </trkpt>
      <trkpt lat="48.67307" lon="1.91625">
        <ele>167.6</ele>
        <time>2023-12-20T09:25:59Z</time>
      </trkpt>
      <trkpt lat="48.67311" lon="1.91619">
        <ele>167.6</ele>
        <time>2023-12-20T09:26:00Z</time>
      </trkpt>
      <trkpt lat="48.67316" lon="1.91613">
        <ele>167.6</ele>
        <time>2023-12-20T09:26:01Z</time>
      </trkpt>
      <trkpt lat="48.6732" lon="1.91607">
        <ele>167.6</ele>
        <time>2023-12-20T09:26:02Z</time>
      </trkpt>
      <trkpt lat="48.67325" lon="1.91601">
        <ele>167.8</ele>
        <time>2023-12-20T09:26:03Z</time>
      </trkpt>
      <trkpt lat="48.67329" lon="1.91595">
        <ele>167.8</ele>
        <time>2023-12-20T09:26:04Z</time>
      </trkpt>
      <trkpt lat="48.67334" lon="1.91589">
        <ele>167.8</ele>
        <time>2023-12-20T09:26:05Z</time>
      </trkpt>
      <trkpt lat="48.67339" lon="1.91584">
        <ele>167.8</ele>
        <time>2023-12-20T09:26:06Z</time>
      </trkpt>
      <trkpt lat="48.67344" lon="1.91578">
        <ele>167.6</ele>
        <time>2023-12-20T09:26:07Z</time>
      </trkpt>
      <trkpt lat="48.67349" lon="1.91573">
        <ele>167.6</ele>
        <time>2023-12-20T09:26:08Z</time>
      </trkpt>
      <trkpt lat="48.67354" lon="1.91567">
        <ele>167.6</ele>
        <time>2023-12-20T09:26:09Z</time>
      </trkpt>
      <trkpt lat="48.67359" lon="1.91562">
        <ele>167.6</ele>
        <time>2023-12-20T09:26:10Z</time>
      </trkpt>
      <trkpt lat="48.67364" lon="1.91557">
        <ele>167.4</ele>
        <time>2023-12-20T09:26:11Z</time>
      </trkpt>
      <trkpt lat="48.67368" lon="1.91551">
        <ele>167.4</ele>
        <time>2023-12-20T09:26:12Z</time>
      </trkpt>
      <trkpt lat="48.67373" lon="1.91546">
        <ele>167.4</ele>
        <time>2023-12-20T09:26:13Z</time>
      </trkpt>
      <trkpt lat="48.67378" lon="1.91541">
        <ele>168.2</ele>
        <time>2023-12-20T09:26:14Z</time>
      </trkpt>
      <trkpt lat="48.67383" lon="1.91536">
        <ele>168.2</ele>
        <time>2023-12-20T09:26:15Z</time>
      </trkpt>
      <trkpt lat="48.67388" lon="1.91531">
        <ele>168.2</ele>
        <time>2023-12-20T09:26:16Z</time>
      </trkpt>
      <trkpt lat="48.67394" lon="1.91527">
        <ele>168.2</ele>
        <time>2023-12-20T09:26:17Z</time>
      </trkpt>
      <trkpt lat="48.67399" lon="1.91523">
        <ele>167.4</ele>
        <time>2023-12-20T09:26:18Z</time>
      </trkpt>
      <trkpt lat="48.67405" lon="1.91519">
        <ele>167.2</ele>
        <time>2023-12-20T09:26:19Z</time>
      </trkpt>
      <trkpt lat="48.67411" lon="1.91516">
        <ele>167.2</ele>
        <time>2023-12-20T09:26:20Z</time>
      </trkpt>
      <trkpt lat="48.67417" lon="1.91514">
        <ele>167.2</ele>
        <time>2023-12-20T09:26:21Z</time>
      </trkpt>
      <trkpt lat="48.67423" lon="1.91514">
        <ele>168</ele>
        <time>2023-12-20T09:26:22Z</time>
      </trkpt>
      <trkpt lat="48.67429" lon="1.91515">
        <ele>168</ele>
        <time>2023-12-20T09:26:23Z</time>
      </trkpt>
      <trkpt lat="48.67435" lon="1.91517">
        <ele>168</ele>
        <time>2023-12-20T09:26:24Z</time>
      </trkpt>
      <trkpt lat="48.6744" lon="1.9152">
        <ele>168</ele>
        <time>2023-12-20T09:26:25Z</time>
      </trkpt>
      <trkpt lat="48.67446" lon="1.91522">
        <ele>168</ele>
        <time>2023-12-20T09:26:26Z</time>
      </trkpt>
      <trkpt lat="48.67452" lon="1.91525">
        <ele>167.6</ele>
        <time>2023-12-20T09:26:27Z</time>
      </trkpt>
      <trkpt lat="48.67458" lon="1.91528">
        <ele>167.6</ele>
        <time>2023-12-20T09:26:28Z</time>
      </trkpt>
      <trkpt lat="48.67463" lon="1.91531">
        <ele>167.6</ele>
        <time>2023-12-20T09:26:29Z</time>
      </trkpt>
      <trkpt lat="48.67469" lon="1.91533">
        <ele>167.6</ele>
        <time>2023-12-20T09:26:30Z</time>
      </trkpt>
      <trkpt lat="48.67475" lon="1.91536">
        <ele>168.2</ele>
        <time>2023-12-20T09:26:31Z</time>
      </trkpt>
      <trkpt lat="48.6748" lon="1.91538">
        <ele>168.2</ele>
        <time>2023-12-20T09:26:32Z</time>
      </trkpt>
      <trkpt lat="48.67486" lon="1.91541">
        <ele>168.2</ele>
        <time>2023-12-20T09:26:33Z</time>
      </trkpt>
      <trkpt lat="48.67491" lon="1.91543">
        <ele>168.2</ele>
        <time>2023-12-20T09:26:34Z</time>
      </trkpt>
      <trkpt lat="48.67497" lon="1.91545">
        <ele>167.8</ele>
        <time>2023-12-20T09:26:35Z</time>
      </trkpt>
      <trkpt lat="48.67503" lon="1.91547">
        <ele>167.8</ele>
        <time>2023-12-20T09:26:36Z</time>
      </trkpt>
      <trkpt lat="48.67509" lon="1.9155">
        <ele>167.8</ele>
        <time>2023-12-20T09:26:37Z</time>
      </trkpt>
      <trkpt lat="48.67514" lon="1.91552">
        <ele>168.8</ele>
        <time>2023-12-20T09:26:38Z</time>
      </trkpt>
      <trkpt lat="48.6752" lon="1.91555">
        <ele>168.8</ele>
        <time>2023-12-20T09:26:39Z</time>
      </trkpt>
      <trkpt lat="48.67526" lon="1.91557">
        <ele>168.8</ele>
        <time>2023-12-20T09:26:40Z</time>
      </trkpt>
      <trkpt lat="48.67532" lon="1.91559">
        <ele>168.8</ele>
        <time>2023-12-20T09:26:41Z</time>
      </trkpt>
      <trkpt lat="48.67538" lon="1.91561">
        <ele>168.8</ele>
        <time>2023-12-20T09:26:42Z</time>
      </trkpt>
      <trkpt lat="48.67543" lon="1.91564">
        <ele>169.2</ele>
        <time>2023-12-20T09:26:43Z</time>
      </trkpt>
      <trkpt lat="48.67549" lon="1.91567">
        <ele>169.2</ele>
        <time>2023-12-20T09:26:44Z</time>
      </trkpt>
      <trkpt lat="48.67555" lon="1.91569">
        <ele>169.2</ele>
        <time>2023-12-20T09:26:45Z</time>
      </trkpt>
      <trkpt lat="48.67561" lon="1.91572">
        <ele>169.2</ele>
        <time>2023-12-20T09:26:46Z</time>
      </trkpt>
      <trkpt lat="48.67567" lon="1.91574">
        <ele>168.6</ele>
        <time>2023-12-20T09:26:47Z</time>
      </trkpt>
      <trkpt lat="48.67573" lon="1.91576">
        <ele>168.6</ele>
        <time>2023-12-20T09:26:48Z</time>
      </trkpt>
      <trkpt lat="48.67579" lon="1.91579">
        <ele>168.6</ele>
        <time>2023-12-20T09:26:49Z</time>
      </trkpt>
      <trkpt lat="48.67584" lon="1.91581">
        <ele>168.8</ele>
        <time>2023-12-20T09:26:50Z</time>
      </trkpt>
      <trkpt lat="48.6759" lon="1.91583">
        <ele>168.6</ele>
        <time>2023-12-20T09:26:51Z</time>
      </trkpt>
      <trkpt lat="48.67596" lon="1.91586">
        <ele>168.6</ele>
        <time>2023-12-20T09:26:52Z</time>
      </trkpt>
      <trkpt lat="48.67602" lon="1.91588">
        <ele>168.6</ele>
        <time>2023-12-20T09:26:53Z</time>
      </trkpt>
      <trkpt lat="48.67607" lon="1.9159">
        <ele>169</ele>
        <time>2023-12-20T09:26:54Z</time>
      </trkpt>
      <trkpt lat="48.67613" lon="1.91592">
        <ele>168.6</ele>
        <time>2023-12-20T09:26:55Z</time>
      </trkpt>
      <trkpt lat="48.67618" lon="1.91595">
        <ele>168.6</ele>
        <time>2023-12-20T09:26:56Z</time>
      </trkpt>
      <trkpt lat="48.67624" lon="1.91597">
        <ele>168.6</ele>
        <time>2023-12-20T09:26:57Z</time>
      </trkpt>
      <trkpt lat="48.67629" lon="1.916">
        <ele>169.4</ele>
        <time>2023-12-20T09:26:58Z</time>
      </trkpt>
      <trkpt lat="48.67635" lon="1.91601">
        <ele>169.6</ele>
        <time>2023-12-20T09:26:59Z</time>
      </trkpt>
      <trkpt lat="48.6764" lon="1.91601">
        <ele>169.6</ele>
        <time>2023-12-20T09:27:00Z</time>
      </trkpt>
      <trkpt lat="48.67645" lon="1.91598">
        <ele>169.6</ele>
        <time>2023-12-20T09:27:01Z</time>
      </trkpt>
      <trkpt lat="48.67649" lon="1.91594">
        <ele>168.6</ele>
        <time>2023-12-20T09:27:02Z</time>
      </trkpt>
      <trkpt lat="48.67652" lon="1.91587">
        <ele>168</ele>
        <time>2023-12-20T09:27:03Z</time>
      </trkpt>
      <trkpt lat="48.67654" lon="1.91579">
        <ele>168</ele>
        <time>2023-12-20T09:27:04Z</time>
      </trkpt>
      <trkpt lat="48.67656" lon="1.91571">
        <ele>168</ele>
        <time>2023-12-20T09:27:05Z</time>
      </trkpt>
      <trkpt lat="48.67657" lon="1.91563">
        <ele>168.4</ele>
        <time>2023-12-20T09:27:06Z</time>
      </trkpt>
      <trkpt lat="48.67659" lon="1.91555">
        <ele>167.8</ele>
        <time>2023-12-20T09:27:07Z</time>
      </trkpt>
      <trkpt lat="48.6766" lon="1.91546">
        <ele>167.8</ele>
        <time>2023-12-20T09:27:08Z</time>
      </trkpt>
      <trkpt lat="48.67661" lon="1.91537">
        <ele>167.8</ele>
        <time>2023-12-20T09:27:09Z</time>
      </trkpt>
      <trkpt lat="48.67662" lon="1.91529">
        <ele>166.8</ele>
        <time>2023-12-20T09:27:10Z</time>
      </trkpt>
      <trkpt lat="48.67663" lon="1.9152">
        <ele>166.6</ele>
        <time>2023-12-20T09:27:11Z</time>
      </trkpt>
      <trkpt lat="48.67664" lon="1.91511">
        <ele>166.6</ele>
        <time>2023-12-20T09:27:12Z</time>
      </trkpt>
      <trkpt lat="48.67666" lon="1.91503">
        <ele>166.6</ele>
        <time>2023-12-20T09:27:13Z</time>
      </trkpt>
      <trkpt lat="48.67667" lon="1.91495">
        <ele>166.6</ele>
        <time>2023-12-20T09:27:14Z</time>
      </trkpt>
      <trkpt lat="48.67668" lon="1.91487">
        <ele>167.6</ele>
        <time>2023-12-20T09:27:15Z</time>
      </trkpt>
      <trkpt lat="48.6767" lon="1.91479">
        <ele>167.6</ele>
        <time>2023-12-20T09:27:16Z</time>
      </trkpt>
      <trkpt lat="48.67671" lon="1.91471">
        <ele>167.6</ele>
        <time>2023-12-20T09:27:17Z</time>
      </trkpt>
      <trkpt lat="48.67672" lon="1.91463">
        <ele>167.6</ele>
        <time>2023-12-20T09:27:18Z</time>
      </trkpt>
      <trkpt lat="48.67674" lon="1.91455">
        <ele>167.6</ele>
        <time>2023-12-20T09:27:19Z</time>
      </trkpt>
      <trkpt lat="48.67676" lon="1.91448">
        <ele>167.6</ele>
        <time>2023-12-20T09:27:20Z</time>
      </trkpt>
      <trkpt lat="48.67677" lon="1.9144">
        <ele>167.6</ele>
        <time>2023-12-20T09:27:21Z</time>
      </trkpt>
      <trkpt lat="48.67679" lon="1.91433">
        <ele>167.6</ele>
        <time>2023-12-20T09:27:22Z</time>
      </trkpt>
      <trkpt lat="48.6768" lon="1.91425">
        <ele>167.8</ele>
        <time>2023-12-20T09:27:23Z</time>
      </trkpt>
      <trkpt lat="48.67682" lon="1.91417">
        <ele>167.8</ele>
        <time>2023-12-20T09:27:24Z</time>
      </trkpt>
      <trkpt lat="48.67683" lon="1.91409">
        <ele>167.8</ele>
        <time>2023-12-20T09:27:25Z</time>
      </trkpt>
      <trkpt lat="48.67685" lon="1.91401">
        <ele>167.8</ele>
        <time>2023-12-20T09:27:26Z</time>
      </trkpt>
      <trkpt lat="48.67686" lon="1.91393">
        <ele>167.2</ele>
        <time>2023-12-20T09:27:27Z</time>
      </trkpt>
      <trkpt lat="48.67688" lon="1.91385">
        <ele>167.2</ele>
        <time>2023-12-20T09:27:28Z</time>
      </trkpt>
      <trkpt lat="48.67689" lon="1.91377">
        <ele>167.2</ele>
        <time>2023-12-20T09:27:29Z</time>
      </trkpt>
      <trkpt lat="48.6769" lon="1.91369">
        <ele>167.2</ele>
        <time>2023-12-20T09:27:30Z</time>
      </trkpt>
      <trkpt lat="48.67692" lon="1.9136">
        <ele>167.4</ele>
        <time>2023-12-20T09:27:31Z</time>
      </trkpt>
      <trkpt lat="48.67693" lon="1.91352">
        <ele>167.4</ele>
        <time>2023-12-20T09:27:32Z</time>
      </trkpt>
      <trkpt lat="48.67694" lon="1.91343">
        <ele>167.4</ele>
        <time>2023-12-20T09:27:33Z</time>
      </trkpt>
      <trkpt lat="48.67695" lon="1.91335">
        <ele>167.4</ele>
        <time>2023-12-20T09:27:34Z</time>
      </trkpt>
      <trkpt lat="48.67696" lon="1.91326">
        <ele>166.2</ele>
        <time>2023-12-20T09:27:35Z</time>
      </trkpt>
      <trkpt lat="48.67697" lon="1.91317">
        <ele>166.2</ele>
        <time>2023-12-20T09:27:36Z</time>
      </trkpt>
      <trkpt lat="48.67698" lon="1.91308">
        <ele>166.2</ele>
        <time>2023-12-20T09:27:37Z</time>
      </trkpt>
      <trkpt lat="48.677" lon="1.913">
        <ele>166.2</ele>
        <time>2023-12-20T09:27:38Z</time>
      </trkpt>
      <trkpt lat="48.67701" lon="1.91291">
        <ele>166</ele>
        <time>2023-12-20T09:27:39Z</time>
      </trkpt>
      <trkpt lat="48.67703" lon="1.91283">
        <ele>166</ele>
        <time>2023-12-20T09:27:40Z</time>
      </trkpt>
      <trkpt lat="48.67704" lon="1.91274">
        <ele>166</ele>
        <time>2023-12-20T09:27:41Z</time>
      </trkpt>
      <trkpt lat="48.67705" lon="1.91265">
        <ele>166.2</ele>
        <time>2023-12-20T09:27:42Z</time>
      </trkpt>
      <trkpt lat="48.67705" lon="1.91257">
        <ele>166.8</ele>
        <time>2023-12-20T09:27:43Z</time>
      </trkpt>
      <trkpt lat="48.67705" lon="1.91248">
        <ele>166.8</ele>
        <time>2023-12-20T09:27:44Z</time>
      </trkpt>
      <trkpt lat="48.67704" lon="1.91239">
        <ele>166.8</ele>
        <time>2023-12-20T09:27:45Z</time>
      </trkpt>
      <trkpt lat="48.67702" lon="1.91231">
        <ele>166</ele>
        <time>2023-12-20T09:27:46Z</time>
      </trkpt>
      <trkpt lat="48.67701" lon="1.91222">
        <ele>166.2</ele>
        <time>2023-12-20T09:27:47Z</time>
      </trkpt>
      <trkpt lat="48.677" lon="1.91213">
        <ele>166.2</ele>
        <time>2023-12-20T09:27:48Z</time>
      </trkpt>
      <trkpt lat="48.677" lon="1.91205">
        <ele>166.2</ele>
        <time>2023-12-20T09:27:49Z</time>
      </trkpt>
      <trkpt lat="48.677" lon="1.91196">
        <ele>166.2</ele>
        <time>2023-12-20T09:27:50Z</time>
      </trkpt>
      <trkpt lat="48.677" lon="1.91187">
        <ele>166.4</ele>
        <time>2023-12-20T09:27:51Z</time>
      </trkpt>
      <trkpt lat="48.677" lon="1.91179">
        <ele>166.4</ele>
        <time>2023-12-20T09:27:52Z</time>
      </trkpt>
      <trkpt lat="48.677" lon="1.9117">
        <ele>166.4</ele>
        <time>2023-12-20T09:27:53Z</time>
      </trkpt>
      <trkpt lat="48.677" lon="1.91161">
        <ele>166.4</ele>
        <time>2023-12-20T09:27:54Z</time>
      </trkpt>
      <trkpt lat="48.67699" lon="1.91152">
        <ele>166</ele>
        <time>2023-12-20T09:27:55Z</time>
      </trkpt>
      <trkpt lat="48.67699" lon="1.91143">
        <ele>166</ele>
        <time>2023-12-20T09:27:56Z</time>
      </trkpt>
      <trkpt lat="48.67698" lon="1.91134">
        <ele>166</ele>
        <time>2023-12-20T09:27:57Z</time>
      </trkpt>
      <trkpt lat="48.67698" lon="1.91125">
        <ele>165.2</ele>
        <time>2023-12-20T09:27:58Z</time>
      </trkpt>
      <trkpt lat="48.67698" lon="1.91117">
        <ele>165.2</ele>
        <time>2023-12-20T09:27:59Z</time>
      </trkpt>
      <trkpt lat="48.67698" lon="1.91108">
        <ele>165.2</ele>
        <time>2023-12-20T09:28:00Z</time>
      </trkpt>
      <trkpt lat="48.67697" lon="1.91099">
        <ele>165.2</ele>
        <time>2023-12-20T09:28:01Z</time>
      </trkpt>
      <trkpt lat="48.67697" lon="1.9109">
        <ele>165.2</ele>
        <time>2023-12-20T09:28:02Z</time>
      </trkpt>
      <trkpt lat="48.67697" lon="1.91082">
        <ele>165.2</ele>
        <time>2023-12-20T09:28:03Z</time>
      </trkpt>
      <trkpt lat="48.67697" lon="1.91073">
        <ele>165.2</ele>
        <time>2023-12-20T09:28:04Z</time>
      </trkpt>
      <trkpt lat="48.67697" lon="1.91065">
        <ele>165.2</ele>
        <time>2023-12-20T09:28:05Z</time>
      </trkpt>
      <trkpt lat="48.67697" lon="1.91056">
        <ele>165.6</ele>
        <time>2023-12-20T09:28:06Z</time>
      </trkpt>
      <trkpt lat="48.67697" lon="1.91047">
        <ele>165.8</ele>
        <time>2023-12-20T09:28:07Z</time>
      </trkpt>
      <trkpt lat="48.67697" lon="1.91039">
        <ele>165.8</ele>
        <time>2023-12-20T09:28:08Z</time>
      </trkpt>
      <trkpt lat="48.67697" lon="1.9103">
        <ele>165.8</ele>
        <time>2023-12-20T09:28:09Z</time>
      </trkpt>
      <trkpt lat="48.67697" lon="1.91022">
        <ele>166.2</ele>
        <time>2023-12-20T09:28:10Z</time>
      </trkpt>
      <trkpt lat="48.67698" lon="1.91013">
        <ele>165.6</ele>
        <time>2023-12-20T09:28:11Z</time>
      </trkpt>
      <trkpt lat="48.67698" lon="1.91005">
        <ele>165.6</ele>
        <time>2023-12-20T09:28:12Z</time>
      </trkpt>
      <trkpt lat="48.67698" lon="1.90996">
        <ele>165.6</ele>
        <time>2023-12-20T09:28:13Z</time>
      </trkpt>
      <trkpt lat="48.67699" lon="1.90988">
        <ele>165.6</ele>
        <time>2023-12-20T09:28:14Z</time>
      </trkpt>
      <trkpt lat="48.67699" lon="1.90979">
        <ele>165.4</ele>
        <time>2023-12-20T09:28:15Z</time>
      </trkpt>
      <trkpt lat="48.677" lon="1.90971">
        <ele>165.4</ele>
        <time>2023-12-20T09:28:16Z</time>
      </trkpt>
      <trkpt lat="48.677" lon="1.90963">
        <ele>165.4</ele>
        <time>2023-12-20T09:28:17Z</time>
      </trkpt>
      <trkpt lat="48.67701" lon="1.90954">
        <ele>165.4</ele>
        <time>2023-12-20T09:28:18Z</time>
      </trkpt>
      <trkpt lat="48.67701" lon="1.90946">
        <ele>165.8</ele>
        <time>2023-12-20T09:28:19Z</time>
      </trkpt>
      <trkpt lat="48.67702" lon="1.90937">
        <ele>165.8</ele>
        <time>2023-12-20T09:28:20Z</time>
      </trkpt>
      <trkpt lat="48.67703" lon="1.90929">
        <ele>165.8</ele>
        <time>2023-12-20T09:28:21Z</time>
      </trkpt>
      <trkpt lat="48.67703" lon="1.90921">
        <ele>165.8</ele>
        <time>2023-12-20T09:28:22Z</time>
      </trkpt>
      <trkpt lat="48.67704" lon="1.90913">
        <ele>166.2</ele>
        <time>2023-12-20T09:28:23Z</time>
      </trkpt>
      <trkpt lat="48.67705" lon="1.90905">
        <ele>166.2</ele>
        <time>2023-12-20T09:28:24Z</time>
      </trkpt>
      <trkpt lat="48.67706" lon="1.90896">
        <ele>166.2</ele>
        <time>2023-12-20T09:28:25Z</time>
      </trkpt>
      <trkpt lat="48.67707" lon="1.90888">
        <ele>166.2</ele>
        <time>2023-12-20T09:28:26Z</time>
      </trkpt>
      <trkpt lat="48.67708" lon="1.9088">
        <ele>166.2</ele>
        <time>2023-12-20T09:28:27Z</time>
      </trkpt>
      <trkpt lat="48.67709" lon="1.90872">
        <ele>166.2</ele>
        <time>2023-12-20T09:28:28Z</time>
      </trkpt>
      <trkpt lat="48.6771" lon="1.90864">
        <ele>166.2</ele>
        <time>2023-12-20T09:28:29Z</time>
      </trkpt>
      <trkpt lat="48.67711" lon="1.90856">
        <ele>166.2</ele>
        <time>2023-12-20T09:28:30Z</time>
      </trkpt>
      <trkpt lat="48.67712" lon="1.90848">
        <ele>166</ele>
        <time>2023-12-20T09:28:31Z</time>
      </trkpt>
      <trkpt lat="48.67713" lon="1.90841">
        <ele>166</ele>
        <time>2023-12-20T09:28:32Z</time>
      </trkpt>
      <trkpt lat="48.67714" lon="1.90833">
        <ele>166</ele>
        <time>2023-12-20T09:28:33Z</time>
      </trkpt>
      <trkpt lat="48.67715" lon="1.90826">
        <ele>166</ele>
        <time>2023-12-20T09:28:34Z</time>
      </trkpt>
      <trkpt lat="48.67716" lon="1.90819">
        <ele>166.2</ele>
        <time>2023-12-20T09:28:35Z</time>
      </trkpt>
      <trkpt lat="48.67718" lon="1.90811">
        <ele>166.2</ele>
        <time>2023-12-20T09:28:36Z</time>
      </trkpt>
      <trkpt lat="48.67719" lon="1.90803">
        <ele>166.2</ele>
        <time>2023-12-20T09:28:37Z</time>
      </trkpt>
      <trkpt lat="48.67719" lon="1.90796">
        <ele>166.6</ele>
        <time>2023-12-20T09:28:38Z</time>
      </trkpt>
      <trkpt lat="48.6772" lon="1.90788">
        <ele>167.4</ele>
        <time>2023-12-20T09:28:39Z</time>
      </trkpt>
      <trkpt lat="48.67721" lon="1.90781">
        <ele>167.4</ele>
        <time>2023-12-20T09:28:40Z</time>
      </trkpt>
      <trkpt lat="48.67723" lon="1.90773">
        <ele>167.4</ele>
        <time>2023-12-20T09:28:41Z</time>
      </trkpt>
      <trkpt lat="48.67724" lon="1.90766">
        <ele>166.6</ele>
        <time>2023-12-20T09:28:42Z</time>
      </trkpt>
      <trkpt lat="48.67725" lon="1.90758">
        <ele>165.6</ele>
        <time>2023-12-20T09:28:43Z</time>
      </trkpt>
      <trkpt lat="48.67726" lon="1.9075">
        <ele>165.6</ele>
        <time>2023-12-20T09:28:44Z</time>
      </trkpt>
      <trkpt lat="48.67727" lon="1.90742">
        <ele>165.6</ele>
        <time>2023-12-20T09:28:45Z</time>
      </trkpt>
      <trkpt lat="48.67728" lon="1.90735">
        <ele>165.6</ele>
        <time>2023-12-20T09:28:46Z</time>
      </trkpt>
      <trkpt lat="48.67729" lon="1.90727">
        <ele>165.6</ele>
        <time>2023-12-20T09:28:47Z</time>
      </trkpt>
      <trkpt lat="48.6773" lon="1.90719">
        <ele>165.6</ele>
        <time>2023-12-20T09:28:48Z</time>
      </trkpt>
      <trkpt lat="48.6773" lon="1.90712">
        <ele>165.6</ele>
        <time>2023-12-20T09:28:49Z</time>
      </trkpt>
      <trkpt lat="48.67731" lon="1.90704">
        <ele>165.6</ele>
        <time>2023-12-20T09:28:50Z</time>
      </trkpt>
      <trkpt lat="48.67732" lon="1.90696">
        <ele>165.6</ele>
        <time>2023-12-20T09:28:51Z</time>
      </trkpt>
      <trkpt lat="48.67733" lon="1.90688">
        <ele>165.6</ele>
        <time>2023-12-20T09:28:52Z</time>
      </trkpt>
      <trkpt lat="48.67734" lon="1.90681">
        <ele>165.6</ele>
        <time>2023-12-20T09:28:53Z</time>
      </trkpt>
      <trkpt lat="48.67735" lon="1.90673">
        <ele>166.2</ele>
        <time>2023-12-20T09:28:54Z</time>
      </trkpt>
      <trkpt lat="48.67736" lon="1.90665">
        <ele>165.8</ele>
        <time>2023-12-20T09:28:55Z</time>
      </trkpt>
      <trkpt lat="48.67737" lon="1.90657">
        <ele>165.8</ele>
        <time>2023-12-20T09:28:56Z</time>
      </trkpt>
      <trkpt lat="48.67738" lon="1.90649">
        <ele>165.8</ele>
        <time>2023-12-20T09:28:57Z</time>
      </trkpt>
      <trkpt lat="48.67739" lon="1.90642">
        <ele>165.8</ele>
        <time>2023-12-20T09:28:58Z</time>
      </trkpt>
      <trkpt lat="48.6774" lon="1.90634">
        <ele>166.2</ele>
        <time>2023-12-20T09:28:59Z</time>
      </trkpt>
      <trkpt lat="48.67741" lon="1.90626">
        <ele>166.2</ele>
        <time>2023-12-20T09:29:00Z</time>
      </trkpt>
      <trkpt lat="48.67742" lon="1.90618">
        <ele>166.2</ele>
        <time>2023-12-20T09:29:01Z</time>
      </trkpt>
      <trkpt lat="48.67743" lon="1.90611">
        <ele>165.2</ele>
        <time>2023-12-20T09:29:02Z</time>
      </trkpt>
      <trkpt lat="48.67744" lon="1.90603">
        <ele>165.2</ele>
        <time>2023-12-20T09:29:03Z</time>
      </trkpt>
      <trkpt lat="48.67745" lon="1.90595">
        <ele>165.2</ele>
        <time>2023-12-20T09:29:04Z</time>
      </trkpt>
      <trkpt lat="48.67746" lon="1.90587">
        <ele>165.2</ele>
        <time>2023-12-20T09:29:05Z</time>
      </trkpt>
      <trkpt lat="48.67747" lon="1.90579">
        <ele>165.4</ele>
        <time>2023-12-20T09:29:06Z</time>
      </trkpt>
      <trkpt lat="48.67748" lon="1.90572">
        <ele>165.4</ele>
        <time>2023-12-20T09:29:07Z</time>
      </trkpt>
      <trkpt lat="48.67749" lon="1.90564">
        <ele>165.4</ele>
        <time>2023-12-20T09:29:08Z</time>
      </trkpt>
      <trkpt lat="48.6775" lon="1.90556">
        <ele>165.4</ele>
        <time>2023-12-20T09:29:09Z</time>
      </trkpt>
      <trkpt lat="48.67751" lon="1.90548">
        <ele>165.8</ele>
        <time>2023-12-20T09:29:10Z</time>
      </trkpt>
      <trkpt lat="48.67752" lon="1.9054">
        <ele>165.4</ele>
        <time>2023-12-20T09:29:11Z</time>
      </trkpt>
      <trkpt lat="48.67754" lon="1.90532">
        <ele>165.4</ele>
        <time>2023-12-20T09:29:12Z</time>
      </trkpt>
      <trkpt lat="48.67755" lon="1.90525">
        <ele>165.4</ele>
        <time>2023-12-20T09:29:13Z</time>
      </trkpt>
      <trkpt lat="48.67756" lon="1.90517">
        <ele>165.4</ele>
        <time>2023-12-20T09:29:14Z</time>
      </trkpt>
      <trkpt lat="48.67757" lon="1.90509">
        <ele>164.8</ele>
        <time>2023-12-20T09:29:15Z</time>
      </trkpt>
      <trkpt lat="48.67758" lon="1.90501">
        <ele>164.8</ele>
        <time>2023-12-20T09:29:16Z</time>
      </trkpt>
      <trkpt lat="48.67759" lon="1.90493">
        <ele>164.8</ele>
        <time>2023-12-20T09:29:17Z</time>
      </trkpt>
      <trkpt lat="48.67761" lon="1.90486">
        <ele>164.8</ele>
        <time>2023-12-20T09:29:18Z</time>
      </trkpt>
      <trkpt lat="48.67762" lon="1.90478">
        <ele>164</ele>
        <time>2023-12-20T09:29:19Z</time>
      </trkpt>
      <trkpt lat="48.67763" lon="1.9047">
        <ele>164</ele>
        <time>2023-12-20T09:29:20Z</time>
      </trkpt>
      <trkpt lat="48.67764" lon="1.90463">
        <ele>164</ele>
        <time>2023-12-20T09:29:21Z</time>
      </trkpt>
      <trkpt lat="48.67765" lon="1.90455">
        <ele>164.4</ele>
        <time>2023-12-20T09:29:22Z</time>
      </trkpt>
      <trkpt lat="48.67766" lon="1.90448">
        <ele>163.8</ele>
        <time>2023-12-20T09:29:23Z</time>
      </trkpt>
      <trkpt lat="48.67767" lon="1.9044">
        <ele>163.8</ele>
        <time>2023-12-20T09:29:24Z</time>
      </trkpt>
      <trkpt lat="48.67768" lon="1.90433">
        <ele>163.8</ele>
        <time>2023-12-20T09:29:25Z</time>
      </trkpt>
      <trkpt lat="48.6777" lon="1.90425">
        <ele>164.6</ele>
        <time>2023-12-20T09:29:26Z</time>
      </trkpt>
      <trkpt lat="48.67771" lon="1.90418">
        <ele>164.4</ele>
        <time>2023-12-20T09:29:27Z</time>
      </trkpt>
      <trkpt lat="48.67772" lon="1.9041">
        <ele>164.4</ele>
        <time>2023-12-20T09:29:28Z</time>
      </trkpt>
      <trkpt lat="48.67773" lon="1.90403">
        <ele>164.4</ele>
        <time>2023-12-20T09:29:29Z</time>
      </trkpt>
      <trkpt lat="48.67774" lon="1.90395">
        <ele>165.4</ele>
        <time>2023-12-20T09:29:30Z</time>
      </trkpt>
      <trkpt lat="48.67776" lon="1.90388">
        <ele>165.2</ele>
        <time>2023-12-20T09:29:31Z</time>
      </trkpt>
      <trkpt lat="48.67777" lon="1.9038">
        <ele>165.2</ele>
        <time>2023-12-20T09:29:32Z</time>
      </trkpt>
      <trkpt lat="48.67778" lon="1.90372">
        <ele>165.2</ele>
        <time>2023-12-20T09:29:33Z</time>
      </trkpt>
      <trkpt lat="48.67779" lon="1.90364">
        <ele>165.2</ele>
        <time>2023-12-20T09:29:34Z</time>
      </trkpt>
      <trkpt lat="48.6778" lon="1.90357">
        <ele>165.2</ele>
        <time>2023-12-20T09:29:35Z</time>
      </trkpt>
      <trkpt lat="48.67781" lon="1.90349">
        <ele>165.2</ele>
        <time>2023-12-20T09:29:36Z</time>
      </trkpt>
      <trkpt lat="48.67782" lon="1.90342">
        <ele>165.2</ele>
        <time>2023-12-20T09:29:37Z</time>
      </trkpt>
      <trkpt lat="48.67783" lon="1.90334">
        <ele>165.2</ele>
        <time>2023-12-20T09:29:38Z</time>
      </trkpt>
      <trkpt lat="48.67785" lon="1.90328">
        <ele>165</ele>
        <time>2023-12-20T09:29:39Z</time>
      </trkpt>
      <trkpt lat="48.67786" lon="1.90321">
        <ele>165</ele>
        <time>2023-12-20T09:29:40Z</time>
      </trkpt>
      <trkpt lat="48.67787" lon="1.90314">
        <ele>165</ele>
        <time>2023-12-20T09:29:41Z</time>
      </trkpt>
      <trkpt lat="48.67788" lon="1.90306">
        <ele>165.6</ele>
        <time>2023-12-20T09:29:42Z</time>
      </trkpt>
      <trkpt lat="48.67789" lon="1.90299">
        <ele>167</ele>
        <time>2023-12-20T09:29:43Z</time>
      </trkpt>
      <trkpt lat="48.67791" lon="1.90292">
        <ele>167</ele>
        <time>2023-12-20T09:29:44Z</time>
      </trkpt>
      <trkpt lat="48.67792" lon="1.90284">
        <ele>167</ele>
        <time>2023-12-20T09:29:45Z</time>
      </trkpt>
      <trkpt lat="48.67793" lon="1.90277">
        <ele>166</ele>
        <time>2023-12-20T09:29:46Z</time>
      </trkpt>
      <trkpt lat="48.67794" lon="1.90269">
        <ele>167.2</ele>
        <time>2023-12-20T09:29:47Z</time>
      </trkpt>
      <trkpt lat="48.67795" lon="1.90262">
        <ele>167.2</ele>
        <time>2023-12-20T09:29:48Z</time>
      </trkpt>
      <trkpt lat="48.67796" lon="1.90254">
        <ele>167.2</ele>
        <time>2023-12-20T09:29:49Z</time>
      </trkpt>
      <trkpt lat="48.67798" lon="1.90246">
        <ele>167.2</ele>
        <time>2023-12-20T09:29:50Z</time>
      </trkpt>
      <trkpt lat="48.67799" lon="1.90239">
        <ele>164.8</ele>
        <time>2023-12-20T09:29:51Z</time>
      </trkpt>
      <trkpt lat="48.678" lon="1.90231">
        <ele>164.8</ele>
        <time>2023-12-20T09:29:52Z</time>
      </trkpt>
      <trkpt lat="48.67801" lon="1.90223">
        <ele>164.8</ele>
        <time>2023-12-20T09:29:53Z</time>
      </trkpt>
      <trkpt lat="48.67802" lon="1.90215">
        <ele>164.8</ele>
        <time>2023-12-20T09:29:54Z</time>
      </trkpt>
      <trkpt lat="48.67803" lon="1.90206">
        <ele>165.2</ele>
        <time>2023-12-20T09:29:55Z</time>
      </trkpt>
      <trkpt lat="48.67804" lon="1.90198">
        <ele>165.2</ele>
        <time>2023-12-20T09:29:56Z</time>
      </trkpt>
      <trkpt lat="48.67805" lon="1.90189">
        <ele>165.2</ele>
        <time>2023-12-20T09:29:57Z</time>
      </trkpt>
      <trkpt lat="48.67806" lon="1.90181">
        <ele>165</ele>
        <time>2023-12-20T09:29:58Z</time>
      </trkpt>
      <trkpt lat="48.67807" lon="1.90173">
        <ele>165.4</ele>
        <time>2023-12-20T09:29:59Z</time>
      </trkpt>
      <trkpt lat="48.67809" lon="1.90165">
        <ele>165.4</ele>
        <time>2023-12-20T09:30:00Z</time>
      </trkpt>
      <trkpt lat="48.6781" lon="1.90157">
        <ele>165.4</ele>
        <time>2023-12-20T09:30:01Z</time>
      </trkpt>
      <trkpt lat="48.67812" lon="1.90148">
        <ele>165.2</ele>
        <time>2023-12-20T09:30:02Z</time>
      </trkpt>
      <trkpt lat="48.67814" lon="1.90141">
        <ele>164.8</ele>
        <time>2023-12-20T09:30:03Z</time>
      </trkpt>
      <trkpt lat="48.67815" lon="1.90133">
        <ele>164.8</ele>
        <time>2023-12-20T09:30:04Z</time>
      </trkpt>
      <trkpt lat="48.67818" lon="1.90125">
        <ele>164.8</ele>
        <time>2023-12-20T09:30:05Z</time>
      </trkpt>
      <trkpt lat="48.6782" lon="1.90118">
        <ele>164.8</ele>
        <time>2023-12-20T09:30:06Z</time>
      </trkpt>
      <trkpt lat="48.67823" lon="1.9011">
        <ele>164.2</ele>
        <time>2023-12-20T09:30:07Z</time>
      </trkpt>
      <trkpt lat="48.67827" lon="1.90104">
        <ele>164.2</ele>
        <time>2023-12-20T09:30:08Z</time>
      </trkpt>
      <trkpt lat="48.6783" lon="1.90097">
        <ele>164.2</ele>
        <time>2023-12-20T09:30:09Z</time>
      </trkpt>
      <trkpt lat="48.67834" lon="1.90091">
        <ele>164.8</ele>
        <time>2023-12-20T09:30:10Z</time>
      </trkpt>
      <trkpt lat="48.67838" lon="1.90085">
        <ele>165.4</ele>
        <time>2023-12-20T09:30:11Z</time>
      </trkpt>
      <trkpt lat="48.67842" lon="1.90079">
        <ele>165.4</ele>
        <time>2023-12-20T09:30:12Z</time>
      </trkpt>
      <trkpt lat="48.67846" lon="1.90074">
        <ele>165.4</ele>
        <time>2023-12-20T09:30:13Z</time>
      </trkpt>
      <trkpt lat="48.67851" lon="1.90069">
        <ele>164.4</ele>
        <time>2023-12-20T09:30:14Z</time>
      </trkpt>
      <trkpt lat="48.67855" lon="1.90064">
        <ele>165.2</ele>
        <time>2023-12-20T09:30:15Z</time>
      </trkpt>
      <trkpt lat="48.67859" lon="1.90059">
        <ele>165.2</ele>
        <time>2023-12-20T09:30:16Z</time>
      </trkpt>
      <trkpt lat="48.67864" lon="1.90054">
        <ele>165.2</ele>
        <time>2023-12-20T09:30:17Z</time>
      </trkpt>
      <trkpt lat="48.67869" lon="1.90049">
        <ele>165.2</ele>
        <time>2023-12-20T09:30:18Z</time>
      </trkpt>
      <trkpt lat="48.67873" lon="1.90044">
        <ele>165.6</ele>
        <time>2023-12-20T09:30:19Z</time>
      </trkpt>
      <trkpt lat="48.67878" lon="1.9004">
        <ele>165.6</ele>
        <time>2023-12-20T09:30:20Z</time>
      </trkpt>
      <trkpt lat="48.67883" lon="1.90036">
        <ele>165.6</ele>
        <time>2023-12-20T09:30:21Z</time>
      </trkpt>
      <trkpt lat="48.67888" lon="1.90031">
        <ele>165.2</ele>
        <time>2023-12-20T09:30:22Z</time>
      </trkpt>
      <trkpt lat="48.67892" lon="1.90026">
        <ele>165.6</ele>
        <time>2023-12-20T09:30:23Z</time>
      </trkpt>
      <trkpt lat="48.67897" lon="1.90021">
        <ele>165.6</ele>
        <time>2023-12-20T09:30:24Z</time>
      </trkpt>
      <trkpt lat="48.67902" lon="1.90016">
        <ele>165.6</ele>
        <time>2023-12-20T09:30:25Z</time>
      </trkpt>
      <trkpt lat="48.67906" lon="1.90011">
        <ele>165.6</ele>
        <time>2023-12-20T09:30:26Z</time>
      </trkpt>
      <trkpt lat="48.67911" lon="1.90007">
        <ele>165.4</ele>
        <time>2023-12-20T09:30:27Z</time>
      </trkpt>
      <trkpt lat="48.67916" lon="1.90002">
        <ele>165.4</ele>
        <time>2023-12-20T09:30:28Z</time>
      </trkpt>
      <trkpt lat="48.67921" lon="1.89997">
        <ele>165.4</ele>
        <time>2023-12-20T09:30:29Z</time>
      </trkpt>
      <trkpt lat="48.67925" lon="1.89992">
        <ele>165.4</ele>
        <time>2023-12-20T09:30:30Z</time>
      </trkpt>
      <trkpt lat="48.6793" lon="1.89987">
        <ele>164.8</ele>
        <time>2023-12-20T09:30:31Z</time>
      </trkpt>
      <trkpt lat="48.67935" lon="1.89983">
        <ele>164.8</ele>
        <time>2023-12-20T09:30:32Z</time>
      </trkpt>
      <trkpt lat="48.67939" lon="1.89978">
        <ele>164.8</ele>
        <time>2023-12-20T09:30:33Z</time>
      </trkpt>
      <trkpt lat="48.67944" lon="1.89974">
        <ele>165.8</ele>
        <time>2023-12-20T09:30:34Z</time>
      </trkpt>
      <trkpt lat="48.67949" lon="1.89969">
        <ele>165.2</ele>
        <time>2023-12-20T09:30:35Z</time>
      </trkpt>
      <trkpt lat="48.67954" lon="1.89965">
        <ele>165.2</ele>
        <time>2023-12-20T09:30:36Z</time>
      </trkpt>
      <trkpt lat="48.67958" lon="1.8996">
        <ele>165.2</ele>
        <time>2023-12-20T09:30:37Z</time>
      </trkpt>
      <trkpt lat="48.67963" lon="1.89956">
        <ele>165.6</ele>
        <time>2023-12-20T09:30:38Z</time>
      </trkpt>
      <trkpt lat="48.67968" lon="1.89951">
        <ele>164.6</ele>
        <time>2023-12-20T09:30:39Z</time>
      </trkpt>
      <trkpt lat="48.67973" lon="1.89947">
        <ele>164.6</ele>
        <time>2023-12-20T09:30:40Z</time>
      </trkpt>
      <trkpt lat="48.67977" lon="1.89943">
        <ele>164.6</ele>
        <time>2023-12-20T09:30:41Z</time>
      </trkpt>
      <trkpt lat="48.67982" lon="1.89938">
        <ele>165.6</ele>
        <time>2023-12-20T09:30:42Z</time>
      </trkpt>
      <trkpt lat="48.67987" lon="1.89934">
        <ele>165.6</ele>
        <time>2023-12-20T09:30:43Z</time>
      </trkpt>
      <trkpt lat="48.67992" lon="1.89929">
        <ele>165.6</ele>
        <time>2023-12-20T09:30:44Z</time>
      </trkpt>
      <trkpt lat="48.67997" lon="1.89924">
        <ele>165.6</ele>
        <time>2023-12-20T09:30:45Z</time>
      </trkpt>
      <trkpt lat="48.68002" lon="1.8992">
        <ele>164.6</ele>
        <time>2023-12-20T09:30:46Z</time>
      </trkpt>
      <trkpt lat="48.68007" lon="1.89916">
        <ele>164.8</ele>
        <time>2023-12-20T09:30:47Z</time>
      </trkpt>
      <trkpt lat="48.68012" lon="1.89911">
        <ele>164.8</ele>
        <time>2023-12-20T09:30:48Z</time>
      </trkpt>
      <trkpt lat="48.68017" lon="1.89907">
        <ele>164.8</ele>
        <time>2023-12-20T09:30:49Z</time>
      </trkpt>
      <trkpt lat="48.68022" lon="1.89902">
        <ele>164.8</ele>
        <time>2023-12-20T09:30:50Z</time>
      </trkpt>
      <trkpt lat="48.68027" lon="1.89897">
        <ele>166</ele>
        <time>2023-12-20T09:30:51Z</time>
      </trkpt>
      <trkpt lat="48.68032" lon="1.89892">
        <ele>166</ele>
        <time>2023-12-20T09:30:52Z</time>
      </trkpt>
      <trkpt lat="48.68036" lon="1.89886">
        <ele>166</ele>
        <time>2023-12-20T09:30:53Z</time>
      </trkpt>
      <trkpt lat="48.6804" lon="1.8988">
        <ele>165.6</ele>
        <time>2023-12-20T09:30:54Z</time>
      </trkpt>
      <trkpt lat="48.68044" lon="1.89873">
        <ele>164.6</ele>
        <time>2023-12-20T09:30:55Z</time>
      </trkpt>
      <trkpt lat="48.68046" lon="1.89866">
        <ele>164.6</ele>
        <time>2023-12-20T09:30:56Z</time>
      </trkpt>
      <trkpt lat="48.68049" lon="1.89858">
        <ele>164.6</ele>
        <time>2023-12-20T09:30:57Z</time>
      </trkpt>
      <trkpt lat="48.68051" lon="1.8985">
        <ele>164.6</ele>
        <time>2023-12-20T09:30:58Z</time>
      </trkpt>
      <trkpt lat="48.68052" lon="1.89841">
        <ele>164.4</ele>
        <time>2023-12-20T09:30:59Z</time>
      </trkpt>
      <trkpt lat="48.68053" lon="1.89833">
        <ele>164.4</ele>
        <time>2023-12-20T09:31:00Z</time>
      </trkpt>
      <trkpt lat="48.68054" lon="1.89825">
        <ele>164.4</ele>
        <time>2023-12-20T09:31:01Z</time>
      </trkpt>
      <trkpt lat="48.68053" lon="1.89816">
        <ele>164.4</ele>
        <time>2023-12-20T09:31:02Z</time>
      </trkpt>
      <trkpt lat="48.68053" lon="1.89807">
        <ele>164.6</ele>
        <time>2023-12-20T09:31:03Z</time>
      </trkpt>
      <trkpt lat="48.68053" lon="1.89799">
        <ele>164.6</ele>
        <time>2023-12-20T09:31:04Z</time>
      </trkpt>
      <trkpt lat="48.68052" lon="1.8979">
        <ele>164.6</ele>
        <time>2023-12-20T09:31:05Z</time>
      </trkpt>
      <trkpt lat="48.68052" lon="1.89782">
        <ele>164.6</ele>
        <time>2023-12-20T09:31:06Z</time>
      </trkpt>
      <trkpt lat="48.68051" lon="1.89773">
        <ele>165.2</ele>
        <time>2023-12-20T09:31:07Z</time>
      </trkpt>
      <trkpt lat="48.68051" lon="1.89765">
        <ele>165.2</ele>
        <time>2023-12-20T09:31:08Z</time>
      </trkpt>
      <trkpt lat="48.6805" lon="1.89756">
        <ele>165.2</ele>
        <time>2023-12-20T09:31:09Z</time>
      </trkpt>
      <trkpt lat="48.6805" lon="1.89748">
        <ele>165.4</ele>
        <time>2023-12-20T09:31:10Z</time>
      </trkpt>
      <trkpt lat="48.68049" lon="1.89739">
        <ele>165.6</ele>
        <time>2023-12-20T09:31:11Z</time>
      </trkpt>
      <trkpt lat="48.68049" lon="1.89731">
        <ele>165.6</ele>
        <time>2023-12-20T09:31:12Z</time>
      </trkpt>
      <trkpt lat="48.68049" lon="1.89722">
        <ele>165.6</ele>
        <time>2023-12-20T09:31:13Z</time>
      </trkpt>
      <trkpt lat="48.68049" lon="1.89713">
        <ele>165.6</ele>
        <time>2023-12-20T09:31:14Z</time>
      </trkpt>
      <trkpt lat="48.68048" lon="1.89705">
        <ele>165.6</ele>
        <time>2023-12-20T09:31:15Z</time>
      </trkpt>
      <trkpt lat="48.68048" lon="1.89696">
        <ele>165.6</ele>
        <time>2023-12-20T09:31:16Z</time>
      </trkpt>
      <trkpt lat="48.68047" lon="1.89688">
        <ele>165.6</ele>
        <time>2023-12-20T09:31:17Z</time>
      </trkpt>
      <trkpt lat="48.68047" lon="1.89679">
        <ele>165.6</ele>
        <time>2023-12-20T09:31:18Z</time>
      </trkpt>
      <trkpt lat="48.68046" lon="1.89671">
        <ele>165.8</ele>
        <time>2023-12-20T09:31:19Z</time>
      </trkpt>
      <trkpt lat="48.68046" lon="1.89662">
        <ele>165.8</ele>
        <time>2023-12-20T09:31:20Z</time>
      </trkpt>
      <trkpt lat="48.68045" lon="1.89654">
        <ele>165.8</ele>
        <time>2023-12-20T09:31:21Z</time>
      </trkpt>
      <trkpt lat="48.68045" lon="1.89646">
        <ele>166.2</ele>
        <time>2023-12-20T09:31:22Z</time>
      </trkpt>
      <trkpt lat="48.68044" lon="1.89637">
        <ele>165.8</ele>
        <time>2023-12-20T09:31:23Z</time>
      </trkpt>
      <trkpt lat="48.68044" lon="1.89629">
        <ele>165.8</ele>
        <time>2023-12-20T09:31:24Z</time>
      </trkpt>
      <trkpt lat="48.68043" lon="1.8962">
        <ele>165.8</ele>
        <time>2023-12-20T09:31:25Z</time>
      </trkpt>
      <trkpt lat="48.68042" lon="1.89612">
        <ele>166.2</ele>
        <time>2023-12-20T09:31:26Z</time>
      </trkpt>
      <trkpt lat="48.68042" lon="1.89603">
        <ele>166</ele>
        <time>2023-12-20T09:31:27Z</time>
      </trkpt>
      <trkpt lat="48.68042" lon="1.89596">
        <ele>166</ele>
        <time>2023-12-20T09:31:28Z</time>
      </trkpt>
      <trkpt lat="48.68042" lon="1.89588">
        <ele>166</ele>
        <time>2023-12-20T09:31:29Z</time>
      </trkpt>
      <trkpt lat="48.68042" lon="1.8958">
        <ele>166</ele>
        <time>2023-12-20T09:31:30Z</time>
      </trkpt>
      <trkpt lat="48.68041" lon="1.89572">
        <ele>166.2</ele>
        <time>2023-12-20T09:31:31Z</time>
      </trkpt>
      <trkpt lat="48.6804" lon="1.89564">
        <ele>166.2</ele>
        <time>2023-12-20T09:31:32Z</time>
      </trkpt>
      <trkpt lat="48.6804" lon="1.89556">
        <ele>166.2</ele>
        <time>2023-12-20T09:31:33Z</time>
      </trkpt>
      <trkpt lat="48.68039" lon="1.89548">
        <ele>166.2</ele>
        <time>2023-12-20T09:31:34Z</time>
      </trkpt>
      <trkpt lat="48.68038" lon="1.8954">
        <ele>166.2</ele>
        <time>2023-12-20T09:31:35Z</time>
      </trkpt>
      <trkpt lat="48.68037" lon="1.89532">
        <ele>166.2</ele>
        <time>2023-12-20T09:31:36Z</time>
      </trkpt>
      <trkpt lat="48.68036" lon="1.89525">
        <ele>166.2</ele>
        <time>2023-12-20T09:31:37Z</time>
      </trkpt>
      <trkpt lat="48.68036" lon="1.89516">
        <ele>166.2</ele>
        <time>2023-12-20T09:31:38Z</time>
      </trkpt>
      <trkpt lat="48.68035" lon="1.89508">
        <ele>166.6</ele>
        <time>2023-12-20T09:31:39Z</time>
      </trkpt>
      <trkpt lat="48.68035" lon="1.89502">
        <ele>166.6</ele>
        <time>2023-12-20T09:31:40Z</time>
      </trkpt>
      <trkpt lat="48.68035" lon="1.89494">
        <ele>166.6</ele>
        <time>2023-12-20T09:31:41Z</time>
      </trkpt>
      <trkpt lat="48.68034" lon="1.89486">
        <ele>166.2</ele>
        <time>2023-12-20T09:31:42Z</time>
      </trkpt>
      <trkpt lat="48.68034" lon="1.8948">
        <ele>166.4</ele>
        <time>2023-12-20T09:31:43Z</time>
      </trkpt>
      <trkpt lat="48.68034" lon="1.89472">
        <ele>166.4</ele>
        <time>2023-12-20T09:31:44Z</time>
      </trkpt>
      <trkpt lat="48.68034" lon="1.89465">
        <ele>166.4</ele>
        <time>2023-12-20T09:31:45Z</time>
      </trkpt>
      <trkpt lat="48.68033" lon="1.89457">
        <ele>166</ele>
        <time>2023-12-20T09:31:46Z</time>
      </trkpt>
      <trkpt lat="48.68033" lon="1.8945">
        <ele>166</ele>
        <time>2023-12-20T09:31:47Z</time>
      </trkpt>
      <trkpt lat="48.68032" lon="1.89442">
        <ele>166</ele>
        <time>2023-12-20T09:31:48Z</time>
      </trkpt>
      <trkpt lat="48.68032" lon="1.89434">
        <ele>166</ele>
        <time>2023-12-20T09:31:49Z</time>
      </trkpt>
      <trkpt lat="48.68031" lon="1.89427">
        <ele>166</ele>
        <time>2023-12-20T09:31:50Z</time>
      </trkpt>
      <trkpt lat="48.68031" lon="1.89419">
        <ele>165</ele>
        <time>2023-12-20T09:31:51Z</time>
      </trkpt>
      <trkpt lat="48.68031" lon="1.89411">
        <ele>165</ele>
        <time>2023-12-20T09:31:52Z</time>
      </trkpt>
      <trkpt lat="48.68032" lon="1.89403">
        <ele>165</ele>
        <time>2023-12-20T09:31:53Z</time>
      </trkpt>
      <trkpt lat="48.68033" lon="1.89394">
        <ele>166</ele>
        <time>2023-12-20T09:31:54Z</time>
      </trkpt>
      <trkpt lat="48.68035" lon="1.89386">
        <ele>166.4</ele>
        <time>2023-12-20T09:31:55Z</time>
      </trkpt>
      <trkpt lat="48.68038" lon="1.8938">
        <ele>166.4</ele>
        <time>2023-12-20T09:31:56Z</time>
      </trkpt>
      <trkpt lat="48.68042" lon="1.89375">
        <ele>166.4</ele>
        <time>2023-12-20T09:31:57Z</time>
      </trkpt>
      <trkpt lat="48.68047" lon="1.89372">
        <ele>166.4</ele>
        <time>2023-12-20T09:31:58Z</time>
      </trkpt>
      <trkpt lat="48.68052" lon="1.89368">
        <ele>167.2</ele>
        <time>2023-12-20T09:31:59Z</time>
      </trkpt>
      <trkpt lat="48.68056" lon="1.89365">
        <ele>167.2</ele>
        <time>2023-12-20T09:32:00Z</time>
      </trkpt>
      <trkpt lat="48.68061" lon="1.89362">
        <ele>167.2</ele>
        <time>2023-12-20T09:32:01Z</time>
      </trkpt>
      <trkpt lat="48.68066" lon="1.89358">
        <ele>167.2</ele>
        <time>2023-12-20T09:32:02Z</time>
      </trkpt>
      <trkpt lat="48.6807" lon="1.89355">
        <ele>166.8</ele>
        <time>2023-12-20T09:32:03Z</time>
      </trkpt>
      <trkpt lat="48.68075" lon="1.89353">
        <ele>166.8</ele>
        <time>2023-12-20T09:32:04Z</time>
      </trkpt>
      <trkpt lat="48.6808" lon="1.8935">
        <ele>166.8</ele>
        <time>2023-12-20T09:32:05Z</time>
      </trkpt>
      <trkpt lat="48.68085" lon="1.89346">
        <ele>166.8</ele>
        <time>2023-12-20T09:32:06Z</time>
      </trkpt>
      <trkpt lat="48.68089" lon="1.89342">
        <ele>166.8</ele>
        <time>2023-12-20T09:32:07Z</time>
      </trkpt>
      <trkpt lat="48.68094" lon="1.89338">
        <ele>166.8</ele>
        <time>2023-12-20T09:32:08Z</time>
      </trkpt>
      <trkpt lat="48.68099" lon="1.89335">
        <ele>166.8</ele>
        <time>2023-12-20T09:32:09Z</time>
      </trkpt>
      <trkpt lat="48.68104" lon="1.89332">
        <ele>167.2</ele>
        <time>2023-12-20T09:32:10Z</time>
      </trkpt>
      <trkpt lat="48.68109" lon="1.89329">
        <ele>167.2</ele>
        <time>2023-12-20T09:32:11Z</time>
      </trkpt>
      <trkpt lat="48.68114" lon="1.89326">
        <ele>167.2</ele>
        <time>2023-12-20T09:32:12Z</time>
      </trkpt>
      <trkpt lat="48.68119" lon="1.89324">
        <ele>167.2</ele>
        <time>2023-12-20T09:32:13Z</time>
      </trkpt>
      <trkpt lat="48.68124" lon="1.89321">
        <ele>166.4</ele>
        <time>2023-12-20T09:32:14Z</time>
      </trkpt>
      <trkpt lat="48.68129" lon="1.89317">
        <ele>167.2</ele>
        <time>2023-12-20T09:32:15Z</time>
      </trkpt>
      <trkpt lat="48.68134" lon="1.89314">
        <ele>167.2</ele>
        <time>2023-12-20T09:32:16Z</time>
      </trkpt>
      <trkpt lat="48.68139" lon="1.8931">
        <ele>167.2</ele>
        <time>2023-12-20T09:32:17Z</time>
      </trkpt>
      <trkpt lat="48.68144" lon="1.89307">
        <ele>167.6</ele>
        <time>2023-12-20T09:32:18Z</time>
      </trkpt>
      <trkpt lat="48.68149" lon="1.89304">
        <ele>167.8</ele>
        <time>2023-12-20T09:32:19Z</time>
      </trkpt>
      <trkpt lat="48.68154" lon="1.89301">
        <ele>167.8</ele>
        <time>2023-12-20T09:32:20Z</time>
      </trkpt>
      <trkpt lat="48.68159" lon="1.89298">
        <ele>167.8</ele>
        <time>2023-12-20T09:32:21Z</time>
      </trkpt>
      <trkpt lat="48.68163" lon="1.89293">
        <ele>167.8</ele>
        <time>2023-12-20T09:32:22Z</time>
      </trkpt>
      <trkpt lat="48.68168" lon="1.89289">
        <ele>167.8</ele>
        <time>2023-12-20T09:32:23Z</time>
      </trkpt>
      <trkpt lat="48.68173" lon="1.89285">
        <ele>167.8</ele>
        <time>2023-12-20T09:32:24Z</time>
      </trkpt>
      <trkpt lat="48.68177" lon="1.8928">
        <ele>167.8</ele>
        <time>2023-12-20T09:32:25Z</time>
      </trkpt>
      <trkpt lat="48.68182" lon="1.89275">
        <ele>167.8</ele>
        <time>2023-12-20T09:32:26Z</time>
      </trkpt>
      <trkpt lat="48.68186" lon="1.89269">
        <ele>168</ele>
        <time>2023-12-20T09:32:27Z</time>
      </trkpt>
      <trkpt lat="48.68188" lon="1.89261">
        <ele>168</ele>
        <time>2023-12-20T09:32:28Z</time>
      </trkpt>
      <trkpt lat="48.6819" lon="1.89253">
        <ele>168</ele>
        <time>2023-12-20T09:32:29Z</time>
      </trkpt>
      <trkpt lat="48.68191" lon="1.89243">
        <ele>167</ele>
        <time>2023-12-20T09:32:30Z</time>
      </trkpt>
      <trkpt lat="48.68192" lon="1.89234">
        <ele>167.2</ele>
        <time>2023-12-20T09:32:31Z</time>
      </trkpt>
      <trkpt lat="48.68193" lon="1.89225">
        <ele>167.2</ele>
        <time>2023-12-20T09:32:32Z</time>
      </trkpt>
      <trkpt lat="48.68193" lon="1.89216">
        <ele>167.2</ele>
        <time>2023-12-20T09:32:33Z</time>
      </trkpt>
      <trkpt lat="48.68194" lon="1.89207">
        <ele>167.2</ele>
        <time>2023-12-20T09:32:34Z</time>
      </trkpt>
      <trkpt lat="48.68194" lon="1.89199">
        <ele>167.6</ele>
        <time>2023-12-20T09:32:35Z</time>
      </trkpt>
      <trkpt lat="48.68195" lon="1.8919">
        <ele>167.6</ele>
        <time>2023-12-20T09:32:36Z</time>
      </trkpt>
      <trkpt lat="48.68196" lon="1.89181">
        <ele>167.6</ele>
        <time>2023-12-20T09:32:37Z</time>
      </trkpt>
      <trkpt lat="48.68196" lon="1.89173">
        <ele>167.2</ele>
        <time>2023-12-20T09:32:38Z</time>
      </trkpt>
      <trkpt lat="48.68197" lon="1.89164">
        <ele>167.4</ele>
        <time>2023-12-20T09:32:39Z</time>
      </trkpt>
      <trkpt lat="48.68197" lon="1.89156">
        <ele>167.4</ele>
        <time>2023-12-20T09:32:40Z</time>
      </trkpt>
      <trkpt lat="48.68198" lon="1.89147">
        <ele>167.4</ele>
        <time>2023-12-20T09:32:41Z</time>
      </trkpt>
      <trkpt lat="48.68198" lon="1.89138">
        <ele>167.6</ele>
        <time>2023-12-20T09:32:42Z</time>
      </trkpt>
      <trkpt lat="48.68199" lon="1.8913">
        <ele>167.6</ele>
        <time>2023-12-20T09:32:43Z</time>
      </trkpt>
      <trkpt lat="48.68199" lon="1.89121">
        <ele>167.6</ele>
        <time>2023-12-20T09:32:44Z</time>
      </trkpt>
      <trkpt lat="48.682" lon="1.89112">
        <ele>167.6</ele>
        <time>2023-12-20T09:32:45Z</time>
      </trkpt>
      <trkpt lat="48.682" lon="1.89104">
        <ele>167.6</ele>
        <time>2023-12-20T09:32:46Z</time>
      </trkpt>
      <trkpt lat="48.68201" lon="1.89095">
        <ele>167.2</ele>
        <time>2023-12-20T09:32:47Z</time>
      </trkpt>
      <trkpt lat="48.68201" lon="1.89086">
        <ele>167.2</ele>
        <time>2023-12-20T09:32:48Z</time>
      </trkpt>
      <trkpt lat="48.68202" lon="1.89077">
        <ele>167.2</ele>
        <time>2023-12-20T09:32:49Z</time>
      </trkpt>
      <trkpt lat="48.68202" lon="1.89068">
        <ele>167.2</ele>
        <time>2023-12-20T09:32:50Z</time>
      </trkpt>
      <trkpt lat="48.68203" lon="1.89059">
        <ele>166.8</ele>
        <time>2023-12-20T09:32:51Z</time>
      </trkpt>
      <trkpt lat="48.68203" lon="1.8905">
        <ele>166.8</ele>
        <time>2023-12-20T09:32:52Z</time>
      </trkpt>
      <trkpt lat="48.68204" lon="1.89041">
        <ele>166.8</ele>
        <time>2023-12-20T09:32:53Z</time>
      </trkpt>
      <trkpt lat="48.68204" lon="1.89032">
        <ele>167.2</ele>
        <time>2023-12-20T09:32:54Z</time>
      </trkpt>
      <trkpt lat="48.68205" lon="1.89024">
        <ele>166.6</ele>
        <time>2023-12-20T09:32:55Z</time>
      </trkpt>
      <trkpt lat="48.68205" lon="1.89015">
        <ele>166.6</ele>
        <time>2023-12-20T09:32:56Z</time>
      </trkpt>
      <trkpt lat="48.68206" lon="1.89006">
        <ele>166.6</ele>
        <time>2023-12-20T09:32:57Z</time>
      </trkpt>
      <trkpt lat="48.68206" lon="1.88997">
        <ele>166.6</ele>
        <time>2023-12-20T09:32:58Z</time>
      </trkpt>
      <trkpt lat="48.68207" lon="1.88989">
        <ele>167.6</ele>
        <time>2023-12-20T09:32:59Z</time>
      </trkpt>
      <trkpt lat="48.68207" lon="1.8898">
        <ele>167.6</ele>
        <time>2023-12-20T09:33:00Z</time>
      </trkpt>
      <trkpt lat="48.68208" lon="1.88971">
        <ele>167.6</ele>
        <time>2023-12-20T09:33:01Z</time>
      </trkpt>
      <trkpt lat="48.68208" lon="1.88962">
        <ele>167.6</ele>
        <time>2023-12-20T09:33:02Z</time>
      </trkpt>
      <trkpt lat="48.68209" lon="1.88953">
        <ele>167.4</ele>
        <time>2023-12-20T09:33:03Z</time>
      </trkpt>
      <trkpt lat="48.68209" lon="1.88944">
        <ele>167.4</ele>
        <time>2023-12-20T09:33:04Z</time>
      </trkpt>
      <trkpt lat="48.6821" lon="1.88935">
        <ele>167.4</ele>
        <time>2023-12-20T09:33:05Z</time>
      </trkpt>
      <trkpt lat="48.6821" lon="1.88926">
        <ele>167.4</ele>
        <time>2023-12-20T09:33:06Z</time>
      </trkpt>
      <trkpt lat="48.68211" lon="1.88917">
        <ele>166.8</ele>
        <time>2023-12-20T09:33:07Z</time>
      </trkpt>
      <trkpt lat="48.68212" lon="1.88907">
        <ele>166.8</ele>
        <time>2023-12-20T09:33:08Z</time>
      </trkpt>
      <trkpt lat="48.68212" lon="1.88898">
        <ele>166.8</ele>
        <time>2023-12-20T09:33:09Z</time>
      </trkpt>
      <trkpt lat="48.68213" lon="1.88889">
        <ele>166.8</ele>
        <time>2023-12-20T09:33:10Z</time>
      </trkpt>
      <trkpt lat="48.68213" lon="1.8888">
        <ele>167.4</ele>
        <time>2023-12-20T09:33:11Z</time>
      </trkpt>
      <trkpt lat="48.68214" lon="1.88871">
        <ele>167.4</ele>
        <time>2023-12-20T09:33:12Z</time>
      </trkpt>
      <trkpt lat="48.68214" lon="1.88862">
        <ele>167.4</ele>
        <time>2023-12-20T09:33:13Z</time>
      </trkpt>
      <trkpt lat="48.68215" lon="1.88853">
        <ele>167</ele>
        <time>2023-12-20T09:33:14Z</time>
      </trkpt>
      <trkpt lat="48.68216" lon="1.88844">
        <ele>166.6</ele>
        <time>2023-12-20T09:33:15Z</time>
      </trkpt>
      <trkpt lat="48.68216" lon="1.88835">
        <ele>166.6</ele>
        <time>2023-12-20T09:33:16Z</time>
      </trkpt>
      <trkpt lat="48.68217" lon="1.88826">
        <ele>166.6</ele>
        <time>2023-12-20T09:33:17Z</time>
      </trkpt>
      <trkpt lat="48.68217" lon="1.88818">
        <ele>166.6</ele>
        <time>2023-12-20T09:33:18Z</time>
      </trkpt>
      <trkpt lat="48.68218" lon="1.88809">
        <ele>167.2</ele>
        <time>2023-12-20T09:33:19Z</time>
      </trkpt>
      <trkpt lat="48.68218" lon="1.888">
        <ele>167.2</ele>
        <time>2023-12-20T09:33:20Z</time>
      </trkpt>
      <trkpt lat="48.68219" lon="1.8879">
        <ele>167.2</ele>
        <time>2023-12-20T09:33:21Z</time>
      </trkpt>
      <trkpt lat="48.6822" lon="1.88781">
        <ele>167.2</ele>
        <time>2023-12-20T09:33:22Z</time>
      </trkpt>
      <trkpt lat="48.6822" lon="1.88772">
        <ele>167</ele>
        <time>2023-12-20T09:33:23Z</time>
      </trkpt>
      <trkpt lat="48.68221" lon="1.88763">
        <ele>167</ele>
        <time>2023-12-20T09:33:24Z</time>
      </trkpt>
      <trkpt lat="48.68221" lon="1.88754">
        <ele>167</ele>
        <time>2023-12-20T09:33:25Z</time>
      </trkpt>
      <trkpt lat="48.68222" lon="1.88745">
        <ele>166</ele>
        <time>2023-12-20T09:33:26Z</time>
      </trkpt>
      <trkpt lat="48.68223" lon="1.88736">
        <ele>164.4</ele>
        <time>2023-12-20T09:33:27Z</time>
      </trkpt>
      <trkpt lat="48.68223" lon="1.88727">
        <ele>164.4</ele>
        <time>2023-12-20T09:33:28Z</time>
      </trkpt>
      <trkpt lat="48.68224" lon="1.88718">
        <ele>164.4</ele>
        <time>2023-12-20T09:33:29Z</time>
      </trkpt>
      <trkpt lat="48.68225" lon="1.88709">
        <ele>164.8</ele>
        <time>2023-12-20T09:33:30Z</time>
      </trkpt>
      <trkpt lat="48.68225" lon="1.887">
        <ele>165.2</ele>
        <time>2023-12-20T09:33:31Z</time>
      </trkpt>
      <trkpt lat="48.68226" lon="1.88691">
        <ele>165.2</ele>
        <time>2023-12-20T09:33:32Z</time>
      </trkpt>
      <trkpt lat="48.68226" lon="1.88682">
        <ele>165.2</ele>
        <time>2023-12-20T09:33:33Z</time>
      </trkpt>
      <trkpt lat="48.68227" lon="1.88673">
        <ele>165.8</ele>
        <time>2023-12-20T09:33:34Z</time>
      </trkpt>
      <trkpt lat="48.68228" lon="1.88664">
        <ele>165.4</ele>
        <time>2023-12-20T09:33:35Z</time>
      </trkpt>
      <trkpt lat="48.68228" lon="1.88656">
        <ele>165.4</ele>
        <time>2023-12-20T09:33:36Z</time>
      </trkpt>
      <trkpt lat="48.68229" lon="1.88647">
        <ele>165.4</ele>
        <time>2023-12-20T09:33:37Z</time>
      </trkpt>
      <trkpt lat="48.68229" lon="1.88638">
        <ele>165.4</ele>
        <time>2023-12-20T09:33:38Z</time>
      </trkpt>
      <trkpt lat="48.6823" lon="1.88629">
        <ele>165</ele>
        <time>2023-12-20T09:33:39Z</time>
      </trkpt>
      <trkpt lat="48.6823" lon="1.88621">
        <ele>165</ele>
        <time>2023-12-20T09:33:40Z</time>
      </trkpt>
      <trkpt lat="48.68231" lon="1.88612">
        <ele>165</ele>
        <time>2023-12-20T09:33:41Z</time>
      </trkpt>
      <trkpt lat="48.68231" lon="1.88603">
        <ele>165.2</ele>
        <time>2023-12-20T09:33:42Z</time>
      </trkpt>
      <trkpt lat="48.68232" lon="1.88594">
        <ele>165.2</ele>
        <time>2023-12-20T09:33:43Z</time>
      </trkpt>
      <trkpt lat="48.68232" lon="1.88586">
        <ele>165.2</ele>
        <time>2023-12-20T09:33:44Z</time>
      </trkpt>
      <trkpt lat="48.68233" lon="1.88577">
        <ele>165.2</ele>
        <time>2023-12-20T09:33:45Z</time>
      </trkpt>
      <trkpt lat="48.68233" lon="1.88568">
        <ele>164.2</ele>
        <time>2023-12-20T09:33:46Z</time>
      </trkpt>
      <trkpt lat="48.68234" lon="1.88559">
        <ele>164.8</ele>
        <time>2023-12-20T09:33:47Z</time>
      </trkpt>
      <trkpt lat="48.68234" lon="1.8855">
        <ele>164.8</ele>
        <time>2023-12-20T09:33:48Z</time>
      </trkpt>
      <trkpt lat="48.68234" lon="1.88542">
        <ele>164.8</ele>
        <time>2023-12-20T09:33:49Z</time>
      </trkpt>
      <trkpt lat="48.68235" lon="1.88533">
        <ele>165.8</ele>
        <time>2023-12-20T09:33:50Z</time>
      </trkpt>
      <trkpt lat="48.68235" lon="1.88524">
        <ele>166.2</ele>
        <time>2023-12-20T09:33:51Z</time>
      </trkpt>
      <trkpt lat="48.68235" lon="1.88515">
        <ele>166.2</ele>
        <time>2023-12-20T09:33:52Z</time>
      </trkpt>
      <trkpt lat="48.68235" lon="1.88507">
        <ele>166.2</ele>
        <time>2023-12-20T09:33:53Z</time>
      </trkpt>
      <trkpt lat="48.68235" lon="1.88498">
        <ele>166.2</ele>
        <time>2023-12-20T09:33:54Z</time>
      </trkpt>
      <trkpt lat="48.68236" lon="1.88489">
        <ele>166</ele>
        <time>2023-12-20T09:33:55Z</time>
      </trkpt>
      <trkpt lat="48.68236" lon="1.8848">
        <ele>166</ele>
        <time>2023-12-20T09:33:56Z</time>
      </trkpt>
      <trkpt lat="48.68236" lon="1.8847">
        <ele>166</ele>
        <time>2023-12-20T09:33:57Z</time>
      </trkpt>
      <trkpt lat="48.68237" lon="1.88461">
        <ele>166.2</ele>
        <time>2023-12-20T09:33:58Z</time>
      </trkpt>
      <trkpt lat="48.68237" lon="1.88452">
        <ele>166</ele>
        <time>2023-12-20T09:33:59Z</time>
      </trkpt>
      <trkpt lat="48.68237" lon="1.88442">
        <ele>166</ele>
        <time>2023-12-20T09:34:00Z</time>
      </trkpt>
      <trkpt lat="48.68237" lon="1.88433">
        <ele>166</ele>
        <time>2023-12-20T09:34:01Z</time>
      </trkpt>
      <trkpt lat="48.68237" lon="1.88423">
        <ele>165.4</ele>
        <time>2023-12-20T09:34:02Z</time>
      </trkpt>
      <trkpt lat="48.68237" lon="1.88414">
        <ele>165.2</ele>
        <time>2023-12-20T09:34:03Z</time>
      </trkpt>
      <trkpt lat="48.68237" lon="1.88405">
        <ele>165.2</ele>
        <time>2023-12-20T09:34:04Z</time>
      </trkpt>
      <trkpt lat="48.68237" lon="1.88395">
        <ele>165.2</ele>
        <time>2023-12-20T09:34:05Z</time>
      </trkpt>
      <trkpt lat="48.68237" lon="1.88386">
        <ele>165.2</ele>
        <time>2023-12-20T09:34:06Z</time>
      </trkpt>
      <trkpt lat="48.68237" lon="1.88376">
        <ele>164.8</ele>
        <time>2023-12-20T09:34:07Z</time>
      </trkpt>
      <trkpt lat="48.68238" lon="1.88367">
        <ele>164.8</ele>
        <time>2023-12-20T09:34:08Z</time>
      </trkpt>
      <trkpt lat="48.68238" lon="1.88357">
        <ele>164.8</ele>
        <time>2023-12-20T09:34:09Z</time>
      </trkpt>
      <trkpt lat="48.68238" lon="1.88348">
        <ele>164.8</ele>
        <time>2023-12-20T09:34:10Z</time>
      </trkpt>
      <trkpt lat="48.68238" lon="1.88339">
        <ele>165</ele>
        <time>2023-12-20T09:34:11Z</time>
      </trkpt>
      <trkpt lat="48.68238" lon="1.8833">
        <ele>165</ele>
        <time>2023-12-20T09:34:12Z</time>
      </trkpt>
      <trkpt lat="48.68238" lon="1.8832">
        <ele>165</ele>
        <time>2023-12-20T09:34:13Z</time>
      </trkpt>
      <trkpt lat="48.68238" lon="1.88311">
        <ele>165</ele>
        <time>2023-12-20T09:34:14Z</time>
      </trkpt>
      <trkpt lat="48.68238" lon="1.88302">
        <ele>164.8</ele>
        <time>2023-12-20T09:34:15Z</time>
      </trkpt>
      <trkpt lat="48.68238" lon="1.88293">
        <ele>164.8</ele>
        <time>2023-12-20T09:34:16Z</time>
      </trkpt>
      <trkpt lat="48.68238" lon="1.88285">
        <ele>164.8</ele>
        <time>2023-12-20T09:34:17Z</time>
      </trkpt>
      <trkpt lat="48.68238" lon="1.88276">
        <ele>165.2</ele>
        <time>2023-12-20T09:34:18Z</time>
      </trkpt>
      <trkpt lat="48.68238" lon="1.88267">
        <ele>165.4</ele>
        <time>2023-12-20T09:34:19Z</time>
      </trkpt>
      <trkpt lat="48.68238" lon="1.88258">
        <ele>165.4</ele>
        <time>2023-12-20T09:34:20Z</time>
      </trkpt>
      <trkpt lat="48.68238" lon="1.88249">
        <ele>165.4</ele>
        <time>2023-12-20T09:34:21Z</time>
      </trkpt>
      <trkpt lat="48.68238" lon="1.8824">
        <ele>165.8</ele>
        <time>2023-12-20T09:34:22Z</time>
      </trkpt>
      <trkpt lat="48.68238" lon="1.88231">
        <ele>166.2</ele>
        <time>2023-12-20T09:34:23Z</time>
      </trkpt>
      <trkpt lat="48.68239" lon="1.88222">
        <ele>166.2</ele>
        <time>2023-12-20T09:34:24Z</time>
      </trkpt>
      <trkpt lat="48.68238" lon="1.88213">
        <ele>166.2</ele>
        <time>2023-12-20T09:34:25Z</time>
      </trkpt>
      <trkpt lat="48.68239" lon="1.88204">
        <ele>165.2</ele>
        <time>2023-12-20T09:34:26Z</time>
      </trkpt>
      <trkpt lat="48.68239" lon="1.88195">
        <ele>164.6</ele>
        <time>2023-12-20T09:34:27Z</time>
      </trkpt>
      <trkpt lat="48.68239" lon="1.88186">
        <ele>164.6</ele>
        <time>2023-12-20T09:34:28Z</time>
      </trkpt>
      <trkpt lat="48.68239" lon="1.88177">
        <ele>164.6</ele>
        <time>2023-12-20T09:34:29Z</time>
      </trkpt>
      <trkpt lat="48.68239" lon="1.88168">
        <ele>165.6</ele>
        <time>2023-12-20T09:34:30Z</time>
      </trkpt>
      <trkpt lat="48.6824" lon="1.88159">
        <ele>165.2</ele>
        <time>2023-12-20T09:34:31Z</time>
      </trkpt>
      <trkpt lat="48.6824" lon="1.88149">
        <ele>165.2</ele>
        <time>2023-12-20T09:34:32Z</time>
      </trkpt>
      <trkpt lat="48.6824" lon="1.8814">
        <ele>165.2</ele>
        <time>2023-12-20T09:34:33Z</time>
      </trkpt>
      <trkpt lat="48.68241" lon="1.88131">
        <ele>165.2</ele>
        <time>2023-12-20T09:34:34Z</time>
      </trkpt>
      <trkpt lat="48.68241" lon="1.88121">
        <ele>165.4</ele>
        <time>2023-12-20T09:34:35Z</time>
      </trkpt>
      <trkpt lat="48.68242" lon="1.88112">
        <ele>165.4</ele>
        <time>2023-12-20T09:34:36Z</time>
      </trkpt>
      <trkpt lat="48.68242" lon="1.88102">
        <ele>165.4</ele>
        <time>2023-12-20T09:34:37Z</time>
      </trkpt>
      <trkpt lat="48.68243" lon="1.88093">
        <ele>164.4</ele>
        <time>2023-12-20T09:34:38Z</time>
      </trkpt>
      <trkpt lat="48.68245" lon="1.88084">
        <ele>163.8</ele>
        <time>2023-12-20T09:34:39Z</time>
      </trkpt>
      <trkpt lat="48.68246" lon="1.88075">
        <ele>163.8</ele>
        <time>2023-12-20T09:34:40Z</time>
      </trkpt>
      <trkpt lat="48.68248" lon="1.88065">
        <ele>163.8</ele>
        <time>2023-12-20T09:34:41Z</time>
      </trkpt>
      <trkpt lat="48.68249" lon="1.88056">
        <ele>163.8</ele>
        <time>2023-12-20T09:34:42Z</time>
      </trkpt>
      <trkpt lat="48.68251" lon="1.88047">
        <ele>162.2</ele>
        <time>2023-12-20T09:34:43Z</time>
      </trkpt>
      <trkpt lat="48.68253" lon="1.88039">
        <ele>162.2</ele>
        <time>2023-12-20T09:34:44Z</time>
      </trkpt>
      <trkpt lat="48.68255" lon="1.88031">
        <ele>162.2</ele>
        <time>2023-12-20T09:34:45Z</time>
      </trkpt>
      <trkpt lat="48.68257" lon="1.88023">
        <ele>163.2</ele>
        <time>2023-12-20T09:34:46Z</time>
      </trkpt>
      <trkpt lat="48.6826" lon="1.88014">
        <ele>161.2</ele>
        <time>2023-12-20T09:34:47Z</time>
      </trkpt>
      <trkpt lat="48.68262" lon="1.88006">
        <ele>161.2</ele>
        <time>2023-12-20T09:34:48Z</time>
      </trkpt>
      <trkpt lat="48.68265" lon="1.87998">
        <ele>161.2</ele>
        <time>2023-12-20T09:34:49Z</time>
      </trkpt>
      <trkpt lat="48.68267" lon="1.87991">
        <ele>162.2</ele>
        <time>2023-12-20T09:34:50Z</time>
      </trkpt>
      <trkpt lat="48.6827" lon="1.87983">
        <ele>164.6</ele>
        <time>2023-12-20T09:34:51Z</time>
      </trkpt>
      <trkpt lat="48.68272" lon="1.87976">
        <ele>164.6</ele>
        <time>2023-12-20T09:34:52Z</time>
      </trkpt>
      <trkpt lat="48.68275" lon="1.87968">
        <ele>164.6</ele>
        <time>2023-12-20T09:34:53Z</time>
      </trkpt>
      <trkpt lat="48.68278" lon="1.87961">
        <ele>164.6</ele>
        <time>2023-12-20T09:34:54Z</time>
      </trkpt>
      <trkpt lat="48.68281" lon="1.87954">
        <ele>164</ele>
        <time>2023-12-20T09:34:55Z</time>
      </trkpt>
      <trkpt lat="48.68283" lon="1.87946">
        <ele>164</ele>
        <time>2023-12-20T09:34:56Z</time>
      </trkpt>
      <trkpt lat="48.68286" lon="1.87939">
        <ele>164</ele>
        <time>2023-12-20T09:34:57Z</time>
      </trkpt>
      <trkpt lat="48.68289" lon="1.87932">
        <ele>165</ele>
        <time>2023-12-20T09:34:58Z</time>
      </trkpt>
      <trkpt lat="48.68292" lon="1.87924">
        <ele>164.8</ele>
        <time>2023-12-20T09:34:59Z</time>
      </trkpt>
      <trkpt lat="48.68295" lon="1.87917">
        <ele>164.8</ele>
        <time>2023-12-20T09:35:00Z</time>
      </trkpt>
      <trkpt lat="48.68298" lon="1.87909">
        <ele>164.8</ele>
        <time>2023-12-20T09:35:01Z</time>
      </trkpt>
      <trkpt lat="48.68301" lon="1.87901">
        <ele>164.6</ele>
        <time>2023-12-20T09:35:02Z</time>
      </trkpt>
      <trkpt lat="48.68303" lon="1.87894">
        <ele>164.2</ele>
        <time>2023-12-20T09:35:03Z</time>
      </trkpt>
      <trkpt lat="48.68306" lon="1.87887">
        <ele>164.2</ele>
        <time>2023-12-20T09:35:04Z</time>
      </trkpt>
      <trkpt lat="48.68309" lon="1.87879">
        <ele>164.2</ele>
        <time>2023-12-20T09:35:05Z</time>
      </trkpt>
      <trkpt lat="48.68312" lon="1.87872">
        <ele>164.2</ele>
        <time>2023-12-20T09:35:06Z</time>
      </trkpt>
      <trkpt lat="48.68315" lon="1.87864">
        <ele>164.6</ele>
        <time>2023-12-20T09:35:07Z</time>
      </trkpt>
      <trkpt lat="48.68318" lon="1.87857">
        <ele>164.6</ele>
        <time>2023-12-20T09:35:08Z</time>
      </trkpt>
      <trkpt lat="48.68321" lon="1.87849">
        <ele>164.6</ele>
        <time>2023-12-20T09:35:09Z</time>
      </trkpt>
      <trkpt lat="48.68324" lon="1.87842">
        <ele>165.2</ele>
        <time>2023-12-20T09:35:10Z</time>
      </trkpt>
      <trkpt lat="48.68327" lon="1.87834">
        <ele>164.6</ele>
        <time>2023-12-20T09:35:11Z</time>
      </trkpt>
      <trkpt lat="48.6833" lon="1.87826">
        <ele>164.6</ele>
        <time>2023-12-20T09:35:12Z</time>
      </trkpt>
      <trkpt lat="48.68333" lon="1.87818">
        <ele>164.6</ele>
        <time>2023-12-20T09:35:13Z</time>
      </trkpt>
      <trkpt lat="48.68336" lon="1.8781">
        <ele>164.6</ele>
        <time>2023-12-20T09:35:14Z</time>
      </trkpt>
      <trkpt lat="48.68339" lon="1.87803">
        <ele>164.4</ele>
        <time>2023-12-20T09:35:15Z</time>
      </trkpt>
      <trkpt lat="48.68342" lon="1.87795">
        <ele>164.4</ele>
        <time>2023-12-20T09:35:16Z</time>
      </trkpt>
      <trkpt lat="48.68345" lon="1.87787">
        <ele>164.4</ele>
        <time>2023-12-20T09:35:17Z</time>
      </trkpt>
      <trkpt lat="48.68347" lon="1.87779">
        <ele>164.4</ele>
        <time>2023-12-20T09:35:18Z</time>
      </trkpt>
      <trkpt lat="48.6835" lon="1.87771">
        <ele>164.6</ele>
        <time>2023-12-20T09:35:19Z</time>
      </trkpt>
      <trkpt lat="48.68353" lon="1.87762">
        <ele>164.6</ele>
        <time>2023-12-20T09:35:20Z</time>
      </trkpt>
      <trkpt lat="48.68356" lon="1.87754">
        <ele>164.6</ele>
        <time>2023-12-20T09:35:21Z</time>
      </trkpt>
      <trkpt lat="48.68359" lon="1.87747">
        <ele>164.2</ele>
        <time>2023-12-20T09:35:22Z</time>
      </trkpt>
      <trkpt lat="48.68362" lon="1.87739">
        <ele>165.2</ele>
        <time>2023-12-20T09:35:23Z</time>
      </trkpt>
      <trkpt lat="48.68365" lon="1.87731">
        <ele>165.2</ele>
        <time>2023-12-20T09:35:24Z</time>
      </trkpt>
      <trkpt lat="48.68368" lon="1.87724">
        <ele>165.2</ele>
        <time>2023-12-20T09:35:25Z</time>
      </trkpt>
      <trkpt lat="48.68371" lon="1.87716">
        <ele>164.2</ele>
        <time>2023-12-20T09:35:26Z</time>
      </trkpt>
      <trkpt lat="48.68374" lon="1.87709">
        <ele>164.2</ele>
        <time>2023-12-20T09:35:27Z</time>
      </trkpt>
      <trkpt lat="48.68377" lon="1.87701">
        <ele>164.2</ele>
        <time>2023-12-20T09:35:28Z</time>
      </trkpt>
      <trkpt lat="48.6838" lon="1.87694">
        <ele>164.2</ele>
        <time>2023-12-20T09:35:29Z</time>
      </trkpt>
      <trkpt lat="48.68383" lon="1.87687">
        <ele>164.6</ele>
        <time>2023-12-20T09:35:30Z</time>
      </trkpt>
      <trkpt lat="48.68386" lon="1.8768">
        <ele>165.2</ele>
        <time>2023-12-20T09:35:31Z</time>
      </trkpt>
      <trkpt lat="48.68388" lon="1.87672">
        <ele>165.2</ele>
        <time>2023-12-20T09:35:32Z</time>
      </trkpt>
      <trkpt lat="48.68391" lon="1.87665">
        <ele>165.2</ele>
        <time>2023-12-20T09:35:33Z</time>
      </trkpt>
      <trkpt lat="48.68394" lon="1.87658">
        <ele>165.2</ele>
        <time>2023-12-20T09:35:34Z</time>
      </trkpt>
      <trkpt lat="48.68397" lon="1.87651">
        <ele>165.6</ele>
        <time>2023-12-20T09:35:35Z</time>
      </trkpt>
      <trkpt lat="48.684" lon="1.87644">
        <ele>165.6</ele>
        <time>2023-12-20T09:35:36Z</time>
      </trkpt>
      <trkpt lat="48.68403" lon="1.87636">
        <ele>165.6</ele>
        <time>2023-12-20T09:35:37Z</time>
      </trkpt>
      <trkpt lat="48.68405" lon="1.87629">
        <ele>166.4</ele>
        <time>2023-12-20T09:35:38Z</time>
      </trkpt>
      <trkpt lat="48.68408" lon="1.87621">
        <ele>166</ele>
        <time>2023-12-20T09:35:39Z</time>
      </trkpt>
      <trkpt lat="48.68411" lon="1.87614">
        <ele>166</ele>
        <time>2023-12-20T09:35:40Z</time>
      </trkpt>
      <trkpt lat="48.68414" lon="1.87606">
        <ele>166</ele>
        <time>2023-12-20T09:35:41Z</time>
      </trkpt>
      <trkpt lat="48.68417" lon="1.87598">
        <ele>165</ele>
        <time>2023-12-20T09:35:42Z</time>
      </trkpt>
      <trkpt lat="48.68419" lon="1.87589">
        <ele>164.2</ele>
        <time>2023-12-20T09:35:43Z</time>
      </trkpt>
      <trkpt lat="48.68422" lon="1.87581">
        <ele>164.2</ele>
        <time>2023-12-20T09:35:44Z</time>
      </trkpt>
      <trkpt lat="48.68424" lon="1.87573">
        <ele>164.2</ele>
        <time>2023-12-20T09:35:45Z</time>
      </trkpt>
      <trkpt lat="48.68426" lon="1.87564">
        <ele>164.2</ele>
        <time>2023-12-20T09:35:46Z</time>
      </trkpt>
      <trkpt lat="48.68428" lon="1.87555">
        <ele>164.2</ele>
        <time>2023-12-20T09:35:47Z</time>
      </trkpt>
      <trkpt lat="48.68429" lon="1.87547">
        <ele>164.2</ele>
        <time>2023-12-20T09:35:48Z</time>
      </trkpt>
      <trkpt lat="48.68431" lon="1.87538">
        <ele>164.2</ele>
        <time>2023-12-20T09:35:49Z</time>
      </trkpt>
      <trkpt lat="48.68433" lon="1.87529">
        <ele>164.8</ele>
        <time>2023-12-20T09:35:50Z</time>
      </trkpt>
      <trkpt lat="48.68434" lon="1.8752">
        <ele>165</ele>
        <time>2023-12-20T09:35:51Z</time>
      </trkpt>
      <trkpt lat="48.68436" lon="1.87512">
        <ele>165</ele>
        <time>2023-12-20T09:35:52Z</time>
      </trkpt>
      <trkpt lat="48.68437" lon="1.87503">
        <ele>165</ele>
        <time>2023-12-20T09:35:53Z</time>
      </trkpt>
      <trkpt lat="48.68439" lon="1.87494">
        <ele>165</ele>
        <time>2023-12-20T09:35:54Z</time>
      </trkpt>
      <trkpt lat="48.6844" lon="1.87485">
        <ele>163.6</ele>
        <time>2023-12-20T09:35:55Z</time>
      </trkpt>
      <trkpt lat="48.68442" lon="1.87475">
        <ele>163.6</ele>
        <time>2023-12-20T09:35:56Z</time>
      </trkpt>
      <trkpt lat="48.68444" lon="1.87466">
        <ele>163.6</ele>
        <time>2023-12-20T09:35:57Z</time>
      </trkpt>
      <trkpt lat="48.68445" lon="1.87457">
        <ele>163.8</ele>
        <time>2023-12-20T09:35:58Z</time>
      </trkpt>
      <trkpt lat="48.68447" lon="1.87447">
        <ele>163.4</ele>
        <time>2023-12-20T09:35:59Z</time>
      </trkpt>
      <trkpt lat="48.68448" lon="1.87438">
        <ele>163.4</ele>
        <time>2023-12-20T09:36:00Z</time>
      </trkpt>
      <trkpt lat="48.6845" lon="1.87428">
        <ele>163.4</ele>
        <time>2023-12-20T09:36:01Z</time>
      </trkpt>
      <trkpt lat="48.68452" lon="1.87419">
        <ele>163.2</ele>
        <time>2023-12-20T09:36:02Z</time>
      </trkpt>
      <trkpt lat="48.68454" lon="1.8741">
        <ele>164</ele>
        <time>2023-12-20T09:36:03Z</time>
      </trkpt>
      <trkpt lat="48.68456" lon="1.87401">
        <ele>164</ele>
        <time>2023-12-20T09:36:04Z</time>
      </trkpt>
      <trkpt lat="48.68459" lon="1.87391">
        <ele>164</ele>
        <time>2023-12-20T09:36:05Z</time>
      </trkpt>
      <trkpt lat="48.68462" lon="1.87383">
        <ele>163</ele>
        <time>2023-12-20T09:36:06Z</time>
      </trkpt>
      <trkpt lat="48.68465" lon="1.87374">
        <ele>162.8</ele>
        <time>2023-12-20T09:36:07Z</time>
      </trkpt>
      <trkpt lat="48.68468" lon="1.87365">
        <ele>162.8</ele>
        <time>2023-12-20T09:36:08Z</time>
      </trkpt>
      <trkpt lat="48.68471" lon="1.87357">
        <ele>162.8</ele>
        <time>2023-12-20T09:36:09Z</time>
      </trkpt>
      <trkpt lat="48.68475" lon="1.87348">
        <ele>162.8</ele>
        <time>2023-12-20T09:36:10Z</time>
      </trkpt>
      <trkpt lat="48.68478" lon="1.8734">
        <ele>162.6</ele>
        <time>2023-12-20T09:36:11Z</time>
      </trkpt>
      <trkpt lat="48.68482" lon="1.87332">
        <ele>162.6</ele>
        <time>2023-12-20T09:36:12Z</time>
      </trkpt>
      <trkpt lat="48.68486" lon="1.87325">
        <ele>162.6</ele>
        <time>2023-12-20T09:36:13Z</time>
      </trkpt>
      <trkpt lat="48.68489" lon="1.87317">
        <ele>163.6</ele>
        <time>2023-12-20T09:36:14Z</time>
      </trkpt>
      <trkpt lat="48.68493" lon="1.87309">
        <ele>166.2</ele>
        <time>2023-12-20T09:36:15Z</time>
      </trkpt>
      <trkpt lat="48.68496" lon="1.873">
        <ele>166.2</ele>
        <time>2023-12-20T09:36:16Z</time>
      </trkpt>
      <trkpt lat="48.685" lon="1.87292">
        <ele>166.2</ele>
        <time>2023-12-20T09:36:17Z</time>
      </trkpt>
      <trkpt lat="48.68503" lon="1.87284">
        <ele>165.2</ele>
        <time>2023-12-20T09:36:18Z</time>
      </trkpt>
      <trkpt lat="48.68507" lon="1.87275">
        <ele>164.6</ele>
        <time>2023-12-20T09:36:19Z</time>
      </trkpt>
      <trkpt lat="48.6851" lon="1.87267">
        <ele>164.6</ele>
        <time>2023-12-20T09:36:20Z</time>
      </trkpt>
      <trkpt lat="48.68514" lon="1.87259">
        <ele>164.6</ele>
        <time>2023-12-20T09:36:21Z</time>
      </trkpt>
      <trkpt lat="48.68518" lon="1.87251">
        <ele>165.2</ele>
        <time>2023-12-20T09:36:22Z</time>
      </trkpt>
      <trkpt lat="48.68521" lon="1.87243">
        <ele>164.6</ele>
        <time>2023-12-20T09:36:23Z</time>
      </trkpt>
      <trkpt lat="48.68525" lon="1.87234">
        <ele>164.6</ele>
        <time>2023-12-20T09:36:24Z</time>
      </trkpt>
      <trkpt lat="48.68528" lon="1.87226">
        <ele>164.6</ele>
        <time>2023-12-20T09:36:25Z</time>
      </trkpt>
      <trkpt lat="48.68532" lon="1.87218">
        <ele>165.6</ele>
        <time>2023-12-20T09:36:26Z</time>
      </trkpt>
      <trkpt lat="48.68535" lon="1.8721">
        <ele>164.2</ele>
        <time>2023-12-20T09:36:27Z</time>
      </trkpt>
      <trkpt lat="48.68539" lon="1.87201">
        <ele>164.2</ele>
        <time>2023-12-20T09:36:28Z</time>
      </trkpt>
      <trkpt lat="48.68542" lon="1.87193">
        <ele>164.2</ele>
        <time>2023-12-20T09:36:29Z</time>
      </trkpt>
      <trkpt lat="48.68545" lon="1.87185">
        <ele>165.2</ele>
        <time>2023-12-20T09:36:30Z</time>
      </trkpt>
      <trkpt lat="48.68549" lon="1.87178">
        <ele>164.2</ele>
        <time>2023-12-20T09:36:31Z</time>
      </trkpt>
      <trkpt lat="48.68552" lon="1.8717">
        <ele>164.2</ele>
        <time>2023-12-20T09:36:32Z</time>
      </trkpt>
      <trkpt lat="48.68556" lon="1.87162">
        <ele>164.2</ele>
        <time>2023-12-20T09:36:33Z</time>
      </trkpt>
      <trkpt lat="48.68559" lon="1.87155">
        <ele>165.2</ele>
        <time>2023-12-20T09:36:34Z</time>
      </trkpt>
      <trkpt lat="48.68562" lon="1.87147">
        <ele>166</ele>
        <time>2023-12-20T09:36:35Z</time>
      </trkpt>
      <trkpt lat="48.68566" lon="1.87139">
        <ele>166</ele>
        <time>2023-12-20T09:36:36Z</time>
      </trkpt>
      <trkpt lat="48.68569" lon="1.87132">
        <ele>166</ele>
        <time>2023-12-20T09:36:37Z</time>
      </trkpt>
      <trkpt lat="48.68573" lon="1.87124">
        <ele>166</ele>
        <time>2023-12-20T09:36:38Z</time>
      </trkpt>
      <trkpt lat="48.68577" lon="1.87117">
        <ele>165.6</ele>
        <time>2023-12-20T09:36:39Z</time>
      </trkpt>
      <trkpt lat="48.68581" lon="1.87109">
        <ele>165.6</ele>
        <time>2023-12-20T09:36:40Z</time>
      </trkpt>
      <trkpt lat="48.68585" lon="1.87101">
        <ele>165.6</ele>
        <time>2023-12-20T09:36:41Z</time>
      </trkpt>
      <trkpt lat="48.68588" lon="1.87092">
        <ele>164.6</ele>
        <time>2023-12-20T09:36:42Z</time>
      </trkpt>
      <trkpt lat="48.68592" lon="1.87084">
        <ele>164.8</ele>
        <time>2023-12-20T09:36:43Z</time>
      </trkpt>
      <trkpt lat="48.68596" lon="1.87076">
        <ele>164.8</ele>
        <time>2023-12-20T09:36:44Z</time>
      </trkpt>
      <trkpt lat="48.686" lon="1.87067">
        <ele>164.8</ele>
        <time>2023-12-20T09:36:45Z</time>
      </trkpt>
      <trkpt lat="48.68604" lon="1.87059">
        <ele>164.8</ele>
        <time>2023-12-20T09:36:46Z</time>
      </trkpt>
      <trkpt lat="48.68608" lon="1.8705">
        <ele>165.6</ele>
        <time>2023-12-20T09:36:47Z</time>
      </trkpt>
      <trkpt lat="48.68612" lon="1.87042">
        <ele>165.6</ele>
        <time>2023-12-20T09:36:48Z</time>
      </trkpt>
      <trkpt lat="48.68616" lon="1.87033">
        <ele>165.6</ele>
        <time>2023-12-20T09:36:49Z</time>
      </trkpt>
      <trkpt lat="48.6862" lon="1.87025">
        <ele>165.2</ele>
        <time>2023-12-20T09:36:50Z</time>
      </trkpt>
      <trkpt lat="48.68623" lon="1.87016">
        <ele>164.6</ele>
        <time>2023-12-20T09:36:51Z</time>
      </trkpt>
      <trkpt lat="48.68627" lon="1.87007">
        <ele>164.6</ele>
        <time>2023-12-20T09:36:52Z</time>
      </trkpt>
      <trkpt lat="48.68631" lon="1.87">
        <ele>164.6</ele>
        <time>2023-12-20T09:36:53Z</time>
      </trkpt>
      <trkpt lat="48.68634" lon="1.86992">
        <ele>165.2</ele>
        <time>2023-12-20T09:36:54Z</time>
      </trkpt>
      <trkpt lat="48.68637" lon="1.86983">
        <ele>164.4</ele>
        <time>2023-12-20T09:36:55Z</time>
      </trkpt>
      <trkpt lat="48.68639" lon="1.86976">
        <ele>164.4</ele>
        <time>2023-12-20T09:36:56Z</time>
      </trkpt>
      <trkpt lat="48.68643" lon="1.86968">
        <ele>164.4</ele>
        <time>2023-12-20T09:36:57Z</time>
      </trkpt>
      <trkpt lat="48.68646" lon="1.86961">
        <ele>163.6</ele>
        <time>2023-12-20T09:36:58Z</time>
      </trkpt>
      <trkpt lat="48.6865" lon="1.86954">
        <ele>163.6</ele>
        <time>2023-12-20T09:36:59Z</time>
      </trkpt>
      <trkpt lat="48.68653" lon="1.86947">
        <ele>163.6</ele>
        <time>2023-12-20T09:37:00Z</time>
      </trkpt>
      <trkpt lat="48.68656" lon="1.86939">
        <ele>163.6</ele>
        <time>2023-12-20T09:37:01Z</time>
      </trkpt>
      <trkpt lat="48.6866" lon="1.86931">
        <ele>163.6</ele>
        <time>2023-12-20T09:37:02Z</time>
      </trkpt>
      <trkpt lat="48.68663" lon="1.86924">
        <ele>163.6</ele>
        <time>2023-12-20T09:37:03Z</time>
      </trkpt>
      <trkpt lat="48.68667" lon="1.86916">
        <ele>163.6</ele>
        <time>2023-12-20T09:37:04Z</time>
      </trkpt>
      <trkpt lat="48.68671" lon="1.86909">
        <ele>163.6</ele>
        <time>2023-12-20T09:37:05Z</time>
      </trkpt>
      <trkpt lat="48.68675" lon="1.86902">
        <ele>163.6</ele>
        <time>2023-12-20T09:37:06Z</time>
      </trkpt>
      <trkpt lat="48.68679" lon="1.86895">
        <ele>163.8</ele>
        <time>2023-12-20T09:37:07Z</time>
      </trkpt>
      <trkpt lat="48.68682" lon="1.86887">
        <ele>163.8</ele>
        <time>2023-12-20T09:37:08Z</time>
      </trkpt>
      <trkpt lat="48.68685" lon="1.86879">
        <ele>163.8</ele>
        <time>2023-12-20T09:37:09Z</time>
      </trkpt>
      <trkpt lat="48.68688" lon="1.86871">
        <ele>163.8</ele>
        <time>2023-12-20T09:37:10Z</time>
      </trkpt>
      <trkpt lat="48.68691" lon="1.86863">
        <ele>163.4</ele>
        <time>2023-12-20T09:37:11Z</time>
      </trkpt>
      <trkpt lat="48.68694" lon="1.86855">
        <ele>163.4</ele>
        <time>2023-12-20T09:37:12Z</time>
      </trkpt>
      <trkpt lat="48.68697" lon="1.86846">
        <ele>163.4</ele>
        <time>2023-12-20T09:37:13Z</time>
      </trkpt>
      <trkpt lat="48.68699" lon="1.86838">
        <ele>163.4</ele>
        <time>2023-12-20T09:37:14Z</time>
      </trkpt>
      <trkpt lat="48.68701" lon="1.86829">
        <ele>164.4</ele>
        <time>2023-12-20T09:37:15Z</time>
      </trkpt>
      <trkpt lat="48.68703" lon="1.86819">
        <ele>164.4</ele>
        <time>2023-12-20T09:37:16Z</time>
      </trkpt>
      <trkpt lat="48.68705" lon="1.8681">
        <ele>164.4</ele>
        <time>2023-12-20T09:37:17Z</time>
      </trkpt>
      <trkpt lat="48.68707" lon="1.86801">
        <ele>164</ele>
        <time>2023-12-20T09:37:18Z</time>
      </trkpt>
      <trkpt lat="48.68709" lon="1.86792">
        <ele>163.4</ele>
        <time>2023-12-20T09:37:19Z</time>
      </trkpt>
      <trkpt lat="48.68711" lon="1.86782">
        <ele>163.4</ele>
        <time>2023-12-20T09:37:20Z</time>
      </trkpt>
      <trkpt lat="48.68713" lon="1.86773">
        <ele>163.4</ele>
        <time>2023-12-20T09:37:21Z</time>
      </trkpt>
      <trkpt lat="48.68714" lon="1.86764">
        <ele>163.4</ele>
        <time>2023-12-20T09:37:22Z</time>
      </trkpt>
      <trkpt lat="48.68716" lon="1.86755">
        <ele>163.4</ele>
        <time>2023-12-20T09:37:23Z</time>
      </trkpt>
      <trkpt lat="48.68718" lon="1.86746">
        <ele>163.4</ele>
        <time>2023-12-20T09:37:24Z</time>
      </trkpt>
      <trkpt lat="48.68719" lon="1.86738">
        <ele>163.4</ele>
        <time>2023-12-20T09:37:25Z</time>
      </trkpt>
      <trkpt lat="48.68721" lon="1.86729">
        <ele>163.6</ele>
        <time>2023-12-20T09:37:26Z</time>
      </trkpt>
      <trkpt lat="48.68722" lon="1.86721">
        <ele>163.6</ele>
        <time>2023-12-20T09:37:27Z</time>
      </trkpt>
      <trkpt lat="48.68724" lon="1.86712">
        <ele>163.6</ele>
        <time>2023-12-20T09:37:28Z</time>
      </trkpt>
      <trkpt lat="48.68726" lon="1.86703">
        <ele>163.6</ele>
        <time>2023-12-20T09:37:29Z</time>
      </trkpt>
      <trkpt lat="48.68728" lon="1.86694">
        <ele>163.6</ele>
        <time>2023-12-20T09:37:30Z</time>
      </trkpt>
      <trkpt lat="48.6873" lon="1.86685">
        <ele>163.6</ele>
        <time>2023-12-20T09:37:31Z</time>
      </trkpt>
      <trkpt lat="48.68733" lon="1.86676">
        <ele>163.6</ele>
        <time>2023-12-20T09:37:32Z</time>
      </trkpt>
      <trkpt lat="48.68735" lon="1.86667">
        <ele>163.6</ele>
        <time>2023-12-20T09:37:33Z</time>
      </trkpt>
      <trkpt lat="48.68737" lon="1.86659">
        <ele>163.6</ele>
        <time>2023-12-20T09:37:34Z</time>
      </trkpt>
      <trkpt lat="48.6874" lon="1.8665">
        <ele>164</ele>
        <time>2023-12-20T09:37:35Z</time>
      </trkpt>
      <trkpt lat="48.68742" lon="1.86642">
        <ele>164</ele>
        <time>2023-12-20T09:37:36Z</time>
      </trkpt>
      <trkpt lat="48.68744" lon="1.86633">
        <ele>164</ele>
        <time>2023-12-20T09:37:37Z</time>
      </trkpt>
      <trkpt lat="48.68747" lon="1.86625">
        <ele>163</ele>
        <time>2023-12-20T09:37:38Z</time>
      </trkpt>
      <trkpt lat="48.68749" lon="1.86617">
        <ele>163</ele>
        <time>2023-12-20T09:37:39Z</time>
      </trkpt>
      <trkpt lat="48.68752" lon="1.86608">
        <ele>163</ele>
        <time>2023-12-20T09:37:40Z</time>
      </trkpt>
      <trkpt lat="48.68755" lon="1.866">
        <ele>163</ele>
        <time>2023-12-20T09:37:41Z</time>
      </trkpt>
      <trkpt lat="48.68757" lon="1.86592">
        <ele>163</ele>
        <time>2023-12-20T09:37:42Z</time>
      </trkpt>
      <trkpt lat="48.6876" lon="1.86583">
        <ele>163.2</ele>
        <time>2023-12-20T09:37:43Z</time>
      </trkpt>
      <trkpt lat="48.68763" lon="1.86576">
        <ele>163.2</ele>
        <time>2023-12-20T09:37:44Z</time>
      </trkpt>
      <trkpt lat="48.68766" lon="1.86568">
        <ele>163.2</ele>
        <time>2023-12-20T09:37:45Z</time>
      </trkpt>
      <trkpt lat="48.68769" lon="1.8656">
        <ele>163.2</ele>
        <time>2023-12-20T09:37:46Z</time>
      </trkpt>
      <trkpt lat="48.68772" lon="1.86552">
        <ele>163.4</ele>
        <time>2023-12-20T09:37:47Z</time>
      </trkpt>
      <trkpt lat="48.68775" lon="1.86544">
        <ele>163.4</ele>
        <time>2023-12-20T09:37:48Z</time>
      </trkpt>
      <trkpt lat="48.68778" lon="1.86536">
        <ele>163.4</ele>
        <time>2023-12-20T09:37:49Z</time>
      </trkpt>
      <trkpt lat="48.68781" lon="1.86528">
        <ele>163.4</ele>
        <time>2023-12-20T09:37:50Z</time>
      </trkpt>
      <trkpt lat="48.68784" lon="1.8652">
        <ele>163.8</ele>
        <time>2023-12-20T09:37:51Z</time>
      </trkpt>
      <trkpt lat="48.68787" lon="1.86512">
        <ele>163.8</ele>
        <time>2023-12-20T09:37:52Z</time>
      </trkpt>
      <trkpt lat="48.6879" lon="1.86505">
        <ele>163.8</ele>
        <time>2023-12-20T09:37:53Z</time>
      </trkpt>
      <trkpt lat="48.68794" lon="1.86497">
        <ele>163.8</ele>
        <time>2023-12-20T09:37:54Z</time>
      </trkpt>
      <trkpt lat="48.68797" lon="1.8649">
        <ele>164.2</ele>
        <time>2023-12-20T09:37:55Z</time>
      </trkpt>
      <trkpt lat="48.68801" lon="1.86482">
        <ele>164.2</ele>
        <time>2023-12-20T09:37:56Z</time>
      </trkpt>
      <trkpt lat="48.68804" lon="1.86475">
        <ele>164.2</ele>
        <time>2023-12-20T09:37:57Z</time>
      </trkpt>
      <trkpt lat="48.68808" lon="1.86468">
        <ele>164.8</ele>
        <time>2023-12-20T09:37:58Z</time>
      </trkpt>
      <trkpt lat="48.68813" lon="1.86462">
        <ele>164.2</ele>
        <time>2023-12-20T09:37:59Z</time>
      </trkpt>
      <trkpt lat="48.68817" lon="1.86455">
        <ele>164.2</ele>
        <time>2023-12-20T09:38:00Z</time>
      </trkpt>
      <trkpt lat="48.68821" lon="1.86448">
        <ele>164.2</ele>
        <time>2023-12-20T09:38:01Z</time>
      </trkpt>
      <trkpt lat="48.68825" lon="1.86441">
        <ele>163.6</ele>
        <time>2023-12-20T09:38:02Z</time>
      </trkpt>
      <trkpt lat="48.68829" lon="1.86434">
        <ele>163.8</ele>
        <time>2023-12-20T09:38:03Z</time>
      </trkpt>
      <trkpt lat="48.68834" lon="1.86428">
        <ele>163.8</ele>
        <time>2023-12-20T09:38:04Z</time>
      </trkpt>
      <trkpt lat="48.68838" lon="1.86422">
        <ele>163.8</ele>
        <time>2023-12-20T09:38:05Z</time>
      </trkpt>
      <trkpt lat="48.68842" lon="1.86416">
        <ele>163.8</ele>
        <time>2023-12-20T09:38:06Z</time>
      </trkpt>
      <trkpt lat="48.68846" lon="1.8641">
        <ele>163</ele>
        <time>2023-12-20T09:38:07Z</time>
      </trkpt>
      <trkpt lat="48.68851" lon="1.86404">
        <ele>163</ele>
        <time>2023-12-20T09:38:08Z</time>
      </trkpt>
      <trkpt lat="48.68855" lon="1.86398">
        <ele>163</ele>
        <time>2023-12-20T09:38:09Z</time>
      </trkpt>
      <trkpt lat="48.6886" lon="1.86393">
        <ele>164</ele>
        <time>2023-12-20T09:38:10Z</time>
      </trkpt>
      <trkpt lat="48.68864" lon="1.86387">
        <ele>165.4</ele>
        <time>2023-12-20T09:38:11Z</time>
      </trkpt>
      <trkpt lat="48.68869" lon="1.86382">
        <ele>165.4</ele>
        <time>2023-12-20T09:38:12Z</time>
      </trkpt>
      <trkpt lat="48.68873" lon="1.86376">
        <ele>165.4</ele>
        <time>2023-12-20T09:38:13Z</time>
      </trkpt>
      <trkpt lat="48.68878" lon="1.86371">
        <ele>164.4</ele>
        <time>2023-12-20T09:38:14Z</time>
      </trkpt>
      <trkpt lat="48.68883" lon="1.86365">
        <ele>164</ele>
        <time>2023-12-20T09:38:15Z</time>
      </trkpt>
      <trkpt lat="48.68887" lon="1.8636">
        <ele>164</ele>
        <time>2023-12-20T09:38:16Z</time>
      </trkpt>
      <trkpt lat="48.68892" lon="1.86354">
        <ele>164</ele>
        <time>2023-12-20T09:38:17Z</time>
      </trkpt>
      <trkpt lat="48.68897" lon="1.86349">
        <ele>164.4</ele>
        <time>2023-12-20T09:38:18Z</time>
      </trkpt>
      <trkpt lat="48.68901" lon="1.86343">
        <ele>164.6</ele>
        <time>2023-12-20T09:38:19Z</time>
      </trkpt>
      <trkpt lat="48.68906" lon="1.86337">
        <ele>164.6</ele>
        <time>2023-12-20T09:38:20Z</time>
      </trkpt>
      <trkpt lat="48.6891" lon="1.86331">
        <ele>164.6</ele>
        <time>2023-12-20T09:38:21Z</time>
      </trkpt>
      <trkpt lat="48.68914" lon="1.86325">
        <ele>164.6</ele>
        <time>2023-12-20T09:38:22Z</time>
      </trkpt>
      <trkpt lat="48.68918" lon="1.86319">
        <ele>164.8</ele>
        <time>2023-12-20T09:38:23Z</time>
      </trkpt>
      <trkpt lat="48.68921" lon="1.86312">
        <ele>164.8</ele>
        <time>2023-12-20T09:38:24Z</time>
      </trkpt>
      <trkpt lat="48.68925" lon="1.86306">
        <ele>164.8</ele>
        <time>2023-12-20T09:38:25Z</time>
      </trkpt>
      <trkpt lat="48.68928" lon="1.86299">
        <ele>165.8</ele>
        <time>2023-12-20T09:38:26Z</time>
      </trkpt>
      <trkpt lat="48.68932" lon="1.86292">
        <ele>165.4</ele>
        <time>2023-12-20T09:38:27Z</time>
      </trkpt>
      <trkpt lat="48.68935" lon="1.86285">
        <ele>165.4</ele>
        <time>2023-12-20T09:38:28Z</time>
      </trkpt>
      <trkpt lat="48.68938" lon="1.86278">
        <ele>165.4</ele>
        <time>2023-12-20T09:38:29Z</time>
      </trkpt>
      <trkpt lat="48.68941" lon="1.8627">
        <ele>165.8</ele>
        <time>2023-12-20T09:38:30Z</time>
      </trkpt>
      <trkpt lat="48.68944" lon="1.86262">
        <ele>165.2</ele>
        <time>2023-12-20T09:38:31Z</time>
      </trkpt>
      <trkpt lat="48.68947" lon="1.86254">
        <ele>165.2</ele>
        <time>2023-12-20T09:38:32Z</time>
      </trkpt>
      <trkpt lat="48.68949" lon="1.86247">
        <ele>165.2</ele>
        <time>2023-12-20T09:38:33Z</time>
      </trkpt>
      <trkpt lat="48.68952" lon="1.86239">
        <ele>165.2</ele>
        <time>2023-12-20T09:38:34Z</time>
      </trkpt>
      <trkpt lat="48.68954" lon="1.86231">
        <ele>166.8</ele>
        <time>2023-12-20T09:38:35Z</time>
      </trkpt>
      <trkpt lat="48.68956" lon="1.86223">
        <ele>166.8</ele>
        <time>2023-12-20T09:38:36Z</time>
      </trkpt>
      <trkpt lat="48.68958" lon="1.86214">
        <ele>166.8</ele>
        <time>2023-12-20T09:38:37Z</time>
      </trkpt>
      <trkpt lat="48.68959" lon="1.86206">
        <ele>165.8</ele>
        <time>2023-12-20T09:38:38Z</time>
      </trkpt>
      <trkpt lat="48.68961" lon="1.86197">
        <ele>165.2</ele>
        <time>2023-12-20T09:38:39Z</time>
      </trkpt>
      <trkpt lat="48.68962" lon="1.86188">
        <ele>165.2</ele>
        <time>2023-12-20T09:38:40Z</time>
      </trkpt>
      <trkpt lat="48.68963" lon="1.86179">
        <ele>165.2</ele>
        <time>2023-12-20T09:38:41Z</time>
      </trkpt>
      <trkpt lat="48.68964" lon="1.8617">
        <ele>165.6</ele>
        <time>2023-12-20T09:38:42Z</time>
      </trkpt>
      <trkpt lat="48.68965" lon="1.8616">
        <ele>165.6</ele>
        <time>2023-12-20T09:38:43Z</time>
      </trkpt>
      <trkpt lat="48.68967" lon="1.86151">
        <ele>165.6</ele>
        <time>2023-12-20T09:38:44Z</time>
      </trkpt>
      <trkpt lat="48.68967" lon="1.86141">
        <ele>165.6</ele>
        <time>2023-12-20T09:38:45Z</time>
      </trkpt>
      <trkpt lat="48.68968" lon="1.86131">
        <ele>166</ele>
        <time>2023-12-20T09:38:46Z</time>
      </trkpt>
      <trkpt lat="48.68969" lon="1.86122">
        <ele>166.6</ele>
        <time>2023-12-20T09:38:47Z</time>
      </trkpt>
      <trkpt lat="48.6897" lon="1.86112">
        <ele>166.6</ele>
        <time>2023-12-20T09:38:48Z</time>
      </trkpt>
      <trkpt lat="48.68971" lon="1.86102">
        <ele>166.6</ele>
        <time>2023-12-20T09:38:49Z</time>
      </trkpt>
      <trkpt lat="48.68972" lon="1.86093">
        <ele>166.2</ele>
        <time>2023-12-20T09:38:50Z</time>
      </trkpt>
      <trkpt lat="48.68973" lon="1.86083">
        <ele>165.2</ele>
        <time>2023-12-20T09:38:51Z</time>
      </trkpt>
      <trkpt lat="48.68974" lon="1.86073">
        <ele>165.2</ele>
        <time>2023-12-20T09:38:52Z</time>
      </trkpt>
      <trkpt lat="48.68975" lon="1.86064">
        <ele>165.2</ele>
        <time>2023-12-20T09:38:53Z</time>
      </trkpt>
      <trkpt lat="48.68976" lon="1.86054">
        <ele>166</ele>
        <time>2023-12-20T09:38:54Z</time>
      </trkpt>
      <trkpt lat="48.68977" lon="1.86044">
        <ele>166.2</ele>
        <time>2023-12-20T09:38:55Z</time>
      </trkpt>
      <trkpt lat="48.68978" lon="1.86035">
        <ele>166.2</ele>
        <time>2023-12-20T09:38:56Z</time>
      </trkpt>
      <trkpt lat="48.6898" lon="1.86025">
        <ele>166.2</ele>
        <time>2023-12-20T09:38:57Z</time>
      </trkpt>
      <trkpt lat="48.68981" lon="1.86016">
        <ele>165.6</ele>
        <time>2023-12-20T09:38:58Z</time>
      </trkpt>
      <trkpt lat="48.68982" lon="1.86006">
        <ele>166</ele>
        <time>2023-12-20T09:38:59Z</time>
      </trkpt>
      <trkpt lat="48.68983" lon="1.85996">
        <ele>166</ele>
        <time>2023-12-20T09:39:00Z</time>
      </trkpt>
      <trkpt lat="48.68985" lon="1.85987">
        <ele>166</ele>
        <time>2023-12-20T09:39:01Z</time>
      </trkpt>
      <trkpt lat="48.68986" lon="1.85977">
        <ele>166</ele>
        <time>2023-12-20T09:39:02Z</time>
      </trkpt>
      <trkpt lat="48.68987" lon="1.85967">
        <ele>165.2</ele>
        <time>2023-12-20T09:39:03Z</time>
      </trkpt>
      <trkpt lat="48.68988" lon="1.85957">
        <ele>165.2</ele>
        <time>2023-12-20T09:39:04Z</time>
      </trkpt>
      <trkpt lat="48.68988" lon="1.85947">
        <ele>165.2</ele>
        <time>2023-12-20T09:39:05Z</time>
      </trkpt>
      <trkpt lat="48.6899" lon="1.85937">
        <ele>165.2</ele>
        <time>2023-12-20T09:39:06Z</time>
      </trkpt>
      <trkpt lat="48.68991" lon="1.85927">
        <ele>165.4</ele>
        <time>2023-12-20T09:39:07Z</time>
      </trkpt>
      <trkpt lat="48.68992" lon="1.85918">
        <ele>165.4</ele>
        <time>2023-12-20T09:39:08Z</time>
      </trkpt>
      <trkpt lat="48.68993" lon="1.85909">
        <ele>165.4</ele>
        <time>2023-12-20T09:39:09Z</time>
      </trkpt>
      <trkpt lat="48.68994" lon="1.85899">
        <ele>165.4</ele>
        <time>2023-12-20T09:39:10Z</time>
      </trkpt>
      <trkpt lat="48.68996" lon="1.8589">
        <ele>165.6</ele>
        <time>2023-12-20T09:39:11Z</time>
      </trkpt>
      <trkpt lat="48.68997" lon="1.85881">
        <ele>165.6</ele>
        <time>2023-12-20T09:39:12Z</time>
      </trkpt>
      <trkpt lat="48.68998" lon="1.85872">
        <ele>165.6</ele>
        <time>2023-12-20T09:39:13Z</time>
      </trkpt>
      <trkpt lat="48.69" lon="1.85863">
        <ele>166.4</ele>
        <time>2023-12-20T09:39:14Z</time>
      </trkpt>
      <trkpt lat="48.69001" lon="1.85854">
        <ele>166.2</ele>
        <time>2023-12-20T09:39:15Z</time>
      </trkpt>
      <trkpt lat="48.69002" lon="1.85846">
        <ele>166.2</ele>
        <time>2023-12-20T09:39:16Z</time>
      </trkpt>
      <trkpt lat="48.69004" lon="1.85838">
        <ele>166.2</ele>
        <time>2023-12-20T09:39:17Z</time>
      </trkpt>
      <trkpt lat="48.69005" lon="1.8583">
        <ele>167.2</ele>
        <time>2023-12-20T09:39:18Z</time>
      </trkpt>
      <trkpt lat="48.69006" lon="1.85822">
        <ele>167.2</ele>
        <time>2023-12-20T09:39:19Z</time>
      </trkpt>
      <trkpt lat="48.69008" lon="1.85814">
        <ele>167.2</ele>
        <time>2023-12-20T09:39:20Z</time>
      </trkpt>
      <trkpt lat="48.6901" lon="1.85806">
        <ele>167.2</ele>
        <time>2023-12-20T09:39:21Z</time>
      </trkpt>
      <trkpt lat="48.69012" lon="1.85798">
        <ele>168</ele>
        <time>2023-12-20T09:39:22Z</time>
      </trkpt>
      <trkpt lat="48.69013" lon="1.8579">
        <ele>168.4</ele>
        <time>2023-12-20T09:39:23Z</time>
      </trkpt>
      <trkpt lat="48.69014" lon="1.85782">
        <ele>168.4</ele>
        <time>2023-12-20T09:39:24Z</time>
      </trkpt>
      <trkpt lat="48.69016" lon="1.85774">
        <ele>168.4</ele>
        <time>2023-12-20T09:39:25Z</time>
      </trkpt>
      <trkpt lat="48.69017" lon="1.85765">
        <ele>168.4</ele>
        <time>2023-12-20T09:39:26Z</time>
      </trkpt>
      <trkpt lat="48.69019" lon="1.85757">
        <ele>168.8</ele>
        <time>2023-12-20T09:39:27Z</time>
      </trkpt>
      <trkpt lat="48.6902" lon="1.85749">
        <ele>168.8</ele>
        <time>2023-12-20T09:39:28Z</time>
      </trkpt>
      <trkpt lat="48.69022" lon="1.85742">
        <ele>168.8</ele>
        <time>2023-12-20T09:39:29Z</time>
      </trkpt>
      <trkpt lat="48.69024" lon="1.85734">
        <ele>169.6</ele>
        <time>2023-12-20T09:39:30Z</time>
      </trkpt>
      <trkpt lat="48.69025" lon="1.85726">
        <ele>170.4</ele>
        <time>2023-12-20T09:39:31Z</time>
      </trkpt>
      <trkpt lat="48.69026" lon="1.85718">
        <ele>170.4</ele>
        <time>2023-12-20T09:39:32Z</time>
      </trkpt>
      <trkpt lat="48.69028" lon="1.8571">
        <ele>170.4</ele>
        <time>2023-12-20T09:39:33Z</time>
      </trkpt>
      <trkpt lat="48.69029" lon="1.85702">
        <ele>170.4</ele>
        <time>2023-12-20T09:39:34Z</time>
      </trkpt>
      <trkpt lat="48.69031" lon="1.85694">
        <ele>170.4</ele>
        <time>2023-12-20T09:39:35Z</time>
      </trkpt>
      <trkpt lat="48.69032" lon="1.85686">
        <ele>170.4</ele>
        <time>2023-12-20T09:39:36Z</time>
      </trkpt>
      <trkpt lat="48.69034" lon="1.85678">
        <ele>170.4</ele>
        <time>2023-12-20T09:39:37Z</time>
      </trkpt>
      <trkpt lat="48.69035" lon="1.8567">
        <ele>171.4</ele>
        <time>2023-12-20T09:39:38Z</time>
      </trkpt>
      <trkpt lat="48.69037" lon="1.85662">
        <ele>173</ele>
        <time>2023-12-20T09:39:39Z</time>
      </trkpt>
      <trkpt lat="48.69038" lon="1.85654">
        <ele>173</ele>
        <time>2023-12-20T09:39:40Z</time>
      </trkpt>
      <trkpt lat="48.69039" lon="1.85646">
        <ele>173</ele>
        <time>2023-12-20T09:39:41Z</time>
      </trkpt>
      <trkpt lat="48.69041" lon="1.85637">
        <ele>172.6</ele>
        <time>2023-12-20T09:39:42Z</time>
      </trkpt>
      <trkpt lat="48.69043" lon="1.85628">
        <ele>173.2</ele>
        <time>2023-12-20T09:39:43Z</time>
      </trkpt>
      <trkpt lat="48.69044" lon="1.8562">
        <ele>173.2</ele>
        <time>2023-12-20T09:39:44Z</time>
      </trkpt>
      <trkpt lat="48.69046" lon="1.85612">
        <ele>173.2</ele>
        <time>2023-12-20T09:39:45Z</time>
      </trkpt>
      <trkpt lat="48.69047" lon="1.85603">
        <ele>173.2</ele>
        <time>2023-12-20T09:39:46Z</time>
      </trkpt>
      <trkpt lat="48.69048" lon="1.85595">
        <ele>173.6</ele>
        <time>2023-12-20T09:39:47Z</time>
      </trkpt>
      <trkpt lat="48.6905" lon="1.85587">
        <ele>173.6</ele>
        <time>2023-12-20T09:39:48Z</time>
      </trkpt>
      <trkpt lat="48.69051" lon="1.85578">
        <ele>173.6</ele>
        <time>2023-12-20T09:39:49Z</time>
      </trkpt>
      <trkpt lat="48.69052" lon="1.8557">
        <ele>172.6</ele>
        <time>2023-12-20T09:39:50Z</time>
      </trkpt>
      <trkpt lat="48.69054" lon="1.85561">
        <ele>172.4</ele>
        <time>2023-12-20T09:39:51Z</time>
      </trkpt>
      <trkpt lat="48.69055" lon="1.85552">
        <ele>172.4</ele>
        <time>2023-12-20T09:39:52Z</time>
      </trkpt>
      <trkpt lat="48.69057" lon="1.85543">
        <ele>172.4</ele>
        <time>2023-12-20T09:39:53Z</time>
      </trkpt>
      <trkpt lat="48.69058" lon="1.85535">
        <ele>171.6</ele>
        <time>2023-12-20T09:39:54Z</time>
      </trkpt>
      <trkpt lat="48.6906" lon="1.85526">
        <ele>172</ele>
        <time>2023-12-20T09:39:55Z</time>
      </trkpt>
      <trkpt lat="48.69061" lon="1.85517">
        <ele>172</ele>
        <time>2023-12-20T09:39:56Z</time>
      </trkpt>
      <trkpt lat="48.69063" lon="1.85509">
        <ele>172</ele>
        <time>2023-12-20T09:39:57Z</time>
      </trkpt>
      <trkpt lat="48.69064" lon="1.855">
        <ele>171.6</ele>
        <time>2023-12-20T09:39:58Z</time>
      </trkpt>
      <trkpt lat="48.69065" lon="1.85491">
        <ele>171.8</ele>
        <time>2023-12-20T09:39:59Z</time>
      </trkpt>
      <trkpt lat="48.69066" lon="1.85482">
        <ele>171.8</ele>
        <time>2023-12-20T09:40:00Z</time>
      </trkpt>
      <trkpt lat="48.69067" lon="1.85472">
        <ele>171.8</ele>
        <time>2023-12-20T09:40:01Z</time>
      </trkpt>
      <trkpt lat="48.69067" lon="1.85463">
        <ele>170.8</ele>
        <time>2023-12-20T09:40:02Z</time>
      </trkpt>
      <trkpt lat="48.69068" lon="1.85453">
        <ele>169.8</ele>
        <time>2023-12-20T09:40:03Z</time>
      </trkpt>
      <trkpt lat="48.69068" lon="1.85443">
        <ele>169.8</ele>
        <time>2023-12-20T09:40:04Z</time>
      </trkpt>
      <trkpt lat="48.69068" lon="1.85433">
        <ele>169.8</ele>
        <time>2023-12-20T09:40:05Z</time>
      </trkpt>
      <trkpt lat="48.69068" lon="1.85423">
        <ele>168.8</ele>
        <time>2023-12-20T09:40:06Z</time>
      </trkpt>
      <trkpt lat="48.69068" lon="1.85412">
        <ele>167.2</ele>
        <time>2023-12-20T09:40:07Z</time>
      </trkpt>
      <trkpt lat="48.69068" lon="1.85402">
        <ele>167.2</ele>
        <time>2023-12-20T09:40:08Z</time>
      </trkpt>
      <trkpt lat="48.69068" lon="1.85391">
        <ele>167.2</ele>
        <time>2023-12-20T09:40:09Z</time>
      </trkpt>
      <trkpt lat="48.69068" lon="1.8538">
        <ele>167.2</ele>
        <time>2023-12-20T09:40:10Z</time>
      </trkpt>
      <trkpt lat="48.69068" lon="1.85368">
        <ele>166</ele>
        <time>2023-12-20T09:40:11Z</time>
      </trkpt>
      <trkpt lat="48.69068" lon="1.85357">
        <ele>166</ele>
        <time>2023-12-20T09:40:12Z</time>
      </trkpt>
      <trkpt lat="48.69069" lon="1.85345">
        <ele>166</ele>
        <time>2023-12-20T09:40:13Z</time>
      </trkpt>
      <trkpt lat="48.69069" lon="1.85332">
        <ele>165</ele>
        <time>2023-12-20T09:40:14Z</time>
      </trkpt>
      <trkpt lat="48.6907" lon="1.8532">
        <ele>163.8</ele>
        <time>2023-12-20T09:40:15Z</time>
      </trkpt>
      <trkpt lat="48.69072" lon="1.85307">
        <ele>163.8</ele>
        <time>2023-12-20T09:40:16Z</time>
      </trkpt>
      <trkpt lat="48.69074" lon="1.85295">
        <ele>163.8</ele>
        <time>2023-12-20T09:40:17Z</time>
      </trkpt>
      <trkpt lat="48.69076" lon="1.85283">
        <ele>162.8</ele>
        <time>2023-12-20T09:40:18Z</time>
      </trkpt>
      <trkpt lat="48.69078" lon="1.85271">
        <ele>163.2</ele>
        <time>2023-12-20T09:40:19Z</time>
      </trkpt>
      <trkpt lat="48.69081" lon="1.8526">
        <ele>163.2</ele>
        <time>2023-12-20T09:40:20Z</time>
      </trkpt>
      <trkpt lat="48.69084" lon="1.85249">
        <ele>163.2</ele>
        <time>2023-12-20T09:40:21Z</time>
      </trkpt>
      <trkpt lat="48.69087" lon="1.85239">
        <ele>164.2</ele>
        <time>2023-12-20T09:40:22Z</time>
      </trkpt>
      <trkpt lat="48.69089" lon="1.85229">
        <ele>164.4</ele>
        <time>2023-12-20T09:40:23Z</time>
      </trkpt>
      <trkpt lat="48.69093" lon="1.8522">
        <ele>164.4</ele>
        <time>2023-12-20T09:40:24Z</time>
      </trkpt>
      <trkpt lat="48.69096" lon="1.85212">
        <ele>164.4</ele>
        <time>2023-12-20T09:40:25Z</time>
      </trkpt>
      <trkpt lat="48.69098" lon="1.85205">
        <ele>165.4</ele>
        <time>2023-12-20T09:40:26Z</time>
      </trkpt>
      <trkpt lat="48.691" lon="1.85201">
        <ele>166.8</ele>
        <time>2023-12-20T09:40:27Z</time>
      </trkpt>
      <trkpt lat="48.69102" lon="1.85197">
        <ele>166.8</ele>
        <time>2023-12-20T09:40:28Z</time>
      </trkpt>
      <trkpt lat="48.69102" lon="1.85194">
        <ele>166.8</ele>
        <time>2023-12-20T09:40:29Z</time>
      </trkpt>
      <trkpt lat="48.69101" lon="1.85192">
        <ele>167.6</ele>
        <time>2023-12-20T09:40:30Z</time>
      </trkpt>
      <trkpt lat="48.691" lon="1.85193">
        <ele>167.6</ele>
        <time>2023-12-20T09:40:31Z</time>
      </trkpt>
      <trkpt lat="48.69099" lon="1.85195">
        <ele>167.6</ele>
        <time>2023-12-20T09:40:32Z</time>
      </trkpt>
      <trkpt lat="48.69098" lon="1.85198">
        <ele>167.6</ele>
        <time>2023-12-20T09:40:33Z</time>
      </trkpt>
      <trkpt lat="48.69096" lon="1.852">
        <ele>167.6</ele>
        <time>2023-12-20T09:40:34Z</time>
      </trkpt>
      <trkpt lat="48.69095" lon="1.85202">
        <ele>167.8</ele>
        <time>2023-12-20T09:40:35Z</time>
      </trkpt>
      <trkpt lat="48.69094" lon="1.85205">
        <ele>167.8</ele>
        <time>2023-12-20T09:40:36Z</time>
      </trkpt>
      <trkpt lat="48.69093" lon="1.85207">
        <ele>167.8</ele>
        <time>2023-12-20T09:40:37Z</time>
      </trkpt>
      <trkpt lat="48.69093" lon="1.85209">
        <ele>168</ele>
        <time>2023-12-20T09:40:38Z</time>
      </trkpt>
      <trkpt lat="48.69093" lon="1.85209">
        <ele>167.8</ele>
        <time>2023-12-20T09:40:39Z</time>
      </trkpt>
      <trkpt lat="48.69094" lon="1.85209">
        <ele>168.6</ele>
        <time>2023-12-20T09:40:51Z</time>
      </trkpt>
      <trkpt lat="48.69095" lon="1.85208">
        <ele>168.6</ele>
        <time>2023-12-20T09:40:52Z</time>
      </trkpt>
      <trkpt lat="48.69096" lon="1.85208">
        <ele>168.6</ele>
        <time>2023-12-20T09:40:53Z</time>
      </trkpt>
      <trkpt lat="48.69098" lon="1.85206">
        <ele>167.6</ele>
        <time>2023-12-20T09:40:54Z</time>
      </trkpt>
      <trkpt lat="48.69099" lon="1.85204">
        <ele>167.6</ele>
        <time>2023-12-20T09:40:55Z</time>
      </trkpt>
      <trkpt lat="48.691" lon="1.85202">
        <ele>167.6</ele>
        <time>2023-12-20T09:40:56Z</time>
      </trkpt>
      <trkpt lat="48.691" lon="1.852">
        <ele>167.6</ele>
        <time>2023-12-20T09:40:57Z</time>
      </trkpt>
      <trkpt lat="48.69101" lon="1.85198">
        <ele>167.6</ele>
        <time>2023-12-20T09:40:58Z</time>
      </trkpt>
      <trkpt lat="48.69101" lon="1.85196">
        <ele>167.8</ele>
        <time>2023-12-20T09:40:59Z</time>
      </trkpt>
      <trkpt lat="48.69101" lon="1.85196">
        <ele>167.8</ele>
        <time>2023-12-20T09:41:00Z</time>
      </trkpt>
      <trkpt lat="48.69103" lon="1.85194">
        <ele>167.4</ele>
        <time>2023-12-20T09:41:09Z</time>
      </trkpt>
      <trkpt lat="48.69104" lon="1.85192">
        <ele>166.6</ele>
        <time>2023-12-20T09:41:10Z</time>
      </trkpt>
      <trkpt lat="48.69106" lon="1.8519">
        <ele>167.2</ele>
        <time>2023-12-20T09:41:11Z</time>
      </trkpt>
      <trkpt lat="48.69106" lon="1.85186">
        <ele>167.2</ele>
        <time>2023-12-20T09:41:12Z</time>
      </trkpt>
      <trkpt lat="48.69108" lon="1.85183">
        <ele>167.2</ele>
        <time>2023-12-20T09:41:13Z</time>
      </trkpt>
      <trkpt lat="48.69109" lon="1.85179">
        <ele>167.2</ele>
        <time>2023-12-20T09:41:14Z</time>
      </trkpt>
      <trkpt lat="48.69111" lon="1.85175">
        <ele>165.8</ele>
        <time>2023-12-20T09:41:15Z</time>
      </trkpt>
      <trkpt lat="48.69112" lon="1.8517">
        <ele>165.8</ele>
        <time>2023-12-20T09:41:16Z</time>
      </trkpt>
      <trkpt lat="48.69114" lon="1.85164">
        <ele>165.8</ele>
        <time>2023-12-20T09:41:17Z</time>
      </trkpt>
      <trkpt lat="48.69116" lon="1.8516">
        <ele>166.8</ele>
        <time>2023-12-20T09:41:18Z</time>
      </trkpt>
      <trkpt lat="48.69118" lon="1.85154">
        <ele>166.8</ele>
        <time>2023-12-20T09:41:19Z</time>
      </trkpt>
      <trkpt lat="48.6912" lon="1.85149">
        <ele>166.8</ele>
        <time>2023-12-20T09:41:20Z</time>
      </trkpt>
      <trkpt lat="48.69123" lon="1.85143">
        <ele>166.8</ele>
        <time>2023-12-20T09:41:21Z</time>
      </trkpt>
      <trkpt lat="48.69125" lon="1.85137">
        <ele>166.8</ele>
        <time>2023-12-20T09:41:22Z</time>
      </trkpt>
      <trkpt lat="48.69128" lon="1.85131">
        <ele>167</ele>
        <time>2023-12-20T09:41:23Z</time>
      </trkpt>
      <trkpt lat="48.69131" lon="1.85126">
        <ele>167</ele>
        <time>2023-12-20T09:41:24Z</time>
      </trkpt>
      <trkpt lat="48.69133" lon="1.8512">
        <ele>167</ele>
        <time>2023-12-20T09:41:25Z</time>
      </trkpt>
      <trkpt lat="48.69136" lon="1.85115">
        <ele>167</ele>
        <time>2023-12-20T09:41:26Z</time>
      </trkpt>
      <trkpt lat="48.69139" lon="1.85109">
        <ele>166.6</ele>
        <time>2023-12-20T09:41:27Z</time>
      </trkpt>
      <trkpt lat="48.69142" lon="1.85103">
        <ele>166.6</ele>
        <time>2023-12-20T09:41:28Z</time>
      </trkpt>
      <trkpt lat="48.69144" lon="1.85097">
        <ele>166.6</ele>
        <time>2023-12-20T09:41:29Z</time>
      </trkpt>
      <trkpt lat="48.69147" lon="1.85091">
        <ele>167.2</ele>
        <time>2023-12-20T09:41:30Z</time>
      </trkpt>
      <trkpt lat="48.6915" lon="1.85085">
        <ele>167.6</ele>
        <time>2023-12-20T09:41:31Z</time>
      </trkpt>
      <trkpt lat="48.69153" lon="1.85079">
        <ele>167.6</ele>
        <time>2023-12-20T09:41:32Z</time>
      </trkpt>
      <trkpt lat="48.69156" lon="1.85073">
        <ele>167.6</ele>
        <time>2023-12-20T09:41:33Z</time>
      </trkpt>
      <trkpt lat="48.69159" lon="1.85067">
        <ele>166.6</ele>
        <time>2023-12-20T09:41:34Z</time>
      </trkpt>
      <trkpt lat="48.69163" lon="1.85061">
        <ele>166.2</ele>
        <time>2023-12-20T09:41:35Z</time>
      </trkpt>
      <trkpt lat="48.69166" lon="1.85055">
        <ele>166.2</ele>
        <time>2023-12-20T09:41:36Z</time>
      </trkpt>
      <trkpt lat="48.69169" lon="1.85049">
        <ele>166.2</ele>
        <time>2023-12-20T09:41:37Z</time>
      </trkpt>
      <trkpt lat="48.69172" lon="1.85044">
        <ele>166.8</ele>
        <time>2023-12-20T09:41:38Z</time>
      </trkpt>
      <trkpt lat="48.69175" lon="1.85038">
        <ele>167.2</ele>
        <time>2023-12-20T09:41:39Z</time>
      </trkpt>
      <trkpt lat="48.69179" lon="1.85033">
        <ele>167.2</ele>
        <time>2023-12-20T09:41:40Z</time>
      </trkpt>
      <trkpt lat="48.69182" lon="1.85027">
        <ele>167.2</ele>
        <time>2023-12-20T09:41:41Z</time>
      </trkpt>
      <trkpt lat="48.69185" lon="1.85021">
        <ele>167.2</ele>
        <time>2023-12-20T09:41:42Z</time>
      </trkpt>
      <trkpt lat="48.69189" lon="1.85016">
        <ele>167.2</ele>
        <time>2023-12-20T09:41:43Z</time>
      </trkpt>
      <trkpt lat="48.69192" lon="1.85011">
        <ele>167.2</ele>
        <time>2023-12-20T09:41:44Z</time>
      </trkpt>
      <trkpt lat="48.69195" lon="1.85005">
        <ele>167.2</ele>
        <time>2023-12-20T09:41:45Z</time>
      </trkpt>
      <trkpt lat="48.69199" lon="1.84999">
        <ele>168</ele>
        <time>2023-12-20T09:41:46Z</time>
      </trkpt>
      <trkpt lat="48.69202" lon="1.84994">
        <ele>168.4</ele>
        <time>2023-12-20T09:41:47Z</time>
      </trkpt>
      <trkpt lat="48.69206" lon="1.84988">
        <ele>168.4</ele>
        <time>2023-12-20T09:41:48Z</time>
      </trkpt>
      <trkpt lat="48.69209" lon="1.84982">
        <ele>168.4</ele>
        <time>2023-12-20T09:41:49Z</time>
      </trkpt>
      <trkpt lat="48.69212" lon="1.84977">
        <ele>168.4</ele>
        <time>2023-12-20T09:41:50Z</time>
      </trkpt>
      <trkpt lat="48.69215" lon="1.84971">
        <ele>167.8</ele>
        <time>2023-12-20T09:41:51Z</time>
      </trkpt>
      <trkpt lat="48.69218" lon="1.84965">
        <ele>167.8</ele>
        <time>2023-12-20T09:41:52Z</time>
      </trkpt>
      <trkpt lat="48.69222" lon="1.84959">
        <ele>167.8</ele>
        <time>2023-12-20T09:41:53Z</time>
      </trkpt>
      <trkpt lat="48.69225" lon="1.84954">
        <ele>167.8</ele>
        <time>2023-12-20T09:41:54Z</time>
      </trkpt>
      <trkpt lat="48.69228" lon="1.84948">
        <ele>168.6</ele>
        <time>2023-12-20T09:41:55Z</time>
      </trkpt>
      <trkpt lat="48.69232" lon="1.84943">
        <ele>168.6</ele>
        <time>2023-12-20T09:41:56Z</time>
      </trkpt>
      <trkpt lat="48.69235" lon="1.84938">
        <ele>168.6</ele>
        <time>2023-12-20T09:41:57Z</time>
      </trkpt>
      <trkpt lat="48.69239" lon="1.84933">
        <ele>169.2</ele>
        <time>2023-12-20T09:41:58Z</time>
      </trkpt>
      <trkpt lat="48.69242" lon="1.84927">
        <ele>169.2</ele>
        <time>2023-12-20T09:41:59Z</time>
      </trkpt>
      <trkpt lat="48.69245" lon="1.84922">
        <ele>169.2</ele>
        <time>2023-12-20T09:42:00Z</time>
      </trkpt>
      <trkpt lat="48.69249" lon="1.84916">
        <ele>169.2</ele>
        <time>2023-12-20T09:42:01Z</time>
      </trkpt>
      <trkpt lat="48.69252" lon="1.8491">
        <ele>169.2</ele>
        <time>2023-12-20T09:42:02Z</time>
      </trkpt>
      <trkpt lat="48.69255" lon="1.84905">
        <ele>169.6</ele>
        <time>2023-12-20T09:42:03Z</time>
      </trkpt>
      <trkpt lat="48.69258" lon="1.849">
        <ele>169.6</ele>
        <time>2023-12-20T09:42:04Z</time>
      </trkpt>
      <trkpt lat="48.69261" lon="1.84895">
        <ele>169.6</ele>
        <time>2023-12-20T09:42:05Z</time>
      </trkpt>
      <trkpt lat="48.69264" lon="1.8489">
        <ele>169.6</ele>
        <time>2023-12-20T09:42:06Z</time>
      </trkpt>
      <trkpt lat="48.69266" lon="1.84886">
        <ele>169.6</ele>
        <time>2023-12-20T09:42:07Z</time>
      </trkpt>
      <trkpt lat="48.69269" lon="1.84882">
        <ele>169.6</ele>
        <time>2023-12-20T09:42:08Z</time>
      </trkpt>
      <trkpt lat="48.69271" lon="1.84878">
        <ele>169.6</ele>
        <time>2023-12-20T09:42:09Z</time>
      </trkpt>
      <trkpt lat="48.69273" lon="1.84874">
        <ele>169.6</ele>
        <time>2023-12-20T09:42:10Z</time>
      </trkpt>
      <trkpt lat="48.69275" lon="1.84871">
        <ele>170.2</ele>
        <time>2023-12-20T09:42:11Z</time>
      </trkpt>
      <trkpt lat="48.69278" lon="1.84869">
        <ele>170.2</ele>
        <time>2023-12-20T09:42:12Z</time>
      </trkpt>
      <trkpt lat="48.6928" lon="1.84867">
        <ele>170.2</ele>
        <time>2023-12-20T09:42:13Z</time>
      </trkpt>
      <trkpt lat="48.69282" lon="1.84863">
        <ele>169.8</ele>
        <time>2023-12-20T09:42:14Z</time>
      </trkpt>
      <trkpt lat="48.69285" lon="1.84859">
        <ele>169.6</ele>
        <time>2023-12-20T09:42:15Z</time>
      </trkpt>
      <trkpt lat="48.69288" lon="1.84855">
        <ele>169.6</ele>
        <time>2023-12-20T09:42:16Z</time>
      </trkpt>
      <trkpt lat="48.69291" lon="1.8485">
        <ele>169.6</ele>
        <time>2023-12-20T09:42:17Z</time>
      </trkpt>
      <trkpt lat="48.69294" lon="1.84846">
        <ele>170.4</ele>
        <time>2023-12-20T09:42:18Z</time>
      </trkpt>
      <trkpt lat="48.69297" lon="1.84841">
        <ele>170.8</ele>
        <time>2023-12-20T09:42:19Z</time>
      </trkpt>
      <trkpt lat="48.69299" lon="1.84837">
        <ele>170.8</ele>
        <time>2023-12-20T09:42:20Z</time>
      </trkpt>
      <trkpt lat="48.69301" lon="1.84832">
        <ele>170.8</ele>
        <time>2023-12-20T09:42:21Z</time>
      </trkpt>
      <trkpt lat="48.69304" lon="1.84827">
        <ele>170.8</ele>
        <time>2023-12-20T09:42:22Z</time>
      </trkpt>
      <trkpt lat="48.69306" lon="1.84822">
        <ele>170.4</ele>
        <time>2023-12-20T09:42:23Z</time>
      </trkpt>
      <trkpt lat="48.69309" lon="1.84818">
        <ele>170.4</ele>
        <time>2023-12-20T09:42:24Z</time>
      </trkpt>
      <trkpt lat="48.69311" lon="1.84813">
        <ele>170.4</ele>
        <time>2023-12-20T09:42:25Z</time>
      </trkpt>
      <trkpt lat="48.69314" lon="1.84808">
        <ele>169.8</ele>
        <time>2023-12-20T09:42:26Z</time>
      </trkpt>
      <trkpt lat="48.69317" lon="1.84802">
        <ele>169.6</ele>
        <time>2023-12-20T09:42:27Z</time>
      </trkpt>
      <trkpt lat="48.6932" lon="1.84796">
        <ele>169.6</ele>
        <time>2023-12-20T09:42:28Z</time>
      </trkpt>
      <trkpt lat="48.69323" lon="1.8479">
        <ele>169.6</ele>
        <time>2023-12-20T09:42:29Z</time>
      </trkpt>
      <trkpt lat="48.69326" lon="1.84784">
        <ele>170.6</ele>
        <time>2023-12-20T09:42:30Z</time>
      </trkpt>
      <trkpt lat="48.69329" lon="1.84777">
        <ele>171</ele>
        <time>2023-12-20T09:42:31Z</time>
      </trkpt>
      <trkpt lat="48.69332" lon="1.84771">
        <ele>171</ele>
        <time>2023-12-20T09:42:32Z</time>
      </trkpt>
      <trkpt lat="48.69335" lon="1.84764">
        <ele>171</ele>
        <time>2023-12-20T09:42:33Z</time>
      </trkpt>
      <trkpt lat="48.69338" lon="1.84757">
        <ele>171</ele>
        <time>2023-12-20T09:42:34Z</time>
      </trkpt>
      <trkpt lat="48.69341" lon="1.8475">
        <ele>170.2</ele>
        <time>2023-12-20T09:42:35Z</time>
      </trkpt>
      <trkpt lat="48.69344" lon="1.84743">
        <ele>170.2</ele>
        <time>2023-12-20T09:42:36Z</time>
      </trkpt>
      <trkpt lat="48.69348" lon="1.84736">
        <ele>170.2</ele>
        <time>2023-12-20T09:42:37Z</time>
      </trkpt>
      <trkpt lat="48.69351" lon="1.84729">
        <ele>170.2</ele>
        <time>2023-12-20T09:42:38Z</time>
      </trkpt>
      <trkpt lat="48.69354" lon="1.84722">
        <ele>170.4</ele>
        <time>2023-12-20T09:42:39Z</time>
      </trkpt>
      <trkpt lat="48.69357" lon="1.84715">
        <ele>170.4</ele>
        <time>2023-12-20T09:42:40Z</time>
      </trkpt>
      <trkpt lat="48.6936" lon="1.84708">
        <ele>170.4</ele>
        <time>2023-12-20T09:42:41Z</time>
      </trkpt>
      <trkpt lat="48.69363" lon="1.84701">
        <ele>170.4</ele>
        <time>2023-12-20T09:42:42Z</time>
      </trkpt>
      <trkpt lat="48.69367" lon="1.84694">
        <ele>170</ele>
        <time>2023-12-20T09:42:43Z</time>
      </trkpt>
      <trkpt lat="48.6937" lon="1.84686">
        <ele>170</ele>
        <time>2023-12-20T09:42:44Z</time>
      </trkpt>
      <trkpt lat="48.69373" lon="1.84679">
        <ele>170</ele>
        <time>2023-12-20T09:42:45Z</time>
      </trkpt>
      <trkpt lat="48.69376" lon="1.84672">
        <ele>170.2</ele>
        <time>2023-12-20T09:42:46Z</time>
      </trkpt>
      <trkpt lat="48.6938" lon="1.84664">
        <ele>170.4</ele>
        <time>2023-12-20T09:42:47Z</time>
      </trkpt>
      <trkpt lat="48.69383" lon="1.84657">
        <ele>170.4</ele>
        <time>2023-12-20T09:42:48Z</time>
      </trkpt>
      <trkpt lat="48.69386" lon="1.84649">
        <ele>170.4</ele>
        <time>2023-12-20T09:42:49Z</time>
      </trkpt>
      <trkpt lat="48.69389" lon="1.84642">
        <ele>169.4</ele>
        <time>2023-12-20T09:42:50Z</time>
      </trkpt>
      <trkpt lat="48.69392" lon="1.84634">
        <ele>170.6</ele>
        <time>2023-12-20T09:42:51Z</time>
      </trkpt>
      <trkpt lat="48.69395" lon="1.84626">
        <ele>170.6</ele>
        <time>2023-12-20T09:42:52Z</time>
      </trkpt>
      <trkpt lat="48.69398" lon="1.84618">
        <ele>170.6</ele>
        <time>2023-12-20T09:42:53Z</time>
      </trkpt>
      <trkpt lat="48.69401" lon="1.8461">
        <ele>170.4</ele>
        <time>2023-12-20T09:42:54Z</time>
      </trkpt>
      <trkpt lat="48.69404" lon="1.84602">
        <ele>170.2</ele>
        <time>2023-12-20T09:42:55Z</time>
      </trkpt>
      <trkpt lat="48.69407" lon="1.84594">
        <ele>170.2</ele>
        <time>2023-12-20T09:42:56Z</time>
      </trkpt>
      <trkpt lat="48.6941" lon="1.84586">
        <ele>170.2</ele>
        <time>2023-12-20T09:42:57Z</time>
      </trkpt>
      <trkpt lat="48.69413" lon="1.84578">
        <ele>169.6</ele>
        <time>2023-12-20T09:42:58Z</time>
      </trkpt>
      <trkpt lat="48.69416" lon="1.8457">
        <ele>169.8</ele>
        <time>2023-12-20T09:42:59Z</time>
      </trkpt>
      <trkpt lat="48.69419" lon="1.84562">
        <ele>169.8</ele>
        <time>2023-12-20T09:43:00Z</time>
      </trkpt>
      <trkpt lat="48.69422" lon="1.84554">
        <ele>169.8</ele>
        <time>2023-12-20T09:43:01Z</time>
      </trkpt>
      <trkpt lat="48.69424" lon="1.84546">
        <ele>170.2</ele>
        <time>2023-12-20T09:43:02Z</time>
      </trkpt>
      <trkpt lat="48.69427" lon="1.84538">
        <ele>170.6</ele>
        <time>2023-12-20T09:43:03Z</time>
      </trkpt>
      <trkpt lat="48.6943" lon="1.84532">
        <ele>170.6</ele>
        <time>2023-12-20T09:43:04Z</time>
      </trkpt>
      <trkpt lat="48.69434" lon="1.84525">
        <ele>170.6</ele>
        <time>2023-12-20T09:43:05Z</time>
      </trkpt>
      <trkpt lat="48.69438" lon="1.84519">
        <ele>170.6</ele>
        <time>2023-12-20T09:43:06Z</time>
      </trkpt>
      <trkpt lat="48.69442" lon="1.84514">
        <ele>169.8</ele>
        <time>2023-12-20T09:43:07Z</time>
      </trkpt>
      <trkpt lat="48.69444" lon="1.84508">
        <ele>169.8</ele>
        <time>2023-12-20T09:43:08Z</time>
      </trkpt>
      <trkpt lat="48.69445" lon="1.84505">
        <ele>169.8</ele>
        <time>2023-12-20T09:43:09Z</time>
      </trkpt>
      <trkpt lat="48.69448" lon="1.84497">
        <ele>169.8</ele>
        <time>2023-12-20T09:43:10Z</time>
      </trkpt>
      <trkpt lat="48.69451" lon="1.84488">
        <ele>169.2</ele>
        <time>2023-12-20T09:43:11Z</time>
      </trkpt>
      <trkpt lat="48.69454" lon="1.8448">
        <ele>169.2</ele>
        <time>2023-12-20T09:43:12Z</time>
      </trkpt>
      <trkpt lat="48.69457" lon="1.84472">
        <ele>169.2</ele>
        <time>2023-12-20T09:43:13Z</time>
      </trkpt>
      <trkpt lat="48.6946" lon="1.84463">
        <ele>169.2</ele>
        <time>2023-12-20T09:43:14Z</time>
      </trkpt>
      <trkpt lat="48.69462" lon="1.84455">
        <ele>169.8</ele>
        <time>2023-12-20T09:43:15Z</time>
      </trkpt>
      <trkpt lat="48.69465" lon="1.84446">
        <ele>169.8</ele>
        <time>2023-12-20T09:43:16Z</time>
      </trkpt>
      <trkpt lat="48.69467" lon="1.84437">
        <ele>169.8</ele>
        <time>2023-12-20T09:43:17Z</time>
      </trkpt>
      <trkpt lat="48.6947" lon="1.84428">
        <ele>170.6</ele>
        <time>2023-12-20T09:43:18Z</time>
      </trkpt>
      <trkpt lat="48.69472" lon="1.84419">
        <ele>170.2</ele>
        <time>2023-12-20T09:43:19Z</time>
      </trkpt>
      <trkpt lat="48.69475" lon="1.8441">
        <ele>170.2</ele>
        <time>2023-12-20T09:43:20Z</time>
      </trkpt>
      <trkpt lat="48.69477" lon="1.84401">
        <ele>170.2</ele>
        <time>2023-12-20T09:43:21Z</time>
      </trkpt>
      <trkpt lat="48.69479" lon="1.84392">
        <ele>170.2</ele>
        <time>2023-12-20T09:43:22Z</time>
      </trkpt>
      <trkpt lat="48.69482" lon="1.84383">
        <ele>170.4</ele>
        <time>2023-12-20T09:43:23Z</time>
      </trkpt>
      <trkpt lat="48.69484" lon="1.84374">
        <ele>170.4</ele>
        <time>2023-12-20T09:43:24Z</time>
      </trkpt>
      <trkpt lat="48.69487" lon="1.84365">
        <ele>170.4</ele>
        <time>2023-12-20T09:43:25Z</time>
      </trkpt>
      <trkpt lat="48.69489" lon="1.84356">
        <ele>170.4</ele>
        <time>2023-12-20T09:43:26Z</time>
      </trkpt>
      <trkpt lat="48.69491" lon="1.84347">
        <ele>170</ele>
        <time>2023-12-20T09:43:27Z</time>
      </trkpt>
      <trkpt lat="48.69493" lon="1.84338">
        <ele>170</ele>
        <time>2023-12-20T09:43:28Z</time>
      </trkpt>
      <trkpt lat="48.69495" lon="1.84328">
        <ele>170</ele>
        <time>2023-12-20T09:43:29Z</time>
      </trkpt>
      <trkpt lat="48.69497" lon="1.84319">
        <ele>170</ele>
        <time>2023-12-20T09:43:30Z</time>
      </trkpt>
      <trkpt lat="48.69499" lon="1.84309">
        <ele>168.6</ele>
        <time>2023-12-20T09:43:31Z</time>
      </trkpt>
      <trkpt lat="48.69501" lon="1.843">
        <ele>168.6</ele>
        <time>2023-12-20T09:43:32Z</time>
      </trkpt>
      <trkpt lat="48.69503" lon="1.8429">
        <ele>168.6</ele>
        <time>2023-12-20T09:43:33Z</time>
      </trkpt>
      <trkpt lat="48.69505" lon="1.84281">
        <ele>168.4</ele>
        <time>2023-12-20T09:43:34Z</time>
      </trkpt>
      <trkpt lat="48.69507" lon="1.84272">
        <ele>169.4</ele>
        <time>2023-12-20T09:43:35Z</time>
      </trkpt>
      <trkpt lat="48.69509" lon="1.84263">
        <ele>169.4</ele>
        <time>2023-12-20T09:43:36Z</time>
      </trkpt>
      <trkpt lat="48.6951" lon="1.84253">
        <ele>169.4</ele>
        <time>2023-12-20T09:43:37Z</time>
      </trkpt>
      <trkpt lat="48.69512" lon="1.84244">
        <ele>169.4</ele>
        <time>2023-12-20T09:43:38Z</time>
      </trkpt>
      <trkpt lat="48.69514" lon="1.84234">
        <ele>168.8</ele>
        <time>2023-12-20T09:43:39Z</time>
      </trkpt>
      <trkpt lat="48.69516" lon="1.84225">
        <ele>168.8</ele>
        <time>2023-12-20T09:43:40Z</time>
      </trkpt>
      <trkpt lat="48.69517" lon="1.84216">
        <ele>168.8</ele>
        <time>2023-12-20T09:43:41Z</time>
      </trkpt>
      <trkpt lat="48.69519" lon="1.84207">
        <ele>168.4</ele>
        <time>2023-12-20T09:43:42Z</time>
      </trkpt>
      <trkpt lat="48.69521" lon="1.84197">
        <ele>168.2</ele>
        <time>2023-12-20T09:43:43Z</time>
      </trkpt>
      <trkpt lat="48.69522" lon="1.84188">
        <ele>168.2</ele>
        <time>2023-12-20T09:43:44Z</time>
      </trkpt>
      <trkpt lat="48.69524" lon="1.84179">
        <ele>168.2</ele>
        <time>2023-12-20T09:43:45Z</time>
      </trkpt>
      <trkpt lat="48.69526" lon="1.8417">
        <ele>169.2</ele>
        <time>2023-12-20T09:43:46Z</time>
      </trkpt>
      <trkpt lat="48.69528" lon="1.8416">
        <ele>169.6</ele>
        <time>2023-12-20T09:43:47Z</time>
      </trkpt>
      <trkpt lat="48.69529" lon="1.84151">
        <ele>169.6</ele>
        <time>2023-12-20T09:43:48Z</time>
      </trkpt>
      <trkpt lat="48.69531" lon="1.84142">
        <ele>169.6</ele>
        <time>2023-12-20T09:43:49Z</time>
      </trkpt>
      <trkpt lat="48.69533" lon="1.84132">
        <ele>169.8</ele>
        <time>2023-12-20T09:43:50Z</time>
      </trkpt>
      <trkpt lat="48.69535" lon="1.84123">
        <ele>169.2</ele>
        <time>2023-12-20T09:43:51Z</time>
      </trkpt>
      <trkpt lat="48.69536" lon="1.84113">
        <ele>169.2</ele>
        <time>2023-12-20T09:43:52Z</time>
      </trkpt>
      <trkpt lat="48.69538" lon="1.84104">
        <ele>169.2</ele>
        <time>2023-12-20T09:43:53Z</time>
      </trkpt>
      <trkpt lat="48.6954" lon="1.84095">
        <ele>169</ele>
        <time>2023-12-20T09:43:54Z</time>
      </trkpt>
      <trkpt lat="48.69542" lon="1.84086">
        <ele>169</ele>
        <time>2023-12-20T09:43:55Z</time>
      </trkpt>
      <trkpt lat="48.69544" lon="1.84077">
        <ele>169</ele>
        <time>2023-12-20T09:43:56Z</time>
      </trkpt>
      <trkpt lat="48.69547" lon="1.84069">
        <ele>169</ele>
        <time>2023-12-20T09:43:57Z</time>
      </trkpt>
      <trkpt lat="48.69549" lon="1.8406">
        <ele>169</ele>
        <time>2023-12-20T09:43:58Z</time>
      </trkpt>
      <trkpt lat="48.69552" lon="1.84052">
        <ele>169</ele>
        <time>2023-12-20T09:43:59Z</time>
      </trkpt>
      <trkpt lat="48.69555" lon="1.84043">
        <ele>169</ele>
        <time>2023-12-20T09:44:00Z</time>
      </trkpt>
      <trkpt lat="48.69558" lon="1.84035">
        <ele>169</ele>
        <time>2023-12-20T09:44:01Z</time>
      </trkpt>
      <trkpt lat="48.69561" lon="1.84028">
        <ele>169</ele>
        <time>2023-12-20T09:44:02Z</time>
      </trkpt>
      <trkpt lat="48.69565" lon="1.8402">
        <ele>169.6</ele>
        <time>2023-12-20T09:44:03Z</time>
      </trkpt>
      <trkpt lat="48.69569" lon="1.84012">
        <ele>169.6</ele>
        <time>2023-12-20T09:44:04Z</time>
      </trkpt>
      <trkpt lat="48.69572" lon="1.84005">
        <ele>169.6</ele>
        <time>2023-12-20T09:44:05Z</time>
      </trkpt>
      <trkpt lat="48.69576" lon="1.83997">
        <ele>170.6</ele>
        <time>2023-12-20T09:44:06Z</time>
      </trkpt>
      <trkpt lat="48.6958" lon="1.8399">
        <ele>170.2</ele>
        <time>2023-12-20T09:44:07Z</time>
      </trkpt>
      <trkpt lat="48.69584" lon="1.83983">
        <ele>170.2</ele>
        <time>2023-12-20T09:44:08Z</time>
      </trkpt>
      <trkpt lat="48.69589" lon="1.83976">
        <ele>170.2</ele>
        <time>2023-12-20T09:44:09Z</time>
      </trkpt>
      <trkpt lat="48.69594" lon="1.8397">
        <ele>171.2</ele>
        <time>2023-12-20T09:44:10Z</time>
      </trkpt>
      <trkpt lat="48.69599" lon="1.83964">
        <ele>171.2</ele>
        <time>2023-12-20T09:44:11Z</time>
      </trkpt>
      <trkpt lat="48.69604" lon="1.83958">
        <ele>171.2</ele>
        <time>2023-12-20T09:44:12Z</time>
      </trkpt>
      <trkpt lat="48.69609" lon="1.83952">
        <ele>171.2</ele>
        <time>2023-12-20T09:44:13Z</time>
      </trkpt>
      <trkpt lat="48.69614" lon="1.83946">
        <ele>170.2</ele>
        <time>2023-12-20T09:44:14Z</time>
      </trkpt>
      <trkpt lat="48.6962" lon="1.83941">
        <ele>170.2</ele>
        <time>2023-12-20T09:44:15Z</time>
      </trkpt>
      <trkpt lat="48.69625" lon="1.83936">
        <ele>170.2</ele>
        <time>2023-12-20T09:44:16Z</time>
      </trkpt>
      <trkpt lat="48.69631" lon="1.83931">
        <ele>170.2</ele>
        <time>2023-12-20T09:44:17Z</time>
      </trkpt>
      <trkpt lat="48.69636" lon="1.83926">
        <ele>170.2</ele>
        <time>2023-12-20T09:44:18Z</time>
      </trkpt>
      <trkpt lat="48.69642" lon="1.83921">
        <ele>170.2</ele>
        <time>2023-12-20T09:44:19Z</time>
      </trkpt>
      <trkpt lat="48.69648" lon="1.83916">
        <ele>170.2</ele>
        <time>2023-12-20T09:44:20Z</time>
      </trkpt>
      <trkpt lat="48.69653" lon="1.83911">
        <ele>170.2</ele>
        <time>2023-12-20T09:44:21Z</time>
      </trkpt>
      <trkpt lat="48.69659" lon="1.83906">
        <ele>170.2</ele>
        <time>2023-12-20T09:44:22Z</time>
      </trkpt>
      <trkpt lat="48.69665" lon="1.83901">
        <ele>171.2</ele>
        <time>2023-12-20T09:44:23Z</time>
      </trkpt>
      <trkpt lat="48.6967" lon="1.83896">
        <ele>171.2</ele>
        <time>2023-12-20T09:44:24Z</time>
      </trkpt>
      <trkpt lat="48.69676" lon="1.83892">
        <ele>171.2</ele>
        <time>2023-12-20T09:44:25Z</time>
      </trkpt>
      <trkpt lat="48.69681" lon="1.83887">
        <ele>170.6</ele>
        <time>2023-12-20T09:44:26Z</time>
      </trkpt>
      <trkpt lat="48.69687" lon="1.83882">
        <ele>171.6</ele>
        <time>2023-12-20T09:44:27Z</time>
      </trkpt>
      <trkpt lat="48.69692" lon="1.83877">
        <ele>171.6</ele>
        <time>2023-12-20T09:44:28Z</time>
      </trkpt>
      <trkpt lat="48.69698" lon="1.83873">
        <ele>171.6</ele>
        <time>2023-12-20T09:44:29Z</time>
      </trkpt>
      <trkpt lat="48.69704" lon="1.83868">
        <ele>171.6</ele>
        <time>2023-12-20T09:44:30Z</time>
      </trkpt>
      <trkpt lat="48.69709" lon="1.83863">
        <ele>171.2</ele>
        <time>2023-12-20T09:44:31Z</time>
      </trkpt>
      <trkpt lat="48.69715" lon="1.83858">
        <ele>171.2</ele>
        <time>2023-12-20T09:44:32Z</time>
      </trkpt>
      <trkpt lat="48.6972" lon="1.83853">
        <ele>171.2</ele>
        <time>2023-12-20T09:44:33Z</time>
      </trkpt>
      <trkpt lat="48.69726" lon="1.83848">
        <ele>170.2</ele>
        <time>2023-12-20T09:44:34Z</time>
      </trkpt>
      <trkpt lat="48.69732" lon="1.83843">
        <ele>169.6</ele>
        <time>2023-12-20T09:44:35Z</time>
      </trkpt>
      <trkpt lat="48.69737" lon="1.83838">
        <ele>169.6</ele>
        <time>2023-12-20T09:44:36Z</time>
      </trkpt>
      <trkpt lat="48.69743" lon="1.83833">
        <ele>169.6</ele>
        <time>2023-12-20T09:44:37Z</time>
      </trkpt>
      <trkpt lat="48.69749" lon="1.83829">
        <ele>170.6</ele>
        <time>2023-12-20T09:44:38Z</time>
      </trkpt>
      <trkpt lat="48.69754" lon="1.83824">
        <ele>172.4</ele>
        <time>2023-12-20T09:44:39Z</time>
      </trkpt>
      <trkpt lat="48.6976" lon="1.83819">
        <ele>172.4</ele>
        <time>2023-12-20T09:44:40Z</time>
      </trkpt>
      <trkpt lat="48.69766" lon="1.83814">
        <ele>172.4</ele>
        <time>2023-12-20T09:44:41Z</time>
      </trkpt>
      <trkpt lat="48.69771" lon="1.83808">
        <ele>172.4</ele>
        <time>2023-12-20T09:44:42Z</time>
      </trkpt>
      <trkpt lat="48.69777" lon="1.83803">
        <ele>171.2</ele>
        <time>2023-12-20T09:44:43Z</time>
      </trkpt>
      <trkpt lat="48.69783" lon="1.83798">
        <ele>171.2</ele>
        <time>2023-12-20T09:44:44Z</time>
      </trkpt>
      <trkpt lat="48.69789" lon="1.83793">
        <ele>171.2</ele>
        <time>2023-12-20T09:44:45Z</time>
      </trkpt>
      <trkpt lat="48.69795" lon="1.83788">
        <ele>171.2</ele>
        <time>2023-12-20T09:44:46Z</time>
      </trkpt>
      <trkpt lat="48.69801" lon="1.83783">
        <ele>171.6</ele>
        <time>2023-12-20T09:44:47Z</time>
      </trkpt>
      <trkpt lat="48.69807" lon="1.83778">
        <ele>171.6</ele>
        <time>2023-12-20T09:44:48Z</time>
      </trkpt>
      <trkpt lat="48.69813" lon="1.83772">
        <ele>171.6</ele>
        <time>2023-12-20T09:44:49Z</time>
      </trkpt>
      <trkpt lat="48.69819" lon="1.83767">
        <ele>170.6</ele>
        <time>2023-12-20T09:44:50Z</time>
      </trkpt>
      <trkpt lat="48.69825" lon="1.83761">
        <ele>171.4</ele>
        <time>2023-12-20T09:44:51Z</time>
      </trkpt>
      <trkpt lat="48.69831" lon="1.83756">
        <ele>171.4</ele>
        <time>2023-12-20T09:44:52Z</time>
      </trkpt>
      <trkpt lat="48.69836" lon="1.8375">
        <ele>171.4</ele>
        <time>2023-12-20T09:44:53Z</time>
      </trkpt>
      <trkpt lat="48.69842" lon="1.83743">
        <ele>170.4</ele>
        <time>2023-12-20T09:44:54Z</time>
      </trkpt>
      <trkpt lat="48.69847" lon="1.83737">
        <ele>169.6</ele>
        <time>2023-12-20T09:44:55Z</time>
      </trkpt>
      <trkpt lat="48.69853" lon="1.83731">
        <ele>169.6</ele>
        <time>2023-12-20T09:44:56Z</time>
      </trkpt>
      <trkpt lat="48.69858" lon="1.83724">
        <ele>169.6</ele>
        <time>2023-12-20T09:44:57Z</time>
      </trkpt>
      <trkpt lat="48.69863" lon="1.83717">
        <ele>169.6</ele>
        <time>2023-12-20T09:44:58Z</time>
      </trkpt>
      <trkpt lat="48.69868" lon="1.8371">
        <ele>169.2</ele>
        <time>2023-12-20T09:44:59Z</time>
      </trkpt>
      <trkpt lat="48.69873" lon="1.83703">
        <ele>169.2</ele>
        <time>2023-12-20T09:45:00Z</time>
      </trkpt>
      <trkpt lat="48.69877" lon="1.83696">
        <ele>169.2</ele>
        <time>2023-12-20T09:45:01Z</time>
      </trkpt>
      <trkpt lat="48.69881" lon="1.83689">
        <ele>169.2</ele>
        <time>2023-12-20T09:45:02Z</time>
      </trkpt>
      <trkpt lat="48.69885" lon="1.83681">
        <ele>170</ele>
        <time>2023-12-20T09:45:03Z</time>
      </trkpt>
      <trkpt lat="48.69889" lon="1.83674">
        <ele>170</ele>
        <time>2023-12-20T09:45:04Z</time>
      </trkpt>
      <trkpt lat="48.69893" lon="1.83666">
        <ele>170</ele>
        <time>2023-12-20T09:45:05Z</time>
      </trkpt>
      <trkpt lat="48.69897" lon="1.83659">
        <ele>170</ele>
        <time>2023-12-20T09:45:06Z</time>
      </trkpt>
      <trkpt lat="48.69901" lon="1.83651">
        <ele>170.2</ele>
        <time>2023-12-20T09:45:07Z</time>
      </trkpt>
      <trkpt lat="48.69904" lon="1.83644">
        <ele>170.2</ele>
        <time>2023-12-20T09:45:08Z</time>
      </trkpt>
      <trkpt lat="48.69908" lon="1.83636">
        <ele>170.2</ele>
        <time>2023-12-20T09:45:09Z</time>
      </trkpt>
      <trkpt lat="48.69912" lon="1.83629">
        <ele>170.2</ele>
        <time>2023-12-20T09:45:10Z</time>
      </trkpt>
      <trkpt lat="48.69916" lon="1.83621">
        <ele>171.2</ele>
        <time>2023-12-20T09:45:11Z</time>
      </trkpt>
      <trkpt lat="48.69919" lon="1.83614">
        <ele>171.2</ele>
        <time>2023-12-20T09:45:12Z</time>
      </trkpt>
      <trkpt lat="48.69923" lon="1.83606">
        <ele>171.2</ele>
        <time>2023-12-20T09:45:13Z</time>
      </trkpt>
      <trkpt lat="48.69926" lon="1.83598">
        <ele>170.4</ele>
        <time>2023-12-20T09:45:14Z</time>
      </trkpt>
      <trkpt lat="48.6993" lon="1.8359">
        <ele>171</ele>
        <time>2023-12-20T09:45:15Z</time>
      </trkpt>
      <trkpt lat="48.69933" lon="1.83582">
        <ele>171</ele>
        <time>2023-12-20T09:45:16Z</time>
      </trkpt>
      <trkpt lat="48.69937" lon="1.83575">
        <ele>171</ele>
        <time>2023-12-20T09:45:17Z</time>
      </trkpt>
      <trkpt lat="48.6994" lon="1.83567">
        <ele>171</ele>
        <time>2023-12-20T09:45:18Z</time>
      </trkpt>
      <trkpt lat="48.69943" lon="1.83559">
        <ele>171.2</ele>
        <time>2023-12-20T09:45:19Z</time>
      </trkpt>
      <trkpt lat="48.69947" lon="1.83551">
        <ele>171.2</ele>
        <time>2023-12-20T09:45:20Z</time>
      </trkpt>
      <trkpt lat="48.6995" lon="1.83544">
        <ele>171.2</ele>
        <time>2023-12-20T09:45:21Z</time>
      </trkpt>
      <trkpt lat="48.69953" lon="1.83536">
        <ele>171.2</ele>
        <time>2023-12-20T09:45:22Z</time>
      </trkpt>
      <trkpt lat="48.69956" lon="1.83528">
        <ele>171.6</ele>
        <time>2023-12-20T09:45:23Z</time>
      </trkpt>
      <trkpt lat="48.6996" lon="1.83521">
        <ele>171.6</ele>
        <time>2023-12-20T09:45:24Z</time>
      </trkpt>
      <trkpt lat="48.69963" lon="1.83512">
        <ele>171.6</ele>
        <time>2023-12-20T09:45:25Z</time>
      </trkpt>
      <trkpt lat="48.69967" lon="1.83504">
        <ele>171.2</ele>
        <time>2023-12-20T09:45:26Z</time>
      </trkpt>
      <trkpt lat="48.6997" lon="1.83496">
        <ele>172</ele>
        <time>2023-12-20T09:45:27Z</time>
      </trkpt>
      <trkpt lat="48.69974" lon="1.83488">
        <ele>172</ele>
        <time>2023-12-20T09:45:28Z</time>
      </trkpt>
      <trkpt lat="48.69977" lon="1.8348">
        <ele>172</ele>
        <time>2023-12-20T09:45:29Z</time>
      </trkpt>
      <trkpt lat="48.69981" lon="1.83472">
        <ele>171</ele>
        <time>2023-12-20T09:45:30Z</time>
      </trkpt>
      <trkpt lat="48.69984" lon="1.83463">
        <ele>171.4</ele>
        <time>2023-12-20T09:45:31Z</time>
      </trkpt>
      <trkpt lat="48.69988" lon="1.83455">
        <ele>171.4</ele>
        <time>2023-12-20T09:45:32Z</time>
      </trkpt>
      <trkpt lat="48.69991" lon="1.83447">
        <ele>171.4</ele>
        <time>2023-12-20T09:45:33Z</time>
      </trkpt>
      <trkpt lat="48.69995" lon="1.83439">
        <ele>170.4</ele>
        <time>2023-12-20T09:45:34Z</time>
      </trkpt>
      <trkpt lat="48.69998" lon="1.83431">
        <ele>169.2</ele>
        <time>2023-12-20T09:45:35Z</time>
      </trkpt>
      <trkpt lat="48.70001" lon="1.83423">
        <ele>169.2</ele>
        <time>2023-12-20T09:45:36Z</time>
      </trkpt>
      <trkpt lat="48.70004" lon="1.83415">
        <ele>169.2</ele>
        <time>2023-12-20T09:45:37Z</time>
      </trkpt>
      <trkpt lat="48.70007" lon="1.83406">
        <ele>170</ele>
        <time>2023-12-20T09:45:38Z</time>
      </trkpt>
      <trkpt lat="48.70009" lon="1.83398">
        <ele>169.8</ele>
        <time>2023-12-20T09:45:39Z</time>
      </trkpt>
      <trkpt lat="48.70012" lon="1.8339">
        <ele>169.8</ele>
        <time>2023-12-20T09:45:40Z</time>
      </trkpt>
      <trkpt lat="48.70015" lon="1.83382">
        <ele>169.8</ele>
        <time>2023-12-20T09:45:41Z</time>
      </trkpt>
      <trkpt lat="48.70017" lon="1.83374">
        <ele>170.8</ele>
        <time>2023-12-20T09:45:42Z</time>
      </trkpt>
      <trkpt lat="48.7002" lon="1.83366">
        <ele>171.6</ele>
        <time>2023-12-20T09:45:43Z</time>
      </trkpt>
      <trkpt lat="48.70022" lon="1.83357">
        <ele>171.6</ele>
        <time>2023-12-20T09:45:44Z</time>
      </trkpt>
      <trkpt lat="48.70025" lon="1.83349">
        <ele>171.6</ele>
        <time>2023-12-20T09:45:45Z</time>
      </trkpt>
      <trkpt lat="48.70027" lon="1.83341">
        <ele>171.6</ele>
        <time>2023-12-20T09:45:46Z</time>
      </trkpt>
      <trkpt lat="48.7003" lon="1.83332">
        <ele>170.6</ele>
        <time>2023-12-20T09:45:47Z</time>
      </trkpt>
      <trkpt lat="48.70032" lon="1.83324">
        <ele>170.6</ele>
        <time>2023-12-20T09:45:48Z</time>
      </trkpt>
      <trkpt lat="48.70035" lon="1.83316">
        <ele>170.6</ele>
        <time>2023-12-20T09:45:49Z</time>
      </trkpt>
      <trkpt lat="48.70038" lon="1.83307">
        <ele>170.2</ele>
        <time>2023-12-20T09:45:50Z</time>
      </trkpt>
      <trkpt lat="48.7004" lon="1.83299">
        <ele>171.2</ele>
        <time>2023-12-20T09:45:51Z</time>
      </trkpt>
      <trkpt lat="48.70043" lon="1.83291">
        <ele>171.2</ele>
        <time>2023-12-20T09:45:52Z</time>
      </trkpt>
      <trkpt lat="48.70045" lon="1.83283">
        <ele>171.2</ele>
        <time>2023-12-20T09:45:53Z</time>
      </trkpt>
      <trkpt lat="48.70048" lon="1.83275">
        <ele>171</ele>
        <time>2023-12-20T09:45:54Z</time>
      </trkpt>
      <trkpt lat="48.7005" lon="1.83266">
        <ele>171.8</ele>
        <time>2023-12-20T09:45:55Z</time>
      </trkpt>
      <trkpt lat="48.70053" lon="1.83258">
        <ele>171.8</ele>
        <time>2023-12-20T09:45:56Z</time>
      </trkpt>
      <trkpt lat="48.70056" lon="1.8325">
        <ele>171.8</ele>
        <time>2023-12-20T09:45:57Z</time>
      </trkpt>
      <trkpt lat="48.70058" lon="1.83241">
        <ele>171.2</ele>
        <time>2023-12-20T09:45:58Z</time>
      </trkpt>
      <trkpt lat="48.70061" lon="1.83233">
        <ele>170.6</ele>
        <time>2023-12-20T09:45:59Z</time>
      </trkpt>
      <trkpt lat="48.70064" lon="1.83225">
        <ele>170.6</ele>
        <time>2023-12-20T09:46:00Z</time>
      </trkpt>
      <trkpt lat="48.70067" lon="1.83217">
        <ele>170.6</ele>
        <time>2023-12-20T09:46:01Z</time>
      </trkpt>
      <trkpt lat="48.7007" lon="1.83208">
        <ele>170.6</ele>
        <time>2023-12-20T09:46:02Z</time>
      </trkpt>
      <trkpt lat="48.70073" lon="1.832">
        <ele>171</ele>
        <time>2023-12-20T09:46:03Z</time>
      </trkpt>
      <trkpt lat="48.70076" lon="1.83192">
        <ele>171</ele>
        <time>2023-12-20T09:46:04Z</time>
      </trkpt>
      <trkpt lat="48.70079" lon="1.83184">
        <ele>171</ele>
        <time>2023-12-20T09:46:05Z</time>
      </trkpt>
      <trkpt lat="48.70082" lon="1.83176">
        <ele>170.6</ele>
        <time>2023-12-20T09:46:06Z</time>
      </trkpt>
      <trkpt lat="48.70085" lon="1.83168">
        <ele>170.8</ele>
        <time>2023-12-20T09:46:07Z</time>
      </trkpt>
      <trkpt lat="48.70089" lon="1.8316">
        <ele>170.8</ele>
        <time>2023-12-20T09:46:08Z</time>
      </trkpt>
      <trkpt lat="48.70092" lon="1.83152">
        <ele>170.8</ele>
        <time>2023-12-20T09:46:09Z</time>
      </trkpt>
      <trkpt lat="48.70095" lon="1.83144">
        <ele>170.8</ele>
        <time>2023-12-20T09:46:10Z</time>
      </trkpt>
      <trkpt lat="48.70098" lon="1.83136">
        <ele>170.4</ele>
        <time>2023-12-20T09:46:11Z</time>
      </trkpt>
      <trkpt lat="48.70101" lon="1.83128">
        <ele>170.4</ele>
        <time>2023-12-20T09:46:12Z</time>
      </trkpt>
      <trkpt lat="48.70104" lon="1.83121">
        <ele>170.4</ele>
        <time>2023-12-20T09:46:13Z</time>
      </trkpt>
      <trkpt lat="48.70107" lon="1.83113">
        <ele>170.4</ele>
        <time>2023-12-20T09:46:14Z</time>
      </trkpt>
      <trkpt lat="48.70111" lon="1.83104">
        <ele>169.6</ele>
        <time>2023-12-20T09:46:15Z</time>
      </trkpt>
      <trkpt lat="48.70114" lon="1.83095">
        <ele>169.6</ele>
        <time>2023-12-20T09:46:16Z</time>
      </trkpt>
      <trkpt lat="48.70118" lon="1.83086">
        <ele>169.6</ele>
        <time>2023-12-20T09:46:17Z</time>
      </trkpt>
      <trkpt lat="48.70121" lon="1.83078">
        <ele>170.6</ele>
        <time>2023-12-20T09:46:18Z</time>
      </trkpt>
      <trkpt lat="48.70125" lon="1.83069">
        <ele>171.6</ele>
        <time>2023-12-20T09:46:19Z</time>
      </trkpt>
      <trkpt lat="48.70128" lon="1.83061">
        <ele>171.6</ele>
        <time>2023-12-20T09:46:20Z</time>
      </trkpt>
      <trkpt lat="48.70131" lon="1.83053">
        <ele>171.6</ele>
        <time>2023-12-20T09:46:21Z</time>
      </trkpt>
      <trkpt lat="48.70134" lon="1.83044">
        <ele>171.6</ele>
        <time>2023-12-20T09:46:22Z</time>
      </trkpt>
      <trkpt lat="48.70137" lon="1.83036">
        <ele>170.6</ele>
        <time>2023-12-20T09:46:23Z</time>
      </trkpt>
      <trkpt lat="48.7014" lon="1.83027">
        <ele>170.6</ele>
        <time>2023-12-20T09:46:24Z</time>
      </trkpt>
      <trkpt lat="48.70143" lon="1.83019">
        <ele>170.6</ele>
        <time>2023-12-20T09:46:25Z</time>
      </trkpt>
      <trkpt lat="48.70146" lon="1.8301">
        <ele>170.6</ele>
        <time>2023-12-20T09:46:26Z</time>
      </trkpt>
      <trkpt lat="48.70149" lon="1.83002">
        <ele>170.2</ele>
        <time>2023-12-20T09:46:27Z</time>
      </trkpt>
      <trkpt lat="48.70151" lon="1.82993">
        <ele>170.2</ele>
        <time>2023-12-20T09:46:28Z</time>
      </trkpt>
      <trkpt lat="48.70154" lon="1.82984">
        <ele>170.2</ele>
        <time>2023-12-20T09:46:29Z</time>
      </trkpt>
      <trkpt lat="48.70157" lon="1.82975">
        <ele>170.2</ele>
        <time>2023-12-20T09:46:30Z</time>
      </trkpt>
      <trkpt lat="48.70159" lon="1.82966">
        <ele>170.2</ele>
        <time>2023-12-20T09:46:31Z</time>
      </trkpt>
      <trkpt lat="48.70161" lon="1.82957">
        <ele>170.2</ele>
        <time>2023-12-20T09:46:32Z</time>
      </trkpt>
      <trkpt lat="48.70164" lon="1.82948">
        <ele>170.2</ele>
        <time>2023-12-20T09:46:33Z</time>
      </trkpt>
      <trkpt lat="48.70166" lon="1.82939">
        <ele>170.2</ele>
        <time>2023-12-20T09:46:34Z</time>
      </trkpt>
      <trkpt lat="48.70169" lon="1.8293">
        <ele>170.4</ele>
        <time>2023-12-20T09:46:35Z</time>
      </trkpt>
      <trkpt lat="48.70171" lon="1.82921">
        <ele>170.4</ele>
        <time>2023-12-20T09:46:36Z</time>
      </trkpt>
      <trkpt lat="48.70173" lon="1.82912">
        <ele>170.4</ele>
        <time>2023-12-20T09:46:37Z</time>
      </trkpt>
      <trkpt lat="48.70175" lon="1.82903">
        <ele>170.4</ele>
        <time>2023-12-20T09:46:38Z</time>
      </trkpt>
      <trkpt lat="48.70177" lon="1.82894">
        <ele>170.6</ele>
        <time>2023-12-20T09:46:39Z</time>
      </trkpt>
      <trkpt lat="48.7018" lon="1.82885">
        <ele>170.6</ele>
        <time>2023-12-20T09:46:40Z</time>
      </trkpt>
      <trkpt lat="48.70182" lon="1.82876">
        <ele>170.6</ele>
        <time>2023-12-20T09:46:41Z</time>
      </trkpt>
      <trkpt lat="48.70184" lon="1.82867">
        <ele>170.6</ele>
        <time>2023-12-20T09:46:42Z</time>
      </trkpt>
      <trkpt lat="48.70186" lon="1.82858">
        <ele>170.4</ele>
        <time>2023-12-20T09:46:43Z</time>
      </trkpt>
      <trkpt lat="48.70189" lon="1.82849">
        <ele>170.4</ele>
        <time>2023-12-20T09:46:44Z</time>
      </trkpt>
      <trkpt lat="48.70191" lon="1.8284">
        <ele>170.4</ele>
        <time>2023-12-20T09:46:45Z</time>
      </trkpt>
      <trkpt lat="48.70193" lon="1.82831">
        <ele>171.2</ele>
        <time>2023-12-20T09:46:46Z</time>
      </trkpt>
      <trkpt lat="48.70195" lon="1.82822">
        <ele>170.6</ele>
        <time>2023-12-20T09:46:47Z</time>
      </trkpt>
      <trkpt lat="48.70197" lon="1.82813">
        <ele>170.6</ele>
        <time>2023-12-20T09:46:48Z</time>
      </trkpt>
      <trkpt lat="48.702" lon="1.82804">
        <ele>170.6</ele>
        <time>2023-12-20T09:46:49Z</time>
      </trkpt>
      <trkpt lat="48.70202" lon="1.82795">
        <ele>170.6</ele>
        <time>2023-12-20T09:46:50Z</time>
      </trkpt>
      <trkpt lat="48.70204" lon="1.82786">
        <ele>170.4</ele>
        <time>2023-12-20T09:46:51Z</time>
      </trkpt>
      <trkpt lat="48.70206" lon="1.82777">
        <ele>170.4</ele>
        <time>2023-12-20T09:46:52Z</time>
      </trkpt>
      <trkpt lat="48.70209" lon="1.82768">
        <ele>170.4</ele>
        <time>2023-12-20T09:46:53Z</time>
      </trkpt>
      <trkpt lat="48.70211" lon="1.82759">
        <ele>171</ele>
        <time>2023-12-20T09:46:54Z</time>
      </trkpt>
      <trkpt lat="48.70213" lon="1.8275">
        <ele>170.8</ele>
        <time>2023-12-20T09:46:55Z</time>
      </trkpt>
      <trkpt lat="48.70216" lon="1.82741">
        <ele>170.8</ele>
        <time>2023-12-20T09:46:56Z</time>
      </trkpt>
      <trkpt lat="48.70218" lon="1.82732">
        <ele>170.8</ele>
        <time>2023-12-20T09:46:57Z</time>
      </trkpt>
      <trkpt lat="48.7022" lon="1.82723">
        <ele>170.8</ele>
        <time>2023-12-20T09:46:58Z</time>
      </trkpt>
      <trkpt lat="48.70223" lon="1.82714">
        <ele>171.2</ele>
        <time>2023-12-20T09:46:59Z</time>
      </trkpt>
      <trkpt lat="48.70225" lon="1.82705">
        <ele>171.2</ele>
        <time>2023-12-20T09:47:00Z</time>
      </trkpt>
      <trkpt lat="48.70227" lon="1.82696">
        <ele>171.2</ele>
        <time>2023-12-20T09:47:01Z</time>
      </trkpt>
      <trkpt lat="48.7023" lon="1.82687">
        <ele>170.2</ele>
        <time>2023-12-20T09:47:02Z</time>
      </trkpt>
      <trkpt lat="48.70232" lon="1.82678">
        <ele>170</ele>
        <time>2023-12-20T09:47:03Z</time>
      </trkpt>
      <trkpt lat="48.70234" lon="1.82669">
        <ele>170</ele>
        <time>2023-12-20T09:47:04Z</time>
      </trkpt>
      <trkpt lat="48.70236" lon="1.8266">
        <ele>170</ele>
        <time>2023-12-20T09:47:05Z</time>
      </trkpt>
      <trkpt lat="48.70239" lon="1.82651">
        <ele>170</ele>
        <time>2023-12-20T09:47:06Z</time>
      </trkpt>
      <trkpt lat="48.70241" lon="1.82642">
        <ele>169.8</ele>
        <time>2023-12-20T09:47:07Z</time>
      </trkpt>
      <trkpt lat="48.70243" lon="1.82633">
        <ele>169.8</ele>
        <time>2023-12-20T09:47:08Z</time>
      </trkpt>
      <trkpt lat="48.70245" lon="1.82624">
        <ele>169.8</ele>
        <time>2023-12-20T09:47:09Z</time>
      </trkpt>
      <trkpt lat="48.70247" lon="1.82615">
        <ele>170.8</ele>
        <time>2023-12-20T09:47:10Z</time>
      </trkpt>
      <trkpt lat="48.70249" lon="1.82606">
        <ele>170.4</ele>
        <time>2023-12-20T09:47:11Z</time>
      </trkpt>
      <trkpt lat="48.70251" lon="1.82598">
        <ele>170.4</ele>
        <time>2023-12-20T09:47:12Z</time>
      </trkpt>
      <trkpt lat="48.70253" lon="1.82589">
        <ele>170.4</ele>
        <time>2023-12-20T09:47:13Z</time>
      </trkpt>
      <trkpt lat="48.70254" lon="1.8258">
        <ele>170.4</ele>
        <time>2023-12-20T09:47:14Z</time>
      </trkpt>
      <trkpt lat="48.70256" lon="1.82571">
        <ele>170.8</ele>
        <time>2023-12-20T09:47:15Z</time>
      </trkpt>
      <trkpt lat="48.70258" lon="1.82562">
        <ele>170.8</ele>
        <time>2023-12-20T09:47:16Z</time>
      </trkpt>
      <trkpt lat="48.70259" lon="1.82553">
        <ele>170.8</ele>
        <time>2023-12-20T09:47:17Z</time>
      </trkpt>
      <trkpt lat="48.70261" lon="1.82543">
        <ele>170.8</ele>
        <time>2023-12-20T09:47:18Z</time>
      </trkpt>
      <trkpt lat="48.70262" lon="1.82534">
        <ele>171.2</ele>
        <time>2023-12-20T09:47:19Z</time>
      </trkpt>
      <trkpt lat="48.70264" lon="1.82525">
        <ele>171.2</ele>
        <time>2023-12-20T09:47:20Z</time>
      </trkpt>
      <trkpt lat="48.70265" lon="1.82516">
        <ele>171.2</ele>
        <time>2023-12-20T09:47:21Z</time>
      </trkpt>
      <trkpt lat="48.70267" lon="1.82507">
        <ele>171.2</ele>
        <time>2023-12-20T09:47:22Z</time>
      </trkpt>
      <trkpt lat="48.70268" lon="1.82497">
        <ele>171</ele>
        <time>2023-12-20T09:47:23Z</time>
      </trkpt>
      <trkpt lat="48.70269" lon="1.82488">
        <ele>171</ele>
        <time>2023-12-20T09:47:24Z</time>
      </trkpt>
      <trkpt lat="48.7027" lon="1.82478">
        <ele>171</ele>
        <time>2023-12-20T09:47:25Z</time>
      </trkpt>
      <trkpt lat="48.70272" lon="1.82469">
        <ele>170.4</ele>
        <time>2023-12-20T09:47:26Z</time>
      </trkpt>
      <trkpt lat="48.70273" lon="1.82459">
        <ele>169.8</ele>
        <time>2023-12-20T09:47:27Z</time>
      </trkpt>
      <trkpt lat="48.70274" lon="1.8245">
        <ele>169.8</ele>
        <time>2023-12-20T09:47:28Z</time>
      </trkpt>
      <trkpt lat="48.70275" lon="1.8244">
        <ele>169.8</ele>
        <time>2023-12-20T09:47:29Z</time>
      </trkpt>
      <trkpt lat="48.70276" lon="1.82431">
        <ele>170.8</ele>
        <time>2023-12-20T09:47:30Z</time>
      </trkpt>
      <trkpt lat="48.70278" lon="1.82421">
        <ele>170.2</ele>
        <time>2023-12-20T09:47:31Z</time>
      </trkpt>
      <trkpt lat="48.70279" lon="1.82412">
        <ele>170.2</ele>
        <time>2023-12-20T09:47:32Z</time>
      </trkpt>
      <trkpt lat="48.7028" lon="1.82402">
        <ele>170.2</ele>
        <time>2023-12-20T09:47:33Z</time>
      </trkpt>
      <trkpt lat="48.70281" lon="1.82392">
        <ele>170.4</ele>
        <time>2023-12-20T09:47:34Z</time>
      </trkpt>
      <trkpt lat="48.70282" lon="1.82382">
        <ele>170.2</ele>
        <time>2023-12-20T09:47:35Z</time>
      </trkpt>
      <trkpt lat="48.70282" lon="1.82372">
        <ele>170.2</ele>
        <time>2023-12-20T09:47:36Z</time>
      </trkpt>
      <trkpt lat="48.70283" lon="1.82362">
        <ele>170.2</ele>
        <time>2023-12-20T09:47:37Z</time>
      </trkpt>
      <trkpt lat="48.70284" lon="1.82352">
        <ele>170.2</ele>
        <time>2023-12-20T09:47:38Z</time>
      </trkpt>
      <trkpt lat="48.70286" lon="1.82342">
        <ele>170.2</ele>
        <time>2023-12-20T09:47:39Z</time>
      </trkpt>
      <trkpt lat="48.70287" lon="1.82332">
        <ele>170.2</ele>
        <time>2023-12-20T09:47:40Z</time>
      </trkpt>
      <trkpt lat="48.70288" lon="1.82322">
        <ele>170.2</ele>
        <time>2023-12-20T09:47:41Z</time>
      </trkpt>
      <trkpt lat="48.7029" lon="1.82313">
        <ele>170</ele>
        <time>2023-12-20T09:47:42Z</time>
      </trkpt>
      <trkpt lat="48.70292" lon="1.82303">
        <ele>170.2</ele>
        <time>2023-12-20T09:47:43Z</time>
      </trkpt>
      <trkpt lat="48.70294" lon="1.82294">
        <ele>170.2</ele>
        <time>2023-12-20T09:47:44Z</time>
      </trkpt>
      <trkpt lat="48.70296" lon="1.82284">
        <ele>170.2</ele>
        <time>2023-12-20T09:47:45Z</time>
      </trkpt>
      <trkpt lat="48.70299" lon="1.82275">
        <ele>170.2</ele>
        <time>2023-12-20T09:47:46Z</time>
      </trkpt>
      <trkpt lat="48.70301" lon="1.82265">
        <ele>170.2</ele>
        <time>2023-12-20T09:47:47Z</time>
      </trkpt>
      <trkpt lat="48.70304" lon="1.82256">
        <ele>170.2</ele>
        <time>2023-12-20T09:47:48Z</time>
      </trkpt>
      <trkpt lat="48.70306" lon="1.82247">
        <ele>170.2</ele>
        <time>2023-12-20T09:47:49Z</time>
      </trkpt>
      <trkpt lat="48.70309" lon="1.82237">
        <ele>170.2</ele>
        <time>2023-12-20T09:47:50Z</time>
      </trkpt>
      <trkpt lat="48.70312" lon="1.82228">
        <ele>170</ele>
        <time>2023-12-20T09:47:51Z</time>
      </trkpt>
      <trkpt lat="48.70315" lon="1.82218">
        <ele>170</ele>
        <time>2023-12-20T09:47:52Z</time>
      </trkpt>
      <trkpt lat="48.70318" lon="1.82209">
        <ele>170</ele>
        <time>2023-12-20T09:47:53Z</time>
      </trkpt>
      <trkpt lat="48.70321" lon="1.82199">
        <ele>169.6</ele>
        <time>2023-12-20T09:47:54Z</time>
      </trkpt>
      <trkpt lat="48.70324" lon="1.8219">
        <ele>169.8</ele>
        <time>2023-12-20T09:47:55Z</time>
      </trkpt>
      <trkpt lat="48.70327" lon="1.82181">
        <ele>169.8</ele>
        <time>2023-12-20T09:47:56Z</time>
      </trkpt>
      <trkpt lat="48.70331" lon="1.82172">
        <ele>169.8</ele>
        <time>2023-12-20T09:47:57Z</time>
      </trkpt>
      <trkpt lat="48.70334" lon="1.82162">
        <ele>169.2</ele>
        <time>2023-12-20T09:47:58Z</time>
      </trkpt>
      <trkpt lat="48.70337" lon="1.82153">
        <ele>169.6</ele>
        <time>2023-12-20T09:47:59Z</time>
      </trkpt>
      <trkpt lat="48.7034" lon="1.82144">
        <ele>169.6</ele>
        <time>2023-12-20T09:48:00Z</time>
      </trkpt>
      <trkpt lat="48.70343" lon="1.82135">
        <ele>169.6</ele>
        <time>2023-12-20T09:48:01Z</time>
      </trkpt>
      <trkpt lat="48.70347" lon="1.82125">
        <ele>169.6</ele>
        <time>2023-12-20T09:48:02Z</time>
      </trkpt>
      <trkpt lat="48.7035" lon="1.82116">
        <ele>169.6</ele>
        <time>2023-12-20T09:48:03Z</time>
      </trkpt>
      <trkpt lat="48.70353" lon="1.82107">
        <ele>169.6</ele>
        <time>2023-12-20T09:48:04Z</time>
      </trkpt>
      <trkpt lat="48.70357" lon="1.82099">
        <ele>169.6</ele>
        <time>2023-12-20T09:48:05Z</time>
      </trkpt>
      <trkpt lat="48.7036" lon="1.8209">
        <ele>170</ele>
        <time>2023-12-20T09:48:06Z</time>
      </trkpt>
      <trkpt lat="48.70363" lon="1.82081">
        <ele>169.8</ele>
        <time>2023-12-20T09:48:07Z</time>
      </trkpt>
      <trkpt lat="48.70367" lon="1.82073">
        <ele>169.8</ele>
        <time>2023-12-20T09:48:08Z</time>
      </trkpt>
      <trkpt lat="48.7037" lon="1.82065">
        <ele>169.8</ele>
        <time>2023-12-20T09:48:09Z</time>
      </trkpt>
      <trkpt lat="48.70373" lon="1.82058">
        <ele>169.4</ele>
        <time>2023-12-20T09:48:10Z</time>
      </trkpt>
      <trkpt lat="48.70377" lon="1.82049">
        <ele>168.6</ele>
        <time>2023-12-20T09:48:11Z</time>
      </trkpt>
      <trkpt lat="48.7038" lon="1.82041">
        <ele>168.6</ele>
        <time>2023-12-20T09:48:12Z</time>
      </trkpt>
      <trkpt lat="48.70383" lon="1.82033">
        <ele>168.6</ele>
        <time>2023-12-20T09:48:13Z</time>
      </trkpt>
      <trkpt lat="48.70386" lon="1.82026">
        <ele>169.4</ele>
        <time>2023-12-20T09:48:14Z</time>
      </trkpt>
      <trkpt lat="48.7039" lon="1.82019">
        <ele>169.6</ele>
        <time>2023-12-20T09:48:15Z</time>
      </trkpt>
      <trkpt lat="48.70393" lon="1.82012">
        <ele>169.6</ele>
        <time>2023-12-20T09:48:16Z</time>
      </trkpt>
      <trkpt lat="48.70397" lon="1.82005">
        <ele>169.6</ele>
        <time>2023-12-20T09:48:17Z</time>
      </trkpt>
      <trkpt lat="48.70401" lon="1.81998">
        <ele>169.6</ele>
        <time>2023-12-20T09:48:18Z</time>
      </trkpt>
      <trkpt lat="48.70404" lon="1.81992">
        <ele>169.6</ele>
        <time>2023-12-20T09:48:19Z</time>
      </trkpt>
      <trkpt lat="48.70407" lon="1.81985">
        <ele>169.6</ele>
        <time>2023-12-20T09:48:20Z</time>
      </trkpt>
      <trkpt lat="48.7041" lon="1.8198">
        <ele>169.6</ele>
        <time>2023-12-20T09:48:21Z</time>
      </trkpt>
      <trkpt lat="48.70414" lon="1.81973">
        <ele>169.6</ele>
        <time>2023-12-20T09:48:22Z</time>
      </trkpt>
      <trkpt lat="48.70417" lon="1.81966">
        <ele>169.6</ele>
        <time>2023-12-20T09:48:23Z</time>
      </trkpt>
      <trkpt lat="48.7042" lon="1.81957">
        <ele>169.6</ele>
        <time>2023-12-20T09:48:24Z</time>
      </trkpt>
      <trkpt lat="48.70424" lon="1.8195">
        <ele>169.6</ele>
        <time>2023-12-20T09:48:25Z</time>
      </trkpt>
      <trkpt lat="48.70427" lon="1.81942">
        <ele>169.2</ele>
        <time>2023-12-20T09:48:26Z</time>
      </trkpt>
      <trkpt lat="48.70429" lon="1.81933">
        <ele>169.6</ele>
        <time>2023-12-20T09:48:27Z</time>
      </trkpt>
      <trkpt lat="48.70432" lon="1.81924">
        <ele>169.6</ele>
        <time>2023-12-20T09:48:28Z</time>
      </trkpt>
      <trkpt lat="48.70435" lon="1.81915">
        <ele>169.6</ele>
        <time>2023-12-20T09:48:29Z</time>
      </trkpt>
      <trkpt lat="48.70438" lon="1.81907">
        <ele>169.6</ele>
        <time>2023-12-20T09:48:30Z</time>
      </trkpt>
      <trkpt lat="48.7044" lon="1.81897">
        <ele>169.4</ele>
        <time>2023-12-20T09:48:31Z</time>
      </trkpt>
      <trkpt lat="48.70443" lon="1.81888">
        <ele>169.4</ele>
        <time>2023-12-20T09:48:32Z</time>
      </trkpt>
      <trkpt lat="48.70445" lon="1.81879">
        <ele>169.4</ele>
        <time>2023-12-20T09:48:33Z</time>
      </trkpt>
      <trkpt lat="48.70448" lon="1.8187">
        <ele>168.8</ele>
        <time>2023-12-20T09:48:34Z</time>
      </trkpt>
      <trkpt lat="48.70451" lon="1.81861">
        <ele>168.8</ele>
        <time>2023-12-20T09:48:35Z</time>
      </trkpt>
      <trkpt lat="48.70453" lon="1.81852">
        <ele>168.8</ele>
        <time>2023-12-20T09:48:36Z</time>
      </trkpt>
      <trkpt lat="48.70456" lon="1.81843">
        <ele>168.8</ele>
        <time>2023-12-20T09:48:37Z</time>
      </trkpt>
      <trkpt lat="48.70459" lon="1.81835">
        <ele>168.8</ele>
        <time>2023-12-20T09:48:38Z</time>
      </trkpt>
      <trkpt lat="48.70462" lon="1.81827">
        <ele>169.2</ele>
        <time>2023-12-20T09:48:39Z</time>
      </trkpt>
      <trkpt lat="48.70464" lon="1.81818">
        <ele>169.2</ele>
        <time>2023-12-20T09:48:40Z</time>
      </trkpt>
      <trkpt lat="48.70467" lon="1.81809">
        <ele>169.2</ele>
        <time>2023-12-20T09:48:41Z</time>
      </trkpt>
      <trkpt lat="48.70471" lon="1.81802">
        <ele>169.2</ele>
        <time>2023-12-20T09:48:42Z</time>
      </trkpt>
      <trkpt lat="48.70474" lon="1.81795">
        <ele>168.8</ele>
        <time>2023-12-20T09:48:43Z</time>
      </trkpt>
      <trkpt lat="48.70478" lon="1.81789">
        <ele>168.8</ele>
        <time>2023-12-20T09:48:44Z</time>
      </trkpt>
      <trkpt lat="48.70481" lon="1.81781">
        <ele>168.8</ele>
        <time>2023-12-20T09:48:45Z</time>
      </trkpt>
      <trkpt lat="48.70485" lon="1.81775">
        <ele>168.8</ele>
        <time>2023-12-20T09:48:46Z</time>
      </trkpt>
      <trkpt lat="48.70488" lon="1.81766">
        <ele>169.4</ele>
        <time>2023-12-20T09:48:47Z</time>
      </trkpt>
      <trkpt lat="48.7049" lon="1.81756">
        <ele>169.4</ele>
        <time>2023-12-20T09:48:48Z</time>
      </trkpt>
      <trkpt lat="48.70493" lon="1.81747">
        <ele>169.4</ele>
        <time>2023-12-20T09:48:49Z</time>
      </trkpt>
      <trkpt lat="48.70497" lon="1.81739">
        <ele>169</ele>
        <time>2023-12-20T09:48:50Z</time>
      </trkpt>
      <trkpt lat="48.705" lon="1.8173">
        <ele>168.8</ele>
        <time>2023-12-20T09:48:51Z</time>
      </trkpt>
      <trkpt lat="48.70503" lon="1.81722">
        <ele>168.8</ele>
        <time>2023-12-20T09:48:52Z</time>
      </trkpt>
      <trkpt lat="48.70506" lon="1.81713">
        <ele>168.8</ele>
        <time>2023-12-20T09:48:53Z</time>
      </trkpt>
      <trkpt lat="48.70509" lon="1.81704">
        <ele>168.8</ele>
        <time>2023-12-20T09:48:54Z</time>
      </trkpt>
      <trkpt lat="48.70512" lon="1.81694">
        <ele>168.6</ele>
        <time>2023-12-20T09:48:55Z</time>
      </trkpt>
      <trkpt lat="48.70515" lon="1.81682">
        <ele>168.6</ele>
        <time>2023-12-20T09:48:56Z</time>
      </trkpt>
      <trkpt lat="48.70518" lon="1.81671">
        <ele>168.6</ele>
        <time>2023-12-20T09:48:57Z</time>
      </trkpt>
      <trkpt lat="48.70521" lon="1.8166">
        <ele>169</ele>
        <time>2023-12-20T09:48:58Z</time>
      </trkpt>
      <trkpt lat="48.70524" lon="1.81651">
        <ele>168.8</ele>
        <time>2023-12-20T09:48:59Z</time>
      </trkpt>
      <trkpt lat="48.70527" lon="1.81641">
        <ele>168.8</ele>
        <time>2023-12-20T09:49:00Z</time>
      </trkpt>
      <trkpt lat="48.7053" lon="1.81632">
        <ele>168.8</ele>
        <time>2023-12-20T09:49:01Z</time>
      </trkpt>
      <trkpt lat="48.70534" lon="1.81623">
        <ele>168.8</ele>
        <time>2023-12-20T09:49:02Z</time>
      </trkpt>
      <trkpt lat="48.70537" lon="1.81614">
        <ele>168.8</ele>
        <time>2023-12-20T09:49:03Z</time>
      </trkpt>
      <trkpt lat="48.7054" lon="1.81606">
        <ele>168.8</ele>
        <time>2023-12-20T09:49:04Z</time>
      </trkpt>
      <trkpt lat="48.70543" lon="1.81595">
        <ele>168.8</ele>
        <time>2023-12-20T09:49:05Z</time>
      </trkpt>
      <trkpt lat="48.70546" lon="1.81584">
        <ele>168.6</ele>
        <time>2023-12-20T09:49:06Z</time>
      </trkpt>
      <trkpt lat="48.70549" lon="1.81575">
        <ele>168.8</ele>
        <time>2023-12-20T09:49:07Z</time>
      </trkpt>
      <trkpt lat="48.70552" lon="1.81566">
        <ele>168.8</ele>
        <time>2023-12-20T09:49:08Z</time>
      </trkpt>
      <trkpt lat="48.70555" lon="1.81557">
        <ele>168.8</ele>
        <time>2023-12-20T09:49:09Z</time>
      </trkpt>
      <trkpt lat="48.70558" lon="1.81548">
        <ele>168.8</ele>
        <time>2023-12-20T09:49:10Z</time>
      </trkpt>
      <trkpt lat="48.70561" lon="1.8154">
        <ele>168.4</ele>
        <time>2023-12-20T09:49:11Z</time>
      </trkpt>
      <trkpt lat="48.70564" lon="1.8153">
        <ele>168.4</ele>
        <time>2023-12-20T09:49:12Z</time>
      </trkpt>
      <trkpt lat="48.70567" lon="1.81521">
        <ele>168.4</ele>
        <time>2023-12-20T09:49:13Z</time>
      </trkpt>
      <trkpt lat="48.7057" lon="1.81512">
        <ele>168.4</ele>
        <time>2023-12-20T09:49:14Z</time>
      </trkpt>
      <trkpt lat="48.70573" lon="1.81502">
        <ele>168.6</ele>
        <time>2023-12-20T09:49:15Z</time>
      </trkpt>
      <trkpt lat="48.70576" lon="1.81493">
        <ele>168.6</ele>
        <time>2023-12-20T09:49:16Z</time>
      </trkpt>
      <trkpt lat="48.70578" lon="1.81484">
        <ele>168.6</ele>
        <time>2023-12-20T09:49:17Z</time>
      </trkpt>
      <trkpt lat="48.70582" lon="1.81475">
        <ele>168.6</ele>
        <time>2023-12-20T09:49:18Z</time>
      </trkpt>
      <trkpt lat="48.70585" lon="1.81467">
        <ele>168.6</ele>
        <time>2023-12-20T09:49:19Z</time>
      </trkpt>
      <trkpt lat="48.70588" lon="1.81458">
        <ele>168.6</ele>
        <time>2023-12-20T09:49:20Z</time>
      </trkpt>
      <trkpt lat="48.70591" lon="1.81451">
        <ele>168.6</ele>
        <time>2023-12-20T09:49:21Z</time>
      </trkpt>
      <trkpt lat="48.70594" lon="1.81444">
        <ele>168.6</ele>
        <time>2023-12-20T09:49:22Z</time>
      </trkpt>
      <trkpt lat="48.70597" lon="1.81436">
        <ele>168.2</ele>
        <time>2023-12-20T09:49:23Z</time>
      </trkpt>
      <trkpt lat="48.706" lon="1.81428">
        <ele>168.2</ele>
        <time>2023-12-20T09:49:24Z</time>
      </trkpt>
      <trkpt lat="48.70603" lon="1.81418">
        <ele>168.2</ele>
        <time>2023-12-20T09:49:25Z</time>
      </trkpt>
      <trkpt lat="48.70606" lon="1.81409">
        <ele>168.6</ele>
        <time>2023-12-20T09:49:26Z</time>
      </trkpt>
      <trkpt lat="48.70609" lon="1.81401">
        <ele>168.4</ele>
        <time>2023-12-20T09:49:27Z</time>
      </trkpt>
      <trkpt lat="48.70612" lon="1.81393">
        <ele>168.4</ele>
        <time>2023-12-20T09:49:28Z</time>
      </trkpt>
      <trkpt lat="48.70615" lon="1.81384">
        <ele>168.4</ele>
        <time>2023-12-20T09:49:29Z</time>
      </trkpt>
      <trkpt lat="48.70618" lon="1.81376">
        <ele>168.4</ele>
        <time>2023-12-20T09:49:30Z</time>
      </trkpt>
      <trkpt lat="48.7062" lon="1.81368">
        <ele>168.2</ele>
        <time>2023-12-20T09:49:31Z</time>
      </trkpt>
      <trkpt lat="48.70623" lon="1.81359">
        <ele>168.2</ele>
        <time>2023-12-20T09:49:32Z</time>
      </trkpt>
      <trkpt lat="48.70625" lon="1.8135">
        <ele>168.2</ele>
        <time>2023-12-20T09:49:33Z</time>
      </trkpt>
      <trkpt lat="48.70628" lon="1.81341">
        <ele>168.2</ele>
        <time>2023-12-20T09:49:34Z</time>
      </trkpt>
      <trkpt lat="48.7063" lon="1.81332">
        <ele>168</ele>
        <time>2023-12-20T09:49:35Z</time>
      </trkpt>
      <trkpt lat="48.70633" lon="1.81323">
        <ele>168</ele>
        <time>2023-12-20T09:49:36Z</time>
      </trkpt>
      <trkpt lat="48.70635" lon="1.81315">
        <ele>168</ele>
        <time>2023-12-20T09:49:37Z</time>
      </trkpt>
      <trkpt lat="48.70638" lon="1.81306">
        <ele>168</ele>
        <time>2023-12-20T09:49:38Z</time>
      </trkpt>
      <trkpt lat="48.70642" lon="1.813">
        <ele>167.6</ele>
        <time>2023-12-20T09:49:39Z</time>
      </trkpt>
      <trkpt lat="48.70647" lon="1.81296">
        <ele>167.6</ele>
        <time>2023-12-20T09:49:40Z</time>
      </trkpt>
      <trkpt lat="48.70653" lon="1.81294">
        <ele>167.6</ele>
        <time>2023-12-20T09:49:41Z</time>
      </trkpt>
      <trkpt lat="48.70658" lon="1.81294">
        <ele>167.6</ele>
        <time>2023-12-20T09:49:42Z</time>
      </trkpt>
      <trkpt lat="48.70663" lon="1.81296">
        <ele>167.8</ele>
        <time>2023-12-20T09:49:43Z</time>
      </trkpt>
      <trkpt lat="48.70668" lon="1.81298">
        <ele>167.8</ele>
        <time>2023-12-20T09:49:44Z</time>
      </trkpt>
      <trkpt lat="48.70673" lon="1.813">
        <ele>167.8</ele>
        <time>2023-12-20T09:49:45Z</time>
      </trkpt>
      <trkpt lat="48.70679" lon="1.81303">
        <ele>167.8</ele>
        <time>2023-12-20T09:49:46Z</time>
      </trkpt>
      <trkpt lat="48.70684" lon="1.81305">
        <ele>167.6</ele>
        <time>2023-12-20T09:49:47Z</time>
      </trkpt>
      <trkpt lat="48.7069" lon="1.81308">
        <ele>167.6</ele>
        <time>2023-12-20T09:49:48Z</time>
      </trkpt>
      <trkpt lat="48.70696" lon="1.81311">
        <ele>167.6</ele>
        <time>2023-12-20T09:49:49Z</time>
      </trkpt>
      <trkpt lat="48.70701" lon="1.81314">
        <ele>167.2</ele>
        <time>2023-12-20T09:49:50Z</time>
      </trkpt>
      <trkpt lat="48.70707" lon="1.81317">
        <ele>167.2</ele>
        <time>2023-12-20T09:49:51Z</time>
      </trkpt>
      <trkpt lat="48.70713" lon="1.8132">
        <ele>167.2</ele>
        <time>2023-12-20T09:49:52Z</time>
      </trkpt>
      <trkpt lat="48.70719" lon="1.81322">
        <ele>167.2</ele>
        <time>2023-12-20T09:49:53Z</time>
      </trkpt>
      <trkpt lat="48.70725" lon="1.81324">
        <ele>167.2</ele>
        <time>2023-12-20T09:49:54Z</time>
      </trkpt>
      <trkpt lat="48.70731" lon="1.81326">
        <ele>167</ele>
        <time>2023-12-20T09:49:55Z</time>
      </trkpt>
      <trkpt lat="48.70736" lon="1.81328">
        <ele>167</ele>
        <time>2023-12-20T09:49:56Z</time>
      </trkpt>
      <trkpt lat="48.70741" lon="1.81331">
        <ele>167</ele>
        <time>2023-12-20T09:49:57Z</time>
      </trkpt>
      <trkpt lat="48.70746" lon="1.81335">
        <ele>167</ele>
        <time>2023-12-20T09:49:58Z</time>
      </trkpt>
      <trkpt lat="48.70752" lon="1.81339">
        <ele>167</ele>
        <time>2023-12-20T09:49:59Z</time>
      </trkpt>
      <trkpt lat="48.70757" lon="1.81342">
        <ele>167</ele>
        <time>2023-12-20T09:50:00Z</time>
      </trkpt>
      <trkpt lat="48.70763" lon="1.81346">
        <ele>167</ele>
        <time>2023-12-20T09:50:01Z</time>
      </trkpt>
      <trkpt lat="48.70769" lon="1.8135">
        <ele>166.8</ele>
        <time>2023-12-20T09:50:02Z</time>
      </trkpt>
      <trkpt lat="48.70775" lon="1.81353">
        <ele>166.6</ele>
        <time>2023-12-20T09:50:03Z</time>
      </trkpt>
      <trkpt lat="48.70781" lon="1.81356">
        <ele>166.6</ele>
        <time>2023-12-20T09:50:04Z</time>
      </trkpt>
      <trkpt lat="48.70787" lon="1.81359">
        <ele>166.6</ele>
        <time>2023-12-20T09:50:05Z</time>
      </trkpt>
      <trkpt lat="48.70793" lon="1.81362">
        <ele>166.6</ele>
        <time>2023-12-20T09:50:06Z</time>
      </trkpt>
      <trkpt lat="48.70799" lon="1.81365">
        <ele>166.6</ele>
        <time>2023-12-20T09:50:07Z</time>
      </trkpt>
      <trkpt lat="48.70805" lon="1.81368">
        <ele>166.6</ele>
        <time>2023-12-20T09:50:08Z</time>
      </trkpt>
      <trkpt lat="48.7081" lon="1.81371">
        <ele>166.6</ele>
        <time>2023-12-20T09:50:09Z</time>
      </trkpt>
      <trkpt lat="48.70816" lon="1.81374">
        <ele>166.6</ele>
        <time>2023-12-20T09:50:10Z</time>
      </trkpt>
      <trkpt lat="48.70821" lon="1.81377">
        <ele>166.2</ele>
        <time>2023-12-20T09:50:11Z</time>
      </trkpt>
      <trkpt lat="48.70827" lon="1.8138">
        <ele>166.2</ele>
        <time>2023-12-20T09:50:12Z</time>
      </trkpt>
      <trkpt lat="48.70833" lon="1.81383">
        <ele>166.2</ele>
        <time>2023-12-20T09:50:13Z</time>
      </trkpt>
      <trkpt lat="48.70839" lon="1.81386">
        <ele>166.2</ele>
        <time>2023-12-20T09:50:14Z</time>
      </trkpt>
      <trkpt lat="48.70845" lon="1.8139">
        <ele>166.8</ele>
        <time>2023-12-20T09:50:15Z</time>
      </trkpt>
      <trkpt lat="48.70851" lon="1.81394">
        <ele>166.8</ele>
        <time>2023-12-20T09:50:16Z</time>
      </trkpt>
      <trkpt lat="48.70857" lon="1.81397">
        <ele>166.8</ele>
        <time>2023-12-20T09:50:17Z</time>
      </trkpt>
      <trkpt lat="48.70864" lon="1.81401">
        <ele>166.6</ele>
        <time>2023-12-20T09:50:18Z</time>
      </trkpt>
      <trkpt lat="48.7087" lon="1.81405">
        <ele>166.6</ele>
        <time>2023-12-20T09:50:19Z</time>
      </trkpt>
      <trkpt lat="48.70876" lon="1.81409">
        <ele>166.6</ele>
        <time>2023-12-20T09:50:20Z</time>
      </trkpt>
      <trkpt lat="48.70883" lon="1.81413">
        <ele>166.6</ele>
        <time>2023-12-20T09:50:21Z</time>
      </trkpt>
      <trkpt lat="48.70889" lon="1.81417">
        <ele>166.2</ele>
        <time>2023-12-20T09:50:22Z</time>
      </trkpt>
      <trkpt lat="48.70896" lon="1.8142">
        <ele>166.2</ele>
        <time>2023-12-20T09:50:23Z</time>
      </trkpt>
      <trkpt lat="48.70902" lon="1.81424">
        <ele>166.2</ele>
        <time>2023-12-20T09:50:24Z</time>
      </trkpt>
      <trkpt lat="48.70909" lon="1.81428">
        <ele>166.2</ele>
        <time>2023-12-20T09:50:25Z</time>
      </trkpt>
      <trkpt lat="48.70916" lon="1.81432">
        <ele>166.2</ele>
        <time>2023-12-20T09:50:26Z</time>
      </trkpt>
      <trkpt lat="48.70922" lon="1.81437">
        <ele>166.4</ele>
        <time>2023-12-20T09:50:27Z</time>
      </trkpt>
      <trkpt lat="48.70929" lon="1.81441">
        <ele>166.4</ele>
        <time>2023-12-20T09:50:28Z</time>
      </trkpt>
      <trkpt lat="48.70936" lon="1.81446">
        <ele>166.4</ele>
        <time>2023-12-20T09:50:29Z</time>
      </trkpt>
      <trkpt lat="48.70943" lon="1.81451">
        <ele>166.2</ele>
        <time>2023-12-20T09:50:30Z</time>
      </trkpt>
      <trkpt lat="48.7095" lon="1.81455">
        <ele>166</ele>
        <time>2023-12-20T09:50:31Z</time>
      </trkpt>
      <trkpt lat="48.70956" lon="1.8146">
        <ele>166</ele>
        <time>2023-12-20T09:50:32Z</time>
      </trkpt>
      <trkpt lat="48.70963" lon="1.81465">
        <ele>166</ele>
        <time>2023-12-20T09:50:33Z</time>
      </trkpt>
      <trkpt lat="48.7097" lon="1.81469">
        <ele>165.6</ele>
        <time>2023-12-20T09:50:34Z</time>
      </trkpt>
      <trkpt lat="48.70976" lon="1.81473">
        <ele>166</ele>
        <time>2023-12-20T09:50:35Z</time>
      </trkpt>
      <trkpt lat="48.70982" lon="1.81477">
        <ele>166</ele>
        <time>2023-12-20T09:50:36Z</time>
      </trkpt>
      <trkpt lat="48.70988" lon="1.81481">
        <ele>166</ele>
        <time>2023-12-20T09:50:37Z</time>
      </trkpt>
      <trkpt lat="48.70994" lon="1.81486">
        <ele>166</ele>
        <time>2023-12-20T09:50:38Z</time>
      </trkpt>
      <trkpt lat="48.71001" lon="1.8149">
        <ele>165.8</ele>
        <time>2023-12-20T09:50:39Z</time>
      </trkpt>
      <trkpt lat="48.71007" lon="1.81495">
        <ele>165.8</ele>
        <time>2023-12-20T09:50:40Z</time>
      </trkpt>
      <trkpt lat="48.71013" lon="1.81499">
        <ele>165.8</ele>
        <time>2023-12-20T09:50:41Z</time>
      </trkpt>
      <trkpt lat="48.71019" lon="1.81504">
        <ele>165.6</ele>
        <time>2023-12-20T09:50:42Z</time>
      </trkpt>
      <trkpt lat="48.71026" lon="1.81508">
        <ele>165.6</ele>
        <time>2023-12-20T09:50:43Z</time>
      </trkpt>
      <trkpt lat="48.71032" lon="1.81513">
        <ele>165.6</ele>
        <time>2023-12-20T09:50:44Z</time>
      </trkpt>
      <trkpt lat="48.71038" lon="1.81517">
        <ele>165.6</ele>
        <time>2023-12-20T09:50:45Z</time>
      </trkpt>
      <trkpt lat="48.71044" lon="1.81521">
        <ele>165.6</ele>
        <time>2023-12-20T09:50:46Z</time>
      </trkpt>
      <trkpt lat="48.71049" lon="1.81526">
        <ele>165.4</ele>
        <time>2023-12-20T09:50:47Z</time>
      </trkpt>
      <trkpt lat="48.71055" lon="1.81529">
        <ele>165.4</ele>
        <time>2023-12-20T09:50:48Z</time>
      </trkpt>
      <trkpt lat="48.7106" lon="1.81533">
        <ele>165.4</ele>
        <time>2023-12-20T09:50:49Z</time>
      </trkpt>
      <trkpt lat="48.71066" lon="1.81537">
        <ele>165.4</ele>
        <time>2023-12-20T09:50:50Z</time>
      </trkpt>
      <trkpt lat="48.7107" lon="1.81541">
        <ele>165.2</ele>
        <time>2023-12-20T09:50:51Z</time>
      </trkpt>
      <trkpt lat="48.71075" lon="1.81545">
        <ele>165.2</ele>
        <time>2023-12-20T09:50:52Z</time>
      </trkpt>
      <trkpt lat="48.7108" lon="1.81549">
        <ele>165.2</ele>
        <time>2023-12-20T09:50:53Z</time>
      </trkpt>
      <trkpt lat="48.71085" lon="1.81553">
        <ele>165.2</ele>
        <time>2023-12-20T09:50:54Z</time>
      </trkpt>
      <trkpt lat="48.71089" lon="1.81557">
        <ele>165</ele>
        <time>2023-12-20T09:50:55Z</time>
      </trkpt>
      <trkpt lat="48.71094" lon="1.81561">
        <ele>165</ele>
        <time>2023-12-20T09:50:56Z</time>
      </trkpt>
      <trkpt lat="48.71099" lon="1.81565">
        <ele>165</ele>
        <time>2023-12-20T09:50:57Z</time>
      </trkpt>
      <trkpt lat="48.71105" lon="1.81569">
        <ele>165.6</ele>
        <time>2023-12-20T09:50:58Z</time>
      </trkpt>
      <trkpt lat="48.7111" lon="1.81574">
        <ele>165.2</ele>
        <time>2023-12-20T09:50:59Z</time>
      </trkpt>
      <trkpt lat="48.71115" lon="1.81578">
        <ele>165.2</ele>
        <time>2023-12-20T09:51:00Z</time>
      </trkpt>
      <trkpt lat="48.7112" lon="1.81583">
        <ele>165.2</ele>
        <time>2023-12-20T09:51:01Z</time>
      </trkpt>
      <trkpt lat="48.71126" lon="1.81587">
        <ele>165.4</ele>
        <time>2023-12-20T09:51:02Z</time>
      </trkpt>
      <trkpt lat="48.71131" lon="1.81591">
        <ele>165.2</ele>
        <time>2023-12-20T09:51:03Z</time>
      </trkpt>
      <trkpt lat="48.71137" lon="1.81596">
        <ele>165.2</ele>
        <time>2023-12-20T09:51:04Z</time>
      </trkpt>
      <trkpt lat="48.71142" lon="1.81601">
        <ele>165.2</ele>
        <time>2023-12-20T09:51:05Z</time>
      </trkpt>
      <trkpt lat="48.71147" lon="1.81606">
        <ele>165.2</ele>
        <time>2023-12-20T09:51:06Z</time>
      </trkpt>
      <trkpt lat="48.71153" lon="1.8161">
        <ele>165.2</ele>
        <time>2023-12-20T09:51:07Z</time>
      </trkpt>
      <trkpt lat="48.71158" lon="1.81615">
        <ele>165.2</ele>
        <time>2023-12-20T09:51:08Z</time>
      </trkpt>
      <trkpt lat="48.71163" lon="1.8162">
        <ele>165.2</ele>
        <time>2023-12-20T09:51:09Z</time>
      </trkpt>
      <trkpt lat="48.71168" lon="1.81626">
        <ele>165</ele>
        <time>2023-12-20T09:51:10Z</time>
      </trkpt>
      <trkpt lat="48.71173" lon="1.81631">
        <ele>165.2</ele>
        <time>2023-12-20T09:51:11Z</time>
      </trkpt>
      <trkpt lat="48.71178" lon="1.81636">
        <ele>165.2</ele>
        <time>2023-12-20T09:51:12Z</time>
      </trkpt>
      <trkpt lat="48.71183" lon="1.81642">
        <ele>165.2</ele>
        <time>2023-12-20T09:51:13Z</time>
      </trkpt>
      <trkpt lat="48.71188" lon="1.81647">
        <ele>165</ele>
        <time>2023-12-20T09:51:14Z</time>
      </trkpt>
      <trkpt lat="48.71193" lon="1.81653">
        <ele>165.4</ele>
        <time>2023-12-20T09:51:15Z</time>
      </trkpt>
      <trkpt lat="48.71197" lon="1.81659">
        <ele>165.4</ele>
        <time>2023-12-20T09:51:16Z</time>
      </trkpt>
      <trkpt lat="48.71202" lon="1.81665">
        <ele>165.4</ele>
        <time>2023-12-20T09:51:17Z</time>
      </trkpt>
      <trkpt lat="48.71207" lon="1.81671">
        <ele>165.4</ele>
        <time>2023-12-20T09:51:18Z</time>
      </trkpt>
      <trkpt lat="48.71211" lon="1.81677">
        <ele>165</ele>
        <time>2023-12-20T09:51:19Z</time>
      </trkpt>
      <trkpt lat="48.71216" lon="1.81684">
        <ele>165</ele>
        <time>2023-12-20T09:51:20Z</time>
      </trkpt>
      <trkpt lat="48.7122" lon="1.8169">
        <ele>165</ele>
        <time>2023-12-20T09:51:21Z</time>
      </trkpt>
      <trkpt lat="48.71225" lon="1.81696">
        <ele>165</ele>
        <time>2023-12-20T09:51:22Z</time>
      </trkpt>
      <trkpt lat="48.71229" lon="1.81702">
        <ele>165</ele>
        <time>2023-12-20T09:51:23Z</time>
      </trkpt>
      <trkpt lat="48.71234" lon="1.81709">
        <ele>165</ele>
        <time>2023-12-20T09:51:24Z</time>
      </trkpt>
      <trkpt lat="48.71238" lon="1.81715">
        <ele>165</ele>
        <time>2023-12-20T09:51:25Z</time>
      </trkpt>
      <trkpt lat="48.71242" lon="1.81721">
        <ele>165</ele>
        <time>2023-12-20T09:51:26Z</time>
      </trkpt>
      <trkpt lat="48.71247" lon="1.81728">
        <ele>165</ele>
        <time>2023-12-20T09:51:27Z</time>
      </trkpt>
      <trkpt lat="48.71251" lon="1.81734">
        <ele>165</ele>
        <time>2023-12-20T09:51:28Z</time>
      </trkpt>
      <trkpt lat="48.71254" lon="1.81741">
        <ele>165</ele>
        <time>2023-12-20T09:51:29Z</time>
      </trkpt>
      <trkpt lat="48.71258" lon="1.81747">
        <ele>165</ele>
        <time>2023-12-20T09:51:30Z</time>
      </trkpt>
      <trkpt lat="48.71261" lon="1.81754">
        <ele>165</ele>
        <time>2023-12-20T09:51:31Z</time>
      </trkpt>
      <trkpt lat="48.71264" lon="1.8176">
        <ele>165</ele>
        <time>2023-12-20T09:51:32Z</time>
      </trkpt>
      <trkpt lat="48.71268" lon="1.81766">
        <ele>165</ele>
        <time>2023-12-20T09:51:33Z</time>
      </trkpt>
      <trkpt lat="48.71272" lon="1.81773">
        <ele>165</ele>
        <time>2023-12-20T09:51:34Z</time>
      </trkpt>
      <trkpt lat="48.71276" lon="1.81779">
        <ele>165.2</ele>
        <time>2023-12-20T09:51:35Z</time>
      </trkpt>
      <trkpt lat="48.7128" lon="1.81786">
        <ele>165.2</ele>
        <time>2023-12-20T09:51:36Z</time>
      </trkpt>
      <trkpt lat="48.71283" lon="1.81793">
        <ele>165.2</ele>
        <time>2023-12-20T09:51:37Z</time>
      </trkpt>
      <trkpt lat="48.71287" lon="1.818">
        <ele>165</ele>
        <time>2023-12-20T09:51:38Z</time>
      </trkpt>
      <trkpt lat="48.71291" lon="1.81807">
        <ele>164.8</ele>
        <time>2023-12-20T09:51:39Z</time>
      </trkpt>
      <trkpt lat="48.71295" lon="1.81814">
        <ele>164.8</ele>
        <time>2023-12-20T09:51:40Z</time>
      </trkpt>
      <trkpt lat="48.71298" lon="1.8182">
        <ele>164.8</ele>
        <time>2023-12-20T09:51:41Z</time>
      </trkpt>
      <trkpt lat="48.71302" lon="1.81827">
        <ele>164.8</ele>
        <time>2023-12-20T09:51:42Z</time>
      </trkpt>
      <trkpt lat="48.71306" lon="1.81833">
        <ele>164.6</ele>
        <time>2023-12-20T09:51:43Z</time>
      </trkpt>
      <trkpt lat="48.7131" lon="1.8184">
        <ele>164.6</ele>
        <time>2023-12-20T09:51:44Z</time>
      </trkpt>
      <trkpt lat="48.71314" lon="1.81847">
        <ele>164.6</ele>
        <time>2023-12-20T09:51:45Z</time>
      </trkpt>
      <trkpt lat="48.71318" lon="1.81854">
        <ele>165</ele>
        <time>2023-12-20T09:51:46Z</time>
      </trkpt>
      <trkpt lat="48.71322" lon="1.8186">
        <ele>165</ele>
        <time>2023-12-20T09:51:47Z</time>
      </trkpt>
      <trkpt lat="48.71327" lon="1.81866">
        <ele>165</ele>
        <time>2023-12-20T09:51:48Z</time>
      </trkpt>
      <trkpt lat="48.71332" lon="1.81871">
        <ele>165</ele>
        <time>2023-12-20T09:51:49Z</time>
      </trkpt>
      <trkpt lat="48.71337" lon="1.81877">
        <ele>165</ele>
        <time>2023-12-20T09:51:50Z</time>
      </trkpt>
      <trkpt lat="48.71343" lon="1.81881">
        <ele>164.2</ele>
        <time>2023-12-20T09:51:51Z</time>
      </trkpt>
      <trkpt lat="48.71348" lon="1.81885">
        <ele>164.2</ele>
        <time>2023-12-20T09:51:52Z</time>
      </trkpt>
      <trkpt lat="48.71354" lon="1.81887">
        <ele>164.2</ele>
        <time>2023-12-20T09:51:53Z</time>
      </trkpt>
      <trkpt lat="48.7136" lon="1.81889">
        <ele>165</ele>
        <time>2023-12-20T09:51:54Z</time>
      </trkpt>
      <trkpt lat="48.71366" lon="1.8189">
        <ele>164.6</ele>
        <time>2023-12-20T09:51:55Z</time>
      </trkpt>
      <trkpt lat="48.71372" lon="1.81892">
        <ele>164.6</ele>
        <time>2023-12-20T09:51:56Z</time>
      </trkpt>
      <trkpt lat="48.71378" lon="1.81893">
        <ele>164.6</ele>
        <time>2023-12-20T09:51:57Z</time>
      </trkpt>
      <trkpt lat="48.71384" lon="1.81894">
        <ele>165</ele>
        <time>2023-12-20T09:51:58Z</time>
      </trkpt>
      <trkpt lat="48.7139" lon="1.81895">
        <ele>164.8</ele>
        <time>2023-12-20T09:51:59Z</time>
      </trkpt>
      <trkpt lat="48.71397" lon="1.81896">
        <ele>164.8</ele>
        <time>2023-12-20T09:52:00Z</time>
      </trkpt>
      <trkpt lat="48.71403" lon="1.81898">
        <ele>164.8</ele>
        <time>2023-12-20T09:52:01Z</time>
      </trkpt>
      <trkpt lat="48.71409" lon="1.819">
        <ele>164.4</ele>
        <time>2023-12-20T09:52:02Z</time>
      </trkpt>
      <trkpt lat="48.71415" lon="1.81902">
        <ele>164.8</ele>
        <time>2023-12-20T09:52:03Z</time>
      </trkpt>
      <trkpt lat="48.71421" lon="1.81904">
        <ele>164.8</ele>
        <time>2023-12-20T09:52:04Z</time>
      </trkpt>
      <trkpt lat="48.71427" lon="1.81907">
        <ele>164.8</ele>
        <time>2023-12-20T09:52:05Z</time>
      </trkpt>
      <trkpt lat="48.71433" lon="1.8191">
        <ele>164.4</ele>
        <time>2023-12-20T09:52:06Z</time>
      </trkpt>
      <trkpt lat="48.71439" lon="1.81913">
        <ele>164.6</ele>
        <time>2023-12-20T09:52:07Z</time>
      </trkpt>
      <trkpt lat="48.71445" lon="1.81916">
        <ele>164.6</ele>
        <time>2023-12-20T09:52:08Z</time>
      </trkpt>
      <trkpt lat="48.71451" lon="1.81919">
        <ele>164.6</ele>
        <time>2023-12-20T09:52:09Z</time>
      </trkpt>
      <trkpt lat="48.71457" lon="1.81923">
        <ele>164.2</ele>
        <time>2023-12-20T09:52:10Z</time>
      </trkpt>
      <trkpt lat="48.71463" lon="1.81926">
        <ele>164.4</ele>
        <time>2023-12-20T09:52:11Z</time>
      </trkpt>
      <trkpt lat="48.71469" lon="1.8193">
        <ele>164.4</ele>
        <time>2023-12-20T09:52:12Z</time>
      </trkpt>
      <trkpt lat="48.71475" lon="1.81933">
        <ele>164.4</ele>
        <time>2023-12-20T09:52:13Z</time>
      </trkpt>
      <trkpt lat="48.71481" lon="1.81937">
        <ele>164.4</ele>
        <time>2023-12-20T09:52:14Z</time>
      </trkpt>
      <trkpt lat="48.71486" lon="1.81941">
        <ele>164.4</ele>
        <time>2023-12-20T09:52:15Z</time>
      </trkpt>
      <trkpt lat="48.71492" lon="1.81944">
        <ele>164.4</ele>
        <time>2023-12-20T09:52:16Z</time>
      </trkpt>
      <trkpt lat="48.71498" lon="1.81948">
        <ele>164.4</ele>
        <time>2023-12-20T09:52:17Z</time>
      </trkpt>
      <trkpt lat="48.71503" lon="1.81951">
        <ele>164.4</ele>
        <time>2023-12-20T09:52:18Z</time>
      </trkpt>
      <trkpt lat="48.71509" lon="1.81955">
        <ele>164.4</ele>
        <time>2023-12-20T09:52:19Z</time>
      </trkpt>
      <trkpt lat="48.71515" lon="1.81959">
        <ele>164.4</ele>
        <time>2023-12-20T09:52:20Z</time>
      </trkpt>
      <trkpt lat="48.71521" lon="1.81962">
        <ele>164.4</ele>
        <time>2023-12-20T09:52:21Z</time>
      </trkpt>
      <trkpt lat="48.71527" lon="1.81966">
        <ele>164.4</ele>
        <time>2023-12-20T09:52:22Z</time>
      </trkpt>
      <trkpt lat="48.71532" lon="1.8197">
        <ele>164.2</ele>
        <time>2023-12-20T09:52:23Z</time>
      </trkpt>
      <trkpt lat="48.71539" lon="1.81974">
        <ele>164.2</ele>
        <time>2023-12-20T09:52:24Z</time>
      </trkpt>
      <trkpt lat="48.71545" lon="1.81977">
        <ele>164.2</ele>
        <time>2023-12-20T09:52:25Z</time>
      </trkpt>
      <trkpt lat="48.71551" lon="1.81981">
        <ele>164.4</ele>
        <time>2023-12-20T09:52:26Z</time>
      </trkpt>
      <trkpt lat="48.71557" lon="1.81985">
        <ele>164.6</ele>
        <time>2023-12-20T09:52:27Z</time>
      </trkpt>
      <trkpt lat="48.71563" lon="1.81989">
        <ele>164.6</ele>
        <time>2023-12-20T09:52:28Z</time>
      </trkpt>
      <trkpt lat="48.71569" lon="1.81992">
        <ele>164.6</ele>
        <time>2023-12-20T09:52:29Z</time>
      </trkpt>
      <trkpt lat="48.71576" lon="1.81996">
        <ele>164.6</ele>
        <time>2023-12-20T09:52:30Z</time>
      </trkpt>
      <trkpt lat="48.71582" lon="1.81999">
        <ele>164.4</ele>
        <time>2023-12-20T09:52:31Z</time>
      </trkpt>
      <trkpt lat="48.71588" lon="1.82001">
        <ele>164.4</ele>
        <time>2023-12-20T09:52:32Z</time>
      </trkpt>
      <trkpt lat="48.71595" lon="1.82003">
        <ele>164.4</ele>
        <time>2023-12-20T09:52:33Z</time>
      </trkpt>
      <trkpt lat="48.71602" lon="1.82005">
        <ele>164.6</ele>
        <time>2023-12-20T09:52:34Z</time>
      </trkpt>
      <trkpt lat="48.71608" lon="1.82006">
        <ele>164.4</ele>
        <time>2023-12-20T09:52:35Z</time>
      </trkpt>
      <trkpt lat="48.71615" lon="1.82008">
        <ele>164.4</ele>
        <time>2023-12-20T09:52:36Z</time>
      </trkpt>
      <trkpt lat="48.71622" lon="1.82009">
        <ele>164.4</ele>
        <time>2023-12-20T09:52:37Z</time>
      </trkpt>
      <trkpt lat="48.71629" lon="1.82009">
        <ele>164.4</ele>
        <time>2023-12-20T09:52:38Z</time>
      </trkpt>
      <trkpt lat="48.71636" lon="1.8201">
        <ele>164.4</ele>
        <time>2023-12-20T09:52:39Z</time>
      </trkpt>
      <trkpt lat="48.71643" lon="1.8201">
        <ele>164.4</ele>
        <time>2023-12-20T09:52:40Z</time>
      </trkpt>
      <trkpt lat="48.7165" lon="1.82011">
        <ele>164.4</ele>
        <time>2023-12-20T09:52:41Z</time>
      </trkpt>
      <trkpt lat="48.71657" lon="1.82012">
        <ele>164.2</ele>
        <time>2023-12-20T09:52:42Z</time>
      </trkpt>
      <trkpt lat="48.71664" lon="1.82013">
        <ele>164.6</ele>
        <time>2023-12-20T09:52:43Z</time>
      </trkpt>
      <trkpt lat="48.71671" lon="1.82013">
        <ele>164.6</ele>
        <time>2023-12-20T09:52:44Z</time>
      </trkpt>
      <trkpt lat="48.71678" lon="1.82014">
        <ele>164.6</ele>
        <time>2023-12-20T09:52:45Z</time>
      </trkpt>
      <trkpt lat="48.71685" lon="1.82015">
        <ele>164.6</ele>
        <time>2023-12-20T09:52:46Z</time>
      </trkpt>
      <trkpt lat="48.71692" lon="1.82015">
        <ele>164.6</ele>
        <time>2023-12-20T09:52:47Z</time>
      </trkpt>
      <trkpt lat="48.71699" lon="1.82016">
        <ele>164.6</ele>
        <time>2023-12-20T09:52:48Z</time>
      </trkpt>
      <trkpt lat="48.71706" lon="1.82017">
        <ele>164.6</ele>
        <time>2023-12-20T09:52:49Z</time>
      </trkpt>
      <trkpt lat="48.71713" lon="1.82017">
        <ele>164.6</ele>
        <time>2023-12-20T09:52:50Z</time>
      </trkpt>
      <trkpt lat="48.7172" lon="1.82018">
        <ele>164.2</ele>
        <time>2023-12-20T09:52:51Z</time>
      </trkpt>
      <trkpt lat="48.71727" lon="1.82019">
        <ele>164.2</ele>
        <time>2023-12-20T09:52:52Z</time>
      </trkpt>
      <trkpt lat="48.71734" lon="1.8202">
        <ele>164.2</ele>
        <time>2023-12-20T09:52:53Z</time>
      </trkpt>
      <trkpt lat="48.71741" lon="1.82021">
        <ele>164.2</ele>
        <time>2023-12-20T09:52:54Z</time>
      </trkpt>
      <trkpt lat="48.71749" lon="1.82021">
        <ele>164</ele>
        <time>2023-12-20T09:52:55Z</time>
      </trkpt>
      <trkpt lat="48.71756" lon="1.82021">
        <ele>164</ele>
        <time>2023-12-20T09:52:56Z</time>
      </trkpt>
      <trkpt lat="48.71763" lon="1.82022">
        <ele>164</ele>
        <time>2023-12-20T09:52:57Z</time>
      </trkpt>
      <trkpt lat="48.7177" lon="1.82022">
        <ele>164.2</ele>
        <time>2023-12-20T09:52:58Z</time>
      </trkpt>
      <trkpt lat="48.71777" lon="1.82023">
        <ele>164</ele>
        <time>2023-12-20T09:52:59Z</time>
      </trkpt>
      <trkpt lat="48.71784" lon="1.82024">
        <ele>164</ele>
        <time>2023-12-20T09:53:00Z</time>
      </trkpt>
      <trkpt lat="48.71791" lon="1.82025">
        <ele>164</ele>
        <time>2023-12-20T09:53:01Z</time>
      </trkpt>
      <trkpt lat="48.71798" lon="1.82026">
        <ele>164</ele>
        <time>2023-12-20T09:53:02Z</time>
      </trkpt>
      <trkpt lat="48.71805" lon="1.82027">
        <ele>164</ele>
        <time>2023-12-20T09:53:03Z</time>
      </trkpt>
      <trkpt lat="48.71811" lon="1.82027">
        <ele>164</ele>
        <time>2023-12-20T09:53:04Z</time>
      </trkpt>
      <trkpt lat="48.71818" lon="1.82028">
        <ele>164</ele>
        <time>2023-12-20T09:53:05Z</time>
      </trkpt>
      <trkpt lat="48.71825" lon="1.82029">
        <ele>164</ele>
        <time>2023-12-20T09:53:06Z</time>
      </trkpt>
      <trkpt lat="48.71832" lon="1.82029">
        <ele>163.6</ele>
        <time>2023-12-20T09:53:07Z</time>
      </trkpt>
      <trkpt lat="48.7184" lon="1.8203">
        <ele>163.6</ele>
        <time>2023-12-20T09:53:08Z</time>
      </trkpt>
      <trkpt lat="48.71847" lon="1.8203">
        <ele>163.6</ele>
        <time>2023-12-20T09:53:09Z</time>
      </trkpt>
      <trkpt lat="48.71854" lon="1.82031">
        <ele>163.8</ele>
        <time>2023-12-20T09:53:10Z</time>
      </trkpt>
      <trkpt lat="48.71862" lon="1.82031">
        <ele>164.2</ele>
        <time>2023-12-20T09:53:11Z</time>
      </trkpt>
      <trkpt lat="48.71869" lon="1.82032">
        <ele>164.2</ele>
        <time>2023-12-20T09:53:12Z</time>
      </trkpt>
      <trkpt lat="48.71876" lon="1.82032">
        <ele>164.2</ele>
        <time>2023-12-20T09:53:13Z</time>
      </trkpt>
      <trkpt lat="48.71884" lon="1.82032">
        <ele>163.6</ele>
        <time>2023-12-20T09:53:14Z</time>
      </trkpt>
      <trkpt lat="48.71891" lon="1.82033">
        <ele>163.4</ele>
        <time>2023-12-20T09:53:15Z</time>
      </trkpt>
      <trkpt lat="48.71899" lon="1.82033">
        <ele>163.4</ele>
        <time>2023-12-20T09:53:16Z</time>
      </trkpt>
      <trkpt lat="48.71907" lon="1.82034">
        <ele>163.4</ele>
        <time>2023-12-20T09:53:17Z</time>
      </trkpt>
      <trkpt lat="48.71915" lon="1.82034">
        <ele>163.6</ele>
        <time>2023-12-20T09:53:18Z</time>
      </trkpt>
      <trkpt lat="48.71922" lon="1.82034">
        <ele>163.8</ele>
        <time>2023-12-20T09:53:19Z</time>
      </trkpt>
      <trkpt lat="48.7193" lon="1.82034">
        <ele>163.8</ele>
        <time>2023-12-20T09:53:20Z</time>
      </trkpt>
      <trkpt lat="48.71938" lon="1.82034">
        <ele>163.8</ele>
        <time>2023-12-20T09:53:21Z</time>
      </trkpt>
      <trkpt lat="48.71946" lon="1.82032">
        <ele>163.8</ele>
        <time>2023-12-20T09:53:22Z</time>
      </trkpt>
      <trkpt lat="48.71954" lon="1.82031">
        <ele>163.8</ele>
        <time>2023-12-20T09:53:23Z</time>
      </trkpt>
      <trkpt lat="48.71961" lon="1.82029">
        <ele>163.8</ele>
        <time>2023-12-20T09:53:24Z</time>
      </trkpt>
      <trkpt lat="48.71964" lon="1.82026">
        <ele>163.8</ele>
        <time>2023-12-20T09:53:25Z</time>
      </trkpt>
      <trkpt lat="48.71972" lon="1.82025">
        <ele>163.8</ele>
        <time>2023-12-20T09:53:26Z</time>
      </trkpt>
      <trkpt lat="48.71979" lon="1.82024">
        <ele>163.6</ele>
        <time>2023-12-20T09:53:27Z</time>
      </trkpt>
      <trkpt lat="48.71986" lon="1.82023">
        <ele>163.6</ele>
        <time>2023-12-20T09:53:28Z</time>
      </trkpt>
      <trkpt lat="48.71994" lon="1.82025">
        <ele>163.6</ele>
        <time>2023-12-20T09:53:29Z</time>
      </trkpt>
      <trkpt lat="48.72002" lon="1.82027">
        <ele>163.6</ele>
        <time>2023-12-20T09:53:30Z</time>
      </trkpt>
      <trkpt lat="48.72009" lon="1.82031">
        <ele>163.8</ele>
        <time>2023-12-20T09:53:31Z</time>
      </trkpt>
      <trkpt lat="48.72017" lon="1.82036">
        <ele>163.8</ele>
        <time>2023-12-20T09:53:32Z</time>
      </trkpt>
      <trkpt lat="48.72023" lon="1.82041">
        <ele>163.8</ele>
        <time>2023-12-20T09:53:33Z</time>
      </trkpt>
      <trkpt lat="48.7203" lon="1.82047">
        <ele>163.8</ele>
        <time>2023-12-20T09:53:34Z</time>
      </trkpt>
      <trkpt lat="48.72037" lon="1.82053">
        <ele>164.2</ele>
        <time>2023-12-20T09:53:35Z</time>
      </trkpt>
      <trkpt lat="48.72042" lon="1.82059">
        <ele>164.2</ele>
        <time>2023-12-20T09:53:36Z</time>
      </trkpt>
      <trkpt lat="48.72048" lon="1.82065">
        <ele>164.2</ele>
        <time>2023-12-20T09:53:37Z</time>
      </trkpt>
      <trkpt lat="48.72055" lon="1.82072">
        <ele>164.2</ele>
        <time>2023-12-20T09:53:38Z</time>
      </trkpt>
      <trkpt lat="48.72061" lon="1.82078">
        <ele>164.2</ele>
        <time>2023-12-20T09:53:39Z</time>
      </trkpt>
      <trkpt lat="48.72067" lon="1.82084">
        <ele>164.2</ele>
        <time>2023-12-20T09:53:40Z</time>
      </trkpt>
      <trkpt lat="48.72073" lon="1.8209">
        <ele>164.2</ele>
        <time>2023-12-20T09:53:41Z</time>
      </trkpt>
      <trkpt lat="48.72079" lon="1.82096">
        <ele>164.2</ele>
        <time>2023-12-20T09:53:42Z</time>
      </trkpt>
      <trkpt lat="48.72085" lon="1.82102">
        <ele>164.4</ele>
        <time>2023-12-20T09:53:43Z</time>
      </trkpt>
      <trkpt lat="48.72091" lon="1.82108">
        <ele>164.4</ele>
        <time>2023-12-20T09:53:44Z</time>
      </trkpt>
      <trkpt lat="48.72097" lon="1.82114">
        <ele>164.4</ele>
        <time>2023-12-20T09:53:45Z</time>
      </trkpt>
      <trkpt lat="48.72102" lon="1.82119">
        <ele>164.2</ele>
        <time>2023-12-20T09:53:46Z</time>
      </trkpt>
      <trkpt lat="48.72107" lon="1.82124">
        <ele>164.2</ele>
        <time>2023-12-20T09:53:47Z</time>
      </trkpt>
      <trkpt lat="48.72112" lon="1.82129">
        <ele>164.2</ele>
        <time>2023-12-20T09:53:48Z</time>
      </trkpt>
      <trkpt lat="48.72117" lon="1.82134">
        <ele>164.2</ele>
        <time>2023-12-20T09:53:49Z</time>
      </trkpt>
      <trkpt lat="48.72122" lon="1.82139">
        <ele>164.6</ele>
        <time>2023-12-20T09:53:50Z</time>
      </trkpt>
      <trkpt lat="48.72127" lon="1.82143">
        <ele>164.2</ele>
        <time>2023-12-20T09:53:51Z</time>
      </trkpt>
      <trkpt lat="48.72131" lon="1.82147">
        <ele>164.2</ele>
        <time>2023-12-20T09:53:52Z</time>
      </trkpt>
      <trkpt lat="48.72136" lon="1.82152">
        <ele>164.2</ele>
        <time>2023-12-20T09:53:53Z</time>
      </trkpt>
      <trkpt lat="48.72141" lon="1.82157">
        <ele>164.8</ele>
        <time>2023-12-20T09:53:54Z</time>
      </trkpt>
      <trkpt lat="48.72145" lon="1.82162">
        <ele>164.4</ele>
        <time>2023-12-20T09:53:55Z</time>
      </trkpt>
      <trkpt lat="48.7215" lon="1.82167">
        <ele>164.4</ele>
        <time>2023-12-20T09:53:56Z</time>
      </trkpt>
      <trkpt lat="48.72154" lon="1.82172">
        <ele>164.4</ele>
        <time>2023-12-20T09:53:57Z</time>
      </trkpt>
      <trkpt lat="48.72158" lon="1.82177">
        <ele>164.8</ele>
        <time>2023-12-20T09:53:58Z</time>
      </trkpt>
      <trkpt lat="48.72163" lon="1.82183">
        <ele>164.8</ele>
        <time>2023-12-20T09:53:59Z</time>
      </trkpt>
      <trkpt lat="48.72167" lon="1.82188">
        <ele>164.8</ele>
        <time>2023-12-20T09:54:00Z</time>
      </trkpt>
      <trkpt lat="48.72173" lon="1.82194">
        <ele>164.8</ele>
        <time>2023-12-20T09:54:01Z</time>
      </trkpt>
      <trkpt lat="48.72178" lon="1.82199">
        <ele>164.8</ele>
        <time>2023-12-20T09:54:02Z</time>
      </trkpt>
      <trkpt lat="48.72182" lon="1.82204">
        <ele>164.6</ele>
        <time>2023-12-20T09:54:03Z</time>
      </trkpt>
      <trkpt lat="48.72187" lon="1.82209">
        <ele>164.6</ele>
        <time>2023-12-20T09:54:04Z</time>
      </trkpt>
      <trkpt lat="48.72191" lon="1.82214">
        <ele>164.6</ele>
        <time>2023-12-20T09:54:05Z</time>
      </trkpt>
      <trkpt lat="48.72196" lon="1.82219">
        <ele>164.6</ele>
        <time>2023-12-20T09:54:06Z</time>
      </trkpt>
      <trkpt lat="48.72201" lon="1.82225">
        <ele>164.4</ele>
        <time>2023-12-20T09:54:07Z</time>
      </trkpt>
      <trkpt lat="48.72206" lon="1.82229">
        <ele>164.4</ele>
        <time>2023-12-20T09:54:08Z</time>
      </trkpt>
      <trkpt lat="48.72211" lon="1.82235">
        <ele>164.4</ele>
        <time>2023-12-20T09:54:09Z</time>
      </trkpt>
      <trkpt lat="48.72216" lon="1.8224">
        <ele>164.8</ele>
        <time>2023-12-20T09:54:10Z</time>
      </trkpt>
      <trkpt lat="48.72221" lon="1.82245">
        <ele>164.8</ele>
        <time>2023-12-20T09:54:11Z</time>
      </trkpt>
      <trkpt lat="48.72226" lon="1.8225">
        <ele>164.8</ele>
        <time>2023-12-20T09:54:12Z</time>
      </trkpt>
      <trkpt lat="48.7223" lon="1.82256">
        <ele>164.8</ele>
        <time>2023-12-20T09:54:13Z</time>
      </trkpt>
      <trkpt lat="48.72236" lon="1.82261">
        <ele>164.8</ele>
        <time>2023-12-20T09:54:14Z</time>
      </trkpt>
      <trkpt lat="48.72241" lon="1.82266">
        <ele>165.2</ele>
        <time>2023-12-20T09:54:15Z</time>
      </trkpt>
      <trkpt lat="48.72247" lon="1.8227">
        <ele>165.2</ele>
        <time>2023-12-20T09:54:16Z</time>
      </trkpt>
      <trkpt lat="48.72253" lon="1.82273">
        <ele>165.2</ele>
        <time>2023-12-20T09:54:17Z</time>
      </trkpt>
      <trkpt lat="48.72259" lon="1.82276">
        <ele>164.8</ele>
        <time>2023-12-20T09:54:18Z</time>
      </trkpt>
      <trkpt lat="48.72266" lon="1.82277">
        <ele>165</ele>
        <time>2023-12-20T09:54:19Z</time>
      </trkpt>
      <trkpt lat="48.72273" lon="1.82276">
        <ele>165</ele>
        <time>2023-12-20T09:54:20Z</time>
      </trkpt>
      <trkpt lat="48.7228" lon="1.82274">
        <ele>165</ele>
        <time>2023-12-20T09:54:21Z</time>
      </trkpt>
      <trkpt lat="48.72286" lon="1.82272">
        <ele>165.2</ele>
        <time>2023-12-20T09:54:22Z</time>
      </trkpt>
      <trkpt lat="48.72291" lon="1.82269">
        <ele>165</ele>
        <time>2023-12-20T09:54:23Z</time>
      </trkpt>
      <trkpt lat="48.72297" lon="1.82266">
        <ele>165</ele>
        <time>2023-12-20T09:54:24Z</time>
      </trkpt>
      <trkpt lat="48.72303" lon="1.82262">
        <ele>165</ele>
        <time>2023-12-20T09:54:25Z</time>
      </trkpt>
      <trkpt lat="48.72308" lon="1.82258">
        <ele>165</ele>
        <time>2023-12-20T09:54:26Z</time>
      </trkpt>
      <trkpt lat="48.72313" lon="1.82255">
        <ele>165.2</ele>
        <time>2023-12-20T09:54:27Z</time>
      </trkpt>
      <trkpt lat="48.72319" lon="1.82253">
        <ele>165.2</ele>
        <time>2023-12-20T09:54:28Z</time>
      </trkpt>
      <trkpt lat="48.72324" lon="1.82251">
        <ele>165.2</ele>
        <time>2023-12-20T09:54:29Z</time>
      </trkpt>
      <trkpt lat="48.7233" lon="1.8225">
        <ele>165.6</ele>
        <time>2023-12-20T09:54:30Z</time>
      </trkpt>
      <trkpt lat="48.72336" lon="1.82249">
        <ele>165.6</ele>
        <time>2023-12-20T09:54:31Z</time>
      </trkpt>
      <trkpt lat="48.72341" lon="1.82248">
        <ele>165.6</ele>
        <time>2023-12-20T09:54:32Z</time>
      </trkpt>
      <trkpt lat="48.72347" lon="1.82248">
        <ele>165.6</ele>
        <time>2023-12-20T09:54:33Z</time>
      </trkpt>
      <trkpt lat="48.72352" lon="1.82248">
        <ele>165.6</ele>
        <time>2023-12-20T09:54:34Z</time>
      </trkpt>
      <trkpt lat="48.72358" lon="1.82249">
        <ele>165.4</ele>
        <time>2023-12-20T09:54:35Z</time>
      </trkpt>
      <trkpt lat="48.72363" lon="1.8225">
        <ele>165.4</ele>
        <time>2023-12-20T09:54:36Z</time>
      </trkpt>
      <trkpt lat="48.72368" lon="1.82252">
        <ele>165.4</ele>
        <time>2023-12-20T09:54:37Z</time>
      </trkpt>
      <trkpt lat="48.72373" lon="1.82253">
        <ele>165.6</ele>
        <time>2023-12-20T09:54:38Z</time>
      </trkpt>
      <trkpt lat="48.72378" lon="1.82254">
        <ele>165.4</ele>
        <time>2023-12-20T09:54:39Z</time>
      </trkpt>
      <trkpt lat="48.72383" lon="1.82254">
        <ele>165.4</ele>
        <time>2023-12-20T09:54:40Z</time>
      </trkpt>
      <trkpt lat="48.72389" lon="1.82255">
        <ele>165.4</ele>
        <time>2023-12-20T09:54:41Z</time>
      </trkpt>
      <trkpt lat="48.72395" lon="1.82255">
        <ele>165.6</ele>
        <time>2023-12-20T09:54:42Z</time>
      </trkpt>
      <trkpt lat="48.724" lon="1.82255">
        <ele>165.8</ele>
        <time>2023-12-20T09:54:43Z</time>
      </trkpt>
      <trkpt lat="48.72406" lon="1.82255">
        <ele>165.8</ele>
        <time>2023-12-20T09:54:44Z</time>
      </trkpt>
      <trkpt lat="48.72412" lon="1.82256">
        <ele>165.8</ele>
        <time>2023-12-20T09:54:45Z</time>
      </trkpt>
      <trkpt lat="48.72417" lon="1.82256">
        <ele>165.8</ele>
        <time>2023-12-20T09:54:46Z</time>
      </trkpt>
      <trkpt lat="48.72422" lon="1.82257">
        <ele>165.6</ele>
        <time>2023-12-20T09:54:47Z</time>
      </trkpt>
      <trkpt lat="48.72427" lon="1.82257">
        <ele>165.6</ele>
        <time>2023-12-20T09:54:48Z</time>
      </trkpt>
      <trkpt lat="48.72432" lon="1.82258">
        <ele>165.6</ele>
        <time>2023-12-20T09:54:49Z</time>
      </trkpt>
      <trkpt lat="48.72437" lon="1.82259">
        <ele>165.6</ele>
        <time>2023-12-20T09:54:50Z</time>
      </trkpt>
      <trkpt lat="48.72442" lon="1.8226">
        <ele>166</ele>
        <time>2023-12-20T09:54:51Z</time>
      </trkpt>
      <trkpt lat="48.72448" lon="1.82261">
        <ele>166</ele>
        <time>2023-12-20T09:54:52Z</time>
      </trkpt>
      <trkpt lat="48.72453" lon="1.82263">
        <ele>166</ele>
        <time>2023-12-20T09:54:53Z</time>
      </trkpt>
      <trkpt lat="48.72459" lon="1.82264">
        <ele>166</ele>
        <time>2023-12-20T09:54:54Z</time>
      </trkpt>
      <trkpt lat="48.72464" lon="1.82265">
        <ele>166.2</ele>
        <time>2023-12-20T09:54:55Z</time>
      </trkpt>
      <trkpt lat="48.7247" lon="1.82265">
        <ele>166.2</ele>
        <time>2023-12-20T09:54:56Z</time>
      </trkpt>
      <trkpt lat="48.72476" lon="1.82267">
        <ele>166.2</ele>
        <time>2023-12-20T09:54:57Z</time>
      </trkpt>
      <trkpt lat="48.72483" lon="1.82268">
        <ele>166.2</ele>
        <time>2023-12-20T09:54:58Z</time>
      </trkpt>
      <trkpt lat="48.7249" lon="1.82269">
        <ele>165.8</ele>
        <time>2023-12-20T09:54:59Z</time>
      </trkpt>
      <trkpt lat="48.72496" lon="1.8227">
        <ele>165.8</ele>
        <time>2023-12-20T09:55:00Z</time>
      </trkpt>
      <trkpt lat="48.72502" lon="1.82271">
        <ele>165.8</ele>
        <time>2023-12-20T09:55:01Z</time>
      </trkpt>
      <trkpt lat="48.72509" lon="1.82272">
        <ele>165.8</ele>
        <time>2023-12-20T09:55:02Z</time>
      </trkpt>
      <trkpt lat="48.72515" lon="1.82273">
        <ele>166.4</ele>
        <time>2023-12-20T09:55:03Z</time>
      </trkpt>
      <trkpt lat="48.7252" lon="1.82273">
        <ele>166.4</ele>
        <time>2023-12-20T09:55:04Z</time>
      </trkpt>
      <trkpt lat="48.72526" lon="1.82274">
        <ele>166.4</ele>
        <time>2023-12-20T09:55:05Z</time>
      </trkpt>
      <trkpt lat="48.72531" lon="1.82275">
        <ele>166</ele>
        <time>2023-12-20T09:55:06Z</time>
      </trkpt>
      <trkpt lat="48.72537" lon="1.82276">
        <ele>166.2</ele>
        <time>2023-12-20T09:55:07Z</time>
      </trkpt>
      <trkpt lat="48.72543" lon="1.82276">
        <ele>166.2</ele>
        <time>2023-12-20T09:55:08Z</time>
      </trkpt>
      <trkpt lat="48.72549" lon="1.82277">
        <ele>166.2</ele>
        <time>2023-12-20T09:55:09Z</time>
      </trkpt>
      <trkpt lat="48.72555" lon="1.82279">
        <ele>165.8</ele>
        <time>2023-12-20T09:55:10Z</time>
      </trkpt>
      <trkpt lat="48.72561" lon="1.8228">
        <ele>165.6</ele>
        <time>2023-12-20T09:55:11Z</time>
      </trkpt>
      <trkpt lat="48.72567" lon="1.8228">
        <ele>165.6</ele>
        <time>2023-12-20T09:55:12Z</time>
      </trkpt>
      <trkpt lat="48.72572" lon="1.82281">
        <ele>165.6</ele>
        <time>2023-12-20T09:55:13Z</time>
      </trkpt>
      <trkpt lat="48.72578" lon="1.82282">
        <ele>166.4</ele>
        <time>2023-12-20T09:55:14Z</time>
      </trkpt>
      <trkpt lat="48.72584" lon="1.82283">
        <ele>166</ele>
        <time>2023-12-20T09:55:15Z</time>
      </trkpt>
      <trkpt lat="48.72589" lon="1.82284">
        <ele>166</ele>
        <time>2023-12-20T09:55:16Z</time>
      </trkpt>
      <trkpt lat="48.72595" lon="1.82284">
        <ele>166</ele>
        <time>2023-12-20T09:55:17Z</time>
      </trkpt>
      <trkpt lat="48.726" lon="1.82284">
        <ele>165.8</ele>
        <time>2023-12-20T09:55:18Z</time>
      </trkpt>
      <trkpt lat="48.72606" lon="1.82285">
        <ele>165.8</ele>
        <time>2023-12-20T09:55:19Z</time>
      </trkpt>
      <trkpt lat="48.72611" lon="1.82286">
        <ele>165.8</ele>
        <time>2023-12-20T09:55:20Z</time>
      </trkpt>
      <trkpt lat="48.72618" lon="1.82287">
        <ele>165.8</ele>
        <time>2023-12-20T09:55:21Z</time>
      </trkpt>
      <trkpt lat="48.72624" lon="1.82287">
        <ele>165.8</ele>
        <time>2023-12-20T09:55:22Z</time>
      </trkpt>
      <trkpt lat="48.72629" lon="1.82288">
        <ele>165.8</ele>
        <time>2023-12-20T09:55:23Z</time>
      </trkpt>
      <trkpt lat="48.72635" lon="1.82289">
        <ele>165.8</ele>
        <time>2023-12-20T09:55:24Z</time>
      </trkpt>
      <trkpt lat="48.72641" lon="1.82289">
        <ele>165.8</ele>
        <time>2023-12-20T09:55:25Z</time>
      </trkpt>
      <trkpt lat="48.72648" lon="1.8229">
        <ele>165.8</ele>
        <time>2023-12-20T09:55:26Z</time>
      </trkpt>
      <trkpt lat="48.72654" lon="1.82291">
        <ele>165.8</ele>
        <time>2023-12-20T09:55:27Z</time>
      </trkpt>
      <trkpt lat="48.72659" lon="1.82292">
        <ele>165.8</ele>
        <time>2023-12-20T09:55:28Z</time>
      </trkpt>
      <trkpt lat="48.72665" lon="1.82293">
        <ele>165.8</ele>
        <time>2023-12-20T09:55:29Z</time>
      </trkpt>
      <trkpt lat="48.7267" lon="1.82293">
        <ele>165.8</ele>
        <time>2023-12-20T09:55:30Z</time>
      </trkpt>
      <trkpt lat="48.72676" lon="1.82294">
        <ele>166.2</ele>
        <time>2023-12-20T09:55:31Z</time>
      </trkpt>
      <trkpt lat="48.72682" lon="1.82295">
        <ele>166.2</ele>
        <time>2023-12-20T09:55:32Z</time>
      </trkpt>
      <trkpt lat="48.72687" lon="1.82296">
        <ele>166.2</ele>
        <time>2023-12-20T09:55:33Z</time>
      </trkpt>
      <trkpt lat="48.72693" lon="1.82297">
        <ele>166</ele>
        <time>2023-12-20T09:55:34Z</time>
      </trkpt>
      <trkpt lat="48.72699" lon="1.82298">
        <ele>166.2</ele>
        <time>2023-12-20T09:55:35Z</time>
      </trkpt>
      <trkpt lat="48.72705" lon="1.82299">
        <ele>166.2</ele>
        <time>2023-12-20T09:55:36Z</time>
      </trkpt>
      <trkpt lat="48.72711" lon="1.823">
        <ele>166.2</ele>
        <time>2023-12-20T09:55:37Z</time>
      </trkpt>
      <trkpt lat="48.72717" lon="1.82302">
        <ele>166</ele>
        <time>2023-12-20T09:55:38Z</time>
      </trkpt>
      <trkpt lat="48.72723" lon="1.82305">
        <ele>166.2</ele>
        <time>2023-12-20T09:55:39Z</time>
      </trkpt>
      <trkpt lat="48.72728" lon="1.82308">
        <ele>166.2</ele>
        <time>2023-12-20T09:55:40Z</time>
      </trkpt>
      <trkpt lat="48.72733" lon="1.82311">
        <ele>166.2</ele>
        <time>2023-12-20T09:55:41Z</time>
      </trkpt>
      <trkpt lat="48.72739" lon="1.82314">
        <ele>165.4</ele>
        <time>2023-12-20T09:55:42Z</time>
      </trkpt>
      <trkpt lat="48.72745" lon="1.82317">
        <ele>165.4</ele>
        <time>2023-12-20T09:55:43Z</time>
      </trkpt>
      <trkpt lat="48.72752" lon="1.8232">
        <ele>165.4</ele>
        <time>2023-12-20T09:55:44Z</time>
      </trkpt>
      <trkpt lat="48.72758" lon="1.82324">
        <ele>165.4</ele>
        <time>2023-12-20T09:55:45Z</time>
      </trkpt>
      <trkpt lat="48.72764" lon="1.82327">
        <ele>166.2</ele>
        <time>2023-12-20T09:55:46Z</time>
      </trkpt>
      <trkpt lat="48.7277" lon="1.82331">
        <ele>165.6</ele>
        <time>2023-12-20T09:55:47Z</time>
      </trkpt>
      <trkpt lat="48.72776" lon="1.82334">
        <ele>165.6</ele>
        <time>2023-12-20T09:55:48Z</time>
      </trkpt>
      <trkpt lat="48.72782" lon="1.82338">
        <ele>165.6</ele>
        <time>2023-12-20T09:55:49Z</time>
      </trkpt>
      <trkpt lat="48.72789" lon="1.82341">
        <ele>165.6</ele>
        <time>2023-12-20T09:55:50Z</time>
      </trkpt>
      <trkpt lat="48.72795" lon="1.82344">
        <ele>165.6</ele>
        <time>2023-12-20T09:55:51Z</time>
      </trkpt>
      <trkpt lat="48.72801" lon="1.82347">
        <ele>165.6</ele>
        <time>2023-12-20T09:55:52Z</time>
      </trkpt>
      <trkpt lat="48.72807" lon="1.82351">
        <ele>165.6</ele>
        <time>2023-12-20T09:55:53Z</time>
      </trkpt>
      <trkpt lat="48.72812" lon="1.82355">
        <ele>165.6</ele>
        <time>2023-12-20T09:55:54Z</time>
      </trkpt>
      <trkpt lat="48.72818" lon="1.82358">
        <ele>165.8</ele>
        <time>2023-12-20T09:55:55Z</time>
      </trkpt>
      <trkpt lat="48.72824" lon="1.82361">
        <ele>165.8</ele>
        <time>2023-12-20T09:55:56Z</time>
      </trkpt>
      <trkpt lat="48.7283" lon="1.82365">
        <ele>165.8</ele>
        <time>2023-12-20T09:55:57Z</time>
      </trkpt>
      <trkpt lat="48.72835" lon="1.82368">
        <ele>165.8</ele>
        <time>2023-12-20T09:55:58Z</time>
      </trkpt>
      <trkpt lat="48.7284" lon="1.82372">
        <ele>165.8</ele>
        <time>2023-12-20T09:55:59Z</time>
      </trkpt>
      <trkpt lat="48.72845" lon="1.82375">
        <ele>165.8</ele>
        <time>2023-12-20T09:56:00Z</time>
      </trkpt>
      <trkpt lat="48.72851" lon="1.82378">
        <ele>165.8</ele>
        <time>2023-12-20T09:56:01Z</time>
      </trkpt>
      <trkpt lat="48.72857" lon="1.82381">
        <ele>165.8</ele>
        <time>2023-12-20T09:56:02Z</time>
      </trkpt>
      <trkpt lat="48.72863" lon="1.82385">
        <ele>166</ele>
        <time>2023-12-20T09:56:03Z</time>
      </trkpt>
      <trkpt lat="48.72869" lon="1.82388">
        <ele>166</ele>
        <time>2023-12-20T09:56:04Z</time>
      </trkpt>
      <trkpt lat="48.72874" lon="1.82391">
        <ele>166</ele>
        <time>2023-12-20T09:56:05Z</time>
      </trkpt>
      <trkpt lat="48.7288" lon="1.82394">
        <ele>165.8</ele>
        <time>2023-12-20T09:56:06Z</time>
      </trkpt>
      <trkpt lat="48.72886" lon="1.82397">
        <ele>165.8</ele>
        <time>2023-12-20T09:56:07Z</time>
      </trkpt>
      <trkpt lat="48.72892" lon="1.82401">
        <ele>165.8</ele>
        <time>2023-12-20T09:56:08Z</time>
      </trkpt>
      <trkpt lat="48.72898" lon="1.82404">
        <ele>165.8</ele>
        <time>2023-12-20T09:56:09Z</time>
      </trkpt>
      <trkpt lat="48.72904" lon="1.82408">
        <ele>165.8</ele>
        <time>2023-12-20T09:56:10Z</time>
      </trkpt>
      <trkpt lat="48.72909" lon="1.82411">
        <ele>166</ele>
        <time>2023-12-20T09:56:11Z</time>
      </trkpt>
      <trkpt lat="48.72914" lon="1.82416">
        <ele>166</ele>
        <time>2023-12-20T09:56:12Z</time>
      </trkpt>
      <trkpt lat="48.7292" lon="1.8242">
        <ele>166</ele>
        <time>2023-12-20T09:56:13Z</time>
      </trkpt>
      <trkpt lat="48.72925" lon="1.82425">
        <ele>166</ele>
        <time>2023-12-20T09:56:14Z</time>
      </trkpt>
      <trkpt lat="48.72931" lon="1.82431">
        <ele>165.8</ele>
        <time>2023-12-20T09:56:15Z</time>
      </trkpt>
      <trkpt lat="48.72936" lon="1.82436">
        <ele>165.8</ele>
        <time>2023-12-20T09:56:16Z</time>
      </trkpt>
      <trkpt lat="48.7294" lon="1.82443">
        <ele>165.8</ele>
        <time>2023-12-20T09:56:17Z</time>
      </trkpt>
      <trkpt lat="48.72945" lon="1.82449">
        <ele>165.8</ele>
        <time>2023-12-20T09:56:18Z</time>
      </trkpt>
      <trkpt lat="48.72949" lon="1.82456">
        <ele>165.6</ele>
        <time>2023-12-20T09:56:19Z</time>
      </trkpt>
      <trkpt lat="48.72953" lon="1.82463">
        <ele>165.6</ele>
        <time>2023-12-20T09:56:20Z</time>
      </trkpt>
      <trkpt lat="48.72957" lon="1.8247">
        <ele>165.6</ele>
        <time>2023-12-20T09:56:21Z</time>
      </trkpt>
      <trkpt lat="48.72961" lon="1.82477">
        <ele>166</ele>
        <time>2023-12-20T09:56:22Z</time>
      </trkpt>
      <trkpt lat="48.72964" lon="1.82484">
        <ele>165.6</ele>
        <time>2023-12-20T09:56:23Z</time>
      </trkpt>
      <trkpt lat="48.72968" lon="1.82491">
        <ele>165.6</ele>
        <time>2023-12-20T09:56:24Z</time>
      </trkpt>
      <trkpt lat="48.72973" lon="1.82499">
        <ele>165.6</ele>
        <time>2023-12-20T09:56:25Z</time>
      </trkpt>
      <trkpt lat="48.72976" lon="1.82506">
        <ele>166</ele>
        <time>2023-12-20T09:56:26Z</time>
      </trkpt>
      <trkpt lat="48.7298" lon="1.82513">
        <ele>165.8</ele>
        <time>2023-12-20T09:56:27Z</time>
      </trkpt>
      <trkpt lat="48.72984" lon="1.82521">
        <ele>165.8</ele>
        <time>2023-12-20T09:56:28Z</time>
      </trkpt>
      <trkpt lat="48.72987" lon="1.82528">
        <ele>165.8</ele>
        <time>2023-12-20T09:56:29Z</time>
      </trkpt>
      <trkpt lat="48.72991" lon="1.82536">
        <ele>165.8</ele>
        <time>2023-12-20T09:56:30Z</time>
      </trkpt>
      <trkpt lat="48.72996" lon="1.82543">
        <ele>165.8</ele>
        <time>2023-12-20T09:56:31Z</time>
      </trkpt>
      <trkpt lat="48.73" lon="1.82551">
        <ele>165.8</ele>
        <time>2023-12-20T09:56:32Z</time>
      </trkpt>
      <trkpt lat="48.73003" lon="1.82559">
        <ele>165.8</ele>
        <time>2023-12-20T09:56:33Z</time>
      </trkpt>
      <trkpt lat="48.73006" lon="1.82568">
        <ele>166</ele>
        <time>2023-12-20T09:56:34Z</time>
      </trkpt>
      <trkpt lat="48.73009" lon="1.82577">
        <ele>165.8</ele>
        <time>2023-12-20T09:56:35Z</time>
      </trkpt>
      <trkpt lat="48.73011" lon="1.82586">
        <ele>165.8</ele>
        <time>2023-12-20T09:56:36Z</time>
      </trkpt>
      <trkpt lat="48.73013" lon="1.82596">
        <ele>165.8</ele>
        <time>2023-12-20T09:56:37Z</time>
      </trkpt>
      <trkpt lat="48.73015" lon="1.82605">
        <ele>165.8</ele>
        <time>2023-12-20T09:56:38Z</time>
      </trkpt>
      <trkpt lat="48.73016" lon="1.82615">
        <ele>166.2</ele>
        <time>2023-12-20T09:56:39Z</time>
      </trkpt>
      <trkpt lat="48.73018" lon="1.82624">
        <ele>166.2</ele>
        <time>2023-12-20T09:56:40Z</time>
      </trkpt>
      <trkpt lat="48.73019" lon="1.82634">
        <ele>166.2</ele>
        <time>2023-12-20T09:56:41Z</time>
      </trkpt>
      <trkpt lat="48.7302" lon="1.82645">
        <ele>166.2</ele>
        <time>2023-12-20T09:56:42Z</time>
      </trkpt>
      <trkpt lat="48.73021" lon="1.82655">
        <ele>165.8</ele>
        <time>2023-12-20T09:56:43Z</time>
      </trkpt>
      <trkpt lat="48.73023" lon="1.82665">
        <ele>165.8</ele>
        <time>2023-12-20T09:56:44Z</time>
      </trkpt>
      <trkpt lat="48.73024" lon="1.82676">
        <ele>165.8</ele>
        <time>2023-12-20T09:56:45Z</time>
      </trkpt>
      <trkpt lat="48.73025" lon="1.82686">
        <ele>165.8</ele>
        <time>2023-12-20T09:56:46Z</time>
      </trkpt>
      <trkpt lat="48.73027" lon="1.82696">
        <ele>166</ele>
        <time>2023-12-20T09:56:47Z</time>
      </trkpt>
      <trkpt lat="48.73028" lon="1.82706">
        <ele>166</ele>
        <time>2023-12-20T09:56:48Z</time>
      </trkpt>
      <trkpt lat="48.73029" lon="1.82716">
        <ele>166</ele>
        <time>2023-12-20T09:56:49Z</time>
      </trkpt>
      <trkpt lat="48.7303" lon="1.82725">
        <ele>166</ele>
        <time>2023-12-20T09:56:50Z</time>
      </trkpt>
      <trkpt lat="48.73032" lon="1.82735">
        <ele>165.6</ele>
        <time>2023-12-20T09:56:51Z</time>
      </trkpt>
      <trkpt lat="48.73033" lon="1.82745">
        <ele>165.6</ele>
        <time>2023-12-20T09:56:52Z</time>
      </trkpt>
      <trkpt lat="48.73034" lon="1.82755">
        <ele>165.6</ele>
        <time>2023-12-20T09:56:53Z</time>
      </trkpt>
      <trkpt lat="48.73035" lon="1.82764">
        <ele>165.6</ele>
        <time>2023-12-20T09:56:54Z</time>
      </trkpt>
      <trkpt lat="48.73037" lon="1.82773">
        <ele>165.6</ele>
        <time>2023-12-20T09:56:55Z</time>
      </trkpt>
      <trkpt lat="48.73038" lon="1.82783">
        <ele>165.6</ele>
        <time>2023-12-20T09:56:56Z</time>
      </trkpt>
      <trkpt lat="48.73039" lon="1.82792">
        <ele>165.6</ele>
        <time>2023-12-20T09:56:57Z</time>
      </trkpt>
      <trkpt lat="48.73041" lon="1.82802">
        <ele>165.6</ele>
        <time>2023-12-20T09:56:58Z</time>
      </trkpt>
      <trkpt lat="48.73042" lon="1.82811">
        <ele>165.6</ele>
        <time>2023-12-20T09:56:59Z</time>
      </trkpt>
      <trkpt lat="48.73043" lon="1.82821">
        <ele>165.6</ele>
        <time>2023-12-20T09:57:00Z</time>
      </trkpt>
      <trkpt lat="48.73045" lon="1.8283">
        <ele>165.6</ele>
        <time>2023-12-20T09:57:01Z</time>
      </trkpt>
      <trkpt lat="48.73046" lon="1.8284">
        <ele>165.8</ele>
        <time>2023-12-20T09:57:02Z</time>
      </trkpt>
      <trkpt lat="48.73047" lon="1.8285">
        <ele>165.8</ele>
        <time>2023-12-20T09:57:03Z</time>
      </trkpt>
      <trkpt lat="48.73048" lon="1.82859">
        <ele>165.8</ele>
        <time>2023-12-20T09:57:04Z</time>
      </trkpt>
      <trkpt lat="48.7305" lon="1.82869">
        <ele>165.8</ele>
        <time>2023-12-20T09:57:05Z</time>
      </trkpt>
      <trkpt lat="48.73051" lon="1.82879">
        <ele>165.8</ele>
        <time>2023-12-20T09:57:06Z</time>
      </trkpt>
      <trkpt lat="48.73052" lon="1.82888">
        <ele>165.6</ele>
        <time>2023-12-20T09:57:07Z</time>
      </trkpt>
      <trkpt lat="48.73053" lon="1.82898">
        <ele>165.6</ele>
        <time>2023-12-20T09:57:08Z</time>
      </trkpt>
      <trkpt lat="48.73054" lon="1.82907">
        <ele>165.6</ele>
        <time>2023-12-20T09:57:09Z</time>
      </trkpt>
      <trkpt lat="48.73056" lon="1.82917">
        <ele>165.6</ele>
        <time>2023-12-20T09:57:10Z</time>
      </trkpt>
      <trkpt lat="48.73057" lon="1.82926">
        <ele>165.6</ele>
        <time>2023-12-20T09:57:11Z</time>
      </trkpt>
      <trkpt lat="48.73058" lon="1.82936">
        <ele>165.6</ele>
        <time>2023-12-20T09:57:12Z</time>
      </trkpt>
      <trkpt lat="48.7306" lon="1.82946">
        <ele>165.6</ele>
        <time>2023-12-20T09:57:13Z</time>
      </trkpt>
      <trkpt lat="48.73061" lon="1.82955">
        <ele>165.4</ele>
        <time>2023-12-20T09:57:14Z</time>
      </trkpt>
      <trkpt lat="48.73062" lon="1.82965">
        <ele>165.4</ele>
        <time>2023-12-20T09:57:15Z</time>
      </trkpt>
      <trkpt lat="48.73063" lon="1.82975">
        <ele>165.4</ele>
        <time>2023-12-20T09:57:16Z</time>
      </trkpt>
      <trkpt lat="48.73065" lon="1.82985">
        <ele>165.4</ele>
        <time>2023-12-20T09:57:17Z</time>
      </trkpt>
      <trkpt lat="48.73066" lon="1.82995">
        <ele>165.6</ele>
        <time>2023-12-20T09:57:18Z</time>
      </trkpt>
      <trkpt lat="48.73067" lon="1.83005">
        <ele>165.6</ele>
        <time>2023-12-20T09:57:19Z</time>
      </trkpt>
      <trkpt lat="48.73069" lon="1.83015">
        <ele>165.6</ele>
        <time>2023-12-20T09:57:20Z</time>
      </trkpt>
      <trkpt lat="48.7307" lon="1.83025">
        <ele>165.6</ele>
        <time>2023-12-20T09:57:21Z</time>
      </trkpt>
      <trkpt lat="48.73071" lon="1.83035">
        <ele>165.6</ele>
        <time>2023-12-20T09:57:22Z</time>
      </trkpt>
      <trkpt lat="48.73072" lon="1.83045">
        <ele>165.4</ele>
        <time>2023-12-20T09:57:23Z</time>
      </trkpt>
      <trkpt lat="48.73074" lon="1.83055">
        <ele>165.4</ele>
        <time>2023-12-20T09:57:24Z</time>
      </trkpt>
      <trkpt lat="48.73075" lon="1.83065">
        <ele>165.4</ele>
        <time>2023-12-20T09:57:25Z</time>
      </trkpt>
      <trkpt lat="48.73076" lon="1.83075">
        <ele>165.4</ele>
        <time>2023-12-20T09:57:26Z</time>
      </trkpt>
      <trkpt lat="48.73077" lon="1.83085">
        <ele>165.4</ele>
        <time>2023-12-20T09:57:27Z</time>
      </trkpt>
      <trkpt lat="48.73078" lon="1.83095">
        <ele>165.4</ele>
        <time>2023-12-20T09:57:28Z</time>
      </trkpt>
      <trkpt lat="48.7308" lon="1.83104">
        <ele>165.4</ele>
        <time>2023-12-20T09:57:29Z</time>
      </trkpt>
      <trkpt lat="48.73081" lon="1.83114">
        <ele>165.4</ele>
        <time>2023-12-20T09:57:30Z</time>
      </trkpt>
      <trkpt lat="48.73082" lon="1.83124">
        <ele>165.2</ele>
        <time>2023-12-20T09:57:31Z</time>
      </trkpt>
      <trkpt lat="48.73083" lon="1.83134">
        <ele>165.2</ele>
        <time>2023-12-20T09:57:32Z</time>
      </trkpt>
      <trkpt lat="48.73084" lon="1.83143">
        <ele>165.2</ele>
        <time>2023-12-20T09:57:33Z</time>
      </trkpt>
      <trkpt lat="48.73086" lon="1.83153">
        <ele>165.2</ele>
        <time>2023-12-20T09:57:34Z</time>
      </trkpt>
      <trkpt lat="48.73087" lon="1.83163">
        <ele>164.6</ele>
        <time>2023-12-20T09:57:35Z</time>
      </trkpt>
      <trkpt lat="48.73088" lon="1.83173">
        <ele>164.6</ele>
        <time>2023-12-20T09:57:36Z</time>
      </trkpt>
      <trkpt lat="48.73089" lon="1.83183">
        <ele>164.6</ele>
        <time>2023-12-20T09:57:37Z</time>
      </trkpt>
      <trkpt lat="48.7309" lon="1.83192">
        <ele>165.2</ele>
        <time>2023-12-20T09:57:38Z</time>
      </trkpt>
      <trkpt lat="48.73091" lon="1.83202">
        <ele>165</ele>
        <time>2023-12-20T09:57:39Z</time>
      </trkpt>
      <trkpt lat="48.73093" lon="1.83212">
        <ele>165</ele>
        <time>2023-12-20T09:57:40Z</time>
      </trkpt>
      <trkpt lat="48.73094" lon="1.83221">
        <ele>165</ele>
        <time>2023-12-20T09:57:41Z</time>
      </trkpt>
      <trkpt lat="48.73095" lon="1.83231">
        <ele>165</ele>
        <time>2023-12-20T09:57:42Z</time>
      </trkpt>
      <trkpt lat="48.73096" lon="1.8324">
        <ele>164.8</ele>
        <time>2023-12-20T09:57:43Z</time>
      </trkpt>
      <trkpt lat="48.73097" lon="1.83249">
        <ele>164.8</ele>
        <time>2023-12-20T09:57:44Z</time>
      </trkpt>
      <trkpt lat="48.73098" lon="1.83258">
        <ele>164.8</ele>
        <time>2023-12-20T09:57:45Z</time>
      </trkpt>
      <trkpt lat="48.73099" lon="1.83267">
        <ele>164.8</ele>
        <time>2023-12-20T09:57:46Z</time>
      </trkpt>
      <trkpt lat="48.73101" lon="1.83276">
        <ele>164.8</ele>
        <time>2023-12-20T09:57:47Z</time>
      </trkpt>
      <trkpt lat="48.73102" lon="1.83285">
        <ele>164.8</ele>
        <time>2023-12-20T09:57:48Z</time>
      </trkpt>
      <trkpt lat="48.73103" lon="1.83293">
        <ele>164.8</ele>
        <time>2023-12-20T09:57:49Z</time>
      </trkpt>
      <trkpt lat="48.73104" lon="1.83302">
        <ele>164.8</ele>
        <time>2023-12-20T09:57:50Z</time>
      </trkpt>
      <trkpt lat="48.73104" lon="1.8331">
        <ele>164.4</ele>
        <time>2023-12-20T09:57:51Z</time>
      </trkpt>
      <trkpt lat="48.73105" lon="1.83318">
        <ele>164.4</ele>
        <time>2023-12-20T09:57:52Z</time>
      </trkpt>
      <trkpt lat="48.73106" lon="1.83326">
        <ele>164.4</ele>
        <time>2023-12-20T09:57:53Z</time>
      </trkpt>
      <trkpt lat="48.73108" lon="1.83334">
        <ele>164.6</ele>
        <time>2023-12-20T09:57:54Z</time>
      </trkpt>
      <trkpt lat="48.73109" lon="1.83343">
        <ele>164.8</ele>
        <time>2023-12-20T09:57:55Z</time>
      </trkpt>
      <trkpt lat="48.7311" lon="1.83351">
        <ele>164.8</ele>
        <time>2023-12-20T09:57:56Z</time>
      </trkpt>
      <trkpt lat="48.73111" lon="1.8336">
        <ele>164.8</ele>
        <time>2023-12-20T09:57:57Z</time>
      </trkpt>
      <trkpt lat="48.73112" lon="1.83369">
        <ele>164.4</ele>
        <time>2023-12-20T09:57:58Z</time>
      </trkpt>
      <trkpt lat="48.73113" lon="1.83378">
        <ele>164.4</ele>
        <time>2023-12-20T09:57:59Z</time>
      </trkpt>
      <trkpt lat="48.73114" lon="1.83387">
        <ele>164.4</ele>
        <time>2023-12-20T09:58:00Z</time>
      </trkpt>
      <trkpt lat="48.73115" lon="1.83397">
        <ele>164.4</ele>
        <time>2023-12-20T09:58:01Z</time>
      </trkpt>
      <trkpt lat="48.73116" lon="1.83406">
        <ele>164.4</ele>
        <time>2023-12-20T09:58:02Z</time>
      </trkpt>
      <trkpt lat="48.73118" lon="1.83415">
        <ele>164.6</ele>
        <time>2023-12-20T09:58:03Z</time>
      </trkpt>
      <trkpt lat="48.73119" lon="1.83424">
        <ele>164.6</ele>
        <time>2023-12-20T09:58:04Z</time>
      </trkpt>
      <trkpt lat="48.7312" lon="1.83434">
        <ele>164.6</ele>
        <time>2023-12-20T09:58:05Z</time>
      </trkpt>
      <trkpt lat="48.73121" lon="1.83443">
        <ele>164.4</ele>
        <time>2023-12-20T09:58:06Z</time>
      </trkpt>
      <trkpt lat="48.73121" lon="1.83453">
        <ele>164.4</ele>
        <time>2023-12-20T09:58:07Z</time>
      </trkpt>
      <trkpt lat="48.73122" lon="1.83463">
        <ele>164.4</ele>
        <time>2023-12-20T09:58:08Z</time>
      </trkpt>
      <trkpt lat="48.73123" lon="1.83472">
        <ele>164.4</ele>
        <time>2023-12-20T09:58:09Z</time>
      </trkpt>
      <trkpt lat="48.73124" lon="1.83481">
        <ele>164.2</ele>
        <time>2023-12-20T09:58:10Z</time>
      </trkpt>
      <trkpt lat="48.73126" lon="1.83488">
        <ele>164.2</ele>
        <time>2023-12-20T09:58:11Z</time>
      </trkpt>
      <trkpt lat="48.7313" lon="1.83492">
        <ele>164.2</ele>
        <time>2023-12-20T09:58:12Z</time>
      </trkpt>
      <trkpt lat="48.73135" lon="1.83493">
        <ele>164.2</ele>
        <time>2023-12-20T09:58:13Z</time>
      </trkpt>
      <trkpt lat="48.7314" lon="1.83493">
        <ele>164.2</ele>
        <time>2023-12-20T09:58:14Z</time>
      </trkpt>
      <trkpt lat="48.73145" lon="1.83493">
        <ele>164.4</ele>
        <time>2023-12-20T09:58:15Z</time>
      </trkpt>
      <trkpt lat="48.73151" lon="1.83491">
        <ele>164.4</ele>
        <time>2023-12-20T09:58:16Z</time>
      </trkpt>
      <trkpt lat="48.73156" lon="1.83488">
        <ele>164.4</ele>
        <time>2023-12-20T09:58:17Z</time>
      </trkpt>
      <trkpt lat="48.73162" lon="1.83486">
        <ele>164.2</ele>
        <time>2023-12-20T09:58:18Z</time>
      </trkpt>
      <trkpt lat="48.73168" lon="1.83484">
        <ele>164.6</ele>
        <time>2023-12-20T09:58:19Z</time>
      </trkpt>
      <trkpt lat="48.73175" lon="1.83481">
        <ele>164.6</ele>
        <time>2023-12-20T09:58:20Z</time>
      </trkpt>
      <trkpt lat="48.73181" lon="1.83479">
        <ele>164.6</ele>
        <time>2023-12-20T09:58:21Z</time>
      </trkpt>
      <trkpt lat="48.73187" lon="1.83476">
        <ele>164</ele>
        <time>2023-12-20T09:58:22Z</time>
      </trkpt>
      <trkpt lat="48.73193" lon="1.83473">
        <ele>164.4</ele>
        <time>2023-12-20T09:58:23Z</time>
      </trkpt>
      <trkpt lat="48.73199" lon="1.8347">
        <ele>164.4</ele>
        <time>2023-12-20T09:58:24Z</time>
      </trkpt>
      <trkpt lat="48.73206" lon="1.83468">
        <ele>164.4</ele>
        <time>2023-12-20T09:58:25Z</time>
      </trkpt>
      <trkpt lat="48.73212" lon="1.83466">
        <ele>164.4</ele>
        <time>2023-12-20T09:58:26Z</time>
      </trkpt>
      <trkpt lat="48.73218" lon="1.83462">
        <ele>164.4</ele>
        <time>2023-12-20T09:58:27Z</time>
      </trkpt>
      <trkpt lat="48.73225" lon="1.83458">
        <ele>164.4</ele>
        <time>2023-12-20T09:58:28Z</time>
      </trkpt>
      <trkpt lat="48.73231" lon="1.83454">
        <ele>164.4</ele>
        <time>2023-12-20T09:58:29Z</time>
      </trkpt>
      <trkpt lat="48.73237" lon="1.83451">
        <ele>164.4</ele>
        <time>2023-12-20T09:58:30Z</time>
      </trkpt>
      <trkpt lat="48.73243" lon="1.83448">
        <ele>164.4</ele>
        <time>2023-12-20T09:58:31Z</time>
      </trkpt>
      <trkpt lat="48.7325" lon="1.83445">
        <ele>164.4</ele>
        <time>2023-12-20T09:58:32Z</time>
      </trkpt>
      <trkpt lat="48.73256" lon="1.83442">
        <ele>164.4</ele>
        <time>2023-12-20T09:58:33Z</time>
      </trkpt>
      <trkpt lat="48.73262" lon="1.83439">
        <ele>164.4</ele>
        <time>2023-12-20T09:58:34Z</time>
      </trkpt>
      <trkpt lat="48.73268" lon="1.83436">
        <ele>164.6</ele>
        <time>2023-12-20T09:58:35Z</time>
      </trkpt>
      <trkpt lat="48.73275" lon="1.83433">
        <ele>164.6</ele>
        <time>2023-12-20T09:58:36Z</time>
      </trkpt>
      <trkpt lat="48.73281" lon="1.8343">
        <ele>164.6</ele>
        <time>2023-12-20T09:58:37Z</time>
      </trkpt>
      <trkpt lat="48.73288" lon="1.83426">
        <ele>164.6</ele>
        <time>2023-12-20T09:58:38Z</time>
      </trkpt>
      <trkpt lat="48.73294" lon="1.83423">
        <ele>164.6</ele>
        <time>2023-12-20T09:58:39Z</time>
      </trkpt>
      <trkpt lat="48.733" lon="1.83419">
        <ele>164.6</ele>
        <time>2023-12-20T09:58:40Z</time>
      </trkpt>
      <trkpt lat="48.73306" lon="1.83415">
        <ele>164.6</ele>
        <time>2023-12-20T09:58:41Z</time>
      </trkpt>
      <trkpt lat="48.73312" lon="1.8341">
        <ele>164.8</ele>
        <time>2023-12-20T09:58:42Z</time>
      </trkpt>
      <trkpt lat="48.73319" lon="1.83406">
        <ele>164.4</ele>
        <time>2023-12-20T09:58:43Z</time>
      </trkpt>
      <trkpt lat="48.73325" lon="1.83402">
        <ele>164.4</ele>
        <time>2023-12-20T09:58:44Z</time>
      </trkpt>
      <trkpt lat="48.73331" lon="1.83399">
        <ele>164.4</ele>
        <time>2023-12-20T09:58:45Z</time>
      </trkpt>
      <trkpt lat="48.73338" lon="1.83395">
        <ele>164.4</ele>
        <time>2023-12-20T09:58:46Z</time>
      </trkpt>
      <trkpt lat="48.73344" lon="1.83391">
        <ele>164.2</ele>
        <time>2023-12-20T09:58:47Z</time>
      </trkpt>
      <trkpt lat="48.7335" lon="1.83387">
        <ele>164.2</ele>
        <time>2023-12-20T09:58:48Z</time>
      </trkpt>
      <trkpt lat="48.73357" lon="1.83383">
        <ele>164.2</ele>
        <time>2023-12-20T09:58:49Z</time>
      </trkpt>
      <trkpt lat="48.73363" lon="1.8338">
        <ele>164.8</ele>
        <time>2023-12-20T09:58:50Z</time>
      </trkpt>
      <trkpt lat="48.73369" lon="1.83376">
        <ele>164.4</ele>
        <time>2023-12-20T09:58:51Z</time>
      </trkpt>
      <trkpt lat="48.73375" lon="1.83372">
        <ele>164.4</ele>
        <time>2023-12-20T09:58:52Z</time>
      </trkpt>
      <trkpt lat="48.73381" lon="1.83368">
        <ele>164.4</ele>
        <time>2023-12-20T09:58:53Z</time>
      </trkpt>
      <trkpt lat="48.73388" lon="1.83365">
        <ele>164.6</ele>
        <time>2023-12-20T09:58:54Z</time>
      </trkpt>
      <trkpt lat="48.73394" lon="1.83361">
        <ele>164.2</ele>
        <time>2023-12-20T09:58:55Z</time>
      </trkpt>
      <trkpt lat="48.73401" lon="1.83358">
        <ele>164.2</ele>
        <time>2023-12-20T09:58:56Z</time>
      </trkpt>
      <trkpt lat="48.73407" lon="1.83354">
        <ele>164.2</ele>
        <time>2023-12-20T09:58:57Z</time>
      </trkpt>
      <trkpt lat="48.73414" lon="1.83351">
        <ele>164.2</ele>
        <time>2023-12-20T09:58:58Z</time>
      </trkpt>
      <trkpt lat="48.7342" lon="1.83347">
        <ele>164.2</ele>
        <time>2023-12-20T09:58:59Z</time>
      </trkpt>
      <trkpt lat="48.73426" lon="1.83344">
        <ele>164.2</ele>
        <time>2023-12-20T09:59:00Z</time>
      </trkpt>
      <trkpt lat="48.73433" lon="1.8334">
        <ele>164.2</ele>
        <time>2023-12-20T09:59:01Z</time>
      </trkpt>
      <trkpt lat="48.73439" lon="1.83337">
        <ele>164.2</ele>
        <time>2023-12-20T09:59:02Z</time>
      </trkpt>
      <trkpt lat="48.73446" lon="1.83333">
        <ele>164.2</ele>
        <time>2023-12-20T09:59:03Z</time>
      </trkpt>
      <trkpt lat="48.73452" lon="1.8333">
        <ele>164.2</ele>
        <time>2023-12-20T09:59:04Z</time>
      </trkpt>
      <trkpt lat="48.73458" lon="1.83327">
        <ele>164.2</ele>
        <time>2023-12-20T09:59:05Z</time>
      </trkpt>
      <trkpt lat="48.73464" lon="1.83323">
        <ele>163.8</ele>
        <time>2023-12-20T09:59:06Z</time>
      </trkpt>
      <trkpt lat="48.73471" lon="1.83319">
        <ele>164</ele>
        <time>2023-12-20T09:59:07Z</time>
      </trkpt>
      <trkpt lat="48.73477" lon="1.83316">
        <ele>164</ele>
        <time>2023-12-20T09:59:08Z</time>
      </trkpt>
      <trkpt lat="48.73483" lon="1.83312">
        <ele>164</ele>
        <time>2023-12-20T09:59:09Z</time>
      </trkpt>
      <trkpt lat="48.7349" lon="1.83309">
        <ele>164</ele>
        <time>2023-12-20T09:59:10Z</time>
      </trkpt>
      <trkpt lat="48.73496" lon="1.83305">
        <ele>163.8</ele>
        <time>2023-12-20T09:59:11Z</time>
      </trkpt>
      <trkpt lat="48.73503" lon="1.83302">
        <ele>163.8</ele>
        <time>2023-12-20T09:59:12Z</time>
      </trkpt>
      <trkpt lat="48.73509" lon="1.83298">
        <ele>163.8</ele>
        <time>2023-12-20T09:59:13Z</time>
      </trkpt>
      <trkpt lat="48.73516" lon="1.83294">
        <ele>163.8</ele>
        <time>2023-12-20T09:59:14Z</time>
      </trkpt>
      <trkpt lat="48.73522" lon="1.83291">
        <ele>163.8</ele>
        <time>2023-12-20T09:59:15Z</time>
      </trkpt>
      <trkpt lat="48.73529" lon="1.83287">
        <ele>163.8</ele>
        <time>2023-12-20T09:59:16Z</time>
      </trkpt>
      <trkpt lat="48.73535" lon="1.83283">
        <ele>163.8</ele>
        <time>2023-12-20T09:59:17Z</time>
      </trkpt>
      <trkpt lat="48.73542" lon="1.83279">
        <ele>163.8</ele>
        <time>2023-12-20T09:59:18Z</time>
      </trkpt>
      <trkpt lat="48.73549" lon="1.83276">
        <ele>164.2</ele>
        <time>2023-12-20T09:59:19Z</time>
      </trkpt>
      <trkpt lat="48.73555" lon="1.83272">
        <ele>164.2</ele>
        <time>2023-12-20T09:59:20Z</time>
      </trkpt>
      <trkpt lat="48.73562" lon="1.83268">
        <ele>164.2</ele>
        <time>2023-12-20T09:59:21Z</time>
      </trkpt>
      <trkpt lat="48.73568" lon="1.83264">
        <ele>163.8</ele>
        <time>2023-12-20T09:59:22Z</time>
      </trkpt>
      <trkpt lat="48.73575" lon="1.83261">
        <ele>163.6</ele>
        <time>2023-12-20T09:59:23Z</time>
      </trkpt>
      <trkpt lat="48.73581" lon="1.83258">
        <ele>163.6</ele>
        <time>2023-12-20T09:59:24Z</time>
      </trkpt>
      <trkpt lat="48.73587" lon="1.83254">
        <ele>163.6</ele>
        <time>2023-12-20T09:59:25Z</time>
      </trkpt>
      <trkpt lat="48.73593" lon="1.83252">
        <ele>163.6</ele>
        <time>2023-12-20T09:59:26Z</time>
      </trkpt>
      <trkpt lat="48.73599" lon="1.83248">
        <ele>163.6</ele>
        <time>2023-12-20T09:59:27Z</time>
      </trkpt>
      <trkpt lat="48.73604" lon="1.83245">
        <ele>163.6</ele>
        <time>2023-12-20T09:59:28Z</time>
      </trkpt>
      <trkpt lat="48.73609" lon="1.83243">
        <ele>163.6</ele>
        <time>2023-12-20T09:59:29Z</time>
      </trkpt>
      <trkpt lat="48.73613" lon="1.83244">
        <ele>164.2</ele>
        <time>2023-12-20T09:59:30Z</time>
      </trkpt>
      <trkpt lat="48.73618" lon="1.83248">
        <ele>163.8</ele>
        <time>2023-12-20T09:59:31Z</time>
      </trkpt>
      <trkpt lat="48.73621" lon="1.83254">
        <ele>163.8</ele>
        <time>2023-12-20T09:59:32Z</time>
      </trkpt>
      <trkpt lat="48.73624" lon="1.8326">
        <ele>163.8</ele>
        <time>2023-12-20T09:59:33Z</time>
      </trkpt>
      <trkpt lat="48.73626" lon="1.83268">
        <ele>163.8</ele>
        <time>2023-12-20T09:59:34Z</time>
      </trkpt>
      <trkpt lat="48.73628" lon="1.83275">
        <ele>163.6</ele>
        <time>2023-12-20T09:59:35Z</time>
      </trkpt>
      <trkpt lat="48.73631" lon="1.83283">
        <ele>163.6</ele>
        <time>2023-12-20T09:59:36Z</time>
      </trkpt>
      <trkpt lat="48.73633" lon="1.8329">
        <ele>163.6</ele>
        <time>2023-12-20T09:59:37Z</time>
      </trkpt>
      <trkpt lat="48.73636" lon="1.83298">
        <ele>163.2</ele>
        <time>2023-12-20T09:59:38Z</time>
      </trkpt>
      <trkpt lat="48.73638" lon="1.83306">
        <ele>163.6</ele>
        <time>2023-12-20T09:59:39Z</time>
      </trkpt>
      <trkpt lat="48.73641" lon="1.83314">
        <ele>163.6</ele>
        <time>2023-12-20T09:59:40Z</time>
      </trkpt>
      <trkpt lat="48.73644" lon="1.83322">
        <ele>163.6</ele>
        <time>2023-12-20T09:59:41Z</time>
      </trkpt>
      <trkpt lat="48.73646" lon="1.8333">
        <ele>163.6</ele>
        <time>2023-12-20T09:59:42Z</time>
      </trkpt>
      <trkpt lat="48.73649" lon="1.83338">
        <ele>163.2</ele>
        <time>2023-12-20T09:59:43Z</time>
      </trkpt>
      <trkpt lat="48.73652" lon="1.83347">
        <ele>163.2</ele>
        <time>2023-12-20T09:59:44Z</time>
      </trkpt>
      <trkpt lat="48.73654" lon="1.83355">
        <ele>163.2</ele>
        <time>2023-12-20T09:59:45Z</time>
      </trkpt>
      <trkpt lat="48.73657" lon="1.83364">
        <ele>163.2</ele>
        <time>2023-12-20T09:59:46Z</time>
      </trkpt>
      <trkpt lat="48.73659" lon="1.83372">
        <ele>163.4</ele>
        <time>2023-12-20T09:59:47Z</time>
      </trkpt>
      <trkpt lat="48.73662" lon="1.8338">
        <ele>163.4</ele>
        <time>2023-12-20T09:59:48Z</time>
      </trkpt>
      <trkpt lat="48.73665" lon="1.83388">
        <ele>163.4</ele>
        <time>2023-12-20T09:59:49Z</time>
      </trkpt>
      <trkpt lat="48.73667" lon="1.83397">
        <ele>163.4</ele>
        <time>2023-12-20T09:59:50Z</time>
      </trkpt>
      <trkpt lat="48.7367" lon="1.83406">
        <ele>163.6</ele>
        <time>2023-12-20T09:59:51Z</time>
      </trkpt>
      <trkpt lat="48.73673" lon="1.83415">
        <ele>163.6</ele>
        <time>2023-12-20T09:59:52Z</time>
      </trkpt>
      <trkpt lat="48.73676" lon="1.83423">
        <ele>163.6</ele>
        <time>2023-12-20T09:59:53Z</time>
      </trkpt>
      <trkpt lat="48.73679" lon="1.83432">
        <ele>163.2</ele>
        <time>2023-12-20T09:59:54Z</time>
      </trkpt>
      <trkpt lat="48.73682" lon="1.83441">
        <ele>163.4</ele>
        <time>2023-12-20T09:59:55Z</time>
      </trkpt>
      <trkpt lat="48.73685" lon="1.8345">
        <ele>163.4</ele>
        <time>2023-12-20T09:59:56Z</time>
      </trkpt>
      <trkpt lat="48.73688" lon="1.83459">
        <ele>163.4</ele>
        <time>2023-12-20T09:59:57Z</time>
      </trkpt>
      <trkpt lat="48.73692" lon="1.83469">
        <ele>163</ele>
        <time>2023-12-20T09:59:58Z</time>
      </trkpt>
      <trkpt lat="48.73695" lon="1.83478">
        <ele>163.2</ele>
        <time>2023-12-20T09:59:59Z</time>
      </trkpt>
      <trkpt lat="48.73698" lon="1.83488">
        <ele>163.2</ele>
        <time>2023-12-20T10:00:00Z</time>
      </trkpt>
      <trkpt lat="48.737" lon="1.83497">
        <ele>163.2</ele>
        <time>2023-12-20T10:00:01Z</time>
      </trkpt>
      <trkpt lat="48.73704" lon="1.83506">
        <ele>163.2</ele>
        <time>2023-12-20T10:00:02Z</time>
      </trkpt>
      <trkpt lat="48.73707" lon="1.83514">
        <ele>163.2</ele>
        <time>2023-12-20T10:00:03Z</time>
      </trkpt>
      <trkpt lat="48.73709" lon="1.83523">
        <ele>163.2</ele>
        <time>2023-12-20T10:00:04Z</time>
      </trkpt>
      <trkpt lat="48.73712" lon="1.83532">
        <ele>163.2</ele>
        <time>2023-12-20T10:00:05Z</time>
      </trkpt>
      <trkpt lat="48.73715" lon="1.83541">
        <ele>162.8</ele>
        <time>2023-12-20T10:00:06Z</time>
      </trkpt>
      <trkpt lat="48.73718" lon="1.8355">
        <ele>163</ele>
        <time>2023-12-20T10:00:07Z</time>
      </trkpt>
      <trkpt lat="48.73721" lon="1.83559">
        <ele>163</ele>
        <time>2023-12-20T10:00:08Z</time>
      </trkpt>
      <trkpt lat="48.73724" lon="1.83568">
        <ele>163</ele>
        <time>2023-12-20T10:00:09Z</time>
      </trkpt>
      <trkpt lat="48.73728" lon="1.83577">
        <ele>162.8</ele>
        <time>2023-12-20T10:00:10Z</time>
      </trkpt>
      <trkpt lat="48.73731" lon="1.83586">
        <ele>162.8</ele>
        <time>2023-12-20T10:00:11Z</time>
      </trkpt>
      <trkpt lat="48.73735" lon="1.83594">
        <ele>162.8</ele>
        <time>2023-12-20T10:00:12Z</time>
      </trkpt>
      <trkpt lat="48.73738" lon="1.83603">
        <ele>162.8</ele>
        <time>2023-12-20T10:00:13Z</time>
      </trkpt>
      <trkpt lat="48.73742" lon="1.83611">
        <ele>162.8</ele>
        <time>2023-12-20T10:00:14Z</time>
      </trkpt>
      <trkpt lat="48.73746" lon="1.83619">
        <ele>162.8</ele>
        <time>2023-12-20T10:00:15Z</time>
      </trkpt>
      <trkpt lat="48.73749" lon="1.83627">
        <ele>162.8</ele>
        <time>2023-12-20T10:00:16Z</time>
      </trkpt>
      <trkpt lat="48.73754" lon="1.83635">
        <ele>162.8</ele>
        <time>2023-12-20T10:00:17Z</time>
      </trkpt>
      <trkpt lat="48.73758" lon="1.83642">
        <ele>162.8</ele>
        <time>2023-12-20T10:00:18Z</time>
      </trkpt>
      <trkpt lat="48.73763" lon="1.8365">
        <ele>162.6</ele>
        <time>2023-12-20T10:00:19Z</time>
      </trkpt>
      <trkpt lat="48.73768" lon="1.83657">
        <ele>162.6</ele>
        <time>2023-12-20T10:00:20Z</time>
      </trkpt>
      <trkpt lat="48.73772" lon="1.83665">
        <ele>162.6</ele>
        <time>2023-12-20T10:00:21Z</time>
      </trkpt>
      <trkpt lat="48.73777" lon="1.83672">
        <ele>162.6</ele>
        <time>2023-12-20T10:00:22Z</time>
      </trkpt>
      <trkpt lat="48.73782" lon="1.83679">
        <ele>162.4</ele>
        <time>2023-12-20T10:00:23Z</time>
      </trkpt>
      <trkpt lat="48.73787" lon="1.83686">
        <ele>162.4</ele>
        <time>2023-12-20T10:00:24Z</time>
      </trkpt>
      <trkpt lat="48.73791" lon="1.83694">
        <ele>162.4</ele>
        <time>2023-12-20T10:00:25Z</time>
      </trkpt>
      <trkpt lat="48.73796" lon="1.83701">
        <ele>162.4</ele>
        <time>2023-12-20T10:00:26Z</time>
      </trkpt>
      <trkpt lat="48.73801" lon="1.83709">
        <ele>162.6</ele>
        <time>2023-12-20T10:00:27Z</time>
      </trkpt>
      <trkpt lat="48.73807" lon="1.83716">
        <ele>162.6</ele>
        <time>2023-12-20T10:00:28Z</time>
      </trkpt>
      <trkpt lat="48.73812" lon="1.83724">
        <ele>162.6</ele>
        <time>2023-12-20T10:00:29Z</time>
      </trkpt>
      <trkpt lat="48.73817" lon="1.83732">
        <ele>162</ele>
        <time>2023-12-20T10:00:30Z</time>
      </trkpt>
      <trkpt lat="48.73822" lon="1.83739">
        <ele>161.8</ele>
        <time>2023-12-20T10:00:31Z</time>
      </trkpt>
      <trkpt lat="48.73827" lon="1.83747">
        <ele>161.8</ele>
        <time>2023-12-20T10:00:32Z</time>
      </trkpt>
      <trkpt lat="48.73832" lon="1.83755">
        <ele>161.8</ele>
        <time>2023-12-20T10:00:33Z</time>
      </trkpt>
      <trkpt lat="48.73838" lon="1.83763">
        <ele>162.2</ele>
        <time>2023-12-20T10:00:34Z</time>
      </trkpt>
      <trkpt lat="48.73843" lon="1.83771">
        <ele>161.8</ele>
        <time>2023-12-20T10:00:35Z</time>
      </trkpt>
      <trkpt lat="48.73848" lon="1.83779">
        <ele>161.8</ele>
        <time>2023-12-20T10:00:36Z</time>
      </trkpt>
      <trkpt lat="48.73853" lon="1.83788">
        <ele>161.8</ele>
        <time>2023-12-20T10:00:37Z</time>
      </trkpt>
      <trkpt lat="48.73858" lon="1.83798">
        <ele>161.8</ele>
        <time>2023-12-20T10:00:38Z</time>
      </trkpt>
      <trkpt lat="48.73862" lon="1.83808">
        <ele>161.6</ele>
        <time>2023-12-20T10:00:39Z</time>
      </trkpt>
      <trkpt lat="48.73865" lon="1.83817">
        <ele>161.6</ele>
        <time>2023-12-20T10:00:40Z</time>
      </trkpt>
      <trkpt lat="48.73868" lon="1.83827">
        <ele>161.6</ele>
        <time>2023-12-20T10:00:41Z</time>
      </trkpt>
      <trkpt lat="48.73871" lon="1.83837">
        <ele>161.6</ele>
        <time>2023-12-20T10:00:42Z</time>
      </trkpt>
      <trkpt lat="48.73875" lon="1.83847">
        <ele>161.6</ele>
        <time>2023-12-20T10:00:43Z</time>
      </trkpt>
      <trkpt lat="48.73878" lon="1.83856">
        <ele>161.6</ele>
        <time>2023-12-20T10:00:44Z</time>
      </trkpt>
      <trkpt lat="48.73883" lon="1.83864">
        <ele>161.6</ele>
        <time>2023-12-20T10:00:45Z</time>
      </trkpt>
      <trkpt lat="48.73888" lon="1.83872">
        <ele>161.6</ele>
        <time>2023-12-20T10:00:46Z</time>
      </trkpt>
      <trkpt lat="48.73893" lon="1.83879">
        <ele>161.2</ele>
        <time>2023-12-20T10:00:47Z</time>
      </trkpt>
      <trkpt lat="48.73898" lon="1.83886">
        <ele>161.2</ele>
        <time>2023-12-20T10:00:48Z</time>
      </trkpt>
      <trkpt lat="48.73904" lon="1.83893">
        <ele>161.2</ele>
        <time>2023-12-20T10:00:49Z</time>
      </trkpt>
      <trkpt lat="48.73909" lon="1.83899">
        <ele>161.4</ele>
        <time>2023-12-20T10:00:50Z</time>
      </trkpt>
      <trkpt lat="48.73915" lon="1.83905">
        <ele>161.4</ele>
        <time>2023-12-20T10:00:51Z</time>
      </trkpt>
      <trkpt lat="48.7392" lon="1.83911">
        <ele>161.4</ele>
        <time>2023-12-20T10:00:52Z</time>
      </trkpt>
      <trkpt lat="48.73925" lon="1.83917">
        <ele>161.4</ele>
        <time>2023-12-20T10:00:53Z</time>
      </trkpt>
      <trkpt lat="48.73931" lon="1.83923">
        <ele>160.6</ele>
        <time>2023-12-20T10:00:54Z</time>
      </trkpt>
      <trkpt lat="48.73936" lon="1.83929">
        <ele>160.6</ele>
        <time>2023-12-20T10:00:55Z</time>
      </trkpt>
      <trkpt lat="48.73942" lon="1.83936">
        <ele>160.6</ele>
        <time>2023-12-20T10:00:56Z</time>
      </trkpt>
      <trkpt lat="48.73947" lon="1.83942">
        <ele>160.6</ele>
        <time>2023-12-20T10:00:57Z</time>
      </trkpt>
      <trkpt lat="48.73953" lon="1.83949">
        <ele>160.6</ele>
        <time>2023-12-20T10:00:58Z</time>
      </trkpt>
      <trkpt lat="48.73958" lon="1.83955">
        <ele>160.6</ele>
        <time>2023-12-20T10:00:59Z</time>
      </trkpt>
      <trkpt lat="48.73963" lon="1.83962">
        <ele>160.6</ele>
        <time>2023-12-20T10:01:00Z</time>
      </trkpt>
      <trkpt lat="48.73969" lon="1.83968">
        <ele>160.6</ele>
        <time>2023-12-20T10:01:01Z</time>
      </trkpt>
      <trkpt lat="48.73975" lon="1.83974">
        <ele>160.6</ele>
        <time>2023-12-20T10:01:02Z</time>
      </trkpt>
      <trkpt lat="48.7398" lon="1.8398">
        <ele>160.6</ele>
        <time>2023-12-20T10:01:03Z</time>
      </trkpt>
      <trkpt lat="48.73986" lon="1.83987">
        <ele>160.6</ele>
        <time>2023-12-20T10:01:04Z</time>
      </trkpt>
      <trkpt lat="48.73991" lon="1.83993">
        <ele>160.6</ele>
        <time>2023-12-20T10:01:05Z</time>
      </trkpt>
      <trkpt lat="48.73997" lon="1.83998">
        <ele>160.6</ele>
        <time>2023-12-20T10:01:06Z</time>
      </trkpt>
      <trkpt lat="48.74003" lon="1.84003">
        <ele>160.4</ele>
        <time>2023-12-20T10:01:07Z</time>
      </trkpt>
      <trkpt lat="48.74009" lon="1.84007">
        <ele>160.4</ele>
        <time>2023-12-20T10:01:08Z</time>
      </trkpt>
      <trkpt lat="48.74015" lon="1.84012">
        <ele>160.4</ele>
        <time>2023-12-20T10:01:09Z</time>
      </trkpt>
      <trkpt lat="48.74021" lon="1.84016">
        <ele>160.6</ele>
        <time>2023-12-20T10:01:10Z</time>
      </trkpt>
      <trkpt lat="48.74027" lon="1.84021">
        <ele>160.4</ele>
        <time>2023-12-20T10:01:11Z</time>
      </trkpt>
      <trkpt lat="48.74032" lon="1.84026">
        <ele>160.4</ele>
        <time>2023-12-20T10:01:12Z</time>
      </trkpt>
      <trkpt lat="48.74038" lon="1.84031">
        <ele>160.4</ele>
        <time>2023-12-20T10:01:13Z</time>
      </trkpt>
      <trkpt lat="48.74043" lon="1.84036">
        <ele>160.4</ele>
        <time>2023-12-20T10:01:14Z</time>
      </trkpt>
      <trkpt lat="48.74049" lon="1.8404">
        <ele>160.4</ele>
        <time>2023-12-20T10:01:15Z</time>
      </trkpt>
      <trkpt lat="48.74055" lon="1.84043">
        <ele>160.4</ele>
        <time>2023-12-20T10:01:16Z</time>
      </trkpt>
      <trkpt lat="48.74061" lon="1.84046">
        <ele>160.4</ele>
        <time>2023-12-20T10:01:17Z</time>
      </trkpt>
      <trkpt lat="48.74067" lon="1.84046">
        <ele>159.8</ele>
        <time>2023-12-20T10:01:18Z</time>
      </trkpt>
      <trkpt lat="48.74074" lon="1.84045">
        <ele>159.8</ele>
        <time>2023-12-20T10:01:19Z</time>
      </trkpt>
      <trkpt lat="48.7408" lon="1.84044">
        <ele>159.8</ele>
        <time>2023-12-20T10:01:20Z</time>
      </trkpt>
      <trkpt lat="48.74085" lon="1.84042">
        <ele>159.8</ele>
        <time>2023-12-20T10:01:21Z</time>
      </trkpt>
      <trkpt lat="48.74091" lon="1.84039">
        <ele>159.8</ele>
        <time>2023-12-20T10:01:22Z</time>
      </trkpt>
      <trkpt lat="48.74097" lon="1.84036">
        <ele>160.6</ele>
        <time>2023-12-20T10:01:23Z</time>
      </trkpt>
      <trkpt lat="48.74103" lon="1.84033">
        <ele>160.6</ele>
        <time>2023-12-20T10:01:24Z</time>
      </trkpt>
      <trkpt lat="48.74108" lon="1.84031">
        <ele>160.6</ele>
        <time>2023-12-20T10:01:25Z</time>
      </trkpt>
      <trkpt lat="48.74113" lon="1.84029">
        <ele>160.2</ele>
        <time>2023-12-20T10:01:26Z</time>
      </trkpt>
      <trkpt lat="48.74119" lon="1.84026">
        <ele>160.4</ele>
        <time>2023-12-20T10:01:27Z</time>
      </trkpt>
      <trkpt lat="48.74125" lon="1.84025">
        <ele>160.4</ele>
        <time>2023-12-20T10:01:28Z</time>
      </trkpt>
      <trkpt lat="48.74131" lon="1.84023">
        <ele>160.4</ele>
        <time>2023-12-20T10:01:29Z</time>
      </trkpt>
      <trkpt lat="48.74137" lon="1.84022">
        <ele>160.4</ele>
        <time>2023-12-20T10:01:30Z</time>
      </trkpt>
      <trkpt lat="48.74143" lon="1.8402">
        <ele>160.6</ele>
        <time>2023-12-20T10:01:31Z</time>
      </trkpt>
      <trkpt lat="48.74149" lon="1.84017">
        <ele>160.6</ele>
        <time>2023-12-20T10:01:32Z</time>
      </trkpt>
      <trkpt lat="48.74154" lon="1.84015">
        <ele>160.6</ele>
        <time>2023-12-20T10:01:33Z</time>
      </trkpt>
      <trkpt lat="48.7416" lon="1.84013">
        <ele>160.6</ele>
        <time>2023-12-20T10:01:34Z</time>
      </trkpt>
      <trkpt lat="48.74167" lon="1.8401">
        <ele>160.8</ele>
        <time>2023-12-20T10:01:35Z</time>
      </trkpt>
      <trkpt lat="48.74173" lon="1.84008">
        <ele>160.8</ele>
        <time>2023-12-20T10:01:36Z</time>
      </trkpt>
      <trkpt lat="48.74178" lon="1.84005">
        <ele>160.8</ele>
        <time>2023-12-20T10:01:37Z</time>
      </trkpt>
      <trkpt lat="48.74184" lon="1.84002">
        <ele>160.8</ele>
        <time>2023-12-20T10:01:38Z</time>
      </trkpt>
      <trkpt lat="48.74189" lon="1.83999">
        <ele>160.2</ele>
        <time>2023-12-20T10:01:39Z</time>
      </trkpt>
      <trkpt lat="48.74194" lon="1.83996">
        <ele>160.2</ele>
        <time>2023-12-20T10:01:40Z</time>
      </trkpt>
      <trkpt lat="48.742" lon="1.83993">
        <ele>160.2</ele>
        <time>2023-12-20T10:01:41Z</time>
      </trkpt>
      <trkpt lat="48.74206" lon="1.8399">
        <ele>160.4</ele>
        <time>2023-12-20T10:01:42Z</time>
      </trkpt>
      <trkpt lat="48.74212" lon="1.83987">
        <ele>160.4</ele>
        <time>2023-12-20T10:01:43Z</time>
      </trkpt>
      <trkpt lat="48.74218" lon="1.83984">
        <ele>160.4</ele>
        <time>2023-12-20T10:01:44Z</time>
      </trkpt>
      <trkpt lat="48.74224" lon="1.83981">
        <ele>160.4</ele>
        <time>2023-12-20T10:01:45Z</time>
      </trkpt>
      <trkpt lat="48.7423" lon="1.83978">
        <ele>160.4</ele>
        <time>2023-12-20T10:01:46Z</time>
      </trkpt>
      <trkpt lat="48.74237" lon="1.83976">
        <ele>160</ele>
        <time>2023-12-20T10:01:47Z</time>
      </trkpt>
      <trkpt lat="48.74243" lon="1.83973">
        <ele>160</ele>
        <time>2023-12-20T10:01:48Z</time>
      </trkpt>
      <trkpt lat="48.74249" lon="1.83971">
        <ele>160</ele>
        <time>2023-12-20T10:01:49Z</time>
      </trkpt>
      <trkpt lat="48.74255" lon="1.83969">
        <ele>160.2</ele>
        <time>2023-12-20T10:01:50Z</time>
      </trkpt>
      <trkpt lat="48.74262" lon="1.83967">
        <ele>160.6</ele>
        <time>2023-12-20T10:01:51Z</time>
      </trkpt>
      <trkpt lat="48.74268" lon="1.83965">
        <ele>160.6</ele>
        <time>2023-12-20T10:01:52Z</time>
      </trkpt>
      <trkpt lat="48.74275" lon="1.83965">
        <ele>160.6</ele>
        <time>2023-12-20T10:01:53Z</time>
      </trkpt>
      <trkpt lat="48.74281" lon="1.83964">
        <ele>160.6</ele>
        <time>2023-12-20T10:01:54Z</time>
      </trkpt>
      <trkpt lat="48.74287" lon="1.83963">
        <ele>160</ele>
        <time>2023-12-20T10:01:55Z</time>
      </trkpt>
      <trkpt lat="48.74294" lon="1.83963">
        <ele>160</ele>
        <time>2023-12-20T10:01:56Z</time>
      </trkpt>
      <trkpt lat="48.743" lon="1.83964">
        <ele>160</ele>
        <time>2023-12-20T10:01:57Z</time>
      </trkpt>
      <trkpt lat="48.74307" lon="1.83964">
        <ele>160</ele>
        <time>2023-12-20T10:01:58Z</time>
      </trkpt>
      <trkpt lat="48.74313" lon="1.83965">
        <ele>160</ele>
        <time>2023-12-20T10:01:59Z</time>
      </trkpt>
      <trkpt lat="48.7432" lon="1.83966">
        <ele>160</ele>
        <time>2023-12-20T10:02:00Z</time>
      </trkpt>
      <trkpt lat="48.74326" lon="1.83967">
        <ele>160</ele>
        <time>2023-12-20T10:02:01Z</time>
      </trkpt>
      <trkpt lat="48.74333" lon="1.83967">
        <ele>160</ele>
        <time>2023-12-20T10:02:02Z</time>
      </trkpt>
      <trkpt lat="48.74339" lon="1.83968">
        <ele>160.2</ele>
        <time>2023-12-20T10:02:03Z</time>
      </trkpt>
      <trkpt lat="48.74346" lon="1.8397">
        <ele>160.2</ele>
        <time>2023-12-20T10:02:04Z</time>
      </trkpt>
      <trkpt lat="48.74353" lon="1.83971">
        <ele>160.2</ele>
        <time>2023-12-20T10:02:05Z</time>
      </trkpt>
      <trkpt lat="48.74359" lon="1.83973">
        <ele>159.8</ele>
        <time>2023-12-20T10:02:06Z</time>
      </trkpt>
      <trkpt lat="48.74366" lon="1.83974">
        <ele>159.6</ele>
        <time>2023-12-20T10:02:07Z</time>
      </trkpt>
      <trkpt lat="48.74373" lon="1.83976">
        <ele>159.6</ele>
        <time>2023-12-20T10:02:08Z</time>
      </trkpt>
      <trkpt lat="48.74379" lon="1.83977">
        <ele>159.6</ele>
        <time>2023-12-20T10:02:09Z</time>
      </trkpt>
      <trkpt lat="48.74386" lon="1.83978">
        <ele>159.8</ele>
        <time>2023-12-20T10:02:10Z</time>
      </trkpt>
      <trkpt lat="48.74393" lon="1.8398">
        <ele>160</ele>
        <time>2023-12-20T10:02:11Z</time>
      </trkpt>
      <trkpt lat="48.744" lon="1.83981">
        <ele>160</ele>
        <time>2023-12-20T10:02:12Z</time>
      </trkpt>
      <trkpt lat="48.74407" lon="1.83983">
        <ele>160</ele>
        <time>2023-12-20T10:02:13Z</time>
      </trkpt>
      <trkpt lat="48.74414" lon="1.83984">
        <ele>160</ele>
        <time>2023-12-20T10:02:14Z</time>
      </trkpt>
      <trkpt lat="48.74421" lon="1.83986">
        <ele>159.8</ele>
        <time>2023-12-20T10:02:15Z</time>
      </trkpt>
      <trkpt lat="48.74428" lon="1.83988">
        <ele>159.8</ele>
        <time>2023-12-20T10:02:16Z</time>
      </trkpt>
      <trkpt lat="48.74435" lon="1.83989">
        <ele>159.8</ele>
        <time>2023-12-20T10:02:17Z</time>
      </trkpt>
      <trkpt lat="48.74442" lon="1.83991">
        <ele>159.8</ele>
        <time>2023-12-20T10:02:18Z</time>
      </trkpt>
      <trkpt lat="48.74449" lon="1.83992">
        <ele>159.6</ele>
        <time>2023-12-20T10:02:19Z</time>
      </trkpt>
      <trkpt lat="48.74456" lon="1.83994">
        <ele>159.6</ele>
        <time>2023-12-20T10:02:20Z</time>
      </trkpt>
      <trkpt lat="48.74463" lon="1.83995">
        <ele>159.6</ele>
        <time>2023-12-20T10:02:21Z</time>
      </trkpt>
      <trkpt lat="48.74469" lon="1.83997">
        <ele>159.6</ele>
        <time>2023-12-20T10:02:22Z</time>
      </trkpt>
      <trkpt lat="48.74476" lon="1.84">
        <ele>159.6</ele>
        <time>2023-12-20T10:02:23Z</time>
      </trkpt>
      <trkpt lat="48.74483" lon="1.84002">
        <ele>159.6</ele>
        <time>2023-12-20T10:02:24Z</time>
      </trkpt>
      <trkpt lat="48.7449" lon="1.84005">
        <ele>159.6</ele>
        <time>2023-12-20T10:02:25Z</time>
      </trkpt>
      <trkpt lat="48.74496" lon="1.84009">
        <ele>159.6</ele>
        <time>2023-12-20T10:02:26Z</time>
      </trkpt>
      <trkpt lat="48.74503" lon="1.84013">
        <ele>159.6</ele>
        <time>2023-12-20T10:02:27Z</time>
      </trkpt>
      <trkpt lat="48.74509" lon="1.84018">
        <ele>159.6</ele>
        <time>2023-12-20T10:02:28Z</time>
      </trkpt>
      <trkpt lat="48.74516" lon="1.84023">
        <ele>159.6</ele>
        <time>2023-12-20T10:02:29Z</time>
      </trkpt>
      <trkpt lat="48.74522" lon="1.84028">
        <ele>159.6</ele>
        <time>2023-12-20T10:02:30Z</time>
      </trkpt>
      <trkpt lat="48.74528" lon="1.84034">
        <ele>159.6</ele>
        <time>2023-12-20T10:02:31Z</time>
      </trkpt>
      <trkpt lat="48.74534" lon="1.84039">
        <ele>159.6</ele>
        <time>2023-12-20T10:02:32Z</time>
      </trkpt>
      <trkpt lat="48.7454" lon="1.84044">
        <ele>159.6</ele>
        <time>2023-12-20T10:02:33Z</time>
      </trkpt>
      <trkpt lat="48.74547" lon="1.8405">
        <ele>159.6</ele>
        <time>2023-12-20T10:02:34Z</time>
      </trkpt>
      <trkpt lat="48.74553" lon="1.84055">
        <ele>159.6</ele>
        <time>2023-12-20T10:02:35Z</time>
      </trkpt>
      <trkpt lat="48.74559" lon="1.84061">
        <ele>159.6</ele>
        <time>2023-12-20T10:02:36Z</time>
      </trkpt>
      <trkpt lat="48.74565" lon="1.84066">
        <ele>159.6</ele>
        <time>2023-12-20T10:02:37Z</time>
      </trkpt>
      <trkpt lat="48.74571" lon="1.84072">
        <ele>159.6</ele>
        <time>2023-12-20T10:02:38Z</time>
      </trkpt>
      <trkpt lat="48.74577" lon="1.84077">
        <ele>160.4</ele>
        <time>2023-12-20T10:02:39Z</time>
      </trkpt>
      <trkpt lat="48.74583" lon="1.84083">
        <ele>160.4</ele>
        <time>2023-12-20T10:02:40Z</time>
      </trkpt>
      <trkpt lat="48.74588" lon="1.84089">
        <ele>160.4</ele>
        <time>2023-12-20T10:02:41Z</time>
      </trkpt>
      <trkpt lat="48.74594" lon="1.84094">
        <ele>159.8</ele>
        <time>2023-12-20T10:02:42Z</time>
      </trkpt>
      <trkpt lat="48.746" lon="1.84099">
        <ele>159.6</ele>
        <time>2023-12-20T10:02:43Z</time>
      </trkpt>
      <trkpt lat="48.74606" lon="1.84104">
        <ele>159.6</ele>
        <time>2023-12-20T10:02:44Z</time>
      </trkpt>
      <trkpt lat="48.74612" lon="1.84109">
        <ele>159.6</ele>
        <time>2023-12-20T10:02:45Z</time>
      </trkpt>
      <trkpt lat="48.74617" lon="1.84114">
        <ele>159.6</ele>
        <time>2023-12-20T10:02:46Z</time>
      </trkpt>
      <trkpt lat="48.74623" lon="1.84119">
        <ele>159.2</ele>
        <time>2023-12-20T10:02:47Z</time>
      </trkpt>
      <trkpt lat="48.74629" lon="1.84124">
        <ele>159.2</ele>
        <time>2023-12-20T10:02:48Z</time>
      </trkpt>
      <trkpt lat="48.74635" lon="1.8413">
        <ele>159.2</ele>
        <time>2023-12-20T10:02:49Z</time>
      </trkpt>
      <trkpt lat="48.7464" lon="1.84134">
        <ele>159.2</ele>
        <time>2023-12-20T10:02:50Z</time>
      </trkpt>
      <trkpt lat="48.74646" lon="1.84139">
        <ele>159.2</ele>
        <time>2023-12-20T10:02:51Z</time>
      </trkpt>
      <trkpt lat="48.74652" lon="1.84144">
        <ele>159.2</ele>
        <time>2023-12-20T10:02:52Z</time>
      </trkpt>
      <trkpt lat="48.74658" lon="1.84148">
        <ele>159.2</ele>
        <time>2023-12-20T10:02:53Z</time>
      </trkpt>
      <trkpt lat="48.74663" lon="1.84151">
        <ele>159.2</ele>
        <time>2023-12-20T10:02:54Z</time>
      </trkpt>
      <trkpt lat="48.74668" lon="1.84154">
        <ele>159</ele>
        <time>2023-12-20T10:02:55Z</time>
      </trkpt>
      <trkpt lat="48.74673" lon="1.84157">
        <ele>159</ele>
        <time>2023-12-20T10:02:56Z</time>
      </trkpt>
      <trkpt lat="48.74677" lon="1.84159">
        <ele>159</ele>
        <time>2023-12-20T10:02:57Z</time>
      </trkpt>
      <trkpt lat="48.74682" lon="1.84162">
        <ele>159.2</ele>
        <time>2023-12-20T10:02:58Z</time>
      </trkpt>
      <trkpt lat="48.74687" lon="1.84165">
        <ele>159.4</ele>
        <time>2023-12-20T10:02:59Z</time>
      </trkpt>
      <trkpt lat="48.74692" lon="1.84167">
        <ele>159.4</ele>
        <time>2023-12-20T10:03:00Z</time>
      </trkpt>
      <trkpt lat="48.74698" lon="1.84169">
        <ele>159.4</ele>
        <time>2023-12-20T10:03:01Z</time>
      </trkpt>
      <trkpt lat="48.74704" lon="1.84171">
        <ele>159.4</ele>
        <time>2023-12-20T10:03:02Z</time>
      </trkpt>
      <trkpt lat="48.74711" lon="1.84174">
        <ele>158.2</ele>
        <time>2023-12-20T10:03:03Z</time>
      </trkpt>
      <trkpt lat="48.74718" lon="1.84177">
        <ele>158.2</ele>
        <time>2023-12-20T10:03:04Z</time>
      </trkpt>
      <trkpt lat="48.74724" lon="1.84179">
        <ele>158.2</ele>
        <time>2023-12-20T10:03:05Z</time>
      </trkpt>
      <trkpt lat="48.74731" lon="1.84183">
        <ele>158.6</ele>
        <time>2023-12-20T10:03:06Z</time>
      </trkpt>
      <trkpt lat="48.74737" lon="1.84186">
        <ele>157.4</ele>
        <time>2023-12-20T10:03:07Z</time>
      </trkpt>
      <trkpt lat="48.74745" lon="1.84189">
        <ele>157.4</ele>
        <time>2023-12-20T10:03:08Z</time>
      </trkpt>
      <trkpt lat="48.74752" lon="1.84191">
        <ele>157.4</ele>
        <time>2023-12-20T10:03:09Z</time>
      </trkpt>
      <trkpt lat="48.74759" lon="1.84193">
        <ele>158.4</ele>
        <time>2023-12-20T10:03:10Z</time>
      </trkpt>
      <trkpt lat="48.74767" lon="1.84196">
        <ele>158.6</ele>
        <time>2023-12-20T10:03:11Z</time>
      </trkpt>
      <trkpt lat="48.74776" lon="1.84198">
        <ele>158.6</ele>
        <time>2023-12-20T10:03:12Z</time>
      </trkpt>
      <trkpt lat="48.74784" lon="1.842">
        <ele>158.6</ele>
        <time>2023-12-20T10:03:13Z</time>
      </trkpt>
      <trkpt lat="48.74792" lon="1.84202">
        <ele>158.6</ele>
        <time>2023-12-20T10:03:14Z</time>
      </trkpt>
      <trkpt lat="48.748" lon="1.84205">
        <ele>158.8</ele>
        <time>2023-12-20T10:03:15Z</time>
      </trkpt>
      <trkpt lat="48.74808" lon="1.84209">
        <ele>158.8</ele>
        <time>2023-12-20T10:03:16Z</time>
      </trkpt>
      <trkpt lat="48.74816" lon="1.84214">
        <ele>158.8</ele>
        <time>2023-12-20T10:03:17Z</time>
      </trkpt>
      <trkpt lat="48.74822" lon="1.8422">
        <ele>158.8</ele>
        <time>2023-12-20T10:03:18Z</time>
      </trkpt>
      <trkpt lat="48.74827" lon="1.84227">
        <ele>158.2</ele>
        <time>2023-12-20T10:03:19Z</time>
      </trkpt>
      <trkpt lat="48.74832" lon="1.84234">
        <ele>158.2</ele>
        <time>2023-12-20T10:03:20Z</time>
      </trkpt>
      <trkpt lat="48.74836" lon="1.84242">
        <ele>158.2</ele>
        <time>2023-12-20T10:03:21Z</time>
      </trkpt>
      <trkpt lat="48.74839" lon="1.84251">
        <ele>158.2</ele>
        <time>2023-12-20T10:03:22Z</time>
      </trkpt>
      <trkpt lat="48.74842" lon="1.84261">
        <ele>158.4</ele>
        <time>2023-12-20T10:03:23Z</time>
      </trkpt>
      <trkpt lat="48.74846" lon="1.84269">
        <ele>158.4</ele>
        <time>2023-12-20T10:03:24Z</time>
      </trkpt>
      <trkpt lat="48.74849" lon="1.84278">
        <ele>158.4</ele>
        <time>2023-12-20T10:03:25Z</time>
      </trkpt>
      <trkpt lat="48.74853" lon="1.84287">
        <ele>158.4</ele>
        <time>2023-12-20T10:03:26Z</time>
      </trkpt>
      <trkpt lat="48.74855" lon="1.84295">
        <ele>158.6</ele>
        <time>2023-12-20T10:03:27Z</time>
      </trkpt>
      <trkpt lat="48.74858" lon="1.84304">
        <ele>158.6</ele>
        <time>2023-12-20T10:03:28Z</time>
      </trkpt>
      <trkpt lat="48.74862" lon="1.84313">
        <ele>158.6</ele>
        <time>2023-12-20T10:03:29Z</time>
      </trkpt>
      <trkpt lat="48.74866" lon="1.84323">
        <ele>158.6</ele>
        <time>2023-12-20T10:03:30Z</time>
      </trkpt>
      <trkpt lat="48.7487" lon="1.84332">
        <ele>158.2</ele>
        <time>2023-12-20T10:03:31Z</time>
      </trkpt>
      <trkpt lat="48.74873" lon="1.84341">
        <ele>158.2</ele>
        <time>2023-12-20T10:03:32Z</time>
      </trkpt>
      <trkpt lat="48.74877" lon="1.84351">
        <ele>158.2</ele>
        <time>2023-12-20T10:03:33Z</time>
      </trkpt>
      <trkpt lat="48.7488" lon="1.8436">
        <ele>158.2</ele>
        <time>2023-12-20T10:03:34Z</time>
      </trkpt>
      <trkpt lat="48.74884" lon="1.84369">
        <ele>158.2</ele>
        <time>2023-12-20T10:03:35Z</time>
      </trkpt>
      <trkpt lat="48.74888" lon="1.84377">
        <ele>158.2</ele>
        <time>2023-12-20T10:03:36Z</time>
      </trkpt>
      <trkpt lat="48.74891" lon="1.84385">
        <ele>158.2</ele>
        <time>2023-12-20T10:03:37Z</time>
      </trkpt>
      <trkpt lat="48.74895" lon="1.84393">
        <ele>158.2</ele>
        <time>2023-12-20T10:03:38Z</time>
      </trkpt>
      <trkpt lat="48.74899" lon="1.84401">
        <ele>158</ele>
        <time>2023-12-20T10:03:39Z</time>
      </trkpt>
      <trkpt lat="48.74903" lon="1.8441">
        <ele>158</ele>
        <time>2023-12-20T10:03:40Z</time>
      </trkpt>
      <trkpt lat="48.74908" lon="1.84418">
        <ele>158</ele>
        <time>2023-12-20T10:03:41Z</time>
      </trkpt>
      <trkpt lat="48.74913" lon="1.84426">
        <ele>158.2</ele>
        <time>2023-12-20T10:03:42Z</time>
      </trkpt>
      <trkpt lat="48.74918" lon="1.84435">
        <ele>157.6</ele>
        <time>2023-12-20T10:03:43Z</time>
      </trkpt>
      <trkpt lat="48.74923" lon="1.84443">
        <ele>157.6</ele>
        <time>2023-12-20T10:03:44Z</time>
      </trkpt>
      <trkpt lat="48.74929" lon="1.84451">
        <ele>157.6</ele>
        <time>2023-12-20T10:03:45Z</time>
      </trkpt>
      <trkpt lat="48.74934" lon="1.84457">
        <ele>158.2</ele>
        <time>2023-12-20T10:03:46Z</time>
      </trkpt>
      <trkpt lat="48.74941" lon="1.84464">
        <ele>157.8</ele>
        <time>2023-12-20T10:03:47Z</time>
      </trkpt>
      <trkpt lat="48.74947" lon="1.84471">
        <ele>157.8</ele>
        <time>2023-12-20T10:03:48Z</time>
      </trkpt>
      <trkpt lat="48.74953" lon="1.84479">
        <ele>157.8</ele>
        <time>2023-12-20T10:03:49Z</time>
      </trkpt>
      <trkpt lat="48.74959" lon="1.84486">
        <ele>157.8</ele>
        <time>2023-12-20T10:03:50Z</time>
      </trkpt>
      <trkpt lat="48.74965" lon="1.84493">
        <ele>157.8</ele>
        <time>2023-12-20T10:03:51Z</time>
      </trkpt>
      <trkpt lat="48.74972" lon="1.845">
        <ele>157.8</ele>
        <time>2023-12-20T10:03:52Z</time>
      </trkpt>
      <trkpt lat="48.74978" lon="1.84507">
        <ele>157.8</ele>
        <time>2023-12-20T10:03:53Z</time>
      </trkpt>
      <trkpt lat="48.74984" lon="1.84514">
        <ele>157.4</ele>
        <time>2023-12-20T10:03:54Z</time>
      </trkpt>
      <trkpt lat="48.74991" lon="1.84521">
        <ele>157.6</ele>
        <time>2023-12-20T10:03:55Z</time>
      </trkpt>
      <trkpt lat="48.74997" lon="1.84529">
        <ele>157.6</ele>
        <time>2023-12-20T10:03:56Z</time>
      </trkpt>
      <trkpt lat="48.75003" lon="1.84535">
        <ele>157.6</ele>
        <time>2023-12-20T10:03:57Z</time>
      </trkpt>
      <trkpt lat="48.75009" lon="1.84541">
        <ele>157.6</ele>
        <time>2023-12-20T10:03:58Z</time>
      </trkpt>
      <trkpt lat="48.75015" lon="1.84548">
        <ele>157.6</ele>
        <time>2023-12-20T10:03:59Z</time>
      </trkpt>
      <trkpt lat="48.75022" lon="1.84554">
        <ele>157.6</ele>
        <time>2023-12-20T10:04:00Z</time>
      </trkpt>
      <trkpt lat="48.75029" lon="1.84561">
        <ele>157.6</ele>
        <time>2023-12-20T10:04:01Z</time>
      </trkpt>
      <trkpt lat="48.75036" lon="1.84568">
        <ele>157.6</ele>
        <time>2023-12-20T10:04:02Z</time>
      </trkpt>
      <trkpt lat="48.75044" lon="1.84574">
        <ele>157.4</ele>
        <time>2023-12-20T10:04:03Z</time>
      </trkpt>
      <trkpt lat="48.75051" lon="1.84579">
        <ele>157.4</ele>
        <time>2023-12-20T10:04:04Z</time>
      </trkpt>
      <trkpt lat="48.75058" lon="1.84585">
        <ele>157.4</ele>
        <time>2023-12-20T10:04:05Z</time>
      </trkpt>
      <trkpt lat="48.75065" lon="1.84589">
        <ele>157.4</ele>
        <time>2023-12-20T10:04:06Z</time>
      </trkpt>
      <trkpt lat="48.75072" lon="1.84594">
        <ele>157.2</ele>
        <time>2023-12-20T10:04:07Z</time>
      </trkpt>
      <trkpt lat="48.75079" lon="1.84599">
        <ele>157.2</ele>
        <time>2023-12-20T10:04:08Z</time>
      </trkpt>
      <trkpt lat="48.75086" lon="1.84605">
        <ele>157.2</ele>
        <time>2023-12-20T10:04:09Z</time>
      </trkpt>
      <trkpt lat="48.75093" lon="1.84612">
        <ele>157.2</ele>
        <time>2023-12-20T10:04:10Z</time>
      </trkpt>
      <trkpt lat="48.75099" lon="1.8462">
        <ele>157.8</ele>
        <time>2023-12-20T10:04:11Z</time>
      </trkpt>
      <trkpt lat="48.75104" lon="1.84627">
        <ele>157.8</ele>
        <time>2023-12-20T10:04:12Z</time>
      </trkpt>
      <trkpt lat="48.75109" lon="1.84635">
        <ele>157.8</ele>
        <time>2023-12-20T10:04:13Z</time>
      </trkpt>
      <trkpt lat="48.75114" lon="1.84643">
        <ele>157.6</ele>
        <time>2023-12-20T10:04:14Z</time>
      </trkpt>
      <trkpt lat="48.75118" lon="1.84651">
        <ele>157.6</ele>
        <time>2023-12-20T10:04:15Z</time>
      </trkpt>
      <trkpt lat="48.75121" lon="1.8466">
        <ele>157.6</ele>
        <time>2023-12-20T10:04:16Z</time>
      </trkpt>
      <trkpt lat="48.75122" lon="1.84668">
        <ele>157.6</ele>
        <time>2023-12-20T10:04:17Z</time>
      </trkpt>
      <trkpt lat="48.75124" lon="1.84677">
        <ele>157.6</ele>
        <time>2023-12-20T10:04:18Z</time>
      </trkpt>
      <trkpt lat="48.75126" lon="1.84685">
        <ele>157</ele>
        <time>2023-12-20T10:04:19Z</time>
      </trkpt>
      <trkpt lat="48.75127" lon="1.84694">
        <ele>157</ele>
        <time>2023-12-20T10:04:20Z</time>
      </trkpt>
      <trkpt lat="48.75127" lon="1.84702">
        <ele>157</ele>
        <time>2023-12-20T10:04:21Z</time>
      </trkpt>
      <trkpt lat="48.75128" lon="1.8471">
        <ele>158</ele>
        <time>2023-12-20T10:04:22Z</time>
      </trkpt>
      <trkpt lat="48.75128" lon="1.84719">
        <ele>157.6</ele>
        <time>2023-12-20T10:04:23Z</time>
      </trkpt>
      <trkpt lat="48.75128" lon="1.84727">
        <ele>157.6</ele>
        <time>2023-12-20T10:04:24Z</time>
      </trkpt>
      <trkpt lat="48.75128" lon="1.84735">
        <ele>157.6</ele>
        <time>2023-12-20T10:04:25Z</time>
      </trkpt>
      <trkpt lat="48.75128" lon="1.84744">
        <ele>157.6</ele>
        <time>2023-12-20T10:04:26Z</time>
      </trkpt>
      <trkpt lat="48.75128" lon="1.84753">
        <ele>157</ele>
        <time>2023-12-20T10:04:27Z</time>
      </trkpt>
      <trkpt lat="48.75129" lon="1.84761">
        <ele>157</ele>
        <time>2023-12-20T10:04:28Z</time>
      </trkpt>
      <trkpt lat="48.7513" lon="1.8477">
        <ele>157</ele>
        <time>2023-12-20T10:04:29Z</time>
      </trkpt>
      <trkpt lat="48.75131" lon="1.84779">
        <ele>157.2</ele>
        <time>2023-12-20T10:04:30Z</time>
      </trkpt>
      <trkpt lat="48.75132" lon="1.84788">
        <ele>157</ele>
        <time>2023-12-20T10:04:31Z</time>
      </trkpt>
      <trkpt lat="48.75134" lon="1.84797">
        <ele>157</ele>
        <time>2023-12-20T10:04:32Z</time>
      </trkpt>
      <trkpt lat="48.75136" lon="1.84805">
        <ele>157</ele>
        <time>2023-12-20T10:04:33Z</time>
      </trkpt>
      <trkpt lat="48.75138" lon="1.84814">
        <ele>157</ele>
        <time>2023-12-20T10:04:34Z</time>
      </trkpt>
      <trkpt lat="48.75141" lon="1.84823">
        <ele>157.4</ele>
        <time>2023-12-20T10:04:35Z</time>
      </trkpt>
      <trkpt lat="48.75145" lon="1.8483">
        <ele>157.4</ele>
        <time>2023-12-20T10:04:36Z</time>
      </trkpt>
      <trkpt lat="48.75148" lon="1.84838">
        <ele>157.4</ele>
        <time>2023-12-20T10:04:37Z</time>
      </trkpt>
      <trkpt lat="48.75153" lon="1.84845">
        <ele>157.4</ele>
        <time>2023-12-20T10:04:38Z</time>
      </trkpt>
      <trkpt lat="48.75158" lon="1.84852">
        <ele>157</ele>
        <time>2023-12-20T10:04:39Z</time>
      </trkpt>
      <trkpt lat="48.75163" lon="1.84858">
        <ele>157</ele>
        <time>2023-12-20T10:04:40Z</time>
      </trkpt>
      <trkpt lat="48.75168" lon="1.84863">
        <ele>157</ele>
        <time>2023-12-20T10:04:41Z</time>
      </trkpt>
      <trkpt lat="48.75174" lon="1.84869">
        <ele>157</ele>
        <time>2023-12-20T10:04:42Z</time>
      </trkpt>
      <trkpt lat="48.75179" lon="1.84874">
        <ele>156.6</ele>
        <time>2023-12-20T10:04:43Z</time>
      </trkpt>
      <trkpt lat="48.75185" lon="1.8488">
        <ele>156.6</ele>
        <time>2023-12-20T10:04:44Z</time>
      </trkpt>
      <trkpt lat="48.7519" lon="1.84886">
        <ele>156.6</ele>
        <time>2023-12-20T10:04:45Z</time>
      </trkpt>
      <trkpt lat="48.75195" lon="1.8489">
        <ele>156.6</ele>
        <time>2023-12-20T10:04:46Z</time>
      </trkpt>
      <trkpt lat="48.752" lon="1.84896">
        <ele>157.2</ele>
        <time>2023-12-20T10:04:47Z</time>
      </trkpt>
      <trkpt lat="48.75205" lon="1.849">
        <ele>157.2</ele>
        <time>2023-12-20T10:04:48Z</time>
      </trkpt>
      <trkpt lat="48.7521" lon="1.84906">
        <ele>157.2</ele>
        <time>2023-12-20T10:04:49Z</time>
      </trkpt>
      <trkpt lat="48.75215" lon="1.84911">
        <ele>157.2</ele>
        <time>2023-12-20T10:04:50Z</time>
      </trkpt>
      <trkpt lat="48.75219" lon="1.84917">
        <ele>157</ele>
        <time>2023-12-20T10:04:51Z</time>
      </trkpt>
      <trkpt lat="48.75224" lon="1.84922">
        <ele>157</ele>
        <time>2023-12-20T10:04:52Z</time>
      </trkpt>
      <trkpt lat="48.75229" lon="1.84927">
        <ele>157</ele>
        <time>2023-12-20T10:04:53Z</time>
      </trkpt>
      <trkpt lat="48.75233" lon="1.84933">
        <ele>157</ele>
        <time>2023-12-20T10:04:54Z</time>
      </trkpt>
      <trkpt lat="48.75238" lon="1.84938">
        <ele>156.6</ele>
        <time>2023-12-20T10:04:55Z</time>
      </trkpt>
      <trkpt lat="48.75242" lon="1.84942">
        <ele>156.6</ele>
        <time>2023-12-20T10:04:56Z</time>
      </trkpt>
      <trkpt lat="48.75246" lon="1.84947">
        <ele>156.6</ele>
        <time>2023-12-20T10:04:57Z</time>
      </trkpt>
      <trkpt lat="48.75252" lon="1.84951">
        <ele>157.2</ele>
        <time>2023-12-20T10:04:58Z</time>
      </trkpt>
      <trkpt lat="48.75257" lon="1.84955">
        <ele>156.2</ele>
        <time>2023-12-20T10:04:59Z</time>
      </trkpt>
      <trkpt lat="48.75263" lon="1.84959">
        <ele>156.2</ele>
        <time>2023-12-20T10:05:00Z</time>
      </trkpt>
      <trkpt lat="48.75268" lon="1.84962">
        <ele>156.2</ele>
        <time>2023-12-20T10:05:01Z</time>
      </trkpt>
      <trkpt lat="48.75272" lon="1.84966">
        <ele>157</ele>
        <time>2023-12-20T10:05:02Z</time>
      </trkpt>
      <trkpt lat="48.75276" lon="1.84969">
        <ele>156.8</ele>
        <time>2023-12-20T10:05:03Z</time>
      </trkpt>
      <trkpt lat="48.7528" lon="1.84973">
        <ele>156.8</ele>
        <time>2023-12-20T10:05:04Z</time>
      </trkpt>
      <trkpt lat="48.75285" lon="1.84976">
        <ele>156.8</ele>
        <time>2023-12-20T10:05:05Z</time>
      </trkpt>
      <trkpt lat="48.7529" lon="1.8498">
        <ele>156.4</ele>
        <time>2023-12-20T10:05:06Z</time>
      </trkpt>
      <trkpt lat="48.75294" lon="1.84983">
        <ele>156.6</ele>
        <time>2023-12-20T10:05:07Z</time>
      </trkpt>
      <trkpt lat="48.75299" lon="1.84987">
        <ele>156.6</ele>
        <time>2023-12-20T10:05:08Z</time>
      </trkpt>
      <trkpt lat="48.75305" lon="1.8499">
        <ele>156.6</ele>
        <time>2023-12-20T10:05:09Z</time>
      </trkpt>
      <trkpt lat="48.7531" lon="1.84994">
        <ele>156.2</ele>
        <time>2023-12-20T10:05:10Z</time>
      </trkpt>
      <trkpt lat="48.75316" lon="1.84998">
        <ele>156.6</ele>
        <time>2023-12-20T10:05:11Z</time>
      </trkpt>
      <trkpt lat="48.7532" lon="1.85002">
        <ele>156.6</ele>
        <time>2023-12-20T10:05:12Z</time>
      </trkpt>
      <trkpt lat="48.75326" lon="1.85004">
        <ele>156.6</ele>
        <time>2023-12-20T10:05:13Z</time>
      </trkpt>
      <trkpt lat="48.75334" lon="1.85006">
        <ele>156.6</ele>
        <time>2023-12-20T10:05:14Z</time>
      </trkpt>
      <trkpt lat="48.75342" lon="1.85008">
        <ele>156.2</ele>
        <time>2023-12-20T10:05:15Z</time>
      </trkpt>
      <trkpt lat="48.75351" lon="1.85009">
        <ele>156.2</ele>
        <time>2023-12-20T10:05:16Z</time>
      </trkpt>
      <trkpt lat="48.7536" lon="1.85009">
        <ele>156.2</ele>
        <time>2023-12-20T10:05:17Z</time>
      </trkpt>
      <trkpt lat="48.75369" lon="1.8501">
        <ele>156.2</ele>
        <time>2023-12-20T10:05:18Z</time>
      </trkpt>
      <trkpt lat="48.75375" lon="1.85009">
        <ele>156.2</ele>
        <time>2023-12-20T10:05:19Z</time>
      </trkpt>
      <trkpt lat="48.75385" lon="1.85008">
        <ele>156.2</ele>
        <time>2023-12-20T10:05:20Z</time>
      </trkpt>
      <trkpt lat="48.75395" lon="1.85008">
        <ele>156.2</ele>
        <time>2023-12-20T10:05:21Z</time>
      </trkpt>
      <trkpt lat="48.75404" lon="1.85007">
        <ele>155.4</ele>
        <time>2023-12-20T10:05:22Z</time>
      </trkpt>
      <trkpt lat="48.75413" lon="1.85005">
        <ele>156</ele>
        <time>2023-12-20T10:05:23Z</time>
      </trkpt>
      <trkpt lat="48.75423" lon="1.85004">
        <ele>156</ele>
        <time>2023-12-20T10:05:24Z</time>
      </trkpt>
      <trkpt lat="48.75432" lon="1.85002">
        <ele>156</ele>
        <time>2023-12-20T10:05:25Z</time>
      </trkpt>
      <trkpt lat="48.75444" lon="1.85">
        <ele>155.6</ele>
        <time>2023-12-20T10:05:26Z</time>
      </trkpt>
      <trkpt lat="48.75454" lon="1.84998">
        <ele>155</ele>
        <time>2023-12-20T10:05:27Z</time>
      </trkpt>
      <trkpt lat="48.75466" lon="1.84994">
        <ele>155</ele>
        <time>2023-12-20T10:05:28Z</time>
      </trkpt>
      <trkpt lat="48.75478" lon="1.8499">
        <ele>155</ele>
        <time>2023-12-20T10:05:29Z</time>
      </trkpt>
      <trkpt lat="48.75491" lon="1.84985">
        <ele>154.2</ele>
        <time>2023-12-20T10:05:30Z</time>
      </trkpt>
      <trkpt lat="48.75506" lon="1.8498">
        <ele>154.4</ele>
        <time>2023-12-20T10:05:31Z</time>
      </trkpt>
      <trkpt lat="48.75519" lon="1.84975">
        <ele>154.4</ele>
        <time>2023-12-20T10:05:32Z</time>
      </trkpt>
      <trkpt lat="48.75531" lon="1.84971">
        <ele>154.4</ele>
        <time>2023-12-20T10:05:33Z</time>
      </trkpt>
      <trkpt lat="48.7554" lon="1.84966">
        <ele>154.2</ele>
        <time>2023-12-20T10:05:34Z</time>
      </trkpt>
      <trkpt lat="48.75549" lon="1.84961">
        <ele>155.4</ele>
        <time>2023-12-20T10:05:35Z</time>
      </trkpt>
      <trkpt lat="48.75559" lon="1.84958">
        <ele>155.4</ele>
        <time>2023-12-20T10:05:36Z</time>
      </trkpt>
      <trkpt lat="48.75567" lon="1.84956">
        <ele>155.4</ele>
        <time>2023-12-20T10:05:37Z</time>
      </trkpt>
      <trkpt lat="48.75576" lon="1.84957">
        <ele>154.4</ele>
        <time>2023-12-20T10:05:38Z</time>
      </trkpt>
      <trkpt lat="48.75585" lon="1.84958">
        <ele>153.6</ele>
        <time>2023-12-20T10:05:39Z</time>
      </trkpt>
      <trkpt lat="48.75594" lon="1.84961">
        <ele>153.6</ele>
        <time>2023-12-20T10:05:40Z</time>
      </trkpt>
      <trkpt lat="48.75603" lon="1.84964">
        <ele>153.6</ele>
        <time>2023-12-20T10:05:41Z</time>
      </trkpt>
      <trkpt lat="48.7561" lon="1.84967">
        <ele>153.6</ele>
        <time>2023-12-20T10:05:42Z</time>
      </trkpt>
      <trkpt lat="48.75618" lon="1.84972">
        <ele>152.8</ele>
        <time>2023-12-20T10:05:43Z</time>
      </trkpt>
      <trkpt lat="48.75625" lon="1.84977">
        <ele>152.8</ele>
        <time>2023-12-20T10:05:44Z</time>
      </trkpt>
      <trkpt lat="48.75633" lon="1.84983">
        <ele>152.8</ele>
        <time>2023-12-20T10:05:45Z</time>
      </trkpt>
      <trkpt lat="48.7564" lon="1.84988">
        <ele>152.8</ele>
        <time>2023-12-20T10:05:46Z</time>
      </trkpt>
      <trkpt lat="48.75647" lon="1.84993">
        <ele>152.6</ele>
        <time>2023-12-20T10:05:47Z</time>
      </trkpt>
      <trkpt lat="48.75655" lon="1.84998">
        <ele>152.6</ele>
        <time>2023-12-20T10:05:48Z</time>
      </trkpt>
      <trkpt lat="48.75662" lon="1.85004">
        <ele>152.6</ele>
        <time>2023-12-20T10:05:49Z</time>
      </trkpt>
      <trkpt lat="48.75669" lon="1.85009">
        <ele>152.6</ele>
        <time>2023-12-20T10:05:50Z</time>
      </trkpt>
      <trkpt lat="48.75677" lon="1.85014">
        <ele>152.2</ele>
        <time>2023-12-20T10:05:51Z</time>
      </trkpt>
      <trkpt lat="48.75683" lon="1.85018">
        <ele>152.2</ele>
        <time>2023-12-20T10:05:52Z</time>
      </trkpt>
      <trkpt lat="48.75689" lon="1.85021">
        <ele>152.2</ele>
        <time>2023-12-20T10:05:53Z</time>
      </trkpt>
      <trkpt lat="48.75693" lon="1.85025">
        <ele>152.2</ele>
        <time>2023-12-20T10:05:54Z</time>
      </trkpt>
      <trkpt lat="48.75698" lon="1.85027">
        <ele>152.2</ele>
        <time>2023-12-20T10:05:55Z</time>
      </trkpt>
      <trkpt lat="48.75701" lon="1.85029">
        <ele>152.2</ele>
        <time>2023-12-20T10:05:56Z</time>
      </trkpt>
      <trkpt lat="48.75704" lon="1.85032">
        <ele>152.2</ele>
        <time>2023-12-20T10:05:57Z</time>
      </trkpt>
      <trkpt lat="48.75705" lon="1.85036">
        <ele>152.2</ele>
        <time>2023-12-20T10:05:58Z</time>
      </trkpt>
      <trkpt lat="48.75705" lon="1.85042">
        <ele>152.2</ele>
        <time>2023-12-20T10:05:59Z</time>
      </trkpt>
      <trkpt lat="48.75704" lon="1.85046">
        <ele>152.2</ele>
        <time>2023-12-20T10:06:00Z</time>
      </trkpt>
      <trkpt lat="48.75702" lon="1.8505">
        <ele>152.2</ele>
        <time>2023-12-20T10:06:01Z</time>
      </trkpt>
      <trkpt lat="48.75699" lon="1.85053">
        <ele>152.2</ele>
        <time>2023-12-20T10:06:02Z</time>
      </trkpt>
      <trkpt lat="48.75697" lon="1.85056">
        <ele>152.2</ele>
        <time>2023-12-20T10:06:03Z</time>
      </trkpt>
      <trkpt lat="48.75695" lon="1.8506">
        <ele>152.2</ele>
        <time>2023-12-20T10:06:04Z</time>
      </trkpt>
      <trkpt lat="48.75692" lon="1.85063">
        <ele>152.2</ele>
        <time>2023-12-20T10:06:05Z</time>
      </trkpt>
      <trkpt lat="48.7569" lon="1.85066">
        <ele>152</ele>
        <time>2023-12-20T10:06:06Z</time>
      </trkpt>
      <trkpt lat="48.75688" lon="1.8507">
        <ele>152.2</ele>
        <time>2023-12-20T10:06:07Z</time>
      </trkpt>
      <trkpt lat="48.75685" lon="1.85074">
        <ele>152.2</ele>
        <time>2023-12-20T10:06:08Z</time>
      </trkpt>
      <trkpt lat="48.75682" lon="1.85078">
        <ele>152.2</ele>
        <time>2023-12-20T10:06:09Z</time>
      </trkpt>
      <trkpt lat="48.75679" lon="1.85081">
        <ele>151.6</ele>
        <time>2023-12-20T10:06:10Z</time>
      </trkpt>
      <trkpt lat="48.75676" lon="1.85086">
        <ele>152</ele>
        <time>2023-12-20T10:06:11Z</time>
      </trkpt>
      <trkpt lat="48.75672" lon="1.85089">
        <ele>152</ele>
        <time>2023-12-20T10:06:12Z</time>
      </trkpt>
      <trkpt lat="48.7567" lon="1.85091">
        <ele>152</ele>
        <time>2023-12-20T10:06:13Z</time>
      </trkpt>
      <trkpt lat="48.75666" lon="1.85093">
        <ele>152.2</ele>
        <time>2023-12-20T10:06:14Z</time>
      </trkpt>
      <trkpt lat="48.75663" lon="1.85096">
        <ele>152.2</ele>
        <time>2023-12-20T10:06:15Z</time>
      </trkpt>
      <trkpt lat="48.7566" lon="1.85099">
        <ele>152.2</ele>
        <time>2023-12-20T10:06:16Z</time>
      </trkpt>
      <trkpt lat="48.75657" lon="1.85103">
        <ele>152.2</ele>
        <time>2023-12-20T10:06:17Z</time>
      </trkpt>
      <trkpt lat="48.75654" lon="1.85108">
        <ele>151.6</ele>
        <time>2023-12-20T10:06:18Z</time>
      </trkpt>
      <trkpt lat="48.75651" lon="1.85112">
        <ele>151.6</ele>
        <time>2023-12-20T10:06:19Z</time>
      </trkpt>
      <trkpt lat="48.75647" lon="1.85116">
        <ele>151.6</ele>
        <time>2023-12-20T10:06:20Z</time>
      </trkpt>
      <trkpt lat="48.75645" lon="1.8512">
        <ele>151.6</ele>
        <time>2023-12-20T10:06:21Z</time>
      </trkpt>
      <trkpt lat="48.75642" lon="1.85125">
        <ele>151.8</ele>
        <time>2023-12-20T10:06:22Z</time>
      </trkpt>
      <trkpt lat="48.75639" lon="1.85128">
        <ele>152</ele>
        <time>2023-12-20T10:06:23Z</time>
      </trkpt>
      <trkpt lat="48.75637" lon="1.85133">
        <ele>152</ele>
        <time>2023-12-20T10:06:24Z</time>
      </trkpt>
      <trkpt lat="48.75635" lon="1.85139">
        <ele>152</ele>
        <time>2023-12-20T10:06:25Z</time>
      </trkpt>
      <trkpt lat="48.75632" lon="1.85144">
        <ele>152</ele>
        <time>2023-12-20T10:06:26Z</time>
      </trkpt>
      <trkpt lat="48.7563" lon="1.85151">
        <ele>152</ele>
        <time>2023-12-20T10:06:27Z</time>
      </trkpt>
      <trkpt lat="48.75628" lon="1.85156">
        <ele>152</ele>
        <time>2023-12-20T10:06:28Z</time>
      </trkpt>
      <trkpt lat="48.75625" lon="1.85162">
        <ele>152</ele>
        <time>2023-12-20T10:06:29Z</time>
      </trkpt>
      <trkpt lat="48.75623" lon="1.85168">
        <ele>152</ele>
        <time>2023-12-20T10:06:30Z</time>
      </trkpt>
      <trkpt lat="48.7562" lon="1.85174">
        <ele>151.2</ele>
        <time>2023-12-20T10:06:31Z</time>
      </trkpt>
      <trkpt lat="48.75618" lon="1.8518">
        <ele>151.2</ele>
        <time>2023-12-20T10:06:32Z</time>
      </trkpt>
      <trkpt lat="48.75616" lon="1.85187">
        <ele>151.2</ele>
        <time>2023-12-20T10:06:33Z</time>
      </trkpt>
      <trkpt lat="48.75614" lon="1.85193">
        <ele>151.2</ele>
        <time>2023-12-20T10:06:34Z</time>
      </trkpt>
      <trkpt lat="48.75611" lon="1.852">
        <ele>151</ele>
        <time>2023-12-20T10:06:35Z</time>
      </trkpt>
      <trkpt lat="48.75609" lon="1.85206">
        <ele>151</ele>
        <time>2023-12-20T10:06:36Z</time>
      </trkpt>
      <trkpt lat="48.75607" lon="1.85213">
        <ele>151</ele>
        <time>2023-12-20T10:06:37Z</time>
      </trkpt>
      <trkpt lat="48.75605" lon="1.8522">
        <ele>151.2</ele>
        <time>2023-12-20T10:06:38Z</time>
      </trkpt>
      <trkpt lat="48.75603" lon="1.85227">
        <ele>150.8</ele>
        <time>2023-12-20T10:06:39Z</time>
      </trkpt>
      <trkpt lat="48.75602" lon="1.85234">
        <ele>150.8</ele>
        <time>2023-12-20T10:06:40Z</time>
      </trkpt>
      <trkpt lat="48.756" lon="1.8524">
        <ele>150.8</ele>
        <time>2023-12-20T10:06:41Z</time>
      </trkpt>
      <trkpt lat="48.75598" lon="1.85247">
        <ele>150.8</ele>
        <time>2023-12-20T10:06:42Z</time>
      </trkpt>
      <trkpt lat="48.75597" lon="1.85254">
        <ele>150.8</ele>
        <time>2023-12-20T10:06:43Z</time>
      </trkpt>
      <trkpt lat="48.75595" lon="1.85261">
        <ele>150.8</ele>
        <time>2023-12-20T10:06:44Z</time>
      </trkpt>
      <trkpt lat="48.75593" lon="1.85268">
        <ele>150.8</ele>
        <time>2023-12-20T10:06:45Z</time>
      </trkpt>
      <trkpt lat="48.75592" lon="1.85274">
        <ele>150.8</ele>
        <time>2023-12-20T10:06:46Z</time>
      </trkpt>
      <trkpt lat="48.7559" lon="1.85281">
        <ele>150.8</ele>
        <time>2023-12-20T10:06:47Z</time>
      </trkpt>
      <trkpt lat="48.75588" lon="1.85288">
        <ele>150.8</ele>
        <time>2023-12-20T10:06:48Z</time>
      </trkpt>
      <trkpt lat="48.75586" lon="1.85295">
        <ele>150.8</ele>
        <time>2023-12-20T10:06:49Z</time>
      </trkpt>
      <trkpt lat="48.75585" lon="1.85301">
        <ele>150.8</ele>
        <time>2023-12-20T10:06:50Z</time>
      </trkpt>
      <trkpt lat="48.75583" lon="1.85308">
        <ele>150.6</ele>
        <time>2023-12-20T10:06:51Z</time>
      </trkpt>
      <trkpt lat="48.75581" lon="1.85314">
        <ele>150.6</ele>
        <time>2023-12-20T10:06:52Z</time>
      </trkpt>
      <trkpt lat="48.75579" lon="1.85321">
        <ele>150.6</ele>
        <time>2023-12-20T10:06:53Z</time>
      </trkpt>
      <trkpt lat="48.75577" lon="1.85327">
        <ele>150.6</ele>
        <time>2023-12-20T10:06:54Z</time>
      </trkpt>
      <trkpt lat="48.75575" lon="1.85334">
        <ele>150.6</ele>
        <time>2023-12-20T10:06:55Z</time>
      </trkpt>
      <trkpt lat="48.75573" lon="1.8534">
        <ele>150.6</ele>
        <time>2023-12-20T10:06:56Z</time>
      </trkpt>
      <trkpt lat="48.75571" lon="1.85347">
        <ele>150.6</ele>
        <time>2023-12-20T10:06:57Z</time>
      </trkpt>
      <trkpt lat="48.75569" lon="1.85353">
        <ele>150.2</ele>
        <time>2023-12-20T10:06:58Z</time>
      </trkpt>
      <trkpt lat="48.75566" lon="1.8536">
        <ele>150.4</ele>
        <time>2023-12-20T10:06:59Z</time>
      </trkpt>
      <trkpt lat="48.75564" lon="1.85366">
        <ele>150.4</ele>
        <time>2023-12-20T10:07:00Z</time>
      </trkpt>
      <trkpt lat="48.75561" lon="1.85372">
        <ele>150.4</ele>
        <time>2023-12-20T10:07:01Z</time>
      </trkpt>
      <trkpt lat="48.75559" lon="1.85379">
        <ele>149.8</ele>
        <time>2023-12-20T10:07:02Z</time>
      </trkpt>
      <trkpt lat="48.75556" lon="1.85386">
        <ele>150</ele>
        <time>2023-12-20T10:07:03Z</time>
      </trkpt>
      <trkpt lat="48.75553" lon="1.85393">
        <ele>150</ele>
        <time>2023-12-20T10:07:04Z</time>
      </trkpt>
      <trkpt lat="48.7555" lon="1.854">
        <ele>150</ele>
        <time>2023-12-20T10:07:05Z</time>
      </trkpt>
      <trkpt lat="48.75547" lon="1.85407">
        <ele>149.8</ele>
        <time>2023-12-20T10:07:06Z</time>
      </trkpt>
      <trkpt lat="48.75544" lon="1.85414">
        <ele>149.4</ele>
        <time>2023-12-20T10:07:07Z</time>
      </trkpt>
      <trkpt lat="48.75541" lon="1.85422">
        <ele>149.4</ele>
        <time>2023-12-20T10:07:08Z</time>
      </trkpt>
      <trkpt lat="48.75538" lon="1.8543">
        <ele>149.4</ele>
        <time>2023-12-20T10:07:09Z</time>
      </trkpt>
      <trkpt lat="48.75535" lon="1.85438">
        <ele>149</ele>
        <time>2023-12-20T10:07:10Z</time>
      </trkpt>
      <trkpt lat="48.75532" lon="1.85446">
        <ele>149</ele>
        <time>2023-12-20T10:07:11Z</time>
      </trkpt>
      <trkpt lat="48.75529" lon="1.85454">
        <ele>149</ele>
        <time>2023-12-20T10:07:12Z</time>
      </trkpt>
      <trkpt lat="48.75526" lon="1.85462">
        <ele>149</ele>
        <time>2023-12-20T10:07:13Z</time>
      </trkpt>
      <trkpt lat="48.75523" lon="1.8547">
        <ele>149</ele>
        <time>2023-12-20T10:07:14Z</time>
      </trkpt>
      <trkpt lat="48.7552" lon="1.85478">
        <ele>149</ele>
        <time>2023-12-20T10:07:15Z</time>
      </trkpt>
      <trkpt lat="48.75516" lon="1.85486">
        <ele>149</ele>
        <time>2023-12-20T10:07:16Z</time>
      </trkpt>
      <trkpt lat="48.75513" lon="1.85494">
        <ele>149</ele>
        <time>2023-12-20T10:07:17Z</time>
      </trkpt>
      <trkpt lat="48.7551" lon="1.85502">
        <ele>149</ele>
        <time>2023-12-20T10:07:18Z</time>
      </trkpt>
      <trkpt lat="48.75507" lon="1.8551">
        <ele>148.4</ele>
        <time>2023-12-20T10:07:19Z</time>
      </trkpt>
      <trkpt lat="48.75504" lon="1.85518">
        <ele>148.4</ele>
        <time>2023-12-20T10:07:20Z</time>
      </trkpt>
      <trkpt lat="48.755" lon="1.85526">
        <ele>148.4</ele>
        <time>2023-12-20T10:07:21Z</time>
      </trkpt>
      <trkpt lat="48.75498" lon="1.85535">
        <ele>148.4</ele>
        <time>2023-12-20T10:07:22Z</time>
      </trkpt>
      <trkpt lat="48.75494" lon="1.85544">
        <ele>148.2</ele>
        <time>2023-12-20T10:07:23Z</time>
      </trkpt>
      <trkpt lat="48.75491" lon="1.85553">
        <ele>148.2</ele>
        <time>2023-12-20T10:07:24Z</time>
      </trkpt>
      <trkpt lat="48.75487" lon="1.85562">
        <ele>148.2</ele>
        <time>2023-12-20T10:07:25Z</time>
      </trkpt>
      <trkpt lat="48.75484" lon="1.85571">
        <ele>148.2</ele>
        <time>2023-12-20T10:07:26Z</time>
      </trkpt>
      <trkpt lat="48.75479" lon="1.85581">
        <ele>147.4</ele>
        <time>2023-12-20T10:07:27Z</time>
      </trkpt>
      <trkpt lat="48.75475" lon="1.85591">
        <ele>147.4</ele>
        <time>2023-12-20T10:07:28Z</time>
      </trkpt>
      <trkpt lat="48.75471" lon="1.85601">
        <ele>147.4</ele>
        <time>2023-12-20T10:07:29Z</time>
      </trkpt>
      <trkpt lat="48.75467" lon="1.85611">
        <ele>147.4</ele>
        <time>2023-12-20T10:07:30Z</time>
      </trkpt>
      <trkpt lat="48.75463" lon="1.85621">
        <ele>147</ele>
        <time>2023-12-20T10:07:31Z</time>
      </trkpt>
      <trkpt lat="48.75459" lon="1.85631">
        <ele>147</ele>
        <time>2023-12-20T10:07:32Z</time>
      </trkpt>
      <trkpt lat="48.75454" lon="1.85642">
        <ele>147</ele>
        <time>2023-12-20T10:07:33Z</time>
      </trkpt>
      <trkpt lat="48.7545" lon="1.85653">
        <ele>147</ele>
        <time>2023-12-20T10:07:34Z</time>
      </trkpt>
      <trkpt lat="48.75445" lon="1.85664">
        <ele>146.8</ele>
        <time>2023-12-20T10:07:35Z</time>
      </trkpt>
      <trkpt lat="48.7544" lon="1.85675">
        <ele>146.8</ele>
        <time>2023-12-20T10:07:36Z</time>
      </trkpt>
      <trkpt lat="48.75435" lon="1.85686">
        <ele>146.8</ele>
        <time>2023-12-20T10:07:37Z</time>
      </trkpt>
      <trkpt lat="48.75429" lon="1.85697">
        <ele>146.8</ele>
        <time>2023-12-20T10:07:38Z</time>
      </trkpt>
      <trkpt lat="48.75423" lon="1.85708">
        <ele>146.2</ele>
        <time>2023-12-20T10:07:39Z</time>
      </trkpt>
      <trkpt lat="48.75417" lon="1.85718">
        <ele>146.2</ele>
        <time>2023-12-20T10:07:40Z</time>
      </trkpt>
      <trkpt lat="48.7541" lon="1.85728">
        <ele>146.2</ele>
        <time>2023-12-20T10:07:41Z</time>
      </trkpt>
      <trkpt lat="48.75403" lon="1.85739">
        <ele>145.2</ele>
        <time>2023-12-20T10:07:42Z</time>
      </trkpt>
      <trkpt lat="48.75397" lon="1.85749">
        <ele>145.2</ele>
        <time>2023-12-20T10:07:43Z</time>
      </trkpt>
      <trkpt lat="48.7539" lon="1.85759">
        <ele>145.2</ele>
        <time>2023-12-20T10:07:44Z</time>
      </trkpt>
      <trkpt lat="48.75383" lon="1.85769">
        <ele>145.2</ele>
        <time>2023-12-20T10:07:45Z</time>
      </trkpt>
      <trkpt lat="48.75376" lon="1.8578">
        <ele>145.2</ele>
        <time>2023-12-20T10:07:46Z</time>
      </trkpt>
      <trkpt lat="48.75369" lon="1.8579">
        <ele>144.8</ele>
        <time>2023-12-20T10:07:47Z</time>
      </trkpt>
      <trkpt lat="48.75362" lon="1.85801">
        <ele>144.8</ele>
        <time>2023-12-20T10:07:48Z</time>
      </trkpt>
      <trkpt lat="48.75355" lon="1.85812">
        <ele>144.8</ele>
        <time>2023-12-20T10:07:49Z</time>
      </trkpt>
      <trkpt lat="48.75348" lon="1.85822">
        <ele>144.8</ele>
        <time>2023-12-20T10:07:50Z</time>
      </trkpt>
      <trkpt lat="48.75341" lon="1.85833">
        <ele>144.2</ele>
        <time>2023-12-20T10:07:51Z</time>
      </trkpt>
      <trkpt lat="48.75334" lon="1.85844">
        <ele>144.2</ele>
        <time>2023-12-20T10:07:52Z</time>
      </trkpt>
      <trkpt lat="48.75326" lon="1.85855">
        <ele>144.2</ele>
        <time>2023-12-20T10:07:53Z</time>
      </trkpt>
      <trkpt lat="48.7532" lon="1.85866">
        <ele>144.2</ele>
        <time>2023-12-20T10:07:54Z</time>
      </trkpt>
      <trkpt lat="48.75313" lon="1.85876">
        <ele>144</ele>
        <time>2023-12-20T10:07:55Z</time>
      </trkpt>
      <trkpt lat="48.75306" lon="1.85887">
        <ele>144</ele>
        <time>2023-12-20T10:07:56Z</time>
      </trkpt>
      <trkpt lat="48.75299" lon="1.85898">
        <ele>144</ele>
        <time>2023-12-20T10:07:57Z</time>
      </trkpt>
      <trkpt lat="48.75292" lon="1.85908">
        <ele>143.6</ele>
        <time>2023-12-20T10:07:58Z</time>
      </trkpt>
      <trkpt lat="48.75286" lon="1.85919">
        <ele>143.8</ele>
        <time>2023-12-20T10:07:59Z</time>
      </trkpt>
      <trkpt lat="48.7528" lon="1.85929">
        <ele>143.8</ele>
        <time>2023-12-20T10:08:00Z</time>
      </trkpt>
      <trkpt lat="48.75274" lon="1.85939">
        <ele>143.8</ele>
        <time>2023-12-20T10:08:01Z</time>
      </trkpt>
      <trkpt lat="48.7527" lon="1.8595">
        <ele>143.8</ele>
        <time>2023-12-20T10:08:02Z</time>
      </trkpt>
      <trkpt lat="48.75265" lon="1.8596">
        <ele>143.8</ele>
        <time>2023-12-20T10:08:03Z</time>
      </trkpt>
      <trkpt lat="48.75261" lon="1.85971">
        <ele>143.8</ele>
        <time>2023-12-20T10:08:04Z</time>
      </trkpt>
      <trkpt lat="48.75257" lon="1.85981">
        <ele>143.8</ele>
        <time>2023-12-20T10:08:05Z</time>
      </trkpt>
      <trkpt lat="48.75254" lon="1.85992">
        <ele>143.6</ele>
        <time>2023-12-20T10:08:06Z</time>
      </trkpt>
      <trkpt lat="48.7525" lon="1.86002">
        <ele>143.4</ele>
        <time>2023-12-20T10:08:07Z</time>
      </trkpt>
      <trkpt lat="48.75248" lon="1.86012">
        <ele>143.4</ele>
        <time>2023-12-20T10:08:08Z</time>
      </trkpt>
      <trkpt lat="48.75245" lon="1.86023">
        <ele>143.4</ele>
        <time>2023-12-20T10:08:09Z</time>
      </trkpt>
      <trkpt lat="48.75243" lon="1.86032">
        <ele>143.4</ele>
        <time>2023-12-20T10:08:10Z</time>
      </trkpt>
      <trkpt lat="48.75241" lon="1.86041">
        <ele>143.4</ele>
        <time>2023-12-20T10:08:11Z</time>
      </trkpt>
      <trkpt lat="48.7524" lon="1.8605">
        <ele>143.4</ele>
        <time>2023-12-20T10:08:12Z</time>
      </trkpt>
      <trkpt lat="48.75238" lon="1.86059">
        <ele>143.4</ele>
        <time>2023-12-20T10:08:13Z</time>
      </trkpt>
      <trkpt lat="48.75237" lon="1.86068">
        <ele>143.2</ele>
        <time>2023-12-20T10:08:14Z</time>
      </trkpt>
      <trkpt lat="48.75236" lon="1.86077">
        <ele>143.2</ele>
        <time>2023-12-20T10:08:15Z</time>
      </trkpt>
      <trkpt lat="48.75235" lon="1.86086">
        <ele>143.2</ele>
        <time>2023-12-20T10:08:16Z</time>
      </trkpt>
      <trkpt lat="48.75235" lon="1.86095">
        <ele>143.2</ele>
        <time>2023-12-20T10:08:17Z</time>
      </trkpt>
      <trkpt lat="48.75234" lon="1.86104">
        <ele>143.2</ele>
        <time>2023-12-20T10:08:18Z</time>
      </trkpt>
      <trkpt lat="48.75233" lon="1.86113">
        <ele>143.2</ele>
        <time>2023-12-20T10:08:19Z</time>
      </trkpt>
      <trkpt lat="48.75233" lon="1.86122">
        <ele>143.2</ele>
        <time>2023-12-20T10:08:20Z</time>
      </trkpt>
      <trkpt lat="48.75232" lon="1.86131">
        <ele>143.2</ele>
        <time>2023-12-20T10:08:21Z</time>
      </trkpt>
      <trkpt lat="48.75232" lon="1.86141">
        <ele>143.2</ele>
        <time>2023-12-20T10:08:22Z</time>
      </trkpt>
      <trkpt lat="48.75232" lon="1.8615">
        <ele>143.2</ele>
        <time>2023-12-20T10:08:23Z</time>
      </trkpt>
      <trkpt lat="48.75232" lon="1.86159">
        <ele>143.2</ele>
        <time>2023-12-20T10:08:24Z</time>
      </trkpt>
      <trkpt lat="48.75231" lon="1.86168">
        <ele>143.2</ele>
        <time>2023-12-20T10:08:25Z</time>
      </trkpt>
      <trkpt lat="48.75231" lon="1.86177">
        <ele>143.2</ele>
        <time>2023-12-20T10:08:26Z</time>
      </trkpt>
      <trkpt lat="48.75229" lon="1.86185">
        <ele>143.4</ele>
        <time>2023-12-20T10:08:27Z</time>
      </trkpt>
      <trkpt lat="48.75229" lon="1.86194">
        <ele>143.4</ele>
        <time>2023-12-20T10:08:28Z</time>
      </trkpt>
      <trkpt lat="48.75229" lon="1.86202">
        <ele>143.4</ele>
        <time>2023-12-20T10:08:29Z</time>
      </trkpt>
      <trkpt lat="48.75228" lon="1.86209">
        <ele>143.4</ele>
        <time>2023-12-20T10:08:30Z</time>
      </trkpt>
      <trkpt lat="48.75227" lon="1.86217">
        <ele>142.6</ele>
        <time>2023-12-20T10:08:31Z</time>
      </trkpt>
      <trkpt lat="48.75227" lon="1.86224">
        <ele>142.6</ele>
        <time>2023-12-20T10:08:32Z</time>
      </trkpt>
      <trkpt lat="48.75227" lon="1.86232">
        <ele>142.6</ele>
        <time>2023-12-20T10:08:33Z</time>
      </trkpt>
      <trkpt lat="48.75226" lon="1.8624">
        <ele>143</ele>
        <time>2023-12-20T10:08:34Z</time>
      </trkpt>
      <trkpt lat="48.75227" lon="1.86248">
        <ele>143</ele>
        <time>2023-12-20T10:08:35Z</time>
      </trkpt>
      <trkpt lat="48.75227" lon="1.86256">
        <ele>143</ele>
        <time>2023-12-20T10:08:36Z</time>
      </trkpt>
      <trkpt lat="48.75227" lon="1.86263">
        <ele>143</ele>
        <time>2023-12-20T10:08:37Z</time>
      </trkpt>
      <trkpt lat="48.75226" lon="1.86269">
        <ele>143</ele>
        <time>2023-12-20T10:08:38Z</time>
      </trkpt>
      <trkpt lat="48.75226" lon="1.86277">
        <ele>142.8</ele>
        <time>2023-12-20T10:08:39Z</time>
      </trkpt>
      <trkpt lat="48.75226" lon="1.86285">
        <ele>142.8</ele>
        <time>2023-12-20T10:08:40Z</time>
      </trkpt>
      <trkpt lat="48.75227" lon="1.86293">
        <ele>142.8</ele>
        <time>2023-12-20T10:08:41Z</time>
      </trkpt>
      <trkpt lat="48.75227" lon="1.863">
        <ele>142.8</ele>
        <time>2023-12-20T10:08:42Z</time>
      </trkpt>
      <trkpt lat="48.75228" lon="1.86309">
        <ele>143.2</ele>
        <time>2023-12-20T10:08:43Z</time>
      </trkpt>
      <trkpt lat="48.75229" lon="1.86318">
        <ele>143.2</ele>
        <time>2023-12-20T10:08:44Z</time>
      </trkpt>
      <trkpt lat="48.75231" lon="1.86327">
        <ele>143.2</ele>
        <time>2023-12-20T10:08:45Z</time>
      </trkpt>
      <trkpt lat="48.75232" lon="1.86335">
        <ele>143.2</ele>
        <time>2023-12-20T10:08:46Z</time>
      </trkpt>
      <trkpt lat="48.75234" lon="1.86343">
        <ele>143.4</ele>
        <time>2023-12-20T10:08:47Z</time>
      </trkpt>
      <trkpt lat="48.75235" lon="1.8635">
        <ele>143.4</ele>
        <time>2023-12-20T10:08:48Z</time>
      </trkpt>
      <trkpt lat="48.75237" lon="1.86357">
        <ele>143.4</ele>
        <time>2023-12-20T10:08:49Z</time>
      </trkpt>
      <trkpt lat="48.75239" lon="1.86365">
        <ele>143.4</ele>
        <time>2023-12-20T10:08:50Z</time>
      </trkpt>
      <trkpt lat="48.75241" lon="1.86374">
        <ele>143.6</ele>
        <time>2023-12-20T10:08:51Z</time>
      </trkpt>
      <trkpt lat="48.75243" lon="1.86382">
        <ele>143.6</ele>
        <time>2023-12-20T10:08:52Z</time>
      </trkpt>
      <trkpt lat="48.75244" lon="1.86389">
        <ele>143.6</ele>
        <time>2023-12-20T10:08:53Z</time>
      </trkpt>
      <trkpt lat="48.75247" lon="1.86396">
        <ele>143.4</ele>
        <time>2023-12-20T10:08:54Z</time>
      </trkpt>
      <trkpt lat="48.7525" lon="1.86404">
        <ele>142.8</ele>
        <time>2023-12-20T10:08:55Z</time>
      </trkpt>
      <trkpt lat="48.75252" lon="1.86411">
        <ele>142.8</ele>
        <time>2023-12-20T10:08:56Z</time>
      </trkpt>
      <trkpt lat="48.75255" lon="1.86418">
        <ele>142.8</ele>
        <time>2023-12-20T10:08:57Z</time>
      </trkpt>
      <trkpt lat="48.75257" lon="1.86425">
        <ele>143.2</ele>
        <time>2023-12-20T10:08:58Z</time>
      </trkpt>
      <trkpt lat="48.7526" lon="1.86432">
        <ele>143.2</ele>
        <time>2023-12-20T10:08:59Z</time>
      </trkpt>
      <trkpt lat="48.75262" lon="1.86439">
        <ele>143.2</ele>
        <time>2023-12-20T10:09:00Z</time>
      </trkpt>
      <trkpt lat="48.75264" lon="1.86446">
        <ele>143.2</ele>
        <time>2023-12-20T10:09:01Z</time>
      </trkpt>
      <trkpt lat="48.75267" lon="1.86453">
        <ele>143.8</ele>
        <time>2023-12-20T10:09:02Z</time>
      </trkpt>
      <trkpt lat="48.75268" lon="1.86459">
        <ele>143.8</ele>
        <time>2023-12-20T10:09:03Z</time>
      </trkpt>
      <trkpt lat="48.7527" lon="1.86465">
        <ele>143.8</ele>
        <time>2023-12-20T10:09:04Z</time>
      </trkpt>
      <trkpt lat="48.75271" lon="1.86472">
        <ele>143.8</ele>
        <time>2023-12-20T10:09:05Z</time>
      </trkpt>
      <trkpt lat="48.75272" lon="1.86478">
        <ele>143.8</ele>
        <time>2023-12-20T10:09:06Z</time>
      </trkpt>
      <trkpt lat="48.75274" lon="1.86486">
        <ele>144.6</ele>
        <time>2023-12-20T10:09:07Z</time>
      </trkpt>
      <trkpt lat="48.75277" lon="1.86493">
        <ele>144.6</ele>
        <time>2023-12-20T10:09:08Z</time>
      </trkpt>
      <trkpt lat="48.75279" lon="1.865">
        <ele>144.6</ele>
        <time>2023-12-20T10:09:09Z</time>
      </trkpt>
      <trkpt lat="48.7528" lon="1.86506">
        <ele>143.8</ele>
        <time>2023-12-20T10:09:10Z</time>
      </trkpt>
      <trkpt lat="48.75282" lon="1.86512">
        <ele>143.8</ele>
        <time>2023-12-20T10:09:11Z</time>
      </trkpt>
      <trkpt lat="48.75283" lon="1.86519">
        <ele>143.8</ele>
        <time>2023-12-20T10:09:12Z</time>
      </trkpt>
      <trkpt lat="48.75285" lon="1.86527">
        <ele>143.8</ele>
        <time>2023-12-20T10:09:13Z</time>
      </trkpt>
      <trkpt lat="48.75286" lon="1.86534">
        <ele>143.6</ele>
        <time>2023-12-20T10:09:14Z</time>
      </trkpt>
      <trkpt lat="48.75287" lon="1.86542">
        <ele>143.6</ele>
        <time>2023-12-20T10:09:15Z</time>
      </trkpt>
      <trkpt lat="48.75288" lon="1.8655">
        <ele>143.6</ele>
        <time>2023-12-20T10:09:16Z</time>
      </trkpt>
      <trkpt lat="48.75289" lon="1.86557">
        <ele>143.6</ele>
        <time>2023-12-20T10:09:17Z</time>
      </trkpt>
      <trkpt lat="48.75289" lon="1.86565">
        <ele>143.6</ele>
        <time>2023-12-20T10:09:18Z</time>
      </trkpt>
      <trkpt lat="48.7529" lon="1.86572">
        <ele>144</ele>
        <time>2023-12-20T10:09:19Z</time>
      </trkpt>
      <trkpt lat="48.7529" lon="1.8658">
        <ele>144</ele>
        <time>2023-12-20T10:09:20Z</time>
      </trkpt>
      <trkpt lat="48.75291" lon="1.86588">
        <ele>144</ele>
        <time>2023-12-20T10:09:21Z</time>
      </trkpt>
      <trkpt lat="48.75291" lon="1.86595">
        <ele>143.8</ele>
        <time>2023-12-20T10:09:22Z</time>
      </trkpt>
      <trkpt lat="48.75291" lon="1.86603">
        <ele>143.8</ele>
        <time>2023-12-20T10:09:23Z</time>
      </trkpt>
      <trkpt lat="48.75292" lon="1.86611">
        <ele>143.8</ele>
        <time>2023-12-20T10:09:24Z</time>
      </trkpt>
      <trkpt lat="48.75293" lon="1.86619">
        <ele>143.8</ele>
        <time>2023-12-20T10:09:25Z</time>
      </trkpt>
      <trkpt lat="48.75294" lon="1.86628">
        <ele>143.8</ele>
        <time>2023-12-20T10:09:26Z</time>
      </trkpt>
      <trkpt lat="48.75295" lon="1.86637">
        <ele>143.8</ele>
        <time>2023-12-20T10:09:27Z</time>
      </trkpt>
      <trkpt lat="48.75296" lon="1.86646">
        <ele>143.8</ele>
        <time>2023-12-20T10:09:28Z</time>
      </trkpt>
      <trkpt lat="48.75298" lon="1.86656">
        <ele>143.8</ele>
        <time>2023-12-20T10:09:29Z</time>
      </trkpt>
      <trkpt lat="48.75299" lon="1.86666">
        <ele>143.4</ele>
        <time>2023-12-20T10:09:30Z</time>
      </trkpt>
      <trkpt lat="48.753" lon="1.86676">
        <ele>143.6</ele>
        <time>2023-12-20T10:09:31Z</time>
      </trkpt>
      <trkpt lat="48.75302" lon="1.86687">
        <ele>143.6</ele>
        <time>2023-12-20T10:09:32Z</time>
      </trkpt>
      <trkpt lat="48.75303" lon="1.86698">
        <ele>143.6</ele>
        <time>2023-12-20T10:09:33Z</time>
      </trkpt>
      <trkpt lat="48.75304" lon="1.86709">
        <ele>143.6</ele>
        <time>2023-12-20T10:09:34Z</time>
      </trkpt>
      <trkpt lat="48.75305" lon="1.8672">
        <ele>143.4</ele>
        <time>2023-12-20T10:09:35Z</time>
      </trkpt>
      <trkpt lat="48.75306" lon="1.86731">
        <ele>143.4</ele>
        <time>2023-12-20T10:09:36Z</time>
      </trkpt>
      <trkpt lat="48.75308" lon="1.86742">
        <ele>143.4</ele>
        <time>2023-12-20T10:09:37Z</time>
      </trkpt>
      <trkpt lat="48.75309" lon="1.86752">
        <ele>143.4</ele>
        <time>2023-12-20T10:09:38Z</time>
      </trkpt>
      <trkpt lat="48.7531" lon="1.86763">
        <ele>143.2</ele>
        <time>2023-12-20T10:09:39Z</time>
      </trkpt>
      <trkpt lat="48.75312" lon="1.86774">
        <ele>143.2</ele>
        <time>2023-12-20T10:09:40Z</time>
      </trkpt>
      <trkpt lat="48.75313" lon="1.86784">
        <ele>143.2</ele>
        <time>2023-12-20T10:09:41Z</time>
      </trkpt>
      <trkpt lat="48.75314" lon="1.86794">
        <ele>143.2</ele>
        <time>2023-12-20T10:09:42Z</time>
      </trkpt>
      <trkpt lat="48.75316" lon="1.86804">
        <ele>142.8</ele>
        <time>2023-12-20T10:09:43Z</time>
      </trkpt>
      <trkpt lat="48.75317" lon="1.86813">
        <ele>142.8</ele>
        <time>2023-12-20T10:09:44Z</time>
      </trkpt>
      <trkpt lat="48.75319" lon="1.86822">
        <ele>142.8</ele>
        <time>2023-12-20T10:09:45Z</time>
      </trkpt>
      <trkpt lat="48.7532" lon="1.8683">
        <ele>143</ele>
        <time>2023-12-20T10:09:46Z</time>
      </trkpt>
      <trkpt lat="48.75321" lon="1.86838">
        <ele>143.4</ele>
        <time>2023-12-20T10:09:47Z</time>
      </trkpt>
      <trkpt lat="48.75322" lon="1.86846">
        <ele>143.4</ele>
        <time>2023-12-20T10:09:48Z</time>
      </trkpt>
      <trkpt lat="48.75324" lon="1.86853">
        <ele>143.4</ele>
        <time>2023-12-20T10:09:49Z</time>
      </trkpt>
      <trkpt lat="48.75325" lon="1.8686">
        <ele>143.2</ele>
        <time>2023-12-20T10:09:50Z</time>
      </trkpt>
      <trkpt lat="48.75326" lon="1.86868">
        <ele>143.2</ele>
        <time>2023-12-20T10:09:51Z</time>
      </trkpt>
      <trkpt lat="48.75328" lon="1.86875">
        <ele>143.2</ele>
        <time>2023-12-20T10:09:52Z</time>
      </trkpt>
      <trkpt lat="48.75329" lon="1.86882">
        <ele>143.2</ele>
        <time>2023-12-20T10:09:53Z</time>
      </trkpt>
      <trkpt lat="48.75332" lon="1.86889">
        <ele>143.2</ele>
        <time>2023-12-20T10:09:54Z</time>
      </trkpt>
      <trkpt lat="48.75333" lon="1.86896">
        <ele>143</ele>
        <time>2023-12-20T10:09:55Z</time>
      </trkpt>
      <trkpt lat="48.75335" lon="1.86903">
        <ele>143</ele>
        <time>2023-12-20T10:09:56Z</time>
      </trkpt>
      <trkpt lat="48.75337" lon="1.8691">
        <ele>143</ele>
        <time>2023-12-20T10:09:57Z</time>
      </trkpt>
      <trkpt lat="48.75339" lon="1.86917">
        <ele>143</ele>
        <time>2023-12-20T10:09:58Z</time>
      </trkpt>
      <trkpt lat="48.75341" lon="1.86925">
        <ele>143.2</ele>
        <time>2023-12-20T10:09:59Z</time>
      </trkpt>
      <trkpt lat="48.75343" lon="1.86932">
        <ele>143.2</ele>
        <time>2023-12-20T10:10:00Z</time>
      </trkpt>
      <trkpt lat="48.75345" lon="1.8694">
        <ele>143.2</ele>
        <time>2023-12-20T10:10:01Z</time>
      </trkpt>
      <trkpt lat="48.75347" lon="1.86947">
        <ele>143.2</ele>
        <time>2023-12-20T10:10:02Z</time>
      </trkpt>
      <trkpt lat="48.75349" lon="1.86954">
        <ele>143.2</ele>
        <time>2023-12-20T10:10:03Z</time>
      </trkpt>
      <trkpt lat="48.7535" lon="1.86962">
        <ele>143.2</ele>
        <time>2023-12-20T10:10:04Z</time>
      </trkpt>
      <trkpt lat="48.75352" lon="1.86969">
        <ele>143.2</ele>
        <time>2023-12-20T10:10:05Z</time>
      </trkpt>
      <trkpt lat="48.75354" lon="1.86976">
        <ele>143.2</ele>
        <time>2023-12-20T10:10:06Z</time>
      </trkpt>
      <trkpt lat="48.75356" lon="1.86983">
        <ele>143.2</ele>
        <time>2023-12-20T10:10:07Z</time>
      </trkpt>
      <trkpt lat="48.75358" lon="1.86989">
        <ele>143.2</ele>
        <time>2023-12-20T10:10:08Z</time>
      </trkpt>
      <trkpt lat="48.75359" lon="1.86996">
        <ele>143.2</ele>
        <time>2023-12-20T10:10:09Z</time>
      </trkpt>
      <trkpt lat="48.75361" lon="1.87002">
        <ele>143.2</ele>
        <time>2023-12-20T10:10:10Z</time>
      </trkpt>
      <trkpt lat="48.75363" lon="1.87009">
        <ele>143.2</ele>
        <time>2023-12-20T10:10:11Z</time>
      </trkpt>
      <trkpt lat="48.75364" lon="1.87016">
        <ele>143.2</ele>
        <time>2023-12-20T10:10:12Z</time>
      </trkpt>
      <trkpt lat="48.75365" lon="1.87024">
        <ele>143.2</ele>
        <time>2023-12-20T10:10:13Z</time>
      </trkpt>
      <trkpt lat="48.75366" lon="1.87031">
        <ele>143.2</ele>
        <time>2023-12-20T10:10:14Z</time>
      </trkpt>
      <trkpt lat="48.75368" lon="1.87038">
        <ele>142.8</ele>
        <time>2023-12-20T10:10:15Z</time>
      </trkpt>
      <trkpt lat="48.7537" lon="1.87045">
        <ele>142.8</ele>
        <time>2023-12-20T10:10:16Z</time>
      </trkpt>
      <trkpt lat="48.75371" lon="1.87053">
        <ele>142.8</ele>
        <time>2023-12-20T10:10:17Z</time>
      </trkpt>
      <trkpt lat="48.75373" lon="1.87061">
        <ele>142.8</ele>
        <time>2023-12-20T10:10:18Z</time>
      </trkpt>
      <trkpt lat="48.75375" lon="1.87069">
        <ele>143.2</ele>
        <time>2023-12-20T10:10:19Z</time>
      </trkpt>
      <trkpt lat="48.75376" lon="1.87078">
        <ele>143.2</ele>
        <time>2023-12-20T10:10:20Z</time>
      </trkpt>
      <trkpt lat="48.75378" lon="1.87087">
        <ele>143.2</ele>
        <time>2023-12-20T10:10:21Z</time>
      </trkpt>
      <trkpt lat="48.75379" lon="1.87096">
        <ele>142.2</ele>
        <time>2023-12-20T10:10:22Z</time>
      </trkpt>
      <trkpt lat="48.7538" lon="1.87105">
        <ele>143.2</ele>
        <time>2023-12-20T10:10:23Z</time>
      </trkpt>
      <trkpt lat="48.7538" lon="1.87115">
        <ele>143.2</ele>
        <time>2023-12-20T10:10:24Z</time>
      </trkpt>
      <trkpt lat="48.75381" lon="1.87124">
        <ele>143.2</ele>
        <time>2023-12-20T10:10:25Z</time>
      </trkpt>
      <trkpt lat="48.75381" lon="1.87134">
        <ele>142.8</ele>
        <time>2023-12-20T10:10:26Z</time>
      </trkpt>
      <trkpt lat="48.75382" lon="1.87143">
        <ele>143</ele>
        <time>2023-12-20T10:10:27Z</time>
      </trkpt>
      <trkpt lat="48.75382" lon="1.87153">
        <ele>143</ele>
        <time>2023-12-20T10:10:28Z</time>
      </trkpt>
      <trkpt lat="48.75383" lon="1.87162">
        <ele>143</ele>
        <time>2023-12-20T10:10:29Z</time>
      </trkpt>
      <trkpt lat="48.75384" lon="1.87172">
        <ele>143</ele>
        <time>2023-12-20T10:10:30Z</time>
      </trkpt>
      <trkpt lat="48.75385" lon="1.87182">
        <ele>143</ele>
        <time>2023-12-20T10:10:31Z</time>
      </trkpt>
      <trkpt lat="48.75386" lon="1.87192">
        <ele>143</ele>
        <time>2023-12-20T10:10:32Z</time>
      </trkpt>
      <trkpt lat="48.75386" lon="1.87202">
        <ele>143</ele>
        <time>2023-12-20T10:10:33Z</time>
      </trkpt>
      <trkpt lat="48.75387" lon="1.87212">
        <ele>143</ele>
        <time>2023-12-20T10:10:34Z</time>
      </trkpt>
      <trkpt lat="48.75387" lon="1.87221">
        <ele>143</ele>
        <time>2023-12-20T10:10:35Z</time>
      </trkpt>
      <trkpt lat="48.75387" lon="1.87231">
        <ele>143</ele>
        <time>2023-12-20T10:10:36Z</time>
      </trkpt>
      <trkpt lat="48.75388" lon="1.87241">
        <ele>143</ele>
        <time>2023-12-20T10:10:37Z</time>
      </trkpt>
      <trkpt lat="48.7539" lon="1.87251">
        <ele>142.2</ele>
        <time>2023-12-20T10:10:38Z</time>
      </trkpt>
      <trkpt lat="48.75391" lon="1.87261">
        <ele>142.6</ele>
        <time>2023-12-20T10:10:39Z</time>
      </trkpt>
      <trkpt lat="48.75393" lon="1.87271">
        <ele>142.6</ele>
        <time>2023-12-20T10:10:40Z</time>
      </trkpt>
      <trkpt lat="48.75394" lon="1.87282">
        <ele>142.6</ele>
        <time>2023-12-20T10:10:41Z</time>
      </trkpt>
      <trkpt lat="48.75396" lon="1.87293">
        <ele>142.6</ele>
        <time>2023-12-20T10:10:42Z</time>
      </trkpt>
      <trkpt lat="48.75398" lon="1.87304">
        <ele>142.4</ele>
        <time>2023-12-20T10:10:43Z</time>
      </trkpt>
      <trkpt lat="48.754" lon="1.87315">
        <ele>142.4</ele>
        <time>2023-12-20T10:10:44Z</time>
      </trkpt>
      <trkpt lat="48.75402" lon="1.87326">
        <ele>142.4</ele>
        <time>2023-12-20T10:10:45Z</time>
      </trkpt>
      <trkpt lat="48.75404" lon="1.87338">
        <ele>142.4</ele>
        <time>2023-12-20T10:10:46Z</time>
      </trkpt>
      <trkpt lat="48.75405" lon="1.8735">
        <ele>142.2</ele>
        <time>2023-12-20T10:10:47Z</time>
      </trkpt>
      <trkpt lat="48.75408" lon="1.87361">
        <ele>142.2</ele>
        <time>2023-12-20T10:10:48Z</time>
      </trkpt>
      <trkpt lat="48.75409" lon="1.87373">
        <ele>142.2</ele>
        <time>2023-12-20T10:10:49Z</time>
      </trkpt>
      <trkpt lat="48.75411" lon="1.87385">
        <ele>142.2</ele>
        <time>2023-12-20T10:10:50Z</time>
      </trkpt>
      <trkpt lat="48.75413" lon="1.87397">
        <ele>142.2</ele>
        <time>2023-12-20T10:10:51Z</time>
      </trkpt>
      <trkpt lat="48.75415" lon="1.87409">
        <ele>142.2</ele>
        <time>2023-12-20T10:10:52Z</time>
      </trkpt>
      <trkpt lat="48.75417" lon="1.87421">
        <ele>142.2</ele>
        <time>2023-12-20T10:10:53Z</time>
      </trkpt>
      <trkpt lat="48.7542" lon="1.87432">
        <ele>142.2</ele>
        <time>2023-12-20T10:10:54Z</time>
      </trkpt>
      <trkpt lat="48.75422" lon="1.87444">
        <ele>142.6</ele>
        <time>2023-12-20T10:10:55Z</time>
      </trkpt>
      <trkpt lat="48.75424" lon="1.87455">
        <ele>142.6</ele>
        <time>2023-12-20T10:10:56Z</time>
      </trkpt>
      <trkpt lat="48.75427" lon="1.87466">
        <ele>142.6</ele>
        <time>2023-12-20T10:10:57Z</time>
      </trkpt>
      <trkpt lat="48.75429" lon="1.87477">
        <ele>142.2</ele>
        <time>2023-12-20T10:10:58Z</time>
      </trkpt>
      <trkpt lat="48.75431" lon="1.87488">
        <ele>142</ele>
        <time>2023-12-20T10:10:59Z</time>
      </trkpt>
      <trkpt lat="48.75433" lon="1.87498">
        <ele>142</ele>
        <time>2023-12-20T10:11:00Z</time>
      </trkpt>
      <trkpt lat="48.75437" lon="1.87506">
        <ele>142</ele>
        <time>2023-12-20T10:11:01Z</time>
      </trkpt>
      <trkpt lat="48.75441" lon="1.87514">
        <ele>142</ele>
        <time>2023-12-20T10:11:02Z</time>
      </trkpt>
      <trkpt lat="48.75444" lon="1.87521">
        <ele>142.6</ele>
        <time>2023-12-20T10:11:03Z</time>
      </trkpt>
      <trkpt lat="48.75448" lon="1.87528">
        <ele>142.6</ele>
        <time>2023-12-20T10:11:04Z</time>
      </trkpt>
      <trkpt lat="48.75451" lon="1.87535">
        <ele>142.6</ele>
        <time>2023-12-20T10:11:05Z</time>
      </trkpt>
      <trkpt lat="48.75454" lon="1.87542">
        <ele>142.6</ele>
        <time>2023-12-20T10:11:06Z</time>
      </trkpt>
      <trkpt lat="48.75457" lon="1.87548">
        <ele>142.6</ele>
        <time>2023-12-20T10:11:07Z</time>
      </trkpt>
      <trkpt lat="48.75461" lon="1.87553">
        <ele>142.6</ele>
        <time>2023-12-20T10:11:08Z</time>
      </trkpt>
      <trkpt lat="48.75464" lon="1.87559">
        <ele>142.6</ele>
        <time>2023-12-20T10:11:09Z</time>
      </trkpt>
      <trkpt lat="48.75467" lon="1.87564">
        <ele>142.6</ele>
        <time>2023-12-20T10:11:10Z</time>
      </trkpt>
      <trkpt lat="48.75469" lon="1.87568">
        <ele>142.6</ele>
        <time>2023-12-20T10:11:11Z</time>
      </trkpt>
      <trkpt lat="48.75473" lon="1.87573">
        <ele>142.6</ele>
        <time>2023-12-20T10:11:12Z</time>
      </trkpt>
      <trkpt lat="48.75478" lon="1.87577">
        <ele>142.6</ele>
        <time>2023-12-20T10:11:13Z</time>
      </trkpt>
      <trkpt lat="48.75483" lon="1.8758">
        <ele>142.8</ele>
        <time>2023-12-20T10:11:14Z</time>
      </trkpt>
      <trkpt lat="48.75489" lon="1.87584">
        <ele>142.6</ele>
        <time>2023-12-20T10:11:15Z</time>
      </trkpt>
      <trkpt lat="48.75493" lon="1.87588">
        <ele>142.6</ele>
        <time>2023-12-20T10:11:16Z</time>
      </trkpt>
      <trkpt lat="48.75498" lon="1.87591">
        <ele>142.6</ele>
        <time>2023-12-20T10:11:17Z</time>
      </trkpt>
      <trkpt lat="48.75502" lon="1.87595">
        <ele>143</ele>
        <time>2023-12-20T10:11:18Z</time>
      </trkpt>
      <trkpt lat="48.75507" lon="1.87597">
        <ele>142.8</ele>
        <time>2023-12-20T10:11:19Z</time>
      </trkpt>
      <trkpt lat="48.75513" lon="1.87601">
        <ele>142.8</ele>
        <time>2023-12-20T10:11:20Z</time>
      </trkpt>
      <trkpt lat="48.75518" lon="1.87604">
        <ele>142.8</ele>
        <time>2023-12-20T10:11:21Z</time>
      </trkpt>
      <trkpt lat="48.75523" lon="1.87607">
        <ele>143</ele>
        <time>2023-12-20T10:11:22Z</time>
      </trkpt>
      <trkpt lat="48.75529" lon="1.8761">
        <ele>143.2</ele>
        <time>2023-12-20T10:11:23Z</time>
      </trkpt>
      <trkpt lat="48.75533" lon="1.87611">
        <ele>143.2</ele>
        <time>2023-12-20T10:11:24Z</time>
      </trkpt>
      <trkpt lat="48.75538" lon="1.87614">
        <ele>143.2</ele>
        <time>2023-12-20T10:11:25Z</time>
      </trkpt>
      <trkpt lat="48.75543" lon="1.87618">
        <ele>143</ele>
        <time>2023-12-20T10:11:26Z</time>
      </trkpt>
      <trkpt lat="48.75547" lon="1.87621">
        <ele>142.8</ele>
        <time>2023-12-20T10:11:27Z</time>
      </trkpt>
      <trkpt lat="48.75552" lon="1.87623">
        <ele>142.8</ele>
        <time>2023-12-20T10:11:28Z</time>
      </trkpt>
      <trkpt lat="48.75557" lon="1.87626">
        <ele>142.8</ele>
        <time>2023-12-20T10:11:29Z</time>
      </trkpt>
      <trkpt lat="48.75563" lon="1.87628">
        <ele>142.8</ele>
        <time>2023-12-20T10:11:30Z</time>
      </trkpt>
      <trkpt lat="48.75569" lon="1.87631">
        <ele>143.2</ele>
        <time>2023-12-20T10:11:31Z</time>
      </trkpt>
      <trkpt lat="48.75575" lon="1.87634">
        <ele>143.2</ele>
        <time>2023-12-20T10:11:32Z</time>
      </trkpt>
      <trkpt lat="48.75581" lon="1.87637">
        <ele>143.2</ele>
        <time>2023-12-20T10:11:33Z</time>
      </trkpt>
      <trkpt lat="48.75588" lon="1.87641">
        <ele>142.8</ele>
        <time>2023-12-20T10:11:34Z</time>
      </trkpt>
      <trkpt lat="48.75593" lon="1.87645">
        <ele>142.8</ele>
        <time>2023-12-20T10:11:35Z</time>
      </trkpt>
      <trkpt lat="48.756" lon="1.87649">
        <ele>142.8</ele>
        <time>2023-12-20T10:11:36Z</time>
      </trkpt>
      <trkpt lat="48.75606" lon="1.87653">
        <ele>142.8</ele>
        <time>2023-12-20T10:11:37Z</time>
      </trkpt>
      <trkpt lat="48.75612" lon="1.87658">
        <ele>142.8</ele>
        <time>2023-12-20T10:11:38Z</time>
      </trkpt>
      <trkpt lat="48.75619" lon="1.87663">
        <ele>142.8</ele>
        <time>2023-12-20T10:11:39Z</time>
      </trkpt>
      <trkpt lat="48.75625" lon="1.87668">
        <ele>142.8</ele>
        <time>2023-12-20T10:11:40Z</time>
      </trkpt>
      <trkpt lat="48.75632" lon="1.87673">
        <ele>142.8</ele>
        <time>2023-12-20T10:11:41Z</time>
      </trkpt>
      <trkpt lat="48.75639" lon="1.87678">
        <ele>142.8</ele>
        <time>2023-12-20T10:11:42Z</time>
      </trkpt>
      <trkpt lat="48.75647" lon="1.87685">
        <ele>142.8</ele>
        <time>2023-12-20T10:11:43Z</time>
      </trkpt>
      <trkpt lat="48.75654" lon="1.8769">
        <ele>142.8</ele>
        <time>2023-12-20T10:11:44Z</time>
      </trkpt>
      <trkpt lat="48.75661" lon="1.87695">
        <ele>142.8</ele>
        <time>2023-12-20T10:11:45Z</time>
      </trkpt>
      <trkpt lat="48.75668" lon="1.877">
        <ele>142.8</ele>
        <time>2023-12-20T10:11:46Z</time>
      </trkpt>
      <trkpt lat="48.75675" lon="1.87705">
        <ele>143.2</ele>
        <time>2023-12-20T10:11:47Z</time>
      </trkpt>
      <trkpt lat="48.75682" lon="1.8771">
        <ele>143.2</ele>
        <time>2023-12-20T10:11:48Z</time>
      </trkpt>
      <trkpt lat="48.75689" lon="1.87716">
        <ele>143.2</ele>
        <time>2023-12-20T10:11:49Z</time>
      </trkpt>
      <trkpt lat="48.75696" lon="1.87721">
        <ele>143.2</ele>
        <time>2023-12-20T10:11:50Z</time>
      </trkpt>
      <trkpt lat="48.75702" lon="1.87726">
        <ele>142.8</ele>
        <time>2023-12-20T10:11:51Z</time>
      </trkpt>
      <trkpt lat="48.75709" lon="1.87731">
        <ele>142.8</ele>
        <time>2023-12-20T10:11:52Z</time>
      </trkpt>
      <trkpt lat="48.75715" lon="1.87737">
        <ele>142.8</ele>
        <time>2023-12-20T10:11:53Z</time>
      </trkpt>
      <trkpt lat="48.75721" lon="1.87743">
        <ele>142.8</ele>
        <time>2023-12-20T10:11:54Z</time>
      </trkpt>
      <trkpt lat="48.75727" lon="1.8775">
        <ele>143</ele>
        <time>2023-12-20T10:11:55Z</time>
      </trkpt>
      <trkpt lat="48.75732" lon="1.87758">
        <ele>143</ele>
        <time>2023-12-20T10:11:56Z</time>
      </trkpt>
      <trkpt lat="48.75737" lon="1.87766">
        <ele>143</ele>
        <time>2023-12-20T10:11:57Z</time>
      </trkpt>
      <trkpt lat="48.75742" lon="1.87774">
        <ele>143</ele>
        <time>2023-12-20T10:11:58Z</time>
      </trkpt>
      <trkpt lat="48.75746" lon="1.87782">
        <ele>142.8</ele>
        <time>2023-12-20T10:11:59Z</time>
      </trkpt>
      <trkpt lat="48.7575" lon="1.87791">
        <ele>142.8</ele>
        <time>2023-12-20T10:12:00Z</time>
      </trkpt>
      <trkpt lat="48.75753" lon="1.87799">
        <ele>142.8</ele>
        <time>2023-12-20T10:12:01Z</time>
      </trkpt>
      <trkpt lat="48.75756" lon="1.87807">
        <ele>143</ele>
        <time>2023-12-20T10:12:02Z</time>
      </trkpt>
      <trkpt lat="48.75759" lon="1.87816">
        <ele>142.8</ele>
        <time>2023-12-20T10:12:03Z</time>
      </trkpt>
      <trkpt lat="48.75762" lon="1.87824">
        <ele>142.8</ele>
        <time>2023-12-20T10:12:04Z</time>
      </trkpt>
      <trkpt lat="48.75764" lon="1.87833">
        <ele>142.8</ele>
        <time>2023-12-20T10:12:05Z</time>
      </trkpt>
      <trkpt lat="48.75767" lon="1.87842">
        <ele>143.2</ele>
        <time>2023-12-20T10:12:06Z</time>
      </trkpt>
      <trkpt lat="48.7577" lon="1.87851">
        <ele>143.2</ele>
        <time>2023-12-20T10:12:07Z</time>
      </trkpt>
      <trkpt lat="48.75772" lon="1.8786">
        <ele>143.2</ele>
        <time>2023-12-20T10:12:08Z</time>
      </trkpt>
      <trkpt lat="48.75774" lon="1.87869">
        <ele>143.2</ele>
        <time>2023-12-20T10:12:09Z</time>
      </trkpt>
      <trkpt lat="48.75775" lon="1.87877">
        <ele>143.2</ele>
        <time>2023-12-20T10:12:10Z</time>
      </trkpt>
      <trkpt lat="48.75776" lon="1.87886">
        <ele>143.2</ele>
        <time>2023-12-20T10:12:11Z</time>
      </trkpt>
      <trkpt lat="48.75777" lon="1.87895">
        <ele>143.2</ele>
        <time>2023-12-20T10:12:12Z</time>
      </trkpt>
      <trkpt lat="48.75778" lon="1.87904">
        <ele>143.2</ele>
        <time>2023-12-20T10:12:13Z</time>
      </trkpt>
      <trkpt lat="48.75779" lon="1.87912">
        <ele>143.4</ele>
        <time>2023-12-20T10:12:14Z</time>
      </trkpt>
      <trkpt lat="48.7578" lon="1.8792">
        <ele>143.2</ele>
        <time>2023-12-20T10:12:15Z</time>
      </trkpt>
      <trkpt lat="48.75781" lon="1.87928">
        <ele>143.2</ele>
        <time>2023-12-20T10:12:16Z</time>
      </trkpt>
      <trkpt lat="48.75781" lon="1.87935">
        <ele>143.2</ele>
        <time>2023-12-20T10:12:17Z</time>
      </trkpt>
      <trkpt lat="48.75782" lon="1.87943">
        <ele>143.2</ele>
        <time>2023-12-20T10:12:18Z</time>
      </trkpt>
      <trkpt lat="48.75783" lon="1.87951">
        <ele>143</ele>
        <time>2023-12-20T10:12:19Z</time>
      </trkpt>
      <trkpt lat="48.75784" lon="1.8796">
        <ele>143</ele>
        <time>2023-12-20T10:12:20Z</time>
      </trkpt>
      <trkpt lat="48.75785" lon="1.87969">
        <ele>143</ele>
        <time>2023-12-20T10:12:21Z</time>
      </trkpt>
      <trkpt lat="48.75786" lon="1.87978">
        <ele>144</ele>
        <time>2023-12-20T10:12:22Z</time>
      </trkpt>
      <trkpt lat="48.75787" lon="1.87987">
        <ele>143</ele>
        <time>2023-12-20T10:12:23Z</time>
      </trkpt>
      <trkpt lat="48.75788" lon="1.87997">
        <ele>143</ele>
        <time>2023-12-20T10:12:24Z</time>
      </trkpt>
      <trkpt lat="48.7579" lon="1.88006">
        <ele>143</ele>
        <time>2023-12-20T10:12:25Z</time>
      </trkpt>
      <trkpt lat="48.75791" lon="1.88016">
        <ele>143</ele>
        <time>2023-12-20T10:12:26Z</time>
      </trkpt>
      <trkpt lat="48.75792" lon="1.88026">
        <ele>143.2</ele>
        <time>2023-12-20T10:12:27Z</time>
      </trkpt>
      <trkpt lat="48.75794" lon="1.88036">
        <ele>143.2</ele>
        <time>2023-12-20T10:12:28Z</time>
      </trkpt>
      <trkpt lat="48.75796" lon="1.88047">
        <ele>143.2</ele>
        <time>2023-12-20T10:12:29Z</time>
      </trkpt>
      <trkpt lat="48.75798" lon="1.88057">
        <ele>143.2</ele>
        <time>2023-12-20T10:12:30Z</time>
      </trkpt>
      <trkpt lat="48.75801" lon="1.88067">
        <ele>143.2</ele>
        <time>2023-12-20T10:12:31Z</time>
      </trkpt>
      <trkpt lat="48.75805" lon="1.88076">
        <ele>143.2</ele>
        <time>2023-12-20T10:12:32Z</time>
      </trkpt>
      <trkpt lat="48.75808" lon="1.88086">
        <ele>143.2</ele>
        <time>2023-12-20T10:12:33Z</time>
      </trkpt>
      <trkpt lat="48.75812" lon="1.88096">
        <ele>143.2</ele>
        <time>2023-12-20T10:12:34Z</time>
      </trkpt>
      <trkpt lat="48.75816" lon="1.88105">
        <ele>142.8</ele>
        <time>2023-12-20T10:12:35Z</time>
      </trkpt>
      <trkpt lat="48.7582" lon="1.88113">
        <ele>142.8</ele>
        <time>2023-12-20T10:12:36Z</time>
      </trkpt>
      <trkpt lat="48.75826" lon="1.88121">
        <ele>142.8</ele>
        <time>2023-12-20T10:12:37Z</time>
      </trkpt>
      <trkpt lat="48.75832" lon="1.88128">
        <ele>142.8</ele>
        <time>2023-12-20T10:12:38Z</time>
      </trkpt>
      <trkpt lat="48.75837" lon="1.88136">
        <ele>142.8</ele>
        <time>2023-12-20T10:12:39Z</time>
      </trkpt>
      <trkpt lat="48.75843" lon="1.88144">
        <ele>142.8</ele>
        <time>2023-12-20T10:12:40Z</time>
      </trkpt>
      <trkpt lat="48.75848" lon="1.88152">
        <ele>142.8</ele>
        <time>2023-12-20T10:12:41Z</time>
      </trkpt>
      <trkpt lat="48.75854" lon="1.8816">
        <ele>142.8</ele>
        <time>2023-12-20T10:12:42Z</time>
      </trkpt>
      <trkpt lat="48.7586" lon="1.88168">
        <ele>143</ele>
        <time>2023-12-20T10:12:43Z</time>
      </trkpt>
      <trkpt lat="48.75866" lon="1.88176">
        <ele>143</ele>
        <time>2023-12-20T10:12:44Z</time>
      </trkpt>
      <trkpt lat="48.75872" lon="1.88185">
        <ele>143</ele>
        <time>2023-12-20T10:12:45Z</time>
      </trkpt>
      <trkpt lat="48.75879" lon="1.88194">
        <ele>143</ele>
        <time>2023-12-20T10:12:46Z</time>
      </trkpt>
      <trkpt lat="48.75885" lon="1.88202">
        <ele>142.8</ele>
        <time>2023-12-20T10:12:47Z</time>
      </trkpt>
      <trkpt lat="48.75892" lon="1.88211">
        <ele>142.8</ele>
        <time>2023-12-20T10:12:48Z</time>
      </trkpt>
      <trkpt lat="48.75898" lon="1.8822">
        <ele>142.8</ele>
        <time>2023-12-20T10:12:49Z</time>
      </trkpt>
      <trkpt lat="48.75904" lon="1.88228">
        <ele>142</ele>
        <time>2023-12-20T10:12:50Z</time>
      </trkpt>
      <trkpt lat="48.75911" lon="1.88237">
        <ele>142.8</ele>
        <time>2023-12-20T10:12:51Z</time>
      </trkpt>
      <trkpt lat="48.75917" lon="1.88246">
        <ele>142.8</ele>
        <time>2023-12-20T10:12:52Z</time>
      </trkpt>
      <trkpt lat="48.75923" lon="1.88254">
        <ele>142.8</ele>
        <time>2023-12-20T10:12:53Z</time>
      </trkpt>
      <trkpt lat="48.7593" lon="1.88263">
        <ele>142.8</ele>
        <time>2023-12-20T10:12:54Z</time>
      </trkpt>
      <trkpt lat="48.75936" lon="1.88271">
        <ele>142.8</ele>
        <time>2023-12-20T10:12:55Z</time>
      </trkpt>
      <trkpt lat="48.75942" lon="1.8828">
        <ele>142.8</ele>
        <time>2023-12-20T10:12:56Z</time>
      </trkpt>
      <trkpt lat="48.75948" lon="1.88288">
        <ele>142.8</ele>
        <time>2023-12-20T10:12:57Z</time>
      </trkpt>
      <trkpt lat="48.75954" lon="1.88296">
        <ele>142.8</ele>
        <time>2023-12-20T10:12:58Z</time>
      </trkpt>
      <trkpt lat="48.7596" lon="1.88304">
        <ele>143</ele>
        <time>2023-12-20T10:12:59Z</time>
      </trkpt>
      <trkpt lat="48.75966" lon="1.88312">
        <ele>143</ele>
        <time>2023-12-20T10:13:00Z</time>
      </trkpt>
      <trkpt lat="48.75972" lon="1.8832">
        <ele>143</ele>
        <time>2023-12-20T10:13:01Z</time>
      </trkpt>
      <trkpt lat="48.75977" lon="1.88329">
        <ele>142.8</ele>
        <time>2023-12-20T10:13:02Z</time>
      </trkpt>
      <trkpt lat="48.75983" lon="1.88337">
        <ele>142.6</ele>
        <time>2023-12-20T10:13:03Z</time>
      </trkpt>
      <trkpt lat="48.75989" lon="1.88345">
        <ele>142.6</ele>
        <time>2023-12-20T10:13:04Z</time>
      </trkpt>
      <trkpt lat="48.75994" lon="1.88352">
        <ele>142.6</ele>
        <time>2023-12-20T10:13:05Z</time>
      </trkpt>
      <trkpt lat="48.76" lon="1.8836">
        <ele>142.6</ele>
        <time>2023-12-20T10:13:06Z</time>
      </trkpt>
      <trkpt lat="48.76005" lon="1.88368">
        <ele>142.8</ele>
        <time>2023-12-20T10:13:07Z</time>
      </trkpt>
      <trkpt lat="48.76011" lon="1.88375">
        <ele>142.8</ele>
        <time>2023-12-20T10:13:08Z</time>
      </trkpt>
      <trkpt lat="48.76016" lon="1.88383">
        <ele>142.8</ele>
        <time>2023-12-20T10:13:09Z</time>
      </trkpt>
      <trkpt lat="48.76022" lon="1.8839">
        <ele>142.8</ele>
        <time>2023-12-20T10:13:10Z</time>
      </trkpt>
      <trkpt lat="48.76027" lon="1.88398">
        <ele>142.4</ele>
        <time>2023-12-20T10:13:11Z</time>
      </trkpt>
      <trkpt lat="48.76033" lon="1.88405">
        <ele>142.4</ele>
        <time>2023-12-20T10:13:12Z</time>
      </trkpt>
      <trkpt lat="48.76037" lon="1.88412">
        <ele>142.4</ele>
        <time>2023-12-20T10:13:13Z</time>
      </trkpt>
      <trkpt lat="48.76041" lon="1.88417">
        <ele>142.8</ele>
        <time>2023-12-20T10:13:14Z</time>
      </trkpt>
      <trkpt lat="48.76043" lon="1.88423">
        <ele>142.8</ele>
        <time>2023-12-20T10:13:15Z</time>
      </trkpt>
      <trkpt lat="48.76043" lon="1.88428">
        <ele>142.8</ele>
        <time>2023-12-20T10:13:16Z</time>
      </trkpt>
      <trkpt lat="48.76044" lon="1.88431">
        <ele>142.8</ele>
        <time>2023-12-20T10:13:17Z</time>
      </trkpt>
      <trkpt lat="48.76045" lon="1.88433">
        <ele>142.8</ele>
        <time>2023-12-20T10:13:18Z</time>
      </trkpt>
      <trkpt lat="48.76046" lon="1.88436">
        <ele>142.8</ele>
        <time>2023-12-20T10:13:19Z</time>
      </trkpt>
      <trkpt lat="48.76047" lon="1.88439">
        <ele>142.8</ele>
        <time>2023-12-20T10:13:20Z</time>
      </trkpt>
      <trkpt lat="48.76049" lon="1.88442">
        <ele>142.8</ele>
        <time>2023-12-20T10:13:21Z</time>
      </trkpt>
      <trkpt lat="48.76052" lon="1.88445">
        <ele>142.4</ele>
        <time>2023-12-20T10:13:22Z</time>
      </trkpt>
      <trkpt lat="48.76057" lon="1.88446">
        <ele>142.8</ele>
        <time>2023-12-20T10:13:23Z</time>
      </trkpt>
      <trkpt lat="48.76061" lon="1.88447">
        <ele>142.8</ele>
        <time>2023-12-20T10:13:24Z</time>
      </trkpt>
      <trkpt lat="48.76066" lon="1.88447">
        <ele>142.8</ele>
        <time>2023-12-20T10:13:25Z</time>
      </trkpt>
      <trkpt lat="48.76072" lon="1.88448">
        <ele>142.8</ele>
        <time>2023-12-20T10:13:26Z</time>
      </trkpt>
      <trkpt lat="48.76078" lon="1.8845">
        <ele>142.4</ele>
        <time>2023-12-20T10:13:27Z</time>
      </trkpt>
      <trkpt lat="48.76085" lon="1.88451">
        <ele>142.4</ele>
        <time>2023-12-20T10:13:28Z</time>
      </trkpt>
      <trkpt lat="48.76092" lon="1.88454">
        <ele>142.4</ele>
        <time>2023-12-20T10:13:29Z</time>
      </trkpt>
      <trkpt lat="48.76099" lon="1.88457">
        <ele>142.4</ele>
        <time>2023-12-20T10:13:30Z</time>
      </trkpt>
      <trkpt lat="48.76106" lon="1.8846">
        <ele>142.4</ele>
        <time>2023-12-20T10:13:31Z</time>
      </trkpt>
      <trkpt lat="48.76113" lon="1.88464">
        <ele>142.6</ele>
        <time>2023-12-20T10:13:32Z</time>
      </trkpt>
      <trkpt lat="48.76121" lon="1.88467">
        <ele>142.6</ele>
        <time>2023-12-20T10:13:33Z</time>
      </trkpt>
      <trkpt lat="48.76129" lon="1.8847">
        <ele>142.2</ele>
        <time>2023-12-20T10:13:34Z</time>
      </trkpt>
      <trkpt lat="48.76137" lon="1.88473">
        <ele>142.2</ele>
        <time>2023-12-20T10:13:35Z</time>
      </trkpt>
      <trkpt lat="48.76145" lon="1.88475">
        <ele>142.2</ele>
        <time>2023-12-20T10:13:36Z</time>
      </trkpt>
      <trkpt lat="48.76153" lon="1.88476">
        <ele>142.2</ele>
        <time>2023-12-20T10:13:37Z</time>
      </trkpt>
      <trkpt lat="48.76162" lon="1.88477">
        <ele>142.2</ele>
        <time>2023-12-20T10:13:38Z</time>
      </trkpt>
      <trkpt lat="48.76171" lon="1.88477">
        <ele>142.2</ele>
        <time>2023-12-20T10:13:39Z</time>
      </trkpt>
      <trkpt lat="48.76179" lon="1.88475">
        <ele>142.2</ele>
        <time>2023-12-20T10:13:40Z</time>
      </trkpt>
      <trkpt lat="48.76188" lon="1.88473">
        <ele>142.2</ele>
        <time>2023-12-20T10:13:41Z</time>
      </trkpt>
      <trkpt lat="48.76197" lon="1.8847">
        <ele>142.2</ele>
        <time>2023-12-20T10:13:42Z</time>
      </trkpt>
      <trkpt lat="48.76204" lon="1.88466">
        <ele>142.4</ele>
        <time>2023-12-20T10:13:43Z</time>
      </trkpt>
      <trkpt lat="48.76212" lon="1.88461">
        <ele>142.4</ele>
        <time>2023-12-20T10:13:44Z</time>
      </trkpt>
      <trkpt lat="48.76219" lon="1.88456">
        <ele>142.4</ele>
        <time>2023-12-20T10:13:45Z</time>
      </trkpt>
      <trkpt lat="48.76225" lon="1.88451">
        <ele>142.6</ele>
        <time>2023-12-20T10:13:46Z</time>
      </trkpt>
      <trkpt lat="48.76232" lon="1.88447">
        <ele>142.6</ele>
        <time>2023-12-20T10:13:47Z</time>
      </trkpt>
      <trkpt lat="48.76239" lon="1.88443">
        <ele>142.6</ele>
        <time>2023-12-20T10:13:48Z</time>
      </trkpt>
      <trkpt lat="48.76245" lon="1.88439">
        <ele>142.6</ele>
        <time>2023-12-20T10:13:49Z</time>
      </trkpt>
      <trkpt lat="48.76251" lon="1.88434">
        <ele>142.6</ele>
        <time>2023-12-20T10:13:50Z</time>
      </trkpt>
      <trkpt lat="48.76257" lon="1.8843">
        <ele>142.8</ele>
        <time>2023-12-20T10:13:51Z</time>
      </trkpt>
      <trkpt lat="48.76263" lon="1.88427">
        <ele>142.8</ele>
        <time>2023-12-20T10:13:52Z</time>
      </trkpt>
      <trkpt lat="48.76269" lon="1.88423">
        <ele>142.8</ele>
        <time>2023-12-20T10:13:53Z</time>
      </trkpt>
      <trkpt lat="48.76275" lon="1.88419">
        <ele>142.8</ele>
        <time>2023-12-20T10:13:54Z</time>
      </trkpt>
      <trkpt lat="48.76281" lon="1.88415">
        <ele>142.8</ele>
        <time>2023-12-20T10:13:55Z</time>
      </trkpt>
      <trkpt lat="48.76287" lon="1.88411">
        <ele>142.8</ele>
        <time>2023-12-20T10:13:56Z</time>
      </trkpt>
      <trkpt lat="48.76293" lon="1.88407">
        <ele>142.8</ele>
        <time>2023-12-20T10:13:57Z</time>
      </trkpt>
      <trkpt lat="48.76298" lon="1.88403">
        <ele>142.8</ele>
        <time>2023-12-20T10:13:58Z</time>
      </trkpt>
      <trkpt lat="48.76304" lon="1.88399">
        <ele>143</ele>
        <time>2023-12-20T10:13:59Z</time>
      </trkpt>
      <trkpt lat="48.7631" lon="1.88395">
        <ele>143</ele>
        <time>2023-12-20T10:14:00Z</time>
      </trkpt>
      <trkpt lat="48.76316" lon="1.88391">
        <ele>143</ele>
        <time>2023-12-20T10:14:01Z</time>
      </trkpt>
      <trkpt lat="48.76321" lon="1.88387">
        <ele>143</ele>
        <time>2023-12-20T10:14:02Z</time>
      </trkpt>
      <trkpt lat="48.76327" lon="1.88382">
        <ele>143.2</ele>
        <time>2023-12-20T10:14:03Z</time>
      </trkpt>
      <trkpt lat="48.76333" lon="1.88378">
        <ele>143.2</ele>
        <time>2023-12-20T10:14:04Z</time>
      </trkpt>
      <trkpt lat="48.76339" lon="1.88375">
        <ele>143.2</ele>
        <time>2023-12-20T10:14:05Z</time>
      </trkpt>
      <trkpt lat="48.76344" lon="1.88371">
        <ele>143.2</ele>
        <time>2023-12-20T10:14:06Z</time>
      </trkpt>
      <trkpt lat="48.7635" lon="1.88367">
        <ele>143</ele>
        <time>2023-12-20T10:14:07Z</time>
      </trkpt>
      <trkpt lat="48.76355" lon="1.88363">
        <ele>143</ele>
        <time>2023-12-20T10:14:08Z</time>
      </trkpt>
      <trkpt lat="48.76361" lon="1.88359">
        <ele>143</ele>
        <time>2023-12-20T10:14:09Z</time>
      </trkpt>
      <trkpt lat="48.76366" lon="1.88355">
        <ele>143</ele>
        <time>2023-12-20T10:14:10Z</time>
      </trkpt>
      <trkpt lat="48.76372" lon="1.88351">
        <ele>143.2</ele>
        <time>2023-12-20T10:14:11Z</time>
      </trkpt>
      <trkpt lat="48.76377" lon="1.88346">
        <ele>143.2</ele>
        <time>2023-12-20T10:14:12Z</time>
      </trkpt>
      <trkpt lat="48.76383" lon="1.88341">
        <ele>143.2</ele>
        <time>2023-12-20T10:14:13Z</time>
      </trkpt>
      <trkpt lat="48.76388" lon="1.88337">
        <ele>143.2</ele>
        <time>2023-12-20T10:14:14Z</time>
      </trkpt>
      <trkpt lat="48.76394" lon="1.88332">
        <ele>143</ele>
        <time>2023-12-20T10:14:15Z</time>
      </trkpt>
      <trkpt lat="48.764" lon="1.88327">
        <ele>143</ele>
        <time>2023-12-20T10:14:16Z</time>
      </trkpt>
      <trkpt lat="48.76406" lon="1.88322">
        <ele>143</ele>
        <time>2023-12-20T10:14:17Z</time>
      </trkpt>
      <trkpt lat="48.76412" lon="1.88317">
        <ele>143</ele>
        <time>2023-12-20T10:14:18Z</time>
      </trkpt>
      <trkpt lat="48.76418" lon="1.88311">
        <ele>143.2</ele>
        <time>2023-12-20T10:14:19Z</time>
      </trkpt>
      <trkpt lat="48.76425" lon="1.88306">
        <ele>143.2</ele>
        <time>2023-12-20T10:14:20Z</time>
      </trkpt>
      <trkpt lat="48.76431" lon="1.88301">
        <ele>143.2</ele>
        <time>2023-12-20T10:14:21Z</time>
      </trkpt>
      <trkpt lat="48.76437" lon="1.88297">
        <ele>143.2</ele>
        <time>2023-12-20T10:14:22Z</time>
      </trkpt>
      <trkpt lat="48.76443" lon="1.88292">
        <ele>142.6</ele>
        <time>2023-12-20T10:14:23Z</time>
      </trkpt>
      <trkpt lat="48.76449" lon="1.88288">
        <ele>142.6</ele>
        <time>2023-12-20T10:14:24Z</time>
      </trkpt>
      <trkpt lat="48.76455" lon="1.88283">
        <ele>142.6</ele>
        <time>2023-12-20T10:14:25Z</time>
      </trkpt>
      <trkpt lat="48.76461" lon="1.8828">
        <ele>143.2</ele>
        <time>2023-12-20T10:14:26Z</time>
      </trkpt>
      <trkpt lat="48.76467" lon="1.88277">
        <ele>143.4</ele>
        <time>2023-12-20T10:14:27Z</time>
      </trkpt>
      <trkpt lat="48.76473" lon="1.88274">
        <ele>143.4</ele>
        <time>2023-12-20T10:14:28Z</time>
      </trkpt>
      <trkpt lat="48.7648" lon="1.88271">
        <ele>143.4</ele>
        <time>2023-12-20T10:14:29Z</time>
      </trkpt>
      <trkpt lat="48.76486" lon="1.88269">
        <ele>143.4</ele>
        <time>2023-12-20T10:14:30Z</time>
      </trkpt>
      <trkpt lat="48.76492" lon="1.88266">
        <ele>143.6</ele>
        <time>2023-12-20T10:14:31Z</time>
      </trkpt>
      <trkpt lat="48.76498" lon="1.88263">
        <ele>143.6</ele>
        <time>2023-12-20T10:14:32Z</time>
      </trkpt>
      <trkpt lat="48.76505" lon="1.8826">
        <ele>143.6</ele>
        <time>2023-12-20T10:14:33Z</time>
      </trkpt>
      <trkpt lat="48.76511" lon="1.88257">
        <ele>143.4</ele>
        <time>2023-12-20T10:14:34Z</time>
      </trkpt>
      <trkpt lat="48.76517" lon="1.88254">
        <ele>143.4</ele>
        <time>2023-12-20T10:14:35Z</time>
      </trkpt>
      <trkpt lat="48.76523" lon="1.88251">
        <ele>143.4</ele>
        <time>2023-12-20T10:14:36Z</time>
      </trkpt>
      <trkpt lat="48.76529" lon="1.88249">
        <ele>143.4</ele>
        <time>2023-12-20T10:14:37Z</time>
      </trkpt>
      <trkpt lat="48.76536" lon="1.88246">
        <ele>143.4</ele>
        <time>2023-12-20T10:14:38Z</time>
      </trkpt>
      <trkpt lat="48.76542" lon="1.88243">
        <ele>143.2</ele>
        <time>2023-12-20T10:14:39Z</time>
      </trkpt>
      <trkpt lat="48.76548" lon="1.8824">
        <ele>143.2</ele>
        <time>2023-12-20T10:14:40Z</time>
      </trkpt>
      <trkpt lat="48.76554" lon="1.88238">
        <ele>143.2</ele>
        <time>2023-12-20T10:14:41Z</time>
      </trkpt>
      <trkpt lat="48.76561" lon="1.88235">
        <ele>143.4</ele>
        <time>2023-12-20T10:14:42Z</time>
      </trkpt>
      <trkpt lat="48.76567" lon="1.88233">
        <ele>144</ele>
        <time>2023-12-20T10:14:43Z</time>
      </trkpt>
      <trkpt lat="48.76574" lon="1.8823">
        <ele>144</ele>
        <time>2023-12-20T10:14:44Z</time>
      </trkpt>
      <trkpt lat="48.76581" lon="1.88228">
        <ele>144</ele>
        <time>2023-12-20T10:14:45Z</time>
      </trkpt>
      <trkpt lat="48.76588" lon="1.88225">
        <ele>143.6</ele>
        <time>2023-12-20T10:14:46Z</time>
      </trkpt>
      <trkpt lat="48.76596" lon="1.88223">
        <ele>143.2</ele>
        <time>2023-12-20T10:14:47Z</time>
      </trkpt>
      <trkpt lat="48.76603" lon="1.88221">
        <ele>143.2</ele>
        <time>2023-12-20T10:14:48Z</time>
      </trkpt>
      <trkpt lat="48.7661" lon="1.88218">
        <ele>143.2</ele>
        <time>2023-12-20T10:14:49Z</time>
      </trkpt>
      <trkpt lat="48.76618" lon="1.88216">
        <ele>143.2</ele>
        <time>2023-12-20T10:14:50Z</time>
      </trkpt>
      <trkpt lat="48.76625" lon="1.88213">
        <ele>142.8</ele>
        <time>2023-12-20T10:14:51Z</time>
      </trkpt>
      <trkpt lat="48.76632" lon="1.8821">
        <ele>142.8</ele>
        <time>2023-12-20T10:14:52Z</time>
      </trkpt>
      <trkpt lat="48.7664" lon="1.88207">
        <ele>142.8</ele>
        <time>2023-12-20T10:14:53Z</time>
      </trkpt>
      <trkpt lat="48.76647" lon="1.88203">
        <ele>143.2</ele>
        <time>2023-12-20T10:14:54Z</time>
      </trkpt>
      <trkpt lat="48.76653" lon="1.88198">
        <ele>143</ele>
        <time>2023-12-20T10:14:55Z</time>
      </trkpt>
      <trkpt lat="48.76659" lon="1.88193">
        <ele>143</ele>
        <time>2023-12-20T10:14:56Z</time>
      </trkpt>
      <trkpt lat="48.76665" lon="1.88188">
        <ele>143</ele>
        <time>2023-12-20T10:14:57Z</time>
      </trkpt>
      <trkpt lat="48.76671" lon="1.88182">
        <ele>143</ele>
        <time>2023-12-20T10:14:58Z</time>
      </trkpt>
      <trkpt lat="48.76676" lon="1.88177">
        <ele>143.4</ele>
        <time>2023-12-20T10:14:59Z</time>
      </trkpt>
      <trkpt lat="48.76682" lon="1.88172">
        <ele>143.4</ele>
        <time>2023-12-20T10:15:00Z</time>
      </trkpt>
      <trkpt lat="48.76687" lon="1.88166">
        <ele>143.4</ele>
        <time>2023-12-20T10:15:01Z</time>
      </trkpt>
      <trkpt lat="48.76692" lon="1.88161">
        <ele>143.2</ele>
        <time>2023-12-20T10:15:02Z</time>
      </trkpt>
      <trkpt lat="48.76697" lon="1.88156">
        <ele>143.4</ele>
        <time>2023-12-20T10:15:03Z</time>
      </trkpt>
      <trkpt lat="48.76702" lon="1.88151">
        <ele>143.4</ele>
        <time>2023-12-20T10:15:04Z</time>
      </trkpt>
      <trkpt lat="48.76707" lon="1.88147">
        <ele>143.4</ele>
        <time>2023-12-20T10:15:05Z</time>
      </trkpt>
      <trkpt lat="48.76713" lon="1.88142">
        <ele>143.4</ele>
        <time>2023-12-20T10:15:06Z</time>
      </trkpt>
      <trkpt lat="48.76719" lon="1.88138">
        <ele>143.2</ele>
        <time>2023-12-20T10:15:07Z</time>
      </trkpt>
      <trkpt lat="48.76725" lon="1.88133">
        <ele>143.2</ele>
        <time>2023-12-20T10:15:08Z</time>
      </trkpt>
      <trkpt lat="48.76731" lon="1.88128">
        <ele>143.2</ele>
        <time>2023-12-20T10:15:09Z</time>
      </trkpt>
      <trkpt lat="48.76737" lon="1.88124">
        <ele>143.6</ele>
        <time>2023-12-20T10:15:10Z</time>
      </trkpt>
      <trkpt lat="48.76743" lon="1.8812">
        <ele>143.2</ele>
        <time>2023-12-20T10:15:11Z</time>
      </trkpt>
      <trkpt lat="48.76749" lon="1.88115">
        <ele>143.2</ele>
        <time>2023-12-20T10:15:12Z</time>
      </trkpt>
      <trkpt lat="48.76755" lon="1.8811">
        <ele>143.2</ele>
        <time>2023-12-20T10:15:13Z</time>
      </trkpt>
      <trkpt lat="48.76761" lon="1.88105">
        <ele>143.4</ele>
        <time>2023-12-20T10:15:14Z</time>
      </trkpt>
      <trkpt lat="48.76767" lon="1.88101">
        <ele>143.6</ele>
        <time>2023-12-20T10:15:15Z</time>
      </trkpt>
      <trkpt lat="48.76774" lon="1.88096">
        <ele>143.6</ele>
        <time>2023-12-20T10:15:16Z</time>
      </trkpt>
      <trkpt lat="48.7678" lon="1.88092">
        <ele>143.6</ele>
        <time>2023-12-20T10:15:17Z</time>
      </trkpt>
      <trkpt lat="48.76786" lon="1.88087">
        <ele>143.6</ele>
        <time>2023-12-20T10:15:18Z</time>
      </trkpt>
      <trkpt lat="48.76793" lon="1.88082">
        <ele>143.2</ele>
        <time>2023-12-20T10:15:19Z</time>
      </trkpt>
      <trkpt lat="48.76799" lon="1.88077">
        <ele>143.2</ele>
        <time>2023-12-20T10:15:20Z</time>
      </trkpt>
      <trkpt lat="48.76805" lon="1.88073">
        <ele>143.2</ele>
        <time>2023-12-20T10:15:21Z</time>
      </trkpt>
      <trkpt lat="48.76811" lon="1.88068">
        <ele>143.6</ele>
        <time>2023-12-20T10:15:22Z</time>
      </trkpt>
      <trkpt lat="48.76817" lon="1.88064">
        <ele>143.4</ele>
        <time>2023-12-20T10:15:23Z</time>
      </trkpt>
      <trkpt lat="48.76823" lon="1.88059">
        <ele>143.4</ele>
        <time>2023-12-20T10:15:24Z</time>
      </trkpt>
      <trkpt lat="48.76829" lon="1.88055">
        <ele>143.4</ele>
        <time>2023-12-20T10:15:25Z</time>
      </trkpt>
      <trkpt lat="48.76835" lon="1.8805">
        <ele>143.8</ele>
        <time>2023-12-20T10:15:26Z</time>
      </trkpt>
      <trkpt lat="48.7684" lon="1.88046">
        <ele>143.8</ele>
        <time>2023-12-20T10:15:27Z</time>
      </trkpt>
      <trkpt lat="48.76846" lon="1.88041">
        <ele>143.8</ele>
        <time>2023-12-20T10:15:28Z</time>
      </trkpt>
      <trkpt lat="48.76851" lon="1.88037">
        <ele>143.8</ele>
        <time>2023-12-20T10:15:29Z</time>
      </trkpt>
      <trkpt lat="48.76857" lon="1.88034">
        <ele>143.8</ele>
        <time>2023-12-20T10:15:30Z</time>
      </trkpt>
      <trkpt lat="48.76863" lon="1.8803">
        <ele>143.8</ele>
        <time>2023-12-20T10:15:31Z</time>
      </trkpt>
      <trkpt lat="48.76868" lon="1.88026">
        <ele>143.8</ele>
        <time>2023-12-20T10:15:32Z</time>
      </trkpt>
      <trkpt lat="48.76874" lon="1.88022">
        <ele>143.8</ele>
        <time>2023-12-20T10:15:33Z</time>
      </trkpt>
      <trkpt lat="48.76879" lon="1.88018">
        <ele>143.8</ele>
        <time>2023-12-20T10:15:34Z</time>
      </trkpt>
      <trkpt lat="48.76884" lon="1.88014">
        <ele>144</ele>
        <time>2023-12-20T10:15:35Z</time>
      </trkpt>
      <trkpt lat="48.76889" lon="1.8801">
        <ele>144</ele>
        <time>2023-12-20T10:15:36Z</time>
      </trkpt>
      <trkpt lat="48.76894" lon="1.88006">
        <ele>144</ele>
        <time>2023-12-20T10:15:37Z</time>
      </trkpt>
      <trkpt lat="48.76899" lon="1.88001">
        <ele>144</ele>
        <time>2023-12-20T10:15:38Z</time>
      </trkpt>
      <trkpt lat="48.76904" lon="1.87997">
        <ele>144</ele>
        <time>2023-12-20T10:15:39Z</time>
      </trkpt>
      <trkpt lat="48.76908" lon="1.87993">
        <ele>144</ele>
        <time>2023-12-20T10:15:40Z</time>
      </trkpt>
      <trkpt lat="48.76913" lon="1.87988">
        <ele>144</ele>
        <time>2023-12-20T10:15:41Z</time>
      </trkpt>
      <trkpt lat="48.76917" lon="1.87984">
        <ele>144</ele>
        <time>2023-12-20T10:15:42Z</time>
      </trkpt>
      <trkpt lat="48.76921" lon="1.87979">
        <ele>144</ele>
        <time>2023-12-20T10:15:43Z</time>
      </trkpt>
      <trkpt lat="48.76925" lon="1.87975">
        <ele>144</ele>
        <time>2023-12-20T10:15:44Z</time>
      </trkpt>
      <trkpt lat="48.7693" lon="1.8797">
        <ele>144</ele>
        <time>2023-12-20T10:15:45Z</time>
      </trkpt>
      <trkpt lat="48.76934" lon="1.87966">
        <ele>144</ele>
        <time>2023-12-20T10:15:46Z</time>
      </trkpt>
      <trkpt lat="48.76938" lon="1.87962">
        <ele>143.6</ele>
        <time>2023-12-20T10:15:47Z</time>
      </trkpt>
      <trkpt lat="48.76941" lon="1.87957">
        <ele>143.6</ele>
        <time>2023-12-20T10:15:48Z</time>
      </trkpt>
      <trkpt lat="48.76945" lon="1.87952">
        <ele>143.6</ele>
        <time>2023-12-20T10:15:49Z</time>
      </trkpt>
      <trkpt lat="48.7695" lon="1.87947">
        <ele>143.8</ele>
        <time>2023-12-20T10:15:50Z</time>
      </trkpt>
      <trkpt lat="48.76954" lon="1.87941">
        <ele>143.8</ele>
        <time>2023-12-20T10:15:51Z</time>
      </trkpt>
      <trkpt lat="48.76958" lon="1.87936">
        <ele>143.8</ele>
        <time>2023-12-20T10:15:52Z</time>
      </trkpt>
      <trkpt lat="48.76962" lon="1.8793">
        <ele>143.8</ele>
        <time>2023-12-20T10:15:53Z</time>
      </trkpt>
      <trkpt lat="48.76967" lon="1.87924">
        <ele>143.4</ele>
        <time>2023-12-20T10:15:54Z</time>
      </trkpt>
      <trkpt lat="48.76971" lon="1.87918">
        <ele>143.2</ele>
        <time>2023-12-20T10:15:55Z</time>
      </trkpt>
      <trkpt lat="48.76975" lon="1.87912">
        <ele>143.2</ele>
        <time>2023-12-20T10:15:56Z</time>
      </trkpt>
      <trkpt lat="48.76979" lon="1.87906">
        <ele>143.2</ele>
        <time>2023-12-20T10:15:57Z</time>
      </trkpt>
      <trkpt lat="48.76984" lon="1.879">
        <ele>143.2</ele>
        <time>2023-12-20T10:15:58Z</time>
      </trkpt>
      <trkpt lat="48.76988" lon="1.87893">
        <ele>142.8</ele>
        <time>2023-12-20T10:15:59Z</time>
      </trkpt>
      <trkpt lat="48.76992" lon="1.87886">
        <ele>142.8</ele>
        <time>2023-12-20T10:16:00Z</time>
      </trkpt>
      <trkpt lat="48.76996" lon="1.87879">
        <ele>142.8</ele>
        <time>2023-12-20T10:16:01Z</time>
      </trkpt>
      <trkpt lat="48.77" lon="1.87872">
        <ele>142.4</ele>
        <time>2023-12-20T10:16:02Z</time>
      </trkpt>
      <trkpt lat="48.77004" lon="1.87865">
        <ele>142</ele>
        <time>2023-12-20T10:16:03Z</time>
      </trkpt>
      <trkpt lat="48.77008" lon="1.87858">
        <ele>142</ele>
        <time>2023-12-20T10:16:04Z</time>
      </trkpt>
      <trkpt lat="48.77012" lon="1.87851">
        <ele>142</ele>
        <time>2023-12-20T10:16:05Z</time>
      </trkpt>
      <trkpt lat="48.77016" lon="1.87844">
        <ele>142</ele>
        <time>2023-12-20T10:16:06Z</time>
      </trkpt>
      <trkpt lat="48.7702" lon="1.87837">
        <ele>141.8</ele>
        <time>2023-12-20T10:16:07Z</time>
      </trkpt>
      <trkpt lat="48.77024" lon="1.8783">
        <ele>141.8</ele>
        <time>2023-12-20T10:16:08Z</time>
      </trkpt>
      <trkpt lat="48.77028" lon="1.87823">
        <ele>141.8</ele>
        <time>2023-12-20T10:16:09Z</time>
      </trkpt>
      <trkpt lat="48.77032" lon="1.87816">
        <ele>141.8</ele>
        <time>2023-12-20T10:16:10Z</time>
      </trkpt>
      <trkpt lat="48.77036" lon="1.87809">
        <ele>141.4</ele>
        <time>2023-12-20T10:16:11Z</time>
      </trkpt>
      <trkpt lat="48.7704" lon="1.87802">
        <ele>141.4</ele>
        <time>2023-12-20T10:16:12Z</time>
      </trkpt>
      <trkpt lat="48.77044" lon="1.87795">
        <ele>141.4</ele>
        <time>2023-12-20T10:16:13Z</time>
      </trkpt>
      <trkpt lat="48.77048" lon="1.87788">
        <ele>140.8</ele>
        <time>2023-12-20T10:16:14Z</time>
      </trkpt>
      <trkpt lat="48.77052" lon="1.87781">
        <ele>141.2</ele>
        <time>2023-12-20T10:16:15Z</time>
      </trkpt>
      <trkpt lat="48.77055" lon="1.87775">
        <ele>141.2</ele>
        <time>2023-12-20T10:16:16Z</time>
      </trkpt>
      <trkpt lat="48.77058" lon="1.87768">
        <ele>141.2</ele>
        <time>2023-12-20T10:16:17Z</time>
      </trkpt>
      <trkpt lat="48.77061" lon="1.87761">
        <ele>140.6</ele>
        <time>2023-12-20T10:16:18Z</time>
      </trkpt>
      <trkpt lat="48.77065" lon="1.87755">
        <ele>140.4</ele>
        <time>2023-12-20T10:16:19Z</time>
      </trkpt>
      <trkpt lat="48.77069" lon="1.87749">
        <ele>140.4</ele>
        <time>2023-12-20T10:16:20Z</time>
      </trkpt>
      <trkpt lat="48.77072" lon="1.87743">
        <ele>140.4</ele>
        <time>2023-12-20T10:16:21Z</time>
      </trkpt>
      <trkpt lat="48.77076" lon="1.87736">
        <ele>139.8</ele>
        <time>2023-12-20T10:16:22Z</time>
      </trkpt>
      <trkpt lat="48.77079" lon="1.8773">
        <ele>139.8</ele>
        <time>2023-12-20T10:16:23Z</time>
      </trkpt>
      <trkpt lat="48.77083" lon="1.87724">
        <ele>139.8</ele>
        <time>2023-12-20T10:16:24Z</time>
      </trkpt>
      <trkpt lat="48.77087" lon="1.87718">
        <ele>139.8</ele>
        <time>2023-12-20T10:16:25Z</time>
      </trkpt>
      <trkpt lat="48.7709" lon="1.87712">
        <ele>139</ele>
        <time>2023-12-20T10:16:26Z</time>
      </trkpt>
      <trkpt lat="48.77094" lon="1.87705">
        <ele>139</ele>
        <time>2023-12-20T10:16:27Z</time>
      </trkpt>
      <trkpt lat="48.77098" lon="1.87698">
        <ele>139</ele>
        <time>2023-12-20T10:16:28Z</time>
      </trkpt>
      <trkpt lat="48.77102" lon="1.87691">
        <ele>139</ele>
        <time>2023-12-20T10:16:29Z</time>
      </trkpt>
      <trkpt lat="48.77106" lon="1.87685">
        <ele>138.2</ele>
        <time>2023-12-20T10:16:30Z</time>
      </trkpt>
      <trkpt lat="48.77111" lon="1.87678">
        <ele>138</ele>
        <time>2023-12-20T10:16:31Z</time>
      </trkpt>
      <trkpt lat="48.77116" lon="1.87671">
        <ele>138</ele>
        <time>2023-12-20T10:16:32Z</time>
      </trkpt>
      <trkpt lat="48.7712" lon="1.87664">
        <ele>138</ele>
        <time>2023-12-20T10:16:33Z</time>
      </trkpt>
      <trkpt lat="48.77125" lon="1.87658">
        <ele>137.8</ele>
        <time>2023-12-20T10:16:34Z</time>
      </trkpt>
      <trkpt lat="48.7713" lon="1.87651">
        <ele>137.6</ele>
        <time>2023-12-20T10:16:35Z</time>
      </trkpt>
      <trkpt lat="48.77135" lon="1.87645">
        <ele>137.6</ele>
        <time>2023-12-20T10:16:36Z</time>
      </trkpt>
      <trkpt lat="48.7714" lon="1.87639">
        <ele>137.6</ele>
        <time>2023-12-20T10:16:37Z</time>
      </trkpt>
      <trkpt lat="48.77146" lon="1.87633">
        <ele>137.6</ele>
        <time>2023-12-20T10:16:38Z</time>
      </trkpt>
      <trkpt lat="48.77151" lon="1.87627">
        <ele>137.4</ele>
        <time>2023-12-20T10:16:39Z</time>
      </trkpt>
      <trkpt lat="48.77156" lon="1.87621">
        <ele>137.4</ele>
        <time>2023-12-20T10:16:40Z</time>
      </trkpt>
      <trkpt lat="48.77162" lon="1.87616">
        <ele>137.4</ele>
        <time>2023-12-20T10:16:41Z</time>
      </trkpt>
      <trkpt lat="48.77168" lon="1.87611">
        <ele>137.4</ele>
        <time>2023-12-20T10:16:42Z</time>
      </trkpt>
      <trkpt lat="48.77174" lon="1.87605">
        <ele>137.4</ele>
        <time>2023-12-20T10:16:43Z</time>
      </trkpt>
      <trkpt lat="48.77181" lon="1.876">
        <ele>137.4</ele>
        <time>2023-12-20T10:16:44Z</time>
      </trkpt>
      <trkpt lat="48.77187" lon="1.87596">
        <ele>137.4</ele>
        <time>2023-12-20T10:16:45Z</time>
      </trkpt>
      <trkpt lat="48.77194" lon="1.87591">
        <ele>137.4</ele>
        <time>2023-12-20T10:16:46Z</time>
      </trkpt>
      <trkpt lat="48.77201" lon="1.87586">
        <ele>137.6</ele>
        <time>2023-12-20T10:16:47Z</time>
      </trkpt>
      <trkpt lat="48.77207" lon="1.87581">
        <ele>137.6</ele>
        <time>2023-12-20T10:16:48Z</time>
      </trkpt>
      <trkpt lat="48.77214" lon="1.87576">
        <ele>137.6</ele>
        <time>2023-12-20T10:16:49Z</time>
      </trkpt>
      <trkpt lat="48.7722" lon="1.87571">
        <ele>137</ele>
        <time>2023-12-20T10:16:50Z</time>
      </trkpt>
      <trkpt lat="48.77226" lon="1.87566">
        <ele>137.4</ele>
        <time>2023-12-20T10:16:51Z</time>
      </trkpt>
      <trkpt lat="48.77233" lon="1.87562">
        <ele>137.4</ele>
        <time>2023-12-20T10:16:52Z</time>
      </trkpt>
      <trkpt lat="48.77238" lon="1.87557">
        <ele>137.4</ele>
        <time>2023-12-20T10:16:53Z</time>
      </trkpt>
      <trkpt lat="48.77244" lon="1.87553">
        <ele>137.4</ele>
        <time>2023-12-20T10:16:54Z</time>
      </trkpt>
      <trkpt lat="48.7725" lon="1.87548">
        <ele>137.6</ele>
        <time>2023-12-20T10:16:55Z</time>
      </trkpt>
      <trkpt lat="48.77255" lon="1.87544">
        <ele>137.6</ele>
        <time>2023-12-20T10:16:56Z</time>
      </trkpt>
      <trkpt lat="48.7726" lon="1.87539">
        <ele>137.6</ele>
        <time>2023-12-20T10:16:57Z</time>
      </trkpt>
      <trkpt lat="48.77265" lon="1.87535">
        <ele>137.6</ele>
        <time>2023-12-20T10:16:58Z</time>
      </trkpt>
      <trkpt lat="48.77271" lon="1.87531">
        <ele>137.8</ele>
        <time>2023-12-20T10:16:59Z</time>
      </trkpt>
      <trkpt lat="48.77276" lon="1.87528">
        <ele>137.8</ele>
        <time>2023-12-20T10:17:00Z</time>
      </trkpt>
      <trkpt lat="48.7728" lon="1.87524">
        <ele>137.8</ele>
        <time>2023-12-20T10:17:01Z</time>
      </trkpt>
      <trkpt lat="48.77285" lon="1.87521">
        <ele>137.8</ele>
        <time>2023-12-20T10:17:02Z</time>
      </trkpt>
      <trkpt lat="48.7729" lon="1.87518">
        <ele>138</ele>
        <time>2023-12-20T10:17:03Z</time>
      </trkpt>
      <trkpt lat="48.77295" lon="1.87515">
        <ele>138</ele>
        <time>2023-12-20T10:17:04Z</time>
      </trkpt>
      <trkpt lat="48.773" lon="1.87511">
        <ele>138</ele>
        <time>2023-12-20T10:17:05Z</time>
      </trkpt>
      <trkpt lat="48.77306" lon="1.87508">
        <ele>138</ele>
        <time>2023-12-20T10:17:06Z</time>
      </trkpt>
      <trkpt lat="48.77311" lon="1.87506">
        <ele>138</ele>
        <time>2023-12-20T10:17:07Z</time>
      </trkpt>
      <trkpt lat="48.77317" lon="1.87505">
        <ele>138</ele>
        <time>2023-12-20T10:17:08Z</time>
      </trkpt>
      <trkpt lat="48.77323" lon="1.87503">
        <ele>138</ele>
        <time>2023-12-20T10:17:09Z</time>
      </trkpt>
      <trkpt lat="48.77329" lon="1.87502">
        <ele>137.6</ele>
        <time>2023-12-20T10:17:10Z</time>
      </trkpt>
      <trkpt lat="48.77335" lon="1.87502">
        <ele>137.2</ele>
        <time>2023-12-20T10:17:11Z</time>
      </trkpt>
      <trkpt lat="48.77341" lon="1.87502">
        <ele>137.2</ele>
        <time>2023-12-20T10:17:12Z</time>
      </trkpt>
      <trkpt lat="48.77348" lon="1.87503">
        <ele>137.2</ele>
        <time>2023-12-20T10:17:13Z</time>
      </trkpt>
      <trkpt lat="48.77355" lon="1.87505">
        <ele>136.4</ele>
        <time>2023-12-20T10:17:14Z</time>
      </trkpt>
      <trkpt lat="48.77362" lon="1.87507">
        <ele>136.4</ele>
        <time>2023-12-20T10:17:15Z</time>
      </trkpt>
      <trkpt lat="48.77369" lon="1.87509">
        <ele>136.4</ele>
        <time>2023-12-20T10:17:16Z</time>
      </trkpt>
      <trkpt lat="48.77376" lon="1.87511">
        <ele>136.4</ele>
        <time>2023-12-20T10:17:17Z</time>
      </trkpt>
      <trkpt lat="48.77383" lon="1.87513">
        <ele>135.8</ele>
        <time>2023-12-20T10:17:18Z</time>
      </trkpt>
      <trkpt lat="48.77391" lon="1.87515">
        <ele>135.4</ele>
        <time>2023-12-20T10:17:19Z</time>
      </trkpt>
      <trkpt lat="48.77399" lon="1.87516">
        <ele>135.4</ele>
        <time>2023-12-20T10:17:20Z</time>
      </trkpt>
      <trkpt lat="48.77406" lon="1.87518">
        <ele>135.4</ele>
        <time>2023-12-20T10:17:21Z</time>
      </trkpt>
      <trkpt lat="48.77414" lon="1.87519">
        <ele>134.4</ele>
        <time>2023-12-20T10:17:22Z</time>
      </trkpt>
      <trkpt lat="48.77422" lon="1.87522">
        <ele>134.2</ele>
        <time>2023-12-20T10:17:23Z</time>
      </trkpt>
      <trkpt lat="48.7743" lon="1.87525">
        <ele>134.2</ele>
        <time>2023-12-20T10:17:24Z</time>
      </trkpt>
      <trkpt lat="48.77438" lon="1.87529">
        <ele>134.2</ele>
        <time>2023-12-20T10:17:25Z</time>
      </trkpt>
      <trkpt lat="48.77445" lon="1.87534">
        <ele>134.2</ele>
        <time>2023-12-20T10:17:26Z</time>
      </trkpt>
      <trkpt lat="48.77452" lon="1.87539">
        <ele>134.4</ele>
        <time>2023-12-20T10:17:27Z</time>
      </trkpt>
      <trkpt lat="48.77459" lon="1.87546">
        <ele>134.4</ele>
        <time>2023-12-20T10:17:28Z</time>
      </trkpt>
      <trkpt lat="48.77466" lon="1.87554">
        <ele>134.4</ele>
        <time>2023-12-20T10:17:29Z</time>
      </trkpt>
      <trkpt lat="48.77472" lon="1.87563">
        <ele>133.6</ele>
        <time>2023-12-20T10:17:30Z</time>
      </trkpt>
      <trkpt lat="48.77478" lon="1.87571">
        <ele>133.4</ele>
        <time>2023-12-20T10:17:31Z</time>
      </trkpt>
      <trkpt lat="48.77484" lon="1.8758">
        <ele>133.4</ele>
        <time>2023-12-20T10:17:32Z</time>
      </trkpt>
      <trkpt lat="48.7749" lon="1.87589">
        <ele>133.4</ele>
        <time>2023-12-20T10:17:33Z</time>
      </trkpt>
      <trkpt lat="48.77496" lon="1.87598">
        <ele>133.8</ele>
        <time>2023-12-20T10:17:34Z</time>
      </trkpt>
      <trkpt lat="48.77501" lon="1.87607">
        <ele>133.6</ele>
        <time>2023-12-20T10:17:35Z</time>
      </trkpt>
      <trkpt lat="48.77507" lon="1.87616">
        <ele>133.6</ele>
        <time>2023-12-20T10:17:36Z</time>
      </trkpt>
      <trkpt lat="48.77513" lon="1.87626">
        <ele>133.6</ele>
        <time>2023-12-20T10:17:37Z</time>
      </trkpt>
      <trkpt lat="48.77519" lon="1.87635">
        <ele>133.6</ele>
        <time>2023-12-20T10:17:38Z</time>
      </trkpt>
      <trkpt lat="48.77525" lon="1.87645">
        <ele>133.6</ele>
        <time>2023-12-20T10:17:39Z</time>
      </trkpt>
      <trkpt lat="48.7753" lon="1.87654">
        <ele>133.6</ele>
        <time>2023-12-20T10:17:40Z</time>
      </trkpt>
      <trkpt lat="48.77536" lon="1.87663">
        <ele>133.6</ele>
        <time>2023-12-20T10:17:41Z</time>
      </trkpt>
      <trkpt lat="48.77543" lon="1.87672">
        <ele>133.6</ele>
        <time>2023-12-20T10:17:42Z</time>
      </trkpt>
      <trkpt lat="48.7755" lon="1.8768">
        <ele>134</ele>
        <time>2023-12-20T10:17:43Z</time>
      </trkpt>
      <trkpt lat="48.77557" lon="1.87687">
        <ele>134</ele>
        <time>2023-12-20T10:17:44Z</time>
      </trkpt>
      <trkpt lat="48.77564" lon="1.87695">
        <ele>134</ele>
        <time>2023-12-20T10:17:45Z</time>
      </trkpt>
      <trkpt lat="48.77571" lon="1.87702">
        <ele>133.8</ele>
        <time>2023-12-20T10:17:46Z</time>
      </trkpt>
      <trkpt lat="48.77578" lon="1.87709">
        <ele>133.8</ele>
        <time>2023-12-20T10:17:47Z</time>
      </trkpt>
      <trkpt lat="48.77585" lon="1.87716">
        <ele>133.8</ele>
        <time>2023-12-20T10:17:48Z</time>
      </trkpt>
      <trkpt lat="48.77593" lon="1.87723">
        <ele>133.8</ele>
        <time>2023-12-20T10:17:49Z</time>
      </trkpt>
      <trkpt lat="48.776" lon="1.8773">
        <ele>133.8</ele>
        <time>2023-12-20T10:17:50Z</time>
      </trkpt>
      <trkpt lat="48.77606" lon="1.87737">
        <ele>133.8</ele>
        <time>2023-12-20T10:17:51Z</time>
      </trkpt>
      <trkpt lat="48.77613" lon="1.87745">
        <ele>133.8</ele>
        <time>2023-12-20T10:17:52Z</time>
      </trkpt>
      <trkpt lat="48.7762" lon="1.87752">
        <ele>133.8</ele>
        <time>2023-12-20T10:17:53Z</time>
      </trkpt>
      <trkpt lat="48.77627" lon="1.87759">
        <ele>133.8</ele>
        <time>2023-12-20T10:17:54Z</time>
      </trkpt>
      <trkpt lat="48.77635" lon="1.87765">
        <ele>133.6</ele>
        <time>2023-12-20T10:17:55Z</time>
      </trkpt>
      <trkpt lat="48.77643" lon="1.87769">
        <ele>133.6</ele>
        <time>2023-12-20T10:17:56Z</time>
      </trkpt>
      <trkpt lat="48.77651" lon="1.8777">
        <ele>133.6</ele>
        <time>2023-12-20T10:17:57Z</time>
      </trkpt>
      <trkpt lat="48.77659" lon="1.87769">
        <ele>134</ele>
        <time>2023-12-20T10:17:58Z</time>
      </trkpt>
      <trkpt lat="48.77667" lon="1.87768">
        <ele>134</ele>
        <time>2023-12-20T10:17:59Z</time>
      </trkpt>
      <trkpt lat="48.77674" lon="1.87766">
        <ele>134</ele>
        <time>2023-12-20T10:18:00Z</time>
      </trkpt>
      <trkpt lat="48.77681" lon="1.87763">
        <ele>134</ele>
        <time>2023-12-20T10:18:01Z</time>
      </trkpt>
      <trkpt lat="48.77687" lon="1.87758">
        <ele>134</ele>
        <time>2023-12-20T10:18:02Z</time>
      </trkpt>
      <trkpt lat="48.77692" lon="1.87752">
        <ele>134.6</ele>
        <time>2023-12-20T10:18:03Z</time>
      </trkpt>
      <trkpt lat="48.77698" lon="1.87748">
        <ele>134.6</ele>
        <time>2023-12-20T10:18:04Z</time>
      </trkpt>
      <trkpt lat="48.77705" lon="1.87744">
        <ele>134.6</ele>
        <time>2023-12-20T10:18:05Z</time>
      </trkpt>
      <trkpt lat="48.77711" lon="1.87739">
        <ele>134</ele>
        <time>2023-12-20T10:18:06Z</time>
      </trkpt>
      <trkpt lat="48.77717" lon="1.87736">
        <ele>134</ele>
        <time>2023-12-20T10:18:07Z</time>
      </trkpt>
      <trkpt lat="48.77723" lon="1.87732">
        <ele>134</ele>
        <time>2023-12-20T10:18:08Z</time>
      </trkpt>
      <trkpt lat="48.77729" lon="1.87729">
        <ele>134</ele>
        <time>2023-12-20T10:18:09Z</time>
      </trkpt>
      <trkpt lat="48.77735" lon="1.87727">
        <ele>134</ele>
        <time>2023-12-20T10:18:10Z</time>
      </trkpt>
      <trkpt lat="48.77741" lon="1.87724">
        <ele>134.2</ele>
        <time>2023-12-20T10:18:11Z</time>
      </trkpt>
      <trkpt lat="48.77746" lon="1.8772">
        <ele>134.2</ele>
        <time>2023-12-20T10:18:12Z</time>
      </trkpt>
      <trkpt lat="48.77752" lon="1.87717">
        <ele>134.2</ele>
        <time>2023-12-20T10:18:13Z</time>
      </trkpt>
      <trkpt lat="48.77757" lon="1.87715">
        <ele>134.2</ele>
        <time>2023-12-20T10:18:14Z</time>
      </trkpt>
      <trkpt lat="48.77762" lon="1.87713">
        <ele>134.4</ele>
        <time>2023-12-20T10:18:15Z</time>
      </trkpt>
      <trkpt lat="48.77767" lon="1.87711">
        <ele>134.4</ele>
        <time>2023-12-20T10:18:16Z</time>
      </trkpt>
      <trkpt lat="48.77772" lon="1.87709">
        <ele>134.4</ele>
        <time>2023-12-20T10:18:17Z</time>
      </trkpt>
      <trkpt lat="48.77777" lon="1.87708">
        <ele>134.2</ele>
        <time>2023-12-20T10:18:18Z</time>
      </trkpt>
      <trkpt lat="48.77782" lon="1.87706">
        <ele>134.4</ele>
        <time>2023-12-20T10:18:19Z</time>
      </trkpt>
      <trkpt lat="48.77787" lon="1.87703">
        <ele>134.4</ele>
        <time>2023-12-20T10:18:20Z</time>
      </trkpt>
      <trkpt lat="48.7779" lon="1.87698">
        <ele>134.4</ele>
        <time>2023-12-20T10:18:21Z</time>
      </trkpt>
      <trkpt lat="48.77793" lon="1.87693">
        <ele>133.6</ele>
        <time>2023-12-20T10:18:22Z</time>
      </trkpt>
      <trkpt lat="48.77796" lon="1.87688">
        <ele>133.2</ele>
        <time>2023-12-20T10:18:23Z</time>
      </trkpt>
      <trkpt lat="48.77798" lon="1.87683">
        <ele>133.2</ele>
        <time>2023-12-20T10:18:24Z</time>
      </trkpt>
      <trkpt lat="48.77801" lon="1.87677">
        <ele>133.2</ele>
        <time>2023-12-20T10:18:25Z</time>
      </trkpt>
      <trkpt lat="48.77803" lon="1.87672">
        <ele>133.2</ele>
        <time>2023-12-20T10:18:26Z</time>
      </trkpt>
      <trkpt lat="48.77806" lon="1.87666">
        <ele>133.4</ele>
        <time>2023-12-20T10:18:27Z</time>
      </trkpt>
      <trkpt lat="48.77808" lon="1.87661">
        <ele>133.4</ele>
        <time>2023-12-20T10:18:28Z</time>
      </trkpt>
      <trkpt lat="48.77811" lon="1.87656">
        <ele>133.4</ele>
        <time>2023-12-20T10:18:29Z</time>
      </trkpt>
      <trkpt lat="48.77813" lon="1.87651">
        <ele>132.8</ele>
        <time>2023-12-20T10:18:30Z</time>
      </trkpt>
      <trkpt lat="48.77816" lon="1.87646">
        <ele>132.4</ele>
        <time>2023-12-20T10:18:31Z</time>
      </trkpt>
      <trkpt lat="48.77818" lon="1.8764">
        <ele>132.4</ele>
        <time>2023-12-20T10:18:32Z</time>
      </trkpt>
      <trkpt lat="48.77821" lon="1.87634">
        <ele>132.4</ele>
        <time>2023-12-20T10:18:33Z</time>
      </trkpt>
      <trkpt lat="48.77824" lon="1.87628">
        <ele>132.4</ele>
        <time>2023-12-20T10:18:34Z</time>
      </trkpt>
      <trkpt lat="48.77826" lon="1.87622">
        <ele>131.6</ele>
        <time>2023-12-20T10:18:35Z</time>
      </trkpt>
      <trkpt lat="48.77828" lon="1.87615">
        <ele>131.6</ele>
        <time>2023-12-20T10:18:36Z</time>
      </trkpt>
      <trkpt lat="48.7783" lon="1.87609">
        <ele>131.6</ele>
        <time>2023-12-20T10:18:37Z</time>
      </trkpt>
      <trkpt lat="48.77831" lon="1.87601">
        <ele>132</ele>
        <time>2023-12-20T10:18:38Z</time>
      </trkpt>
      <trkpt lat="48.77831" lon="1.87594">
        <ele>131.8</ele>
        <time>2023-12-20T10:18:39Z</time>
      </trkpt>
      <trkpt lat="48.7783" lon="1.87587">
        <ele>131.8</ele>
        <time>2023-12-20T10:18:40Z</time>
      </trkpt>
      <trkpt lat="48.77829" lon="1.87579">
        <ele>131.8</ele>
        <time>2023-12-20T10:18:41Z</time>
      </trkpt>
      <trkpt lat="48.77829" lon="1.87572">
        <ele>131.8</ele>
        <time>2023-12-20T10:18:42Z</time>
      </trkpt>
      <trkpt lat="48.77828" lon="1.87565">
        <ele>131.8</ele>
        <time>2023-12-20T10:18:43Z</time>
      </trkpt>
      <trkpt lat="48.77827" lon="1.87557">
        <ele>131.8</ele>
        <time>2023-12-20T10:18:44Z</time>
      </trkpt>
      <trkpt lat="48.77826" lon="1.8755">
        <ele>131.8</ele>
        <time>2023-12-20T10:18:45Z</time>
      </trkpt>
      <trkpt lat="48.77825" lon="1.87543">
        <ele>131.8</ele>
        <time>2023-12-20T10:18:46Z</time>
      </trkpt>
      <trkpt lat="48.77824" lon="1.87537">
        <ele>131.8</ele>
        <time>2023-12-20T10:18:47Z</time>
      </trkpt>
      <trkpt lat="48.77823" lon="1.8753">
        <ele>131.8</ele>
        <time>2023-12-20T10:18:48Z</time>
      </trkpt>
      <trkpt lat="48.77822" lon="1.87523">
        <ele>131.8</ele>
        <time>2023-12-20T10:18:49Z</time>
      </trkpt>
      <trkpt lat="48.77821" lon="1.87516">
        <ele>131.8</ele>
        <time>2023-12-20T10:18:50Z</time>
      </trkpt>
      <trkpt lat="48.7782" lon="1.87508">
        <ele>131.6</ele>
        <time>2023-12-20T10:18:51Z</time>
      </trkpt>
      <trkpt lat="48.77819" lon="1.87501">
        <ele>131.6</ele>
        <time>2023-12-20T10:18:52Z</time>
      </trkpt>
      <trkpt lat="48.77818" lon="1.87494">
        <ele>131.6</ele>
        <time>2023-12-20T10:18:53Z</time>
      </trkpt>
      <trkpt lat="48.77817" lon="1.87487">
        <ele>131.6</ele>
        <time>2023-12-20T10:18:54Z</time>
      </trkpt>
      <trkpt lat="48.77816" lon="1.87479">
        <ele>131.6</ele>
        <time>2023-12-20T10:18:55Z</time>
      </trkpt>
      <trkpt lat="48.77815" lon="1.87472">
        <ele>131.6</ele>
        <time>2023-12-20T10:18:56Z</time>
      </trkpt>
      <trkpt lat="48.77816" lon="1.87466">
        <ele>131.6</ele>
        <time>2023-12-20T10:18:57Z</time>
      </trkpt>
      <trkpt lat="48.77819" lon="1.87462">
        <ele>132</ele>
        <time>2023-12-20T10:18:58Z</time>
      </trkpt>
      <trkpt lat="48.77823" lon="1.8746">
        <ele>131.8</ele>
        <time>2023-12-20T10:18:59Z</time>
      </trkpt>
      <trkpt lat="48.77828" lon="1.87459">
        <ele>131.8</ele>
        <time>2023-12-20T10:19:00Z</time>
      </trkpt>
      <trkpt lat="48.77833" lon="1.87458">
        <ele>131.8</ele>
        <time>2023-12-20T10:19:01Z</time>
      </trkpt>
      <trkpt lat="48.77839" lon="1.87457">
        <ele>131.8</ele>
        <time>2023-12-20T10:19:02Z</time>
      </trkpt>
      <trkpt lat="48.77844" lon="1.87455">
        <ele>131.4</ele>
        <time>2023-12-20T10:19:03Z</time>
      </trkpt>
      <trkpt lat="48.77849" lon="1.87453">
        <ele>131.4</ele>
        <time>2023-12-20T10:19:04Z</time>
      </trkpt>
      <trkpt lat="48.77854" lon="1.87451">
        <ele>131.4</ele>
        <time>2023-12-20T10:19:05Z</time>
      </trkpt>
      <trkpt lat="48.77859" lon="1.8745">
        <ele>131.6</ele>
        <time>2023-12-20T10:19:06Z</time>
      </trkpt>
      <trkpt lat="48.77864" lon="1.87449">
        <ele>132</ele>
        <time>2023-12-20T10:19:07Z</time>
      </trkpt>
      <trkpt lat="48.77869" lon="1.87448">
        <ele>132</ele>
        <time>2023-12-20T10:19:08Z</time>
      </trkpt>
      <trkpt lat="48.77875" lon="1.87446">
        <ele>132</ele>
        <time>2023-12-20T10:19:09Z</time>
      </trkpt>
      <trkpt lat="48.7788" lon="1.87444">
        <ele>132</ele>
        <time>2023-12-20T10:19:10Z</time>
      </trkpt>
      <trkpt lat="48.77886" lon="1.87442">
        <ele>132</ele>
        <time>2023-12-20T10:19:11Z</time>
      </trkpt>
      <trkpt lat="48.77891" lon="1.8744">
        <ele>132</ele>
        <time>2023-12-20T10:19:12Z</time>
      </trkpt>
      <trkpt lat="48.77897" lon="1.87438">
        <ele>132</ele>
        <time>2023-12-20T10:19:13Z</time>
      </trkpt>
      <trkpt lat="48.77903" lon="1.87437">
        <ele>132</ele>
        <time>2023-12-20T10:19:14Z</time>
      </trkpt>
      <trkpt lat="48.77909" lon="1.87436">
        <ele>131.8</ele>
        <time>2023-12-20T10:19:15Z</time>
      </trkpt>
      <trkpt lat="48.77915" lon="1.87434">
        <ele>131.8</ele>
        <time>2023-12-20T10:19:16Z</time>
      </trkpt>
      <trkpt lat="48.77921" lon="1.87432">
        <ele>131.8</ele>
        <time>2023-12-20T10:19:17Z</time>
      </trkpt>
      <trkpt lat="48.77927" lon="1.8743">
        <ele>132</ele>
        <time>2023-12-20T10:19:18Z</time>
      </trkpt>
      <trkpt lat="48.77933" lon="1.87429">
        <ele>132.2</ele>
        <time>2023-12-20T10:19:19Z</time>
      </trkpt>
      <trkpt lat="48.77939" lon="1.87427">
        <ele>132.2</ele>
        <time>2023-12-20T10:19:20Z</time>
      </trkpt>
      <trkpt lat="48.77946" lon="1.87426">
        <ele>132.2</ele>
        <time>2023-12-20T10:19:21Z</time>
      </trkpt>
      <trkpt lat="48.77952" lon="1.87426">
        <ele>132</ele>
        <time>2023-12-20T10:19:22Z</time>
      </trkpt>
      <trkpt lat="48.77958" lon="1.87425">
        <ele>132.4</ele>
        <time>2023-12-20T10:19:23Z</time>
      </trkpt>
      <trkpt lat="48.77962" lon="1.87423">
        <ele>132.4</ele>
        <time>2023-12-20T10:19:24Z</time>
      </trkpt>
      <trkpt lat="48.77967" lon="1.87423">
        <ele>132.4</ele>
        <time>2023-12-20T10:19:25Z</time>
      </trkpt>
      <trkpt lat="48.77972" lon="1.87422">
        <ele>132.4</ele>
        <time>2023-12-20T10:19:26Z</time>
      </trkpt>
      <trkpt lat="48.77978" lon="1.87421">
        <ele>132</ele>
        <time>2023-12-20T10:19:27Z</time>
      </trkpt>
      <trkpt lat="48.77984" lon="1.87419">
        <ele>132</ele>
        <time>2023-12-20T10:19:28Z</time>
      </trkpt>
      <trkpt lat="48.7799" lon="1.87418">
        <ele>132</ele>
        <time>2023-12-20T10:19:29Z</time>
      </trkpt>
      <trkpt lat="48.77997" lon="1.87417">
        <ele>132</ele>
        <time>2023-12-20T10:19:30Z</time>
      </trkpt>
      <trkpt lat="48.78003" lon="1.87417">
        <ele>131.2</ele>
        <time>2023-12-20T10:19:31Z</time>
      </trkpt>
      <trkpt lat="48.78009" lon="1.8742">
        <ele>131.2</ele>
        <time>2023-12-20T10:19:32Z</time>
      </trkpt>
      <trkpt lat="48.78015" lon="1.8742">
        <ele>131.2</ele>
        <time>2023-12-20T10:19:33Z</time>
      </trkpt>
      <trkpt lat="48.78022" lon="1.8742">
        <ele>131.6</ele>
        <time>2023-12-20T10:19:34Z</time>
      </trkpt>
      <trkpt lat="48.78029" lon="1.8742">
        <ele>131.8</ele>
        <time>2023-12-20T10:19:35Z</time>
      </trkpt>
      <trkpt lat="48.78035" lon="1.8742">
        <ele>131.8</ele>
        <time>2023-12-20T10:19:36Z</time>
      </trkpt>
      <trkpt lat="48.78042" lon="1.87421">
        <ele>131.8</ele>
        <time>2023-12-20T10:19:37Z</time>
      </trkpt>
      <trkpt lat="48.78049" lon="1.87421">
        <ele>131.8</ele>
        <time>2023-12-20T10:19:38Z</time>
      </trkpt>
      <trkpt lat="48.78056" lon="1.87421">
        <ele>132</ele>
        <time>2023-12-20T10:19:39Z</time>
      </trkpt>
      <trkpt lat="48.78063" lon="1.87421">
        <ele>132</ele>
        <time>2023-12-20T10:19:40Z</time>
      </trkpt>
      <trkpt lat="48.7807" lon="1.8742">
        <ele>132</ele>
        <time>2023-12-20T10:19:41Z</time>
      </trkpt>
      <trkpt lat="48.78078" lon="1.8742">
        <ele>131.4</ele>
        <time>2023-12-20T10:19:42Z</time>
      </trkpt>
      <trkpt lat="48.78085" lon="1.87421">
        <ele>131.4</ele>
        <time>2023-12-20T10:19:43Z</time>
      </trkpt>
      <trkpt lat="48.78093" lon="1.87421">
        <ele>131.4</ele>
        <time>2023-12-20T10:19:44Z</time>
      </trkpt>
      <trkpt lat="48.78101" lon="1.87421">
        <ele>131.4</ele>
        <time>2023-12-20T10:19:45Z</time>
      </trkpt>
      <trkpt lat="48.78109" lon="1.87422">
        <ele>131.4</ele>
        <time>2023-12-20T10:19:46Z</time>
      </trkpt>
      <trkpt lat="48.78117" lon="1.87422">
        <ele>131</ele>
        <time>2023-12-20T10:19:47Z</time>
      </trkpt>
      <trkpt lat="48.78125" lon="1.87422">
        <ele>131</ele>
        <time>2023-12-20T10:19:48Z</time>
      </trkpt>
      <trkpt lat="48.78133" lon="1.87422">
        <ele>131</ele>
        <time>2023-12-20T10:19:49Z</time>
      </trkpt>
      <trkpt lat="48.78141" lon="1.87421">
        <ele>130</ele>
        <time>2023-12-20T10:19:50Z</time>
      </trkpt>
      <trkpt lat="48.78149" lon="1.87421">
        <ele>130.4</ele>
        <time>2023-12-20T10:19:51Z</time>
      </trkpt>
      <trkpt lat="48.78157" lon="1.87421">
        <ele>130.4</ele>
        <time>2023-12-20T10:19:52Z</time>
      </trkpt>
      <trkpt lat="48.78165" lon="1.87421">
        <ele>130.4</ele>
        <time>2023-12-20T10:19:53Z</time>
      </trkpt>
      <trkpt lat="48.78173" lon="1.87421">
        <ele>129.6</ele>
        <time>2023-12-20T10:19:54Z</time>
      </trkpt>
      <trkpt lat="48.78182" lon="1.87421">
        <ele>129.4</ele>
        <time>2023-12-20T10:19:55Z</time>
      </trkpt>
      <trkpt lat="48.7819" lon="1.87421">
        <ele>129.4</ele>
        <time>2023-12-20T10:19:56Z</time>
      </trkpt>
      <trkpt lat="48.78198" lon="1.8742">
        <ele>129.4</ele>
        <time>2023-12-20T10:19:57Z</time>
      </trkpt>
      <trkpt lat="48.78206" lon="1.8742">
        <ele>129</ele>
        <time>2023-12-20T10:19:58Z</time>
      </trkpt>
      <trkpt lat="48.78214" lon="1.8742">
        <ele>128.6</ele>
        <time>2023-12-20T10:19:59Z</time>
      </trkpt>
      <trkpt lat="48.78222" lon="1.87419">
        <ele>128.6</ele>
        <time>2023-12-20T10:20:00Z</time>
      </trkpt>
      <trkpt lat="48.78229" lon="1.87418">
        <ele>128.6</ele>
        <time>2023-12-20T10:20:01Z</time>
      </trkpt>
      <trkpt lat="48.78237" lon="1.87418">
        <ele>128</ele>
        <time>2023-12-20T10:20:02Z</time>
      </trkpt>
      <trkpt lat="48.78245" lon="1.87418">
        <ele>127.6</ele>
        <time>2023-12-20T10:20:03Z</time>
      </trkpt>
      <trkpt lat="48.78252" lon="1.87417">
        <ele>127.6</ele>
        <time>2023-12-20T10:20:04Z</time>
      </trkpt>
      <trkpt lat="48.7826" lon="1.87417">
        <ele>127.6</ele>
        <time>2023-12-20T10:20:05Z</time>
      </trkpt>
      <trkpt lat="48.78267" lon="1.87416">
        <ele>127.4</ele>
        <time>2023-12-20T10:20:06Z</time>
      </trkpt>
      <trkpt lat="48.78275" lon="1.87414">
        <ele>127.4</ele>
        <time>2023-12-20T10:20:07Z</time>
      </trkpt>
      <trkpt lat="48.78282" lon="1.87413">
        <ele>127.4</ele>
        <time>2023-12-20T10:20:08Z</time>
      </trkpt>
      <trkpt lat="48.7829" lon="1.87411">
        <ele>127.4</ele>
        <time>2023-12-20T10:20:09Z</time>
      </trkpt>
      <trkpt lat="48.78297" lon="1.87409">
        <ele>127</ele>
        <time>2023-12-20T10:20:10Z</time>
      </trkpt>
      <trkpt lat="48.78305" lon="1.87407">
        <ele>127.2</ele>
        <time>2023-12-20T10:20:11Z</time>
      </trkpt>
      <trkpt lat="48.78312" lon="1.87404">
        <ele>127.2</ele>
        <time>2023-12-20T10:20:12Z</time>
      </trkpt>
      <trkpt lat="48.7832" lon="1.87401">
        <ele>127.2</ele>
        <time>2023-12-20T10:20:13Z</time>
      </trkpt>
      <trkpt lat="48.78327" lon="1.87397">
        <ele>127</ele>
        <time>2023-12-20T10:20:14Z</time>
      </trkpt>
      <trkpt lat="48.78334" lon="1.87392">
        <ele>127</ele>
        <time>2023-12-20T10:20:15Z</time>
      </trkpt>
      <trkpt lat="48.78341" lon="1.87387">
        <ele>127</ele>
        <time>2023-12-20T10:20:16Z</time>
      </trkpt>
      <trkpt lat="48.78348" lon="1.87383">
        <ele>127</ele>
        <time>2023-12-20T10:20:17Z</time>
      </trkpt>
      <trkpt lat="48.78355" lon="1.87379">
        <ele>127</ele>
        <time>2023-12-20T10:20:18Z</time>
      </trkpt>
      <trkpt lat="48.78362" lon="1.87374">
        <ele>127</ele>
        <time>2023-12-20T10:20:19Z</time>
      </trkpt>
      <trkpt lat="48.78369" lon="1.8737">
        <ele>127</ele>
        <time>2023-12-20T10:20:20Z</time>
      </trkpt>
      <trkpt lat="48.78376" lon="1.87365">
        <ele>127</ele>
        <time>2023-12-20T10:20:21Z</time>
      </trkpt>
      <trkpt lat="48.78383" lon="1.8736">
        <ele>127</ele>
        <time>2023-12-20T10:20:22Z</time>
      </trkpt>
      <trkpt lat="48.7839" lon="1.87356">
        <ele>127</ele>
        <time>2023-12-20T10:20:23Z</time>
      </trkpt>
      <trkpt lat="48.78397" lon="1.87351">
        <ele>127</ele>
        <time>2023-12-20T10:20:24Z</time>
      </trkpt>
      <trkpt lat="48.78404" lon="1.87346">
        <ele>127</ele>
        <time>2023-12-20T10:20:25Z</time>
      </trkpt>
      <trkpt lat="48.78411" lon="1.8734">
        <ele>127</ele>
        <time>2023-12-20T10:20:26Z</time>
      </trkpt>
      <trkpt lat="48.78417" lon="1.87334">
        <ele>126.6</ele>
        <time>2023-12-20T10:20:27Z</time>
      </trkpt>
      <trkpt lat="48.78424" lon="1.87328">
        <ele>126.6</ele>
        <time>2023-12-20T10:20:28Z</time>
      </trkpt>
      <trkpt lat="48.7843" lon="1.87322">
        <ele>126.6</ele>
        <time>2023-12-20T10:20:29Z</time>
      </trkpt>
      <trkpt lat="48.78437" lon="1.87316">
        <ele>127</ele>
        <time>2023-12-20T10:20:30Z</time>
      </trkpt>
      <trkpt lat="48.78443" lon="1.8731">
        <ele>126.8</ele>
        <time>2023-12-20T10:20:31Z</time>
      </trkpt>
      <trkpt lat="48.78449" lon="1.87304">
        <ele>126.8</ele>
        <time>2023-12-20T10:20:32Z</time>
      </trkpt>
      <trkpt lat="48.78455" lon="1.87299">
        <ele>126.8</ele>
        <time>2023-12-20T10:20:33Z</time>
      </trkpt>
      <trkpt lat="48.78462" lon="1.87296">
        <ele>126.8</ele>
        <time>2023-12-20T10:20:34Z</time>
      </trkpt>
      <trkpt lat="48.78469" lon="1.87294">
        <ele>127.2</ele>
        <time>2023-12-20T10:20:35Z</time>
      </trkpt>
      <trkpt lat="48.78475" lon="1.87292">
        <ele>127.2</ele>
        <time>2023-12-20T10:20:36Z</time>
      </trkpt>
      <trkpt lat="48.78482" lon="1.87287">
        <ele>127.2</ele>
        <time>2023-12-20T10:20:37Z</time>
      </trkpt>
      <trkpt lat="48.78487" lon="1.87281">
        <ele>126.6</ele>
        <time>2023-12-20T10:20:38Z</time>
      </trkpt>
      <trkpt lat="48.78491" lon="1.87273">
        <ele>126.2</ele>
        <time>2023-12-20T10:20:39Z</time>
      </trkpt>
      <trkpt lat="48.78495" lon="1.87266">
        <ele>126.2</ele>
        <time>2023-12-20T10:20:40Z</time>
      </trkpt>
      <trkpt lat="48.785" lon="1.87259">
        <ele>126.2</ele>
        <time>2023-12-20T10:20:41Z</time>
      </trkpt>
      <trkpt lat="48.78506" lon="1.87252">
        <ele>126.2</ele>
        <time>2023-12-20T10:20:42Z</time>
      </trkpt>
      <trkpt lat="48.78513" lon="1.87247">
        <ele>126.6</ele>
        <time>2023-12-20T10:20:43Z</time>
      </trkpt>
      <trkpt lat="48.7852" lon="1.87244">
        <ele>126.6</ele>
        <time>2023-12-20T10:20:44Z</time>
      </trkpt>
      <trkpt lat="48.78527" lon="1.87241">
        <ele>126.6</ele>
        <time>2023-12-20T10:20:45Z</time>
      </trkpt>
      <trkpt lat="48.78535" lon="1.87239">
        <ele>126.6</ele>
        <time>2023-12-20T10:20:46Z</time>
      </trkpt>
      <trkpt lat="48.78543" lon="1.87237">
        <ele>126</ele>
        <time>2023-12-20T10:20:47Z</time>
      </trkpt>
      <trkpt lat="48.78551" lon="1.87237">
        <ele>126</ele>
        <time>2023-12-20T10:20:48Z</time>
      </trkpt>
      <trkpt lat="48.78559" lon="1.87238">
        <ele>126</ele>
        <time>2023-12-20T10:20:49Z</time>
      </trkpt>
      <trkpt lat="48.78567" lon="1.87239">
        <ele>125</ele>
        <time>2023-12-20T10:20:50Z</time>
      </trkpt>
      <trkpt lat="48.78576" lon="1.87241">
        <ele>124.6</ele>
        <time>2023-12-20T10:20:51Z</time>
      </trkpt>
      <trkpt lat="48.78584" lon="1.87243">
        <ele>124.6</ele>
        <time>2023-12-20T10:20:52Z</time>
      </trkpt>
      <trkpt lat="48.78593" lon="1.87245">
        <ele>124.6</ele>
        <time>2023-12-20T10:20:53Z</time>
      </trkpt>
      <trkpt lat="48.78602" lon="1.87247">
        <ele>124.6</ele>
        <time>2023-12-20T10:20:54Z</time>
      </trkpt>
      <trkpt lat="48.78611" lon="1.8725">
        <ele>124.4</ele>
        <time>2023-12-20T10:20:55Z</time>
      </trkpt>
      <trkpt lat="48.78619" lon="1.87252">
        <ele>124.4</ele>
        <time>2023-12-20T10:20:56Z</time>
      </trkpt>
      <trkpt lat="48.78628" lon="1.87254">
        <ele>124.4</ele>
        <time>2023-12-20T10:20:57Z</time>
      </trkpt>
      <trkpt lat="48.78637" lon="1.87255">
        <ele>123.4</ele>
        <time>2023-12-20T10:20:58Z</time>
      </trkpt>
      <trkpt lat="48.78646" lon="1.87256">
        <ele>123.6</ele>
        <time>2023-12-20T10:20:59Z</time>
      </trkpt>
      <trkpt lat="48.78654" lon="1.87256">
        <ele>123.6</ele>
        <time>2023-12-20T10:21:00Z</time>
      </trkpt>
      <trkpt lat="48.78663" lon="1.87255">
        <ele>123.6</ele>
        <time>2023-12-20T10:21:01Z</time>
      </trkpt>
      <trkpt lat="48.78672" lon="1.87252">
        <ele>122.6</ele>
        <time>2023-12-20T10:21:02Z</time>
      </trkpt>
      <trkpt lat="48.78681" lon="1.87249">
        <ele>122.4</ele>
        <time>2023-12-20T10:21:03Z</time>
      </trkpt>
      <trkpt lat="48.7869" lon="1.87245">
        <ele>122.4</ele>
        <time>2023-12-20T10:21:04Z</time>
      </trkpt>
      <trkpt lat="48.78699" lon="1.87241">
        <ele>122.4</ele>
        <time>2023-12-20T10:21:05Z</time>
      </trkpt>
      <trkpt lat="48.78707" lon="1.87236">
        <ele>122.2</ele>
        <time>2023-12-20T10:21:06Z</time>
      </trkpt>
      <trkpt lat="48.78716" lon="1.87232">
        <ele>122.2</ele>
        <time>2023-12-20T10:21:07Z</time>
      </trkpt>
      <trkpt lat="48.78724" lon="1.87226">
        <ele>122.2</ele>
        <time>2023-12-20T10:21:08Z</time>
      </trkpt>
      <trkpt lat="48.78732" lon="1.8722">
        <ele>122.2</ele>
        <time>2023-12-20T10:21:09Z</time>
      </trkpt>
      <trkpt lat="48.7874" lon="1.87214">
        <ele>122.2</ele>
        <time>2023-12-20T10:21:10Z</time>
      </trkpt>
      <trkpt lat="48.78747" lon="1.87207">
        <ele>121.2</ele>
        <time>2023-12-20T10:21:11Z</time>
      </trkpt>
      <trkpt lat="48.78754" lon="1.87199">
        <ele>121.2</ele>
        <time>2023-12-20T10:21:12Z</time>
      </trkpt>
      <trkpt lat="48.7876" lon="1.8719">
        <ele>121.2</ele>
        <time>2023-12-20T10:21:13Z</time>
      </trkpt>
      <trkpt lat="48.78765" lon="1.87181">
        <ele>121.2</ele>
        <time>2023-12-20T10:21:14Z</time>
      </trkpt>
      <trkpt lat="48.7877" lon="1.87172">
        <ele>121.2</ele>
        <time>2023-12-20T10:21:15Z</time>
      </trkpt>
      <trkpt lat="48.78775" lon="1.87163">
        <ele>121.2</ele>
        <time>2023-12-20T10:21:16Z</time>
      </trkpt>
      <trkpt lat="48.78781" lon="1.87154">
        <ele>121.2</ele>
        <time>2023-12-20T10:21:17Z</time>
      </trkpt>
      <trkpt lat="48.78786" lon="1.87145">
        <ele>120.2</ele>
        <time>2023-12-20T10:21:18Z</time>
      </trkpt>
      <trkpt lat="48.78791" lon="1.87137">
        <ele>120</ele>
        <time>2023-12-20T10:21:19Z</time>
      </trkpt>
      <trkpt lat="48.78797" lon="1.87129">
        <ele>120</ele>
        <time>2023-12-20T10:21:20Z</time>
      </trkpt>
      <trkpt lat="48.78803" lon="1.87121">
        <ele>120</ele>
        <time>2023-12-20T10:21:21Z</time>
      </trkpt>
      <trkpt lat="48.78809" lon="1.87113">
        <ele>119.8</ele>
        <time>2023-12-20T10:21:22Z</time>
      </trkpt>
      <trkpt lat="48.78816" lon="1.87106">
        <ele>119.6</ele>
        <time>2023-12-20T10:21:23Z</time>
      </trkpt>
      <trkpt lat="48.78822" lon="1.871">
        <ele>119.6</ele>
        <time>2023-12-20T10:21:24Z</time>
      </trkpt>
      <trkpt lat="48.78829" lon="1.87094">
        <ele>119.6</ele>
        <time>2023-12-20T10:21:25Z</time>
      </trkpt>
      <trkpt lat="48.78836" lon="1.87089">
        <ele>119.6</ele>
        <time>2023-12-20T10:21:26Z</time>
      </trkpt>
      <trkpt lat="48.78843" lon="1.87085">
        <ele>119.4</ele>
        <time>2023-12-20T10:21:27Z</time>
      </trkpt>
      <trkpt lat="48.78851" lon="1.87082">
        <ele>119.4</ele>
        <time>2023-12-20T10:21:28Z</time>
      </trkpt>
      <trkpt lat="48.78858" lon="1.87079">
        <ele>119.4</ele>
        <time>2023-12-20T10:21:29Z</time>
      </trkpt>
      <trkpt lat="48.78866" lon="1.87077">
        <ele>119.4</ele>
        <time>2023-12-20T10:21:30Z</time>
      </trkpt>
      <trkpt lat="48.78873" lon="1.87076">
        <ele>119.2</ele>
        <time>2023-12-20T10:21:31Z</time>
      </trkpt>
      <trkpt lat="48.7888" lon="1.87075">
        <ele>119.2</ele>
        <time>2023-12-20T10:21:32Z</time>
      </trkpt>
      <trkpt lat="48.78888" lon="1.87075">
        <ele>119.2</ele>
        <time>2023-12-20T10:21:33Z</time>
      </trkpt>
      <trkpt lat="48.78895" lon="1.87075">
        <ele>118.8</ele>
        <time>2023-12-20T10:21:34Z</time>
      </trkpt>
      <trkpt lat="48.78903" lon="1.87075">
        <ele>118.4</ele>
        <time>2023-12-20T10:21:35Z</time>
      </trkpt>
      <trkpt lat="48.7891" lon="1.87076">
        <ele>118.4</ele>
        <time>2023-12-20T10:21:36Z</time>
      </trkpt>
      <trkpt lat="48.78918" lon="1.87076">
        <ele>118.4</ele>
        <time>2023-12-20T10:21:37Z</time>
      </trkpt>
      <trkpt lat="48.78925" lon="1.87077">
        <ele>117.8</ele>
        <time>2023-12-20T10:21:38Z</time>
      </trkpt>
      <trkpt lat="48.78932" lon="1.87079">
        <ele>117.6</ele>
        <time>2023-12-20T10:21:39Z</time>
      </trkpt>
      <trkpt lat="48.7894" lon="1.87081">
        <ele>117.6</ele>
        <time>2023-12-20T10:21:40Z</time>
      </trkpt>
      <trkpt lat="48.78948" lon="1.87083">
        <ele>117.6</ele>
        <time>2023-12-20T10:21:41Z</time>
      </trkpt>
      <trkpt lat="48.78956" lon="1.87086">
        <ele>117</ele>
        <time>2023-12-20T10:21:42Z</time>
      </trkpt>
      <trkpt lat="48.78963" lon="1.8709">
        <ele>116.8</ele>
        <time>2023-12-20T10:21:43Z</time>
      </trkpt>
      <trkpt lat="48.78971" lon="1.87094">
        <ele>116.8</ele>
        <time>2023-12-20T10:21:44Z</time>
      </trkpt>
      <trkpt lat="48.78979" lon="1.87098">
        <ele>116.8</ele>
        <time>2023-12-20T10:21:45Z</time>
      </trkpt>
      <trkpt lat="48.78987" lon="1.87102">
        <ele>115.8</ele>
        <time>2023-12-20T10:21:46Z</time>
      </trkpt>
      <trkpt lat="48.78995" lon="1.87105">
        <ele>115.8</ele>
        <time>2023-12-20T10:21:47Z</time>
      </trkpt>
      <trkpt lat="48.79003" lon="1.87109">
        <ele>115.8</ele>
        <time>2023-12-20T10:21:48Z</time>
      </trkpt>
      <trkpt lat="48.79011" lon="1.87113">
        <ele>115.8</ele>
        <time>2023-12-20T10:21:49Z</time>
      </trkpt>
      <trkpt lat="48.79019" lon="1.87116">
        <ele>114.8</ele>
        <time>2023-12-20T10:21:50Z</time>
      </trkpt>
      <trkpt lat="48.79027" lon="1.87119">
        <ele>114.4</ele>
        <time>2023-12-20T10:21:51Z</time>
      </trkpt>
      <trkpt lat="48.79035" lon="1.87122">
        <ele>114.4</ele>
        <time>2023-12-20T10:21:52Z</time>
      </trkpt>
      <trkpt lat="48.79043" lon="1.87124">
        <ele>114.4</ele>
        <time>2023-12-20T10:21:53Z</time>
      </trkpt>
      <trkpt lat="48.79051" lon="1.87125">
        <ele>114.4</ele>
        <time>2023-12-20T10:21:54Z</time>
      </trkpt>
      <trkpt lat="48.79059" lon="1.87126">
        <ele>113.4</ele>
        <time>2023-12-20T10:21:55Z</time>
      </trkpt>
      <trkpt lat="48.79067" lon="1.87125">
        <ele>113.4</ele>
        <time>2023-12-20T10:21:56Z</time>
      </trkpt>
      <trkpt lat="48.79075" lon="1.87124">
        <ele>113.4</ele>
        <time>2023-12-20T10:21:57Z</time>
      </trkpt>
      <trkpt lat="48.79082" lon="1.87123">
        <ele>113.4</ele>
        <time>2023-12-20T10:21:58Z</time>
      </trkpt>
      <trkpt lat="48.7909" lon="1.87122">
        <ele>113.2</ele>
        <time>2023-12-20T10:21:59Z</time>
      </trkpt>
      <trkpt lat="48.79098" lon="1.8712">
        <ele>113.2</ele>
        <time>2023-12-20T10:22:00Z</time>
      </trkpt>
      <trkpt lat="48.79106" lon="1.87117">
        <ele>113.2</ele>
        <time>2023-12-20T10:22:01Z</time>
      </trkpt>
      <trkpt lat="48.79114" lon="1.87115">
        <ele>113.2</ele>
        <time>2023-12-20T10:22:02Z</time>
      </trkpt>
      <trkpt lat="48.79122" lon="1.87112">
        <ele>113</ele>
        <time>2023-12-20T10:22:03Z</time>
      </trkpt>
      <trkpt lat="48.7913" lon="1.87109">
        <ele>113</ele>
        <time>2023-12-20T10:22:04Z</time>
      </trkpt>
      <trkpt lat="48.79139" lon="1.87106">
        <ele>113</ele>
        <time>2023-12-20T10:22:05Z</time>
      </trkpt>
      <trkpt lat="48.79147" lon="1.87103">
        <ele>113</ele>
        <time>2023-12-20T10:22:06Z</time>
      </trkpt>
      <trkpt lat="48.79155" lon="1.871">
        <ele>113.2</ele>
        <time>2023-12-20T10:22:07Z</time>
      </trkpt>
      <trkpt lat="48.79163" lon="1.87097">
        <ele>113.2</ele>
        <time>2023-12-20T10:22:08Z</time>
      </trkpt>
      <trkpt lat="48.79171" lon="1.87095">
        <ele>113.2</ele>
        <time>2023-12-20T10:22:09Z</time>
      </trkpt>
      <trkpt lat="48.79179" lon="1.87093">
        <ele>113.6</ele>
        <time>2023-12-20T10:22:10Z</time>
      </trkpt>
      <trkpt lat="48.79187" lon="1.87091">
        <ele>113.6</ele>
        <time>2023-12-20T10:22:11Z</time>
      </trkpt>
      <trkpt lat="48.79195" lon="1.8709">
        <ele>113.6</ele>
        <time>2023-12-20T10:22:12Z</time>
      </trkpt>
      <trkpt lat="48.79203" lon="1.87089">
        <ele>113.6</ele>
        <time>2023-12-20T10:22:13Z</time>
      </trkpt>
      <trkpt lat="48.79211" lon="1.87087">
        <ele>113.6</ele>
        <time>2023-12-20T10:22:14Z</time>
      </trkpt>
      <trkpt lat="48.79219" lon="1.87087">
        <ele>113</ele>
        <time>2023-12-20T10:22:15Z</time>
      </trkpt>
      <trkpt lat="48.79227" lon="1.87086">
        <ele>113</ele>
        <time>2023-12-20T10:22:16Z</time>
      </trkpt>
      <trkpt lat="48.79235" lon="1.87086">
        <ele>113</ele>
        <time>2023-12-20T10:22:17Z</time>
      </trkpt>
      <trkpt lat="48.79242" lon="1.87086">
        <ele>113</ele>
        <time>2023-12-20T10:22:18Z</time>
      </trkpt>
      <trkpt lat="48.7925" lon="1.87087">
        <ele>112.6</ele>
        <time>2023-12-20T10:22:19Z</time>
      </trkpt>
      <trkpt lat="48.79258" lon="1.87087">
        <ele>112.6</ele>
        <time>2023-12-20T10:22:20Z</time>
      </trkpt>
      <trkpt lat="48.79266" lon="1.87088">
        <ele>112.6</ele>
        <time>2023-12-20T10:22:21Z</time>
      </trkpt>
      <trkpt lat="48.79273" lon="1.87089">
        <ele>112.6</ele>
        <time>2023-12-20T10:22:22Z</time>
      </trkpt>
      <trkpt lat="48.79281" lon="1.8709">
        <ele>111.8</ele>
        <time>2023-12-20T10:22:23Z</time>
      </trkpt>
      <trkpt lat="48.79289" lon="1.87091">
        <ele>111.8</ele>
        <time>2023-12-20T10:22:24Z</time>
      </trkpt>
      <trkpt lat="48.79296" lon="1.87092">
        <ele>111.8</ele>
        <time>2023-12-20T10:22:25Z</time>
      </trkpt>
      <trkpt lat="48.79304" lon="1.87094">
        <ele>111.4</ele>
        <time>2023-12-20T10:22:26Z</time>
      </trkpt>
      <trkpt lat="48.79312" lon="1.87095">
        <ele>111.2</ele>
        <time>2023-12-20T10:22:27Z</time>
      </trkpt>
      <trkpt lat="48.79319" lon="1.87095">
        <ele>111.2</ele>
        <time>2023-12-20T10:22:28Z</time>
      </trkpt>
      <trkpt lat="48.79327" lon="1.87096">
        <ele>111.2</ele>
        <time>2023-12-20T10:22:29Z</time>
      </trkpt>
      <trkpt lat="48.79334" lon="1.87097">
        <ele>110.4</ele>
        <time>2023-12-20T10:22:30Z</time>
      </trkpt>
      <trkpt lat="48.79342" lon="1.87098">
        <ele>110.2</ele>
        <time>2023-12-20T10:22:31Z</time>
      </trkpt>
      <trkpt lat="48.79349" lon="1.871">
        <ele>110.2</ele>
        <time>2023-12-20T10:22:32Z</time>
      </trkpt>
      <trkpt lat="48.79357" lon="1.87101">
        <ele>110.2</ele>
        <time>2023-12-20T10:22:33Z</time>
      </trkpt>
      <trkpt lat="48.79364" lon="1.87102">
        <ele>109.2</ele>
        <time>2023-12-20T10:22:34Z</time>
      </trkpt>
      <trkpt lat="48.79372" lon="1.87103">
        <ele>109</ele>
        <time>2023-12-20T10:22:35Z</time>
      </trkpt>
      <trkpt lat="48.79379" lon="1.87103">
        <ele>109</ele>
        <time>2023-12-20T10:22:36Z</time>
      </trkpt>
      <trkpt lat="48.79387" lon="1.87104">
        <ele>109</ele>
        <time>2023-12-20T10:22:37Z</time>
      </trkpt>
      <trkpt lat="48.79395" lon="1.87105">
        <ele>108.8</ele>
        <time>2023-12-20T10:22:38Z</time>
      </trkpt>
      <trkpt lat="48.79403" lon="1.87106">
        <ele>108</ele>
        <time>2023-12-20T10:22:39Z</time>
      </trkpt>
      <trkpt lat="48.79411" lon="1.87107">
        <ele>108</ele>
        <time>2023-12-20T10:22:40Z</time>
      </trkpt>
      <trkpt lat="48.79419" lon="1.87108">
        <ele>108</ele>
        <time>2023-12-20T10:22:41Z</time>
      </trkpt>
      <trkpt lat="48.79427" lon="1.87109">
        <ele>107.6</ele>
        <time>2023-12-20T10:22:42Z</time>
      </trkpt>
      <trkpt lat="48.79435" lon="1.87111">
        <ele>107.2</ele>
        <time>2023-12-20T10:22:43Z</time>
      </trkpt>
      <trkpt lat="48.79443" lon="1.87112">
        <ele>107.2</ele>
        <time>2023-12-20T10:22:44Z</time>
      </trkpt>
      <trkpt lat="48.79451" lon="1.87113">
        <ele>107.2</ele>
        <time>2023-12-20T10:22:45Z</time>
      </trkpt>
      <trkpt lat="48.79459" lon="1.87114">
        <ele>107.2</ele>
        <time>2023-12-20T10:22:46Z</time>
      </trkpt>
      <trkpt lat="48.79467" lon="1.87114">
        <ele>106.4</ele>
        <time>2023-12-20T10:22:47Z</time>
      </trkpt>
      <trkpt lat="48.79474" lon="1.87115">
        <ele>106.4</ele>
        <time>2023-12-20T10:22:48Z</time>
      </trkpt>
      <trkpt lat="48.79482" lon="1.87116">
        <ele>106.4</ele>
        <time>2023-12-20T10:22:49Z</time>
      </trkpt>
      <trkpt lat="48.79489" lon="1.87117">
        <ele>105.4</ele>
        <time>2023-12-20T10:22:50Z</time>
      </trkpt>
      <trkpt lat="48.79496" lon="1.87118">
        <ele>105.4</ele>
        <time>2023-12-20T10:22:51Z</time>
      </trkpt>
      <trkpt lat="48.79504" lon="1.87119">
        <ele>105.4</ele>
        <time>2023-12-20T10:22:52Z</time>
      </trkpt>
      <trkpt lat="48.79511" lon="1.8712">
        <ele>105.4</ele>
        <time>2023-12-20T10:22:53Z</time>
      </trkpt>
      <trkpt lat="48.79518" lon="1.87121">
        <ele>104.6</ele>
        <time>2023-12-20T10:22:54Z</time>
      </trkpt>
      <trkpt lat="48.79525" lon="1.87122">
        <ele>105.2</ele>
        <time>2023-12-20T10:22:55Z</time>
      </trkpt>
      <trkpt lat="48.79532" lon="1.87123">
        <ele>105.2</ele>
        <time>2023-12-20T10:22:56Z</time>
      </trkpt>
      <trkpt lat="48.79539" lon="1.87124">
        <ele>105.2</ele>
        <time>2023-12-20T10:22:57Z</time>
      </trkpt>
      <trkpt lat="48.79546" lon="1.87125">
        <ele>104.2</ele>
        <time>2023-12-20T10:22:58Z</time>
      </trkpt>
      <trkpt lat="48.79553" lon="1.87126">
        <ele>105</ele>
        <time>2023-12-20T10:22:59Z</time>
      </trkpt>
      <trkpt lat="48.79561" lon="1.87127">
        <ele>105</ele>
        <time>2023-12-20T10:23:00Z</time>
      </trkpt>
      <trkpt lat="48.79568" lon="1.87127">
        <ele>105</ele>
        <time>2023-12-20T10:23:01Z</time>
      </trkpt>
      <trkpt lat="48.79574" lon="1.87128">
        <ele>104</ele>
        <time>2023-12-20T10:23:02Z</time>
      </trkpt>
      <trkpt lat="48.79581" lon="1.87129">
        <ele>103.2</ele>
        <time>2023-12-20T10:23:03Z</time>
      </trkpt>
      <trkpt lat="48.79588" lon="1.8713">
        <ele>103.2</ele>
        <time>2023-12-20T10:23:04Z</time>
      </trkpt>
      <trkpt lat="48.79594" lon="1.8713">
        <ele>103.2</ele>
        <time>2023-12-20T10:23:05Z</time>
      </trkpt>
      <trkpt lat="48.79601" lon="1.8713">
        <ele>102.8</ele>
        <time>2023-12-20T10:23:06Z</time>
      </trkpt>
      <trkpt lat="48.79607" lon="1.87131">
        <ele>102.2</ele>
        <time>2023-12-20T10:23:07Z</time>
      </trkpt>
      <trkpt lat="48.79613" lon="1.87132">
        <ele>102.2</ele>
        <time>2023-12-20T10:23:08Z</time>
      </trkpt>
      <trkpt lat="48.79619" lon="1.87133">
        <ele>102.2</ele>
        <time>2023-12-20T10:23:09Z</time>
      </trkpt>
      <trkpt lat="48.79625" lon="1.87133">
        <ele>102.2</ele>
        <time>2023-12-20T10:23:10Z</time>
      </trkpt>
      <trkpt lat="48.79631" lon="1.87134">
        <ele>102.2</ele>
        <time>2023-12-20T10:23:11Z</time>
      </trkpt>
      <trkpt lat="48.79637" lon="1.87135">
        <ele>102.2</ele>
        <time>2023-12-20T10:23:12Z</time>
      </trkpt>
      <trkpt lat="48.79642" lon="1.87136">
        <ele>102.2</ele>
        <time>2023-12-20T10:23:13Z</time>
      </trkpt>
      <trkpt lat="48.79647" lon="1.87136">
        <ele>101.8</ele>
        <time>2023-12-20T10:23:14Z</time>
      </trkpt>
      <trkpt lat="48.79653" lon="1.87136">
        <ele>102</ele>
        <time>2023-12-20T10:23:15Z</time>
      </trkpt>
      <trkpt lat="48.79659" lon="1.87136">
        <ele>102</ele>
        <time>2023-12-20T10:23:16Z</time>
      </trkpt>
      <trkpt lat="48.79665" lon="1.87136">
        <ele>102</ele>
        <time>2023-12-20T10:23:17Z</time>
      </trkpt>
      <trkpt lat="48.79671" lon="1.87135">
        <ele>102</ele>
        <time>2023-12-20T10:23:18Z</time>
      </trkpt>
      <trkpt lat="48.79677" lon="1.87134">
        <ele>102.6</ele>
        <time>2023-12-20T10:23:19Z</time>
      </trkpt>
      <trkpt lat="48.79683" lon="1.87132">
        <ele>102.6</ele>
        <time>2023-12-20T10:23:20Z</time>
      </trkpt>
      <trkpt lat="48.79689" lon="1.87129">
        <ele>102.6</ele>
        <time>2023-12-20T10:23:21Z</time>
      </trkpt>
      <trkpt lat="48.79696" lon="1.87127">
        <ele>102.2</ele>
        <time>2023-12-20T10:23:22Z</time>
      </trkpt>
      <trkpt lat="48.79702" lon="1.87124">
        <ele>102.2</ele>
        <time>2023-12-20T10:23:23Z</time>
      </trkpt>
      <trkpt lat="48.79708" lon="1.87121">
        <ele>102.2</ele>
        <time>2023-12-20T10:23:24Z</time>
      </trkpt>
      <trkpt lat="48.79715" lon="1.87117">
        <ele>102.2</ele>
        <time>2023-12-20T10:23:25Z</time>
      </trkpt>
      <trkpt lat="48.79722" lon="1.87114">
        <ele>102.8</ele>
        <time>2023-12-20T10:23:26Z</time>
      </trkpt>
      <trkpt lat="48.79728" lon="1.8711">
        <ele>103</ele>
        <time>2023-12-20T10:23:27Z</time>
      </trkpt>
      <trkpt lat="48.79734" lon="1.87106">
        <ele>103</ele>
        <time>2023-12-20T10:23:28Z</time>
      </trkpt>
      <trkpt lat="48.7974" lon="1.87101">
        <ele>103</ele>
        <time>2023-12-20T10:23:29Z</time>
      </trkpt>
      <trkpt lat="48.79746" lon="1.87097">
        <ele>103</ele>
        <time>2023-12-20T10:23:30Z</time>
      </trkpt>
      <trkpt lat="48.79753" lon="1.87093">
        <ele>103.4</ele>
        <time>2023-12-20T10:23:31Z</time>
      </trkpt>
      <trkpt lat="48.79759" lon="1.8709">
        <ele>103.4</ele>
        <time>2023-12-20T10:23:32Z</time>
      </trkpt>
      <trkpt lat="48.79765" lon="1.87086">
        <ele>103.4</ele>
        <time>2023-12-20T10:23:33Z</time>
      </trkpt>
      <trkpt lat="48.79771" lon="1.87082">
        <ele>104</ele>
        <time>2023-12-20T10:23:34Z</time>
      </trkpt>
      <trkpt lat="48.79777" lon="1.87078">
        <ele>103.8</ele>
        <time>2023-12-20T10:23:35Z</time>
      </trkpt>
      <trkpt lat="48.79783" lon="1.87074">
        <ele>103.8</ele>
        <time>2023-12-20T10:23:36Z</time>
      </trkpt>
      <trkpt lat="48.79789" lon="1.8707">
        <ele>103.8</ele>
        <time>2023-12-20T10:23:37Z</time>
      </trkpt>
      <trkpt lat="48.79796" lon="1.87066">
        <ele>104.6</ele>
        <time>2023-12-20T10:23:38Z</time>
      </trkpt>
      <trkpt lat="48.79802" lon="1.87062">
        <ele>104.2</ele>
        <time>2023-12-20T10:23:39Z</time>
      </trkpt>
      <trkpt lat="48.79808" lon="1.87058">
        <ele>104.2</ele>
        <time>2023-12-20T10:23:40Z</time>
      </trkpt>
      <trkpt lat="48.79814" lon="1.87054">
        <ele>104.2</ele>
        <time>2023-12-20T10:23:41Z</time>
      </trkpt>
      <trkpt lat="48.7982" lon="1.8705">
        <ele>105</ele>
        <time>2023-12-20T10:23:42Z</time>
      </trkpt>
      <trkpt lat="48.79827" lon="1.87046">
        <ele>105</ele>
        <time>2023-12-20T10:23:43Z</time>
      </trkpt>
      <trkpt lat="48.79833" lon="1.87041">
        <ele>105</ele>
        <time>2023-12-20T10:23:44Z</time>
      </trkpt>
      <trkpt lat="48.79839" lon="1.87037">
        <ele>105</ele>
        <time>2023-12-20T10:23:45Z</time>
      </trkpt>
      <trkpt lat="48.79846" lon="1.87033">
        <ele>105.2</ele>
        <time>2023-12-20T10:23:46Z</time>
      </trkpt>
      <trkpt lat="48.79852" lon="1.87029">
        <ele>105.2</ele>
        <time>2023-12-20T10:23:47Z</time>
      </trkpt>
      <trkpt lat="48.79858" lon="1.87025">
        <ele>105.2</ele>
        <time>2023-12-20T10:23:48Z</time>
      </trkpt>
      <trkpt lat="48.79864" lon="1.87021">
        <ele>105.2</ele>
        <time>2023-12-20T10:23:49Z</time>
      </trkpt>
      <trkpt lat="48.7987" lon="1.87017">
        <ele>105.4</ele>
        <time>2023-12-20T10:23:50Z</time>
      </trkpt>
      <trkpt lat="48.79876" lon="1.87013">
        <ele>105.6</ele>
        <time>2023-12-20T10:23:51Z</time>
      </trkpt>
      <trkpt lat="48.79882" lon="1.87009">
        <ele>105.6</ele>
        <time>2023-12-20T10:23:52Z</time>
      </trkpt>
      <trkpt lat="48.79889" lon="1.87005">
        <ele>105.6</ele>
        <time>2023-12-20T10:23:53Z</time>
      </trkpt>
      <trkpt lat="48.79895" lon="1.87001">
        <ele>106.2</ele>
        <time>2023-12-20T10:23:54Z</time>
      </trkpt>
      <trkpt lat="48.79901" lon="1.86997">
        <ele>106</ele>
        <time>2023-12-20T10:23:55Z</time>
      </trkpt>
      <trkpt lat="48.79907" lon="1.86993">
        <ele>106</ele>
        <time>2023-12-20T10:23:56Z</time>
      </trkpt>
      <trkpt lat="48.79912" lon="1.86989">
        <ele>106</ele>
        <time>2023-12-20T10:23:57Z</time>
      </trkpt>
      <trkpt lat="48.79918" lon="1.86985">
        <ele>106</ele>
        <time>2023-12-20T10:23:58Z</time>
      </trkpt>
      <trkpt lat="48.79924" lon="1.86982">
        <ele>106.6</ele>
        <time>2023-12-20T10:23:59Z</time>
      </trkpt>
      <trkpt lat="48.7993" lon="1.86978">
        <ele>106.6</ele>
        <time>2023-12-20T10:24:00Z</time>
      </trkpt>
      <trkpt lat="48.79936" lon="1.86973">
        <ele>106.6</ele>
        <time>2023-12-20T10:24:01Z</time>
      </trkpt>
      <trkpt lat="48.79943" lon="1.8697">
        <ele>106.6</ele>
        <time>2023-12-20T10:24:02Z</time>
      </trkpt>
      <trkpt lat="48.79949" lon="1.86966">
        <ele>106.6</ele>
        <time>2023-12-20T10:24:03Z</time>
      </trkpt>
      <trkpt lat="48.79955" lon="1.86962">
        <ele>106.6</ele>
        <time>2023-12-20T10:24:04Z</time>
      </trkpt>
      <trkpt lat="48.79962" lon="1.86959">
        <ele>106.6</ele>
        <time>2023-12-20T10:24:05Z</time>
      </trkpt>
      <trkpt lat="48.79968" lon="1.86954">
        <ele>107.2</ele>
        <time>2023-12-20T10:24:06Z</time>
      </trkpt>
      <trkpt lat="48.79975" lon="1.8695">
        <ele>107.2</ele>
        <time>2023-12-20T10:24:07Z</time>
      </trkpt>
      <trkpt lat="48.79981" lon="1.86946">
        <ele>107.2</ele>
        <time>2023-12-20T10:24:08Z</time>
      </trkpt>
      <trkpt lat="48.79987" lon="1.86942">
        <ele>107.2</ele>
        <time>2023-12-20T10:24:09Z</time>
      </trkpt>
      <trkpt lat="48.79994" lon="1.86937">
        <ele>107.2</ele>
        <time>2023-12-20T10:24:10Z</time>
      </trkpt>
      <trkpt lat="48.8" lon="1.86933">
        <ele>107.2</ele>
        <time>2023-12-20T10:24:11Z</time>
      </trkpt>
      <trkpt lat="48.80007" lon="1.86929">
        <ele>107.2</ele>
        <time>2023-12-20T10:24:12Z</time>
      </trkpt>
      <trkpt lat="48.80013" lon="1.86924">
        <ele>107.2</ele>
        <time>2023-12-20T10:24:13Z</time>
      </trkpt>
      <trkpt lat="48.8002" lon="1.8692">
        <ele>107.6</ele>
        <time>2023-12-20T10:24:14Z</time>
      </trkpt>
      <trkpt lat="48.80026" lon="1.86916">
        <ele>107.6</ele>
        <time>2023-12-20T10:24:15Z</time>
      </trkpt>
      <trkpt lat="48.80033" lon="1.86911">
        <ele>107.6</ele>
        <time>2023-12-20T10:24:16Z</time>
      </trkpt>
      <trkpt lat="48.8004" lon="1.86907">
        <ele>107.6</ele>
        <time>2023-12-20T10:24:17Z</time>
      </trkpt>
      <trkpt lat="48.80046" lon="1.86902">
        <ele>107.8</ele>
        <time>2023-12-20T10:24:18Z</time>
      </trkpt>
      <trkpt lat="48.80053" lon="1.86897">
        <ele>108</ele>
        <time>2023-12-20T10:24:19Z</time>
      </trkpt>
      <trkpt lat="48.8006" lon="1.86893">
        <ele>108</ele>
        <time>2023-12-20T10:24:20Z</time>
      </trkpt>
      <trkpt lat="48.80066" lon="1.86889">
        <ele>108</ele>
        <time>2023-12-20T10:24:21Z</time>
      </trkpt>
      <trkpt lat="48.80073" lon="1.86884">
        <ele>108</ele>
        <time>2023-12-20T10:24:22Z</time>
      </trkpt>
      <trkpt lat="48.8008" lon="1.86879">
        <ele>108.2</ele>
        <time>2023-12-20T10:24:23Z</time>
      </trkpt>
      <trkpt lat="48.80087" lon="1.86875">
        <ele>108.2</ele>
        <time>2023-12-20T10:24:24Z</time>
      </trkpt>
      <trkpt lat="48.80094" lon="1.8687">
        <ele>108.2</ele>
        <time>2023-12-20T10:24:25Z</time>
      </trkpt>
      <trkpt lat="48.80101" lon="1.86866">
        <ele>108.2</ele>
        <time>2023-12-20T10:24:26Z</time>
      </trkpt>
      <trkpt lat="48.80108" lon="1.86861">
        <ele>108.8</ele>
        <time>2023-12-20T10:24:27Z</time>
      </trkpt>
      <trkpt lat="48.80115" lon="1.86857">
        <ele>108.8</ele>
        <time>2023-12-20T10:24:28Z</time>
      </trkpt>
      <trkpt lat="48.80122" lon="1.86852">
        <ele>108.8</ele>
        <time>2023-12-20T10:24:29Z</time>
      </trkpt>
      <trkpt lat="48.80129" lon="1.86848">
        <ele>108.6</ele>
        <time>2023-12-20T10:24:30Z</time>
      </trkpt>
      <trkpt lat="48.80136" lon="1.86843">
        <ele>108.8</ele>
        <time>2023-12-20T10:24:31Z</time>
      </trkpt>
      <trkpt lat="48.80143" lon="1.86838">
        <ele>108.8</ele>
        <time>2023-12-20T10:24:32Z</time>
      </trkpt>
      <trkpt lat="48.8015" lon="1.86833">
        <ele>108.8</ele>
        <time>2023-12-20T10:24:33Z</time>
      </trkpt>
      <trkpt lat="48.80157" lon="1.86828">
        <ele>108.8</ele>
        <time>2023-12-20T10:24:34Z</time>
      </trkpt>
      <trkpt lat="48.80164" lon="1.86824">
        <ele>109.2</ele>
        <time>2023-12-20T10:24:35Z</time>
      </trkpt>
      <trkpt lat="48.80171" lon="1.8682">
        <ele>109.2</ele>
        <time>2023-12-20T10:24:36Z</time>
      </trkpt>
      <trkpt lat="48.80178" lon="1.86816">
        <ele>109.2</ele>
        <time>2023-12-20T10:24:37Z</time>
      </trkpt>
      <trkpt lat="48.80186" lon="1.86812">
        <ele>109.2</ele>
        <time>2023-12-20T10:24:38Z</time>
      </trkpt>
      <trkpt lat="48.80193" lon="1.86809">
        <ele>109.8</ele>
        <time>2023-12-20T10:24:39Z</time>
      </trkpt>
      <trkpt lat="48.802" lon="1.86806">
        <ele>109.8</ele>
        <time>2023-12-20T10:24:40Z</time>
      </trkpt>
      <trkpt lat="48.80207" lon="1.86803">
        <ele>109.8</ele>
        <time>2023-12-20T10:24:41Z</time>
      </trkpt>
      <trkpt lat="48.80215" lon="1.86801">
        <ele>109.8</ele>
        <time>2023-12-20T10:24:42Z</time>
      </trkpt>
      <trkpt lat="48.80222" lon="1.86799">
        <ele>109.6</ele>
        <time>2023-12-20T10:24:43Z</time>
      </trkpt>
      <trkpt lat="48.80229" lon="1.86797">
        <ele>109.6</ele>
        <time>2023-12-20T10:24:44Z</time>
      </trkpt>
      <trkpt lat="48.80237" lon="1.86795">
        <ele>109.6</ele>
        <time>2023-12-20T10:24:45Z</time>
      </trkpt>
      <trkpt lat="48.80244" lon="1.86794">
        <ele>109.6</ele>
        <time>2023-12-20T10:24:46Z</time>
      </trkpt>
      <trkpt lat="48.80251" lon="1.86793">
        <ele>109.2</ele>
        <time>2023-12-20T10:24:47Z</time>
      </trkpt>
      <trkpt lat="48.80258" lon="1.86792">
        <ele>109.2</ele>
        <time>2023-12-20T10:24:48Z</time>
      </trkpt>
      <trkpt lat="48.80265" lon="1.86792">
        <ele>109.2</ele>
        <time>2023-12-20T10:24:49Z</time>
      </trkpt>
      <trkpt lat="48.80272" lon="1.86791">
        <ele>109.2</ele>
        <time>2023-12-20T10:24:50Z</time>
      </trkpt>
      <trkpt lat="48.80279" lon="1.8679">
        <ele>109</ele>
        <time>2023-12-20T10:24:51Z</time>
      </trkpt>
      <trkpt lat="48.80286" lon="1.86789">
        <ele>109</ele>
        <time>2023-12-20T10:24:52Z</time>
      </trkpt>
      <trkpt lat="48.80293" lon="1.86788">
        <ele>109</ele>
        <time>2023-12-20T10:24:53Z</time>
      </trkpt>
      <trkpt lat="48.803" lon="1.86787">
        <ele>109</ele>
        <time>2023-12-20T10:24:54Z</time>
      </trkpt>
      <trkpt lat="48.80307" lon="1.86787">
        <ele>109.4</ele>
        <time>2023-12-20T10:24:55Z</time>
      </trkpt>
      <trkpt lat="48.80315" lon="1.86786">
        <ele>109.4</ele>
        <time>2023-12-20T10:24:56Z</time>
      </trkpt>
      <trkpt lat="48.80322" lon="1.86785">
        <ele>109.4</ele>
        <time>2023-12-20T10:24:57Z</time>
      </trkpt>
      <trkpt lat="48.80329" lon="1.86784">
        <ele>109.4</ele>
        <time>2023-12-20T10:24:58Z</time>
      </trkpt>
      <trkpt lat="48.80336" lon="1.86783">
        <ele>109</ele>
        <time>2023-12-20T10:24:59Z</time>
      </trkpt>
      <trkpt lat="48.80343" lon="1.86782">
        <ele>109</ele>
        <time>2023-12-20T10:25:00Z</time>
      </trkpt>
      <trkpt lat="48.8035" lon="1.86781">
        <ele>109</ele>
        <time>2023-12-20T10:25:01Z</time>
      </trkpt>
      <trkpt lat="48.80358" lon="1.8678">
        <ele>109</ele>
        <time>2023-12-20T10:25:02Z</time>
      </trkpt>
      <trkpt lat="48.80365" lon="1.86779">
        <ele>108.8</ele>
        <time>2023-12-20T10:25:03Z</time>
      </trkpt>
      <trkpt lat="48.80372" lon="1.86779">
        <ele>108.8</ele>
        <time>2023-12-20T10:25:04Z</time>
      </trkpt>
      <trkpt lat="48.80379" lon="1.86778">
        <ele>108.8</ele>
        <time>2023-12-20T10:25:05Z</time>
      </trkpt>
      <trkpt lat="48.80386" lon="1.86777">
        <ele>108.8</ele>
        <time>2023-12-20T10:25:06Z</time>
      </trkpt>
      <trkpt lat="48.80394" lon="1.86776">
        <ele>108.8</ele>
        <time>2023-12-20T10:25:07Z</time>
      </trkpt>
      <trkpt lat="48.80401" lon="1.86776">
        <ele>108.8</ele>
        <time>2023-12-20T10:25:08Z</time>
      </trkpt>
      <trkpt lat="48.80408" lon="1.86775">
        <ele>108.8</ele>
        <time>2023-12-20T10:25:09Z</time>
      </trkpt>
      <trkpt lat="48.80415" lon="1.86775">
        <ele>108</ele>
        <time>2023-12-20T10:25:10Z</time>
      </trkpt>
      <trkpt lat="48.80422" lon="1.86774">
        <ele>108</ele>
        <time>2023-12-20T10:25:11Z</time>
      </trkpt>
      <trkpt lat="48.80428" lon="1.86774">
        <ele>108</ele>
        <time>2023-12-20T10:25:12Z</time>
      </trkpt>
      <trkpt lat="48.80434" lon="1.86773">
        <ele>108</ele>
        <time>2023-12-20T10:25:13Z</time>
      </trkpt>
      <trkpt lat="48.8044" lon="1.86773">
        <ele>108</ele>
        <time>2023-12-20T10:25:14Z</time>
      </trkpt>
      <trkpt lat="48.80445" lon="1.86774">
        <ele>107.2</ele>
        <time>2023-12-20T10:25:15Z</time>
      </trkpt>
      <trkpt lat="48.8045" lon="1.86775">
        <ele>107.2</ele>
        <time>2023-12-20T10:25:16Z</time>
      </trkpt>
      <trkpt lat="48.80455" lon="1.86777">
        <ele>107.2</ele>
        <time>2023-12-20T10:25:17Z</time>
      </trkpt>
      <trkpt lat="48.8046" lon="1.86777">
        <ele>107.2</ele>
        <time>2023-12-20T10:25:18Z</time>
      </trkpt>
      <trkpt lat="48.80465" lon="1.86775">
        <ele>107.2</ele>
        <time>2023-12-20T10:25:19Z</time>
      </trkpt>
      <trkpt lat="48.8047" lon="1.86773">
        <ele>107.2</ele>
        <time>2023-12-20T10:25:20Z</time>
      </trkpt>
      <trkpt lat="48.80475" lon="1.8677">
        <ele>107.2</ele>
        <time>2023-12-20T10:25:21Z</time>
      </trkpt>
      <trkpt lat="48.80481" lon="1.86767">
        <ele>107.6</ele>
        <time>2023-12-20T10:25:22Z</time>
      </trkpt>
      <trkpt lat="48.80487" lon="1.86764">
        <ele>106.8</ele>
        <time>2023-12-20T10:25:23Z</time>
      </trkpt>
      <trkpt lat="48.80494" lon="1.86761">
        <ele>106.8</ele>
        <time>2023-12-20T10:25:24Z</time>
      </trkpt>
      <trkpt lat="48.805" lon="1.8676">
        <ele>106.8</ele>
        <time>2023-12-20T10:25:25Z</time>
      </trkpt>
      <trkpt lat="48.80507" lon="1.86759">
        <ele>106.8</ele>
        <time>2023-12-20T10:25:26Z</time>
      </trkpt>
      <trkpt lat="48.80514" lon="1.86757">
        <ele>106.6</ele>
        <time>2023-12-20T10:25:27Z</time>
      </trkpt>
      <trkpt lat="48.80521" lon="1.86755">
        <ele>106.6</ele>
        <time>2023-12-20T10:25:28Z</time>
      </trkpt>
      <trkpt lat="48.80527" lon="1.86753">
        <ele>106.6</ele>
        <time>2023-12-20T10:25:29Z</time>
      </trkpt>
      <trkpt lat="48.80534" lon="1.86751">
        <ele>106.6</ele>
        <time>2023-12-20T10:25:30Z</time>
      </trkpt>
      <trkpt lat="48.80541" lon="1.86748">
        <ele>107</ele>
        <time>2023-12-20T10:25:31Z</time>
      </trkpt>
      <trkpt lat="48.80547" lon="1.86746">
        <ele>107</ele>
        <time>2023-12-20T10:25:32Z</time>
      </trkpt>
      <trkpt lat="48.80554" lon="1.86744">
        <ele>107</ele>
        <time>2023-12-20T10:25:33Z</time>
      </trkpt>
      <trkpt lat="48.8056" lon="1.86742">
        <ele>107</ele>
        <time>2023-12-20T10:25:34Z</time>
      </trkpt>
      <trkpt lat="48.80567" lon="1.86741">
        <ele>107.4</ele>
        <time>2023-12-20T10:25:35Z</time>
      </trkpt>
      <trkpt lat="48.80573" lon="1.86739">
        <ele>107.4</ele>
        <time>2023-12-20T10:25:36Z</time>
      </trkpt>
      <trkpt lat="48.80579" lon="1.86737">
        <ele>107.4</ele>
        <time>2023-12-20T10:25:37Z</time>
      </trkpt>
      <trkpt lat="48.80585" lon="1.86735">
        <ele>107.4</ele>
        <time>2023-12-20T10:25:38Z</time>
      </trkpt>
      <trkpt lat="48.80591" lon="1.86734">
        <ele>107.4</ele>
        <time>2023-12-20T10:25:39Z</time>
      </trkpt>
      <trkpt lat="48.80596" lon="1.86732">
        <ele>107.4</ele>
        <time>2023-12-20T10:25:40Z</time>
      </trkpt>
      <trkpt lat="48.80602" lon="1.8673">
        <ele>107.4</ele>
        <time>2023-12-20T10:25:41Z</time>
      </trkpt>
      <trkpt lat="48.80607" lon="1.86728">
        <ele>107.4</ele>
        <time>2023-12-20T10:25:42Z</time>
      </trkpt>
      <trkpt lat="48.80613" lon="1.86727">
        <ele>107.4</ele>
        <time>2023-12-20T10:25:43Z</time>
      </trkpt>
      <trkpt lat="48.80619" lon="1.86725">
        <ele>107.4</ele>
        <time>2023-12-20T10:25:44Z</time>
      </trkpt>
      <trkpt lat="48.80624" lon="1.86723">
        <ele>107.4</ele>
        <time>2023-12-20T10:25:45Z</time>
      </trkpt>
      <trkpt lat="48.8063" lon="1.86722">
        <ele>107.6</ele>
        <time>2023-12-20T10:25:46Z</time>
      </trkpt>
      <trkpt lat="48.80635" lon="1.8672">
        <ele>107.6</ele>
        <time>2023-12-20T10:25:47Z</time>
      </trkpt>
      <trkpt lat="48.80641" lon="1.86718">
        <ele>107.6</ele>
        <time>2023-12-20T10:25:48Z</time>
      </trkpt>
      <trkpt lat="48.80647" lon="1.86716">
        <ele>107.6</ele>
        <time>2023-12-20T10:25:49Z</time>
      </trkpt>
      <trkpt lat="48.80652" lon="1.86714">
        <ele>108</ele>
        <time>2023-12-20T10:25:50Z</time>
      </trkpt>
      <trkpt lat="48.80658" lon="1.86713">
        <ele>107.8</ele>
        <time>2023-12-20T10:25:51Z</time>
      </trkpt>
      <trkpt lat="48.80664" lon="1.86711">
        <ele>107.8</ele>
        <time>2023-12-20T10:25:52Z</time>
      </trkpt>
      <trkpt lat="48.8067" lon="1.8671">
        <ele>107.8</ele>
        <time>2023-12-20T10:25:53Z</time>
      </trkpt>
      <trkpt lat="48.80676" lon="1.86708">
        <ele>107.8</ele>
        <time>2023-12-20T10:25:54Z</time>
      </trkpt>
      <trkpt lat="48.80682" lon="1.86707">
        <ele>107.6</ele>
        <time>2023-12-20T10:25:55Z</time>
      </trkpt>
      <trkpt lat="48.80688" lon="1.86706">
        <ele>107.6</ele>
        <time>2023-12-20T10:25:56Z</time>
      </trkpt>
      <trkpt lat="48.80694" lon="1.86706">
        <ele>107.6</ele>
        <time>2023-12-20T10:25:57Z</time>
      </trkpt>
      <trkpt lat="48.807" lon="1.86705">
        <ele>107.6</ele>
        <time>2023-12-20T10:25:58Z</time>
      </trkpt>
      <trkpt lat="48.80707" lon="1.86705">
        <ele>107.4</ele>
        <time>2023-12-20T10:25:59Z</time>
      </trkpt>
      <trkpt lat="48.80713" lon="1.86705">
        <ele>107.4</ele>
        <time>2023-12-20T10:26:00Z</time>
      </trkpt>
      <trkpt lat="48.80719" lon="1.86705">
        <ele>107.4</ele>
        <time>2023-12-20T10:26:01Z</time>
      </trkpt>
      <trkpt lat="48.80726" lon="1.86705">
        <ele>106.6</ele>
        <time>2023-12-20T10:26:02Z</time>
      </trkpt>
      <trkpt lat="48.80732" lon="1.86705">
        <ele>106.4</ele>
        <time>2023-12-20T10:26:03Z</time>
      </trkpt>
      <trkpt lat="48.80739" lon="1.86705">
        <ele>106.4</ele>
        <time>2023-12-20T10:26:04Z</time>
      </trkpt>
      <trkpt lat="48.80745" lon="1.86706">
        <ele>106.4</ele>
        <time>2023-12-20T10:26:05Z</time>
      </trkpt>
      <trkpt lat="48.80752" lon="1.86706">
        <ele>106.4</ele>
        <time>2023-12-20T10:26:06Z</time>
      </trkpt>
      <trkpt lat="48.80759" lon="1.86707">
        <ele>105.8</ele>
        <time>2023-12-20T10:26:07Z</time>
      </trkpt>
      <trkpt lat="48.80765" lon="1.86707">
        <ele>105.8</ele>
        <time>2023-12-20T10:26:08Z</time>
      </trkpt>
      <trkpt lat="48.80772" lon="1.86707">
        <ele>105.8</ele>
        <time>2023-12-20T10:26:09Z</time>
      </trkpt>
      <trkpt lat="48.80779" lon="1.86708">
        <ele>105.2</ele>
        <time>2023-12-20T10:26:10Z</time>
      </trkpt>
      <trkpt lat="48.80786" lon="1.86708">
        <ele>104.8</ele>
        <time>2023-12-20T10:26:11Z</time>
      </trkpt>
      <trkpt lat="48.80793" lon="1.86708">
        <ele>104.8</ele>
        <time>2023-12-20T10:26:12Z</time>
      </trkpt>
      <trkpt lat="48.80799" lon="1.86709">
        <ele>104.8</ele>
        <time>2023-12-20T10:26:13Z</time>
      </trkpt>
      <trkpt lat="48.80806" lon="1.86709">
        <ele>104</ele>
        <time>2023-12-20T10:26:14Z</time>
      </trkpt>
      <trkpt lat="48.80813" lon="1.8671">
        <ele>104</ele>
        <time>2023-12-20T10:26:15Z</time>
      </trkpt>
      <trkpt lat="48.8082" lon="1.8671">
        <ele>104</ele>
        <time>2023-12-20T10:26:16Z</time>
      </trkpt>
      <trkpt lat="48.80826" lon="1.8671">
        <ele>104</ele>
        <time>2023-12-20T10:26:17Z</time>
      </trkpt>
      <trkpt lat="48.80833" lon="1.86711">
        <ele>103</ele>
        <time>2023-12-20T10:26:18Z</time>
      </trkpt>
      <trkpt lat="48.8084" lon="1.86711">
        <ele>102.8</ele>
        <time>2023-12-20T10:26:19Z</time>
      </trkpt>
      <trkpt lat="48.80846" lon="1.86711">
        <ele>102.8</ele>
        <time>2023-12-20T10:26:20Z</time>
      </trkpt>
      <trkpt lat="48.80853" lon="1.86711">
        <ele>102.8</ele>
        <time>2023-12-20T10:26:21Z</time>
      </trkpt>
      <trkpt lat="48.80859" lon="1.86711">
        <ele>102.2</ele>
        <time>2023-12-20T10:26:22Z</time>
      </trkpt>
      <trkpt lat="48.80865" lon="1.86711">
        <ele>101.6</ele>
        <time>2023-12-20T10:26:23Z</time>
      </trkpt>
      <trkpt lat="48.80872" lon="1.86711">
        <ele>101.6</ele>
        <time>2023-12-20T10:26:24Z</time>
      </trkpt>
      <trkpt lat="48.80879" lon="1.86711">
        <ele>101.6</ele>
        <time>2023-12-20T10:26:25Z</time>
      </trkpt>
      <trkpt lat="48.80886" lon="1.86711">
        <ele>101.6</ele>
        <time>2023-12-20T10:26:26Z</time>
      </trkpt>
      <trkpt lat="48.80893" lon="1.86711">
        <ele>101</ele>
        <time>2023-12-20T10:26:27Z</time>
      </trkpt>
      <trkpt lat="48.809" lon="1.8671">
        <ele>101</ele>
        <time>2023-12-20T10:26:28Z</time>
      </trkpt>
      <trkpt lat="48.80907" lon="1.8671">
        <ele>101</ele>
        <time>2023-12-20T10:26:29Z</time>
      </trkpt>
      <trkpt lat="48.80914" lon="1.86709">
        <ele>101</ele>
        <time>2023-12-20T10:26:30Z</time>
      </trkpt>
      <trkpt lat="48.80921" lon="1.86708">
        <ele>101</ele>
        <time>2023-12-20T10:26:31Z</time>
      </trkpt>
      <trkpt lat="48.80928" lon="1.86707">
        <ele>101</ele>
        <time>2023-12-20T10:26:32Z</time>
      </trkpt>
      <trkpt lat="48.80935" lon="1.86706">
        <ele>101</ele>
        <time>2023-12-20T10:26:33Z</time>
      </trkpt>
      <trkpt lat="48.80942" lon="1.86704">
        <ele>101</ele>
        <time>2023-12-20T10:26:34Z</time>
      </trkpt>
      <trkpt lat="48.8095" lon="1.86701">
        <ele>100.8</ele>
        <time>2023-12-20T10:26:35Z</time>
      </trkpt>
      <trkpt lat="48.80957" lon="1.86698">
        <ele>100.8</ele>
        <time>2023-12-20T10:26:36Z</time>
      </trkpt>
      <trkpt lat="48.80964" lon="1.86695">
        <ele>100.8</ele>
        <time>2023-12-20T10:26:37Z</time>
      </trkpt>
      <trkpt lat="48.80971" lon="1.86691">
        <ele>101</ele>
        <time>2023-12-20T10:26:38Z</time>
      </trkpt>
      <trkpt lat="48.80978" lon="1.86687">
        <ele>100.8</ele>
        <time>2023-12-20T10:26:39Z</time>
      </trkpt>
      <trkpt lat="48.80984" lon="1.86682">
        <ele>100.8</ele>
        <time>2023-12-20T10:26:40Z</time>
      </trkpt>
      <trkpt lat="48.8099" lon="1.86677">
        <ele>100.8</ele>
        <time>2023-12-20T10:26:41Z</time>
      </trkpt>
      <trkpt lat="48.80996" lon="1.86671">
        <ele>100.8</ele>
        <time>2023-12-20T10:26:42Z</time>
      </trkpt>
      <trkpt lat="48.81002" lon="1.86665">
        <ele>100.6</ele>
        <time>2023-12-20T10:26:43Z</time>
      </trkpt>
      <trkpt lat="48.81008" lon="1.86658">
        <ele>100.6</ele>
        <time>2023-12-20T10:26:44Z</time>
      </trkpt>
      <trkpt lat="48.81013" lon="1.86651">
        <ele>100.6</ele>
        <time>2023-12-20T10:26:45Z</time>
      </trkpt>
      <trkpt lat="48.81018" lon="1.86643">
        <ele>100</ele>
        <time>2023-12-20T10:26:46Z</time>
      </trkpt>
      <trkpt lat="48.81024" lon="1.86637">
        <ele>100.4</ele>
        <time>2023-12-20T10:26:47Z</time>
      </trkpt>
      <trkpt lat="48.81028" lon="1.86628">
        <ele>100.4</ele>
        <time>2023-12-20T10:26:48Z</time>
      </trkpt>
      <trkpt lat="48.81033" lon="1.8662">
        <ele>100.4</ele>
        <time>2023-12-20T10:26:49Z</time>
      </trkpt>
      <trkpt lat="48.81037" lon="1.86612">
        <ele>99.4</ele>
        <time>2023-12-20T10:26:50Z</time>
      </trkpt>
      <trkpt lat="48.8104" lon="1.86604">
        <ele>99</ele>
        <time>2023-12-20T10:26:51Z</time>
      </trkpt>
      <trkpt lat="48.81044" lon="1.86595">
        <ele>99</ele>
        <time>2023-12-20T10:26:52Z</time>
      </trkpt>
      <trkpt lat="48.81047" lon="1.86587">
        <ele>99</ele>
        <time>2023-12-20T10:26:53Z</time>
      </trkpt>
      <trkpt lat="48.81051" lon="1.86579">
        <ele>99</ele>
        <time>2023-12-20T10:26:54Z</time>
      </trkpt>
      <trkpt lat="48.81054" lon="1.8657">
        <ele>98.8</ele>
        <time>2023-12-20T10:26:55Z</time>
      </trkpt>
      <trkpt lat="48.81057" lon="1.8656">
        <ele>98.8</ele>
        <time>2023-12-20T10:26:56Z</time>
      </trkpt>
      <trkpt lat="48.81059" lon="1.86551">
        <ele>98.8</ele>
        <time>2023-12-20T10:26:57Z</time>
      </trkpt>
      <trkpt lat="48.81062" lon="1.8654">
        <ele>98</ele>
        <time>2023-12-20T10:26:58Z</time>
      </trkpt>
      <trkpt lat="48.81064" lon="1.8653">
        <ele>98.4</ele>
        <time>2023-12-20T10:26:59Z</time>
      </trkpt>
      <trkpt lat="48.81066" lon="1.86519">
        <ele>98.4</ele>
        <time>2023-12-20T10:27:00Z</time>
      </trkpt>
      <trkpt lat="48.81069" lon="1.86509">
        <ele>98.4</ele>
        <time>2023-12-20T10:27:01Z</time>
      </trkpt>
      <trkpt lat="48.81071" lon="1.86498">
        <ele>98.4</ele>
        <time>2023-12-20T10:27:02Z</time>
      </trkpt>
      <trkpt lat="48.81074" lon="1.86487">
        <ele>97.8</ele>
        <time>2023-12-20T10:27:03Z</time>
      </trkpt>
      <trkpt lat="48.81077" lon="1.86476">
        <ele>97.8</ele>
        <time>2023-12-20T10:27:04Z</time>
      </trkpt>
      <trkpt lat="48.8108" lon="1.86465">
        <ele>97.8</ele>
        <time>2023-12-20T10:27:05Z</time>
      </trkpt>
      <trkpt lat="48.81084" lon="1.86455">
        <ele>97.2</ele>
        <time>2023-12-20T10:27:06Z</time>
      </trkpt>
      <trkpt lat="48.81089" lon="1.86444">
        <ele>97</ele>
        <time>2023-12-20T10:27:07Z</time>
      </trkpt>
      <trkpt lat="48.81093" lon="1.86434">
        <ele>97</ele>
        <time>2023-12-20T10:27:08Z</time>
      </trkpt>
      <trkpt lat="48.81098" lon="1.86424">
        <ele>97</ele>
        <time>2023-12-20T10:27:09Z</time>
      </trkpt>
      <trkpt lat="48.81103" lon="1.86415">
        <ele>96.6</ele>
        <time>2023-12-20T10:27:10Z</time>
      </trkpt>
      <trkpt lat="48.81107" lon="1.86406">
        <ele>96.4</ele>
        <time>2023-12-20T10:27:11Z</time>
      </trkpt>
      <trkpt lat="48.81112" lon="1.86397">
        <ele>96.4</ele>
        <time>2023-12-20T10:27:12Z</time>
      </trkpt>
      <trkpt lat="48.81116" lon="1.86388">
        <ele>96.4</ele>
        <time>2023-12-20T10:27:13Z</time>
      </trkpt>
      <trkpt lat="48.81121" lon="1.8638">
        <ele>96</ele>
        <time>2023-12-20T10:27:14Z</time>
      </trkpt>
      <trkpt lat="48.81125" lon="1.8637">
        <ele>96</ele>
        <time>2023-12-20T10:27:15Z</time>
      </trkpt>
      <trkpt lat="48.81129" lon="1.86361">
        <ele>96</ele>
        <time>2023-12-20T10:27:16Z</time>
      </trkpt>
      <trkpt lat="48.81134" lon="1.86353">
        <ele>96</ele>
        <time>2023-12-20T10:27:17Z</time>
      </trkpt>
      <trkpt lat="48.81138" lon="1.86344">
        <ele>95.2</ele>
        <time>2023-12-20T10:27:18Z</time>
      </trkpt>
      <trkpt lat="48.81142" lon="1.86335">
        <ele>94.8</ele>
        <time>2023-12-20T10:27:19Z</time>
      </trkpt>
      <trkpt lat="48.81146" lon="1.86327">
        <ele>94.8</ele>
        <time>2023-12-20T10:27:20Z</time>
      </trkpt>
      <trkpt lat="48.8115" lon="1.86319">
        <ele>94.8</ele>
        <time>2023-12-20T10:27:21Z</time>
      </trkpt>
      <trkpt lat="48.81154" lon="1.86311">
        <ele>94.4</ele>
        <time>2023-12-20T10:27:22Z</time>
      </trkpt>
      <trkpt lat="48.81157" lon="1.86302">
        <ele>94</ele>
        <time>2023-12-20T10:27:23Z</time>
      </trkpt>
      <trkpt lat="48.81161" lon="1.86293">
        <ele>94</ele>
        <time>2023-12-20T10:27:24Z</time>
      </trkpt>
      <trkpt lat="48.81165" lon="1.86285">
        <ele>94</ele>
        <time>2023-12-20T10:27:25Z</time>
      </trkpt>
      <trkpt lat="48.81169" lon="1.86276">
        <ele>94</ele>
        <time>2023-12-20T10:27:26Z</time>
      </trkpt>
      <trkpt lat="48.81172" lon="1.86267">
        <ele>93.6</ele>
        <time>2023-12-20T10:27:27Z</time>
      </trkpt>
      <trkpt lat="48.81176" lon="1.86259">
        <ele>93.6</ele>
        <time>2023-12-20T10:27:28Z</time>
      </trkpt>
      <trkpt lat="48.8118" lon="1.86251">
        <ele>93.6</ele>
        <time>2023-12-20T10:27:29Z</time>
      </trkpt>
      <trkpt lat="48.81184" lon="1.86243">
        <ele>92.6</ele>
        <time>2023-12-20T10:27:30Z</time>
      </trkpt>
      <trkpt lat="48.81187" lon="1.86234">
        <ele>92</ele>
        <time>2023-12-20T10:27:31Z</time>
      </trkpt>
      <trkpt lat="48.81191" lon="1.86226">
        <ele>92</ele>
        <time>2023-12-20T10:27:32Z</time>
      </trkpt>
      <trkpt lat="48.81194" lon="1.86218">
        <ele>92</ele>
        <time>2023-12-20T10:27:33Z</time>
      </trkpt>
      <trkpt lat="48.81198" lon="1.86209">
        <ele>92</ele>
        <time>2023-12-20T10:27:34Z</time>
      </trkpt>
      <trkpt lat="48.81201" lon="1.86201">
        <ele>91.4</ele>
        <time>2023-12-20T10:27:35Z</time>
      </trkpt>
      <trkpt lat="48.81205" lon="1.86193">
        <ele>91.4</ele>
        <time>2023-12-20T10:27:36Z</time>
      </trkpt>
      <trkpt lat="48.81208" lon="1.86185">
        <ele>91.4</ele>
        <time>2023-12-20T10:27:37Z</time>
      </trkpt>
      <trkpt lat="48.81212" lon="1.86178">
        <ele>90.4</ele>
        <time>2023-12-20T10:27:38Z</time>
      </trkpt>
      <trkpt lat="48.81216" lon="1.8617">
        <ele>90</ele>
        <time>2023-12-20T10:27:39Z</time>
      </trkpt>
      <trkpt lat="48.81219" lon="1.86163">
        <ele>90</ele>
        <time>2023-12-20T10:27:40Z</time>
      </trkpt>
      <trkpt lat="48.81223" lon="1.86156">
        <ele>90</ele>
        <time>2023-12-20T10:27:41Z</time>
      </trkpt>
      <trkpt lat="48.81227" lon="1.86148">
        <ele>89</ele>
        <time>2023-12-20T10:27:42Z</time>
      </trkpt>
      <trkpt lat="48.81231" lon="1.86141">
        <ele>88.8</ele>
        <time>2023-12-20T10:27:43Z</time>
      </trkpt>
      <trkpt lat="48.81235" lon="1.86133">
        <ele>88.8</ele>
        <time>2023-12-20T10:27:44Z</time>
      </trkpt>
      <trkpt lat="48.81239" lon="1.86126">
        <ele>88.8</ele>
        <time>2023-12-20T10:27:45Z</time>
      </trkpt>
      <trkpt lat="48.81243" lon="1.86118">
        <ele>87.8</ele>
        <time>2023-12-20T10:27:46Z</time>
      </trkpt>
      <trkpt lat="48.81247" lon="1.86111">
        <ele>87.4</ele>
        <time>2023-12-20T10:27:47Z</time>
      </trkpt>
      <trkpt lat="48.8125" lon="1.86105">
        <ele>87.4</ele>
        <time>2023-12-20T10:27:48Z</time>
      </trkpt>
      <trkpt lat="48.81254" lon="1.86098">
        <ele>87.4</ele>
        <time>2023-12-20T10:27:49Z</time>
      </trkpt>
      <trkpt lat="48.81257" lon="1.86092">
        <ele>86.4</ele>
        <time>2023-12-20T10:27:50Z</time>
      </trkpt>
      <trkpt lat="48.8126" lon="1.86086">
        <ele>86.4</ele>
        <time>2023-12-20T10:27:51Z</time>
      </trkpt>
      <trkpt lat="48.81263" lon="1.86082">
        <ele>86.4</ele>
        <time>2023-12-20T10:27:52Z</time>
      </trkpt>
      <trkpt lat="48.81267" lon="1.86079">
        <ele>86.4</ele>
        <time>2023-12-20T10:27:53Z</time>
      </trkpt>
      <trkpt lat="48.81271" lon="1.8608">
        <ele>86.4</ele>
        <time>2023-12-20T10:27:54Z</time>
      </trkpt>
      <trkpt lat="48.81274" lon="1.86082">
        <ele>86</ele>
        <time>2023-12-20T10:27:55Z</time>
      </trkpt>
      <trkpt lat="48.81278" lon="1.86086">
        <ele>86</ele>
        <time>2023-12-20T10:27:56Z</time>
      </trkpt>
      <trkpt lat="48.81282" lon="1.8609">
        <ele>86</ele>
        <time>2023-12-20T10:27:57Z</time>
      </trkpt>
      <trkpt lat="48.81286" lon="1.86093">
        <ele>85.8</ele>
        <time>2023-12-20T10:27:58Z</time>
      </trkpt>
      <trkpt lat="48.81291" lon="1.86096">
        <ele>85.4</ele>
        <time>2023-12-20T10:27:59Z</time>
      </trkpt>
      <trkpt lat="48.81295" lon="1.86099">
        <ele>85.4</ele>
        <time>2023-12-20T10:28:00Z</time>
      </trkpt>
      <trkpt lat="48.813" lon="1.86103">
        <ele>85.4</ele>
        <time>2023-12-20T10:28:01Z</time>
      </trkpt>
      <trkpt lat="48.81305" lon="1.86106">
        <ele>85.4</ele>
        <time>2023-12-20T10:28:02Z</time>
      </trkpt>
      <trkpt lat="48.8131" lon="1.86109">
        <ele>85.2</ele>
        <time>2023-12-20T10:28:03Z</time>
      </trkpt>
      <trkpt lat="48.81315" lon="1.86113">
        <ele>85.2</ele>
        <time>2023-12-20T10:28:04Z</time>
      </trkpt>
      <trkpt lat="48.8132" lon="1.86116">
        <ele>85.2</ele>
        <time>2023-12-20T10:28:05Z</time>
      </trkpt>
      <trkpt lat="48.81326" lon="1.86119">
        <ele>85.2</ele>
        <time>2023-12-20T10:28:06Z</time>
      </trkpt>
      <trkpt lat="48.81331" lon="1.86122">
        <ele>85.2</ele>
        <time>2023-12-20T10:28:07Z</time>
      </trkpt>
      <trkpt lat="48.81336" lon="1.86125">
        <ele>85.2</ele>
        <time>2023-12-20T10:28:08Z</time>
      </trkpt>
      <trkpt lat="48.81341" lon="1.86129">
        <ele>85.2</ele>
        <time>2023-12-20T10:28:09Z</time>
      </trkpt>
      <trkpt lat="48.81346" lon="1.86132">
        <ele>85</ele>
        <time>2023-12-20T10:28:10Z</time>
      </trkpt>
      <trkpt lat="48.81351" lon="1.86135">
        <ele>85</ele>
        <time>2023-12-20T10:28:11Z</time>
      </trkpt>
      <trkpt lat="48.81357" lon="1.86138">
        <ele>85</ele>
        <time>2023-12-20T10:28:12Z</time>
      </trkpt>
      <trkpt lat="48.81362" lon="1.86142">
        <ele>85</ele>
        <time>2023-12-20T10:28:13Z</time>
      </trkpt>
      <trkpt lat="48.81367" lon="1.86145">
        <ele>85</ele>
        <time>2023-12-20T10:28:14Z</time>
      </trkpt>
      <trkpt lat="48.81372" lon="1.86149">
        <ele>85.6</ele>
        <time>2023-12-20T10:28:15Z</time>
      </trkpt>
      <trkpt lat="48.81377" lon="1.86152">
        <ele>85.6</ele>
        <time>2023-12-20T10:28:16Z</time>
      </trkpt>
      <trkpt lat="48.81381" lon="1.86157">
        <ele>85.6</ele>
        <time>2023-12-20T10:28:17Z</time>
      </trkpt>
      <trkpt lat="48.81385" lon="1.86162">
        <ele>84.8</ele>
        <time>2023-12-20T10:28:18Z</time>
      </trkpt>
      <trkpt lat="48.81389" lon="1.86167">
        <ele>85</ele>
        <time>2023-12-20T10:28:19Z</time>
      </trkpt>
      <trkpt lat="48.81392" lon="1.86174">
        <ele>85</ele>
        <time>2023-12-20T10:28:20Z</time>
      </trkpt>
      <trkpt lat="48.81395" lon="1.8618">
        <ele>85</ele>
        <time>2023-12-20T10:28:21Z</time>
      </trkpt>
      <trkpt lat="48.81397" lon="1.86188">
        <ele>85</ele>
        <time>2023-12-20T10:28:22Z</time>
      </trkpt>
      <trkpt lat="48.81398" lon="1.86195">
        <ele>85.2</ele>
        <time>2023-12-20T10:28:23Z</time>
      </trkpt>
      <trkpt lat="48.814" lon="1.86202">
        <ele>85.2</ele>
        <time>2023-12-20T10:28:24Z</time>
      </trkpt>
      <trkpt lat="48.81401" lon="1.86209">
        <ele>85.2</ele>
        <time>2023-12-20T10:28:25Z</time>
      </trkpt>
      <trkpt lat="48.81402" lon="1.86216">
        <ele>85.2</ele>
        <time>2023-12-20T10:28:26Z</time>
      </trkpt>
      <trkpt lat="48.81403" lon="1.86222">
        <ele>84.8</ele>
        <time>2023-12-20T10:28:27Z</time>
      </trkpt>
      <trkpt lat="48.81404" lon="1.86229">
        <ele>84.8</ele>
        <time>2023-12-20T10:28:28Z</time>
      </trkpt>
      <trkpt lat="48.81405" lon="1.86235">
        <ele>84.8</ele>
        <time>2023-12-20T10:28:29Z</time>
      </trkpt>
      <trkpt lat="48.81406" lon="1.86241">
        <ele>84.8</ele>
        <time>2023-12-20T10:28:30Z</time>
      </trkpt>
      <trkpt lat="48.81407" lon="1.86248">
        <ele>85.2</ele>
        <time>2023-12-20T10:28:31Z</time>
      </trkpt>
      <trkpt lat="48.81408" lon="1.86254">
        <ele>85.2</ele>
        <time>2023-12-20T10:28:32Z</time>
      </trkpt>
      <trkpt lat="48.81408" lon="1.8626">
        <ele>85.2</ele>
        <time>2023-12-20T10:28:33Z</time>
      </trkpt>
      <trkpt lat="48.81408" lon="1.86266">
        <ele>85.2</ele>
        <time>2023-12-20T10:28:34Z</time>
      </trkpt>
      <trkpt lat="48.81409" lon="1.86271">
        <ele>85.4</ele>
        <time>2023-12-20T10:28:35Z</time>
      </trkpt>
      <trkpt lat="48.8141" lon="1.86276">
        <ele>85.4</ele>
        <time>2023-12-20T10:28:36Z</time>
      </trkpt>
      <trkpt lat="48.81411" lon="1.86282">
        <ele>85.4</ele>
        <time>2023-12-20T10:28:37Z</time>
      </trkpt>
      <trkpt lat="48.81412" lon="1.86288">
        <ele>85.4</ele>
        <time>2023-12-20T10:28:38Z</time>
      </trkpt>
      <trkpt lat="48.81413" lon="1.86293">
        <ele>85.4</ele>
        <time>2023-12-20T10:28:39Z</time>
      </trkpt>
      <trkpt lat="48.81414" lon="1.86299">
        <ele>85.4</ele>
        <time>2023-12-20T10:28:40Z</time>
      </trkpt>
      <trkpt lat="48.81414" lon="1.86305">
        <ele>85.4</ele>
        <time>2023-12-20T10:28:41Z</time>
      </trkpt>
      <trkpt lat="48.81415" lon="1.8631">
        <ele>86.2</ele>
        <time>2023-12-20T10:28:42Z</time>
      </trkpt>
      <trkpt lat="48.81416" lon="1.86316">
        <ele>86</ele>
        <time>2023-12-20T10:28:43Z</time>
      </trkpt>
      <trkpt lat="48.81417" lon="1.86321">
        <ele>86</ele>
        <time>2023-12-20T10:28:44Z</time>
      </trkpt>
      <trkpt lat="48.81417" lon="1.86326">
        <ele>86</ele>
        <time>2023-12-20T10:28:45Z</time>
      </trkpt>
      <trkpt lat="48.81419" lon="1.86331">
        <ele>86.4</ele>
        <time>2023-12-20T10:28:46Z</time>
      </trkpt>
      <trkpt lat="48.81419" lon="1.86337">
        <ele>85.8</ele>
        <time>2023-12-20T10:28:47Z</time>
      </trkpt>
      <trkpt lat="48.8142" lon="1.86342">
        <ele>85.8</ele>
        <time>2023-12-20T10:28:48Z</time>
      </trkpt>
      <trkpt lat="48.81421" lon="1.86348">
        <ele>85.8</ele>
        <time>2023-12-20T10:28:49Z</time>
      </trkpt>
      <trkpt lat="48.81423" lon="1.86353">
        <ele>85.8</ele>
        <time>2023-12-20T10:28:50Z</time>
      </trkpt>
      <trkpt lat="48.81425" lon="1.86357">
        <ele>85.8</ele>
        <time>2023-12-20T10:28:51Z</time>
      </trkpt>
      <trkpt lat="48.81428" lon="1.86362">
        <ele>85.8</ele>
        <time>2023-12-20T10:28:52Z</time>
      </trkpt>
      <trkpt lat="48.81431" lon="1.86366">
        <ele>85.8</ele>
        <time>2023-12-20T10:28:53Z</time>
      </trkpt>
      <trkpt lat="48.81434" lon="1.86369">
        <ele>86.2</ele>
        <time>2023-12-20T10:28:54Z</time>
      </trkpt>
      <trkpt lat="48.81438" lon="1.86372">
        <ele>86.8</ele>
        <time>2023-12-20T10:28:55Z</time>
      </trkpt>
      <trkpt lat="48.81442" lon="1.86374">
        <ele>86.8</ele>
        <time>2023-12-20T10:28:56Z</time>
      </trkpt>
      <trkpt lat="48.81446" lon="1.86376">
        <ele>86.8</ele>
        <time>2023-12-20T10:28:57Z</time>
      </trkpt>
      <trkpt lat="48.81449" lon="1.86378">
        <ele>86.8</ele>
        <time>2023-12-20T10:28:58Z</time>
      </trkpt>
      <trkpt lat="48.81453" lon="1.8638">
        <ele>86.8</ele>
        <time>2023-12-20T10:28:59Z</time>
      </trkpt>
      <trkpt lat="48.81457" lon="1.86382">
        <ele>86.8</ele>
        <time>2023-12-20T10:29:00Z</time>
      </trkpt>
      <trkpt lat="48.81461" lon="1.86383">
        <ele>86.8</ele>
        <time>2023-12-20T10:29:01Z</time>
      </trkpt>
      <trkpt lat="48.81465" lon="1.86385">
        <ele>86.8</ele>
        <time>2023-12-20T10:29:02Z</time>
      </trkpt>
      <trkpt lat="48.81469" lon="1.86387">
        <ele>86.8</ele>
        <time>2023-12-20T10:29:03Z</time>
      </trkpt>
      <trkpt lat="48.81473" lon="1.86388">
        <ele>86.8</ele>
        <time>2023-12-20T10:29:04Z</time>
      </trkpt>
      <trkpt lat="48.81477" lon="1.8639">
        <ele>86.8</ele>
        <time>2023-12-20T10:29:05Z</time>
      </trkpt>
      <trkpt lat="48.8148" lon="1.86391">
        <ele>87</ele>
        <time>2023-12-20T10:29:06Z</time>
      </trkpt>
      <trkpt lat="48.81484" lon="1.86393">
        <ele>86.6</ele>
        <time>2023-12-20T10:29:07Z</time>
      </trkpt>
      <trkpt lat="48.81488" lon="1.86394">
        <ele>86.6</ele>
        <time>2023-12-20T10:29:08Z</time>
      </trkpt>
      <trkpt lat="48.81492" lon="1.86396">
        <ele>86.6</ele>
        <time>2023-12-20T10:29:09Z</time>
      </trkpt>
      <trkpt lat="48.81495" lon="1.86398">
        <ele>87.4</ele>
        <time>2023-12-20T10:29:10Z</time>
      </trkpt>
      <trkpt lat="48.81499" lon="1.86399">
        <ele>87.6</ele>
        <time>2023-12-20T10:29:11Z</time>
      </trkpt>
      <trkpt lat="48.81503" lon="1.86401">
        <ele>87.6</ele>
        <time>2023-12-20T10:29:12Z</time>
      </trkpt>
      <trkpt lat="48.81506" lon="1.86403">
        <ele>87.6</ele>
        <time>2023-12-20T10:29:13Z</time>
      </trkpt>
      <trkpt lat="48.81509" lon="1.86404">
        <ele>87.6</ele>
        <time>2023-12-20T10:29:14Z</time>
      </trkpt>
      <trkpt lat="48.81512" lon="1.86407">
        <ele>87.6</ele>
        <time>2023-12-20T10:29:15Z</time>
      </trkpt>
      <trkpt lat="48.81514" lon="1.86411">
        <ele>87.6</ele>
        <time>2023-12-20T10:29:16Z</time>
      </trkpt>
      <trkpt lat="48.81516" lon="1.86416">
        <ele>87.6</ele>
        <time>2023-12-20T10:29:17Z</time>
      </trkpt>
      <trkpt lat="48.81515" lon="1.86422">
        <ele>87.4</ele>
        <time>2023-12-20T10:29:18Z</time>
      </trkpt>
      <trkpt lat="48.81515" lon="1.86428">
        <ele>87.2</ele>
        <time>2023-12-20T10:29:19Z</time>
      </trkpt>
      <trkpt lat="48.81514" lon="1.86434">
        <ele>87.2</ele>
        <time>2023-12-20T10:29:20Z</time>
      </trkpt>
      <trkpt lat="48.81514" lon="1.86441">
        <ele>87.2</ele>
        <time>2023-12-20T10:29:21Z</time>
      </trkpt>
      <trkpt lat="48.81514" lon="1.86449">
        <ele>87.4</ele>
        <time>2023-12-20T10:29:22Z</time>
      </trkpt>
      <trkpt lat="48.81515" lon="1.86456">
        <ele>86.8</ele>
        <time>2023-12-20T10:29:23Z</time>
      </trkpt>
      <trkpt lat="48.81516" lon="1.86464">
        <ele>86.8</ele>
        <time>2023-12-20T10:29:24Z</time>
      </trkpt>
      <trkpt lat="48.81517" lon="1.86471">
        <ele>86.8</ele>
        <time>2023-12-20T10:29:25Z</time>
      </trkpt>
      <trkpt lat="48.81518" lon="1.8648">
        <ele>86.8</ele>
        <time>2023-12-20T10:29:26Z</time>
      </trkpt>
      <trkpt lat="48.81518" lon="1.86488">
        <ele>87</ele>
        <time>2023-12-20T10:29:27Z</time>
      </trkpt>
      <trkpt lat="48.81519" lon="1.86497">
        <ele>87</ele>
        <time>2023-12-20T10:29:28Z</time>
      </trkpt>
      <trkpt lat="48.8152" lon="1.86507">
        <ele>87</ele>
        <time>2023-12-20T10:29:29Z</time>
      </trkpt>
      <trkpt lat="48.81522" lon="1.86516">
        <ele>86.8</ele>
        <time>2023-12-20T10:29:30Z</time>
      </trkpt>
      <trkpt lat="48.81524" lon="1.86526">
        <ele>86.4</ele>
        <time>2023-12-20T10:29:31Z</time>
      </trkpt>
      <trkpt lat="48.81526" lon="1.86536">
        <ele>86.4</ele>
        <time>2023-12-20T10:29:32Z</time>
      </trkpt>
      <trkpt lat="48.81527" lon="1.86545">
        <ele>86.4</ele>
        <time>2023-12-20T10:29:33Z</time>
      </trkpt>
      <trkpt lat="48.81528" lon="1.86553">
        <ele>86.4</ele>
        <time>2023-12-20T10:29:34Z</time>
      </trkpt>
      <trkpt lat="48.81529" lon="1.86562">
        <ele>86.2</ele>
        <time>2023-12-20T10:29:35Z</time>
      </trkpt>
      <trkpt lat="48.81534" lon="1.86572">
        <ele>86.2</ele>
        <time>2023-12-20T10:29:36Z</time>
      </trkpt>
      <trkpt lat="48.81539" lon="1.86581">
        <ele>86.2</ele>
        <time>2023-12-20T10:29:37Z</time>
      </trkpt>
      <trkpt lat="48.81543" lon="1.86591">
        <ele>86.6</ele>
        <time>2023-12-20T10:29:38Z</time>
      </trkpt>
      <trkpt lat="48.81548" lon="1.86601">
        <ele>86.6</ele>
        <time>2023-12-20T10:29:39Z</time>
      </trkpt>
      <trkpt lat="48.81552" lon="1.8661">
        <ele>86.6</ele>
        <time>2023-12-20T10:29:40Z</time>
      </trkpt>
      <trkpt lat="48.81557" lon="1.8662">
        <ele>86.6</ele>
        <time>2023-12-20T10:29:41Z</time>
      </trkpt>
      <trkpt lat="48.81562" lon="1.8663">
        <ele>86.6</ele>
        <time>2023-12-20T10:29:42Z</time>
      </trkpt>
      <trkpt lat="48.81566" lon="1.8664">
        <ele>86.4</ele>
        <time>2023-12-20T10:29:43Z</time>
      </trkpt>
      <trkpt lat="48.81571" lon="1.86651">
        <ele>86.4</ele>
        <time>2023-12-20T10:29:44Z</time>
      </trkpt>
      <trkpt lat="48.81575" lon="1.86661">
        <ele>86.4</ele>
        <time>2023-12-20T10:29:45Z</time>
      </trkpt>
      <trkpt lat="48.8158" lon="1.86672">
        <ele>86.4</ele>
        <time>2023-12-20T10:29:46Z</time>
      </trkpt>
      <trkpt lat="48.81585" lon="1.86682">
        <ele>86.4</ele>
        <time>2023-12-20T10:29:47Z</time>
      </trkpt>
      <trkpt lat="48.81589" lon="1.86692">
        <ele>86.4</ele>
        <time>2023-12-20T10:29:48Z</time>
      </trkpt>
      <trkpt lat="48.81594" lon="1.86703">
        <ele>86.4</ele>
        <time>2023-12-20T10:29:49Z</time>
      </trkpt>
      <trkpt lat="48.81598" lon="1.86711">
        <ele>86.4</ele>
        <time>2023-12-20T10:29:50Z</time>
      </trkpt>
      <trkpt lat="48.81602" lon="1.86722">
        <ele>86.6</ele>
        <time>2023-12-20T10:29:51Z</time>
      </trkpt>
      <trkpt lat="48.81605" lon="1.86734">
        <ele>86.6</ele>
        <time>2023-12-20T10:29:52Z</time>
      </trkpt>
      <trkpt lat="48.81607" lon="1.86747">
        <ele>86.6</ele>
        <time>2023-12-20T10:29:53Z</time>
      </trkpt>
      <trkpt lat="48.81609" lon="1.86759">
        <ele>86.8</ele>
        <time>2023-12-20T10:29:54Z</time>
      </trkpt>
      <trkpt lat="48.8161" lon="1.86771">
        <ele>87</ele>
        <time>2023-12-20T10:29:55Z</time>
      </trkpt>
      <trkpt lat="48.81609" lon="1.86783">
        <ele>87</ele>
        <time>2023-12-20T10:29:56Z</time>
      </trkpt>
      <trkpt lat="48.81609" lon="1.86795">
        <ele>87</ele>
        <time>2023-12-20T10:29:57Z</time>
      </trkpt>
      <trkpt lat="48.8161" lon="1.86809">
        <ele>86.6</ele>
        <time>2023-12-20T10:29:58Z</time>
      </trkpt>
      <trkpt lat="48.81609" lon="1.86821">
        <ele>86.8</ele>
        <time>2023-12-20T10:29:59Z</time>
      </trkpt>
      <trkpt lat="48.81606" lon="1.86833">
        <ele>86.8</ele>
        <time>2023-12-20T10:30:00Z</time>
      </trkpt>
      <trkpt lat="48.81603" lon="1.86845">
        <ele>86.8</ele>
        <time>2023-12-20T10:30:01Z</time>
      </trkpt>
      <trkpt lat="48.816" lon="1.86855">
        <ele>87</ele>
        <time>2023-12-20T10:30:02Z</time>
      </trkpt>
      <trkpt lat="48.81596" lon="1.86865">
        <ele>88</ele>
        <time>2023-12-20T10:30:03Z</time>
      </trkpt>
      <trkpt lat="48.81592" lon="1.86871">
        <ele>88</ele>
        <time>2023-12-20T10:30:04Z</time>
      </trkpt>
      <trkpt lat="48.81588" lon="1.86879">
        <ele>88</ele>
        <time>2023-12-20T10:30:05Z</time>
      </trkpt>
      <trkpt lat="48.81583" lon="1.86886">
        <ele>87.4</ele>
        <time>2023-12-20T10:30:06Z</time>
      </trkpt>
      <trkpt lat="48.81579" lon="1.86894">
        <ele>87.4</ele>
        <time>2023-12-20T10:30:07Z</time>
      </trkpt>
      <trkpt lat="48.81574" lon="1.86903">
        <ele>87.4</ele>
        <time>2023-12-20T10:30:08Z</time>
      </trkpt>
      <trkpt lat="48.8157" lon="1.86911">
        <ele>87.4</ele>
        <time>2023-12-20T10:30:09Z</time>
      </trkpt>
      <trkpt lat="48.81565" lon="1.86919">
        <ele>87.4</ele>
        <time>2023-12-20T10:30:10Z</time>
      </trkpt>
      <trkpt lat="48.81561" lon="1.8693">
        <ele>87</ele>
        <time>2023-12-20T10:30:11Z</time>
      </trkpt>
      <trkpt lat="48.81557" lon="1.86941">
        <ele>87</ele>
        <time>2023-12-20T10:30:12Z</time>
      </trkpt>
      <trkpt lat="48.81553" lon="1.86951">
        <ele>87</ele>
        <time>2023-12-20T10:30:13Z</time>
      </trkpt>
      <trkpt lat="48.81549" lon="1.86961">
        <ele>87.8</ele>
        <time>2023-12-20T10:30:14Z</time>
      </trkpt>
      <trkpt lat="48.81545" lon="1.8697">
        <ele>88</ele>
        <time>2023-12-20T10:30:15Z</time>
      </trkpt>
      <trkpt lat="48.81542" lon="1.86977">
        <ele>88</ele>
        <time>2023-12-20T10:30:16Z</time>
      </trkpt>
      <trkpt lat="48.81538" lon="1.86985">
        <ele>88</ele>
        <time>2023-12-20T10:30:17Z</time>
      </trkpt>
      <trkpt lat="48.81535" lon="1.86991">
        <ele>87.4</ele>
        <time>2023-12-20T10:30:18Z</time>
      </trkpt>
      <trkpt lat="48.81531" lon="1.86997">
        <ele>87.8</ele>
        <time>2023-12-20T10:30:19Z</time>
      </trkpt>
      <trkpt lat="48.81528" lon="1.87003">
        <ele>87.8</ele>
        <time>2023-12-20T10:30:20Z</time>
      </trkpt>
      <trkpt lat="48.81525" lon="1.87009">
        <ele>87.8</ele>
        <time>2023-12-20T10:30:21Z</time>
      </trkpt>
      <trkpt lat="48.81522" lon="1.87014">
        <ele>87.8</ele>
        <time>2023-12-20T10:30:22Z</time>
      </trkpt>
      <trkpt lat="48.81519" lon="1.87019">
        <ele>87.8</ele>
        <time>2023-12-20T10:30:23Z</time>
      </trkpt>
      <trkpt lat="48.81516" lon="1.87024">
        <ele>87.8</ele>
        <time>2023-12-20T10:30:24Z</time>
      </trkpt>
      <trkpt lat="48.81514" lon="1.87028">
        <ele>87.8</ele>
        <time>2023-12-20T10:30:25Z</time>
      </trkpt>
      <trkpt lat="48.81512" lon="1.87031">
        <ele>87.4</ele>
        <time>2023-12-20T10:30:26Z</time>
      </trkpt>
      <trkpt lat="48.81511" lon="1.87034">
        <ele>87.4</ele>
        <time>2023-12-20T10:30:27Z</time>
      </trkpt>
      <trkpt lat="48.81512" lon="1.87038">
        <ele>87.4</ele>
        <time>2023-12-20T10:30:28Z</time>
      </trkpt>
      <trkpt lat="48.81513" lon="1.87042">
        <ele>87.4</ele>
        <time>2023-12-20T10:30:29Z</time>
      </trkpt>
      <trkpt lat="48.81516" lon="1.87044">
        <ele>87.4</ele>
        <time>2023-12-20T10:30:30Z</time>
      </trkpt>
      <trkpt lat="48.81518" lon="1.87047">
        <ele>86.8</ele>
        <time>2023-12-20T10:30:31Z</time>
      </trkpt>
      <trkpt lat="48.81521" lon="1.87051">
        <ele>86.8</ele>
        <time>2023-12-20T10:30:32Z</time>
      </trkpt>
      <trkpt lat="48.81523" lon="1.87056">
        <ele>86.8</ele>
        <time>2023-12-20T10:30:33Z</time>
      </trkpt>
      <trkpt lat="48.81524" lon="1.8706">
        <ele>87</ele>
        <time>2023-12-20T10:30:34Z</time>
      </trkpt>
      <trkpt lat="48.81526" lon="1.87065">
        <ele>87</ele>
        <time>2023-12-20T10:30:35Z</time>
      </trkpt>
      <trkpt lat="48.81528" lon="1.87071">
        <ele>87</ele>
        <time>2023-12-20T10:30:36Z</time>
      </trkpt>
      <trkpt lat="48.8153" lon="1.87077">
        <ele>87</ele>
        <time>2023-12-20T10:30:37Z</time>
      </trkpt>
      <trkpt lat="48.81532" lon="1.87083">
        <ele>86.6</ele>
        <time>2023-12-20T10:30:38Z</time>
      </trkpt>
      <trkpt lat="48.81534" lon="1.87088">
        <ele>86.6</ele>
        <time>2023-12-20T10:30:39Z</time>
      </trkpt>
      <trkpt lat="48.81536" lon="1.87094">
        <ele>86.6</ele>
        <time>2023-12-20T10:30:40Z</time>
      </trkpt>
      <trkpt lat="48.81538" lon="1.871">
        <ele>86.6</ele>
        <time>2023-12-20T10:30:41Z</time>
      </trkpt>
      <trkpt lat="48.8154" lon="1.87106">
        <ele>87</ele>
        <time>2023-12-20T10:30:42Z</time>
      </trkpt>
      <trkpt lat="48.81542" lon="1.87111">
        <ele>86.4</ele>
        <time>2023-12-20T10:30:43Z</time>
      </trkpt>
      <trkpt lat="48.81544" lon="1.87117">
        <ele>86.4</ele>
        <time>2023-12-20T10:30:44Z</time>
      </trkpt>
      <trkpt lat="48.81546" lon="1.87123">
        <ele>86.4</ele>
        <time>2023-12-20T10:30:45Z</time>
      </trkpt>
      <trkpt lat="48.81548" lon="1.87129">
        <ele>86.6</ele>
        <time>2023-12-20T10:30:46Z</time>
      </trkpt>
      <trkpt lat="48.81551" lon="1.87135">
        <ele>86</ele>
        <time>2023-12-20T10:30:47Z</time>
      </trkpt>
      <trkpt lat="48.81553" lon="1.87141">
        <ele>86</ele>
        <time>2023-12-20T10:30:48Z</time>
      </trkpt>
      <trkpt lat="48.81554" lon="1.87147">
        <ele>86</ele>
        <time>2023-12-20T10:30:49Z</time>
      </trkpt>
      <trkpt lat="48.81557" lon="1.87153">
        <ele>86.2</ele>
        <time>2023-12-20T10:30:50Z</time>
      </trkpt>
      <trkpt lat="48.81559" lon="1.87159">
        <ele>86.4</ele>
        <time>2023-12-20T10:30:51Z</time>
      </trkpt>
      <trkpt lat="48.81561" lon="1.87165">
        <ele>86.4</ele>
        <time>2023-12-20T10:30:52Z</time>
      </trkpt>
      <trkpt lat="48.81564" lon="1.87171">
        <ele>86.4</ele>
        <time>2023-12-20T10:30:53Z</time>
      </trkpt>
      <trkpt lat="48.81566" lon="1.87177">
        <ele>86.4</ele>
        <time>2023-12-20T10:30:54Z</time>
      </trkpt>
      <trkpt lat="48.81569" lon="1.87183">
        <ele>86.4</ele>
        <time>2023-12-20T10:30:55Z</time>
      </trkpt>
      <trkpt lat="48.81571" lon="1.87189">
        <ele>86.4</ele>
        <time>2023-12-20T10:30:56Z</time>
      </trkpt>
      <trkpt lat="48.81573" lon="1.87195">
        <ele>86.4</ele>
        <time>2023-12-20T10:30:57Z</time>
      </trkpt>
      <trkpt lat="48.81576" lon="1.87201">
        <ele>86</ele>
        <time>2023-12-20T10:30:58Z</time>
      </trkpt>
      <trkpt lat="48.81578" lon="1.87207">
        <ele>86</ele>
        <time>2023-12-20T10:30:59Z</time>
      </trkpt>
      <trkpt lat="48.8158" lon="1.87214">
        <ele>86</ele>
        <time>2023-12-20T10:31:00Z</time>
      </trkpt>
      <trkpt lat="48.81583" lon="1.8722">
        <ele>86</ele>
        <time>2023-12-20T10:31:01Z</time>
      </trkpt>
      <trkpt lat="48.81585" lon="1.87227">
        <ele>86</ele>
        <time>2023-12-20T10:31:02Z</time>
      </trkpt>
      <trkpt lat="48.81587" lon="1.87234">
        <ele>86.4</ele>
        <time>2023-12-20T10:31:03Z</time>
      </trkpt>
      <trkpt lat="48.8159" lon="1.8724">
        <ele>86.4</ele>
        <time>2023-12-20T10:31:04Z</time>
      </trkpt>
      <trkpt lat="48.81592" lon="1.87246">
        <ele>86.4</ele>
        <time>2023-12-20T10:31:05Z</time>
      </trkpt>
      <trkpt lat="48.81594" lon="1.87253">
        <ele>86</ele>
        <time>2023-12-20T10:31:06Z</time>
      </trkpt>
      <trkpt lat="48.81597" lon="1.87259">
        <ele>86</ele>
        <time>2023-12-20T10:31:07Z</time>
      </trkpt>
      <trkpt lat="48.816" lon="1.87265">
        <ele>86</ele>
        <time>2023-12-20T10:31:08Z</time>
      </trkpt>
      <trkpt lat="48.81602" lon="1.87271">
        <ele>86</ele>
        <time>2023-12-20T10:31:09Z</time>
      </trkpt>
      <trkpt lat="48.81605" lon="1.87278">
        <ele>86</ele>
        <time>2023-12-20T10:31:10Z</time>
      </trkpt>
      <trkpt lat="48.81607" lon="1.87284">
        <ele>85.4</ele>
        <time>2023-12-20T10:31:11Z</time>
      </trkpt>
      <trkpt lat="48.81609" lon="1.87291">
        <ele>85.4</ele>
        <time>2023-12-20T10:31:12Z</time>
      </trkpt>
      <trkpt lat="48.81612" lon="1.87297">
        <ele>85.4</ele>
        <time>2023-12-20T10:31:13Z</time>
      </trkpt>
      <trkpt lat="48.81615" lon="1.87304">
        <ele>85.4</ele>
        <time>2023-12-20T10:31:14Z</time>
      </trkpt>
      <trkpt lat="48.81617" lon="1.87311">
        <ele>85.8</ele>
        <time>2023-12-20T10:31:15Z</time>
      </trkpt>
      <trkpt lat="48.8162" lon="1.87317">
        <ele>85.8</ele>
        <time>2023-12-20T10:31:16Z</time>
      </trkpt>
      <trkpt lat="48.81622" lon="1.87324">
        <ele>85.8</ele>
        <time>2023-12-20T10:31:17Z</time>
      </trkpt>
      <trkpt lat="48.81625" lon="1.87331">
        <ele>85.4</ele>
        <time>2023-12-20T10:31:18Z</time>
      </trkpt>
      <trkpt lat="48.81627" lon="1.87338">
        <ele>86</ele>
        <time>2023-12-20T10:31:19Z</time>
      </trkpt>
      <trkpt lat="48.8163" lon="1.87345">
        <ele>86</ele>
        <time>2023-12-20T10:31:20Z</time>
      </trkpt>
      <trkpt lat="48.81632" lon="1.87352">
        <ele>86</ele>
        <time>2023-12-20T10:31:21Z</time>
      </trkpt>
      <trkpt lat="48.81635" lon="1.87359">
        <ele>85.4</ele>
        <time>2023-12-20T10:31:22Z</time>
      </trkpt>
      <trkpt lat="48.81638" lon="1.87365">
        <ele>85.4</ele>
        <time>2023-12-20T10:31:23Z</time>
      </trkpt>
      <trkpt lat="48.81641" lon="1.87372">
        <ele>85.4</ele>
        <time>2023-12-20T10:31:24Z</time>
      </trkpt>
      <trkpt lat="48.81644" lon="1.87379">
        <ele>85.4</ele>
        <time>2023-12-20T10:31:25Z</time>
      </trkpt>
      <trkpt lat="48.81646" lon="1.87386">
        <ele>85.8</ele>
        <time>2023-12-20T10:31:26Z</time>
      </trkpt>
      <trkpt lat="48.81649" lon="1.87393">
        <ele>85.8</ele>
        <time>2023-12-20T10:31:27Z</time>
      </trkpt>
      <trkpt lat="48.81652" lon="1.874">
        <ele>85.8</ele>
        <time>2023-12-20T10:31:28Z</time>
      </trkpt>
      <trkpt lat="48.81654" lon="1.87408">
        <ele>85.8</ele>
        <time>2023-12-20T10:31:29Z</time>
      </trkpt>
      <trkpt lat="48.81657" lon="1.87414">
        <ele>85.4</ele>
        <time>2023-12-20T10:31:30Z</time>
      </trkpt>
      <trkpt lat="48.8166" lon="1.87421">
        <ele>85.6</ele>
        <time>2023-12-20T10:31:31Z</time>
      </trkpt>
      <trkpt lat="48.81663" lon="1.87428">
        <ele>85.6</ele>
        <time>2023-12-20T10:31:32Z</time>
      </trkpt>
      <trkpt lat="48.81665" lon="1.87435">
        <ele>85.6</ele>
        <time>2023-12-20T10:31:33Z</time>
      </trkpt>
      <trkpt lat="48.81668" lon="1.87442">
        <ele>85.6</ele>
        <time>2023-12-20T10:31:34Z</time>
      </trkpt>
      <trkpt lat="48.81671" lon="1.87449">
        <ele>86</ele>
        <time>2023-12-20T10:31:35Z</time>
      </trkpt>
      <trkpt lat="48.81673" lon="1.87456">
        <ele>86</ele>
        <time>2023-12-20T10:31:36Z</time>
      </trkpt>
      <trkpt lat="48.81676" lon="1.87463">
        <ele>86</ele>
        <time>2023-12-20T10:31:37Z</time>
      </trkpt>
      <trkpt lat="48.81679" lon="1.87471">
        <ele>86</ele>
        <time>2023-12-20T10:31:38Z</time>
      </trkpt>
      <trkpt lat="48.81682" lon="1.87478">
        <ele>85.4</ele>
        <time>2023-12-20T10:31:39Z</time>
      </trkpt>
      <trkpt lat="48.81684" lon="1.87484">
        <ele>85.4</ele>
        <time>2023-12-20T10:31:40Z</time>
      </trkpt>
      <trkpt lat="48.81687" lon="1.87491">
        <ele>85.4</ele>
        <time>2023-12-20T10:31:41Z</time>
      </trkpt>
      <trkpt lat="48.8169" lon="1.87498">
        <ele>85.4</ele>
        <time>2023-12-20T10:31:42Z</time>
      </trkpt>
      <trkpt lat="48.81692" lon="1.87505">
        <ele>85.4</ele>
        <time>2023-12-20T10:31:43Z</time>
      </trkpt>
      <trkpt lat="48.81695" lon="1.87512">
        <ele>85.4</ele>
        <time>2023-12-20T10:31:44Z</time>
      </trkpt>
      <trkpt lat="48.81698" lon="1.87519">
        <ele>85.4</ele>
        <time>2023-12-20T10:31:45Z</time>
      </trkpt>
      <trkpt lat="48.817" lon="1.87526">
        <ele>86</ele>
        <time>2023-12-20T10:31:46Z</time>
      </trkpt>
      <trkpt lat="48.81703" lon="1.87533">
        <ele>85.8</ele>
        <time>2023-12-20T10:31:47Z</time>
      </trkpt>
      <trkpt lat="48.81705" lon="1.8754">
        <ele>85.8</ele>
        <time>2023-12-20T10:31:48Z</time>
      </trkpt>
      <trkpt lat="48.81708" lon="1.87547">
        <ele>85.8</ele>
        <time>2023-12-20T10:31:49Z</time>
      </trkpt>
      <trkpt lat="48.81711" lon="1.87554">
        <ele>85.8</ele>
        <time>2023-12-20T10:31:50Z</time>
      </trkpt>
      <trkpt lat="48.81714" lon="1.8756">
        <ele>86</ele>
        <time>2023-12-20T10:31:51Z</time>
      </trkpt>
      <trkpt lat="48.81716" lon="1.87567">
        <ele>86</ele>
        <time>2023-12-20T10:31:52Z</time>
      </trkpt>
      <trkpt lat="48.81719" lon="1.87574">
        <ele>86</ele>
        <time>2023-12-20T10:31:53Z</time>
      </trkpt>
      <trkpt lat="48.81721" lon="1.8758">
        <ele>86.4</ele>
        <time>2023-12-20T10:31:54Z</time>
      </trkpt>
      <trkpt lat="48.81724" lon="1.87587">
        <ele>86.4</ele>
        <time>2023-12-20T10:31:55Z</time>
      </trkpt>
      <trkpt lat="48.81726" lon="1.87594">
        <ele>86.4</ele>
        <time>2023-12-20T10:31:56Z</time>
      </trkpt>
      <trkpt lat="48.81729" lon="1.87599">
        <ele>86.4</ele>
        <time>2023-12-20T10:31:57Z</time>
      </trkpt>
      <trkpt lat="48.81731" lon="1.87605">
        <ele>86.4</ele>
        <time>2023-12-20T10:31:58Z</time>
      </trkpt>
      <trkpt lat="48.81731" lon="1.87609">
        <ele>86.6</ele>
        <time>2023-12-20T10:31:59Z</time>
      </trkpt>
      <trkpt lat="48.81732" lon="1.87611">
        <ele>86.6</ele>
        <time>2023-12-20T10:32:00Z</time>
      </trkpt>
      <trkpt lat="48.81733" lon="1.87614">
        <ele>86.6</ele>
        <time>2023-12-20T10:32:01Z</time>
      </trkpt>
      <trkpt lat="48.81734" lon="1.87616">
        <ele>86.8</ele>
        <time>2023-12-20T10:32:02Z</time>
      </trkpt>
      <trkpt lat="48.81736" lon="1.87617">
        <ele>86.8</ele>
        <time>2023-12-20T10:32:03Z</time>
      </trkpt>
      <trkpt lat="48.8174" lon="1.87618">
        <ele>86.8</ele>
        <time>2023-12-20T10:32:04Z</time>
      </trkpt>
      <trkpt lat="48.81744" lon="1.87618">
        <ele>86.8</ele>
        <time>2023-12-20T10:32:05Z</time>
      </trkpt>
      <trkpt lat="48.81748" lon="1.87617">
        <ele>86.8</ele>
        <time>2023-12-20T10:32:06Z</time>
      </trkpt>
      <trkpt lat="48.81753" lon="1.87617">
        <ele>86.2</ele>
        <time>2023-12-20T10:32:07Z</time>
      </trkpt>
      <trkpt lat="48.81758" lon="1.87617">
        <ele>86.2</ele>
        <time>2023-12-20T10:32:08Z</time>
      </trkpt>
      <trkpt lat="48.81763" lon="1.87616">
        <ele>86.2</ele>
        <time>2023-12-20T10:32:09Z</time>
      </trkpt>
      <trkpt lat="48.81769" lon="1.87615">
        <ele>86.2</ele>
        <time>2023-12-20T10:32:10Z</time>
      </trkpt>
      <trkpt lat="48.81775" lon="1.87614">
        <ele>86.6</ele>
        <time>2023-12-20T10:32:11Z</time>
      </trkpt>
      <trkpt lat="48.8178" lon="1.87613">
        <ele>86.6</ele>
        <time>2023-12-20T10:32:12Z</time>
      </trkpt>
      <trkpt lat="48.81785" lon="1.87611">
        <ele>86.6</ele>
        <time>2023-12-20T10:32:13Z</time>
      </trkpt>
      <trkpt lat="48.81791" lon="1.8761">
        <ele>86.6</ele>
        <time>2023-12-20T10:32:14Z</time>
      </trkpt>
      <trkpt lat="48.81797" lon="1.87608">
        <ele>86.8</ele>
        <time>2023-12-20T10:32:15Z</time>
      </trkpt>
      <trkpt lat="48.81803" lon="1.87606">
        <ele>86.8</ele>
        <time>2023-12-20T10:32:16Z</time>
      </trkpt>
      <trkpt lat="48.81809" lon="1.87604">
        <ele>86.8</ele>
        <time>2023-12-20T10:32:17Z</time>
      </trkpt>
      <trkpt lat="48.81815" lon="1.87602">
        <ele>86.8</ele>
        <time>2023-12-20T10:32:18Z</time>
      </trkpt>
      <trkpt lat="48.81822" lon="1.876">
        <ele>86.2</ele>
        <time>2023-12-20T10:32:19Z</time>
      </trkpt>
      <trkpt lat="48.81828" lon="1.87599">
        <ele>86.2</ele>
        <time>2023-12-20T10:32:20Z</time>
      </trkpt>
      <trkpt lat="48.81834" lon="1.87597">
        <ele>86.2</ele>
        <time>2023-12-20T10:32:21Z</time>
      </trkpt>
      <trkpt lat="48.81841" lon="1.87595">
        <ele>86.4</ele>
        <time>2023-12-20T10:32:22Z</time>
      </trkpt>
      <trkpt lat="48.81847" lon="1.87593">
        <ele>86.4</ele>
        <time>2023-12-20T10:32:23Z</time>
      </trkpt>
      <trkpt lat="48.81854" lon="1.87591">
        <ele>86.4</ele>
        <time>2023-12-20T10:32:24Z</time>
      </trkpt>
      <trkpt lat="48.8186" lon="1.87589">
        <ele>86.4</ele>
        <time>2023-12-20T10:32:25Z</time>
      </trkpt>
      <trkpt lat="48.81867" lon="1.87587">
        <ele>86.4</ele>
        <time>2023-12-20T10:32:26Z</time>
      </trkpt>
      <trkpt lat="48.81873" lon="1.87585">
        <ele>86.6</ele>
        <time>2023-12-20T10:32:27Z</time>
      </trkpt>
      <trkpt lat="48.8188" lon="1.87584">
        <ele>86.6</ele>
        <time>2023-12-20T10:32:28Z</time>
      </trkpt>
      <trkpt lat="48.81886" lon="1.87582">
        <ele>86.6</ele>
        <time>2023-12-20T10:32:29Z</time>
      </trkpt>
      <trkpt lat="48.81893" lon="1.8758">
        <ele>86.6</ele>
        <time>2023-12-20T10:32:30Z</time>
      </trkpt>
      <trkpt lat="48.81899" lon="1.87578">
        <ele>86.8</ele>
        <time>2023-12-20T10:32:31Z</time>
      </trkpt>
      <trkpt lat="48.81905" lon="1.87577">
        <ele>86.8</ele>
        <time>2023-12-20T10:32:32Z</time>
      </trkpt>
      <trkpt lat="48.81911" lon="1.87575">
        <ele>86.8</ele>
        <time>2023-12-20T10:32:33Z</time>
      </trkpt>
      <trkpt lat="48.81918" lon="1.87573">
        <ele>86.8</ele>
        <time>2023-12-20T10:32:34Z</time>
      </trkpt>
      <trkpt lat="48.81924" lon="1.87571">
        <ele>87.2</ele>
        <time>2023-12-20T10:32:35Z</time>
      </trkpt>
      <trkpt lat="48.8193" lon="1.87569">
        <ele>87.2</ele>
        <time>2023-12-20T10:32:36Z</time>
      </trkpt>
      <trkpt lat="48.81936" lon="1.87567">
        <ele>87.2</ele>
        <time>2023-12-20T10:32:37Z</time>
      </trkpt>
      <trkpt lat="48.81943" lon="1.87565">
        <ele>87.2</ele>
        <time>2023-12-20T10:32:38Z</time>
      </trkpt>
      <trkpt lat="48.81949" lon="1.87563">
        <ele>87</ele>
        <time>2023-12-20T10:32:39Z</time>
      </trkpt>
      <trkpt lat="48.81955" lon="1.87561">
        <ele>87</ele>
        <time>2023-12-20T10:32:40Z</time>
      </trkpt>
      <trkpt lat="48.81962" lon="1.87559">
        <ele>87</ele>
        <time>2023-12-20T10:32:41Z</time>
      </trkpt>
      <trkpt lat="48.81968" lon="1.87557">
        <ele>87</ele>
        <time>2023-12-20T10:32:42Z</time>
      </trkpt>
      <trkpt lat="48.81975" lon="1.87555">
        <ele>87</ele>
        <time>2023-12-20T10:32:43Z</time>
      </trkpt>
      <trkpt lat="48.81981" lon="1.87554">
        <ele>87</ele>
        <time>2023-12-20T10:32:44Z</time>
      </trkpt>
      <trkpt lat="48.81988" lon="1.87552">
        <ele>87</ele>
        <time>2023-12-20T10:32:45Z</time>
      </trkpt>
      <trkpt lat="48.81994" lon="1.87551">
        <ele>87</ele>
        <time>2023-12-20T10:32:46Z</time>
      </trkpt>
      <trkpt lat="48.82001" lon="1.8755">
        <ele>87.4</ele>
        <time>2023-12-20T10:32:47Z</time>
      </trkpt>
      <trkpt lat="48.82007" lon="1.87548">
        <ele>87.4</ele>
        <time>2023-12-20T10:32:48Z</time>
      </trkpt>
      <trkpt lat="48.82014" lon="1.87547">
        <ele>87.4</ele>
        <time>2023-12-20T10:32:49Z</time>
      </trkpt>
      <trkpt lat="48.8202" lon="1.87547">
        <ele>87.4</ele>
        <time>2023-12-20T10:32:50Z</time>
      </trkpt>
      <trkpt lat="48.82027" lon="1.87546">
        <ele>87.4</ele>
        <time>2023-12-20T10:32:51Z</time>
      </trkpt>
      <trkpt lat="48.82034" lon="1.87545">
        <ele>87.4</ele>
        <time>2023-12-20T10:32:52Z</time>
      </trkpt>
      <trkpt lat="48.8204" lon="1.87544">
        <ele>87.4</ele>
        <time>2023-12-20T10:32:53Z</time>
      </trkpt>
      <trkpt lat="48.82047" lon="1.87543">
        <ele>87.4</ele>
        <time>2023-12-20T10:32:54Z</time>
      </trkpt>
      <trkpt lat="48.82053" lon="1.87541">
        <ele>87.6</ele>
        <time>2023-12-20T10:32:55Z</time>
      </trkpt>
      <trkpt lat="48.82059" lon="1.8754">
        <ele>87.6</ele>
        <time>2023-12-20T10:32:56Z</time>
      </trkpt>
      <trkpt lat="48.82066" lon="1.87539">
        <ele>87.6</ele>
        <time>2023-12-20T10:32:57Z</time>
      </trkpt>
      <trkpt lat="48.82072" lon="1.87537">
        <ele>87.6</ele>
        <time>2023-12-20T10:32:58Z</time>
      </trkpt>
      <trkpt lat="48.82079" lon="1.87536">
        <ele>87.6</ele>
        <time>2023-12-20T10:32:59Z</time>
      </trkpt>
      <trkpt lat="48.82085" lon="1.87535">
        <ele>87.6</ele>
        <time>2023-12-20T10:33:00Z</time>
      </trkpt>
      <trkpt lat="48.82092" lon="1.87534">
        <ele>87.6</ele>
        <time>2023-12-20T10:33:01Z</time>
      </trkpt>
      <trkpt lat="48.82099" lon="1.87532">
        <ele>87.6</ele>
        <time>2023-12-20T10:33:02Z</time>
      </trkpt>
      <trkpt lat="48.82105" lon="1.87531">
        <ele>87.8</ele>
        <time>2023-12-20T10:33:03Z</time>
      </trkpt>
      <trkpt lat="48.82112" lon="1.8753">
        <ele>87.8</ele>
        <time>2023-12-20T10:33:04Z</time>
      </trkpt>
      <trkpt lat="48.82118" lon="1.87528">
        <ele>87.8</ele>
        <time>2023-12-20T10:33:05Z</time>
      </trkpt>
      <trkpt lat="48.82125" lon="1.87527">
        <ele>87.8</ele>
        <time>2023-12-20T10:33:06Z</time>
      </trkpt>
      <trkpt lat="48.82131" lon="1.87526">
        <ele>87.8</ele>
        <time>2023-12-20T10:33:07Z</time>
      </trkpt>
      <trkpt lat="48.82138" lon="1.87524">
        <ele>87.8</ele>
        <time>2023-12-20T10:33:08Z</time>
      </trkpt>
      <trkpt lat="48.82144" lon="1.87523">
        <ele>87.8</ele>
        <time>2023-12-20T10:33:09Z</time>
      </trkpt>
      <trkpt lat="48.8215" lon="1.87522">
        <ele>87.8</ele>
        <time>2023-12-20T10:33:10Z</time>
      </trkpt>
      <trkpt lat="48.82157" lon="1.8752">
        <ele>87.8</ele>
        <time>2023-12-20T10:33:11Z</time>
      </trkpt>
      <trkpt lat="48.82163" lon="1.87519">
        <ele>87.8</ele>
        <time>2023-12-20T10:33:12Z</time>
      </trkpt>
      <trkpt lat="48.82169" lon="1.87517">
        <ele>87.8</ele>
        <time>2023-12-20T10:33:13Z</time>
      </trkpt>
      <trkpt lat="48.82175" lon="1.87516">
        <ele>88.4</ele>
        <time>2023-12-20T10:33:14Z</time>
      </trkpt>
      <trkpt lat="48.82182" lon="1.87516">
        <ele>88.6</ele>
        <time>2023-12-20T10:33:15Z</time>
      </trkpt>
      <trkpt lat="48.82188" lon="1.87516">
        <ele>88.6</ele>
        <time>2023-12-20T10:33:16Z</time>
      </trkpt>
      <trkpt lat="48.82194" lon="1.87516">
        <ele>88.6</ele>
        <time>2023-12-20T10:33:17Z</time>
      </trkpt>
      <trkpt lat="48.82201" lon="1.87516">
        <ele>88.6</ele>
        <time>2023-12-20T10:33:18Z</time>
      </trkpt>
      <trkpt lat="48.82207" lon="1.87516">
        <ele>88.2</ele>
        <time>2023-12-20T10:33:19Z</time>
      </trkpt>
      <trkpt lat="48.82214" lon="1.87517">
        <ele>88.2</ele>
        <time>2023-12-20T10:33:20Z</time>
      </trkpt>
      <trkpt lat="48.8222" lon="1.87517">
        <ele>88.2</ele>
        <time>2023-12-20T10:33:21Z</time>
      </trkpt>
      <trkpt lat="48.82227" lon="1.87517">
        <ele>88.2</ele>
        <time>2023-12-20T10:33:22Z</time>
      </trkpt>
      <trkpt lat="48.82233" lon="1.87517">
        <ele>88.4</ele>
        <time>2023-12-20T10:33:23Z</time>
      </trkpt>
      <trkpt lat="48.8224" lon="1.87517">
        <ele>88.4</ele>
        <time>2023-12-20T10:33:24Z</time>
      </trkpt>
      <trkpt lat="48.82246" lon="1.87517">
        <ele>88.4</ele>
        <time>2023-12-20T10:33:25Z</time>
      </trkpt>
      <trkpt lat="48.82253" lon="1.87517">
        <ele>88.4</ele>
        <time>2023-12-20T10:33:26Z</time>
      </trkpt>
      <trkpt lat="48.82259" lon="1.87518">
        <ele>88.4</ele>
        <time>2023-12-20T10:33:27Z</time>
      </trkpt>
      <trkpt lat="48.82266" lon="1.87518">
        <ele>88.4</ele>
        <time>2023-12-20T10:33:28Z</time>
      </trkpt>
      <trkpt lat="48.82272" lon="1.87518">
        <ele>88.4</ele>
        <time>2023-12-20T10:33:29Z</time>
      </trkpt>
      <trkpt lat="48.82279" lon="1.87518">
        <ele>88.4</ele>
        <time>2023-12-20T10:33:30Z</time>
      </trkpt>
      <trkpt lat="48.82285" lon="1.87518">
        <ele>88.4</ele>
        <time>2023-12-20T10:33:31Z</time>
      </trkpt>
      <trkpt lat="48.82292" lon="1.87519">
        <ele>88.4</ele>
        <time>2023-12-20T10:33:32Z</time>
      </trkpt>
      <trkpt lat="48.823" lon="1.87519">
        <ele>88.4</ele>
        <time>2023-12-20T10:33:33Z</time>
      </trkpt>
      <trkpt lat="48.82306" lon="1.8752">
        <ele>88.4</ele>
        <time>2023-12-20T10:33:34Z</time>
      </trkpt>
      <trkpt lat="48.82312" lon="1.8752">
        <ele>88.8</ele>
        <time>2023-12-20T10:33:35Z</time>
      </trkpt>
      <trkpt lat="48.82319" lon="1.87521">
        <ele>88.8</ele>
        <time>2023-12-20T10:33:36Z</time>
      </trkpt>
      <trkpt lat="48.82325" lon="1.87521">
        <ele>88.8</ele>
        <time>2023-12-20T10:33:37Z</time>
      </trkpt>
      <trkpt lat="48.82331" lon="1.87521">
        <ele>88.8</ele>
        <time>2023-12-20T10:33:38Z</time>
      </trkpt>
      <trkpt lat="48.82338" lon="1.87521">
        <ele>88.8</ele>
        <time>2023-12-20T10:33:39Z</time>
      </trkpt>
      <trkpt lat="48.82344" lon="1.87522">
        <ele>88.8</ele>
        <time>2023-12-20T10:33:40Z</time>
      </trkpt>
      <trkpt lat="48.8235" lon="1.87522">
        <ele>88.8</ele>
        <time>2023-12-20T10:33:41Z</time>
      </trkpt>
      <trkpt lat="48.82357" lon="1.87523">
        <ele>88.8</ele>
        <time>2023-12-20T10:33:42Z</time>
      </trkpt>
      <trkpt lat="48.82363" lon="1.87524">
        <ele>88.6</ele>
        <time>2023-12-20T10:33:43Z</time>
      </trkpt>
      <trkpt lat="48.8237" lon="1.87524">
        <ele>88.6</ele>
        <time>2023-12-20T10:33:44Z</time>
      </trkpt>
      <trkpt lat="48.82376" lon="1.87524">
        <ele>88.6</ele>
        <time>2023-12-20T10:33:45Z</time>
      </trkpt>
      <trkpt lat="48.82383" lon="1.87525">
        <ele>88.8</ele>
        <time>2023-12-20T10:33:46Z</time>
      </trkpt>
      <trkpt lat="48.82389" lon="1.87525">
        <ele>89.2</ele>
        <time>2023-12-20T10:33:47Z</time>
      </trkpt>
      <trkpt lat="48.82396" lon="1.87525">
        <ele>89.2</ele>
        <time>2023-12-20T10:33:48Z</time>
      </trkpt>
      <trkpt lat="48.82402" lon="1.87525">
        <ele>89.2</ele>
        <time>2023-12-20T10:33:49Z</time>
      </trkpt>
      <trkpt lat="48.82409" lon="1.87526">
        <ele>89.2</ele>
        <time>2023-12-20T10:33:50Z</time>
      </trkpt>
      <trkpt lat="48.82415" lon="1.87526">
        <ele>89.4</ele>
        <time>2023-12-20T10:33:51Z</time>
      </trkpt>
      <trkpt lat="48.82422" lon="1.87526">
        <ele>89.4</ele>
        <time>2023-12-20T10:33:52Z</time>
      </trkpt>
      <trkpt lat="48.82428" lon="1.87526">
        <ele>89.4</ele>
        <time>2023-12-20T10:33:53Z</time>
      </trkpt>
      <trkpt lat="48.82435" lon="1.87526">
        <ele>89.4</ele>
        <time>2023-12-20T10:33:54Z</time>
      </trkpt>
      <trkpt lat="48.82441" lon="1.87525">
        <ele>89.2</ele>
        <time>2023-12-20T10:33:55Z</time>
      </trkpt>
      <trkpt lat="48.82448" lon="1.87525">
        <ele>89.2</ele>
        <time>2023-12-20T10:33:56Z</time>
      </trkpt>
      <trkpt lat="48.82454" lon="1.87525">
        <ele>89.2</ele>
        <time>2023-12-20T10:33:57Z</time>
      </trkpt>
      <trkpt lat="48.8246" lon="1.87525">
        <ele>89.6</ele>
        <time>2023-12-20T10:33:58Z</time>
      </trkpt>
      <trkpt lat="48.82466" lon="1.87524">
        <ele>89.4</ele>
        <time>2023-12-20T10:33:59Z</time>
      </trkpt>
      <trkpt lat="48.82473" lon="1.87525">
        <ele>89.4</ele>
        <time>2023-12-20T10:34:00Z</time>
      </trkpt>
      <trkpt lat="48.82479" lon="1.87524">
        <ele>89.4</ele>
        <time>2023-12-20T10:34:01Z</time>
      </trkpt>
      <trkpt lat="48.82485" lon="1.87524">
        <ele>89.4</ele>
        <time>2023-12-20T10:34:02Z</time>
      </trkpt>
      <trkpt lat="48.82492" lon="1.87524">
        <ele>89.6</ele>
        <time>2023-12-20T10:34:03Z</time>
      </trkpt>
      <trkpt lat="48.82498" lon="1.87524">
        <ele>89.6</ele>
        <time>2023-12-20T10:34:04Z</time>
      </trkpt>
      <trkpt lat="48.82505" lon="1.87523">
        <ele>89.6</ele>
        <time>2023-12-20T10:34:05Z</time>
      </trkpt>
      <trkpt lat="48.82511" lon="1.87523">
        <ele>89.8</ele>
        <time>2023-12-20T10:34:06Z</time>
      </trkpt>
      <trkpt lat="48.82518" lon="1.87523">
        <ele>89.6</ele>
        <time>2023-12-20T10:34:07Z</time>
      </trkpt>
      <trkpt lat="48.82525" lon="1.87523">
        <ele>89.6</ele>
        <time>2023-12-20T10:34:08Z</time>
      </trkpt>
      <trkpt lat="48.82531" lon="1.87522">
        <ele>89.6</ele>
        <time>2023-12-20T10:34:09Z</time>
      </trkpt>
      <trkpt lat="48.82538" lon="1.87522">
        <ele>89.6</ele>
        <time>2023-12-20T10:34:10Z</time>
      </trkpt>
      <trkpt lat="48.82545" lon="1.87522">
        <ele>90.2</ele>
        <time>2023-12-20T10:34:11Z</time>
      </trkpt>
      <trkpt lat="48.82552" lon="1.87523">
        <ele>90.2</ele>
        <time>2023-12-20T10:34:12Z</time>
      </trkpt>
      <trkpt lat="48.82559" lon="1.87523">
        <ele>90.2</ele>
        <time>2023-12-20T10:34:13Z</time>
      </trkpt>
      <trkpt lat="48.82566" lon="1.87523">
        <ele>90</ele>
        <time>2023-12-20T10:34:14Z</time>
      </trkpt>
      <trkpt lat="48.82574" lon="1.87523">
        <ele>89.6</ele>
        <time>2023-12-20T10:34:15Z</time>
      </trkpt>
      <trkpt lat="48.82581" lon="1.87523">
        <ele>89.6</ele>
        <time>2023-12-20T10:34:16Z</time>
      </trkpt>
      <trkpt lat="48.82589" lon="1.87523">
        <ele>89.6</ele>
        <time>2023-12-20T10:34:17Z</time>
      </trkpt>
      <trkpt lat="48.82597" lon="1.87523">
        <ele>90.2</ele>
        <time>2023-12-20T10:34:18Z</time>
      </trkpt>
      <trkpt lat="48.82605" lon="1.87524">
        <ele>90</ele>
        <time>2023-12-20T10:34:19Z</time>
      </trkpt>
      <trkpt lat="48.82613" lon="1.87524">
        <ele>90</ele>
        <time>2023-12-20T10:34:20Z</time>
      </trkpt>
      <trkpt lat="48.82621" lon="1.87525">
        <ele>90</ele>
        <time>2023-12-20T10:34:21Z</time>
      </trkpt>
      <trkpt lat="48.8263" lon="1.87526">
        <ele>90</ele>
        <time>2023-12-20T10:34:22Z</time>
      </trkpt>
      <trkpt lat="48.82639" lon="1.87526">
        <ele>89.8</ele>
        <time>2023-12-20T10:34:23Z</time>
      </trkpt>
      <trkpt lat="48.82648" lon="1.87527">
        <ele>89.8</ele>
        <time>2023-12-20T10:34:24Z</time>
      </trkpt>
      <trkpt lat="48.82657" lon="1.87528">
        <ele>89.8</ele>
        <time>2023-12-20T10:34:25Z</time>
      </trkpt>
      <trkpt lat="48.82667" lon="1.87529">
        <ele>89.8</ele>
        <time>2023-12-20T10:34:26Z</time>
      </trkpt>
      <trkpt lat="48.82677" lon="1.8753">
        <ele>90</ele>
        <time>2023-12-20T10:34:27Z</time>
      </trkpt>
      <trkpt lat="48.82686" lon="1.87531">
        <ele>90</ele>
        <time>2023-12-20T10:34:28Z</time>
      </trkpt>
      <trkpt lat="48.82696" lon="1.87533">
        <ele>90</ele>
        <time>2023-12-20T10:34:29Z</time>
      </trkpt>
      <trkpt lat="48.82706" lon="1.87534">
        <ele>89.6</ele>
        <time>2023-12-20T10:34:30Z</time>
      </trkpt>
      <trkpt lat="48.82716" lon="1.87536">
        <ele>89.8</ele>
        <time>2023-12-20T10:34:31Z</time>
      </trkpt>
      <trkpt lat="48.82726" lon="1.87538">
        <ele>89.8</ele>
        <time>2023-12-20T10:34:32Z</time>
      </trkpt>
      <trkpt lat="48.82736" lon="1.87539">
        <ele>89.8</ele>
        <time>2023-12-20T10:34:33Z</time>
      </trkpt>
      <trkpt lat="48.82745" lon="1.87541">
        <ele>89.8</ele>
        <time>2023-12-20T10:34:34Z</time>
      </trkpt>
      <trkpt lat="48.82755" lon="1.87541">
        <ele>89.6</ele>
        <time>2023-12-20T10:34:35Z</time>
      </trkpt>
      <trkpt lat="48.82764" lon="1.8754">
        <ele>89.6</ele>
        <time>2023-12-20T10:34:36Z</time>
      </trkpt>
      <trkpt lat="48.82773" lon="1.87539">
        <ele>89.6</ele>
        <time>2023-12-20T10:34:37Z</time>
      </trkpt>
      <trkpt lat="48.82781" lon="1.87536">
        <ele>89.6</ele>
        <time>2023-12-20T10:34:38Z</time>
      </trkpt>
      <trkpt lat="48.82789" lon="1.87531">
        <ele>89.8</ele>
        <time>2023-12-20T10:34:39Z</time>
      </trkpt>
      <trkpt lat="48.82797" lon="1.87525">
        <ele>89.8</ele>
        <time>2023-12-20T10:34:40Z</time>
      </trkpt>
      <trkpt lat="48.82803" lon="1.87518">
        <ele>89.8</ele>
        <time>2023-12-20T10:34:41Z</time>
      </trkpt>
      <trkpt lat="48.8281" lon="1.87509">
        <ele>89.8</ele>
        <time>2023-12-20T10:34:42Z</time>
      </trkpt>
      <trkpt lat="48.82816" lon="1.875">
        <ele>90</ele>
        <time>2023-12-20T10:34:43Z</time>
      </trkpt>
      <trkpt lat="48.82822" lon="1.8749">
        <ele>90</ele>
        <time>2023-12-20T10:34:44Z</time>
      </trkpt>
      <trkpt lat="48.82829" lon="1.87481">
        <ele>90</ele>
        <time>2023-12-20T10:34:45Z</time>
      </trkpt>
      <trkpt lat="48.82835" lon="1.87471">
        <ele>90</ele>
        <time>2023-12-20T10:34:46Z</time>
      </trkpt>
      <trkpt lat="48.82842" lon="1.87462">
        <ele>89.6</ele>
        <time>2023-12-20T10:34:47Z</time>
      </trkpt>
      <trkpt lat="48.82849" lon="1.87454">
        <ele>89.6</ele>
        <time>2023-12-20T10:34:48Z</time>
      </trkpt>
      <trkpt lat="48.82858" lon="1.87447">
        <ele>89.6</ele>
        <time>2023-12-20T10:34:49Z</time>
      </trkpt>
      <trkpt lat="48.82866" lon="1.87442">
        <ele>89.6</ele>
        <time>2023-12-20T10:34:50Z</time>
      </trkpt>
      <trkpt lat="48.82875" lon="1.87438">
        <ele>89.8</ele>
        <time>2023-12-20T10:34:51Z</time>
      </trkpt>
      <trkpt lat="48.82885" lon="1.87435">
        <ele>89.8</ele>
        <time>2023-12-20T10:34:52Z</time>
      </trkpt>
      <trkpt lat="48.82894" lon="1.87435">
        <ele>89.8</ele>
        <time>2023-12-20T10:34:53Z</time>
      </trkpt>
      <trkpt lat="48.82904" lon="1.87435">
        <ele>90</ele>
        <time>2023-12-20T10:34:54Z</time>
      </trkpt>
      <trkpt lat="48.82913" lon="1.87437">
        <ele>90.2</ele>
        <time>2023-12-20T10:34:55Z</time>
      </trkpt>
      <trkpt lat="48.82923" lon="1.8744">
        <ele>90.2</ele>
        <time>2023-12-20T10:34:56Z</time>
      </trkpt>
      <trkpt lat="48.82932" lon="1.87443">
        <ele>90.2</ele>
        <time>2023-12-20T10:34:57Z</time>
      </trkpt>
      <trkpt lat="48.82941" lon="1.87447">
        <ele>90</ele>
        <time>2023-12-20T10:34:58Z</time>
      </trkpt>
      <trkpt lat="48.82951" lon="1.87451">
        <ele>89.6</ele>
        <time>2023-12-20T10:34:59Z</time>
      </trkpt>
      <trkpt lat="48.8296" lon="1.87456">
        <ele>89.6</ele>
        <time>2023-12-20T10:35:00Z</time>
      </trkpt>
      <trkpt lat="48.82968" lon="1.87461">
        <ele>89.6</ele>
        <time>2023-12-20T10:35:01Z</time>
      </trkpt>
      <trkpt lat="48.82977" lon="1.87466">
        <ele>89.6</ele>
        <time>2023-12-20T10:35:02Z</time>
      </trkpt>
      <trkpt lat="48.82986" lon="1.87471">
        <ele>89.8</ele>
        <time>2023-12-20T10:35:03Z</time>
      </trkpt>
      <trkpt lat="48.82995" lon="1.87477">
        <ele>89.8</ele>
        <time>2023-12-20T10:35:04Z</time>
      </trkpt>
      <trkpt lat="48.83004" lon="1.87482">
        <ele>89.8</ele>
        <time>2023-12-20T10:35:05Z</time>
      </trkpt>
      <trkpt lat="48.83013" lon="1.87488">
        <ele>89.8</ele>
        <time>2023-12-20T10:35:06Z</time>
      </trkpt>
      <trkpt lat="48.83023" lon="1.87493">
        <ele>89.2</ele>
        <time>2023-12-20T10:35:07Z</time>
      </trkpt>
      <trkpt lat="48.83032" lon="1.87499">
        <ele>89.2</ele>
        <time>2023-12-20T10:35:08Z</time>
      </trkpt>
      <trkpt lat="48.83041" lon="1.87505">
        <ele>89.2</ele>
        <time>2023-12-20T10:35:09Z</time>
      </trkpt>
      <trkpt lat="48.8305" lon="1.87511">
        <ele>89.2</ele>
        <time>2023-12-20T10:35:10Z</time>
      </trkpt>
      <trkpt lat="48.8306" lon="1.87518">
        <ele>89.2</ele>
        <time>2023-12-20T10:35:11Z</time>
      </trkpt>
      <trkpt lat="48.83068" lon="1.87525">
        <ele>89.2</ele>
        <time>2023-12-20T10:35:12Z</time>
      </trkpt>
      <trkpt lat="48.83077" lon="1.87532">
        <ele>89.2</ele>
        <time>2023-12-20T10:35:13Z</time>
      </trkpt>
      <trkpt lat="48.83085" lon="1.87539">
        <ele>89.6</ele>
        <time>2023-12-20T10:35:14Z</time>
      </trkpt>
      <trkpt lat="48.83094" lon="1.87546">
        <ele>89.8</ele>
        <time>2023-12-20T10:35:15Z</time>
      </trkpt>
      <trkpt lat="48.83102" lon="1.87553">
        <ele>89.8</ele>
        <time>2023-12-20T10:35:16Z</time>
      </trkpt>
      <trkpt lat="48.83111" lon="1.87559">
        <ele>89.8</ele>
        <time>2023-12-20T10:35:17Z</time>
      </trkpt>
      <trkpt lat="48.83119" lon="1.87565">
        <ele>89.2</ele>
        <time>2023-12-20T10:35:18Z</time>
      </trkpt>
      <trkpt lat="48.83128" lon="1.87571">
        <ele>89.4</ele>
        <time>2023-12-20T10:35:19Z</time>
      </trkpt>
      <trkpt lat="48.83137" lon="1.87577">
        <ele>89.4</ele>
        <time>2023-12-20T10:35:20Z</time>
      </trkpt>
      <trkpt lat="48.83146" lon="1.87582">
        <ele>89.4</ele>
        <time>2023-12-20T10:35:21Z</time>
      </trkpt>
      <trkpt lat="48.83155" lon="1.87587">
        <ele>88.8</ele>
        <time>2023-12-20T10:35:22Z</time>
      </trkpt>
      <trkpt lat="48.83164" lon="1.87591">
        <ele>89.2</ele>
        <time>2023-12-20T10:35:23Z</time>
      </trkpt>
      <trkpt lat="48.83174" lon="1.87595">
        <ele>89.2</ele>
        <time>2023-12-20T10:35:24Z</time>
      </trkpt>
      <trkpt lat="48.83183" lon="1.87598">
        <ele>89.2</ele>
        <time>2023-12-20T10:35:25Z</time>
      </trkpt>
      <trkpt lat="48.83193" lon="1.87601">
        <ele>88.8</ele>
        <time>2023-12-20T10:35:26Z</time>
      </trkpt>
      <trkpt lat="48.83202" lon="1.87605">
        <ele>88.6</ele>
        <time>2023-12-20T10:35:27Z</time>
      </trkpt>
      <trkpt lat="48.83212" lon="1.87608">
        <ele>88.6</ele>
        <time>2023-12-20T10:35:28Z</time>
      </trkpt>
      <trkpt lat="48.83221" lon="1.87611">
        <ele>88.6</ele>
        <time>2023-12-20T10:35:29Z</time>
      </trkpt>
      <trkpt lat="48.83231" lon="1.87613">
        <ele>88.8</ele>
        <time>2023-12-20T10:35:30Z</time>
      </trkpt>
      <trkpt lat="48.8324" lon="1.87616">
        <ele>88.6</ele>
        <time>2023-12-20T10:35:31Z</time>
      </trkpt>
      <trkpt lat="48.83249" lon="1.87619">
        <ele>88.6</ele>
        <time>2023-12-20T10:35:32Z</time>
      </trkpt>
      <trkpt lat="48.83258" lon="1.87622">
        <ele>88.6</ele>
        <time>2023-12-20T10:35:33Z</time>
      </trkpt>
      <trkpt lat="48.83267" lon="1.87625">
        <ele>88.6</ele>
        <time>2023-12-20T10:35:34Z</time>
      </trkpt>
      <trkpt lat="48.83275" lon="1.87627">
        <ele>88.8</ele>
        <time>2023-12-20T10:35:35Z</time>
      </trkpt>
      <trkpt lat="48.83284" lon="1.87629">
        <ele>88.8</ele>
        <time>2023-12-20T10:35:36Z</time>
      </trkpt>
      <trkpt lat="48.83292" lon="1.8763">
        <ele>88.8</ele>
        <time>2023-12-20T10:35:37Z</time>
      </trkpt>
      <trkpt lat="48.833" lon="1.87633">
        <ele>88.8</ele>
        <time>2023-12-20T10:35:38Z</time>
      </trkpt>
      <trkpt lat="48.83308" lon="1.87636">
        <ele>88.2</ele>
        <time>2023-12-20T10:35:39Z</time>
      </trkpt>
      <trkpt lat="48.83316" lon="1.87639">
        <ele>88.2</ele>
        <time>2023-12-20T10:35:40Z</time>
      </trkpt>
      <trkpt lat="48.83324" lon="1.87641">
        <ele>88.2</ele>
        <time>2023-12-20T10:35:41Z</time>
      </trkpt>
      <trkpt lat="48.83333" lon="1.87643">
        <ele>88.8</ele>
        <time>2023-12-20T10:35:42Z</time>
      </trkpt>
      <trkpt lat="48.83341" lon="1.87646">
        <ele>88.8</ele>
        <time>2023-12-20T10:35:43Z</time>
      </trkpt>
      <trkpt lat="48.83349" lon="1.87648">
        <ele>88.8</ele>
        <time>2023-12-20T10:35:44Z</time>
      </trkpt>
      <trkpt lat="48.83357" lon="1.8765">
        <ele>88.8</ele>
        <time>2023-12-20T10:35:45Z</time>
      </trkpt>
      <trkpt lat="48.83365" lon="1.87653">
        <ele>88.8</ele>
        <time>2023-12-20T10:35:46Z</time>
      </trkpt>
      <trkpt lat="48.83373" lon="1.87655">
        <ele>88.8</ele>
        <time>2023-12-20T10:35:47Z</time>
      </trkpt>
      <trkpt lat="48.83381" lon="1.87657">
        <ele>88.8</ele>
        <time>2023-12-20T10:35:48Z</time>
      </trkpt>
      <trkpt lat="48.83389" lon="1.8766">
        <ele>88.8</ele>
        <time>2023-12-20T10:35:49Z</time>
      </trkpt>
      <trkpt lat="48.83397" lon="1.87662">
        <ele>88.6</ele>
        <time>2023-12-20T10:35:50Z</time>
      </trkpt>
      <trkpt lat="48.83404" lon="1.87664">
        <ele>88.8</ele>
        <time>2023-12-20T10:35:51Z</time>
      </trkpt>
      <trkpt lat="48.83412" lon="1.87667">
        <ele>88.8</ele>
        <time>2023-12-20T10:35:52Z</time>
      </trkpt>
      <trkpt lat="48.8342" lon="1.8767">
        <ele>88.8</ele>
        <time>2023-12-20T10:35:53Z</time>
      </trkpt>
      <trkpt lat="48.83427" lon="1.87672">
        <ele>88.8</ele>
        <time>2023-12-20T10:35:54Z</time>
      </trkpt>
      <trkpt lat="48.83435" lon="1.87675">
        <ele>89</ele>
        <time>2023-12-20T10:35:55Z</time>
      </trkpt>
      <trkpt lat="48.83442" lon="1.87677">
        <ele>89</ele>
        <time>2023-12-20T10:35:56Z</time>
      </trkpt>
      <trkpt lat="48.8345" lon="1.87679">
        <ele>89</ele>
        <time>2023-12-20T10:35:57Z</time>
      </trkpt>
      <trkpt lat="48.83457" lon="1.87681">
        <ele>88.4</ele>
        <time>2023-12-20T10:35:58Z</time>
      </trkpt>
      <trkpt lat="48.83464" lon="1.87684">
        <ele>88.8</ele>
        <time>2023-12-20T10:35:59Z</time>
      </trkpt>
      <trkpt lat="48.83471" lon="1.87687">
        <ele>88.8</ele>
        <time>2023-12-20T10:36:00Z</time>
      </trkpt>
      <trkpt lat="48.83478" lon="1.87689">
        <ele>88.8</ele>
        <time>2023-12-20T10:36:01Z</time>
      </trkpt>
      <trkpt lat="48.83486" lon="1.87692">
        <ele>88.8</ele>
        <time>2023-12-20T10:36:02Z</time>
      </trkpt>
      <trkpt lat="48.83493" lon="1.87695">
        <ele>88.8</ele>
        <time>2023-12-20T10:36:03Z</time>
      </trkpt>
      <trkpt lat="48.835" lon="1.87698">
        <ele>88.8</ele>
        <time>2023-12-20T10:36:04Z</time>
      </trkpt>
      <trkpt lat="48.83506" lon="1.87701">
        <ele>88.8</ele>
        <time>2023-12-20T10:36:05Z</time>
      </trkpt>
      <trkpt lat="48.83513" lon="1.87705">
        <ele>88.8</ele>
        <time>2023-12-20T10:36:06Z</time>
      </trkpt>
      <trkpt lat="48.8352" lon="1.87709">
        <ele>89.2</ele>
        <time>2023-12-20T10:36:07Z</time>
      </trkpt>
      <trkpt lat="48.83527" lon="1.87712">
        <ele>89.2</ele>
        <time>2023-12-20T10:36:08Z</time>
      </trkpt>
      <trkpt lat="48.83533" lon="1.87716">
        <ele>89.2</ele>
        <time>2023-12-20T10:36:09Z</time>
      </trkpt>
      <trkpt lat="48.8354" lon="1.8772">
        <ele>88.2</ele>
        <time>2023-12-20T10:36:10Z</time>
      </trkpt>
      <trkpt lat="48.83547" lon="1.87724">
        <ele>88.8</ele>
        <time>2023-12-20T10:36:11Z</time>
      </trkpt>
      <trkpt lat="48.83553" lon="1.87727">
        <ele>88.8</ele>
        <time>2023-12-20T10:36:12Z</time>
      </trkpt>
      <trkpt lat="48.8356" lon="1.87731">
        <ele>88.8</ele>
        <time>2023-12-20T10:36:13Z</time>
      </trkpt>
      <trkpt lat="48.83567" lon="1.87735">
        <ele>88.8</ele>
        <time>2023-12-20T10:36:14Z</time>
      </trkpt>
      <trkpt lat="48.83573" lon="1.87738">
        <ele>88.8</ele>
        <time>2023-12-20T10:36:15Z</time>
      </trkpt>
      <trkpt lat="48.83579" lon="1.87742">
        <ele>88.8</ele>
        <time>2023-12-20T10:36:16Z</time>
      </trkpt>
      <trkpt lat="48.83586" lon="1.87746">
        <ele>88.8</ele>
        <time>2023-12-20T10:36:17Z</time>
      </trkpt>
      <trkpt lat="48.83592" lon="1.87749">
        <ele>88.6</ele>
        <time>2023-12-20T10:36:18Z</time>
      </trkpt>
      <trkpt lat="48.83598" lon="1.87753">
        <ele>89</ele>
        <time>2023-12-20T10:36:19Z</time>
      </trkpt>
      <trkpt lat="48.83605" lon="1.87756">
        <ele>89</ele>
        <time>2023-12-20T10:36:20Z</time>
      </trkpt>
      <trkpt lat="48.83611" lon="1.8776">
        <ele>89</ele>
        <time>2023-12-20T10:36:21Z</time>
      </trkpt>
      <trkpt lat="48.83617" lon="1.87763">
        <ele>88.8</ele>
        <time>2023-12-20T10:36:22Z</time>
      </trkpt>
      <trkpt lat="48.83624" lon="1.87766">
        <ele>88.8</ele>
        <time>2023-12-20T10:36:23Z</time>
      </trkpt>
      <trkpt lat="48.8363" lon="1.8777">
        <ele>88.8</ele>
        <time>2023-12-20T10:36:24Z</time>
      </trkpt>
      <trkpt lat="48.83636" lon="1.87774">
        <ele>88.8</ele>
        <time>2023-12-20T10:36:25Z</time>
      </trkpt>
      <trkpt lat="48.83643" lon="1.87777">
        <ele>88.8</ele>
        <time>2023-12-20T10:36:26Z</time>
      </trkpt>
      <trkpt lat="48.83649" lon="1.87781">
        <ele>89</ele>
        <time>2023-12-20T10:36:27Z</time>
      </trkpt>
      <trkpt lat="48.83656" lon="1.87784">
        <ele>89</ele>
        <time>2023-12-20T10:36:28Z</time>
      </trkpt>
      <trkpt lat="48.83662" lon="1.87788">
        <ele>89</ele>
        <time>2023-12-20T10:36:29Z</time>
      </trkpt>
      <trkpt lat="48.83668" lon="1.87792">
        <ele>89</ele>
        <time>2023-12-20T10:36:30Z</time>
      </trkpt>
      <trkpt lat="48.83675" lon="1.87795">
        <ele>88.8</ele>
        <time>2023-12-20T10:36:31Z</time>
      </trkpt>
      <trkpt lat="48.83681" lon="1.87799">
        <ele>88.8</ele>
        <time>2023-12-20T10:36:32Z</time>
      </trkpt>
      <trkpt lat="48.83687" lon="1.87802">
        <ele>88.8</ele>
        <time>2023-12-20T10:36:33Z</time>
      </trkpt>
      <trkpt lat="48.83693" lon="1.87806">
        <ele>88.8</ele>
        <time>2023-12-20T10:36:34Z</time>
      </trkpt>
      <trkpt lat="48.83699" lon="1.87809">
        <ele>88.6</ele>
        <time>2023-12-20T10:36:35Z</time>
      </trkpt>
      <trkpt lat="48.83705" lon="1.87812">
        <ele>88.6</ele>
        <time>2023-12-20T10:36:36Z</time>
      </trkpt>
      <trkpt lat="48.83711" lon="1.87816">
        <ele>88.6</ele>
        <time>2023-12-20T10:36:37Z</time>
      </trkpt>
      <trkpt lat="48.83717" lon="1.87819">
        <ele>88.6</ele>
        <time>2023-12-20T10:36:38Z</time>
      </trkpt>
      <trkpt lat="48.83723" lon="1.87822">
        <ele>89</ele>
        <time>2023-12-20T10:36:39Z</time>
      </trkpt>
      <trkpt lat="48.83728" lon="1.87825">
        <ele>89</ele>
        <time>2023-12-20T10:36:40Z</time>
      </trkpt>
      <trkpt lat="48.83734" lon="1.87828">
        <ele>89</ele>
        <time>2023-12-20T10:36:41Z</time>
      </trkpt>
      <trkpt lat="48.8374" lon="1.87831">
        <ele>89</ele>
        <time>2023-12-20T10:36:42Z</time>
      </trkpt>
      <trkpt lat="48.83746" lon="1.87834">
        <ele>89.2</ele>
        <time>2023-12-20T10:36:43Z</time>
      </trkpt>
      <trkpt lat="48.83751" lon="1.87837">
        <ele>89.2</ele>
        <time>2023-12-20T10:36:44Z</time>
      </trkpt>
      <trkpt lat="48.83757" lon="1.8784">
        <ele>89.2</ele>
        <time>2023-12-20T10:36:45Z</time>
      </trkpt>
      <trkpt lat="48.83763" lon="1.87843">
        <ele>89</ele>
        <time>2023-12-20T10:36:46Z</time>
      </trkpt>
      <trkpt lat="48.83768" lon="1.87845">
        <ele>88.8</ele>
        <time>2023-12-20T10:36:47Z</time>
      </trkpt>
      <trkpt lat="48.83774" lon="1.87848">
        <ele>88.8</ele>
        <time>2023-12-20T10:36:48Z</time>
      </trkpt>
      <trkpt lat="48.8378" lon="1.8785">
        <ele>88.8</ele>
        <time>2023-12-20T10:36:49Z</time>
      </trkpt>
      <trkpt lat="48.83785" lon="1.87852">
        <ele>88.8</ele>
        <time>2023-12-20T10:36:50Z</time>
      </trkpt>
      <trkpt lat="48.83791" lon="1.87854">
        <ele>88.6</ele>
        <time>2023-12-20T10:36:51Z</time>
      </trkpt>
      <trkpt lat="48.83796" lon="1.87856">
        <ele>88.6</ele>
        <time>2023-12-20T10:36:52Z</time>
      </trkpt>
      <trkpt lat="48.83802" lon="1.87858">
        <ele>88.6</ele>
        <time>2023-12-20T10:36:53Z</time>
      </trkpt>
      <trkpt lat="48.83807" lon="1.8786">
        <ele>88.6</ele>
        <time>2023-12-20T10:36:54Z</time>
      </trkpt>
      <trkpt lat="48.83813" lon="1.87862">
        <ele>89</ele>
        <time>2023-12-20T10:36:55Z</time>
      </trkpt>
      <trkpt lat="48.83818" lon="1.87863">
        <ele>89</ele>
        <time>2023-12-20T10:36:56Z</time>
      </trkpt>
      <trkpt lat="48.83824" lon="1.87865">
        <ele>89</ele>
        <time>2023-12-20T10:36:57Z</time>
      </trkpt>
      <trkpt lat="48.83829" lon="1.87867">
        <ele>89</ele>
        <time>2023-12-20T10:36:58Z</time>
      </trkpt>
      <trkpt lat="48.83835" lon="1.87869">
        <ele>89</ele>
        <time>2023-12-20T10:36:59Z</time>
      </trkpt>
      <trkpt lat="48.8384" lon="1.87872">
        <ele>89</ele>
        <time>2023-12-20T10:37:00Z</time>
      </trkpt>
      <trkpt lat="48.83845" lon="1.87875">
        <ele>89</ele>
        <time>2023-12-20T10:37:01Z</time>
      </trkpt>
      <trkpt lat="48.83851" lon="1.87878">
        <ele>89</ele>
        <time>2023-12-20T10:37:02Z</time>
      </trkpt>
      <trkpt lat="48.83856" lon="1.87881">
        <ele>89.2</ele>
        <time>2023-12-20T10:37:03Z</time>
      </trkpt>
      <trkpt lat="48.83862" lon="1.87884">
        <ele>89.2</ele>
        <time>2023-12-20T10:37:04Z</time>
      </trkpt>
      <trkpt lat="48.83868" lon="1.87888">
        <ele>89.2</ele>
        <time>2023-12-20T10:37:05Z</time>
      </trkpt>
      <trkpt lat="48.83874" lon="1.87892">
        <ele>89.2</ele>
        <time>2023-12-20T10:37:06Z</time>
      </trkpt>
      <trkpt lat="48.83879" lon="1.87896">
        <ele>89.2</ele>
        <time>2023-12-20T10:37:07Z</time>
      </trkpt>
      <trkpt lat="48.83885" lon="1.87901">
        <ele>89.2</ele>
        <time>2023-12-20T10:37:08Z</time>
      </trkpt>
      <trkpt lat="48.8389" lon="1.87905">
        <ele>89.2</ele>
        <time>2023-12-20T10:37:09Z</time>
      </trkpt>
      <trkpt lat="48.83896" lon="1.87909">
        <ele>89.4</ele>
        <time>2023-12-20T10:37:10Z</time>
      </trkpt>
      <trkpt lat="48.839" lon="1.87912">
        <ele>89.4</ele>
        <time>2023-12-20T10:37:11Z</time>
      </trkpt>
      <trkpt lat="48.83905" lon="1.87916">
        <ele>89.4</ele>
        <time>2023-12-20T10:37:12Z</time>
      </trkpt>
      <trkpt lat="48.8391" lon="1.8792">
        <ele>89.4</ele>
        <time>2023-12-20T10:37:13Z</time>
      </trkpt>
      <trkpt lat="48.83915" lon="1.87923">
        <ele>89</ele>
        <time>2023-12-20T10:37:14Z</time>
      </trkpt>
      <trkpt lat="48.8392" lon="1.87927">
        <ele>89.4</ele>
        <time>2023-12-20T10:37:15Z</time>
      </trkpt>
      <trkpt lat="48.83925" lon="1.8793">
        <ele>89.4</ele>
        <time>2023-12-20T10:37:16Z</time>
      </trkpt>
      <trkpt lat="48.8393" lon="1.87933">
        <ele>89.4</ele>
        <time>2023-12-20T10:37:17Z</time>
      </trkpt>
      <trkpt lat="48.83935" lon="1.87937">
        <ele>89.4</ele>
        <time>2023-12-20T10:37:18Z</time>
      </trkpt>
      <trkpt lat="48.8394" lon="1.8794">
        <ele>89.4</ele>
        <time>2023-12-20T10:37:19Z</time>
      </trkpt>
      <trkpt lat="48.83945" lon="1.87942">
        <ele>89.4</ele>
        <time>2023-12-20T10:37:20Z</time>
      </trkpt>
      <trkpt lat="48.83951" lon="1.87945">
        <ele>89.4</ele>
        <time>2023-12-20T10:37:21Z</time>
      </trkpt>
      <trkpt lat="48.83956" lon="1.87948">
        <ele>89.4</ele>
        <time>2023-12-20T10:37:22Z</time>
      </trkpt>
      <trkpt lat="48.83962" lon="1.87951">
        <ele>89.4</ele>
        <time>2023-12-20T10:37:23Z</time>
      </trkpt>
      <trkpt lat="48.83967" lon="1.87954">
        <ele>89.4</ele>
        <time>2023-12-20T10:37:24Z</time>
      </trkpt>
      <trkpt lat="48.83973" lon="1.87957">
        <ele>89.4</ele>
        <time>2023-12-20T10:37:25Z</time>
      </trkpt>
      <trkpt lat="48.83979" lon="1.8796">
        <ele>89.2</ele>
        <time>2023-12-20T10:37:26Z</time>
      </trkpt>
      <trkpt lat="48.83985" lon="1.87963">
        <ele>89.2</ele>
        <time>2023-12-20T10:37:27Z</time>
      </trkpt>
      <trkpt lat="48.83991" lon="1.87966">
        <ele>89.2</ele>
        <time>2023-12-20T10:37:28Z</time>
      </trkpt>
      <trkpt lat="48.83997" lon="1.87969">
        <ele>89.2</ele>
        <time>2023-12-20T10:37:29Z</time>
      </trkpt>
      <trkpt lat="48.84003" lon="1.87972">
        <ele>89.2</ele>
        <time>2023-12-20T10:37:30Z</time>
      </trkpt>
      <trkpt lat="48.84009" lon="1.87975">
        <ele>89.6</ele>
        <time>2023-12-20T10:37:31Z</time>
      </trkpt>
      <trkpt lat="48.84014" lon="1.87978">
        <ele>89.6</ele>
        <time>2023-12-20T10:37:32Z</time>
      </trkpt>
      <trkpt lat="48.8402" lon="1.87981">
        <ele>89.6</ele>
        <time>2023-12-20T10:37:33Z</time>
      </trkpt>
      <trkpt lat="48.84026" lon="1.87984">
        <ele>89.6</ele>
        <time>2023-12-20T10:37:34Z</time>
      </trkpt>
      <trkpt lat="48.84032" lon="1.87987">
        <ele>89.2</ele>
        <time>2023-12-20T10:37:35Z</time>
      </trkpt>
      <trkpt lat="48.84037" lon="1.8799">
        <ele>89.2</ele>
        <time>2023-12-20T10:37:36Z</time>
      </trkpt>
      <trkpt lat="48.84043" lon="1.87992">
        <ele>89.2</ele>
        <time>2023-12-20T10:37:37Z</time>
      </trkpt>
      <trkpt lat="48.84048" lon="1.87994">
        <ele>89.4</ele>
        <time>2023-12-20T10:37:38Z</time>
      </trkpt>
      <trkpt lat="48.84053" lon="1.87996">
        <ele>89.4</ele>
        <time>2023-12-20T10:37:39Z</time>
      </trkpt>
      <trkpt lat="48.84058" lon="1.87998">
        <ele>89.4</ele>
        <time>2023-12-20T10:37:40Z</time>
      </trkpt>
      <trkpt lat="48.84063" lon="1.88001">
        <ele>89.4</ele>
        <time>2023-12-20T10:37:41Z</time>
      </trkpt>
      <trkpt lat="48.84068" lon="1.88004">
        <ele>89.4</ele>
        <time>2023-12-20T10:37:42Z</time>
      </trkpt>
      <trkpt lat="48.84074" lon="1.88006">
        <ele>89.2</ele>
        <time>2023-12-20T10:37:43Z</time>
      </trkpt>
      <trkpt lat="48.84079" lon="1.88009">
        <ele>89.2</ele>
        <time>2023-12-20T10:37:44Z</time>
      </trkpt>
      <trkpt lat="48.84085" lon="1.88011">
        <ele>89.2</ele>
        <time>2023-12-20T10:37:45Z</time>
      </trkpt>
      <trkpt lat="48.8409" lon="1.88014">
        <ele>89.4</ele>
        <time>2023-12-20T10:37:46Z</time>
      </trkpt>
      <trkpt lat="48.84096" lon="1.88016">
        <ele>89.6</ele>
        <time>2023-12-20T10:37:47Z</time>
      </trkpt>
      <trkpt lat="48.84102" lon="1.88019">
        <ele>89.6</ele>
        <time>2023-12-20T10:37:48Z</time>
      </trkpt>
      <trkpt lat="48.84108" lon="1.88021">
        <ele>89.6</ele>
        <time>2023-12-20T10:37:49Z</time>
      </trkpt>
      <trkpt lat="48.84114" lon="1.88024">
        <ele>89.6</ele>
        <time>2023-12-20T10:37:50Z</time>
      </trkpt>
      <trkpt lat="48.8412" lon="1.88026">
        <ele>89.8</ele>
        <time>2023-12-20T10:37:51Z</time>
      </trkpt>
      <trkpt lat="48.84126" lon="1.88028">
        <ele>89.8</ele>
        <time>2023-12-20T10:37:52Z</time>
      </trkpt>
      <trkpt lat="48.84131" lon="1.8803">
        <ele>89.8</ele>
        <time>2023-12-20T10:37:53Z</time>
      </trkpt>
      <trkpt lat="48.84137" lon="1.88032">
        <ele>89.8</ele>
        <time>2023-12-20T10:37:54Z</time>
      </trkpt>
      <trkpt lat="48.84143" lon="1.88035">
        <ele>90</ele>
        <time>2023-12-20T10:37:55Z</time>
      </trkpt>
      <trkpt lat="48.84149" lon="1.88037">
        <ele>90</ele>
        <time>2023-12-20T10:37:56Z</time>
      </trkpt>
      <trkpt lat="48.84154" lon="1.88039">
        <ele>90</ele>
        <time>2023-12-20T10:37:57Z</time>
      </trkpt>
      <trkpt lat="48.8416" lon="1.88041">
        <ele>90</ele>
        <time>2023-12-20T10:37:58Z</time>
      </trkpt>
      <trkpt lat="48.84165" lon="1.88043">
        <ele>90.2</ele>
        <time>2023-12-20T10:37:59Z</time>
      </trkpt>
      <trkpt lat="48.84171" lon="1.88045">
        <ele>90.2</ele>
        <time>2023-12-20T10:38:00Z</time>
      </trkpt>
      <trkpt lat="48.84177" lon="1.88047">
        <ele>90.2</ele>
        <time>2023-12-20T10:38:01Z</time>
      </trkpt>
      <trkpt lat="48.84182" lon="1.88049">
        <ele>90.2</ele>
        <time>2023-12-20T10:38:02Z</time>
      </trkpt>
      <trkpt lat="48.84188" lon="1.88051">
        <ele>90.2</ele>
        <time>2023-12-20T10:38:03Z</time>
      </trkpt>
      <trkpt lat="48.84195" lon="1.88054">
        <ele>90.2</ele>
        <time>2023-12-20T10:38:04Z</time>
      </trkpt>
      <trkpt lat="48.84201" lon="1.88056">
        <ele>90.2</ele>
        <time>2023-12-20T10:38:05Z</time>
      </trkpt>
      <trkpt lat="48.84207" lon="1.88058">
        <ele>90.2</ele>
        <time>2023-12-20T10:38:06Z</time>
      </trkpt>
      <trkpt lat="48.84213" lon="1.8806">
        <ele>89.8</ele>
        <time>2023-12-20T10:38:07Z</time>
      </trkpt>
      <trkpt lat="48.84218" lon="1.88062">
        <ele>89.8</ele>
        <time>2023-12-20T10:38:08Z</time>
      </trkpt>
      <trkpt lat="48.84224" lon="1.88065">
        <ele>89.8</ele>
        <time>2023-12-20T10:38:09Z</time>
      </trkpt>
      <trkpt lat="48.8423" lon="1.88067">
        <ele>90.2</ele>
        <time>2023-12-20T10:38:10Z</time>
      </trkpt>
      <trkpt lat="48.84235" lon="1.88069">
        <ele>90.2</ele>
        <time>2023-12-20T10:38:11Z</time>
      </trkpt>
      <trkpt lat="48.84241" lon="1.88071">
        <ele>90.2</ele>
        <time>2023-12-20T10:38:12Z</time>
      </trkpt>
      <trkpt lat="48.84246" lon="1.88073">
        <ele>90.2</ele>
        <time>2023-12-20T10:38:13Z</time>
      </trkpt>
      <trkpt lat="48.84252" lon="1.88075">
        <ele>90.2</ele>
        <time>2023-12-20T10:38:14Z</time>
      </trkpt>
      <trkpt lat="48.84257" lon="1.88077">
        <ele>90.4</ele>
        <time>2023-12-20T10:38:15Z</time>
      </trkpt>
      <trkpt lat="48.84262" lon="1.88078">
        <ele>90.4</ele>
        <time>2023-12-20T10:38:16Z</time>
      </trkpt>
      <trkpt lat="48.84268" lon="1.88081">
        <ele>90.4</ele>
        <time>2023-12-20T10:38:17Z</time>
      </trkpt>
      <trkpt lat="48.84273" lon="1.88083">
        <ele>90.4</ele>
        <time>2023-12-20T10:38:18Z</time>
      </trkpt>
      <trkpt lat="48.84278" lon="1.88085">
        <ele>90.2</ele>
        <time>2023-12-20T10:38:19Z</time>
      </trkpt>
      <trkpt lat="48.84284" lon="1.88086">
        <ele>90.2</ele>
        <time>2023-12-20T10:38:20Z</time>
      </trkpt>
      <trkpt lat="48.84289" lon="1.88089">
        <ele>90.2</ele>
        <time>2023-12-20T10:38:21Z</time>
      </trkpt>
      <trkpt lat="48.84295" lon="1.88091">
        <ele>90.2</ele>
        <time>2023-12-20T10:38:22Z</time>
      </trkpt>
      <trkpt lat="48.843" lon="1.88092">
        <ele>90.4</ele>
        <time>2023-12-20T10:38:23Z</time>
      </trkpt>
      <trkpt lat="48.84306" lon="1.88094">
        <ele>90.4</ele>
        <time>2023-12-20T10:38:24Z</time>
      </trkpt>
      <trkpt lat="48.84311" lon="1.88096">
        <ele>90.4</ele>
        <time>2023-12-20T10:38:25Z</time>
      </trkpt>
      <trkpt lat="48.84317" lon="1.88098">
        <ele>90.4</ele>
        <time>2023-12-20T10:38:26Z</time>
      </trkpt>
      <trkpt lat="48.84322" lon="1.88099">
        <ele>90.6</ele>
        <time>2023-12-20T10:38:27Z</time>
      </trkpt>
      <trkpt lat="48.84328" lon="1.88101">
        <ele>90.6</ele>
        <time>2023-12-20T10:38:28Z</time>
      </trkpt>
      <trkpt lat="48.84333" lon="1.88102">
        <ele>90.6</ele>
        <time>2023-12-20T10:38:29Z</time>
      </trkpt>
      <trkpt lat="48.84339" lon="1.88104">
        <ele>90.6</ele>
        <time>2023-12-20T10:38:30Z</time>
      </trkpt>
      <trkpt lat="48.84344" lon="1.88105">
        <ele>90.4</ele>
        <time>2023-12-20T10:38:31Z</time>
      </trkpt>
      <trkpt lat="48.8435" lon="1.88107">
        <ele>90.4</ele>
        <time>2023-12-20T10:38:32Z</time>
      </trkpt>
      <trkpt lat="48.84356" lon="1.88108">
        <ele>90.4</ele>
        <time>2023-12-20T10:38:33Z</time>
      </trkpt>
      <trkpt lat="48.84362" lon="1.88109">
        <ele>90.4</ele>
        <time>2023-12-20T10:38:34Z</time>
      </trkpt>
      <trkpt lat="48.84369" lon="1.88111">
        <ele>90.6</ele>
        <time>2023-12-20T10:38:35Z</time>
      </trkpt>
      <trkpt lat="48.84376" lon="1.88112">
        <ele>90.6</ele>
        <time>2023-12-20T10:38:36Z</time>
      </trkpt>
      <trkpt lat="48.84383" lon="1.88114">
        <ele>90.6</ele>
        <time>2023-12-20T10:38:37Z</time>
      </trkpt>
      <trkpt lat="48.84391" lon="1.88115">
        <ele>90.2</ele>
        <time>2023-12-20T10:38:38Z</time>
      </trkpt>
      <trkpt lat="48.84399" lon="1.88117">
        <ele>90.2</ele>
        <time>2023-12-20T10:38:39Z</time>
      </trkpt>
      <trkpt lat="48.84407" lon="1.88118">
        <ele>90.2</ele>
        <time>2023-12-20T10:38:40Z</time>
      </trkpt>
      <trkpt lat="48.84415" lon="1.8812">
        <ele>90.2</ele>
        <time>2023-12-20T10:38:41Z</time>
      </trkpt>
      <trkpt lat="48.84424" lon="1.88122">
        <ele>90.2</ele>
        <time>2023-12-20T10:38:42Z</time>
      </trkpt>
      <trkpt lat="48.84433" lon="1.88124">
        <ele>90.2</ele>
        <time>2023-12-20T10:38:43Z</time>
      </trkpt>
      <trkpt lat="48.84442" lon="1.88125">
        <ele>90.2</ele>
        <time>2023-12-20T10:38:44Z</time>
      </trkpt>
      <trkpt lat="48.84451" lon="1.88126">
        <ele>90.2</ele>
        <time>2023-12-20T10:38:45Z</time>
      </trkpt>
      <trkpt lat="48.8446" lon="1.88128">
        <ele>90</ele>
        <time>2023-12-20T10:38:46Z</time>
      </trkpt>
      <trkpt lat="48.84469" lon="1.88129">
        <ele>90.2</ele>
        <time>2023-12-20T10:38:47Z</time>
      </trkpt>
      <trkpt lat="48.84478" lon="1.88129">
        <ele>90.2</ele>
        <time>2023-12-20T10:38:48Z</time>
      </trkpt>
      <trkpt lat="48.84488" lon="1.88129">
        <ele>90.2</ele>
        <time>2023-12-20T10:38:49Z</time>
      </trkpt>
      <trkpt lat="48.84498" lon="1.88129">
        <ele>90.2</ele>
        <time>2023-12-20T10:38:50Z</time>
      </trkpt>
      <trkpt lat="48.84508" lon="1.88128">
        <ele>90.4</ele>
        <time>2023-12-20T10:38:51Z</time>
      </trkpt>
      <trkpt lat="48.84518" lon="1.88127">
        <ele>90.4</ele>
        <time>2023-12-20T10:38:52Z</time>
      </trkpt>
      <trkpt lat="48.84528" lon="1.88126">
        <ele>90.4</ele>
        <time>2023-12-20T10:38:53Z</time>
      </trkpt>
      <trkpt lat="48.84538" lon="1.88125">
        <ele>90.2</ele>
        <time>2023-12-20T10:38:54Z</time>
      </trkpt>
      <trkpt lat="48.84548" lon="1.88124">
        <ele>90</ele>
        <time>2023-12-20T10:38:55Z</time>
      </trkpt>
      <trkpt lat="48.84558" lon="1.88122">
        <ele>90</ele>
        <time>2023-12-20T10:38:56Z</time>
      </trkpt>
      <trkpt lat="48.84567" lon="1.8812">
        <ele>90</ele>
        <time>2023-12-20T10:38:57Z</time>
      </trkpt>
      <trkpt lat="48.84576" lon="1.88118">
        <ele>90</ele>
        <time>2023-12-20T10:38:58Z</time>
      </trkpt>
      <trkpt lat="48.84585" lon="1.88115">
        <ele>90.2</ele>
        <time>2023-12-20T10:38:59Z</time>
      </trkpt>
      <trkpt lat="48.84594" lon="1.88112">
        <ele>90.2</ele>
        <time>2023-12-20T10:39:00Z</time>
      </trkpt>
      <trkpt lat="48.84602" lon="1.88109">
        <ele>90.2</ele>
        <time>2023-12-20T10:39:01Z</time>
      </trkpt>
      <trkpt lat="48.84611" lon="1.88105">
        <ele>90.2</ele>
        <time>2023-12-20T10:39:02Z</time>
      </trkpt>
      <trkpt lat="48.84619" lon="1.88102">
        <ele>90.8</ele>
        <time>2023-12-20T10:39:03Z</time>
      </trkpt>
      <trkpt lat="48.84627" lon="1.88099">
        <ele>90.8</ele>
        <time>2023-12-20T10:39:04Z</time>
      </trkpt>
      <trkpt lat="48.84635" lon="1.88096">
        <ele>90.8</ele>
        <time>2023-12-20T10:39:05Z</time>
      </trkpt>
      <trkpt lat="48.84642" lon="1.88092">
        <ele>90.4</ele>
        <time>2023-12-20T10:39:06Z</time>
      </trkpt>
      <trkpt lat="48.84649" lon="1.88089">
        <ele>90.4</ele>
        <time>2023-12-20T10:39:07Z</time>
      </trkpt>
      <trkpt lat="48.84657" lon="1.88086">
        <ele>90.4</ele>
        <time>2023-12-20T10:39:08Z</time>
      </trkpt>
      <trkpt lat="48.84664" lon="1.88083">
        <ele>90.4</ele>
        <time>2023-12-20T10:39:09Z</time>
      </trkpt>
      <trkpt lat="48.84671" lon="1.8808">
        <ele>90.4</ele>
        <time>2023-12-20T10:39:10Z</time>
      </trkpt>
      <trkpt lat="48.84678" lon="1.88076">
        <ele>90.2</ele>
        <time>2023-12-20T10:39:11Z</time>
      </trkpt>
      <trkpt lat="48.84685" lon="1.88073">
        <ele>90.2</ele>
        <time>2023-12-20T10:39:12Z</time>
      </trkpt>
      <trkpt lat="48.84692" lon="1.88069">
        <ele>90.2</ele>
        <time>2023-12-20T10:39:13Z</time>
      </trkpt>
      <trkpt lat="48.84699" lon="1.88064">
        <ele>90.4</ele>
        <time>2023-12-20T10:39:14Z</time>
      </trkpt>
      <trkpt lat="48.84706" lon="1.88059">
        <ele>90.8</ele>
        <time>2023-12-20T10:39:15Z</time>
      </trkpt>
      <trkpt lat="48.84713" lon="1.88054">
        <ele>90.8</ele>
        <time>2023-12-20T10:39:16Z</time>
      </trkpt>
      <trkpt lat="48.8472" lon="1.88048">
        <ele>90.8</ele>
        <time>2023-12-20T10:39:17Z</time>
      </trkpt>
      <trkpt lat="48.84726" lon="1.88041">
        <ele>90.2</ele>
        <time>2023-12-20T10:39:18Z</time>
      </trkpt>
      <trkpt lat="48.84733" lon="1.88034">
        <ele>90.2</ele>
        <time>2023-12-20T10:39:19Z</time>
      </trkpt>
      <trkpt lat="48.84739" lon="1.88026">
        <ele>90.2</ele>
        <time>2023-12-20T10:39:20Z</time>
      </trkpt>
      <trkpt lat="48.84744" lon="1.88018">
        <ele>90.2</ele>
        <time>2023-12-20T10:39:21Z</time>
      </trkpt>
      <trkpt lat="48.8475" lon="1.88009">
        <ele>90.2</ele>
        <time>2023-12-20T10:39:22Z</time>
      </trkpt>
      <trkpt lat="48.84755" lon="1.87999">
        <ele>90.4</ele>
        <time>2023-12-20T10:39:23Z</time>
      </trkpt>
      <trkpt lat="48.8476" lon="1.87989">
        <ele>90.4</ele>
        <time>2023-12-20T10:39:24Z</time>
      </trkpt>
      <trkpt lat="48.84765" lon="1.87979">
        <ele>90.4</ele>
        <time>2023-12-20T10:39:25Z</time>
      </trkpt>
      <trkpt lat="48.8477" lon="1.87968">
        <ele>90.4</ele>
        <time>2023-12-20T10:39:26Z</time>
      </trkpt>
      <trkpt lat="48.84774" lon="1.87956">
        <ele>90.4</ele>
        <time>2023-12-20T10:39:27Z</time>
      </trkpt>
      <trkpt lat="48.84778" lon="1.87945">
        <ele>90.4</ele>
        <time>2023-12-20T10:39:28Z</time>
      </trkpt>
      <trkpt lat="48.84781" lon="1.87933">
        <ele>90.4</ele>
        <time>2023-12-20T10:39:29Z</time>
      </trkpt>
      <trkpt lat="48.84784" lon="1.87921">
        <ele>90.4</ele>
        <time>2023-12-20T10:39:30Z</time>
      </trkpt>
      <trkpt lat="48.84786" lon="1.87908">
        <ele>90.2</ele>
        <time>2023-12-20T10:39:31Z</time>
      </trkpt>
      <trkpt lat="48.84788" lon="1.87895">
        <ele>90.2</ele>
        <time>2023-12-20T10:39:32Z</time>
      </trkpt>
      <trkpt lat="48.8479" lon="1.87883">
        <ele>90.2</ele>
        <time>2023-12-20T10:39:33Z</time>
      </trkpt>
      <trkpt lat="48.84792" lon="1.87871">
        <ele>90.2</ele>
        <time>2023-12-20T10:39:34Z</time>
      </trkpt>
      <trkpt lat="48.84794" lon="1.87858">
        <ele>90.2</ele>
        <time>2023-12-20T10:39:35Z</time>
      </trkpt>
      <trkpt lat="48.84796" lon="1.87846">
        <ele>90.2</ele>
        <time>2023-12-20T10:39:36Z</time>
      </trkpt>
      <trkpt lat="48.84798" lon="1.87833">
        <ele>90.2</ele>
        <time>2023-12-20T10:39:37Z</time>
      </trkpt>
      <trkpt lat="48.848" lon="1.87821">
        <ele>90.4</ele>
        <time>2023-12-20T10:39:38Z</time>
      </trkpt>
      <trkpt lat="48.84802" lon="1.87808">
        <ele>90.6</ele>
        <time>2023-12-20T10:39:39Z</time>
      </trkpt>
      <trkpt lat="48.84803" lon="1.87796">
        <ele>90.6</ele>
        <time>2023-12-20T10:39:40Z</time>
      </trkpt>
      <trkpt lat="48.84805" lon="1.87783">
        <ele>90.6</ele>
        <time>2023-12-20T10:39:41Z</time>
      </trkpt>
      <trkpt lat="48.84806" lon="1.87771">
        <ele>90.6</ele>
        <time>2023-12-20T10:39:42Z</time>
      </trkpt>
      <trkpt lat="48.84807" lon="1.87758">
        <ele>90.4</ele>
        <time>2023-12-20T10:39:43Z</time>
      </trkpt>
      <trkpt lat="48.84807" lon="1.87745">
        <ele>90.4</ele>
        <time>2023-12-20T10:39:44Z</time>
      </trkpt>
      <trkpt lat="48.84808" lon="1.87732">
        <ele>90.4</ele>
        <time>2023-12-20T10:39:45Z</time>
      </trkpt>
      <trkpt lat="48.84809" lon="1.87719">
        <ele>90</ele>
        <time>2023-12-20T10:39:46Z</time>
      </trkpt>
      <trkpt lat="48.84811" lon="1.87706">
        <ele>90.2</ele>
        <time>2023-12-20T10:39:47Z</time>
      </trkpt>
      <trkpt lat="48.84814" lon="1.87694">
        <ele>90.2</ele>
        <time>2023-12-20T10:39:48Z</time>
      </trkpt>
      <trkpt lat="48.84819" lon="1.87684">
        <ele>90.2</ele>
        <time>2023-12-20T10:39:49Z</time>
      </trkpt>
      <trkpt lat="48.84825" lon="1.87674">
        <ele>90.2</ele>
        <time>2023-12-20T10:39:50Z</time>
      </trkpt>
      <trkpt lat="48.84832" lon="1.87666">
        <ele>90.6</ele>
        <time>2023-12-20T10:39:51Z</time>
      </trkpt>
      <trkpt lat="48.8484" lon="1.8766">
        <ele>90.6</ele>
        <time>2023-12-20T10:39:52Z</time>
      </trkpt>
      <trkpt lat="48.84848" lon="1.87656">
        <ele>90.6</ele>
        <time>2023-12-20T10:39:53Z</time>
      </trkpt>
      <trkpt lat="48.84856" lon="1.87653">
        <ele>90.2</ele>
        <time>2023-12-20T10:39:54Z</time>
      </trkpt>
      <trkpt lat="48.84865" lon="1.87651">
        <ele>90</ele>
        <time>2023-12-20T10:39:55Z</time>
      </trkpt>
      <trkpt lat="48.84873" lon="1.87651">
        <ele>90</ele>
        <time>2023-12-20T10:39:56Z</time>
      </trkpt>
      <trkpt lat="48.84882" lon="1.87651">
        <ele>90</ele>
        <time>2023-12-20T10:39:57Z</time>
      </trkpt>
      <trkpt lat="48.84891" lon="1.87653">
        <ele>90</ele>
        <time>2023-12-20T10:39:58Z</time>
      </trkpt>
      <trkpt lat="48.84899" lon="1.87655">
        <ele>90.6</ele>
        <time>2023-12-20T10:39:59Z</time>
      </trkpt>
      <trkpt lat="48.84908" lon="1.87658">
        <ele>90.6</ele>
        <time>2023-12-20T10:40:00Z</time>
      </trkpt>
      <trkpt lat="48.84917" lon="1.87662">
        <ele>90.6</ele>
        <time>2023-12-20T10:40:01Z</time>
      </trkpt>
      <trkpt lat="48.84925" lon="1.87666">
        <ele>90.2</ele>
        <time>2023-12-20T10:40:02Z</time>
      </trkpt>
      <trkpt lat="48.84934" lon="1.8767">
        <ele>90.4</ele>
        <time>2023-12-20T10:40:03Z</time>
      </trkpt>
      <trkpt lat="48.84943" lon="1.87674">
        <ele>90.4</ele>
        <time>2023-12-20T10:40:04Z</time>
      </trkpt>
      <trkpt lat="48.84952" lon="1.87678">
        <ele>90.4</ele>
        <time>2023-12-20T10:40:05Z</time>
      </trkpt>
      <trkpt lat="48.84961" lon="1.87682">
        <ele>90.2</ele>
        <time>2023-12-20T10:40:06Z</time>
      </trkpt>
      <trkpt lat="48.84969" lon="1.87686">
        <ele>90.4</ele>
        <time>2023-12-20T10:40:07Z</time>
      </trkpt>
      <trkpt lat="48.84978" lon="1.8769">
        <ele>90.4</ele>
        <time>2023-12-20T10:40:08Z</time>
      </trkpt>
      <trkpt lat="48.84986" lon="1.87695">
        <ele>90.4</ele>
        <time>2023-12-20T10:40:09Z</time>
      </trkpt>
      <trkpt lat="48.84995" lon="1.87699">
        <ele>90.4</ele>
        <time>2023-12-20T10:40:10Z</time>
      </trkpt>
      <trkpt lat="48.85004" lon="1.87703">
        <ele>90.6</ele>
        <time>2023-12-20T10:40:11Z</time>
      </trkpt>
      <trkpt lat="48.85012" lon="1.87706">
        <ele>90.6</ele>
        <time>2023-12-20T10:40:12Z</time>
      </trkpt>
      <trkpt lat="48.8502" lon="1.8771">
        <ele>90.6</ele>
        <time>2023-12-20T10:40:13Z</time>
      </trkpt>
      <trkpt lat="48.85029" lon="1.87713">
        <ele>90.6</ele>
        <time>2023-12-20T10:40:14Z</time>
      </trkpt>
      <trkpt lat="48.85037" lon="1.87717">
        <ele>90.2</ele>
        <time>2023-12-20T10:40:15Z</time>
      </trkpt>
      <trkpt lat="48.85045" lon="1.87721">
        <ele>90.2</ele>
        <time>2023-12-20T10:40:16Z</time>
      </trkpt>
      <trkpt lat="48.85053" lon="1.87726">
        <ele>90.2</ele>
        <time>2023-12-20T10:40:17Z</time>
      </trkpt>
      <trkpt lat="48.85061" lon="1.8773">
        <ele>90.4</ele>
        <time>2023-12-20T10:40:18Z</time>
      </trkpt>
      <trkpt lat="48.85068" lon="1.87734">
        <ele>90.6</ele>
        <time>2023-12-20T10:40:19Z</time>
      </trkpt>
      <trkpt lat="48.85076" lon="1.87739">
        <ele>90.6</ele>
        <time>2023-12-20T10:40:20Z</time>
      </trkpt>
      <trkpt lat="48.85084" lon="1.87743">
        <ele>90.6</ele>
        <time>2023-12-20T10:40:21Z</time>
      </trkpt>
      <trkpt lat="48.85092" lon="1.87747">
        <ele>90.6</ele>
        <time>2023-12-20T10:40:22Z</time>
      </trkpt>
      <trkpt lat="48.851" lon="1.87752">
        <ele>90.4</ele>
        <time>2023-12-20T10:40:23Z</time>
      </trkpt>
      <trkpt lat="48.85107" lon="1.87757">
        <ele>90.4</ele>
        <time>2023-12-20T10:40:24Z</time>
      </trkpt>
      <trkpt lat="48.85115" lon="1.87762">
        <ele>90.4</ele>
        <time>2023-12-20T10:40:25Z</time>
      </trkpt>
      <trkpt lat="48.85122" lon="1.87767">
        <ele>90.4</ele>
        <time>2023-12-20T10:40:26Z</time>
      </trkpt>
      <trkpt lat="48.8513" lon="1.87771">
        <ele>90.2</ele>
        <time>2023-12-20T10:40:27Z</time>
      </trkpt>
      <trkpt lat="48.85138" lon="1.87775">
        <ele>90.2</ele>
        <time>2023-12-20T10:40:28Z</time>
      </trkpt>
      <trkpt lat="48.85146" lon="1.87778">
        <ele>90.2</ele>
        <time>2023-12-20T10:40:29Z</time>
      </trkpt>
      <trkpt lat="48.85154" lon="1.8778">
        <ele>90.2</ele>
        <time>2023-12-20T10:40:30Z</time>
      </trkpt>
      <trkpt lat="48.85162" lon="1.87781">
        <ele>90.6</ele>
        <time>2023-12-20T10:40:31Z</time>
      </trkpt>
      <trkpt lat="48.8517" lon="1.87781">
        <ele>90.6</ele>
        <time>2023-12-20T10:40:32Z</time>
      </trkpt>
      <trkpt lat="48.85179" lon="1.87781">
        <ele>90.6</ele>
        <time>2023-12-20T10:40:33Z</time>
      </trkpt>
      <trkpt lat="48.85187" lon="1.8778">
        <ele>90.8</ele>
        <time>2023-12-20T10:40:34Z</time>
      </trkpt>
      <trkpt lat="48.85195" lon="1.87778">
        <ele>90.4</ele>
        <time>2023-12-20T10:40:35Z</time>
      </trkpt>
      <trkpt lat="48.85203" lon="1.87775">
        <ele>90.4</ele>
        <time>2023-12-20T10:40:36Z</time>
      </trkpt>
      <trkpt lat="48.85211" lon="1.87771">
        <ele>90.4</ele>
        <time>2023-12-20T10:40:37Z</time>
      </trkpt>
      <trkpt lat="48.85218" lon="1.87765">
        <ele>90.4</ele>
        <time>2023-12-20T10:40:38Z</time>
      </trkpt>
      <trkpt lat="48.85225" lon="1.87759">
        <ele>90.4</ele>
        <time>2023-12-20T10:40:39Z</time>
      </trkpt>
      <trkpt lat="48.85231" lon="1.87753">
        <ele>90.4</ele>
        <time>2023-12-20T10:40:40Z</time>
      </trkpt>
      <trkpt lat="48.85237" lon="1.87746">
        <ele>90.4</ele>
        <time>2023-12-20T10:40:41Z</time>
      </trkpt>
      <trkpt lat="48.85243" lon="1.87738">
        <ele>90.4</ele>
        <time>2023-12-20T10:40:42Z</time>
      </trkpt>
      <trkpt lat="48.85248" lon="1.8773">
        <ele>90.8</ele>
        <time>2023-12-20T10:40:43Z</time>
      </trkpt>
      <trkpt lat="48.85253" lon="1.87721">
        <ele>90.8</ele>
        <time>2023-12-20T10:40:44Z</time>
      </trkpt>
      <trkpt lat="48.85257" lon="1.87713">
        <ele>90.8</ele>
        <time>2023-12-20T10:40:45Z</time>
      </trkpt>
      <trkpt lat="48.85261" lon="1.87703">
        <ele>90.8</ele>
        <time>2023-12-20T10:40:46Z</time>
      </trkpt>
      <trkpt lat="48.85265" lon="1.87693">
        <ele>90.8</ele>
        <time>2023-12-20T10:40:47Z</time>
      </trkpt>
      <trkpt lat="48.85268" lon="1.87684">
        <ele>90.8</ele>
        <time>2023-12-20T10:40:48Z</time>
      </trkpt>
      <trkpt lat="48.85272" lon="1.87674">
        <ele>90.8</ele>
        <time>2023-12-20T10:40:49Z</time>
      </trkpt>
      <trkpt lat="48.85277" lon="1.87664">
        <ele>90.4</ele>
        <time>2023-12-20T10:40:50Z</time>
      </trkpt>
      <trkpt lat="48.85281" lon="1.87654">
        <ele>90.4</ele>
        <time>2023-12-20T10:40:51Z</time>
      </trkpt>
      <trkpt lat="48.85285" lon="1.87643">
        <ele>90.4</ele>
        <time>2023-12-20T10:40:52Z</time>
      </trkpt>
      <trkpt lat="48.85289" lon="1.87633">
        <ele>90.4</ele>
        <time>2023-12-20T10:40:53Z</time>
      </trkpt>
      <trkpt lat="48.85293" lon="1.87623">
        <ele>91</ele>
        <time>2023-12-20T10:40:54Z</time>
      </trkpt>
      <trkpt lat="48.85299" lon="1.87616">
        <ele>90.4</ele>
        <time>2023-12-20T10:40:55Z</time>
      </trkpt>
      <trkpt lat="48.85304" lon="1.8761">
        <ele>90.4</ele>
        <time>2023-12-20T10:40:56Z</time>
      </trkpt>
      <trkpt lat="48.8531" lon="1.87606">
        <ele>90.4</ele>
        <time>2023-12-20T10:40:57Z</time>
      </trkpt>
      <trkpt lat="48.85317" lon="1.87604">
        <ele>91</ele>
        <time>2023-12-20T10:40:58Z</time>
      </trkpt>
      <trkpt lat="48.85323" lon="1.87601">
        <ele>91.2</ele>
        <time>2023-12-20T10:40:59Z</time>
      </trkpt>
      <trkpt lat="48.85329" lon="1.87599">
        <ele>91.2</ele>
        <time>2023-12-20T10:41:00Z</time>
      </trkpt>
      <trkpt lat="48.85335" lon="1.87597">
        <ele>91.2</ele>
        <time>2023-12-20T10:41:01Z</time>
      </trkpt>
      <trkpt lat="48.85341" lon="1.87595">
        <ele>90.4</ele>
        <time>2023-12-20T10:41:02Z</time>
      </trkpt>
      <trkpt lat="48.85347" lon="1.87593">
        <ele>91.2</ele>
        <time>2023-12-20T10:41:03Z</time>
      </trkpt>
      <trkpt lat="48.85353" lon="1.87591">
        <ele>91.2</ele>
        <time>2023-12-20T10:41:04Z</time>
      </trkpt>
      <trkpt lat="48.85358" lon="1.8759">
        <ele>91.2</ele>
        <time>2023-12-20T10:41:05Z</time>
      </trkpt>
      <trkpt lat="48.85364" lon="1.87588">
        <ele>91.2</ele>
        <time>2023-12-20T10:41:06Z</time>
      </trkpt>
      <trkpt lat="48.85369" lon="1.87587">
        <ele>91.2</ele>
        <time>2023-12-20T10:41:07Z</time>
      </trkpt>
      <trkpt lat="48.85375" lon="1.87585">
        <ele>91.2</ele>
        <time>2023-12-20T10:41:08Z</time>
      </trkpt>
      <trkpt lat="48.85381" lon="1.87584">
        <ele>91.2</ele>
        <time>2023-12-20T10:41:09Z</time>
      </trkpt>
      <trkpt lat="48.85387" lon="1.87582">
        <ele>91.2</ele>
        <time>2023-12-20T10:41:10Z</time>
      </trkpt>
      <trkpt lat="48.85393" lon="1.8758">
        <ele>91</ele>
        <time>2023-12-20T10:41:11Z</time>
      </trkpt>
      <trkpt lat="48.854" lon="1.87577">
        <ele>91</ele>
        <time>2023-12-20T10:41:12Z</time>
      </trkpt>
      <trkpt lat="48.85406" lon="1.87574">
        <ele>91</ele>
        <time>2023-12-20T10:41:13Z</time>
      </trkpt>
      <trkpt lat="48.85413" lon="1.8757">
        <ele>91</ele>
        <time>2023-12-20T10:41:14Z</time>
      </trkpt>
      <trkpt lat="48.85419" lon="1.87566">
        <ele>91</ele>
        <time>2023-12-20T10:41:15Z</time>
      </trkpt>
      <trkpt lat="48.85425" lon="1.8756">
        <ele>91</ele>
        <time>2023-12-20T10:41:16Z</time>
      </trkpt>
      <trkpt lat="48.85432" lon="1.87555">
        <ele>91</ele>
        <time>2023-12-20T10:41:17Z</time>
      </trkpt>
      <trkpt lat="48.85438" lon="1.8755">
        <ele>91</ele>
        <time>2023-12-20T10:41:18Z</time>
      </trkpt>
      <trkpt lat="48.85444" lon="1.87546">
        <ele>91.2</ele>
        <time>2023-12-20T10:41:19Z</time>
      </trkpt>
      <trkpt lat="48.85451" lon="1.87541">
        <ele>91.2</ele>
        <time>2023-12-20T10:41:20Z</time>
      </trkpt>
      <trkpt lat="48.85457" lon="1.87537">
        <ele>91.2</ele>
        <time>2023-12-20T10:41:21Z</time>
      </trkpt>
      <trkpt lat="48.85464" lon="1.87532">
        <ele>91.2</ele>
        <time>2023-12-20T10:41:22Z</time>
      </trkpt>
      <trkpt lat="48.85471" lon="1.87528">
        <ele>90.8</ele>
        <time>2023-12-20T10:41:23Z</time>
      </trkpt>
      <trkpt lat="48.85478" lon="1.87524">
        <ele>90.8</ele>
        <time>2023-12-20T10:41:24Z</time>
      </trkpt>
      <trkpt lat="48.85485" lon="1.87519">
        <ele>90.8</ele>
        <time>2023-12-20T10:41:25Z</time>
      </trkpt>
      <trkpt lat="48.85492" lon="1.87514">
        <ele>90.8</ele>
        <time>2023-12-20T10:41:26Z</time>
      </trkpt>
      <trkpt lat="48.85499" lon="1.8751">
        <ele>91</ele>
        <time>2023-12-20T10:41:27Z</time>
      </trkpt>
      <trkpt lat="48.85505" lon="1.87505">
        <ele>91</ele>
        <time>2023-12-20T10:41:28Z</time>
      </trkpt>
      <trkpt lat="48.85512" lon="1.87501">
        <ele>91</ele>
        <time>2023-12-20T10:41:29Z</time>
      </trkpt>
      <trkpt lat="48.85518" lon="1.87497">
        <ele>91</ele>
        <time>2023-12-20T10:41:30Z</time>
      </trkpt>
      <trkpt lat="48.85524" lon="1.87492">
        <ele>91.2</ele>
        <time>2023-12-20T10:41:31Z</time>
      </trkpt>
      <trkpt lat="48.8553" lon="1.87488">
        <ele>91.2</ele>
        <time>2023-12-20T10:41:32Z</time>
      </trkpt>
      <trkpt lat="48.85535" lon="1.87483">
        <ele>91.2</ele>
        <time>2023-12-20T10:41:33Z</time>
      </trkpt>
      <trkpt lat="48.8554" lon="1.87479">
        <ele>90.8</ele>
        <time>2023-12-20T10:41:34Z</time>
      </trkpt>
      <trkpt lat="48.85545" lon="1.87475">
        <ele>91.2</ele>
        <time>2023-12-20T10:41:35Z</time>
      </trkpt>
      <trkpt lat="48.8555" lon="1.87471">
        <ele>91.2</ele>
        <time>2023-12-20T10:41:36Z</time>
      </trkpt>
      <trkpt lat="48.85553" lon="1.87469">
        <ele>91.2</ele>
        <time>2023-12-20T10:41:37Z</time>
      </trkpt>
      <trkpt lat="48.85556" lon="1.87467">
        <ele>91.2</ele>
        <time>2023-12-20T10:41:38Z</time>
      </trkpt>
      <trkpt lat="48.85558" lon="1.87467">
        <ele>91</ele>
        <time>2023-12-20T10:41:39Z</time>
      </trkpt>
      <trkpt lat="48.85559" lon="1.87466">
        <ele>91</ele>
        <time>2023-12-20T10:41:40Z</time>
      </trkpt>
      <trkpt lat="48.8556" lon="1.87465">
        <ele>91</ele>
        <time>2023-12-20T10:41:41Z</time>
      </trkpt>
      <trkpt lat="48.8556" lon="1.87465">
        <ele>91</ele>
        <time>2023-12-20T10:41:42Z</time>
      </trkpt>
      <trkpt lat="48.8556" lon="1.87461">
        <ele>89.8</ele>
        <time>2023-12-20T10:41:59Z</time>
      </trkpt>
      <trkpt lat="48.85563" lon="1.87458">
        <ele>89.8</ele>
        <time>2023-12-20T10:42:00Z</time>
      </trkpt>
      <trkpt lat="48.85566" lon="1.87456">
        <ele>89.8</ele>
        <time>2023-12-20T10:42:01Z</time>
      </trkpt>
      <trkpt lat="48.85568" lon="1.87452">
        <ele>89.8</ele>
        <time>2023-12-20T10:42:02Z</time>
      </trkpt>
      <trkpt lat="48.85571" lon="1.87448">
        <ele>89.4</ele>
        <time>2023-12-20T10:42:03Z</time>
      </trkpt>
      <trkpt lat="48.85573" lon="1.87445">
        <ele>89.4</ele>
        <time>2023-12-20T10:42:04Z</time>
      </trkpt>
      <trkpt lat="48.85574" lon="1.8744">
        <ele>89.4</ele>
        <time>2023-12-20T10:42:05Z</time>
      </trkpt>
      <trkpt lat="48.85575" lon="1.87433">
        <ele>89.4</ele>
        <time>2023-12-20T10:42:06Z</time>
      </trkpt>
      <trkpt lat="48.85575" lon="1.87426">
        <ele>89.4</ele>
        <time>2023-12-20T10:42:07Z</time>
      </trkpt>
      <trkpt lat="48.85574" lon="1.87419">
        <ele>89.4</ele>
        <time>2023-12-20T10:42:08Z</time>
      </trkpt>
      <trkpt lat="48.85573" lon="1.87412">
        <ele>89.4</ele>
        <time>2023-12-20T10:42:09Z</time>
      </trkpt>
      <trkpt lat="48.85573" lon="1.87405">
        <ele>89.4</ele>
        <time>2023-12-20T10:42:10Z</time>
      </trkpt>
      <trkpt lat="48.85573" lon="1.87398">
        <ele>88</ele>
        <time>2023-12-20T10:42:11Z</time>
      </trkpt>
      <trkpt lat="48.85573" lon="1.87391">
        <ele>88</ele>
        <time>2023-12-20T10:42:12Z</time>
      </trkpt>
      <trkpt lat="48.85575" lon="1.87385">
        <ele>88</ele>
        <time>2023-12-20T10:42:13Z</time>
      </trkpt>
      <trkpt lat="48.85578" lon="1.8738">
        <ele>88.8</ele>
        <time>2023-12-20T10:42:14Z</time>
      </trkpt>
      <trkpt lat="48.85582" lon="1.87375">
        <ele>89.2</ele>
        <time>2023-12-20T10:42:15Z</time>
      </trkpt>
      <trkpt lat="48.85587" lon="1.8737">
        <ele>89.2</ele>
        <time>2023-12-20T10:42:16Z</time>
      </trkpt>
      <trkpt lat="48.85591" lon="1.87367">
        <ele>89.2</ele>
        <time>2023-12-20T10:42:17Z</time>
      </trkpt>
      <trkpt lat="48.85596" lon="1.87364">
        <ele>89.2</ele>
        <time>2023-12-20T10:42:18Z</time>
      </trkpt>
      <trkpt lat="48.856" lon="1.87361">
        <ele>88.4</ele>
        <time>2023-12-20T10:42:19Z</time>
      </trkpt>
      <trkpt lat="48.85604" lon="1.87357">
        <ele>88.4</ele>
        <time>2023-12-20T10:42:20Z</time>
      </trkpt>
      <trkpt lat="48.85609" lon="1.87354">
        <ele>88.4</ele>
        <time>2023-12-20T10:42:21Z</time>
      </trkpt>
      <trkpt lat="48.85613" lon="1.87351">
        <ele>89</ele>
        <time>2023-12-20T10:42:22Z</time>
      </trkpt>
      <trkpt lat="48.85618" lon="1.87348">
        <ele>89</ele>
        <time>2023-12-20T10:42:23Z</time>
      </trkpt>
      <trkpt lat="48.85622" lon="1.87346">
        <ele>89</ele>
        <time>2023-12-20T10:42:24Z</time>
      </trkpt>
      <trkpt lat="48.85626" lon="1.87345">
        <ele>89</ele>
        <time>2023-12-20T10:42:25Z</time>
      </trkpt>
      <trkpt lat="48.85629" lon="1.87346">
        <ele>88.2</ele>
        <time>2023-12-20T10:42:26Z</time>
      </trkpt>
      <trkpt lat="48.85632" lon="1.8735">
        <ele>89.2</ele>
        <time>2023-12-20T10:42:27Z</time>
      </trkpt>
      <trkpt lat="48.85635" lon="1.87355">
        <ele>89.2</ele>
        <time>2023-12-20T10:42:28Z</time>
      </trkpt>
      <trkpt lat="48.85637" lon="1.8736">
        <ele>89.2</ele>
        <time>2023-12-20T10:42:29Z</time>
      </trkpt>
      <trkpt lat="48.8564" lon="1.87365">
        <ele>88.4</ele>
        <time>2023-12-20T10:42:30Z</time>
      </trkpt>
      <trkpt lat="48.85643" lon="1.8737">
        <ele>89.6</ele>
        <time>2023-12-20T10:42:31Z</time>
      </trkpt>
      <trkpt lat="48.85644" lon="1.87374">
        <ele>89.6</ele>
        <time>2023-12-20T10:42:32Z</time>
      </trkpt>
      <trkpt lat="48.85643" lon="1.87377">
        <ele>89.6</ele>
        <time>2023-12-20T10:42:33Z</time>
      </trkpt>
      <trkpt lat="48.85644" lon="1.8738">
        <ele>88.6</ele>
        <time>2023-12-20T10:42:34Z</time>
      </trkpt>
      <trkpt lat="48.85643" lon="1.87383">
        <ele>88.4</ele>
        <time>2023-12-20T10:42:35Z</time>
      </trkpt>
      <trkpt lat="48.85642" lon="1.87387">
        <ele>88.4</ele>
        <time>2023-12-20T10:42:36Z</time>
      </trkpt>
      <trkpt lat="48.85643" lon="1.87391">
        <ele>88.4</ele>
        <time>2023-12-20T10:42:37Z</time>
      </trkpt>
      <trkpt lat="48.85644" lon="1.87395">
        <ele>88</ele>
        <time>2023-12-20T10:42:38Z</time>
      </trkpt>
      <trkpt lat="48.85645" lon="1.87399">
        <ele>88.2</ele>
        <time>2023-12-20T10:42:39Z</time>
      </trkpt>
      <trkpt lat="48.85647" lon="1.87402">
        <ele>88.2</ele>
        <time>2023-12-20T10:42:40Z</time>
      </trkpt>
      <trkpt lat="48.8565" lon="1.87405">
        <ele>88.2</ele>
        <time>2023-12-20T10:42:41Z</time>
      </trkpt>
      <trkpt lat="48.85653" lon="1.87408">
        <ele>87.8</ele>
        <time>2023-12-20T10:42:42Z</time>
      </trkpt>
      <trkpt lat="48.85656" lon="1.87411">
        <ele>87.8</ele>
        <time>2023-12-20T10:42:43Z</time>
      </trkpt>
      <trkpt lat="48.8566" lon="1.87414">
        <ele>87.8</ele>
        <time>2023-12-20T10:42:44Z</time>
      </trkpt>
      <trkpt lat="48.85662" lon="1.87417">
        <ele>87.8</ele>
        <time>2023-12-20T10:42:45Z</time>
      </trkpt>
      <trkpt lat="48.85664" lon="1.8742">
        <ele>87.8</ele>
        <time>2023-12-20T10:42:46Z</time>
      </trkpt>
      <trkpt lat="48.85666" lon="1.87422">
        <ele>87.4</ele>
        <time>2023-12-20T10:42:47Z</time>
      </trkpt>
      <trkpt lat="48.85668" lon="1.87424">
        <ele>87.4</ele>
        <time>2023-12-20T10:42:48Z</time>
      </trkpt>
      <trkpt lat="48.8567" lon="1.87428">
        <ele>87.4</ele>
        <time>2023-12-20T10:42:49Z</time>
      </trkpt>
      <trkpt lat="48.85672" lon="1.87431">
        <ele>87.4</ele>
        <time>2023-12-20T10:42:50Z</time>
      </trkpt>
      <trkpt lat="48.85672" lon="1.87433">
        <ele>87.4</ele>
        <time>2023-12-20T10:42:51Z</time>
      </trkpt>
      <trkpt lat="48.85673" lon="1.87433">
        <ele>87.4</ele>
        <time>2023-12-20T10:42:52Z</time>
      </trkpt>
      <trkpt lat="48.85677" lon="1.8743">
        <ele>56.6</ele>
        <time>2023-12-20T10:47:35Z</time>
      </trkpt>
      <trkpt lat="48.85676" lon="1.87427">
        <ele>56.6</ele>
        <time>2023-12-20T10:47:36Z</time>
      </trkpt>
      <trkpt lat="48.85675" lon="1.87424">
        <ele>56.6</ele>
        <time>2023-12-20T10:47:37Z</time>
      </trkpt>
      <trkpt lat="48.85674" lon="1.87422">
        <ele>56.6</ele>
        <time>2023-12-20T10:47:38Z</time>
      </trkpt>
      <trkpt lat="48.85674" lon="1.8742">
        <ele>56.6</ele>
        <time>2023-12-20T10:47:39Z</time>
      </trkpt>
      <trkpt lat="48.85673" lon="1.87419">
        <ele>56.2</ele>
        <time>2023-12-20T10:47:49Z</time>
      </trkpt>
      <trkpt lat="48.85673" lon="1.87417">
        <ele>56.2</ele>
        <time>2023-12-20T10:47:50Z</time>
      </trkpt>
      <trkpt lat="48.85671" lon="1.87415">
        <ele>56</ele>
        <time>2023-12-20T10:47:51Z</time>
      </trkpt>
      <trkpt lat="48.8567" lon="1.87412">
        <ele>56</ele>
        <time>2023-12-20T10:47:52Z</time>
      </trkpt>
      <trkpt lat="48.85668" lon="1.8741">
        <ele>56</ele>
        <time>2023-12-20T10:47:53Z</time>
      </trkpt>
      <trkpt lat="48.85666" lon="1.87407">
        <ele>56</ele>
        <time>2023-12-20T10:47:54Z</time>
      </trkpt>
      <trkpt lat="48.85664" lon="1.87403">
        <ele>56</ele>
        <time>2023-12-20T10:47:55Z</time>
      </trkpt>
      <trkpt lat="48.85662" lon="1.87399">
        <ele>56</ele>
        <time>2023-12-20T10:47:56Z</time>
      </trkpt>
      <trkpt lat="48.8566" lon="1.87395">
        <ele>56</ele>
        <time>2023-12-20T10:47:57Z</time>
      </trkpt>
      <trkpt lat="48.85658" lon="1.8739">
        <ele>56.4</ele>
        <time>2023-12-20T10:47:58Z</time>
      </trkpt>
      <trkpt lat="48.85655" lon="1.87386">
        <ele>56.6</ele>
        <time>2023-12-20T10:47:59Z</time>
      </trkpt>
      <trkpt lat="48.85653" lon="1.87381">
        <ele>56.6</ele>
        <time>2023-12-20T10:48:00Z</time>
      </trkpt>
      <trkpt lat="48.85651" lon="1.87376">
        <ele>56.6</ele>
        <time>2023-12-20T10:48:01Z</time>
      </trkpt>
      <trkpt lat="48.85648" lon="1.87372">
        <ele>56.6</ele>
        <time>2023-12-20T10:48:02Z</time>
      </trkpt>
      <trkpt lat="48.85646" lon="1.87367">
        <ele>56.8</ele>
        <time>2023-12-20T10:48:03Z</time>
      </trkpt>
      <trkpt lat="48.85643" lon="1.87362">
        <ele>56.8</ele>
        <time>2023-12-20T10:48:04Z</time>
      </trkpt>
      <trkpt lat="48.85641" lon="1.87357">
        <ele>56.8</ele>
        <time>2023-12-20T10:48:05Z</time>
      </trkpt>
      <trkpt lat="48.85639" lon="1.87353">
        <ele>56.8</ele>
        <time>2023-12-20T10:48:06Z</time>
      </trkpt>
      <trkpt lat="48.85637" lon="1.87348">
        <ele>57.2</ele>
        <time>2023-12-20T10:48:07Z</time>
      </trkpt>
      <trkpt lat="48.85636" lon="1.87343">
        <ele>57.2</ele>
        <time>2023-12-20T10:48:08Z</time>
      </trkpt>
      <trkpt lat="48.85636" lon="1.87339">
        <ele>57.2</ele>
        <time>2023-12-20T10:48:09Z</time>
      </trkpt>
      <trkpt lat="48.85636" lon="1.87335">
        <ele>57.2</ele>
        <time>2023-12-20T10:48:10Z</time>
      </trkpt>
      <trkpt lat="48.85637" lon="1.87331">
        <ele>57.6</ele>
        <time>2023-12-20T10:48:11Z</time>
      </trkpt>
      <trkpt lat="48.85639" lon="1.87328">
        <ele>57.6</ele>
        <time>2023-12-20T10:48:12Z</time>
      </trkpt>
      <trkpt lat="48.85641" lon="1.87324">
        <ele>57.6</ele>
        <time>2023-12-20T10:48:13Z</time>
      </trkpt>
      <trkpt lat="48.85643" lon="1.87319">
        <ele>57.6</ele>
        <time>2023-12-20T10:48:14Z</time>
      </trkpt>
      <trkpt lat="48.85645" lon="1.87314">
        <ele>57.8</ele>
        <time>2023-12-20T10:48:15Z</time>
      </trkpt>
      <trkpt lat="48.85646" lon="1.87309">
        <ele>57.8</ele>
        <time>2023-12-20T10:48:16Z</time>
      </trkpt>
      <trkpt lat="48.85647" lon="1.87303">
        <ele>57.8</ele>
        <time>2023-12-20T10:48:17Z</time>
      </trkpt>
      <trkpt lat="48.85648" lon="1.87297">
        <ele>58.2</ele>
        <time>2023-12-20T10:48:18Z</time>
      </trkpt>
      <trkpt lat="48.8565" lon="1.87291">
        <ele>58.4</ele>
        <time>2023-12-20T10:48:19Z</time>
      </trkpt>
      <trkpt lat="48.85652" lon="1.87286">
        <ele>58.4</ele>
        <time>2023-12-20T10:48:20Z</time>
      </trkpt>
      <trkpt lat="48.85654" lon="1.8728">
        <ele>58.4</ele>
        <time>2023-12-20T10:48:21Z</time>
      </trkpt>
      <trkpt lat="48.85656" lon="1.87274">
        <ele>58.4</ele>
        <time>2023-12-20T10:48:22Z</time>
      </trkpt>
      <trkpt lat="48.85657" lon="1.87268">
        <ele>58.6</ele>
        <time>2023-12-20T10:48:23Z</time>
      </trkpt>
      <trkpt lat="48.85659" lon="1.87261">
        <ele>58.6</ele>
        <time>2023-12-20T10:48:24Z</time>
      </trkpt>
      <trkpt lat="48.8566" lon="1.87255">
        <ele>58.6</ele>
        <time>2023-12-20T10:48:25Z</time>
      </trkpt>
      <trkpt lat="48.85661" lon="1.8725">
        <ele>58.6</ele>
        <time>2023-12-20T10:48:26Z</time>
      </trkpt>
      <trkpt lat="48.85663" lon="1.87245">
        <ele>59.2</ele>
        <time>2023-12-20T10:48:27Z</time>
      </trkpt>
      <trkpt lat="48.85665" lon="1.87241">
        <ele>59.2</ele>
        <time>2023-12-20T10:48:28Z</time>
      </trkpt>
      <trkpt lat="48.85666" lon="1.87237">
        <ele>59.2</ele>
        <time>2023-12-20T10:48:29Z</time>
      </trkpt>
      <trkpt lat="48.85667" lon="1.87232">
        <ele>59.2</ele>
        <time>2023-12-20T10:48:30Z</time>
      </trkpt>
      <trkpt lat="48.85667" lon="1.87226">
        <ele>59.6</ele>
        <time>2023-12-20T10:48:31Z</time>
      </trkpt>
      <trkpt lat="48.85667" lon="1.8722">
        <ele>59.6</ele>
        <time>2023-12-20T10:48:32Z</time>
      </trkpt>
      <trkpt lat="48.85667" lon="1.87214">
        <ele>59.6</ele>
        <time>2023-12-20T10:48:33Z</time>
      </trkpt>
      <trkpt lat="48.85666" lon="1.87207">
        <ele>59.6</ele>
        <time>2023-12-20T10:48:34Z</time>
      </trkpt>
      <trkpt lat="48.85666" lon="1.87201">
        <ele>60.6</ele>
        <time>2023-12-20T10:48:35Z</time>
      </trkpt>
      <trkpt lat="48.85665" lon="1.87194">
        <ele>60.6</ele>
        <time>2023-12-20T10:48:36Z</time>
      </trkpt>
      <trkpt lat="48.85664" lon="1.87188">
        <ele>60.6</ele>
        <time>2023-12-20T10:48:37Z</time>
      </trkpt>
      <trkpt lat="48.85663" lon="1.87182">
        <ele>60.6</ele>
        <time>2023-12-20T10:48:38Z</time>
      </trkpt>
      <trkpt lat="48.85661" lon="1.87175">
        <ele>60.4</ele>
        <time>2023-12-20T10:48:39Z</time>
      </trkpt>
      <trkpt lat="48.85661" lon="1.87169">
        <ele>60.4</ele>
        <time>2023-12-20T10:48:40Z</time>
      </trkpt>
      <trkpt lat="48.8566" lon="1.87163">
        <ele>60.4</ele>
        <time>2023-12-20T10:48:41Z</time>
      </trkpt>
      <trkpt lat="48.8566" lon="1.87157">
        <ele>60.4</ele>
        <time>2023-12-20T10:48:42Z</time>
      </trkpt>
      <trkpt lat="48.85659" lon="1.8715">
        <ele>60.8</ele>
        <time>2023-12-20T10:48:43Z</time>
      </trkpt>
      <trkpt lat="48.85658" lon="1.87144">
        <ele>60.8</ele>
        <time>2023-12-20T10:48:44Z</time>
      </trkpt>
      <trkpt lat="48.85658" lon="1.87137">
        <ele>60.8</ele>
        <time>2023-12-20T10:48:45Z</time>
      </trkpt>
      <trkpt lat="48.85657" lon="1.87131">
        <ele>61.6</ele>
        <time>2023-12-20T10:48:46Z</time>
      </trkpt>
      <trkpt lat="48.85656" lon="1.87125">
        <ele>62</ele>
        <time>2023-12-20T10:48:47Z</time>
      </trkpt>
      <trkpt lat="48.85656" lon="1.87118">
        <ele>62</ele>
        <time>2023-12-20T10:48:48Z</time>
      </trkpt>
      <trkpt lat="48.85656" lon="1.87112">
        <ele>62</ele>
        <time>2023-12-20T10:48:49Z</time>
      </trkpt>
      <trkpt lat="48.85656" lon="1.87105">
        <ele>62</ele>
        <time>2023-12-20T10:48:50Z</time>
      </trkpt>
      <trkpt lat="48.85656" lon="1.87099">
        <ele>62.4</ele>
        <time>2023-12-20T10:48:51Z</time>
      </trkpt>
      <trkpt lat="48.85657" lon="1.87093">
        <ele>62.4</ele>
        <time>2023-12-20T10:48:52Z</time>
      </trkpt>
      <trkpt lat="48.85658" lon="1.87087">
        <ele>62.4</ele>
        <time>2023-12-20T10:48:53Z</time>
      </trkpt>
      <trkpt lat="48.85659" lon="1.87082">
        <ele>62.4</ele>
        <time>2023-12-20T10:48:54Z</time>
      </trkpt>
      <trkpt lat="48.8566" lon="1.87076">
        <ele>62.8</ele>
        <time>2023-12-20T10:48:55Z</time>
      </trkpt>
      <trkpt lat="48.85661" lon="1.8707">
        <ele>62.8</ele>
        <time>2023-12-20T10:48:56Z</time>
      </trkpt>
      <trkpt lat="48.85662" lon="1.87065">
        <ele>62.8</ele>
        <time>2023-12-20T10:48:57Z</time>
      </trkpt>
      <trkpt lat="48.85663" lon="1.87059">
        <ele>62.8</ele>
        <time>2023-12-20T10:48:58Z</time>
      </trkpt>
      <trkpt lat="48.85665" lon="1.87054">
        <ele>63.2</ele>
        <time>2023-12-20T10:48:59Z</time>
      </trkpt>
      <trkpt lat="48.85667" lon="1.87049">
        <ele>63.2</ele>
        <time>2023-12-20T10:49:00Z</time>
      </trkpt>
      <trkpt lat="48.85669" lon="1.87043">
        <ele>63.2</ele>
        <time>2023-12-20T10:49:01Z</time>
      </trkpt>
      <trkpt lat="48.85671" lon="1.87038">
        <ele>63.8</ele>
        <time>2023-12-20T10:49:02Z</time>
      </trkpt>
      <trkpt lat="48.85673" lon="1.87033">
        <ele>64</ele>
        <time>2023-12-20T10:49:03Z</time>
      </trkpt>
      <trkpt lat="48.85675" lon="1.87028">
        <ele>64</ele>
        <time>2023-12-20T10:49:04Z</time>
      </trkpt>
      <trkpt lat="48.85677" lon="1.87023">
        <ele>64</ele>
        <time>2023-12-20T10:49:05Z</time>
      </trkpt>
      <trkpt lat="48.85679" lon="1.87018">
        <ele>64.2</ele>
        <time>2023-12-20T10:49:06Z</time>
      </trkpt>
      <trkpt lat="48.85681" lon="1.87013">
        <ele>64.8</ele>
        <time>2023-12-20T10:49:07Z</time>
      </trkpt>
      <trkpt lat="48.85682" lon="1.87008">
        <ele>64.8</ele>
        <time>2023-12-20T10:49:08Z</time>
      </trkpt>
      <trkpt lat="48.85684" lon="1.87003">
        <ele>64.8</ele>
        <time>2023-12-20T10:49:09Z</time>
      </trkpt>
      <trkpt lat="48.85686" lon="1.86998">
        <ele>64.8</ele>
        <time>2023-12-20T10:49:10Z</time>
      </trkpt>
      <trkpt lat="48.85688" lon="1.86993">
        <ele>64.8</ele>
        <time>2023-12-20T10:49:11Z</time>
      </trkpt>
      <trkpt lat="48.85689" lon="1.86988">
        <ele>64.8</ele>
        <time>2023-12-20T10:49:12Z</time>
      </trkpt>
      <trkpt lat="48.85691" lon="1.86982">
        <ele>64.8</ele>
        <time>2023-12-20T10:49:13Z</time>
      </trkpt>
      <trkpt lat="48.85693" lon="1.86978">
        <ele>65.4</ele>
        <time>2023-12-20T10:49:14Z</time>
      </trkpt>
      <trkpt lat="48.85695" lon="1.86973">
        <ele>65.8</ele>
        <time>2023-12-20T10:49:15Z</time>
      </trkpt>
      <trkpt lat="48.85697" lon="1.86968">
        <ele>65.8</ele>
        <time>2023-12-20T10:49:16Z</time>
      </trkpt>
      <trkpt lat="48.85699" lon="1.86963">
        <ele>65.8</ele>
        <time>2023-12-20T10:49:17Z</time>
      </trkpt>
      <trkpt lat="48.85701" lon="1.86958">
        <ele>66</ele>
        <time>2023-12-20T10:49:18Z</time>
      </trkpt>
      <trkpt lat="48.85703" lon="1.86953">
        <ele>66.4</ele>
        <time>2023-12-20T10:49:19Z</time>
      </trkpt>
      <trkpt lat="48.85704" lon="1.86947">
        <ele>66.4</ele>
        <time>2023-12-20T10:49:20Z</time>
      </trkpt>
      <trkpt lat="48.85706" lon="1.86942">
        <ele>66.4</ele>
        <time>2023-12-20T10:49:21Z</time>
      </trkpt>
      <trkpt lat="48.85708" lon="1.86937">
        <ele>66.4</ele>
        <time>2023-12-20T10:49:22Z</time>
      </trkpt>
      <trkpt lat="48.8571" lon="1.86932">
        <ele>66.8</ele>
        <time>2023-12-20T10:49:23Z</time>
      </trkpt>
      <trkpt lat="48.85712" lon="1.86926">
        <ele>66.8</ele>
        <time>2023-12-20T10:49:24Z</time>
      </trkpt>
      <trkpt lat="48.85714" lon="1.86921">
        <ele>66.8</ele>
        <time>2023-12-20T10:49:25Z</time>
      </trkpt>
      <trkpt lat="48.85716" lon="1.86916">
        <ele>67.2</ele>
        <time>2023-12-20T10:49:26Z</time>
      </trkpt>
      <trkpt lat="48.85718" lon="1.86911">
        <ele>67.2</ele>
        <time>2023-12-20T10:49:27Z</time>
      </trkpt>
      <trkpt lat="48.8572" lon="1.86906">
        <ele>67.2</ele>
        <time>2023-12-20T10:49:28Z</time>
      </trkpt>
      <trkpt lat="48.85722" lon="1.869">
        <ele>67.2</ele>
        <time>2023-12-20T10:49:29Z</time>
      </trkpt>
      <trkpt lat="48.85724" lon="1.86895">
        <ele>67.4</ele>
        <time>2023-12-20T10:49:30Z</time>
      </trkpt>
      <trkpt lat="48.85726" lon="1.8689">
        <ele>68.4</ele>
        <time>2023-12-20T10:49:31Z</time>
      </trkpt>
      <trkpt lat="48.85728" lon="1.86885">
        <ele>68.4</ele>
        <time>2023-12-20T10:49:32Z</time>
      </trkpt>
      <trkpt lat="48.8573" lon="1.8688">
        <ele>68.4</ele>
        <time>2023-12-20T10:49:33Z</time>
      </trkpt>
      <trkpt lat="48.85732" lon="1.86874">
        <ele>68.4</ele>
        <time>2023-12-20T10:49:34Z</time>
      </trkpt>
      <trkpt lat="48.85734" lon="1.86869">
        <ele>68.4</ele>
        <time>2023-12-20T10:49:35Z</time>
      </trkpt>
      <trkpt lat="48.85736" lon="1.86864">
        <ele>68.4</ele>
        <time>2023-12-20T10:49:36Z</time>
      </trkpt>
      <trkpt lat="48.85738" lon="1.86859">
        <ele>68.4</ele>
        <time>2023-12-20T10:49:37Z</time>
      </trkpt>
      <trkpt lat="48.8574" lon="1.86854">
        <ele>69.2</ele>
        <time>2023-12-20T10:49:38Z</time>
      </trkpt>
      <trkpt lat="48.85742" lon="1.86849">
        <ele>68.8</ele>
        <time>2023-12-20T10:49:39Z</time>
      </trkpt>
      <trkpt lat="48.85744" lon="1.86844">
        <ele>68.8</ele>
        <time>2023-12-20T10:49:40Z</time>
      </trkpt>
      <trkpt lat="48.85745" lon="1.86839">
        <ele>68.8</ele>
        <time>2023-12-20T10:49:41Z</time>
      </trkpt>
      <trkpt lat="48.85747" lon="1.86834">
        <ele>69.6</ele>
        <time>2023-12-20T10:49:42Z</time>
      </trkpt>
      <trkpt lat="48.85749" lon="1.86829">
        <ele>70.2</ele>
        <time>2023-12-20T10:49:43Z</time>
      </trkpt>
      <trkpt lat="48.85751" lon="1.86823">
        <ele>70.2</ele>
        <time>2023-12-20T10:49:44Z</time>
      </trkpt>
      <trkpt lat="48.85753" lon="1.86818">
        <ele>70.2</ele>
        <time>2023-12-20T10:49:45Z</time>
      </trkpt>
      <trkpt lat="48.85755" lon="1.86813">
        <ele>70.2</ele>
        <time>2023-12-20T10:49:46Z</time>
      </trkpt>
      <trkpt lat="48.85757" lon="1.86808">
        <ele>70.2</ele>
        <time>2023-12-20T10:49:47Z</time>
      </trkpt>
      <trkpt lat="48.85758" lon="1.86803">
        <ele>70.2</ele>
        <time>2023-12-20T10:49:48Z</time>
      </trkpt>
      <trkpt lat="48.8576" lon="1.86798">
        <ele>70.2</ele>
        <time>2023-12-20T10:49:49Z</time>
      </trkpt>
      <trkpt lat="48.85762" lon="1.86793">
        <ele>70.8</ele>
        <time>2023-12-20T10:49:50Z</time>
      </trkpt>
      <trkpt lat="48.85763" lon="1.86789">
        <ele>71</ele>
        <time>2023-12-20T10:49:51Z</time>
      </trkpt>
      <trkpt lat="48.85765" lon="1.86784">
        <ele>71</ele>
        <time>2023-12-20T10:49:52Z</time>
      </trkpt>
      <trkpt lat="48.85767" lon="1.8678">
        <ele>71</ele>
        <time>2023-12-20T10:49:53Z</time>
      </trkpt>
      <trkpt lat="48.85769" lon="1.86776">
        <ele>71</ele>
        <time>2023-12-20T10:49:54Z</time>
      </trkpt>
      <trkpt lat="48.8577" lon="1.86771">
        <ele>71.8</ele>
        <time>2023-12-20T10:49:55Z</time>
      </trkpt>
      <trkpt lat="48.85772" lon="1.86767">
        <ele>71.8</ele>
        <time>2023-12-20T10:49:56Z</time>
      </trkpt>
      <trkpt lat="48.85773" lon="1.86762">
        <ele>71.8</ele>
        <time>2023-12-20T10:49:57Z</time>
      </trkpt>
      <trkpt lat="48.85775" lon="1.86758">
        <ele>71.8</ele>
        <time>2023-12-20T10:49:58Z</time>
      </trkpt>
      <trkpt lat="48.85776" lon="1.86753">
        <ele>72</ele>
        <time>2023-12-20T10:49:59Z</time>
      </trkpt>
      <trkpt lat="48.85778" lon="1.86748">
        <ele>72</ele>
        <time>2023-12-20T10:50:00Z</time>
      </trkpt>
      <trkpt lat="48.8578" lon="1.86744">
        <ele>72</ele>
        <time>2023-12-20T10:50:01Z</time>
      </trkpt>
      <trkpt lat="48.85782" lon="1.86739">
        <ele>72.6</ele>
        <time>2023-12-20T10:50:02Z</time>
      </trkpt>
      <trkpt lat="48.85783" lon="1.86735">
        <ele>72.6</ele>
        <time>2023-12-20T10:50:03Z</time>
      </trkpt>
      <trkpt lat="48.85785" lon="1.8673">
        <ele>72.6</ele>
        <time>2023-12-20T10:50:04Z</time>
      </trkpt>
      <trkpt lat="48.85787" lon="1.86726">
        <ele>72.6</ele>
        <time>2023-12-20T10:50:05Z</time>
      </trkpt>
      <trkpt lat="48.85788" lon="1.86722">
        <ele>72.6</ele>
        <time>2023-12-20T10:50:06Z</time>
      </trkpt>
      <trkpt lat="48.8579" lon="1.86719">
        <ele>73.2</ele>
        <time>2023-12-20T10:50:07Z</time>
      </trkpt>
      <trkpt lat="48.85791" lon="1.86715">
        <ele>73.2</ele>
        <time>2023-12-20T10:50:08Z</time>
      </trkpt>
      <trkpt lat="48.85792" lon="1.86711">
        <ele>73.2</ele>
        <time>2023-12-20T10:50:09Z</time>
      </trkpt>
      <trkpt lat="48.85794" lon="1.86706">
        <ele>73.2</ele>
        <time>2023-12-20T10:50:10Z</time>
      </trkpt>
      <trkpt lat="48.85796" lon="1.86702">
        <ele>73.4</ele>
        <time>2023-12-20T10:50:11Z</time>
      </trkpt>
      <trkpt lat="48.85797" lon="1.86697">
        <ele>73.4</ele>
        <time>2023-12-20T10:50:12Z</time>
      </trkpt>
      <trkpt lat="48.85799" lon="1.86692">
        <ele>73.4</ele>
        <time>2023-12-20T10:50:13Z</time>
      </trkpt>
      <trkpt lat="48.858" lon="1.86688">
        <ele>73.4</ele>
        <time>2023-12-20T10:50:14Z</time>
      </trkpt>
      <trkpt lat="48.85802" lon="1.86683">
        <ele>73.6</ele>
        <time>2023-12-20T10:50:15Z</time>
      </trkpt>
      <trkpt lat="48.85804" lon="1.86678">
        <ele>73.6</ele>
        <time>2023-12-20T10:50:16Z</time>
      </trkpt>
      <trkpt lat="48.85805" lon="1.86673">
        <ele>73.6</ele>
        <time>2023-12-20T10:50:17Z</time>
      </trkpt>
      <trkpt lat="48.85806" lon="1.86668">
        <ele>74.2</ele>
        <time>2023-12-20T10:50:18Z</time>
      </trkpt>
      <trkpt lat="48.85808" lon="1.86663">
        <ele>73.8</ele>
        <time>2023-12-20T10:50:19Z</time>
      </trkpt>
      <trkpt lat="48.85809" lon="1.86658">
        <ele>73.8</ele>
        <time>2023-12-20T10:50:20Z</time>
      </trkpt>
      <trkpt lat="48.8581" lon="1.86653">
        <ele>73.8</ele>
        <time>2023-12-20T10:50:21Z</time>
      </trkpt>
      <trkpt lat="48.85812" lon="1.86648">
        <ele>74.4</ele>
        <time>2023-12-20T10:50:22Z</time>
      </trkpt>
      <trkpt lat="48.85813" lon="1.86642">
        <ele>75</ele>
        <time>2023-12-20T10:50:23Z</time>
      </trkpt>
      <trkpt lat="48.85814" lon="1.86637">
        <ele>75</ele>
        <time>2023-12-20T10:50:24Z</time>
      </trkpt>
      <trkpt lat="48.85815" lon="1.86632">
        <ele>75</ele>
        <time>2023-12-20T10:50:25Z</time>
      </trkpt>
      <trkpt lat="48.85817" lon="1.86627">
        <ele>75</ele>
        <time>2023-12-20T10:50:26Z</time>
      </trkpt>
      <trkpt lat="48.85818" lon="1.86622">
        <ele>75</ele>
        <time>2023-12-20T10:50:27Z</time>
      </trkpt>
      <trkpt lat="48.85819" lon="1.86617">
        <ele>75</ele>
        <time>2023-12-20T10:50:28Z</time>
      </trkpt>
      <trkpt lat="48.8582" lon="1.86612">
        <ele>75</ele>
        <time>2023-12-20T10:50:29Z</time>
      </trkpt>
      <trkpt lat="48.85821" lon="1.86607">
        <ele>75.6</ele>
        <time>2023-12-20T10:50:30Z</time>
      </trkpt>
      <trkpt lat="48.85822" lon="1.86602">
        <ele>76</ele>
        <time>2023-12-20T10:50:31Z</time>
      </trkpt>
      <trkpt lat="48.85823" lon="1.86597">
        <ele>76</ele>
        <time>2023-12-20T10:50:32Z</time>
      </trkpt>
      <trkpt lat="48.85824" lon="1.86592">
        <ele>76</ele>
        <time>2023-12-20T10:50:33Z</time>
      </trkpt>
      <trkpt lat="48.85825" lon="1.86587">
        <ele>76</ele>
        <time>2023-12-20T10:50:34Z</time>
      </trkpt>
      <trkpt lat="48.85826" lon="1.86582">
        <ele>76.4</ele>
        <time>2023-12-20T10:50:35Z</time>
      </trkpt>
      <trkpt lat="48.85827" lon="1.86576">
        <ele>76.4</ele>
        <time>2023-12-20T10:50:36Z</time>
      </trkpt>
      <trkpt lat="48.85828" lon="1.86571">
        <ele>76.4</ele>
        <time>2023-12-20T10:50:37Z</time>
      </trkpt>
      <trkpt lat="48.85829" lon="1.86566">
        <ele>76.4</ele>
        <time>2023-12-20T10:50:38Z</time>
      </trkpt>
      <trkpt lat="48.8583" lon="1.86561">
        <ele>76.8</ele>
        <time>2023-12-20T10:50:39Z</time>
      </trkpt>
      <trkpt lat="48.8583" lon="1.86556">
        <ele>76.8</ele>
        <time>2023-12-20T10:50:40Z</time>
      </trkpt>
      <trkpt lat="48.85831" lon="1.86551">
        <ele>76.8</ele>
        <time>2023-12-20T10:50:41Z</time>
      </trkpt>
      <trkpt lat="48.85832" lon="1.86546">
        <ele>76.8</ele>
        <time>2023-12-20T10:50:42Z</time>
      </trkpt>
      <trkpt lat="48.85832" lon="1.8654">
        <ele>76.8</ele>
        <time>2023-12-20T10:50:43Z</time>
      </trkpt>
      <trkpt lat="48.85833" lon="1.86535">
        <ele>76.8</ele>
        <time>2023-12-20T10:50:44Z</time>
      </trkpt>
      <trkpt lat="48.85833" lon="1.8653">
        <ele>76.8</ele>
        <time>2023-12-20T10:50:45Z</time>
      </trkpt>
      <trkpt lat="48.85834" lon="1.86525">
        <ele>77.8</ele>
        <time>2023-12-20T10:50:46Z</time>
      </trkpt>
      <trkpt lat="48.85835" lon="1.8652">
        <ele>77.8</ele>
        <time>2023-12-20T10:50:47Z</time>
      </trkpt>
      <trkpt lat="48.85835" lon="1.86515">
        <ele>77.8</ele>
        <time>2023-12-20T10:50:48Z</time>
      </trkpt>
      <trkpt lat="48.85836" lon="1.8651">
        <ele>77.8</ele>
        <time>2023-12-20T10:50:49Z</time>
      </trkpt>
      <trkpt lat="48.85837" lon="1.86504">
        <ele>77.8</ele>
        <time>2023-12-20T10:50:50Z</time>
      </trkpt>
      <trkpt lat="48.85838" lon="1.86499">
        <ele>78.2</ele>
        <time>2023-12-20T10:50:51Z</time>
      </trkpt>
      <trkpt lat="48.85838" lon="1.86494">
        <ele>78.2</ele>
        <time>2023-12-20T10:50:52Z</time>
      </trkpt>
      <trkpt lat="48.85839" lon="1.86489">
        <ele>78.2</ele>
        <time>2023-12-20T10:50:53Z</time>
      </trkpt>
      <trkpt lat="48.85839" lon="1.86484">
        <ele>78.2</ele>
        <time>2023-12-20T10:50:54Z</time>
      </trkpt>
      <trkpt lat="48.8584" lon="1.86479">
        <ele>78.6</ele>
        <time>2023-12-20T10:50:55Z</time>
      </trkpt>
      <trkpt lat="48.85841" lon="1.86474">
        <ele>78.6</ele>
        <time>2023-12-20T10:50:56Z</time>
      </trkpt>
      <trkpt lat="48.85841" lon="1.86469">
        <ele>78.6</ele>
        <time>2023-12-20T10:50:57Z</time>
      </trkpt>
      <trkpt lat="48.85841" lon="1.86464">
        <ele>78.6</ele>
        <time>2023-12-20T10:50:58Z</time>
      </trkpt>
      <trkpt lat="48.85842" lon="1.86458">
        <ele>79</ele>
        <time>2023-12-20T10:50:59Z</time>
      </trkpt>
      <trkpt lat="48.85842" lon="1.86453">
        <ele>79</ele>
        <time>2023-12-20T10:51:00Z</time>
      </trkpt>
      <trkpt lat="48.85842" lon="1.86448">
        <ele>79</ele>
        <time>2023-12-20T10:51:01Z</time>
      </trkpt>
      <trkpt lat="48.85842" lon="1.86443">
        <ele>79.8</ele>
        <time>2023-12-20T10:51:02Z</time>
      </trkpt>
      <trkpt lat="48.85842" lon="1.86438">
        <ele>79.6</ele>
        <time>2023-12-20T10:51:03Z</time>
      </trkpt>
      <trkpt lat="48.85843" lon="1.86432">
        <ele>79.6</ele>
        <time>2023-12-20T10:51:04Z</time>
      </trkpt>
      <trkpt lat="48.85843" lon="1.86427">
        <ele>79.6</ele>
        <time>2023-12-20T10:51:05Z</time>
      </trkpt>
      <trkpt lat="48.85843" lon="1.86421">
        <ele>80.2</ele>
        <time>2023-12-20T10:51:06Z</time>
      </trkpt>
      <trkpt lat="48.85843" lon="1.86416">
        <ele>80.2</ele>
        <time>2023-12-20T10:51:07Z</time>
      </trkpt>
      <trkpt lat="48.85844" lon="1.8641">
        <ele>80.2</ele>
        <time>2023-12-20T10:51:08Z</time>
      </trkpt>
      <trkpt lat="48.85844" lon="1.86405">
        <ele>80.2</ele>
        <time>2023-12-20T10:51:09Z</time>
      </trkpt>
      <trkpt lat="48.85844" lon="1.86399">
        <ele>80.2</ele>
        <time>2023-12-20T10:51:10Z</time>
      </trkpt>
      <trkpt lat="48.85844" lon="1.86394">
        <ele>80.4</ele>
        <time>2023-12-20T10:51:11Z</time>
      </trkpt>
      <trkpt lat="48.85844" lon="1.86388">
        <ele>80.4</ele>
        <time>2023-12-20T10:51:12Z</time>
      </trkpt>
      <trkpt lat="48.85844" lon="1.86382">
        <ele>80.4</ele>
        <time>2023-12-20T10:51:13Z</time>
      </trkpt>
      <trkpt lat="48.85844" lon="1.86377">
        <ele>81</ele>
        <time>2023-12-20T10:51:14Z</time>
      </trkpt>
      <trkpt lat="48.85844" lon="1.86371">
        <ele>81.4</ele>
        <time>2023-12-20T10:51:15Z</time>
      </trkpt>
      <trkpt lat="48.85844" lon="1.86366">
        <ele>81.4</ele>
        <time>2023-12-20T10:51:16Z</time>
      </trkpt>
      <trkpt lat="48.85844" lon="1.86361">
        <ele>81.4</ele>
        <time>2023-12-20T10:51:17Z</time>
      </trkpt>
      <trkpt lat="48.85844" lon="1.86355">
        <ele>81.4</ele>
        <time>2023-12-20T10:51:18Z</time>
      </trkpt>
      <trkpt lat="48.85844" lon="1.8635">
        <ele>81.6</ele>
        <time>2023-12-20T10:51:19Z</time>
      </trkpt>
      <trkpt lat="48.85844" lon="1.86344">
        <ele>81.6</ele>
        <time>2023-12-20T10:51:20Z</time>
      </trkpt>
      <trkpt lat="48.85844" lon="1.86339">
        <ele>81.6</ele>
        <time>2023-12-20T10:51:21Z</time>
      </trkpt>
      <trkpt lat="48.85844" lon="1.86334">
        <ele>82.2</ele>
        <time>2023-12-20T10:51:22Z</time>
      </trkpt>
      <trkpt lat="48.85844" lon="1.86329">
        <ele>82.2</ele>
        <time>2023-12-20T10:51:23Z</time>
      </trkpt>
      <trkpt lat="48.85843" lon="1.86324">
        <ele>82.2</ele>
        <time>2023-12-20T10:51:24Z</time>
      </trkpt>
      <trkpt lat="48.85843" lon="1.86318">
        <ele>82.2</ele>
        <time>2023-12-20T10:51:25Z</time>
      </trkpt>
      <trkpt lat="48.85843" lon="1.86313">
        <ele>82.8</ele>
        <time>2023-12-20T10:51:26Z</time>
      </trkpt>
      <trkpt lat="48.85843" lon="1.86308">
        <ele>83</ele>
        <time>2023-12-20T10:51:27Z</time>
      </trkpt>
      <trkpt lat="48.85842" lon="1.86303">
        <ele>83</ele>
        <time>2023-12-20T10:51:28Z</time>
      </trkpt>
      <trkpt lat="48.85842" lon="1.86298">
        <ele>83</ele>
        <time>2023-12-20T10:51:29Z</time>
      </trkpt>
      <trkpt lat="48.85842" lon="1.86293">
        <ele>83.4</ele>
        <time>2023-12-20T10:51:30Z</time>
      </trkpt>
      <trkpt lat="48.85841" lon="1.86287">
        <ele>83.2</ele>
        <time>2023-12-20T10:51:31Z</time>
      </trkpt>
      <trkpt lat="48.85841" lon="1.86282">
        <ele>83.2</ele>
        <time>2023-12-20T10:51:32Z</time>
      </trkpt>
      <trkpt lat="48.8584" lon="1.86277">
        <ele>83.2</ele>
        <time>2023-12-20T10:51:33Z</time>
      </trkpt>
      <trkpt lat="48.8584" lon="1.86272">
        <ele>83.6</ele>
        <time>2023-12-20T10:51:34Z</time>
      </trkpt>
      <trkpt lat="48.8584" lon="1.86267">
        <ele>83.6</ele>
        <time>2023-12-20T10:51:35Z</time>
      </trkpt>
      <trkpt lat="48.85839" lon="1.86262">
        <ele>83.6</ele>
        <time>2023-12-20T10:51:36Z</time>
      </trkpt>
      <trkpt lat="48.85839" lon="1.86257">
        <ele>83.6</ele>
        <time>2023-12-20T10:51:37Z</time>
      </trkpt>
      <trkpt lat="48.85838" lon="1.86252">
        <ele>84.2</ele>
        <time>2023-12-20T10:51:38Z</time>
      </trkpt>
      <trkpt lat="48.85838" lon="1.86246">
        <ele>84.2</ele>
        <time>2023-12-20T10:51:39Z</time>
      </trkpt>
      <trkpt lat="48.85838" lon="1.86241">
        <ele>84.2</ele>
        <time>2023-12-20T10:51:40Z</time>
      </trkpt>
      <trkpt lat="48.85837" lon="1.86236">
        <ele>84.2</ele>
        <time>2023-12-20T10:51:41Z</time>
      </trkpt>
      <trkpt lat="48.85837" lon="1.8623">
        <ele>84.2</ele>
        <time>2023-12-20T10:51:42Z</time>
      </trkpt>
      <trkpt lat="48.85836" lon="1.86225">
        <ele>84.2</ele>
        <time>2023-12-20T10:51:43Z</time>
      </trkpt>
      <trkpt lat="48.85836" lon="1.86219">
        <ele>84.2</ele>
        <time>2023-12-20T10:51:44Z</time>
      </trkpt>
      <trkpt lat="48.85835" lon="1.86213">
        <ele>84.2</ele>
        <time>2023-12-20T10:51:45Z</time>
      </trkpt>
      <trkpt lat="48.85835" lon="1.86208">
        <ele>84.2</ele>
        <time>2023-12-20T10:51:46Z</time>
      </trkpt>
      <trkpt lat="48.85834" lon="1.86202">
        <ele>84.8</ele>
        <time>2023-12-20T10:51:47Z</time>
      </trkpt>
      <trkpt lat="48.85834" lon="1.86197">
        <ele>84.8</ele>
        <time>2023-12-20T10:51:48Z</time>
      </trkpt>
      <trkpt lat="48.85833" lon="1.86192">
        <ele>84.8</ele>
        <time>2023-12-20T10:51:49Z</time>
      </trkpt>
      <trkpt lat="48.85832" lon="1.86186">
        <ele>84.8</ele>
        <time>2023-12-20T10:51:50Z</time>
      </trkpt>
      <trkpt lat="48.85832" lon="1.86181">
        <ele>85</ele>
        <time>2023-12-20T10:51:51Z</time>
      </trkpt>
      <trkpt lat="48.85831" lon="1.86176">
        <ele>85</ele>
        <time>2023-12-20T10:51:52Z</time>
      </trkpt>
      <trkpt lat="48.85831" lon="1.86171">
        <ele>85</ele>
        <time>2023-12-20T10:51:53Z</time>
      </trkpt>
      <trkpt lat="48.8583" lon="1.86166">
        <ele>85</ele>
        <time>2023-12-20T10:51:54Z</time>
      </trkpt>
      <trkpt lat="48.8583" lon="1.8616">
        <ele>85.2</ele>
        <time>2023-12-20T10:51:55Z</time>
      </trkpt>
      <trkpt lat="48.85829" lon="1.86155">
        <ele>85.2</ele>
        <time>2023-12-20T10:51:56Z</time>
      </trkpt>
      <trkpt lat="48.85828" lon="1.8615">
        <ele>85.2</ele>
        <time>2023-12-20T10:51:57Z</time>
      </trkpt>
      <trkpt lat="48.85827" lon="1.86145">
        <ele>85.6</ele>
        <time>2023-12-20T10:51:58Z</time>
      </trkpt>
      <trkpt lat="48.85827" lon="1.8614">
        <ele>85.6</ele>
        <time>2023-12-20T10:51:59Z</time>
      </trkpt>
      <trkpt lat="48.85826" lon="1.86135">
        <ele>85.6</ele>
        <time>2023-12-20T10:52:00Z</time>
      </trkpt>
      <trkpt lat="48.85826" lon="1.86129">
        <ele>85.6</ele>
        <time>2023-12-20T10:52:01Z</time>
      </trkpt>
      <trkpt lat="48.85825" lon="1.86124">
        <ele>86.2</ele>
        <time>2023-12-20T10:52:02Z</time>
      </trkpt>
      <trkpt lat="48.85824" lon="1.86119">
        <ele>86.2</ele>
        <time>2023-12-20T10:52:03Z</time>
      </trkpt>
      <trkpt lat="48.85823" lon="1.86114">
        <ele>86.2</ele>
        <time>2023-12-20T10:52:04Z</time>
      </trkpt>
      <trkpt lat="48.85823" lon="1.86108">
        <ele>86.2</ele>
        <time>2023-12-20T10:52:05Z</time>
      </trkpt>
      <trkpt lat="48.85822" lon="1.86103">
        <ele>86.8</ele>
        <time>2023-12-20T10:52:06Z</time>
      </trkpt>
      <trkpt lat="48.85822" lon="1.86098">
        <ele>86.8</ele>
        <time>2023-12-20T10:52:07Z</time>
      </trkpt>
      <trkpt lat="48.85821" lon="1.86093">
        <ele>86.8</ele>
        <time>2023-12-20T10:52:08Z</time>
      </trkpt>
      <trkpt lat="48.85821" lon="1.86088">
        <ele>86.8</ele>
        <time>2023-12-20T10:52:09Z</time>
      </trkpt>
      <trkpt lat="48.85821" lon="1.86083">
        <ele>86.8</ele>
        <time>2023-12-20T10:52:10Z</time>
      </trkpt>
      <trkpt lat="48.8582" lon="1.86077">
        <ele>86.8</ele>
        <time>2023-12-20T10:52:11Z</time>
      </trkpt>
      <trkpt lat="48.8582" lon="1.86072">
        <ele>86.8</ele>
        <time>2023-12-20T10:52:12Z</time>
      </trkpt>
      <trkpt lat="48.85819" lon="1.86066">
        <ele>86.8</ele>
        <time>2023-12-20T10:52:13Z</time>
      </trkpt>
      <trkpt lat="48.85819" lon="1.86061">
        <ele>87.2</ele>
        <time>2023-12-20T10:52:14Z</time>
      </trkpt>
      <trkpt lat="48.85818" lon="1.86056">
        <ele>87.2</ele>
        <time>2023-12-20T10:52:15Z</time>
      </trkpt>
      <trkpt lat="48.85817" lon="1.86051">
        <ele>87.2</ele>
        <time>2023-12-20T10:52:16Z</time>
      </trkpt>
      <trkpt lat="48.85817" lon="1.86045">
        <ele>87.2</ele>
        <time>2023-12-20T10:52:17Z</time>
      </trkpt>
      <trkpt lat="48.85816" lon="1.8604">
        <ele>87.2</ele>
        <time>2023-12-20T10:52:18Z</time>
      </trkpt>
      <trkpt lat="48.85816" lon="1.86035">
        <ele>87.6</ele>
        <time>2023-12-20T10:52:19Z</time>
      </trkpt>
      <trkpt lat="48.85815" lon="1.86029">
        <ele>87.6</ele>
        <time>2023-12-20T10:52:20Z</time>
      </trkpt>
      <trkpt lat="48.85815" lon="1.86024">
        <ele>87.6</ele>
        <time>2023-12-20T10:52:21Z</time>
      </trkpt>
      <trkpt lat="48.85814" lon="1.86018">
        <ele>87.6</ele>
        <time>2023-12-20T10:52:22Z</time>
      </trkpt>
      <trkpt lat="48.85814" lon="1.86013">
        <ele>87.4</ele>
        <time>2023-12-20T10:52:23Z</time>
      </trkpt>
      <trkpt lat="48.85814" lon="1.86007">
        <ele>87.4</ele>
        <time>2023-12-20T10:52:24Z</time>
      </trkpt>
      <trkpt lat="48.85813" lon="1.86002">
        <ele>87.4</ele>
        <time>2023-12-20T10:52:25Z</time>
      </trkpt>
      <trkpt lat="48.85813" lon="1.85996">
        <ele>87.8</ele>
        <time>2023-12-20T10:52:26Z</time>
      </trkpt>
      <trkpt lat="48.85813" lon="1.85991">
        <ele>88</ele>
        <time>2023-12-20T10:52:27Z</time>
      </trkpt>
      <trkpt lat="48.85813" lon="1.85985">
        <ele>88</ele>
        <time>2023-12-20T10:52:28Z</time>
      </trkpt>
      <trkpt lat="48.85813" lon="1.8598">
        <ele>88</ele>
        <time>2023-12-20T10:52:29Z</time>
      </trkpt>
      <trkpt lat="48.85813" lon="1.85975">
        <ele>88</ele>
        <time>2023-12-20T10:52:30Z</time>
      </trkpt>
      <trkpt lat="48.85813" lon="1.85969">
        <ele>88.2</ele>
        <time>2023-12-20T10:52:31Z</time>
      </trkpt>
      <trkpt lat="48.85813" lon="1.85964">
        <ele>88.2</ele>
        <time>2023-12-20T10:52:32Z</time>
      </trkpt>
      <trkpt lat="48.85813" lon="1.85959">
        <ele>88.2</ele>
        <time>2023-12-20T10:52:33Z</time>
      </trkpt>
      <trkpt lat="48.85813" lon="1.85953">
        <ele>88.8</ele>
        <time>2023-12-20T10:52:34Z</time>
      </trkpt>
      <trkpt lat="48.85813" lon="1.85947">
        <ele>88.4</ele>
        <time>2023-12-20T10:52:35Z</time>
      </trkpt>
      <trkpt lat="48.85814" lon="1.85942">
        <ele>88.4</ele>
        <time>2023-12-20T10:52:36Z</time>
      </trkpt>
      <trkpt lat="48.85814" lon="1.85936">
        <ele>88.4</ele>
        <time>2023-12-20T10:52:37Z</time>
      </trkpt>
      <trkpt lat="48.85814" lon="1.85931">
        <ele>88.4</ele>
        <time>2023-12-20T10:52:38Z</time>
      </trkpt>
      <trkpt lat="48.85815" lon="1.85925">
        <ele>88.6</ele>
        <time>2023-12-20T10:52:39Z</time>
      </trkpt>
      <trkpt lat="48.85815" lon="1.85919">
        <ele>88.6</ele>
        <time>2023-12-20T10:52:40Z</time>
      </trkpt>
      <trkpt lat="48.85816" lon="1.85914">
        <ele>88.6</ele>
        <time>2023-12-20T10:52:41Z</time>
      </trkpt>
      <trkpt lat="48.85816" lon="1.85909">
        <ele>88.6</ele>
        <time>2023-12-20T10:52:42Z</time>
      </trkpt>
      <trkpt lat="48.85817" lon="1.85903">
        <ele>88.2</ele>
        <time>2023-12-20T10:52:43Z</time>
      </trkpt>
      <trkpt lat="48.85818" lon="1.85898">
        <ele>88.2</ele>
        <time>2023-12-20T10:52:44Z</time>
      </trkpt>
      <trkpt lat="48.85819" lon="1.85893">
        <ele>88.2</ele>
        <time>2023-12-20T10:52:45Z</time>
      </trkpt>
      <trkpt lat="48.85819" lon="1.85887">
        <ele>88.8</ele>
        <time>2023-12-20T10:52:46Z</time>
      </trkpt>
      <trkpt lat="48.8582" lon="1.85882">
        <ele>89.2</ele>
        <time>2023-12-20T10:52:47Z</time>
      </trkpt>
      <trkpt lat="48.85821" lon="1.85877">
        <ele>89.2</ele>
        <time>2023-12-20T10:52:48Z</time>
      </trkpt>
      <trkpt lat="48.85821" lon="1.85871">
        <ele>89.2</ele>
        <time>2023-12-20T10:52:49Z</time>
      </trkpt>
      <trkpt lat="48.85822" lon="1.85866">
        <ele>89.2</ele>
        <time>2023-12-20T10:52:50Z</time>
      </trkpt>
      <trkpt lat="48.85823" lon="1.85861">
        <ele>89.2</ele>
        <time>2023-12-20T10:52:51Z</time>
      </trkpt>
      <trkpt lat="48.85823" lon="1.85855">
        <ele>89.2</ele>
        <time>2023-12-20T10:52:52Z</time>
      </trkpt>
      <trkpt lat="48.85824" lon="1.8585">
        <ele>89.2</ele>
        <time>2023-12-20T10:52:53Z</time>
      </trkpt>
      <trkpt lat="48.85825" lon="1.85844">
        <ele>89.8</ele>
        <time>2023-12-20T10:52:54Z</time>
      </trkpt>
      <trkpt lat="48.85825" lon="1.85839">
        <ele>89.6</ele>
        <time>2023-12-20T10:52:55Z</time>
      </trkpt>
      <trkpt lat="48.85826" lon="1.85834">
        <ele>89.6</ele>
        <time>2023-12-20T10:52:56Z</time>
      </trkpt>
      <trkpt lat="48.85826" lon="1.85829">
        <ele>89.6</ele>
        <time>2023-12-20T10:52:57Z</time>
      </trkpt>
      <trkpt lat="48.85827" lon="1.85823">
        <ele>89.6</ele>
        <time>2023-12-20T10:52:58Z</time>
      </trkpt>
      <trkpt lat="48.85828" lon="1.85818">
        <ele>89.8</ele>
        <time>2023-12-20T10:52:59Z</time>
      </trkpt>
      <trkpt lat="48.85829" lon="1.85812">
        <ele>89.8</ele>
        <time>2023-12-20T10:53:00Z</time>
      </trkpt>
      <trkpt lat="48.85829" lon="1.85807">
        <ele>89.8</ele>
        <time>2023-12-20T10:53:01Z</time>
      </trkpt>
      <trkpt lat="48.8583" lon="1.85802">
        <ele>90.4</ele>
        <time>2023-12-20T10:53:02Z</time>
      </trkpt>
      <trkpt lat="48.8583" lon="1.85796">
        <ele>90.4</ele>
        <time>2023-12-20T10:53:03Z</time>
      </trkpt>
      <trkpt lat="48.85831" lon="1.8579">
        <ele>90.4</ele>
        <time>2023-12-20T10:53:04Z</time>
      </trkpt>
      <trkpt lat="48.85831" lon="1.85784">
        <ele>90.4</ele>
        <time>2023-12-20T10:53:05Z</time>
      </trkpt>
      <trkpt lat="48.85831" lon="1.85779">
        <ele>90.4</ele>
        <time>2023-12-20T10:53:06Z</time>
      </trkpt>
      <trkpt lat="48.85832" lon="1.85773">
        <ele>90.6</ele>
        <time>2023-12-20T10:53:07Z</time>
      </trkpt>
      <trkpt lat="48.85832" lon="1.85768">
        <ele>90.6</ele>
        <time>2023-12-20T10:53:08Z</time>
      </trkpt>
      <trkpt lat="48.85833" lon="1.85763">
        <ele>90.6</ele>
        <time>2023-12-20T10:53:09Z</time>
      </trkpt>
      <trkpt lat="48.85834" lon="1.85758">
        <ele>90.8</ele>
        <time>2023-12-20T10:53:10Z</time>
      </trkpt>
      <trkpt lat="48.85835" lon="1.85752">
        <ele>90.8</ele>
        <time>2023-12-20T10:53:11Z</time>
      </trkpt>
      <trkpt lat="48.85835" lon="1.85747">
        <ele>90.8</ele>
        <time>2023-12-20T10:53:12Z</time>
      </trkpt>
      <trkpt lat="48.85836" lon="1.85742">
        <ele>90.8</ele>
        <time>2023-12-20T10:53:13Z</time>
      </trkpt>
      <trkpt lat="48.85836" lon="1.85737">
        <ele>90.8</ele>
        <time>2023-12-20T10:53:14Z</time>
      </trkpt>
      <trkpt lat="48.85836" lon="1.85731">
        <ele>90.6</ele>
        <time>2023-12-20T10:53:15Z</time>
      </trkpt>
      <trkpt lat="48.85837" lon="1.85726">
        <ele>90.6</ele>
        <time>2023-12-20T10:53:16Z</time>
      </trkpt>
      <trkpt lat="48.85838" lon="1.8572">
        <ele>90.6</ele>
        <time>2023-12-20T10:53:17Z</time>
      </trkpt>
      <trkpt lat="48.85838" lon="1.85715">
        <ele>91.2</ele>
        <time>2023-12-20T10:53:18Z</time>
      </trkpt>
      <trkpt lat="48.85838" lon="1.85711">
        <ele>90.8</ele>
        <time>2023-12-20T10:53:19Z</time>
      </trkpt>
      <trkpt lat="48.85839" lon="1.85705">
        <ele>90.8</ele>
        <time>2023-12-20T10:53:20Z</time>
      </trkpt>
      <trkpt lat="48.8584" lon="1.857">
        <ele>90.8</ele>
        <time>2023-12-20T10:53:21Z</time>
      </trkpt>
      <trkpt lat="48.8584" lon="1.85695">
        <ele>91.8</ele>
        <time>2023-12-20T10:53:22Z</time>
      </trkpt>
      <trkpt lat="48.8584" lon="1.85689">
        <ele>91.6</ele>
        <time>2023-12-20T10:53:23Z</time>
      </trkpt>
      <trkpt lat="48.85841" lon="1.85684">
        <ele>91.6</ele>
        <time>2023-12-20T10:53:24Z</time>
      </trkpt>
      <trkpt lat="48.85841" lon="1.85678">
        <ele>91.6</ele>
        <time>2023-12-20T10:53:25Z</time>
      </trkpt>
      <trkpt lat="48.85842" lon="1.85674">
        <ele>92</ele>
        <time>2023-12-20T10:53:26Z</time>
      </trkpt>
      <trkpt lat="48.85842" lon="1.85668">
        <ele>91.8</ele>
        <time>2023-12-20T10:53:27Z</time>
      </trkpt>
      <trkpt lat="48.85843" lon="1.85663">
        <ele>91.8</ele>
        <time>2023-12-20T10:53:28Z</time>
      </trkpt>
      <trkpt lat="48.85843" lon="1.85657">
        <ele>91.8</ele>
        <time>2023-12-20T10:53:29Z</time>
      </trkpt>
      <trkpt lat="48.85843" lon="1.85652">
        <ele>92.6</ele>
        <time>2023-12-20T10:53:30Z</time>
      </trkpt>
      <trkpt lat="48.85844" lon="1.85646">
        <ele>92.6</ele>
        <time>2023-12-20T10:53:31Z</time>
      </trkpt>
      <trkpt lat="48.85844" lon="1.8564">
        <ele>92.6</ele>
        <time>2023-12-20T10:53:32Z</time>
      </trkpt>
      <trkpt lat="48.85844" lon="1.85634">
        <ele>92.6</ele>
        <time>2023-12-20T10:53:33Z</time>
      </trkpt>
      <trkpt lat="48.85845" lon="1.85629">
        <ele>93</ele>
        <time>2023-12-20T10:53:34Z</time>
      </trkpt>
      <trkpt lat="48.85845" lon="1.85623">
        <ele>92.8</ele>
        <time>2023-12-20T10:53:35Z</time>
      </trkpt>
      <trkpt lat="48.85845" lon="1.85618">
        <ele>92.8</ele>
        <time>2023-12-20T10:53:36Z</time>
      </trkpt>
      <trkpt lat="48.85845" lon="1.85612">
        <ele>92.8</ele>
        <time>2023-12-20T10:53:37Z</time>
      </trkpt>
      <trkpt lat="48.85845" lon="1.85606">
        <ele>92.8</ele>
        <time>2023-12-20T10:53:38Z</time>
      </trkpt>
      <trkpt lat="48.85845" lon="1.85601">
        <ele>92.8</ele>
        <time>2023-12-20T10:53:39Z</time>
      </trkpt>
      <trkpt lat="48.85845" lon="1.85595">
        <ele>92.8</ele>
        <time>2023-12-20T10:53:40Z</time>
      </trkpt>
      <trkpt lat="48.85845" lon="1.8559">
        <ele>92.8</ele>
        <time>2023-12-20T10:53:41Z</time>
      </trkpt>
      <trkpt lat="48.85845" lon="1.85584">
        <ele>92.8</ele>
        <time>2023-12-20T10:53:42Z</time>
      </trkpt>
      <trkpt lat="48.85844" lon="1.85579">
        <ele>93.2</ele>
        <time>2023-12-20T10:53:43Z</time>
      </trkpt>
      <trkpt lat="48.85844" lon="1.85573">
        <ele>93.2</ele>
        <time>2023-12-20T10:53:44Z</time>
      </trkpt>
      <trkpt lat="48.85843" lon="1.85568">
        <ele>93.2</ele>
        <time>2023-12-20T10:53:45Z</time>
      </trkpt>
      <trkpt lat="48.85843" lon="1.85562">
        <ele>92.8</ele>
        <time>2023-12-20T10:53:46Z</time>
      </trkpt>
      <trkpt lat="48.85842" lon="1.85556">
        <ele>93.4</ele>
        <time>2023-12-20T10:53:47Z</time>
      </trkpt>
      <trkpt lat="48.85842" lon="1.8555">
        <ele>93.4</ele>
        <time>2023-12-20T10:53:48Z</time>
      </trkpt>
      <trkpt lat="48.85841" lon="1.85544">
        <ele>93.4</ele>
        <time>2023-12-20T10:53:49Z</time>
      </trkpt>
      <trkpt lat="48.8584" lon="1.85539">
        <ele>93.4</ele>
        <time>2023-12-20T10:53:50Z</time>
      </trkpt>
      <trkpt lat="48.8584" lon="1.85533">
        <ele>93.4</ele>
        <time>2023-12-20T10:53:51Z</time>
      </trkpt>
      <trkpt lat="48.85839" lon="1.85527">
        <ele>93.4</ele>
        <time>2023-12-20T10:53:52Z</time>
      </trkpt>
      <trkpt lat="48.85838" lon="1.85522">
        <ele>93.4</ele>
        <time>2023-12-20T10:53:53Z</time>
      </trkpt>
      <trkpt lat="48.85837" lon="1.85516">
        <ele>92.8</ele>
        <time>2023-12-20T10:53:54Z</time>
      </trkpt>
      <trkpt lat="48.85837" lon="1.85511">
        <ele>93</ele>
        <time>2023-12-20T10:53:55Z</time>
      </trkpt>
      <trkpt lat="48.85836" lon="1.85505">
        <ele>93</ele>
        <time>2023-12-20T10:53:56Z</time>
      </trkpt>
      <trkpt lat="48.85835" lon="1.855">
        <ele>93</ele>
        <time>2023-12-20T10:53:57Z</time>
      </trkpt>
      <trkpt lat="48.85835" lon="1.85495">
        <ele>93</ele>
        <time>2023-12-20T10:53:58Z</time>
      </trkpt>
      <trkpt lat="48.85834" lon="1.85489">
        <ele>93</ele>
        <time>2023-12-20T10:53:59Z</time>
      </trkpt>
      <trkpt lat="48.85833" lon="1.85483">
        <ele>93</ele>
        <time>2023-12-20T10:54:00Z</time>
      </trkpt>
      <trkpt lat="48.85832" lon="1.85478">
        <ele>93</ele>
        <time>2023-12-20T10:54:01Z</time>
      </trkpt>
      <trkpt lat="48.85831" lon="1.85472">
        <ele>93</ele>
        <time>2023-12-20T10:54:02Z</time>
      </trkpt>
      <trkpt lat="48.8583" lon="1.85466">
        <ele>94.4</ele>
        <time>2023-12-20T10:54:03Z</time>
      </trkpt>
      <trkpt lat="48.85829" lon="1.85461">
        <ele>94.4</ele>
        <time>2023-12-20T10:54:04Z</time>
      </trkpt>
      <trkpt lat="48.85828" lon="1.85455">
        <ele>94.4</ele>
        <time>2023-12-20T10:54:05Z</time>
      </trkpt>
      <trkpt lat="48.85827" lon="1.85449">
        <ele>94.4</ele>
        <time>2023-12-20T10:54:06Z</time>
      </trkpt>
      <trkpt lat="48.85826" lon="1.85444">
        <ele>94.6</ele>
        <time>2023-12-20T10:54:07Z</time>
      </trkpt>
      <trkpt lat="48.85825" lon="1.85438">
        <ele>94.6</ele>
        <time>2023-12-20T10:54:08Z</time>
      </trkpt>
      <trkpt lat="48.85825" lon="1.85432">
        <ele>94.6</ele>
        <time>2023-12-20T10:54:09Z</time>
      </trkpt>
      <trkpt lat="48.85824" lon="1.85426">
        <ele>94.2</ele>
        <time>2023-12-20T10:54:10Z</time>
      </trkpt>
      <trkpt lat="48.85823" lon="1.85421">
        <ele>94.4</ele>
        <time>2023-12-20T10:54:11Z</time>
      </trkpt>
      <trkpt lat="48.85822" lon="1.85415">
        <ele>94.4</ele>
        <time>2023-12-20T10:54:12Z</time>
      </trkpt>
      <trkpt lat="48.85821" lon="1.8541">
        <ele>94.4</ele>
        <time>2023-12-20T10:54:13Z</time>
      </trkpt>
      <trkpt lat="48.8582" lon="1.85404">
        <ele>94.4</ele>
        <time>2023-12-20T10:54:14Z</time>
      </trkpt>
      <trkpt lat="48.85819" lon="1.85398">
        <ele>94.4</ele>
        <time>2023-12-20T10:54:15Z</time>
      </trkpt>
      <trkpt lat="48.85818" lon="1.85393">
        <ele>94.4</ele>
        <time>2023-12-20T10:54:16Z</time>
      </trkpt>
      <trkpt lat="48.85817" lon="1.85387">
        <ele>94.4</ele>
        <time>2023-12-20T10:54:17Z</time>
      </trkpt>
      <trkpt lat="48.85815" lon="1.85382">
        <ele>94.4</ele>
        <time>2023-12-20T10:54:18Z</time>
      </trkpt>
      <trkpt lat="48.85814" lon="1.85376">
        <ele>94.2</ele>
        <time>2023-12-20T10:54:19Z</time>
      </trkpt>
      <trkpt lat="48.85813" lon="1.85371">
        <ele>94.2</ele>
        <time>2023-12-20T10:54:20Z</time>
      </trkpt>
      <trkpt lat="48.85812" lon="1.85365">
        <ele>94.2</ele>
        <time>2023-12-20T10:54:21Z</time>
      </trkpt>
      <trkpt lat="48.8581" lon="1.85359">
        <ele>94.2</ele>
        <time>2023-12-20T10:54:22Z</time>
      </trkpt>
      <trkpt lat="48.85809" lon="1.85354">
        <ele>94.2</ele>
        <time>2023-12-20T10:54:23Z</time>
      </trkpt>
      <trkpt lat="48.85808" lon="1.85348">
        <ele>94.2</ele>
        <time>2023-12-20T10:54:24Z</time>
      </trkpt>
      <trkpt lat="48.85806" lon="1.85342">
        <ele>94.2</ele>
        <time>2023-12-20T10:54:25Z</time>
      </trkpt>
      <trkpt lat="48.85805" lon="1.85337">
        <ele>94.2</ele>
        <time>2023-12-20T10:54:26Z</time>
      </trkpt>
      <trkpt lat="48.85804" lon="1.85331">
        <ele>94.4</ele>
        <time>2023-12-20T10:54:27Z</time>
      </trkpt>
      <trkpt lat="48.85802" lon="1.85325">
        <ele>94.4</ele>
        <time>2023-12-20T10:54:28Z</time>
      </trkpt>
      <trkpt lat="48.85801" lon="1.8532">
        <ele>94.4</ele>
        <time>2023-12-20T10:54:29Z</time>
      </trkpt>
      <trkpt lat="48.85799" lon="1.85314">
        <ele>94.4</ele>
        <time>2023-12-20T10:54:30Z</time>
      </trkpt>
      <trkpt lat="48.85798" lon="1.85307">
        <ele>94.2</ele>
        <time>2023-12-20T10:54:31Z</time>
      </trkpt>
      <trkpt lat="48.85796" lon="1.853">
        <ele>94.2</ele>
        <time>2023-12-20T10:54:32Z</time>
      </trkpt>
      <trkpt lat="48.85794" lon="1.85293">
        <ele>94.2</ele>
        <time>2023-12-20T10:54:33Z</time>
      </trkpt>
      <trkpt lat="48.85792" lon="1.85286">
        <ele>94.2</ele>
        <time>2023-12-20T10:54:34Z</time>
      </trkpt>
      <trkpt lat="48.8579" lon="1.8528">
        <ele>94.6</ele>
        <time>2023-12-20T10:54:35Z</time>
      </trkpt>
      <trkpt lat="48.85788" lon="1.85273">
        <ele>94.6</ele>
        <time>2023-12-20T10:54:36Z</time>
      </trkpt>
      <trkpt lat="48.85787" lon="1.85267">
        <ele>94.6</ele>
        <time>2023-12-20T10:54:37Z</time>
      </trkpt>
      <trkpt lat="48.85785" lon="1.85261">
        <ele>95</ele>
        <time>2023-12-20T10:54:38Z</time>
      </trkpt>
      <trkpt lat="48.85783" lon="1.85255">
        <ele>95</ele>
        <time>2023-12-20T10:54:39Z</time>
      </trkpt>
      <trkpt lat="48.85781" lon="1.85249">
        <ele>95</ele>
        <time>2023-12-20T10:54:40Z</time>
      </trkpt>
      <trkpt lat="48.8578" lon="1.85244">
        <ele>95</ele>
        <time>2023-12-20T10:54:41Z</time>
      </trkpt>
      <trkpt lat="48.85778" lon="1.85238">
        <ele>95</ele>
        <time>2023-12-20T10:54:42Z</time>
      </trkpt>
      <trkpt lat="48.85776" lon="1.85232">
        <ele>95.6</ele>
        <time>2023-12-20T10:54:43Z</time>
      </trkpt>
      <trkpt lat="48.85774" lon="1.85225">
        <ele>95.6</ele>
        <time>2023-12-20T10:54:44Z</time>
      </trkpt>
      <trkpt lat="48.85772" lon="1.85219">
        <ele>95.6</ele>
        <time>2023-12-20T10:54:45Z</time>
      </trkpt>
      <trkpt lat="48.85771" lon="1.85213">
        <ele>95.6</ele>
        <time>2023-12-20T10:54:46Z</time>
      </trkpt>
      <trkpt lat="48.85769" lon="1.85207">
        <ele>96</ele>
        <time>2023-12-20T10:54:47Z</time>
      </trkpt>
      <trkpt lat="48.85767" lon="1.85201">
        <ele>96</ele>
        <time>2023-12-20T10:54:48Z</time>
      </trkpt>
      <trkpt lat="48.85765" lon="1.85195">
        <ele>96</ele>
        <time>2023-12-20T10:54:49Z</time>
      </trkpt>
      <trkpt lat="48.85763" lon="1.85189">
        <ele>96</ele>
        <time>2023-12-20T10:54:50Z</time>
      </trkpt>
      <trkpt lat="48.85762" lon="1.85183">
        <ele>96.4</ele>
        <time>2023-12-20T10:54:51Z</time>
      </trkpt>
      <trkpt lat="48.8576" lon="1.85177">
        <ele>96.4</ele>
        <time>2023-12-20T10:54:52Z</time>
      </trkpt>
      <trkpt lat="48.85758" lon="1.85171">
        <ele>96.4</ele>
        <time>2023-12-20T10:54:53Z</time>
      </trkpt>
      <trkpt lat="48.85755" lon="1.85165">
        <ele>96.4</ele>
        <time>2023-12-20T10:54:54Z</time>
      </trkpt>
      <trkpt lat="48.85754" lon="1.85159">
        <ele>97</ele>
        <time>2023-12-20T10:54:55Z</time>
      </trkpt>
      <trkpt lat="48.85752" lon="1.85152">
        <ele>97</ele>
        <time>2023-12-20T10:54:56Z</time>
      </trkpt>
      <trkpt lat="48.8575" lon="1.85145">
        <ele>97</ele>
        <time>2023-12-20T10:54:57Z</time>
      </trkpt>
      <trkpt lat="48.85748" lon="1.85139">
        <ele>97</ele>
        <time>2023-12-20T10:54:58Z</time>
      </trkpt>
      <trkpt lat="48.85747" lon="1.85132">
        <ele>97.4</ele>
        <time>2023-12-20T10:54:59Z</time>
      </trkpt>
      <trkpt lat="48.85745" lon="1.85126">
        <ele>97.4</ele>
        <time>2023-12-20T10:55:00Z</time>
      </trkpt>
      <trkpt lat="48.85743" lon="1.85119">
        <ele>97.4</ele>
        <time>2023-12-20T10:55:01Z</time>
      </trkpt>
      <trkpt lat="48.85741" lon="1.85113">
        <ele>97.4</ele>
        <time>2023-12-20T10:55:02Z</time>
      </trkpt>
      <trkpt lat="48.85739" lon="1.85106">
        <ele>98.2</ele>
        <time>2023-12-20T10:55:03Z</time>
      </trkpt>
      <trkpt lat="48.85737" lon="1.85099">
        <ele>98.2</ele>
        <time>2023-12-20T10:55:04Z</time>
      </trkpt>
      <trkpt lat="48.85735" lon="1.85092">
        <ele>98.2</ele>
        <time>2023-12-20T10:55:05Z</time>
      </trkpt>
      <trkpt lat="48.85733" lon="1.85086">
        <ele>98.2</ele>
        <time>2023-12-20T10:55:06Z</time>
      </trkpt>
      <trkpt lat="48.85731" lon="1.85079">
        <ele>98.4</ele>
        <time>2023-12-20T10:55:07Z</time>
      </trkpt>
      <trkpt lat="48.85729" lon="1.85072">
        <ele>98.4</ele>
        <time>2023-12-20T10:55:08Z</time>
      </trkpt>
      <trkpt lat="48.85727" lon="1.85065">
        <ele>98.4</ele>
        <time>2023-12-20T10:55:09Z</time>
      </trkpt>
      <trkpt lat="48.85725" lon="1.85058">
        <ele>99</ele>
        <time>2023-12-20T10:55:10Z</time>
      </trkpt>
      <trkpt lat="48.85723" lon="1.85052">
        <ele>98.8</ele>
        <time>2023-12-20T10:55:11Z</time>
      </trkpt>
      <trkpt lat="48.85721" lon="1.85045">
        <ele>98.8</ele>
        <time>2023-12-20T10:55:12Z</time>
      </trkpt>
      <trkpt lat="48.85719" lon="1.85039">
        <ele>98.8</ele>
        <time>2023-12-20T10:55:13Z</time>
      </trkpt>
      <trkpt lat="48.85718" lon="1.85032">
        <ele>99.4</ele>
        <time>2023-12-20T10:55:14Z</time>
      </trkpt>
      <trkpt lat="48.85716" lon="1.85025">
        <ele>99.2</ele>
        <time>2023-12-20T10:55:15Z</time>
      </trkpt>
      <trkpt lat="48.85714" lon="1.85018">
        <ele>99.2</ele>
        <time>2023-12-20T10:55:16Z</time>
      </trkpt>
      <trkpt lat="48.85712" lon="1.85012">
        <ele>99.2</ele>
        <time>2023-12-20T10:55:17Z</time>
      </trkpt>
      <trkpt lat="48.8571" lon="1.85005">
        <ele>99.6</ele>
        <time>2023-12-20T10:55:18Z</time>
      </trkpt>
      <trkpt lat="48.85708" lon="1.84998">
        <ele>100</ele>
        <time>2023-12-20T10:55:19Z</time>
      </trkpt>
      <trkpt lat="48.85706" lon="1.84991">
        <ele>100</ele>
        <time>2023-12-20T10:55:20Z</time>
      </trkpt>
      <trkpt lat="48.85704" lon="1.84984">
        <ele>100</ele>
        <time>2023-12-20T10:55:21Z</time>
      </trkpt>
      <trkpt lat="48.85702" lon="1.84978">
        <ele>100.4</ele>
        <time>2023-12-20T10:55:22Z</time>
      </trkpt>
      <trkpt lat="48.857" lon="1.8497">
        <ele>100.2</ele>
        <time>2023-12-20T10:55:23Z</time>
      </trkpt>
      <trkpt lat="48.85698" lon="1.84964">
        <ele>100.2</ele>
        <time>2023-12-20T10:55:24Z</time>
      </trkpt>
      <trkpt lat="48.85696" lon="1.84957">
        <ele>100.2</ele>
        <time>2023-12-20T10:55:25Z</time>
      </trkpt>
      <trkpt lat="48.85694" lon="1.8495">
        <ele>100.8</ele>
        <time>2023-12-20T10:55:26Z</time>
      </trkpt>
      <trkpt lat="48.85693" lon="1.84943">
        <ele>100.8</ele>
        <time>2023-12-20T10:55:27Z</time>
      </trkpt>
      <trkpt lat="48.85692" lon="1.84936">
        <ele>100.8</ele>
        <time>2023-12-20T10:55:28Z</time>
      </trkpt>
      <trkpt lat="48.85691" lon="1.84928">
        <ele>100.8</ele>
        <time>2023-12-20T10:55:29Z</time>
      </trkpt>
      <trkpt lat="48.8569" lon="1.84921">
        <ele>101.4</ele>
        <time>2023-12-20T10:55:30Z</time>
      </trkpt>
      <trkpt lat="48.85689" lon="1.84913">
        <ele>101.6</ele>
        <time>2023-12-20T10:55:31Z</time>
      </trkpt>
      <trkpt lat="48.85689" lon="1.84905">
        <ele>101.6</ele>
        <time>2023-12-20T10:55:32Z</time>
      </trkpt>
      <trkpt lat="48.85688" lon="1.84897">
        <ele>101.6</ele>
        <time>2023-12-20T10:55:33Z</time>
      </trkpt>
      <trkpt lat="48.85688" lon="1.84889">
        <ele>101.6</ele>
        <time>2023-12-20T10:55:34Z</time>
      </trkpt>
      <trkpt lat="48.85688" lon="1.84881">
        <ele>101.8</ele>
        <time>2023-12-20T10:55:35Z</time>
      </trkpt>
      <trkpt lat="48.85688" lon="1.84873">
        <ele>101.8</ele>
        <time>2023-12-20T10:55:36Z</time>
      </trkpt>
      <trkpt lat="48.85688" lon="1.84865">
        <ele>101.8</ele>
        <time>2023-12-20T10:55:37Z</time>
      </trkpt>
      <trkpt lat="48.85688" lon="1.84857">
        <ele>101.8</ele>
        <time>2023-12-20T10:55:38Z</time>
      </trkpt>
      <trkpt lat="48.85688" lon="1.84849">
        <ele>102.2</ele>
        <time>2023-12-20T10:55:39Z</time>
      </trkpt>
      <trkpt lat="48.85689" lon="1.84841">
        <ele>102.2</ele>
        <time>2023-12-20T10:55:40Z</time>
      </trkpt>
      <trkpt lat="48.85689" lon="1.84833">
        <ele>102.2</ele>
        <time>2023-12-20T10:55:41Z</time>
      </trkpt>
      <trkpt lat="48.8569" lon="1.84825">
        <ele>102.2</ele>
        <time>2023-12-20T10:55:42Z</time>
      </trkpt>
      <trkpt lat="48.85691" lon="1.84817">
        <ele>103</ele>
        <time>2023-12-20T10:55:43Z</time>
      </trkpt>
      <trkpt lat="48.85692" lon="1.84809">
        <ele>103</ele>
        <time>2023-12-20T10:55:44Z</time>
      </trkpt>
      <trkpt lat="48.85693" lon="1.84801">
        <ele>103</ele>
        <time>2023-12-20T10:55:45Z</time>
      </trkpt>
      <trkpt lat="48.85693" lon="1.84793">
        <ele>103</ele>
        <time>2023-12-20T10:55:46Z</time>
      </trkpt>
      <trkpt lat="48.85694" lon="1.84785">
        <ele>102.8</ele>
        <time>2023-12-20T10:55:47Z</time>
      </trkpt>
      <trkpt lat="48.85695" lon="1.84776">
        <ele>102.8</ele>
        <time>2023-12-20T10:55:48Z</time>
      </trkpt>
      <trkpt lat="48.85695" lon="1.84768">
        <ele>102.8</ele>
        <time>2023-12-20T10:55:49Z</time>
      </trkpt>
      <trkpt lat="48.85696" lon="1.84759">
        <ele>103.4</ele>
        <time>2023-12-20T10:55:50Z</time>
      </trkpt>
      <trkpt lat="48.85697" lon="1.84751">
        <ele>103</ele>
        <time>2023-12-20T10:55:51Z</time>
      </trkpt>
      <trkpt lat="48.85698" lon="1.84742">
        <ele>103</ele>
        <time>2023-12-20T10:55:52Z</time>
      </trkpt>
      <trkpt lat="48.85698" lon="1.84733">
        <ele>103</ele>
        <time>2023-12-20T10:55:53Z</time>
      </trkpt>
      <trkpt lat="48.85699" lon="1.84724">
        <ele>103.2</ele>
        <time>2023-12-20T10:55:54Z</time>
      </trkpt>
      <trkpt lat="48.857" lon="1.84716">
        <ele>103.4</ele>
        <time>2023-12-20T10:55:55Z</time>
      </trkpt>
      <trkpt lat="48.85701" lon="1.84708">
        <ele>103.4</ele>
        <time>2023-12-20T10:55:56Z</time>
      </trkpt>
      <trkpt lat="48.85701" lon="1.84699">
        <ele>103.4</ele>
        <time>2023-12-20T10:55:57Z</time>
      </trkpt>
      <trkpt lat="48.85702" lon="1.84691">
        <ele>103.4</ele>
        <time>2023-12-20T10:55:58Z</time>
      </trkpt>
      <trkpt lat="48.85703" lon="1.84682">
        <ele>103.8</ele>
        <time>2023-12-20T10:55:59Z</time>
      </trkpt>
      <trkpt lat="48.85703" lon="1.84673">
        <ele>103.8</ele>
        <time>2023-12-20T10:56:00Z</time>
      </trkpt>
      <trkpt lat="48.85704" lon="1.84664">
        <ele>103.8</ele>
        <time>2023-12-20T10:56:01Z</time>
      </trkpt>
      <trkpt lat="48.85704" lon="1.84655">
        <ele>103.8</ele>
        <time>2023-12-20T10:56:02Z</time>
      </trkpt>
      <trkpt lat="48.85705" lon="1.84646">
        <ele>103.6</ele>
        <time>2023-12-20T10:56:03Z</time>
      </trkpt>
      <trkpt lat="48.85705" lon="1.84636">
        <ele>103.6</ele>
        <time>2023-12-20T10:56:04Z</time>
      </trkpt>
      <trkpt lat="48.85706" lon="1.84627">
        <ele>103.6</ele>
        <time>2023-12-20T10:56:05Z</time>
      </trkpt>
      <trkpt lat="48.85706" lon="1.84618">
        <ele>104.2</ele>
        <time>2023-12-20T10:56:06Z</time>
      </trkpt>
      <trkpt lat="48.85706" lon="1.84609">
        <ele>104.2</ele>
        <time>2023-12-20T10:56:07Z</time>
      </trkpt>
      <trkpt lat="48.85706" lon="1.846">
        <ele>104.2</ele>
        <time>2023-12-20T10:56:08Z</time>
      </trkpt>
      <trkpt lat="48.85706" lon="1.84591">
        <ele>104.2</ele>
        <time>2023-12-20T10:56:09Z</time>
      </trkpt>
      <trkpt lat="48.85707" lon="1.84582">
        <ele>104.2</ele>
        <time>2023-12-20T10:56:10Z</time>
      </trkpt>
      <trkpt lat="48.85707" lon="1.84572">
        <ele>104.8</ele>
        <time>2023-12-20T10:56:11Z</time>
      </trkpt>
      <trkpt lat="48.85707" lon="1.84562">
        <ele>104.8</ele>
        <time>2023-12-20T10:56:12Z</time>
      </trkpt>
      <trkpt lat="48.85707" lon="1.84552">
        <ele>104.8</ele>
        <time>2023-12-20T10:56:13Z</time>
      </trkpt>
      <trkpt lat="48.85707" lon="1.84543">
        <ele>104.8</ele>
        <time>2023-12-20T10:56:14Z</time>
      </trkpt>
      <trkpt lat="48.85707" lon="1.84533">
        <ele>105.2</ele>
        <time>2023-12-20T10:56:15Z</time>
      </trkpt>
      <trkpt lat="48.85707" lon="1.84524">
        <ele>105.2</ele>
        <time>2023-12-20T10:56:16Z</time>
      </trkpt>
      <trkpt lat="48.85707" lon="1.84514">
        <ele>105.2</ele>
        <time>2023-12-20T10:56:17Z</time>
      </trkpt>
      <trkpt lat="48.85706" lon="1.84504">
        <ele>105.2</ele>
        <time>2023-12-20T10:56:18Z</time>
      </trkpt>
      <trkpt lat="48.85706" lon="1.84495">
        <ele>105.4</ele>
        <time>2023-12-20T10:56:19Z</time>
      </trkpt>
      <trkpt lat="48.85706" lon="1.84486">
        <ele>105.4</ele>
        <time>2023-12-20T10:56:20Z</time>
      </trkpt>
      <trkpt lat="48.85706" lon="1.84477">
        <ele>105.4</ele>
        <time>2023-12-20T10:56:21Z</time>
      </trkpt>
      <trkpt lat="48.85706" lon="1.84468">
        <ele>105.4</ele>
        <time>2023-12-20T10:56:22Z</time>
      </trkpt>
      <trkpt lat="48.85706" lon="1.84459">
        <ele>105.6</ele>
        <time>2023-12-20T10:56:23Z</time>
      </trkpt>
      <trkpt lat="48.85706" lon="1.8445">
        <ele>105.6</ele>
        <time>2023-12-20T10:56:24Z</time>
      </trkpt>
      <trkpt lat="48.85706" lon="1.84441">
        <ele>105.6</ele>
        <time>2023-12-20T10:56:25Z</time>
      </trkpt>
      <trkpt lat="48.85706" lon="1.84432">
        <ele>105</ele>
        <time>2023-12-20T10:56:26Z</time>
      </trkpt>
      <trkpt lat="48.85706" lon="1.84423">
        <ele>104.8</ele>
        <time>2023-12-20T10:56:27Z</time>
      </trkpt>
      <trkpt lat="48.85706" lon="1.84414">
        <ele>104.8</ele>
        <time>2023-12-20T10:56:28Z</time>
      </trkpt>
      <trkpt lat="48.85706" lon="1.84406">
        <ele>104.8</ele>
        <time>2023-12-20T10:56:29Z</time>
      </trkpt>
      <trkpt lat="48.85705" lon="1.84397">
        <ele>105.2</ele>
        <time>2023-12-20T10:56:30Z</time>
      </trkpt>
      <trkpt lat="48.85705" lon="1.84388">
        <ele>105.2</ele>
        <time>2023-12-20T10:56:31Z</time>
      </trkpt>
      <trkpt lat="48.85704" lon="1.84379">
        <ele>105.2</ele>
        <time>2023-12-20T10:56:32Z</time>
      </trkpt>
      <trkpt lat="48.85704" lon="1.8437">
        <ele>105.2</ele>
        <time>2023-12-20T10:56:33Z</time>
      </trkpt>
      <trkpt lat="48.85703" lon="1.84362">
        <ele>105.2</ele>
        <time>2023-12-20T10:56:34Z</time>
      </trkpt>
      <trkpt lat="48.85702" lon="1.84353">
        <ele>105.6</ele>
        <time>2023-12-20T10:56:35Z</time>
      </trkpt>
      <trkpt lat="48.85701" lon="1.84344">
        <ele>105.6</ele>
        <time>2023-12-20T10:56:36Z</time>
      </trkpt>
      <trkpt lat="48.85701" lon="1.84335">
        <ele>105.6</ele>
        <time>2023-12-20T10:56:37Z</time>
      </trkpt>
      <trkpt lat="48.857" lon="1.84326">
        <ele>105.6</ele>
        <time>2023-12-20T10:56:38Z</time>
      </trkpt>
      <trkpt lat="48.85699" lon="1.84318">
        <ele>105.6</ele>
        <time>2023-12-20T10:56:39Z</time>
      </trkpt>
      <trkpt lat="48.85699" lon="1.84309">
        <ele>105.6</ele>
        <time>2023-12-20T10:56:40Z</time>
      </trkpt>
      <trkpt lat="48.85698" lon="1.843">
        <ele>105.6</ele>
        <time>2023-12-20T10:56:41Z</time>
      </trkpt>
      <trkpt lat="48.85697" lon="1.84292">
        <ele>105.6</ele>
        <time>2023-12-20T10:56:42Z</time>
      </trkpt>
      <trkpt lat="48.85696" lon="1.84283">
        <ele>105.8</ele>
        <time>2023-12-20T10:56:43Z</time>
      </trkpt>
      <trkpt lat="48.85695" lon="1.84275">
        <ele>105.8</ele>
        <time>2023-12-20T10:56:44Z</time>
      </trkpt>
      <trkpt lat="48.85694" lon="1.84266">
        <ele>105.8</ele>
        <time>2023-12-20T10:56:45Z</time>
      </trkpt>
      <trkpt lat="48.85693" lon="1.84258">
        <ele>105.4</ele>
        <time>2023-12-20T10:56:46Z</time>
      </trkpt>
      <trkpt lat="48.85693" lon="1.84249">
        <ele>105.8</ele>
        <time>2023-12-20T10:56:47Z</time>
      </trkpt>
      <trkpt lat="48.85692" lon="1.84241">
        <ele>105.8</ele>
        <time>2023-12-20T10:56:48Z</time>
      </trkpt>
      <trkpt lat="48.85691" lon="1.84233">
        <ele>105.8</ele>
        <time>2023-12-20T10:56:49Z</time>
      </trkpt>
      <trkpt lat="48.8569" lon="1.84224">
        <ele>105.8</ele>
        <time>2023-12-20T10:56:50Z</time>
      </trkpt>
      <trkpt lat="48.8569" lon="1.84216">
        <ele>105.8</ele>
        <time>2023-12-20T10:56:51Z</time>
      </trkpt>
      <trkpt lat="48.85689" lon="1.84208">
        <ele>105.8</ele>
        <time>2023-12-20T10:56:52Z</time>
      </trkpt>
      <trkpt lat="48.85688" lon="1.842">
        <ele>105.8</ele>
        <time>2023-12-20T10:56:53Z</time>
      </trkpt>
      <trkpt lat="48.85688" lon="1.84192">
        <ele>105.4</ele>
        <time>2023-12-20T10:56:54Z</time>
      </trkpt>
      <trkpt lat="48.85687" lon="1.84184">
        <ele>105.4</ele>
        <time>2023-12-20T10:56:55Z</time>
      </trkpt>
      <trkpt lat="48.85687" lon="1.84176">
        <ele>105.4</ele>
        <time>2023-12-20T10:56:56Z</time>
      </trkpt>
      <trkpt lat="48.85686" lon="1.84168">
        <ele>105.4</ele>
        <time>2023-12-20T10:56:57Z</time>
      </trkpt>
      <trkpt lat="48.85686" lon="1.8416">
        <ele>105.4</ele>
        <time>2023-12-20T10:56:58Z</time>
      </trkpt>
      <trkpt lat="48.85685" lon="1.84152">
        <ele>105.4</ele>
        <time>2023-12-20T10:56:59Z</time>
      </trkpt>
      <trkpt lat="48.85685" lon="1.84144">
        <ele>105.4</ele>
        <time>2023-12-20T10:57:00Z</time>
      </trkpt>
      <trkpt lat="48.85684" lon="1.84137">
        <ele>105.4</ele>
        <time>2023-12-20T10:57:01Z</time>
      </trkpt>
      <trkpt lat="48.85684" lon="1.84129">
        <ele>105.4</ele>
        <time>2023-12-20T10:57:02Z</time>
      </trkpt>
      <trkpt lat="48.85684" lon="1.84121">
        <ele>105</ele>
        <time>2023-12-20T10:57:03Z</time>
      </trkpt>
      <trkpt lat="48.85683" lon="1.84113">
        <ele>105</ele>
        <time>2023-12-20T10:57:04Z</time>
      </trkpt>
      <trkpt lat="48.85683" lon="1.84105">
        <ele>105</ele>
        <time>2023-12-20T10:57:05Z</time>
      </trkpt>
      <trkpt lat="48.85683" lon="1.84097">
        <ele>105</ele>
        <time>2023-12-20T10:57:06Z</time>
      </trkpt>
      <trkpt lat="48.85683" lon="1.84089">
        <ele>104.8</ele>
        <time>2023-12-20T10:57:07Z</time>
      </trkpt>
      <trkpt lat="48.85682" lon="1.84081">
        <ele>104.8</ele>
        <time>2023-12-20T10:57:08Z</time>
      </trkpt>
      <trkpt lat="48.85682" lon="1.84073">
        <ele>104.8</ele>
        <time>2023-12-20T10:57:09Z</time>
      </trkpt>
      <trkpt lat="48.85682" lon="1.84065">
        <ele>104.8</ele>
        <time>2023-12-20T10:57:10Z</time>
      </trkpt>
      <trkpt lat="48.85682" lon="1.84058">
        <ele>104.8</ele>
        <time>2023-12-20T10:57:11Z</time>
      </trkpt>
      <trkpt lat="48.85682" lon="1.8405">
        <ele>104.8</ele>
        <time>2023-12-20T10:57:12Z</time>
      </trkpt>
      <trkpt lat="48.85682" lon="1.84042">
        <ele>104.8</ele>
        <time>2023-12-20T10:57:13Z</time>
      </trkpt>
      <trkpt lat="48.85682" lon="1.84034">
        <ele>104.4</ele>
        <time>2023-12-20T10:57:14Z</time>
      </trkpt>
      <trkpt lat="48.85682" lon="1.84026">
        <ele>104.4</ele>
        <time>2023-12-20T10:57:15Z</time>
      </trkpt>
      <trkpt lat="48.85682" lon="1.84018">
        <ele>104.4</ele>
        <time>2023-12-20T10:57:16Z</time>
      </trkpt>
      <trkpt lat="48.85681" lon="1.8401">
        <ele>104.4</ele>
        <time>2023-12-20T10:57:17Z</time>
      </trkpt>
      <trkpt lat="48.85682" lon="1.84002">
        <ele>105.4</ele>
        <time>2023-12-20T10:57:18Z</time>
      </trkpt>
      <trkpt lat="48.85681" lon="1.83995">
        <ele>125.8</ele>
        <time>2023-12-20T10:57:19Z</time>
      </trkpt>
      <trkpt lat="48.85681" lon="1.83988">
        <ele>125.8</ele>
        <time>2023-12-20T10:57:20Z</time>
      </trkpt>
      <trkpt lat="48.85681" lon="1.8398">
        <ele>125.8</ele>
        <time>2023-12-20T10:57:21Z</time>
      </trkpt>
      <trkpt lat="48.85681" lon="1.83971">
        <ele>126.4</ele>
        <time>2023-12-20T10:57:22Z</time>
      </trkpt>
      <trkpt lat="48.85681" lon="1.83963">
        <ele>126.6</ele>
        <time>2023-12-20T10:57:23Z</time>
      </trkpt>
      <trkpt lat="48.85681" lon="1.83955">
        <ele>126.6</ele>
        <time>2023-12-20T10:57:24Z</time>
      </trkpt>
      <trkpt lat="48.85681" lon="1.83948">
        <ele>126.6</ele>
        <time>2023-12-20T10:57:25Z</time>
      </trkpt>
      <trkpt lat="48.85681" lon="1.83941">
        <ele>126.6</ele>
        <time>2023-12-20T10:57:26Z</time>
      </trkpt>
      <trkpt lat="48.8568" lon="1.83934">
        <ele>127.4</ele>
        <time>2023-12-20T10:57:27Z</time>
      </trkpt>
      <trkpt lat="48.8568" lon="1.83927">
        <ele>127.4</ele>
        <time>2023-12-20T10:57:28Z</time>
      </trkpt>
      <trkpt lat="48.8568" lon="1.83919">
        <ele>127.4</ele>
        <time>2023-12-20T10:57:29Z</time>
      </trkpt>
      <trkpt lat="48.8568" lon="1.83912">
        <ele>127.2</ele>
        <time>2023-12-20T10:57:30Z</time>
      </trkpt>
      <trkpt lat="48.85679" lon="1.83904">
        <ele>127.6</ele>
        <time>2023-12-20T10:57:31Z</time>
      </trkpt>
      <trkpt lat="48.85679" lon="1.83896">
        <ele>127.6</ele>
        <time>2023-12-20T10:57:32Z</time>
      </trkpt>
      <trkpt lat="48.85678" lon="1.83889">
        <ele>127.6</ele>
        <time>2023-12-20T10:57:33Z</time>
      </trkpt>
      <trkpt lat="48.85677" lon="1.83882">
        <ele>127.6</ele>
        <time>2023-12-20T10:57:34Z</time>
      </trkpt>
      <trkpt lat="48.85677" lon="1.83875">
        <ele>127.6</ele>
        <time>2023-12-20T10:57:35Z</time>
      </trkpt>
      <trkpt lat="48.85677" lon="1.83868">
        <ele>127.6</ele>
        <time>2023-12-20T10:57:36Z</time>
      </trkpt>
      <trkpt lat="48.85677" lon="1.83861">
        <ele>127.6</ele>
        <time>2023-12-20T10:57:37Z</time>
      </trkpt>
      <trkpt lat="48.85677" lon="1.83854">
        <ele>127.6</ele>
        <time>2023-12-20T10:57:38Z</time>
      </trkpt>
      <trkpt lat="48.85676" lon="1.83846">
        <ele>127</ele>
        <time>2023-12-20T10:57:39Z</time>
      </trkpt>
      <trkpt lat="48.85676" lon="1.83839">
        <ele>127</ele>
        <time>2023-12-20T10:57:40Z</time>
      </trkpt>
      <trkpt lat="48.85676" lon="1.83831">
        <ele>127</ele>
        <time>2023-12-20T10:57:41Z</time>
      </trkpt>
      <trkpt lat="48.85676" lon="1.83824">
        <ele>127</ele>
        <time>2023-12-20T10:57:42Z</time>
      </trkpt>
      <trkpt lat="48.85676" lon="1.83816">
        <ele>126.8</ele>
        <time>2023-12-20T10:57:43Z</time>
      </trkpt>
      <trkpt lat="48.85676" lon="1.83808">
        <ele>126.8</ele>
        <time>2023-12-20T10:57:44Z</time>
      </trkpt>
      <trkpt lat="48.85676" lon="1.83801">
        <ele>126.8</ele>
        <time>2023-12-20T10:57:45Z</time>
      </trkpt>
      <trkpt lat="48.85676" lon="1.83793">
        <ele>127</ele>
        <time>2023-12-20T10:57:46Z</time>
      </trkpt>
      <trkpt lat="48.85676" lon="1.83785">
        <ele>126.6</ele>
        <time>2023-12-20T10:57:47Z</time>
      </trkpt>
      <trkpt lat="48.85676" lon="1.83777">
        <ele>126.6</ele>
        <time>2023-12-20T10:57:48Z</time>
      </trkpt>
      <trkpt lat="48.85676" lon="1.83769">
        <ele>126.6</ele>
        <time>2023-12-20T10:57:49Z</time>
      </trkpt>
      <trkpt lat="48.85676" lon="1.83762">
        <ele>127</ele>
        <time>2023-12-20T10:57:50Z</time>
      </trkpt>
      <trkpt lat="48.85677" lon="1.83754">
        <ele>127.6</ele>
        <time>2023-12-20T10:57:51Z</time>
      </trkpt>
      <trkpt lat="48.85677" lon="1.83746">
        <ele>127.6</ele>
        <time>2023-12-20T10:57:52Z</time>
      </trkpt>
      <trkpt lat="48.85677" lon="1.83738">
        <ele>127.6</ele>
        <time>2023-12-20T10:57:53Z</time>
      </trkpt>
      <trkpt lat="48.85677" lon="1.83731">
        <ele>127.6</ele>
        <time>2023-12-20T10:57:54Z</time>
      </trkpt>
      <trkpt lat="48.85678" lon="1.83723">
        <ele>126.8</ele>
        <time>2023-12-20T10:57:55Z</time>
      </trkpt>
      <trkpt lat="48.85679" lon="1.83715">
        <ele>126.8</ele>
        <time>2023-12-20T10:57:56Z</time>
      </trkpt>
      <trkpt lat="48.85679" lon="1.83707">
        <ele>126.8</ele>
        <time>2023-12-20T10:57:57Z</time>
      </trkpt>
      <trkpt lat="48.8568" lon="1.83699">
        <ele>127.8</ele>
        <time>2023-12-20T10:57:58Z</time>
      </trkpt>
      <trkpt lat="48.8568" lon="1.83692">
        <ele>128</ele>
        <time>2023-12-20T10:57:59Z</time>
      </trkpt>
      <trkpt lat="48.85681" lon="1.83684">
        <ele>128</ele>
        <time>2023-12-20T10:58:00Z</time>
      </trkpt>
      <trkpt lat="48.85682" lon="1.83676">
        <ele>128</ele>
        <time>2023-12-20T10:58:01Z</time>
      </trkpt>
      <trkpt lat="48.85682" lon="1.83669">
        <ele>128</ele>
        <time>2023-12-20T10:58:02Z</time>
      </trkpt>
      <trkpt lat="48.85683" lon="1.83661">
        <ele>129.4</ele>
        <time>2023-12-20T10:58:03Z</time>
      </trkpt>
      <trkpt lat="48.85684" lon="1.83654">
        <ele>129.4</ele>
        <time>2023-12-20T10:58:04Z</time>
      </trkpt>
      <trkpt lat="48.85684" lon="1.83646">
        <ele>129.4</ele>
        <time>2023-12-20T10:58:05Z</time>
      </trkpt>
      <trkpt lat="48.85685" lon="1.83638">
        <ele>128.4</ele>
        <time>2023-12-20T10:58:06Z</time>
      </trkpt>
      <trkpt lat="48.85685" lon="1.83631">
        <ele>128</ele>
        <time>2023-12-20T10:58:07Z</time>
      </trkpt>
      <trkpt lat="48.85686" lon="1.83623">
        <ele>128</ele>
        <time>2023-12-20T10:58:08Z</time>
      </trkpt>
      <trkpt lat="48.85687" lon="1.83616">
        <ele>128</ele>
        <time>2023-12-20T10:58:09Z</time>
      </trkpt>
      <trkpt lat="48.85687" lon="1.83608">
        <ele>128</ele>
        <time>2023-12-20T10:58:10Z</time>
      </trkpt>
      <trkpt lat="48.85688" lon="1.83601">
        <ele>127.6</ele>
        <time>2023-12-20T10:58:11Z</time>
      </trkpt>
      <trkpt lat="48.85688" lon="1.83593">
        <ele>127.6</ele>
        <time>2023-12-20T10:58:12Z</time>
      </trkpt>
      <trkpt lat="48.85689" lon="1.83586">
        <ele>127.6</ele>
        <time>2023-12-20T10:58:13Z</time>
      </trkpt>
      <trkpt lat="48.8569" lon="1.83578">
        <ele>128.6</ele>
        <time>2023-12-20T10:58:14Z</time>
      </trkpt>
      <trkpt lat="48.85691" lon="1.83571">
        <ele>127.4</ele>
        <time>2023-12-20T10:58:15Z</time>
      </trkpt>
      <trkpt lat="48.85691" lon="1.83563">
        <ele>127.4</ele>
        <time>2023-12-20T10:58:16Z</time>
      </trkpt>
      <trkpt lat="48.85692" lon="1.83555">
        <ele>127.4</ele>
        <time>2023-12-20T10:58:17Z</time>
      </trkpt>
      <trkpt lat="48.85693" lon="1.83547">
        <ele>127.4</ele>
        <time>2023-12-20T10:58:18Z</time>
      </trkpt>
      <trkpt lat="48.85694" lon="1.83539">
        <ele>128.2</ele>
        <time>2023-12-20T10:58:19Z</time>
      </trkpt>
      <trkpt lat="48.85694" lon="1.83532">
        <ele>128.2</ele>
        <time>2023-12-20T10:58:20Z</time>
      </trkpt>
      <trkpt lat="48.85695" lon="1.83524">
        <ele>128.2</ele>
        <time>2023-12-20T10:58:21Z</time>
      </trkpt>
      <trkpt lat="48.85696" lon="1.83516">
        <ele>127.6</ele>
        <time>2023-12-20T10:58:22Z</time>
      </trkpt>
      <trkpt lat="48.85697" lon="1.83508">
        <ele>127.6</ele>
        <time>2023-12-20T10:58:23Z</time>
      </trkpt>
      <trkpt lat="48.85697" lon="1.835">
        <ele>127.6</ele>
        <time>2023-12-20T10:58:24Z</time>
      </trkpt>
      <trkpt lat="48.85698" lon="1.83492">
        <ele>127.6</ele>
        <time>2023-12-20T10:58:25Z</time>
      </trkpt>
      <trkpt lat="48.85699" lon="1.83484">
        <ele>127</ele>
        <time>2023-12-20T10:58:26Z</time>
      </trkpt>
      <trkpt lat="48.857" lon="1.83476">
        <ele>126.6</ele>
        <time>2023-12-20T10:58:27Z</time>
      </trkpt>
      <trkpt lat="48.85701" lon="1.83468">
        <ele>126.6</ele>
        <time>2023-12-20T10:58:28Z</time>
      </trkpt>
      <trkpt lat="48.85702" lon="1.8346">
        <ele>126.6</ele>
        <time>2023-12-20T10:58:29Z</time>
      </trkpt>
      <trkpt lat="48.85703" lon="1.83452">
        <ele>127.6</ele>
        <time>2023-12-20T10:58:30Z</time>
      </trkpt>
      <trkpt lat="48.85704" lon="1.83444">
        <ele>128</ele>
        <time>2023-12-20T10:58:31Z</time>
      </trkpt>
      <trkpt lat="48.85704" lon="1.83436">
        <ele>128</ele>
        <time>2023-12-20T10:58:32Z</time>
      </trkpt>
      <trkpt lat="48.85705" lon="1.83427">
        <ele>128</ele>
        <time>2023-12-20T10:58:33Z</time>
      </trkpt>
      <trkpt lat="48.85706" lon="1.83419">
        <ele>128</ele>
        <time>2023-12-20T10:58:34Z</time>
      </trkpt>
      <trkpt lat="48.85707" lon="1.83411">
        <ele>126.8</ele>
        <time>2023-12-20T10:58:35Z</time>
      </trkpt>
      <trkpt lat="48.85708" lon="1.83403">
        <ele>126.8</ele>
        <time>2023-12-20T10:58:36Z</time>
      </trkpt>
      <trkpt lat="48.85709" lon="1.83395">
        <ele>126.8</ele>
        <time>2023-12-20T10:58:37Z</time>
      </trkpt>
      <trkpt lat="48.8571" lon="1.83386">
        <ele>126.8</ele>
        <time>2023-12-20T10:58:38Z</time>
      </trkpt>
      <trkpt lat="48.85711" lon="1.83378">
        <ele>126.8</ele>
        <time>2023-12-20T10:58:39Z</time>
      </trkpt>
      <trkpt lat="48.85712" lon="1.8337">
        <ele>126.8</ele>
        <time>2023-12-20T10:58:40Z</time>
      </trkpt>
      <trkpt lat="48.85713" lon="1.83361">
        <ele>126.8</ele>
        <time>2023-12-20T10:58:41Z</time>
      </trkpt>
      <trkpt lat="48.85714" lon="1.83352">
        <ele>127.8</ele>
        <time>2023-12-20T10:58:42Z</time>
      </trkpt>
      <trkpt lat="48.85715" lon="1.83343">
        <ele>128.6</ele>
        <time>2023-12-20T10:58:43Z</time>
      </trkpt>
      <trkpt lat="48.85715" lon="1.83334">
        <ele>128.6</ele>
        <time>2023-12-20T10:58:44Z</time>
      </trkpt>
      <trkpt lat="48.85716" lon="1.83326">
        <ele>128.6</ele>
        <time>2023-12-20T10:58:45Z</time>
      </trkpt>
      <trkpt lat="48.85717" lon="1.83317">
        <ele>128.6</ele>
        <time>2023-12-20T10:58:46Z</time>
      </trkpt>
      <trkpt lat="48.85718" lon="1.83309">
        <ele>127</ele>
        <time>2023-12-20T10:58:47Z</time>
      </trkpt>
      <trkpt lat="48.85719" lon="1.833">
        <ele>127</ele>
        <time>2023-12-20T10:58:48Z</time>
      </trkpt>
      <trkpt lat="48.8572" lon="1.83292">
        <ele>127</ele>
        <time>2023-12-20T10:58:49Z</time>
      </trkpt>
      <trkpt lat="48.85721" lon="1.83284">
        <ele>127</ele>
        <time>2023-12-20T10:58:50Z</time>
      </trkpt>
      <trkpt lat="48.85722" lon="1.83276">
        <ele>127</ele>
        <time>2023-12-20T10:58:51Z</time>
      </trkpt>
      <trkpt lat="48.85723" lon="1.83268">
        <ele>127</ele>
        <time>2023-12-20T10:58:52Z</time>
      </trkpt>
      <trkpt lat="48.85724" lon="1.8326">
        <ele>127</ele>
        <time>2023-12-20T10:58:53Z</time>
      </trkpt>
      <trkpt lat="48.85725" lon="1.83252">
        <ele>127</ele>
        <time>2023-12-20T10:58:54Z</time>
      </trkpt>
      <trkpt lat="48.85726" lon="1.83244">
        <ele>126.8</ele>
        <time>2023-12-20T10:58:55Z</time>
      </trkpt>
      <trkpt lat="48.85727" lon="1.83236">
        <ele>126.8</ele>
        <time>2023-12-20T10:58:56Z</time>
      </trkpt>
      <trkpt lat="48.85728" lon="1.83228">
        <ele>126.8</ele>
        <time>2023-12-20T10:58:57Z</time>
      </trkpt>
      <trkpt lat="48.85729" lon="1.8322">
        <ele>127.4</ele>
        <time>2023-12-20T10:58:58Z</time>
      </trkpt>
      <trkpt lat="48.8573" lon="1.83212">
        <ele>127.2</ele>
        <time>2023-12-20T10:58:59Z</time>
      </trkpt>
      <trkpt lat="48.85731" lon="1.83204">
        <ele>127.2</ele>
        <time>2023-12-20T10:59:00Z</time>
      </trkpt>
      <trkpt lat="48.85732" lon="1.83196">
        <ele>127.2</ele>
        <time>2023-12-20T10:59:01Z</time>
      </trkpt>
      <trkpt lat="48.85733" lon="1.83188">
        <ele>127.2</ele>
        <time>2023-12-20T10:59:02Z</time>
      </trkpt>
      <trkpt lat="48.85734" lon="1.8318">
        <ele>128.4</ele>
        <time>2023-12-20T10:59:03Z</time>
      </trkpt>
      <trkpt lat="48.85735" lon="1.83172">
        <ele>128.4</ele>
        <time>2023-12-20T10:59:04Z</time>
      </trkpt>
      <trkpt lat="48.85735" lon="1.83164">
        <ele>128.4</ele>
        <time>2023-12-20T10:59:05Z</time>
      </trkpt>
      <trkpt lat="48.85736" lon="1.83156">
        <ele>128.4</ele>
        <time>2023-12-20T10:59:06Z</time>
      </trkpt>
      <trkpt lat="48.85737" lon="1.83148">
        <ele>128.2</ele>
        <time>2023-12-20T10:59:07Z</time>
      </trkpt>
      <trkpt lat="48.85738" lon="1.8314">
        <ele>128.2</ele>
        <time>2023-12-20T10:59:08Z</time>
      </trkpt>
      <trkpt lat="48.85739" lon="1.83132">
        <ele>128.2</ele>
        <time>2023-12-20T10:59:09Z</time>
      </trkpt>
      <trkpt lat="48.8574" lon="1.83124">
        <ele>128</ele>
        <time>2023-12-20T10:59:10Z</time>
      </trkpt>
      <trkpt lat="48.85741" lon="1.83116">
        <ele>129</ele>
        <time>2023-12-20T10:59:11Z</time>
      </trkpt>
      <trkpt lat="48.85742" lon="1.83108">
        <ele>129</ele>
        <time>2023-12-20T10:59:12Z</time>
      </trkpt>
      <trkpt lat="48.85742" lon="1.831">
        <ele>129</ele>
        <time>2023-12-20T10:59:13Z</time>
      </trkpt>
      <trkpt lat="48.85743" lon="1.83093">
        <ele>129</ele>
        <time>2023-12-20T10:59:14Z</time>
      </trkpt>
      <trkpt lat="48.85744" lon="1.83085">
        <ele>130.2</ele>
        <time>2023-12-20T10:59:15Z</time>
      </trkpt>
      <trkpt lat="48.85744" lon="1.83077">
        <ele>130.2</ele>
        <time>2023-12-20T10:59:16Z</time>
      </trkpt>
      <trkpt lat="48.85745" lon="1.83069">
        <ele>130.2</ele>
        <time>2023-12-20T10:59:17Z</time>
      </trkpt>
      <trkpt lat="48.85745" lon="1.83062">
        <ele>130.8</ele>
        <time>2023-12-20T10:59:18Z</time>
      </trkpt>
      <trkpt lat="48.85745" lon="1.83054">
        <ele>130</ele>
        <time>2023-12-20T10:59:19Z</time>
      </trkpt>
      <trkpt lat="48.85746" lon="1.83047">
        <ele>130</ele>
        <time>2023-12-20T10:59:20Z</time>
      </trkpt>
      <trkpt lat="48.85747" lon="1.83039">
        <ele>130</ele>
        <time>2023-12-20T10:59:21Z</time>
      </trkpt>
      <trkpt lat="48.85748" lon="1.83032">
        <ele>131</ele>
        <time>2023-12-20T10:59:22Z</time>
      </trkpt>
      <trkpt lat="48.85749" lon="1.83025">
        <ele>132.4</ele>
        <time>2023-12-20T10:59:23Z</time>
      </trkpt>
      <trkpt lat="48.8575" lon="1.83019">
        <ele>132.4</ele>
        <time>2023-12-20T10:59:24Z</time>
      </trkpt>
      <trkpt lat="48.85751" lon="1.83012">
        <ele>132.4</ele>
        <time>2023-12-20T10:59:25Z</time>
      </trkpt>
      <trkpt lat="48.85752" lon="1.83007">
        <ele>132.4</ele>
        <time>2023-12-20T10:59:26Z</time>
      </trkpt>
      <trkpt lat="48.85752" lon="1.83001">
        <ele>132.4</ele>
        <time>2023-12-20T10:59:27Z</time>
      </trkpt>
      <trkpt lat="48.85753" lon="1.82995">
        <ele>132.4</ele>
        <time>2023-12-20T10:59:28Z</time>
      </trkpt>
      <trkpt lat="48.85754" lon="1.82989">
        <ele>132.4</ele>
        <time>2023-12-20T10:59:29Z</time>
      </trkpt>
      <trkpt lat="48.85755" lon="1.82983">
        <ele>132.8</ele>
        <time>2023-12-20T10:59:30Z</time>
      </trkpt>
      <trkpt lat="48.85755" lon="1.82976">
        <ele>132.8</ele>
        <time>2023-12-20T10:59:31Z</time>
      </trkpt>
      <trkpt lat="48.85756" lon="1.8297">
        <ele>132.8</ele>
        <time>2023-12-20T10:59:32Z</time>
      </trkpt>
      <trkpt lat="48.85757" lon="1.82964">
        <ele>132.8</ele>
        <time>2023-12-20T10:59:33Z</time>
      </trkpt>
      <trkpt lat="48.85757" lon="1.82958">
        <ele>133.8</ele>
        <time>2023-12-20T10:59:34Z</time>
      </trkpt>
      <trkpt lat="48.85758" lon="1.82952">
        <ele>134.2</ele>
        <time>2023-12-20T10:59:35Z</time>
      </trkpt>
      <trkpt lat="48.85759" lon="1.82945">
        <ele>134.2</ele>
        <time>2023-12-20T10:59:36Z</time>
      </trkpt>
      <trkpt lat="48.8576" lon="1.82938">
        <ele>134.2</ele>
        <time>2023-12-20T10:59:37Z</time>
      </trkpt>
      <trkpt lat="48.85761" lon="1.82932">
        <ele>134.2</ele>
        <time>2023-12-20T10:59:38Z</time>
      </trkpt>
      <trkpt lat="48.85762" lon="1.82926">
        <ele>134</ele>
        <time>2023-12-20T10:59:39Z</time>
      </trkpt>
      <trkpt lat="48.85763" lon="1.82921">
        <ele>134</ele>
        <time>2023-12-20T10:59:40Z</time>
      </trkpt>
      <trkpt lat="48.85765" lon="1.82916">
        <ele>134</ele>
        <time>2023-12-20T10:59:41Z</time>
      </trkpt>
      <trkpt lat="48.85765" lon="1.82911">
        <ele>134.8</ele>
        <time>2023-12-20T10:59:42Z</time>
      </trkpt>
      <trkpt lat="48.85766" lon="1.82905">
        <ele>134.8</ele>
        <time>2023-12-20T10:59:43Z</time>
      </trkpt>
      <trkpt lat="48.85767" lon="1.82898">
        <ele>134.8</ele>
        <time>2023-12-20T10:59:44Z</time>
      </trkpt>
      <trkpt lat="48.85768" lon="1.82892">
        <ele>134.8</ele>
        <time>2023-12-20T10:59:45Z</time>
      </trkpt>
      <trkpt lat="48.85769" lon="1.82886">
        <ele>135.6</ele>
        <time>2023-12-20T10:59:46Z</time>
      </trkpt>
      <trkpt lat="48.85771" lon="1.82881">
        <ele>135.4</ele>
        <time>2023-12-20T10:59:47Z</time>
      </trkpt>
      <trkpt lat="48.85772" lon="1.82876">
        <ele>135.4</ele>
        <time>2023-12-20T10:59:48Z</time>
      </trkpt>
      <trkpt lat="48.85772" lon="1.82871">
        <ele>135.4</ele>
        <time>2023-12-20T10:59:49Z</time>
      </trkpt>
      <trkpt lat="48.85773" lon="1.82866">
        <ele>135.8</ele>
        <time>2023-12-20T10:59:50Z</time>
      </trkpt>
      <trkpt lat="48.85774" lon="1.82859">
        <ele>135.6</ele>
        <time>2023-12-20T10:59:51Z</time>
      </trkpt>
      <trkpt lat="48.85775" lon="1.82852">
        <ele>135.6</ele>
        <time>2023-12-20T10:59:52Z</time>
      </trkpt>
      <trkpt lat="48.85776" lon="1.82846">
        <ele>135.6</ele>
        <time>2023-12-20T10:59:53Z</time>
      </trkpt>
      <trkpt lat="48.85778" lon="1.82839">
        <ele>135.2</ele>
        <time>2023-12-20T10:59:54Z</time>
      </trkpt>
      <trkpt lat="48.85779" lon="1.82833">
        <ele>135</ele>
        <time>2023-12-20T10:59:55Z</time>
      </trkpt>
      <trkpt lat="48.85781" lon="1.82826">
        <ele>135</ele>
        <time>2023-12-20T10:59:56Z</time>
      </trkpt>
      <trkpt lat="48.85782" lon="1.82819">
        <ele>135</ele>
        <time>2023-12-20T10:59:57Z</time>
      </trkpt>
      <trkpt lat="48.85784" lon="1.82813">
        <ele>135</ele>
        <time>2023-12-20T10:59:58Z</time>
      </trkpt>
      <trkpt lat="48.85786" lon="1.82806">
        <ele>135.8</ele>
        <time>2023-12-20T10:59:59Z</time>
      </trkpt>
      <trkpt lat="48.85788" lon="1.828">
        <ele>135.8</ele>
        <time>2023-12-20T11:00:00Z</time>
      </trkpt>
      <trkpt lat="48.85789" lon="1.82793">
        <ele>135.8</ele>
        <time>2023-12-20T11:00:01Z</time>
      </trkpt>
      <trkpt lat="48.8579" lon="1.82786">
        <ele>135</ele>
        <time>2023-12-20T11:00:02Z</time>
      </trkpt>
      <trkpt lat="48.85791" lon="1.8278">
        <ele>135.2</ele>
        <time>2023-12-20T11:00:03Z</time>
      </trkpt>
      <trkpt lat="48.85791" lon="1.82773">
        <ele>135.2</ele>
        <time>2023-12-20T11:00:04Z</time>
      </trkpt>
      <trkpt lat="48.85793" lon="1.82767">
        <ele>135.2</ele>
        <time>2023-12-20T11:00:05Z</time>
      </trkpt>
      <trkpt lat="48.85795" lon="1.82761">
        <ele>135.2</ele>
        <time>2023-12-20T11:00:06Z</time>
      </trkpt>
      <trkpt lat="48.85797" lon="1.82755">
        <ele>134.2</ele>
        <time>2023-12-20T11:00:07Z</time>
      </trkpt>
      <trkpt lat="48.858" lon="1.82748">
        <ele>134.2</ele>
        <time>2023-12-20T11:00:08Z</time>
      </trkpt>
      <trkpt lat="48.85802" lon="1.82741">
        <ele>134.2</ele>
        <time>2023-12-20T11:00:09Z</time>
      </trkpt>
      <trkpt lat="48.85804" lon="1.82734">
        <ele>134.2</ele>
        <time>2023-12-20T11:00:10Z</time>
      </trkpt>
      <trkpt lat="48.85806" lon="1.82727">
        <ele>134.4</ele>
        <time>2023-12-20T11:00:11Z</time>
      </trkpt>
      <trkpt lat="48.85808" lon="1.8272">
        <ele>134.4</ele>
        <time>2023-12-20T11:00:12Z</time>
      </trkpt>
      <trkpt lat="48.8581" lon="1.82712">
        <ele>134.4</ele>
        <time>2023-12-20T11:00:13Z</time>
      </trkpt>
      <trkpt lat="48.85811" lon="1.82704">
        <ele>134.4</ele>
        <time>2023-12-20T11:00:14Z</time>
      </trkpt>
      <trkpt lat="48.85813" lon="1.82696">
        <ele>133.8</ele>
        <time>2023-12-20T11:00:15Z</time>
      </trkpt>
      <trkpt lat="48.85815" lon="1.82688">
        <ele>133.8</ele>
        <time>2023-12-20T11:00:16Z</time>
      </trkpt>
      <trkpt lat="48.85817" lon="1.8268">
        <ele>133.8</ele>
        <time>2023-12-20T11:00:17Z</time>
      </trkpt>
      <trkpt lat="48.85819" lon="1.82672">
        <ele>134.2</ele>
        <time>2023-12-20T11:00:18Z</time>
      </trkpt>
      <trkpt lat="48.85822" lon="1.82664">
        <ele>134.2</ele>
        <time>2023-12-20T11:00:19Z</time>
      </trkpt>
      <trkpt lat="48.85823" lon="1.82656">
        <ele>134.2</ele>
        <time>2023-12-20T11:00:20Z</time>
      </trkpt>
      <trkpt lat="48.85825" lon="1.82648">
        <ele>134.2</ele>
        <time>2023-12-20T11:00:21Z</time>
      </trkpt>
      <trkpt lat="48.85826" lon="1.82639">
        <ele>133.6</ele>
        <time>2023-12-20T11:00:22Z</time>
      </trkpt>
      <trkpt lat="48.85827" lon="1.8263">
        <ele>133.8</ele>
        <time>2023-12-20T11:00:23Z</time>
      </trkpt>
      <trkpt lat="48.85827" lon="1.82622">
        <ele>133.8</ele>
        <time>2023-12-20T11:00:24Z</time>
      </trkpt>
      <trkpt lat="48.85827" lon="1.82613">
        <ele>133.8</ele>
        <time>2023-12-20T11:00:25Z</time>
      </trkpt>
      <trkpt lat="48.85827" lon="1.82604">
        <ele>133.8</ele>
        <time>2023-12-20T11:00:26Z</time>
      </trkpt>
      <trkpt lat="48.85826" lon="1.82596">
        <ele>133.8</ele>
        <time>2023-12-20T11:00:27Z</time>
      </trkpt>
      <trkpt lat="48.85825" lon="1.82587">
        <ele>133.8</ele>
        <time>2023-12-20T11:00:28Z</time>
      </trkpt>
      <trkpt lat="48.85825" lon="1.82578">
        <ele>133.8</ele>
        <time>2023-12-20T11:00:29Z</time>
      </trkpt>
      <trkpt lat="48.85825" lon="1.82569">
        <ele>133.8</ele>
        <time>2023-12-20T11:00:30Z</time>
      </trkpt>
      <trkpt lat="48.85824" lon="1.82561">
        <ele>131.8</ele>
        <time>2023-12-20T11:00:31Z</time>
      </trkpt>
      <trkpt lat="48.85824" lon="1.82552">
        <ele>131.8</ele>
        <time>2023-12-20T11:00:32Z</time>
      </trkpt>
      <trkpt lat="48.85824" lon="1.82543">
        <ele>131.8</ele>
        <time>2023-12-20T11:00:33Z</time>
      </trkpt>
      <trkpt lat="48.85823" lon="1.82534">
        <ele>132.8</ele>
        <time>2023-12-20T11:00:34Z</time>
      </trkpt>
      <trkpt lat="48.85823" lon="1.82525">
        <ele>131.6</ele>
        <time>2023-12-20T11:00:35Z</time>
      </trkpt>
      <trkpt lat="48.85824" lon="1.82516">
        <ele>131.6</ele>
        <time>2023-12-20T11:00:36Z</time>
      </trkpt>
      <trkpt lat="48.85824" lon="1.82507">
        <ele>131.6</ele>
        <time>2023-12-20T11:00:37Z</time>
      </trkpt>
      <trkpt lat="48.85825" lon="1.82498">
        <ele>132.6</ele>
        <time>2023-12-20T11:00:38Z</time>
      </trkpt>
      <trkpt lat="48.85827" lon="1.82489">
        <ele>132.8</ele>
        <time>2023-12-20T11:00:39Z</time>
      </trkpt>
      <trkpt lat="48.85829" lon="1.8248">
        <ele>132.8</ele>
        <time>2023-12-20T11:00:40Z</time>
      </trkpt>
      <trkpt lat="48.85831" lon="1.82472">
        <ele>132.8</ele>
        <time>2023-12-20T11:00:41Z</time>
      </trkpt>
      <trkpt lat="48.85834" lon="1.82463">
        <ele>133.2</ele>
        <time>2023-12-20T11:00:42Z</time>
      </trkpt>
      <trkpt lat="48.85836" lon="1.82454">
        <ele>133</ele>
        <time>2023-12-20T11:00:43Z</time>
      </trkpt>
      <trkpt lat="48.85839" lon="1.82446">
        <ele>133</ele>
        <time>2023-12-20T11:00:44Z</time>
      </trkpt>
      <trkpt lat="48.85842" lon="1.82438">
        <ele>133</ele>
        <time>2023-12-20T11:00:45Z</time>
      </trkpt>
      <trkpt lat="48.85844" lon="1.82429">
        <ele>133</ele>
        <time>2023-12-20T11:00:46Z</time>
      </trkpt>
      <trkpt lat="48.85847" lon="1.82421">
        <ele>134.8</ele>
        <time>2023-12-20T11:00:47Z</time>
      </trkpt>
      <trkpt lat="48.8585" lon="1.82413">
        <ele>134.8</ele>
        <time>2023-12-20T11:00:48Z</time>
      </trkpt>
      <trkpt lat="48.85853" lon="1.82404">
        <ele>134.8</ele>
        <time>2023-12-20T11:00:49Z</time>
      </trkpt>
      <trkpt lat="48.85855" lon="1.82396">
        <ele>133.8</ele>
        <time>2023-12-20T11:00:50Z</time>
      </trkpt>
      <trkpt lat="48.85858" lon="1.82388">
        <ele>134.4</ele>
        <time>2023-12-20T11:00:51Z</time>
      </trkpt>
      <trkpt lat="48.85861" lon="1.8238">
        <ele>134.4</ele>
        <time>2023-12-20T11:00:52Z</time>
      </trkpt>
      <trkpt lat="48.85864" lon="1.82372">
        <ele>134.4</ele>
        <time>2023-12-20T11:00:53Z</time>
      </trkpt>
      <trkpt lat="48.85866" lon="1.82364">
        <ele>134.4</ele>
        <time>2023-12-20T11:00:54Z</time>
      </trkpt>
      <trkpt lat="48.85869" lon="1.82356">
        <ele>134.4</ele>
        <time>2023-12-20T11:00:55Z</time>
      </trkpt>
      <trkpt lat="48.85872" lon="1.82348">
        <ele>134.4</ele>
        <time>2023-12-20T11:00:56Z</time>
      </trkpt>
      <trkpt lat="48.85875" lon="1.8234">
        <ele>134.4</ele>
        <time>2023-12-20T11:00:57Z</time>
      </trkpt>
      <trkpt lat="48.85877" lon="1.82332">
        <ele>134.8</ele>
        <time>2023-12-20T11:00:58Z</time>
      </trkpt>
      <trkpt lat="48.8588" lon="1.82324">
        <ele>135</ele>
        <time>2023-12-20T11:00:59Z</time>
      </trkpt>
      <trkpt lat="48.85882" lon="1.82316">
        <ele>135</ele>
        <time>2023-12-20T11:01:00Z</time>
      </trkpt>
      <trkpt lat="48.85885" lon="1.82308">
        <ele>135</ele>
        <time>2023-12-20T11:01:01Z</time>
      </trkpt>
      <trkpt lat="48.85888" lon="1.823">
        <ele>134.4</ele>
        <time>2023-12-20T11:01:02Z</time>
      </trkpt>
      <trkpt lat="48.85891" lon="1.82293">
        <ele>135.2</ele>
        <time>2023-12-20T11:01:03Z</time>
      </trkpt>
      <trkpt lat="48.85893" lon="1.82285">
        <ele>135.2</ele>
        <time>2023-12-20T11:01:04Z</time>
      </trkpt>
      <trkpt lat="48.85895" lon="1.82277">
        <ele>135.2</ele>
        <time>2023-12-20T11:01:05Z</time>
      </trkpt>
      <trkpt lat="48.85898" lon="1.8227">
        <ele>135.2</ele>
        <time>2023-12-20T11:01:06Z</time>
      </trkpt>
      <trkpt lat="48.859" lon="1.82262">
        <ele>134.2</ele>
        <time>2023-12-20T11:01:07Z</time>
      </trkpt>
      <trkpt lat="48.85902" lon="1.82254">
        <ele>134.2</ele>
        <time>2023-12-20T11:01:08Z</time>
      </trkpt>
      <trkpt lat="48.85904" lon="1.82246">
        <ele>134.2</ele>
        <time>2023-12-20T11:01:09Z</time>
      </trkpt>
      <trkpt lat="48.85905" lon="1.82237">
        <ele>134.2</ele>
        <time>2023-12-20T11:01:10Z</time>
      </trkpt>
      <trkpt lat="48.85906" lon="1.82229">
        <ele>132.2</ele>
        <time>2023-12-20T11:01:11Z</time>
      </trkpt>
      <trkpt lat="48.85907" lon="1.8222">
        <ele>132.2</ele>
        <time>2023-12-20T11:01:12Z</time>
      </trkpt>
      <trkpt lat="48.85909" lon="1.82212">
        <ele>132.2</ele>
        <time>2023-12-20T11:01:13Z</time>
      </trkpt>
      <trkpt lat="48.8591" lon="1.82203">
        <ele>133.2</ele>
        <time>2023-12-20T11:01:14Z</time>
      </trkpt>
      <trkpt lat="48.85911" lon="1.82195">
        <ele>133.4</ele>
        <time>2023-12-20T11:01:15Z</time>
      </trkpt>
      <trkpt lat="48.85912" lon="1.82186">
        <ele>133.4</ele>
        <time>2023-12-20T11:01:16Z</time>
      </trkpt>
      <trkpt lat="48.85914" lon="1.82178">
        <ele>133.4</ele>
        <time>2023-12-20T11:01:17Z</time>
      </trkpt>
      <trkpt lat="48.85915" lon="1.82169">
        <ele>133.4</ele>
        <time>2023-12-20T11:01:18Z</time>
      </trkpt>
      <trkpt lat="48.85915" lon="1.8216">
        <ele>132.8</ele>
        <time>2023-12-20T11:01:19Z</time>
      </trkpt>
      <trkpt lat="48.85915" lon="1.82151">
        <ele>132.8</ele>
        <time>2023-12-20T11:01:20Z</time>
      </trkpt>
      <trkpt lat="48.85915" lon="1.82142">
        <ele>132.8</ele>
        <time>2023-12-20T11:01:21Z</time>
      </trkpt>
      <trkpt lat="48.85915" lon="1.82134">
        <ele>132.8</ele>
        <time>2023-12-20T11:01:22Z</time>
      </trkpt>
      <trkpt lat="48.85914" lon="1.82125">
        <ele>133.6</ele>
        <time>2023-12-20T11:01:23Z</time>
      </trkpt>
      <trkpt lat="48.85914" lon="1.82116">
        <ele>133.6</ele>
        <time>2023-12-20T11:01:24Z</time>
      </trkpt>
      <trkpt lat="48.85914" lon="1.82108">
        <ele>133.6</ele>
        <time>2023-12-20T11:01:25Z</time>
      </trkpt>
      <trkpt lat="48.85913" lon="1.82099">
        <ele>133.6</ele>
        <time>2023-12-20T11:01:26Z</time>
      </trkpt>
      <trkpt lat="48.85913" lon="1.82091">
        <ele>133.6</ele>
        <time>2023-12-20T11:01:27Z</time>
      </trkpt>
      <trkpt lat="48.85912" lon="1.82082">
        <ele>133.6</ele>
        <time>2023-12-20T11:01:28Z</time>
      </trkpt>
      <trkpt lat="48.85913" lon="1.82074">
        <ele>133.6</ele>
        <time>2023-12-20T11:01:29Z</time>
      </trkpt>
      <trkpt lat="48.85914" lon="1.82066">
        <ele>134.6</ele>
        <time>2023-12-20T11:01:30Z</time>
      </trkpt>
      <trkpt lat="48.85915" lon="1.82058">
        <ele>135.4</ele>
        <time>2023-12-20T11:01:31Z</time>
      </trkpt>
      <trkpt lat="48.85917" lon="1.8205">
        <ele>135.4</ele>
        <time>2023-12-20T11:01:32Z</time>
      </trkpt>
      <trkpt lat="48.8592" lon="1.82043">
        <ele>135.4</ele>
        <time>2023-12-20T11:01:33Z</time>
      </trkpt>
      <trkpt lat="48.85922" lon="1.82036">
        <ele>135.4</ele>
        <time>2023-12-20T11:01:34Z</time>
      </trkpt>
      <trkpt lat="48.85925" lon="1.82029">
        <ele>135.2</ele>
        <time>2023-12-20T11:01:35Z</time>
      </trkpt>
      <trkpt lat="48.85929" lon="1.82022">
        <ele>135.2</ele>
        <time>2023-12-20T11:01:36Z</time>
      </trkpt>
      <trkpt lat="48.85932" lon="1.82016">
        <ele>135.2</ele>
        <time>2023-12-20T11:01:37Z</time>
      </trkpt>
      <trkpt lat="48.85936" lon="1.8201">
        <ele>135.2</ele>
        <time>2023-12-20T11:01:38Z</time>
      </trkpt>
      <trkpt lat="48.8594" lon="1.82004">
        <ele>136</ele>
        <time>2023-12-20T11:01:39Z</time>
      </trkpt>
      <trkpt lat="48.85944" lon="1.81999">
        <ele>136</ele>
        <time>2023-12-20T11:01:40Z</time>
      </trkpt>
      <trkpt lat="48.85948" lon="1.81993">
        <ele>136</ele>
        <time>2023-12-20T11:01:41Z</time>
      </trkpt>
      <trkpt lat="48.85952" lon="1.81989">
        <ele>137</ele>
        <time>2023-12-20T11:01:42Z</time>
      </trkpt>
      <trkpt lat="48.85956" lon="1.81983">
        <ele>137.8</ele>
        <time>2023-12-20T11:01:43Z</time>
      </trkpt>
      <trkpt lat="48.8596" lon="1.81978">
        <ele>137.8</ele>
        <time>2023-12-20T11:01:44Z</time>
      </trkpt>
      <trkpt lat="48.85964" lon="1.81972">
        <ele>137.8</ele>
        <time>2023-12-20T11:01:45Z</time>
      </trkpt>
      <trkpt lat="48.85969" lon="1.81966">
        <ele>137.8</ele>
        <time>2023-12-20T11:01:46Z</time>
      </trkpt>
      <trkpt lat="48.85973" lon="1.8196">
        <ele>136.8</ele>
        <time>2023-12-20T11:01:47Z</time>
      </trkpt>
      <trkpt lat="48.85976" lon="1.81954">
        <ele>136.8</ele>
        <time>2023-12-20T11:01:48Z</time>
      </trkpt>
      <trkpt lat="48.8598" lon="1.81948">
        <ele>136.8</ele>
        <time>2023-12-20T11:01:49Z</time>
      </trkpt>
      <trkpt lat="48.85982" lon="1.81941">
        <ele>136.8</ele>
        <time>2023-12-20T11:01:50Z</time>
      </trkpt>
      <trkpt lat="48.85985" lon="1.81934">
        <ele>136.4</ele>
        <time>2023-12-20T11:01:51Z</time>
      </trkpt>
      <trkpt lat="48.85987" lon="1.81927">
        <ele>136.4</ele>
        <time>2023-12-20T11:01:52Z</time>
      </trkpt>
      <trkpt lat="48.8599" lon="1.8192">
        <ele>136.4</ele>
        <time>2023-12-20T11:01:53Z</time>
      </trkpt>
      <trkpt lat="48.85992" lon="1.81914">
        <ele>137.4</ele>
        <time>2023-12-20T11:01:54Z</time>
      </trkpt>
      <trkpt lat="48.85995" lon="1.81908">
        <ele>138.4</ele>
        <time>2023-12-20T11:01:55Z</time>
      </trkpt>
      <trkpt lat="48.85997" lon="1.81902">
        <ele>138.4</ele>
        <time>2023-12-20T11:01:56Z</time>
      </trkpt>
      <trkpt lat="48.86" lon="1.81895">
        <ele>138.4</ele>
        <time>2023-12-20T11:01:57Z</time>
      </trkpt>
      <trkpt lat="48.86004" lon="1.81889">
        <ele>139.4</ele>
        <time>2023-12-20T11:01:58Z</time>
      </trkpt>
      <trkpt lat="48.86007" lon="1.81884">
        <ele>139.8</ele>
        <time>2023-12-20T11:01:59Z</time>
      </trkpt>
      <trkpt lat="48.86011" lon="1.81878">
        <ele>139.8</ele>
        <time>2023-12-20T11:02:00Z</time>
      </trkpt>
      <trkpt lat="48.86015" lon="1.81874">
        <ele>139.8</ele>
        <time>2023-12-20T11:02:01Z</time>
      </trkpt>
      <trkpt lat="48.8602" lon="1.8187">
        <ele>139.8</ele>
        <time>2023-12-20T11:02:02Z</time>
      </trkpt>
      <trkpt lat="48.86024" lon="1.81865">
        <ele>139.4</ele>
        <time>2023-12-20T11:02:03Z</time>
      </trkpt>
      <trkpt lat="48.86028" lon="1.81861">
        <ele>139.4</ele>
        <time>2023-12-20T11:02:04Z</time>
      </trkpt>
      <trkpt lat="48.86032" lon="1.81857">
        <ele>139.4</ele>
        <time>2023-12-20T11:02:05Z</time>
      </trkpt>
      <trkpt lat="48.86036" lon="1.81854">
        <ele>138.8</ele>
        <time>2023-12-20T11:02:06Z</time>
      </trkpt>
      <trkpt lat="48.8604" lon="1.81853">
        <ele>139</ele>
        <time>2023-12-20T11:02:07Z</time>
      </trkpt>
      <trkpt lat="48.86043" lon="1.81852">
        <ele>139</ele>
        <time>2023-12-20T11:02:08Z</time>
      </trkpt>
      <trkpt lat="48.86046" lon="1.81851">
        <ele>139</ele>
        <time>2023-12-20T11:02:09Z</time>
      </trkpt>
      <trkpt lat="48.86047" lon="1.81849">
        <ele>139.8</ele>
        <time>2023-12-20T11:02:10Z</time>
      </trkpt>
      <trkpt lat="48.86047" lon="1.81848">
        <ele>139.4</ele>
        <time>2023-12-20T11:02:11Z</time>
      </trkpt>
      <trkpt lat="48.86047" lon="1.81841">
        <ele>140</ele>
        <time>2023-12-20T11:03:01Z</time>
      </trkpt>
      <trkpt lat="48.86048" lon="1.81839">
        <ele>139.8</ele>
        <time>2023-12-20T11:03:02Z</time>
      </trkpt>
      <trkpt lat="48.86049" lon="1.81837">
        <ele>139.8</ele>
        <time>2023-12-20T11:03:03Z</time>
      </trkpt>
      <trkpt lat="48.86051" lon="1.81835">
        <ele>139.8</ele>
        <time>2023-12-20T11:03:04Z</time>
      </trkpt>
      <trkpt lat="48.86052" lon="1.81834">
        <ele>139.8</ele>
        <time>2023-12-20T11:03:05Z</time>
      </trkpt>
      <trkpt lat="48.86054" lon="1.81832">
        <ele>139.2</ele>
        <time>2023-12-20T11:03:06Z</time>
      </trkpt>
      <trkpt lat="48.86056" lon="1.81829">
        <ele>139.6</ele>
        <time>2023-12-20T11:03:07Z</time>
      </trkpt>
      <trkpt lat="48.86058" lon="1.81827">
        <ele>139.6</ele>
        <time>2023-12-20T11:03:08Z</time>
      </trkpt>
      <trkpt lat="48.86061" lon="1.81824">
        <ele>139.6</ele>
        <time>2023-12-20T11:03:09Z</time>
      </trkpt>
      <trkpt lat="48.86063" lon="1.81822">
        <ele>139</ele>
        <time>2023-12-20T11:03:10Z</time>
      </trkpt>
      <trkpt lat="48.86067" lon="1.81819">
        <ele>138.8</ele>
        <time>2023-12-20T11:03:11Z</time>
      </trkpt>
      <trkpt lat="48.86071" lon="1.81816">
        <ele>138.8</ele>
        <time>2023-12-20T11:03:12Z</time>
      </trkpt>
      <trkpt lat="48.86075" lon="1.81812">
        <ele>138.8</ele>
        <time>2023-12-20T11:03:13Z</time>
      </trkpt>
      <trkpt lat="48.86079" lon="1.81809">
        <ele>139.4</ele>
        <time>2023-12-20T11:03:14Z</time>
      </trkpt>
      <trkpt lat="48.86084" lon="1.81806">
        <ele>138.8</ele>
        <time>2023-12-20T11:03:15Z</time>
      </trkpt>
      <trkpt lat="48.86088" lon="1.81801">
        <ele>138.8</ele>
        <time>2023-12-20T11:03:16Z</time>
      </trkpt>
      <trkpt lat="48.86092" lon="1.81796">
        <ele>138.8</ele>
        <time>2023-12-20T11:03:17Z</time>
      </trkpt>
      <trkpt lat="48.86096" lon="1.8179">
        <ele>139</ele>
        <time>2023-12-20T11:03:18Z</time>
      </trkpt>
      <trkpt lat="48.861" lon="1.81784">
        <ele>139.4</ele>
        <time>2023-12-20T11:03:19Z</time>
      </trkpt>
      <trkpt lat="48.86104" lon="1.81779">
        <ele>139.4</ele>
        <time>2023-12-20T11:03:20Z</time>
      </trkpt>
      <trkpt lat="48.86108" lon="1.81773">
        <ele>139.4</ele>
        <time>2023-12-20T11:03:21Z</time>
      </trkpt>
      <trkpt lat="48.86112" lon="1.81767">
        <ele>139.4</ele>
        <time>2023-12-20T11:03:22Z</time>
      </trkpt>
      <trkpt lat="48.86115" lon="1.81761">
        <ele>138.4</ele>
        <time>2023-12-20T11:03:23Z</time>
      </trkpt>
      <trkpt lat="48.86119" lon="1.81754">
        <ele>138.4</ele>
        <time>2023-12-20T11:03:24Z</time>
      </trkpt>
      <trkpt lat="48.86122" lon="1.81746">
        <ele>138.4</ele>
        <time>2023-12-20T11:03:25Z</time>
      </trkpt>
      <trkpt lat="48.86125" lon="1.81739">
        <ele>138.4</ele>
        <time>2023-12-20T11:03:26Z</time>
      </trkpt>
      <trkpt lat="48.86127" lon="1.81731">
        <ele>139.8</ele>
        <time>2023-12-20T11:03:27Z</time>
      </trkpt>
      <trkpt lat="48.86129" lon="1.81723">
        <ele>139.8</ele>
        <time>2023-12-20T11:03:28Z</time>
      </trkpt>
      <trkpt lat="48.8613" lon="1.81715">
        <ele>139.8</ele>
        <time>2023-12-20T11:03:29Z</time>
      </trkpt>
      <trkpt lat="48.86131" lon="1.81707">
        <ele>138.8</ele>
        <time>2023-12-20T11:03:30Z</time>
      </trkpt>
      <trkpt lat="48.86133" lon="1.81699">
        <ele>137.2</ele>
        <time>2023-12-20T11:03:31Z</time>
      </trkpt>
      <trkpt lat="48.86134" lon="1.81691">
        <ele>137.2</ele>
        <time>2023-12-20T11:03:32Z</time>
      </trkpt>
      <trkpt lat="48.86135" lon="1.81683">
        <ele>137.2</ele>
        <time>2023-12-20T11:03:33Z</time>
      </trkpt>
      <trkpt lat="48.86135" lon="1.81675">
        <ele>137.2</ele>
        <time>2023-12-20T11:03:34Z</time>
      </trkpt>
      <trkpt lat="48.86136" lon="1.81667">
        <ele>138.4</ele>
        <time>2023-12-20T11:03:35Z</time>
      </trkpt>
      <trkpt lat="48.86137" lon="1.8166">
        <ele>138.4</ele>
        <time>2023-12-20T11:03:36Z</time>
      </trkpt>
      <trkpt lat="48.86137" lon="1.81652">
        <ele>138.4</ele>
        <time>2023-12-20T11:03:37Z</time>
      </trkpt>
      <trkpt lat="48.86138" lon="1.81644">
        <ele>139.4</ele>
        <time>2023-12-20T11:03:38Z</time>
      </trkpt>
      <trkpt lat="48.86139" lon="1.81636">
        <ele>139.6</ele>
        <time>2023-12-20T11:03:39Z</time>
      </trkpt>
      <trkpt lat="48.86139" lon="1.81628">
        <ele>139.6</ele>
        <time>2023-12-20T11:03:40Z</time>
      </trkpt>
      <trkpt lat="48.8614" lon="1.8162">
        <ele>139.6</ele>
        <time>2023-12-20T11:03:41Z</time>
      </trkpt>
      <trkpt lat="48.8614" lon="1.81612">
        <ele>140.6</ele>
        <time>2023-12-20T11:03:42Z</time>
      </trkpt>
      <trkpt lat="48.8614" lon="1.81604">
        <ele>140.6</ele>
        <time>2023-12-20T11:03:43Z</time>
      </trkpt>
      <trkpt lat="48.8614" lon="1.81596">
        <ele>140.6</ele>
        <time>2023-12-20T11:03:44Z</time>
      </trkpt>
      <trkpt lat="48.8614" lon="1.81588">
        <ele>140.6</ele>
        <time>2023-12-20T11:03:45Z</time>
      </trkpt>
      <trkpt lat="48.8614" lon="1.8158">
        <ele>140.6</ele>
        <time>2023-12-20T11:03:46Z</time>
      </trkpt>
      <trkpt lat="48.86141" lon="1.81572">
        <ele>142.4</ele>
        <time>2023-12-20T11:03:47Z</time>
      </trkpt>
      <trkpt lat="48.86142" lon="1.81564">
        <ele>142.4</ele>
        <time>2023-12-20T11:03:48Z</time>
      </trkpt>
      <trkpt lat="48.86144" lon="1.81556">
        <ele>142.4</ele>
        <time>2023-12-20T11:03:49Z</time>
      </trkpt>
      <trkpt lat="48.86147" lon="1.81549">
        <ele>142.4</ele>
        <time>2023-12-20T11:03:50Z</time>
      </trkpt>
      <trkpt lat="48.8615" lon="1.81542">
        <ele>141.4</ele>
        <time>2023-12-20T11:03:51Z</time>
      </trkpt>
      <trkpt lat="48.86154" lon="1.81536">
        <ele>141.4</ele>
        <time>2023-12-20T11:03:52Z</time>
      </trkpt>
      <trkpt lat="48.86157" lon="1.8153">
        <ele>141.4</ele>
        <time>2023-12-20T11:03:53Z</time>
      </trkpt>
      <trkpt lat="48.86161" lon="1.81524">
        <ele>141.4</ele>
        <time>2023-12-20T11:03:54Z</time>
      </trkpt>
      <trkpt lat="48.86165" lon="1.81517">
        <ele>141.6</ele>
        <time>2023-12-20T11:03:55Z</time>
      </trkpt>
      <trkpt lat="48.86169" lon="1.81511">
        <ele>141.6</ele>
        <time>2023-12-20T11:03:56Z</time>
      </trkpt>
      <trkpt lat="48.86173" lon="1.81504">
        <ele>141.6</ele>
        <time>2023-12-20T11:03:57Z</time>
      </trkpt>
      <trkpt lat="48.86177" lon="1.81498">
        <ele>142.2</ele>
        <time>2023-12-20T11:03:58Z</time>
      </trkpt>
      <trkpt lat="48.86181" lon="1.81491">
        <ele>142.6</ele>
        <time>2023-12-20T11:03:59Z</time>
      </trkpt>
      <trkpt lat="48.86186" lon="1.81484">
        <ele>142.6</ele>
        <time>2023-12-20T11:04:00Z</time>
      </trkpt>
      <trkpt lat="48.8619" lon="1.81477">
        <ele>142.6</ele>
        <time>2023-12-20T11:04:01Z</time>
      </trkpt>
      <trkpt lat="48.86194" lon="1.81471">
        <ele>142</ele>
        <time>2023-12-20T11:04:02Z</time>
      </trkpt>
      <trkpt lat="48.86198" lon="1.81464">
        <ele>141.2</ele>
        <time>2023-12-20T11:04:03Z</time>
      </trkpt>
      <trkpt lat="48.86202" lon="1.81458">
        <ele>141.2</ele>
        <time>2023-12-20T11:04:04Z</time>
      </trkpt>
      <trkpt lat="48.86207" lon="1.81451">
        <ele>141.2</ele>
        <time>2023-12-20T11:04:05Z</time>
      </trkpt>
      <trkpt lat="48.86212" lon="1.81445">
        <ele>141</ele>
        <time>2023-12-20T11:04:06Z</time>
      </trkpt>
      <trkpt lat="48.86217" lon="1.81438">
        <ele>140</ele>
        <time>2023-12-20T11:04:07Z</time>
      </trkpt>
      <trkpt lat="48.86222" lon="1.81432">
        <ele>140</ele>
        <time>2023-12-20T11:04:08Z</time>
      </trkpt>
      <trkpt lat="48.86229" lon="1.81427">
        <ele>140</ele>
        <time>2023-12-20T11:04:09Z</time>
      </trkpt>
      <trkpt lat="48.86236" lon="1.81424">
        <ele>139</ele>
        <time>2023-12-20T11:04:10Z</time>
      </trkpt>
      <trkpt lat="48.86244" lon="1.81422">
        <ele>137.8</ele>
        <time>2023-12-20T11:04:11Z</time>
      </trkpt>
      <trkpt lat="48.86252" lon="1.81423">
        <ele>137.8</ele>
        <time>2023-12-20T11:04:12Z</time>
      </trkpt>
      <trkpt lat="48.8626" lon="1.81426">
        <ele>137.8</ele>
        <time>2023-12-20T11:04:13Z</time>
      </trkpt>
      <trkpt lat="48.86268" lon="1.81429">
        <ele>136.8</ele>
        <time>2023-12-20T11:04:14Z</time>
      </trkpt>
      <trkpt lat="48.86276" lon="1.81433">
        <ele>135</ele>
        <time>2023-12-20T11:04:15Z</time>
      </trkpt>
      <trkpt lat="48.86284" lon="1.81438">
        <ele>135</ele>
        <time>2023-12-20T11:04:16Z</time>
      </trkpt>
      <trkpt lat="48.86293" lon="1.81442">
        <ele>135</ele>
        <time>2023-12-20T11:04:17Z</time>
      </trkpt>
      <trkpt lat="48.86302" lon="1.81445">
        <ele>135</ele>
        <time>2023-12-20T11:04:18Z</time>
      </trkpt>
      <trkpt lat="48.86309" lon="1.81448">
        <ele>134.6</ele>
        <time>2023-12-20T11:04:19Z</time>
      </trkpt>
      <trkpt lat="48.86317" lon="1.81448">
        <ele>134.6</ele>
        <time>2023-12-20T11:04:20Z</time>
      </trkpt>
      <trkpt lat="48.86324" lon="1.81445">
        <ele>134.6</ele>
        <time>2023-12-20T11:04:21Z</time>
      </trkpt>
      <trkpt lat="48.86331" lon="1.8144">
        <ele>133.6</ele>
        <time>2023-12-20T11:04:22Z</time>
      </trkpt>
      <trkpt lat="48.86339" lon="1.81434">
        <ele>131.4</ele>
        <time>2023-12-20T11:04:23Z</time>
      </trkpt>
      <trkpt lat="48.86346" lon="1.81429">
        <ele>131.4</ele>
        <time>2023-12-20T11:04:24Z</time>
      </trkpt>
      <trkpt lat="48.86353" lon="1.81423">
        <ele>131.4</ele>
        <time>2023-12-20T11:04:25Z</time>
      </trkpt>
      <trkpt lat="48.86361" lon="1.81418">
        <ele>130.4</ele>
        <time>2023-12-20T11:04:26Z</time>
      </trkpt>
      <trkpt lat="48.86368" lon="1.81411">
        <ele>129.2</ele>
        <time>2023-12-20T11:04:27Z</time>
      </trkpt>
      <trkpt lat="48.86376" lon="1.81405">
        <ele>129.2</ele>
        <time>2023-12-20T11:04:28Z</time>
      </trkpt>
      <trkpt lat="48.86384" lon="1.81399">
        <ele>129.2</ele>
        <time>2023-12-20T11:04:29Z</time>
      </trkpt>
      <trkpt lat="48.86392" lon="1.81392">
        <ele>128.2</ele>
        <time>2023-12-20T11:04:30Z</time>
      </trkpt>
      <trkpt lat="48.864" lon="1.81386">
        <ele>127.6</ele>
        <time>2023-12-20T11:04:31Z</time>
      </trkpt>
      <trkpt lat="48.86408" lon="1.81379">
        <ele>127.6</ele>
        <time>2023-12-20T11:04:32Z</time>
      </trkpt>
      <trkpt lat="48.86415" lon="1.81373">
        <ele>127.6</ele>
        <time>2023-12-20T11:04:33Z</time>
      </trkpt>
      <trkpt lat="48.86423" lon="1.81366">
        <ele>127.6</ele>
        <time>2023-12-20T11:04:34Z</time>
      </trkpt>
      <trkpt lat="48.86431" lon="1.8136">
        <ele>129.4</ele>
        <time>2023-12-20T11:04:35Z</time>
      </trkpt>
      <trkpt lat="48.86438" lon="1.81353">
        <ele>129.4</ele>
        <time>2023-12-20T11:04:36Z</time>
      </trkpt>
      <trkpt lat="48.86446" lon="1.81347">
        <ele>129.4</ele>
        <time>2023-12-20T11:04:37Z</time>
      </trkpt>
      <trkpt lat="48.86453" lon="1.8134">
        <ele>129.4</ele>
        <time>2023-12-20T11:04:38Z</time>
      </trkpt>
      <trkpt lat="48.86461" lon="1.81334">
        <ele>129</ele>
        <time>2023-12-20T11:04:39Z</time>
      </trkpt>
      <trkpt lat="48.86468" lon="1.81328">
        <ele>129</ele>
        <time>2023-12-20T11:04:40Z</time>
      </trkpt>
      <trkpt lat="48.86476" lon="1.81322">
        <ele>129</ele>
        <time>2023-12-20T11:04:41Z</time>
      </trkpt>
      <trkpt lat="48.86483" lon="1.81316">
        <ele>128.2</ele>
        <time>2023-12-20T11:04:42Z</time>
      </trkpt>
      <trkpt lat="48.8649" lon="1.8131">
        <ele>128.4</ele>
        <time>2023-12-20T11:04:43Z</time>
      </trkpt>
      <trkpt lat="48.86496" lon="1.81304">
        <ele>128.4</ele>
        <time>2023-12-20T11:04:44Z</time>
      </trkpt>
      <trkpt lat="48.86503" lon="1.81298">
        <ele>128.4</ele>
        <time>2023-12-20T11:04:45Z</time>
      </trkpt>
      <trkpt lat="48.86509" lon="1.81291">
        <ele>129.4</ele>
        <time>2023-12-20T11:04:46Z</time>
      </trkpt>
      <trkpt lat="48.86514" lon="1.81284">
        <ele>129.8</ele>
        <time>2023-12-20T11:04:47Z</time>
      </trkpt>
      <trkpt lat="48.8652" lon="1.81277">
        <ele>129.8</ele>
        <time>2023-12-20T11:04:48Z</time>
      </trkpt>
      <trkpt lat="48.86525" lon="1.8127">
        <ele>129.8</ele>
        <time>2023-12-20T11:04:49Z</time>
      </trkpt>
      <trkpt lat="48.86529" lon="1.81264">
        <ele>129.8</ele>
        <time>2023-12-20T11:04:50Z</time>
      </trkpt>
      <trkpt lat="48.86534" lon="1.81257">
        <ele>130.6</ele>
        <time>2023-12-20T11:04:51Z</time>
      </trkpt>
      <trkpt lat="48.86539" lon="1.8125">
        <ele>130.6</ele>
        <time>2023-12-20T11:04:52Z</time>
      </trkpt>
      <trkpt lat="48.86543" lon="1.81244">
        <ele>130.6</ele>
        <time>2023-12-20T11:04:53Z</time>
      </trkpt>
      <trkpt lat="48.86548" lon="1.81238">
        <ele>131</ele>
        <time>2023-12-20T11:04:54Z</time>
      </trkpt>
      <trkpt lat="48.86552" lon="1.81231">
        <ele>130.6</ele>
        <time>2023-12-20T11:04:55Z</time>
      </trkpt>
      <trkpt lat="48.86556" lon="1.81225">
        <ele>130.6</ele>
        <time>2023-12-20T11:04:56Z</time>
      </trkpt>
      <trkpt lat="48.86561" lon="1.81219">
        <ele>130.6</ele>
        <time>2023-12-20T11:04:57Z</time>
      </trkpt>
      <trkpt lat="48.86565" lon="1.81212">
        <ele>130.6</ele>
        <time>2023-12-20T11:04:58Z</time>
      </trkpt>
      <trkpt lat="48.86569" lon="1.81206">
        <ele>129.8</ele>
        <time>2023-12-20T11:04:59Z</time>
      </trkpt>
      <trkpt lat="48.86573" lon="1.81199">
        <ele>129.8</ele>
        <time>2023-12-20T11:05:00Z</time>
      </trkpt>
      <trkpt lat="48.86577" lon="1.81193">
        <ele>129.8</ele>
        <time>2023-12-20T11:05:01Z</time>
      </trkpt>
      <trkpt lat="48.86582" lon="1.81187">
        <ele>129.8</ele>
        <time>2023-12-20T11:05:02Z</time>
      </trkpt>
      <trkpt lat="48.86586" lon="1.81181">
        <ele>129.6</ele>
        <time>2023-12-20T11:05:03Z</time>
      </trkpt>
      <trkpt lat="48.86591" lon="1.81175">
        <ele>129.6</ele>
        <time>2023-12-20T11:05:04Z</time>
      </trkpt>
      <trkpt lat="48.86595" lon="1.81168">
        <ele>129.6</ele>
        <time>2023-12-20T11:05:05Z</time>
      </trkpt>
      <trkpt lat="48.866" lon="1.81162">
        <ele>130.6</ele>
        <time>2023-12-20T11:05:06Z</time>
      </trkpt>
      <trkpt lat="48.86604" lon="1.81155">
        <ele>130.2</ele>
        <time>2023-12-20T11:05:07Z</time>
      </trkpt>
      <trkpt lat="48.86609" lon="1.81148">
        <ele>130.2</ele>
        <time>2023-12-20T11:05:08Z</time>
      </trkpt>
      <trkpt lat="48.86613" lon="1.81141">
        <ele>130.2</ele>
        <time>2023-12-20T11:05:09Z</time>
      </trkpt>
      <trkpt lat="48.86617" lon="1.81135">
        <ele>130.2</ele>
        <time>2023-12-20T11:05:10Z</time>
      </trkpt>
      <trkpt lat="48.86622" lon="1.81128">
        <ele>129.8</ele>
        <time>2023-12-20T11:05:11Z</time>
      </trkpt>
      <trkpt lat="48.86626" lon="1.81121">
        <ele>129.8</ele>
        <time>2023-12-20T11:05:12Z</time>
      </trkpt>
      <trkpt lat="48.8663" lon="1.81114">
        <ele>129.8</ele>
        <time>2023-12-20T11:05:13Z</time>
      </trkpt>
      <trkpt lat="48.86635" lon="1.81108">
        <ele>129.8</ele>
        <time>2023-12-20T11:05:14Z</time>
      </trkpt>
      <trkpt lat="48.86639" lon="1.81101">
        <ele>129.8</ele>
        <time>2023-12-20T11:05:15Z</time>
      </trkpt>
      <trkpt lat="48.86644" lon="1.81094">
        <ele>129.8</ele>
        <time>2023-12-20T11:05:16Z</time>
      </trkpt>
      <trkpt lat="48.86648" lon="1.81087">
        <ele>129.8</ele>
        <time>2023-12-20T11:05:17Z</time>
      </trkpt>
      <trkpt lat="48.86653" lon="1.81079">
        <ele>129.8</ele>
        <time>2023-12-20T11:05:18Z</time>
      </trkpt>
      <trkpt lat="48.86657" lon="1.81071">
        <ele>129.4</ele>
        <time>2023-12-20T11:05:19Z</time>
      </trkpt>
      <trkpt lat="48.86661" lon="1.81064">
        <ele>129.4</ele>
        <time>2023-12-20T11:05:20Z</time>
      </trkpt>
      <trkpt lat="48.86666" lon="1.81055">
        <ele>129.4</ele>
        <time>2023-12-20T11:05:21Z</time>
      </trkpt>
      <trkpt lat="48.8667" lon="1.81047">
        <ele>128.4</ele>
        <time>2023-12-20T11:05:22Z</time>
      </trkpt>
      <trkpt lat="48.86674" lon="1.81038">
        <ele>126.4</ele>
        <time>2023-12-20T11:05:23Z</time>
      </trkpt>
      <trkpt lat="48.86678" lon="1.81029">
        <ele>126.4</ele>
        <time>2023-12-20T11:05:24Z</time>
      </trkpt>
      <trkpt lat="48.86682" lon="1.8102">
        <ele>126.4</ele>
        <time>2023-12-20T11:05:25Z</time>
      </trkpt>
      <trkpt lat="48.86686" lon="1.81012">
        <ele>126.4</ele>
        <time>2023-12-20T11:05:26Z</time>
      </trkpt>
      <trkpt lat="48.8669" lon="1.81003">
        <ele>126.4</ele>
        <time>2023-12-20T11:05:27Z</time>
      </trkpt>
      <trkpt lat="48.86693" lon="1.80995">
        <ele>126.4</ele>
        <time>2023-12-20T11:05:28Z</time>
      </trkpt>
      <trkpt lat="48.86697" lon="1.80986">
        <ele>126.4</ele>
        <time>2023-12-20T11:05:29Z</time>
      </trkpt>
      <trkpt lat="48.86701" lon="1.80978">
        <ele>125.8</ele>
        <time>2023-12-20T11:05:30Z</time>
      </trkpt>
      <trkpt lat="48.86704" lon="1.80969">
        <ele>126</ele>
        <time>2023-12-20T11:05:31Z</time>
      </trkpt>
      <trkpt lat="48.86708" lon="1.8096">
        <ele>126</ele>
        <time>2023-12-20T11:05:32Z</time>
      </trkpt>
      <trkpt lat="48.86711" lon="1.80951">
        <ele>126</ele>
        <time>2023-12-20T11:05:33Z</time>
      </trkpt>
      <trkpt lat="48.86714" lon="1.80943">
        <ele>126</ele>
        <time>2023-12-20T11:05:34Z</time>
      </trkpt>
      <trkpt lat="48.86717" lon="1.80933">
        <ele>126.8</ele>
        <time>2023-12-20T11:05:35Z</time>
      </trkpt>
      <trkpt lat="48.8672" lon="1.80924">
        <ele>126.8</ele>
        <time>2023-12-20T11:05:36Z</time>
      </trkpt>
      <trkpt lat="48.86723" lon="1.80915">
        <ele>126.8</ele>
        <time>2023-12-20T11:05:37Z</time>
      </trkpt>
      <trkpt lat="48.86726" lon="1.80906">
        <ele>126.6</ele>
        <time>2023-12-20T11:05:38Z</time>
      </trkpt>
      <trkpt lat="48.86729" lon="1.80896">
        <ele>126.4</ele>
        <time>2023-12-20T11:05:39Z</time>
      </trkpt>
      <trkpt lat="48.86731" lon="1.80887">
        <ele>126.4</ele>
        <time>2023-12-20T11:05:40Z</time>
      </trkpt>
      <trkpt lat="48.86734" lon="1.80877">
        <ele>126.4</ele>
        <time>2023-12-20T11:05:41Z</time>
      </trkpt>
      <trkpt lat="48.86736" lon="1.80868">
        <ele>126.4</ele>
        <time>2023-12-20T11:05:42Z</time>
      </trkpt>
      <trkpt lat="48.86738" lon="1.8086">
        <ele>126.6</ele>
        <time>2023-12-20T11:05:43Z</time>
      </trkpt>
      <trkpt lat="48.8674" lon="1.80851">
        <ele>126.6</ele>
        <time>2023-12-20T11:05:44Z</time>
      </trkpt>
      <trkpt lat="48.86742" lon="1.80842">
        <ele>126.6</ele>
        <time>2023-12-20T11:05:45Z</time>
      </trkpt>
      <trkpt lat="48.86743" lon="1.80833">
        <ele>126.6</ele>
        <time>2023-12-20T11:05:46Z</time>
      </trkpt>
      <trkpt lat="48.86744" lon="1.80825">
        <ele>126.8</ele>
        <time>2023-12-20T11:05:47Z</time>
      </trkpt>
      <trkpt lat="48.86746" lon="1.80817">
        <ele>126.8</ele>
        <time>2023-12-20T11:05:48Z</time>
      </trkpt>
      <trkpt lat="48.86747" lon="1.80808">
        <ele>126.8</ele>
        <time>2023-12-20T11:05:49Z</time>
      </trkpt>
      <trkpt lat="48.86748" lon="1.80799">
        <ele>126.6</ele>
        <time>2023-12-20T11:05:50Z</time>
      </trkpt>
      <trkpt lat="48.86749" lon="1.8079">
        <ele>126</ele>
        <time>2023-12-20T11:05:51Z</time>
      </trkpt>
      <trkpt lat="48.86751" lon="1.8078">
        <ele>126</ele>
        <time>2023-12-20T11:05:52Z</time>
      </trkpt>
      <trkpt lat="48.86752" lon="1.80771">
        <ele>126</ele>
        <time>2023-12-20T11:05:53Z</time>
      </trkpt>
      <trkpt lat="48.86752" lon="1.80762">
        <ele>125</ele>
        <time>2023-12-20T11:05:54Z</time>
      </trkpt>
      <trkpt lat="48.86753" lon="1.80752">
        <ele>124.6</ele>
        <time>2023-12-20T11:05:55Z</time>
      </trkpt>
      <trkpt lat="48.86754" lon="1.80743">
        <ele>124.6</ele>
        <time>2023-12-20T11:05:56Z</time>
      </trkpt>
      <trkpt lat="48.86754" lon="1.80734">
        <ele>124.6</ele>
        <time>2023-12-20T11:05:57Z</time>
      </trkpt>
      <trkpt lat="48.86755" lon="1.80726">
        <ele>124.6</ele>
        <time>2023-12-20T11:05:58Z</time>
      </trkpt>
      <trkpt lat="48.86755" lon="1.80717">
        <ele>125</ele>
        <time>2023-12-20T11:05:59Z</time>
      </trkpt>
      <trkpt lat="48.86756" lon="1.80709">
        <ele>125</ele>
        <time>2023-12-20T11:06:00Z</time>
      </trkpt>
      <trkpt lat="48.86757" lon="1.807">
        <ele>125</ele>
        <time>2023-12-20T11:06:01Z</time>
      </trkpt>
      <trkpt lat="48.86757" lon="1.80692">
        <ele>125.4</ele>
        <time>2023-12-20T11:06:02Z</time>
      </trkpt>
      <trkpt lat="48.86758" lon="1.80684">
        <ele>125.6</ele>
        <time>2023-12-20T11:06:03Z</time>
      </trkpt>
      <trkpt lat="48.86758" lon="1.80676">
        <ele>125.6</ele>
        <time>2023-12-20T11:06:04Z</time>
      </trkpt>
      <trkpt lat="48.86759" lon="1.80667">
        <ele>125.6</ele>
        <time>2023-12-20T11:06:05Z</time>
      </trkpt>
      <trkpt lat="48.8676" lon="1.80659">
        <ele>125.6</ele>
        <time>2023-12-20T11:06:06Z</time>
      </trkpt>
      <trkpt lat="48.8676" lon="1.80651">
        <ele>126</ele>
        <time>2023-12-20T11:06:07Z</time>
      </trkpt>
      <trkpt lat="48.86761" lon="1.80643">
        <ele>126</ele>
        <time>2023-12-20T11:06:08Z</time>
      </trkpt>
      <trkpt lat="48.86762" lon="1.80635">
        <ele>126</ele>
        <time>2023-12-20T11:06:09Z</time>
      </trkpt>
      <trkpt lat="48.86763" lon="1.80627">
        <ele>126.4</ele>
        <time>2023-12-20T11:06:10Z</time>
      </trkpt>
      <trkpt lat="48.86764" lon="1.80619">
        <ele>126.6</ele>
        <time>2023-12-20T11:06:11Z</time>
      </trkpt>
      <trkpt lat="48.86765" lon="1.80612">
        <ele>126.6</ele>
        <time>2023-12-20T11:06:12Z</time>
      </trkpt>
      <trkpt lat="48.86766" lon="1.80604">
        <ele>126.6</ele>
        <time>2023-12-20T11:06:13Z</time>
      </trkpt>
      <trkpt lat="48.86768" lon="1.80596">
        <ele>127</ele>
        <time>2023-12-20T11:06:14Z</time>
      </trkpt>
      <trkpt lat="48.86769" lon="1.80589">
        <ele>127.6</ele>
        <time>2023-12-20T11:06:15Z</time>
      </trkpt>
      <trkpt lat="48.86771" lon="1.80581">
        <ele>127.6</ele>
        <time>2023-12-20T11:06:16Z</time>
      </trkpt>
      <trkpt lat="48.86772" lon="1.80574">
        <ele>127.6</ele>
        <time>2023-12-20T11:06:17Z</time>
      </trkpt>
      <trkpt lat="48.86774" lon="1.80566">
        <ele>127.6</ele>
        <time>2023-12-20T11:06:18Z</time>
      </trkpt>
      <trkpt lat="48.86776" lon="1.80559">
        <ele>127.8</ele>
        <time>2023-12-20T11:06:19Z</time>
      </trkpt>
      <trkpt lat="48.86778" lon="1.80552">
        <ele>127.8</ele>
        <time>2023-12-20T11:06:20Z</time>
      </trkpt>
      <trkpt lat="48.8678" lon="1.80544">
        <ele>127.8</ele>
        <time>2023-12-20T11:06:21Z</time>
      </trkpt>
      <trkpt lat="48.86782" lon="1.80537">
        <ele>128.2</ele>
        <time>2023-12-20T11:06:22Z</time>
      </trkpt>
      <trkpt lat="48.86784" lon="1.8053">
        <ele>128.6</ele>
        <time>2023-12-20T11:06:23Z</time>
      </trkpt>
      <trkpt lat="48.86786" lon="1.80523">
        <ele>128.6</ele>
        <time>2023-12-20T11:06:24Z</time>
      </trkpt>
      <trkpt lat="48.86788" lon="1.80517">
        <ele>128.6</ele>
        <time>2023-12-20T11:06:25Z</time>
      </trkpt>
      <trkpt lat="48.8679" lon="1.8051">
        <ele>128.8</ele>
        <time>2023-12-20T11:06:26Z</time>
      </trkpt>
      <trkpt lat="48.86792" lon="1.80503">
        <ele>129.4</ele>
        <time>2023-12-20T11:06:27Z</time>
      </trkpt>
      <trkpt lat="48.86794" lon="1.80496">
        <ele>129.4</ele>
        <time>2023-12-20T11:06:28Z</time>
      </trkpt>
      <trkpt lat="48.86795" lon="1.80489">
        <ele>129.4</ele>
        <time>2023-12-20T11:06:29Z</time>
      </trkpt>
      <trkpt lat="48.86797" lon="1.80483">
        <ele>129.4</ele>
        <time>2023-12-20T11:06:30Z</time>
      </trkpt>
      <trkpt lat="48.868" lon="1.80476">
        <ele>130</ele>
        <time>2023-12-20T11:06:31Z</time>
      </trkpt>
      <trkpt lat="48.86802" lon="1.8047">
        <ele>130</ele>
        <time>2023-12-20T11:06:32Z</time>
      </trkpt>
      <trkpt lat="48.86804" lon="1.80463">
        <ele>130</ele>
        <time>2023-12-20T11:06:33Z</time>
      </trkpt>
      <trkpt lat="48.86805" lon="1.80456">
        <ele>130</ele>
        <time>2023-12-20T11:06:34Z</time>
      </trkpt>
      <trkpt lat="48.86807" lon="1.80449">
        <ele>129</ele>
        <time>2023-12-20T11:06:35Z</time>
      </trkpt>
      <trkpt lat="48.86808" lon="1.80442">
        <ele>129</ele>
        <time>2023-12-20T11:06:36Z</time>
      </trkpt>
      <trkpt lat="48.8681" lon="1.80435">
        <ele>129</ele>
        <time>2023-12-20T11:06:37Z</time>
      </trkpt>
      <trkpt lat="48.86812" lon="1.80428">
        <ele>129.4</ele>
        <time>2023-12-20T11:06:38Z</time>
      </trkpt>
      <trkpt lat="48.86813" lon="1.8042">
        <ele>129.8</ele>
        <time>2023-12-20T11:06:39Z</time>
      </trkpt>
      <trkpt lat="48.86815" lon="1.80413">
        <ele>129.8</ele>
        <time>2023-12-20T11:06:40Z</time>
      </trkpt>
      <trkpt lat="48.86817" lon="1.80406">
        <ele>129.8</ele>
        <time>2023-12-20T11:06:41Z</time>
      </trkpt>
      <trkpt lat="48.86818" lon="1.80399">
        <ele>129.8</ele>
        <time>2023-12-20T11:06:42Z</time>
      </trkpt>
      <trkpt lat="48.86819" lon="1.80392">
        <ele>129.8</ele>
        <time>2023-12-20T11:06:43Z</time>
      </trkpt>
      <trkpt lat="48.8682" lon="1.80384">
        <ele>129.8</ele>
        <time>2023-12-20T11:06:44Z</time>
      </trkpt>
      <trkpt lat="48.86822" lon="1.80377">
        <ele>129.8</ele>
        <time>2023-12-20T11:06:45Z</time>
      </trkpt>
      <trkpt lat="48.86823" lon="1.80369">
        <ele>129.8</ele>
        <time>2023-12-20T11:06:46Z</time>
      </trkpt>
      <trkpt lat="48.86824" lon="1.80362">
        <ele>130.2</ele>
        <time>2023-12-20T11:06:47Z</time>
      </trkpt>
      <trkpt lat="48.86826" lon="1.80354">
        <ele>130.2</ele>
        <time>2023-12-20T11:06:48Z</time>
      </trkpt>
      <trkpt lat="48.86827" lon="1.80347">
        <ele>130.2</ele>
        <time>2023-12-20T11:06:49Z</time>
      </trkpt>
      <trkpt lat="48.86828" lon="1.80339">
        <ele>130.2</ele>
        <time>2023-12-20T11:06:50Z</time>
      </trkpt>
      <trkpt lat="48.86829" lon="1.80332">
        <ele>130.6</ele>
        <time>2023-12-20T11:06:51Z</time>
      </trkpt>
      <trkpt lat="48.8683" lon="1.80325">
        <ele>130.6</ele>
        <time>2023-12-20T11:06:52Z</time>
      </trkpt>
      <trkpt lat="48.86832" lon="1.80318">
        <ele>130.6</ele>
        <time>2023-12-20T11:06:53Z</time>
      </trkpt>
      <trkpt lat="48.86833" lon="1.80311">
        <ele>130.6</ele>
        <time>2023-12-20T11:06:54Z</time>
      </trkpt>
      <trkpt lat="48.86835" lon="1.80305">
        <ele>131.4</ele>
        <time>2023-12-20T11:06:55Z</time>
      </trkpt>
      <trkpt lat="48.86836" lon="1.80298">
        <ele>131.4</ele>
        <time>2023-12-20T11:06:56Z</time>
      </trkpt>
      <trkpt lat="48.86837" lon="1.80291">
        <ele>131.4</ele>
        <time>2023-12-20T11:06:57Z</time>
      </trkpt>
      <trkpt lat="48.86839" lon="1.80284">
        <ele>131.4</ele>
        <time>2023-12-20T11:06:58Z</time>
      </trkpt>
      <trkpt lat="48.8684" lon="1.80277">
        <ele>131.6</ele>
        <time>2023-12-20T11:06:59Z</time>
      </trkpt>
      <trkpt lat="48.86842" lon="1.8027">
        <ele>131.6</ele>
        <time>2023-12-20T11:07:00Z</time>
      </trkpt>
      <trkpt lat="48.86843" lon="1.80263">
        <ele>131.6</ele>
        <time>2023-12-20T11:07:01Z</time>
      </trkpt>
      <trkpt lat="48.86845" lon="1.80256">
        <ele>131</ele>
        <time>2023-12-20T11:07:02Z</time>
      </trkpt>
      <trkpt lat="48.86847" lon="1.80249">
        <ele>131.8</ele>
        <time>2023-12-20T11:07:03Z</time>
      </trkpt>
      <trkpt lat="48.86848" lon="1.80242">
        <ele>131.8</ele>
        <time>2023-12-20T11:07:04Z</time>
      </trkpt>
      <trkpt lat="48.8685" lon="1.80235">
        <ele>131.8</ele>
        <time>2023-12-20T11:07:05Z</time>
      </trkpt>
      <trkpt lat="48.86852" lon="1.80228">
        <ele>131.8</ele>
        <time>2023-12-20T11:07:06Z</time>
      </trkpt>
      <trkpt lat="48.86854" lon="1.80222">
        <ele>131.8</ele>
        <time>2023-12-20T11:07:07Z</time>
      </trkpt>
      <trkpt lat="48.86855" lon="1.80215">
        <ele>131.8</ele>
        <time>2023-12-20T11:07:08Z</time>
      </trkpt>
      <trkpt lat="48.86857" lon="1.80208">
        <ele>131.8</ele>
        <time>2023-12-20T11:07:09Z</time>
      </trkpt>
      <trkpt lat="48.86859" lon="1.80202">
        <ele>131.8</ele>
        <time>2023-12-20T11:07:10Z</time>
      </trkpt>
      <trkpt lat="48.86861" lon="1.80195">
        <ele>131.8</ele>
        <time>2023-12-20T11:07:11Z</time>
      </trkpt>
      <trkpt lat="48.86864" lon="1.80188">
        <ele>131.8</ele>
        <time>2023-12-20T11:07:12Z</time>
      </trkpt>
      <trkpt lat="48.86866" lon="1.80182">
        <ele>131.8</ele>
        <time>2023-12-20T11:07:13Z</time>
      </trkpt>
      <trkpt lat="48.86868" lon="1.80175">
        <ele>132.2</ele>
        <time>2023-12-20T11:07:14Z</time>
      </trkpt>
      <trkpt lat="48.86871" lon="1.80168">
        <ele>132.2</ele>
        <time>2023-12-20T11:07:15Z</time>
      </trkpt>
      <trkpt lat="48.86873" lon="1.80162">
        <ele>132.2</ele>
        <time>2023-12-20T11:07:16Z</time>
      </trkpt>
      <trkpt lat="48.86876" lon="1.80155">
        <ele>132.2</ele>
        <time>2023-12-20T11:07:17Z</time>
      </trkpt>
      <trkpt lat="48.86878" lon="1.80149">
        <ele>132.6</ele>
        <time>2023-12-20T11:07:18Z</time>
      </trkpt>
      <trkpt lat="48.8688" lon="1.80142">
        <ele>132.4</ele>
        <time>2023-12-20T11:07:19Z</time>
      </trkpt>
      <trkpt lat="48.86883" lon="1.80136">
        <ele>132.4</ele>
        <time>2023-12-20T11:07:20Z</time>
      </trkpt>
      <trkpt lat="48.86886" lon="1.80129">
        <ele>132.4</ele>
        <time>2023-12-20T11:07:21Z</time>
      </trkpt>
      <trkpt lat="48.86888" lon="1.80123">
        <ele>132.4</ele>
        <time>2023-12-20T11:07:22Z</time>
      </trkpt>
      <trkpt lat="48.86891" lon="1.80116">
        <ele>133</ele>
        <time>2023-12-20T11:07:23Z</time>
      </trkpt>
      <trkpt lat="48.86894" lon="1.80109">
        <ele>133</ele>
        <time>2023-12-20T11:07:24Z</time>
      </trkpt>
      <trkpt lat="48.86896" lon="1.80102">
        <ele>133</ele>
        <time>2023-12-20T11:07:25Z</time>
      </trkpt>
      <trkpt lat="48.86899" lon="1.80094">
        <ele>133</ele>
        <time>2023-12-20T11:07:26Z</time>
      </trkpt>
      <trkpt lat="48.86902" lon="1.80087">
        <ele>132.4</ele>
        <time>2023-12-20T11:07:27Z</time>
      </trkpt>
      <trkpt lat="48.86904" lon="1.8008">
        <ele>132.4</ele>
        <time>2023-12-20T11:07:28Z</time>
      </trkpt>
      <trkpt lat="48.86907" lon="1.80072">
        <ele>132.4</ele>
        <time>2023-12-20T11:07:29Z</time>
      </trkpt>
      <trkpt lat="48.8691" lon="1.80065">
        <ele>132.8</ele>
        <time>2023-12-20T11:07:30Z</time>
      </trkpt>
      <trkpt lat="48.86912" lon="1.80057">
        <ele>132.4</ele>
        <time>2023-12-20T11:07:31Z</time>
      </trkpt>
      <trkpt lat="48.86915" lon="1.8005">
        <ele>132.4</ele>
        <time>2023-12-20T11:07:32Z</time>
      </trkpt>
      <trkpt lat="48.86918" lon="1.80044">
        <ele>132.4</ele>
        <time>2023-12-20T11:07:33Z</time>
      </trkpt>
      <trkpt lat="48.86921" lon="1.80037">
        <ele>132.4</ele>
        <time>2023-12-20T11:07:34Z</time>
      </trkpt>
      <trkpt lat="48.86925" lon="1.80032">
        <ele>132.6</ele>
        <time>2023-12-20T11:07:35Z</time>
      </trkpt>
      <trkpt lat="48.8693" lon="1.80028">
        <ele>132.6</ele>
        <time>2023-12-20T11:07:36Z</time>
      </trkpt>
      <trkpt lat="48.86933" lon="1.80024">
        <ele>132.6</ele>
        <time>2023-12-20T11:07:37Z</time>
      </trkpt>
      <trkpt lat="48.86935" lon="1.80019">
        <ele>132.6</ele>
        <time>2023-12-20T11:07:38Z</time>
      </trkpt>
      <trkpt lat="48.86934" lon="1.80013">
        <ele>132.4</ele>
        <time>2023-12-20T11:07:39Z</time>
      </trkpt>
      <trkpt lat="48.86932" lon="1.80009">
        <ele>132.4</ele>
        <time>2023-12-20T11:07:40Z</time>
      </trkpt>
      <trkpt lat="48.86928" lon="1.80007">
        <ele>132.4</ele>
        <time>2023-12-20T11:07:41Z</time>
      </trkpt>
      <trkpt lat="48.86925" lon="1.80005">
        <ele>132.4</ele>
        <time>2023-12-20T11:07:42Z</time>
      </trkpt>
      <trkpt lat="48.86921" lon="1.80002">
        <ele>132.2</ele>
        <time>2023-12-20T11:07:43Z</time>
      </trkpt>
      <trkpt lat="48.86917" lon="1.79999">
        <ele>132.2</ele>
        <time>2023-12-20T11:07:44Z</time>
      </trkpt>
      <trkpt lat="48.86913" lon="1.79996">
        <ele>132.2</ele>
        <time>2023-12-20T11:07:45Z</time>
      </trkpt>
      <trkpt lat="48.8691" lon="1.79993">
        <ele>132.2</ele>
        <time>2023-12-20T11:07:46Z</time>
      </trkpt>
      <trkpt lat="48.86906" lon="1.79989">
        <ele>132.6</ele>
        <time>2023-12-20T11:07:47Z</time>
      </trkpt>
      <trkpt lat="48.86903" lon="1.79986">
        <ele>132.6</ele>
        <time>2023-12-20T11:07:48Z</time>
      </trkpt>
      <trkpt lat="48.869" lon="1.79982">
        <ele>132.6</ele>
        <time>2023-12-20T11:07:49Z</time>
      </trkpt>
      <trkpt lat="48.86896" lon="1.79979">
        <ele>133.6</ele>
        <time>2023-12-20T11:07:50Z</time>
      </trkpt>
      <trkpt lat="48.86893" lon="1.79975">
        <ele>133.4</ele>
        <time>2023-12-20T11:07:51Z</time>
      </trkpt>
      <trkpt lat="48.86889" lon="1.79972">
        <ele>133.4</ele>
        <time>2023-12-20T11:07:52Z</time>
      </trkpt>
      <trkpt lat="48.86886" lon="1.79968">
        <ele>133.4</ele>
        <time>2023-12-20T11:07:53Z</time>
      </trkpt>
      <trkpt lat="48.86882" lon="1.79965">
        <ele>134</ele>
        <time>2023-12-20T11:07:54Z</time>
      </trkpt>
      <trkpt lat="48.86879" lon="1.79961">
        <ele>134.8</ele>
        <time>2023-12-20T11:07:55Z</time>
      </trkpt>
      <trkpt lat="48.86876" lon="1.79958">
        <ele>134.8</ele>
        <time>2023-12-20T11:07:56Z</time>
      </trkpt>
      <trkpt lat="48.86873" lon="1.79955">
        <ele>134.8</ele>
        <time>2023-12-20T11:07:57Z</time>
      </trkpt>
      <trkpt lat="48.86869" lon="1.79952">
        <ele>134.8</ele>
        <time>2023-12-20T11:07:58Z</time>
      </trkpt>
      <trkpt lat="48.86866" lon="1.79948">
        <ele>135.8</ele>
        <time>2023-12-20T11:07:59Z</time>
      </trkpt>
      <trkpt lat="48.86862" lon="1.79945">
        <ele>135.8</ele>
        <time>2023-12-20T11:08:00Z</time>
      </trkpt>
      <trkpt lat="48.86859" lon="1.79941">
        <ele>135.8</ele>
        <time>2023-12-20T11:08:01Z</time>
      </trkpt>
      <trkpt lat="48.86856" lon="1.79938">
        <ele>135.8</ele>
        <time>2023-12-20T11:08:02Z</time>
      </trkpt>
      <trkpt lat="48.86853" lon="1.79934">
        <ele>136.4</ele>
        <time>2023-12-20T11:08:03Z</time>
      </trkpt>
      <trkpt lat="48.86849" lon="1.79931">
        <ele>136.4</ele>
        <time>2023-12-20T11:08:04Z</time>
      </trkpt>
      <trkpt lat="48.86846" lon="1.79927">
        <ele>136.4</ele>
        <time>2023-12-20T11:08:05Z</time>
      </trkpt>
      <trkpt lat="48.86842" lon="1.79924">
        <ele>136.4</ele>
        <time>2023-12-20T11:08:06Z</time>
      </trkpt>
      <trkpt lat="48.86839" lon="1.79921">
        <ele>137.4</ele>
        <time>2023-12-20T11:08:07Z</time>
      </trkpt>
      <trkpt lat="48.86836" lon="1.79918">
        <ele>137.4</ele>
        <time>2023-12-20T11:08:08Z</time>
      </trkpt>
      <trkpt lat="48.86833" lon="1.79915">
        <ele>137.4</ele>
        <time>2023-12-20T11:08:09Z</time>
      </trkpt>
      <trkpt lat="48.8683" lon="1.79911">
        <ele>137.4</ele>
        <time>2023-12-20T11:08:10Z</time>
      </trkpt>
      <trkpt lat="48.86826" lon="1.79908">
        <ele>137.8</ele>
        <time>2023-12-20T11:08:11Z</time>
      </trkpt>
      <trkpt lat="48.86823" lon="1.79905">
        <ele>137.8</ele>
        <time>2023-12-20T11:08:12Z</time>
      </trkpt>
      <trkpt lat="48.8682" lon="1.79902">
        <ele>137.8</ele>
        <time>2023-12-20T11:08:13Z</time>
      </trkpt>
      <trkpt lat="48.86817" lon="1.79899">
        <ele>138.4</ele>
        <time>2023-12-20T11:08:14Z</time>
      </trkpt>
      <trkpt lat="48.86814" lon="1.79895">
        <ele>138.4</ele>
        <time>2023-12-20T11:08:15Z</time>
      </trkpt>
      <trkpt lat="48.86811" lon="1.79892">
        <ele>138.4</ele>
        <time>2023-12-20T11:08:16Z</time>
      </trkpt>
      <trkpt lat="48.86807" lon="1.79889">
        <ele>138.4</ele>
        <time>2023-12-20T11:08:17Z</time>
      </trkpt>
      <trkpt lat="48.86804" lon="1.79885">
        <ele>139.4</ele>
        <time>2023-12-20T11:08:18Z</time>
      </trkpt>
      <trkpt lat="48.86801" lon="1.79882">
        <ele>139.6</ele>
        <time>2023-12-20T11:08:19Z</time>
      </trkpt>
      <trkpt lat="48.86798" lon="1.79879">
        <ele>139.6</ele>
        <time>2023-12-20T11:08:20Z</time>
      </trkpt>
      <trkpt lat="48.86795" lon="1.79876">
        <ele>139.6</ele>
        <time>2023-12-20T11:08:21Z</time>
      </trkpt>
      <trkpt lat="48.86792" lon="1.79873">
        <ele>139.8</ele>
        <time>2023-12-20T11:08:22Z</time>
      </trkpt>
      <trkpt lat="48.86789" lon="1.7987">
        <ele>139.6</ele>
        <time>2023-12-20T11:08:23Z</time>
      </trkpt>
      <trkpt lat="48.86786" lon="1.79867">
        <ele>139.6</ele>
        <time>2023-12-20T11:08:24Z</time>
      </trkpt>
      <trkpt lat="48.86783" lon="1.79864">
        <ele>139.6</ele>
        <time>2023-12-20T11:08:25Z</time>
      </trkpt>
      <trkpt lat="48.8678" lon="1.79861">
        <ele>140.6</ele>
        <time>2023-12-20T11:08:26Z</time>
      </trkpt>
      <trkpt lat="48.86777" lon="1.79858">
        <ele>141</ele>
        <time>2023-12-20T11:08:27Z</time>
      </trkpt>
      <trkpt lat="48.86774" lon="1.79855">
        <ele>141</ele>
        <time>2023-12-20T11:08:28Z</time>
      </trkpt>
      <trkpt lat="48.86771" lon="1.79852">
        <ele>141</ele>
        <time>2023-12-20T11:08:29Z</time>
      </trkpt>
      <trkpt lat="48.86768" lon="1.79849">
        <ele>141</ele>
        <time>2023-12-20T11:08:30Z</time>
      </trkpt>
      <trkpt lat="48.86765" lon="1.79846">
        <ele>141.8</ele>
        <time>2023-12-20T11:08:31Z</time>
      </trkpt>
      <trkpt lat="48.86762" lon="1.79842">
        <ele>141.8</ele>
        <time>2023-12-20T11:08:32Z</time>
      </trkpt>
      <trkpt lat="48.86759" lon="1.79839">
        <ele>141.8</ele>
        <time>2023-12-20T11:08:33Z</time>
      </trkpt>
      <trkpt lat="48.86756" lon="1.79836">
        <ele>141.8</ele>
        <time>2023-12-20T11:08:34Z</time>
      </trkpt>
      <trkpt lat="48.86753" lon="1.79833">
        <ele>141.6</ele>
        <time>2023-12-20T11:08:35Z</time>
      </trkpt>
      <trkpt lat="48.8675" lon="1.7983">
        <ele>141.6</ele>
        <time>2023-12-20T11:08:36Z</time>
      </trkpt>
      <trkpt lat="48.86747" lon="1.79827">
        <ele>141.6</ele>
        <time>2023-12-20T11:08:37Z</time>
      </trkpt>
      <trkpt lat="48.86744" lon="1.79824">
        <ele>142.2</ele>
        <time>2023-12-20T11:08:38Z</time>
      </trkpt>
      <trkpt lat="48.86741" lon="1.7982">
        <ele>143</ele>
        <time>2023-12-20T11:08:39Z</time>
      </trkpt>
      <trkpt lat="48.86738" lon="1.79817">
        <ele>143</ele>
        <time>2023-12-20T11:08:40Z</time>
      </trkpt>
      <trkpt lat="48.86735" lon="1.79814">
        <ele>143</ele>
        <time>2023-12-20T11:08:41Z</time>
      </trkpt>
      <trkpt lat="48.86732" lon="1.79812">
        <ele>143</ele>
        <time>2023-12-20T11:08:42Z</time>
      </trkpt>
      <trkpt lat="48.86729" lon="1.79808">
        <ele>143.6</ele>
        <time>2023-12-20T11:08:43Z</time>
      </trkpt>
      <trkpt lat="48.86726" lon="1.79805">
        <ele>143.6</ele>
        <time>2023-12-20T11:08:44Z</time>
      </trkpt>
      <trkpt lat="48.86723" lon="1.79802">
        <ele>143.6</ele>
        <time>2023-12-20T11:08:45Z</time>
      </trkpt>
      <trkpt lat="48.8672" lon="1.79799">
        <ele>143.6</ele>
        <time>2023-12-20T11:08:46Z</time>
      </trkpt>
      <trkpt lat="48.86717" lon="1.79796">
        <ele>144.2</ele>
        <time>2023-12-20T11:08:47Z</time>
      </trkpt>
      <trkpt lat="48.86714" lon="1.79793">
        <ele>144.2</ele>
        <time>2023-12-20T11:08:48Z</time>
      </trkpt>
      <trkpt lat="48.86711" lon="1.79791">
        <ele>144.2</ele>
        <time>2023-12-20T11:08:49Z</time>
      </trkpt>
      <trkpt lat="48.86708" lon="1.79787">
        <ele>144.2</ele>
        <time>2023-12-20T11:08:50Z</time>
      </trkpt>
      <trkpt lat="48.86705" lon="1.79784">
        <ele>144.2</ele>
        <time>2023-12-20T11:08:51Z</time>
      </trkpt>
      <trkpt lat="48.86702" lon="1.79781">
        <ele>144.2</ele>
        <time>2023-12-20T11:08:52Z</time>
      </trkpt>
      <trkpt lat="48.86699" lon="1.79778">
        <ele>144.2</ele>
        <time>2023-12-20T11:08:53Z</time>
      </trkpt>
      <trkpt lat="48.86696" lon="1.79775">
        <ele>145.2</ele>
        <time>2023-12-20T11:08:54Z</time>
      </trkpt>
      <trkpt lat="48.86693" lon="1.79771">
        <ele>146.2</ele>
        <time>2023-12-20T11:08:55Z</time>
      </trkpt>
      <trkpt lat="48.8669" lon="1.79768">
        <ele>146.2</ele>
        <time>2023-12-20T11:08:56Z</time>
      </trkpt>
      <trkpt lat="48.86687" lon="1.79765">
        <ele>146.2</ele>
        <time>2023-12-20T11:08:57Z</time>
      </trkpt>
      <trkpt lat="48.86683" lon="1.79761">
        <ele>146.2</ele>
        <time>2023-12-20T11:08:58Z</time>
      </trkpt>
      <trkpt lat="48.86681" lon="1.79757">
        <ele>146.6</ele>
        <time>2023-12-20T11:08:59Z</time>
      </trkpt>
      <trkpt lat="48.86678" lon="1.79754">
        <ele>146.6</ele>
        <time>2023-12-20T11:09:00Z</time>
      </trkpt>
      <trkpt lat="48.86674" lon="1.79751">
        <ele>146.6</ele>
        <time>2023-12-20T11:09:01Z</time>
      </trkpt>
      <trkpt lat="48.86671" lon="1.79748">
        <ele>146.6</ele>
        <time>2023-12-20T11:09:02Z</time>
      </trkpt>
      <trkpt lat="48.86668" lon="1.79745">
        <ele>147</ele>
        <time>2023-12-20T11:09:03Z</time>
      </trkpt>
      <trkpt lat="48.86665" lon="1.79743">
        <ele>147</ele>
        <time>2023-12-20T11:09:04Z</time>
      </trkpt>
      <trkpt lat="48.86662" lon="1.7974">
        <ele>147</ele>
        <time>2023-12-20T11:09:05Z</time>
      </trkpt>
      <trkpt lat="48.86658" lon="1.79737">
        <ele>147.8</ele>
        <time>2023-12-20T11:09:06Z</time>
      </trkpt>
      <trkpt lat="48.86655" lon="1.79734">
        <ele>148.8</ele>
        <time>2023-12-20T11:09:07Z</time>
      </trkpt>
      <trkpt lat="48.86652" lon="1.7973">
        <ele>148.8</ele>
        <time>2023-12-20T11:09:08Z</time>
      </trkpt>
      <trkpt lat="48.86649" lon="1.79727">
        <ele>148.8</ele>
        <time>2023-12-20T11:09:09Z</time>
      </trkpt>
      <trkpt lat="48.86646" lon="1.79724">
        <ele>149.4</ele>
        <time>2023-12-20T11:09:10Z</time>
      </trkpt>
      <trkpt lat="48.86643" lon="1.79721">
        <ele>149.8</ele>
        <time>2023-12-20T11:09:11Z</time>
      </trkpt>
      <trkpt lat="48.8664" lon="1.79717">
        <ele>149.8</ele>
        <time>2023-12-20T11:09:12Z</time>
      </trkpt>
      <trkpt lat="48.86637" lon="1.79714">
        <ele>149.8</ele>
        <time>2023-12-20T11:09:13Z</time>
      </trkpt>
      <trkpt lat="48.86634" lon="1.7971">
        <ele>150.2</ele>
        <time>2023-12-20T11:09:14Z</time>
      </trkpt>
      <trkpt lat="48.86631" lon="1.79706">
        <ele>150.6</ele>
        <time>2023-12-20T11:09:15Z</time>
      </trkpt>
      <trkpt lat="48.86628" lon="1.79702">
        <ele>150.6</ele>
        <time>2023-12-20T11:09:16Z</time>
      </trkpt>
      <trkpt lat="48.86625" lon="1.79699">
        <ele>150.6</ele>
        <time>2023-12-20T11:09:17Z</time>
      </trkpt>
      <trkpt lat="48.86622" lon="1.79695">
        <ele>150.6</ele>
        <time>2023-12-20T11:09:18Z</time>
      </trkpt>
      <trkpt lat="48.8662" lon="1.7969">
        <ele>151.2</ele>
        <time>2023-12-20T11:09:19Z</time>
      </trkpt>
      <trkpt lat="48.86617" lon="1.79686">
        <ele>151.2</ele>
        <time>2023-12-20T11:09:20Z</time>
      </trkpt>
      <trkpt lat="48.86614" lon="1.79682">
        <ele>151.2</ele>
        <time>2023-12-20T11:09:21Z</time>
      </trkpt>
      <trkpt lat="48.86612" lon="1.79677">
        <ele>151.4</ele>
        <time>2023-12-20T11:09:22Z</time>
      </trkpt>
      <trkpt lat="48.86609" lon="1.79672">
        <ele>152</ele>
        <time>2023-12-20T11:09:23Z</time>
      </trkpt>
      <trkpt lat="48.86607" lon="1.79668">
        <ele>152</ele>
        <time>2023-12-20T11:09:24Z</time>
      </trkpt>
      <trkpt lat="48.86604" lon="1.79663">
        <ele>152</ele>
        <time>2023-12-20T11:09:25Z</time>
      </trkpt>
      <trkpt lat="48.86602" lon="1.79658">
        <ele>152.6</ele>
        <time>2023-12-20T11:09:26Z</time>
      </trkpt>
      <trkpt lat="48.866" lon="1.79653">
        <ele>153.2</ele>
        <time>2023-12-20T11:09:27Z</time>
      </trkpt>
      <trkpt lat="48.86598" lon="1.79648">
        <ele>153.2</ele>
        <time>2023-12-20T11:09:28Z</time>
      </trkpt>
      <trkpt lat="48.86597" lon="1.79644">
        <ele>153.2</ele>
        <time>2023-12-20T11:09:29Z</time>
      </trkpt>
      <trkpt lat="48.86595" lon="1.79639">
        <ele>154.2</ele>
        <time>2023-12-20T11:09:30Z</time>
      </trkpt>
      <trkpt lat="48.86592" lon="1.79635">
        <ele>154.2</ele>
        <time>2023-12-20T11:09:31Z</time>
      </trkpt>
      <trkpt lat="48.8659" lon="1.79631">
        <ele>154.2</ele>
        <time>2023-12-20T11:09:32Z</time>
      </trkpt>
      <trkpt lat="48.86588" lon="1.79627">
        <ele>154.2</ele>
        <time>2023-12-20T11:09:33Z</time>
      </trkpt>
      <trkpt lat="48.86586" lon="1.79623">
        <ele>154.2</ele>
        <time>2023-12-20T11:09:34Z</time>
      </trkpt>
      <trkpt lat="48.86584" lon="1.79619">
        <ele>154.2</ele>
        <time>2023-12-20T11:09:35Z</time>
      </trkpt>
      <trkpt lat="48.86582" lon="1.79615">
        <ele>154.2</ele>
        <time>2023-12-20T11:09:36Z</time>
      </trkpt>
      <trkpt lat="48.8658" lon="1.79611">
        <ele>154.2</ele>
        <time>2023-12-20T11:09:37Z</time>
      </trkpt>
      <trkpt lat="48.86578" lon="1.79607">
        <ele>155</ele>
        <time>2023-12-20T11:09:38Z</time>
      </trkpt>
      <trkpt lat="48.86576" lon="1.79603">
        <ele>155.4</ele>
        <time>2023-12-20T11:09:39Z</time>
      </trkpt>
      <trkpt lat="48.86574" lon="1.79598">
        <ele>155.4</ele>
        <time>2023-12-20T11:09:40Z</time>
      </trkpt>
      <trkpt lat="48.86572" lon="1.79594">
        <ele>155.4</ele>
        <time>2023-12-20T11:09:41Z</time>
      </trkpt>
      <trkpt lat="48.8657" lon="1.79589">
        <ele>155.4</ele>
        <time>2023-12-20T11:09:42Z</time>
      </trkpt>
      <trkpt lat="48.86568" lon="1.79585">
        <ele>155.6</ele>
        <time>2023-12-20T11:09:43Z</time>
      </trkpt>
      <trkpt lat="48.86566" lon="1.7958">
        <ele>155.6</ele>
        <time>2023-12-20T11:09:44Z</time>
      </trkpt>
      <trkpt lat="48.86564" lon="1.79575">
        <ele>155.6</ele>
        <time>2023-12-20T11:09:45Z</time>
      </trkpt>
      <trkpt lat="48.86562" lon="1.79571">
        <ele>155.6</ele>
        <time>2023-12-20T11:09:46Z</time>
      </trkpt>
      <trkpt lat="48.8656" lon="1.79566">
        <ele>156.2</ele>
        <time>2023-12-20T11:09:47Z</time>
      </trkpt>
      <trkpt lat="48.86558" lon="1.79562">
        <ele>156.2</ele>
        <time>2023-12-20T11:09:48Z</time>
      </trkpt>
      <trkpt lat="48.86555" lon="1.79557">
        <ele>156.2</ele>
        <time>2023-12-20T11:09:49Z</time>
      </trkpt>
      <trkpt lat="48.86553" lon="1.79552">
        <ele>156.2</ele>
        <time>2023-12-20T11:09:50Z</time>
      </trkpt>
      <trkpt lat="48.86551" lon="1.79548">
        <ele>156.6</ele>
        <time>2023-12-20T11:09:51Z</time>
      </trkpt>
      <trkpt lat="48.86549" lon="1.79543">
        <ele>156.6</ele>
        <time>2023-12-20T11:09:52Z</time>
      </trkpt>
      <trkpt lat="48.86547" lon="1.79539">
        <ele>156.6</ele>
        <time>2023-12-20T11:09:53Z</time>
      </trkpt>
      <trkpt lat="48.86546" lon="1.79534">
        <ele>156.6</ele>
        <time>2023-12-20T11:09:54Z</time>
      </trkpt>
      <trkpt lat="48.86544" lon="1.7953">
        <ele>156.6</ele>
        <time>2023-12-20T11:09:55Z</time>
      </trkpt>
      <trkpt lat="48.86543" lon="1.79525">
        <ele>156.6</ele>
        <time>2023-12-20T11:09:56Z</time>
      </trkpt>
      <trkpt lat="48.86541" lon="1.79521">
        <ele>156.6</ele>
        <time>2023-12-20T11:09:57Z</time>
      </trkpt>
      <trkpt lat="48.86539" lon="1.79516">
        <ele>157.6</ele>
        <time>2023-12-20T11:09:58Z</time>
      </trkpt>
      <trkpt lat="48.86538" lon="1.79512">
        <ele>158</ele>
        <time>2023-12-20T11:09:59Z</time>
      </trkpt>
      <trkpt lat="48.86536" lon="1.79508">
        <ele>158</ele>
        <time>2023-12-20T11:10:00Z</time>
      </trkpt>
      <trkpt lat="48.86535" lon="1.79503">
        <ele>158</ele>
        <time>2023-12-20T11:10:01Z</time>
      </trkpt>
      <trkpt lat="48.86534" lon="1.79499">
        <ele>158.6</ele>
        <time>2023-12-20T11:10:02Z</time>
      </trkpt>
      <trkpt lat="48.86533" lon="1.79495">
        <ele>158.6</ele>
        <time>2023-12-20T11:10:03Z</time>
      </trkpt>
      <trkpt lat="48.86531" lon="1.7949">
        <ele>158.6</ele>
        <time>2023-12-20T11:10:04Z</time>
      </trkpt>
      <trkpt lat="48.8653" lon="1.79486">
        <ele>158.6</ele>
        <time>2023-12-20T11:10:05Z</time>
      </trkpt>
      <trkpt lat="48.8653" lon="1.79481">
        <ele>158.6</ele>
        <time>2023-12-20T11:10:06Z</time>
      </trkpt>
      <trkpt lat="48.86529" lon="1.79477">
        <ele>158.8</ele>
        <time>2023-12-20T11:10:07Z</time>
      </trkpt>
      <trkpt lat="48.86528" lon="1.79473">
        <ele>158.8</ele>
        <time>2023-12-20T11:10:08Z</time>
      </trkpt>
      <trkpt lat="48.86526" lon="1.79468">
        <ele>158.8</ele>
        <time>2023-12-20T11:10:09Z</time>
      </trkpt>
      <trkpt lat="48.86525" lon="1.79463">
        <ele>158.8</ele>
        <time>2023-12-20T11:10:10Z</time>
      </trkpt>
      <trkpt lat="48.86523" lon="1.79458">
        <ele>158.2</ele>
        <time>2023-12-20T11:10:11Z</time>
      </trkpt>
      <trkpt lat="48.86522" lon="1.79453">
        <ele>158.2</ele>
        <time>2023-12-20T11:10:12Z</time>
      </trkpt>
      <trkpt lat="48.86521" lon="1.79447">
        <ele>158.2</ele>
        <time>2023-12-20T11:10:13Z</time>
      </trkpt>
      <trkpt lat="48.8652" lon="1.79442">
        <ele>157.6</ele>
        <time>2023-12-20T11:10:14Z</time>
      </trkpt>
      <trkpt lat="48.86518" lon="1.79437">
        <ele>157.8</ele>
        <time>2023-12-20T11:10:15Z</time>
      </trkpt>
      <trkpt lat="48.86517" lon="1.79432">
        <ele>157.8</ele>
        <time>2023-12-20T11:10:16Z</time>
      </trkpt>
      <trkpt lat="48.86515" lon="1.79427">
        <ele>157.8</ele>
        <time>2023-12-20T11:10:17Z</time>
      </trkpt>
      <trkpt lat="48.86514" lon="1.79421">
        <ele>157.8</ele>
        <time>2023-12-20T11:10:18Z</time>
      </trkpt>
      <trkpt lat="48.86513" lon="1.79415">
        <ele>157.2</ele>
        <time>2023-12-20T11:10:19Z</time>
      </trkpt>
      <trkpt lat="48.86511" lon="1.79409">
        <ele>157.2</ele>
        <time>2023-12-20T11:10:20Z</time>
      </trkpt>
      <trkpt lat="48.86509" lon="1.79404">
        <ele>157.2</ele>
        <time>2023-12-20T11:10:21Z</time>
      </trkpt>
      <trkpt lat="48.86508" lon="1.79398">
        <ele>157.2</ele>
        <time>2023-12-20T11:10:22Z</time>
      </trkpt>
      <trkpt lat="48.86507" lon="1.79392">
        <ele>156.6</ele>
        <time>2023-12-20T11:10:23Z</time>
      </trkpt>
      <trkpt lat="48.86506" lon="1.79386">
        <ele>156.6</ele>
        <time>2023-12-20T11:10:24Z</time>
      </trkpt>
      <trkpt lat="48.86505" lon="1.7938">
        <ele>156.6</ele>
        <time>2023-12-20T11:10:25Z</time>
      </trkpt>
      <trkpt lat="48.86504" lon="1.79374">
        <ele>156</ele>
        <time>2023-12-20T11:10:26Z</time>
      </trkpt>
      <trkpt lat="48.86503" lon="1.79367">
        <ele>155.8</ele>
        <time>2023-12-20T11:10:27Z</time>
      </trkpt>
      <trkpt lat="48.86502" lon="1.79361">
        <ele>155.8</ele>
        <time>2023-12-20T11:10:28Z</time>
      </trkpt>
      <trkpt lat="48.86501" lon="1.79355">
        <ele>155.8</ele>
        <time>2023-12-20T11:10:29Z</time>
      </trkpt>
      <trkpt lat="48.865" lon="1.79349">
        <ele>155.8</ele>
        <time>2023-12-20T11:10:30Z</time>
      </trkpt>
      <trkpt lat="48.86498" lon="1.79343">
        <ele>155</ele>
        <time>2023-12-20T11:10:31Z</time>
      </trkpt>
      <trkpt lat="48.86496" lon="1.79336">
        <ele>155</ele>
        <time>2023-12-20T11:10:32Z</time>
      </trkpt>
      <trkpt lat="48.86494" lon="1.7933">
        <ele>155</ele>
        <time>2023-12-20T11:10:33Z</time>
      </trkpt>
      <trkpt lat="48.86492" lon="1.79323">
        <ele>155</ele>
        <time>2023-12-20T11:10:34Z</time>
      </trkpt>
      <trkpt lat="48.8649" lon="1.79316">
        <ele>153.4</ele>
        <time>2023-12-20T11:10:35Z</time>
      </trkpt>
      <trkpt lat="48.86489" lon="1.79309">
        <ele>153.4</ele>
        <time>2023-12-20T11:10:36Z</time>
      </trkpt>
      <trkpt lat="48.86487" lon="1.79301">
        <ele>153.4</ele>
        <time>2023-12-20T11:10:37Z</time>
      </trkpt>
      <trkpt lat="48.86485" lon="1.79294">
        <ele>153.4</ele>
        <time>2023-12-20T11:10:38Z</time>
      </trkpt>
      <trkpt lat="48.86483" lon="1.79286">
        <ele>153.6</ele>
        <time>2023-12-20T11:10:39Z</time>
      </trkpt>
      <trkpt lat="48.86482" lon="1.79278">
        <ele>153.6</ele>
        <time>2023-12-20T11:10:40Z</time>
      </trkpt>
      <trkpt lat="48.8648" lon="1.7927">
        <ele>153.6</ele>
        <time>2023-12-20T11:10:41Z</time>
      </trkpt>
      <trkpt lat="48.8648" lon="1.79262">
        <ele>154.6</ele>
        <time>2023-12-20T11:10:42Z</time>
      </trkpt>
      <trkpt lat="48.86481" lon="1.79253">
        <ele>154.2</ele>
        <time>2023-12-20T11:10:43Z</time>
      </trkpt>
      <trkpt lat="48.86482" lon="1.79245">
        <ele>154.2</ele>
        <time>2023-12-20T11:10:44Z</time>
      </trkpt>
      <trkpt lat="48.86483" lon="1.79237">
        <ele>154.2</ele>
        <time>2023-12-20T11:10:45Z</time>
      </trkpt>
      <trkpt lat="48.86484" lon="1.79228">
        <ele>154.2</ele>
        <time>2023-12-20T11:10:46Z</time>
      </trkpt>
      <trkpt lat="48.86485" lon="1.79219">
        <ele>153.4</ele>
        <time>2023-12-20T11:10:47Z</time>
      </trkpt>
      <trkpt lat="48.86487" lon="1.79211">
        <ele>153.4</ele>
        <time>2023-12-20T11:10:48Z</time>
      </trkpt>
      <trkpt lat="48.86488" lon="1.79202">
        <ele>153.4</ele>
        <time>2023-12-20T11:10:49Z</time>
      </trkpt>
      <trkpt lat="48.86489" lon="1.79194">
        <ele>154.2</ele>
        <time>2023-12-20T11:10:50Z</time>
      </trkpt>
      <trkpt lat="48.86491" lon="1.79186">
        <ele>154.6</ele>
        <time>2023-12-20T11:10:51Z</time>
      </trkpt>
      <trkpt lat="48.86493" lon="1.79179">
        <ele>154.6</ele>
        <time>2023-12-20T11:10:52Z</time>
      </trkpt>
      <trkpt lat="48.86495" lon="1.79171">
        <ele>154.6</ele>
        <time>2023-12-20T11:10:53Z</time>
      </trkpt>
      <trkpt lat="48.86497" lon="1.79164">
        <ele>155.6</ele>
        <time>2023-12-20T11:10:54Z</time>
      </trkpt>
      <trkpt lat="48.86499" lon="1.79156">
        <ele>155.6</ele>
        <time>2023-12-20T11:10:55Z</time>
      </trkpt>
      <trkpt lat="48.86501" lon="1.79149">
        <ele>155.6</ele>
        <time>2023-12-20T11:10:56Z</time>
      </trkpt>
      <trkpt lat="48.86503" lon="1.79143">
        <ele>155.6</ele>
        <time>2023-12-20T11:10:57Z</time>
      </trkpt>
      <trkpt lat="48.86505" lon="1.79137">
        <ele>155.6</ele>
        <time>2023-12-20T11:10:58Z</time>
      </trkpt>
      <trkpt lat="48.86508" lon="1.7913">
        <ele>156</ele>
        <time>2023-12-20T11:10:59Z</time>
      </trkpt>
      <trkpt lat="48.8651" lon="1.79124">
        <ele>156</ele>
        <time>2023-12-20T11:11:00Z</time>
      </trkpt>
      <trkpt lat="48.86512" lon="1.79118">
        <ele>156</ele>
        <time>2023-12-20T11:11:01Z</time>
      </trkpt>
      <trkpt lat="48.86514" lon="1.79112">
        <ele>157</ele>
        <time>2023-12-20T11:11:02Z</time>
      </trkpt>
      <trkpt lat="48.86516" lon="1.79106">
        <ele>158.2</ele>
        <time>2023-12-20T11:11:03Z</time>
      </trkpt>
      <trkpt lat="48.86518" lon="1.791">
        <ele>158.2</ele>
        <time>2023-12-20T11:11:04Z</time>
      </trkpt>
      <trkpt lat="48.8652" lon="1.79094">
        <ele>158.2</ele>
        <time>2023-12-20T11:11:05Z</time>
      </trkpt>
      <trkpt lat="48.86521" lon="1.79088">
        <ele>159</ele>
        <time>2023-12-20T11:11:06Z</time>
      </trkpt>
      <trkpt lat="48.86523" lon="1.79082">
        <ele>159</ele>
        <time>2023-12-20T11:11:07Z</time>
      </trkpt>
      <trkpt lat="48.86524" lon="1.79076">
        <ele>159</ele>
        <time>2023-12-20T11:11:08Z</time>
      </trkpt>
      <trkpt lat="48.86526" lon="1.7907">
        <ele>159</ele>
        <time>2023-12-20T11:11:09Z</time>
      </trkpt>
      <trkpt lat="48.86528" lon="1.79064">
        <ele>159.8</ele>
        <time>2023-12-20T11:11:10Z</time>
      </trkpt>
      <trkpt lat="48.8653" lon="1.79058">
        <ele>160.2</ele>
        <time>2023-12-20T11:11:11Z</time>
      </trkpt>
      <trkpt lat="48.86532" lon="1.79051">
        <ele>160.2</ele>
        <time>2023-12-20T11:11:12Z</time>
      </trkpt>
      <trkpt lat="48.86534" lon="1.79045">
        <ele>160.2</ele>
        <time>2023-12-20T11:11:13Z</time>
      </trkpt>
      <trkpt lat="48.86535" lon="1.79038">
        <ele>160.8</ele>
        <time>2023-12-20T11:11:14Z</time>
      </trkpt>
      <trkpt lat="48.86537" lon="1.79032">
        <ele>160.6</ele>
        <time>2023-12-20T11:11:15Z</time>
      </trkpt>
      <trkpt lat="48.86538" lon="1.79025">
        <ele>160.6</ele>
        <time>2023-12-20T11:11:16Z</time>
      </trkpt>
      <trkpt lat="48.86539" lon="1.79018">
        <ele>160.6</ele>
        <time>2023-12-20T11:11:17Z</time>
      </trkpt>
      <trkpt lat="48.8654" lon="1.79011">
        <ele>161.6</ele>
        <time>2023-12-20T11:11:18Z</time>
      </trkpt>
      <trkpt lat="48.8654" lon="1.79005">
        <ele>163.2</ele>
        <time>2023-12-20T11:11:19Z</time>
      </trkpt>
      <trkpt lat="48.86541" lon="1.78998">
        <ele>163.2</ele>
        <time>2023-12-20T11:11:20Z</time>
      </trkpt>
      <trkpt lat="48.86542" lon="1.78991">
        <ele>163.2</ele>
        <time>2023-12-20T11:11:21Z</time>
      </trkpt>
      <trkpt lat="48.86543" lon="1.78985">
        <ele>164.2</ele>
        <time>2023-12-20T11:11:22Z</time>
      </trkpt>
      <trkpt lat="48.86544" lon="1.78978">
        <ele>164.4</ele>
        <time>2023-12-20T11:11:23Z</time>
      </trkpt>
      <trkpt lat="48.86545" lon="1.78972">
        <ele>164.4</ele>
        <time>2023-12-20T11:11:24Z</time>
      </trkpt>
      <trkpt lat="48.86547" lon="1.78965">
        <ele>164.4</ele>
        <time>2023-12-20T11:11:25Z</time>
      </trkpt>
      <trkpt lat="48.86548" lon="1.78959">
        <ele>164.4</ele>
        <time>2023-12-20T11:11:26Z</time>
      </trkpt>
      <trkpt lat="48.86549" lon="1.78952">
        <ele>164.8</ele>
        <time>2023-12-20T11:11:27Z</time>
      </trkpt>
      <trkpt lat="48.8655" lon="1.78946">
        <ele>164.8</ele>
        <time>2023-12-20T11:11:28Z</time>
      </trkpt>
      <trkpt lat="48.86551" lon="1.7894">
        <ele>164.8</ele>
        <time>2023-12-20T11:11:29Z</time>
      </trkpt>
      <trkpt lat="48.86553" lon="1.78934">
        <ele>164.8</ele>
        <time>2023-12-20T11:11:30Z</time>
      </trkpt>
      <trkpt lat="48.86555" lon="1.78928">
        <ele>165.4</ele>
        <time>2023-12-20T11:11:31Z</time>
      </trkpt>
      <trkpt lat="48.86557" lon="1.78922">
        <ele>165.4</ele>
        <time>2023-12-20T11:11:32Z</time>
      </trkpt>
      <trkpt lat="48.86559" lon="1.78916">
        <ele>165.4</ele>
        <time>2023-12-20T11:11:33Z</time>
      </trkpt>
      <trkpt lat="48.86559" lon="1.78909">
        <ele>165.4</ele>
        <time>2023-12-20T11:11:34Z</time>
      </trkpt>
      <trkpt lat="48.86558" lon="1.78903">
        <ele>166.8</ele>
        <time>2023-12-20T11:11:35Z</time>
      </trkpt>
      <trkpt lat="48.86557" lon="1.78896">
        <ele>166.8</ele>
        <time>2023-12-20T11:11:36Z</time>
      </trkpt>
      <trkpt lat="48.86556" lon="1.7889">
        <ele>166.8</ele>
        <time>2023-12-20T11:11:37Z</time>
      </trkpt>
      <trkpt lat="48.86556" lon="1.78883">
        <ele>166.6</ele>
        <time>2023-12-20T11:11:38Z</time>
      </trkpt>
      <trkpt lat="48.86557" lon="1.78876">
        <ele>166.6</ele>
        <time>2023-12-20T11:11:39Z</time>
      </trkpt>
      <trkpt lat="48.86558" lon="1.78869">
        <ele>166.6</ele>
        <time>2023-12-20T11:11:40Z</time>
      </trkpt>
      <trkpt lat="48.86559" lon="1.78863">
        <ele>166.6</ele>
        <time>2023-12-20T11:11:41Z</time>
      </trkpt>
      <trkpt lat="48.8656" lon="1.78857">
        <ele>166.6</ele>
        <time>2023-12-20T11:11:42Z</time>
      </trkpt>
      <trkpt lat="48.86561" lon="1.78851">
        <ele>166.4</ele>
        <time>2023-12-20T11:11:43Z</time>
      </trkpt>
      <trkpt lat="48.86562" lon="1.78844">
        <ele>166.4</ele>
        <time>2023-12-20T11:11:44Z</time>
      </trkpt>
      <trkpt lat="48.86563" lon="1.78838">
        <ele>166.4</ele>
        <time>2023-12-20T11:11:45Z</time>
      </trkpt>
      <trkpt lat="48.86565" lon="1.78832">
        <ele>167.2</ele>
        <time>2023-12-20T11:11:46Z</time>
      </trkpt>
      <trkpt lat="48.86567" lon="1.78827">
        <ele>167.4</ele>
        <time>2023-12-20T11:11:47Z</time>
      </trkpt>
      <trkpt lat="48.86568" lon="1.78821">
        <ele>167.4</ele>
        <time>2023-12-20T11:11:48Z</time>
      </trkpt>
      <trkpt lat="48.86569" lon="1.78815">
        <ele>167.4</ele>
        <time>2023-12-20T11:11:49Z</time>
      </trkpt>
      <trkpt lat="48.8657" lon="1.78809">
        <ele>167.4</ele>
        <time>2023-12-20T11:11:50Z</time>
      </trkpt>
      <trkpt lat="48.86571" lon="1.78803">
        <ele>168.2</ele>
        <time>2023-12-20T11:11:51Z</time>
      </trkpt>
      <trkpt lat="48.86572" lon="1.78796">
        <ele>168.2</ele>
        <time>2023-12-20T11:11:52Z</time>
      </trkpt>
      <trkpt lat="48.86572" lon="1.78789">
        <ele>168.2</ele>
        <time>2023-12-20T11:11:53Z</time>
      </trkpt>
      <trkpt lat="48.86573" lon="1.78782">
        <ele>168.8</ele>
        <time>2023-12-20T11:11:54Z</time>
      </trkpt>
      <trkpt lat="48.86574" lon="1.78775">
        <ele>168.6</ele>
        <time>2023-12-20T11:11:55Z</time>
      </trkpt>
      <trkpt lat="48.86574" lon="1.78769">
        <ele>168.6</ele>
        <time>2023-12-20T11:11:56Z</time>
      </trkpt>
      <trkpt lat="48.86575" lon="1.78762">
        <ele>168.6</ele>
        <time>2023-12-20T11:11:57Z</time>
      </trkpt>
      <trkpt lat="48.86574" lon="1.78755">
        <ele>168.2</ele>
        <time>2023-12-20T11:11:58Z</time>
      </trkpt>
      <trkpt lat="48.86574" lon="1.78749">
        <ele>168.6</ele>
        <time>2023-12-20T11:11:59Z</time>
      </trkpt>
      <trkpt lat="48.86574" lon="1.78741">
        <ele>168.6</ele>
        <time>2023-12-20T11:12:00Z</time>
      </trkpt>
      <trkpt lat="48.86574" lon="1.78734">
        <ele>168.6</ele>
        <time>2023-12-20T11:12:01Z</time>
      </trkpt>
      <trkpt lat="48.86573" lon="1.78727">
        <ele>168.6</ele>
        <time>2023-12-20T11:12:02Z</time>
      </trkpt>
      <trkpt lat="48.86573" lon="1.78719">
        <ele>168.4</ele>
        <time>2023-12-20T11:12:03Z</time>
      </trkpt>
      <trkpt lat="48.86573" lon="1.78711">
        <ele>168.4</ele>
        <time>2023-12-20T11:12:04Z</time>
      </trkpt>
      <trkpt lat="48.86572" lon="1.78704">
        <ele>168.4</ele>
        <time>2023-12-20T11:12:05Z</time>
      </trkpt>
      <trkpt lat="48.86572" lon="1.78696">
        <ele>168.4</ele>
        <time>2023-12-20T11:12:06Z</time>
      </trkpt>
      <trkpt lat="48.86572" lon="1.78689">
        <ele>168.6</ele>
        <time>2023-12-20T11:12:07Z</time>
      </trkpt>
      <trkpt lat="48.86572" lon="1.78682">
        <ele>168.6</ele>
        <time>2023-12-20T11:12:08Z</time>
      </trkpt>
      <trkpt lat="48.86572" lon="1.78674">
        <ele>168.6</ele>
        <time>2023-12-20T11:12:09Z</time>
      </trkpt>
      <trkpt lat="48.86572" lon="1.78666">
        <ele>168.8</ele>
        <time>2023-12-20T11:12:10Z</time>
      </trkpt>
      <trkpt lat="48.86572" lon="1.78659">
        <ele>168.4</ele>
        <time>2023-12-20T11:12:11Z</time>
      </trkpt>
      <trkpt lat="48.86572" lon="1.78652">
        <ele>168.4</ele>
        <time>2023-12-20T11:12:12Z</time>
      </trkpt>
      <trkpt lat="48.86572" lon="1.78644">
        <ele>168.4</ele>
        <time>2023-12-20T11:12:13Z</time>
      </trkpt>
      <trkpt lat="48.86572" lon="1.78636">
        <ele>168.4</ele>
        <time>2023-12-20T11:12:14Z</time>
      </trkpt>
      <trkpt lat="48.86571" lon="1.78628">
        <ele>168.8</ele>
        <time>2023-12-20T11:12:15Z</time>
      </trkpt>
      <trkpt lat="48.86571" lon="1.78621">
        <ele>168.8</ele>
        <time>2023-12-20T11:12:16Z</time>
      </trkpt>
      <trkpt lat="48.8657" lon="1.78612">
        <ele>168.8</ele>
        <time>2023-12-20T11:12:17Z</time>
      </trkpt>
      <trkpt lat="48.8657" lon="1.78604">
        <ele>168.8</ele>
        <time>2023-12-20T11:12:18Z</time>
      </trkpt>
      <trkpt lat="48.8657" lon="1.78596">
        <ele>169</ele>
        <time>2023-12-20T11:12:19Z</time>
      </trkpt>
      <trkpt lat="48.86569" lon="1.78588">
        <ele>169</ele>
        <time>2023-12-20T11:12:20Z</time>
      </trkpt>
      <trkpt lat="48.86569" lon="1.7858">
        <ele>169</ele>
        <time>2023-12-20T11:12:21Z</time>
      </trkpt>
      <trkpt lat="48.86569" lon="1.78572">
        <ele>169</ele>
        <time>2023-12-20T11:12:22Z</time>
      </trkpt>
      <trkpt lat="48.86568" lon="1.78564">
        <ele>169.4</ele>
        <time>2023-12-20T11:12:23Z</time>
      </trkpt>
      <trkpt lat="48.86568" lon="1.78556">
        <ele>169.4</ele>
        <time>2023-12-20T11:12:24Z</time>
      </trkpt>
      <trkpt lat="48.86568" lon="1.78548">
        <ele>169.4</ele>
        <time>2023-12-20T11:12:25Z</time>
      </trkpt>
      <trkpt lat="48.86568" lon="1.7854">
        <ele>169.4</ele>
        <time>2023-12-20T11:12:26Z</time>
      </trkpt>
      <trkpt lat="48.86569" lon="1.78532">
        <ele>169.6</ele>
        <time>2023-12-20T11:12:27Z</time>
      </trkpt>
      <trkpt lat="48.86569" lon="1.78524">
        <ele>169.6</ele>
        <time>2023-12-20T11:12:28Z</time>
      </trkpt>
      <trkpt lat="48.86569" lon="1.78516">
        <ele>169.6</ele>
        <time>2023-12-20T11:12:29Z</time>
      </trkpt>
      <trkpt lat="48.86568" lon="1.78507">
        <ele>169.6</ele>
        <time>2023-12-20T11:12:30Z</time>
      </trkpt>
      <trkpt lat="48.86567" lon="1.78499">
        <ele>169.8</ele>
        <time>2023-12-20T11:12:31Z</time>
      </trkpt>
      <trkpt lat="48.86565" lon="1.78491">
        <ele>169.8</ele>
        <time>2023-12-20T11:12:32Z</time>
      </trkpt>
      <trkpt lat="48.86563" lon="1.78483">
        <ele>169.8</ele>
        <time>2023-12-20T11:12:33Z</time>
      </trkpt>
      <trkpt lat="48.86561" lon="1.78475">
        <ele>169.8</ele>
        <time>2023-12-20T11:12:34Z</time>
      </trkpt>
      <trkpt lat="48.86558" lon="1.78468">
        <ele>169.4</ele>
        <time>2023-12-20T11:12:35Z</time>
      </trkpt>
      <trkpt lat="48.86556" lon="1.7846">
        <ele>169.4</ele>
        <time>2023-12-20T11:12:36Z</time>
      </trkpt>
      <trkpt lat="48.86554" lon="1.78453">
        <ele>169.4</ele>
        <time>2023-12-20T11:12:37Z</time>
      </trkpt>
      <trkpt lat="48.86551" lon="1.78445">
        <ele>168.4</ele>
        <time>2023-12-20T11:12:38Z</time>
      </trkpt>
      <trkpt lat="48.86549" lon="1.78437">
        <ele>168.8</ele>
        <time>2023-12-20T11:12:39Z</time>
      </trkpt>
      <trkpt lat="48.86547" lon="1.7843">
        <ele>168.8</ele>
        <time>2023-12-20T11:12:40Z</time>
      </trkpt>
      <trkpt lat="48.86544" lon="1.78422">
        <ele>168.8</ele>
        <time>2023-12-20T11:12:41Z</time>
      </trkpt>
      <trkpt lat="48.86542" lon="1.78414">
        <ele>168.8</ele>
        <time>2023-12-20T11:12:42Z</time>
      </trkpt>
      <trkpt lat="48.86539" lon="1.78407">
        <ele>168.2</ele>
        <time>2023-12-20T11:12:43Z</time>
      </trkpt>
      <trkpt lat="48.86537" lon="1.78399">
        <ele>168.2</ele>
        <time>2023-12-20T11:12:44Z</time>
      </trkpt>
      <trkpt lat="48.86534" lon="1.78392">
        <ele>168.2</ele>
        <time>2023-12-20T11:12:45Z</time>
      </trkpt>
      <trkpt lat="48.86532" lon="1.78384">
        <ele>168.2</ele>
        <time>2023-12-20T11:12:46Z</time>
      </trkpt>
      <trkpt lat="48.8653" lon="1.78376">
        <ele>167.6</ele>
        <time>2023-12-20T11:12:47Z</time>
      </trkpt>
      <trkpt lat="48.86527" lon="1.78368">
        <ele>167.6</ele>
        <time>2023-12-20T11:12:48Z</time>
      </trkpt>
      <trkpt lat="48.86525" lon="1.7836">
        <ele>167.6</ele>
        <time>2023-12-20T11:12:49Z</time>
      </trkpt>
      <trkpt lat="48.86522" lon="1.78352">
        <ele>166.6</ele>
        <time>2023-12-20T11:12:50Z</time>
      </trkpt>
      <trkpt lat="48.8652" lon="1.78343">
        <ele>165.8</ele>
        <time>2023-12-20T11:12:51Z</time>
      </trkpt>
      <trkpt lat="48.86517" lon="1.78334">
        <ele>165.8</ele>
        <time>2023-12-20T11:12:52Z</time>
      </trkpt>
      <trkpt lat="48.86514" lon="1.78325">
        <ele>165.8</ele>
        <time>2023-12-20T11:12:53Z</time>
      </trkpt>
      <trkpt lat="48.86512" lon="1.78316">
        <ele>166</ele>
        <time>2023-12-20T11:12:54Z</time>
      </trkpt>
      <trkpt lat="48.86509" lon="1.78306">
        <ele>166.2</ele>
        <time>2023-12-20T11:12:55Z</time>
      </trkpt>
      <trkpt lat="48.86506" lon="1.78297">
        <ele>166.2</ele>
        <time>2023-12-20T11:12:56Z</time>
      </trkpt>
      <trkpt lat="48.86503" lon="1.78287">
        <ele>166.2</ele>
        <time>2023-12-20T11:12:57Z</time>
      </trkpt>
      <trkpt lat="48.86499" lon="1.78277">
        <ele>165.2</ele>
        <time>2023-12-20T11:12:58Z</time>
      </trkpt>
      <trkpt lat="48.86496" lon="1.78267">
        <ele>164.6</ele>
        <time>2023-12-20T11:12:59Z</time>
      </trkpt>
      <trkpt lat="48.86493" lon="1.78257">
        <ele>164.6</ele>
        <time>2023-12-20T11:13:00Z</time>
      </trkpt>
      <trkpt lat="48.8649" lon="1.78246">
        <ele>164.6</ele>
        <time>2023-12-20T11:13:01Z</time>
      </trkpt>
      <trkpt lat="48.86487" lon="1.78236">
        <ele>163.6</ele>
        <time>2023-12-20T11:13:02Z</time>
      </trkpt>
      <trkpt lat="48.86484" lon="1.78226">
        <ele>161.8</ele>
        <time>2023-12-20T11:13:03Z</time>
      </trkpt>
      <trkpt lat="48.86479" lon="1.78216">
        <ele>161.8</ele>
        <time>2023-12-20T11:13:04Z</time>
      </trkpt>
      <trkpt lat="48.86475" lon="1.78206">
        <ele>161.8</ele>
        <time>2023-12-20T11:13:05Z</time>
      </trkpt>
      <trkpt lat="48.86471" lon="1.78196">
        <ele>160.8</ele>
        <time>2023-12-20T11:13:06Z</time>
      </trkpt>
      <trkpt lat="48.86465" lon="1.78186">
        <ele>159</ele>
        <time>2023-12-20T11:13:07Z</time>
      </trkpt>
      <trkpt lat="48.86459" lon="1.78176">
        <ele>159</ele>
        <time>2023-12-20T11:13:08Z</time>
      </trkpt>
      <trkpt lat="48.86453" lon="1.78166">
        <ele>159</ele>
        <time>2023-12-20T11:13:09Z</time>
      </trkpt>
      <trkpt lat="48.86447" lon="1.78155">
        <ele>158</ele>
        <time>2023-12-20T11:13:10Z</time>
      </trkpt>
      <trkpt lat="48.8644" lon="1.78144">
        <ele>154.6</ele>
        <time>2023-12-20T11:13:11Z</time>
      </trkpt>
      <trkpt lat="48.86434" lon="1.78133">
        <ele>154.6</ele>
        <time>2023-12-20T11:13:12Z</time>
      </trkpt>
      <trkpt lat="48.86427" lon="1.78122">
        <ele>154.6</ele>
        <time>2023-12-20T11:13:13Z</time>
      </trkpt>
      <trkpt lat="48.8642" lon="1.7811">
        <ele>153.6</ele>
        <time>2023-12-20T11:13:14Z</time>
      </trkpt>
      <trkpt lat="48.86413" lon="1.78097">
        <ele>149.8</ele>
        <time>2023-12-20T11:13:15Z</time>
      </trkpt>
      <trkpt lat="48.86405" lon="1.78084">
        <ele>149.8</ele>
        <time>2023-12-20T11:13:16Z</time>
      </trkpt>
      <trkpt lat="48.86397" lon="1.78071">
        <ele>149.8</ele>
        <time>2023-12-20T11:13:17Z</time>
      </trkpt>
      <trkpt lat="48.86389" lon="1.78058">
        <ele>148.8</ele>
        <time>2023-12-20T11:13:18Z</time>
      </trkpt>
      <trkpt lat="48.86381" lon="1.78044">
        <ele>144</ele>
        <time>2023-12-20T11:13:19Z</time>
      </trkpt>
      <trkpt lat="48.86373" lon="1.78031">
        <ele>144</ele>
        <time>2023-12-20T11:13:20Z</time>
      </trkpt>
      <trkpt lat="48.86365" lon="1.78017">
        <ele>144</ele>
        <time>2023-12-20T11:13:21Z</time>
      </trkpt>
      <trkpt lat="48.86357" lon="1.78004">
        <ele>143</ele>
        <time>2023-12-20T11:13:22Z</time>
      </trkpt>
      <trkpt lat="48.86349" lon="1.77992">
        <ele>141.8</ele>
        <time>2023-12-20T11:13:23Z</time>
      </trkpt>
      <trkpt lat="48.8634" lon="1.77979">
        <ele>141.8</ele>
        <time>2023-12-20T11:13:24Z</time>
      </trkpt>
      <trkpt lat="48.86332" lon="1.77967">
        <ele>141.8</ele>
        <time>2023-12-20T11:13:25Z</time>
      </trkpt>
      <trkpt lat="48.86323" lon="1.77955">
        <ele>141.2</ele>
        <time>2023-12-20T11:13:26Z</time>
      </trkpt>
      <trkpt lat="48.86314" lon="1.77944">
        <ele>139.6</ele>
        <time>2023-12-20T11:13:27Z</time>
      </trkpt>
      <trkpt lat="48.86305" lon="1.77933">
        <ele>139.6</ele>
        <time>2023-12-20T11:13:28Z</time>
      </trkpt>
      <trkpt lat="48.86295" lon="1.77922">
        <ele>139.6</ele>
        <time>2023-12-20T11:13:29Z</time>
      </trkpt>
      <trkpt lat="48.86285" lon="1.77913">
        <ele>138.6</ele>
        <time>2023-12-20T11:13:30Z</time>
      </trkpt>
      <trkpt lat="48.86275" lon="1.77904">
        <ele>136.8</ele>
        <time>2023-12-20T11:13:31Z</time>
      </trkpt>
      <trkpt lat="48.86264" lon="1.77896">
        <ele>136.8</ele>
        <time>2023-12-20T11:13:32Z</time>
      </trkpt>
      <trkpt lat="48.86254" lon="1.77889">
        <ele>136.8</ele>
        <time>2023-12-20T11:13:33Z</time>
      </trkpt>
      <trkpt lat="48.86243" lon="1.77882">
        <ele>136.2</ele>
        <time>2023-12-20T11:13:34Z</time>
      </trkpt>
      <trkpt lat="48.86233" lon="1.77876">
        <ele>135.8</ele>
        <time>2023-12-20T11:13:35Z</time>
      </trkpt>
      <trkpt lat="48.86222" lon="1.7787">
        <ele>135.8</ele>
        <time>2023-12-20T11:13:36Z</time>
      </trkpt>
      <trkpt lat="48.86212" lon="1.77864">
        <ele>135.8</ele>
        <time>2023-12-20T11:13:37Z</time>
      </trkpt>
      <trkpt lat="48.86202" lon="1.77857">
        <ele>134.8</ele>
        <time>2023-12-20T11:13:38Z</time>
      </trkpt>
      <trkpt lat="48.86193" lon="1.77851">
        <ele>134.4</ele>
        <time>2023-12-20T11:13:39Z</time>
      </trkpt>
      <trkpt lat="48.86184" lon="1.77843">
        <ele>134.4</ele>
        <time>2023-12-20T11:13:40Z</time>
      </trkpt>
      <trkpt lat="48.86175" lon="1.77836">
        <ele>134.4</ele>
        <time>2023-12-20T11:13:41Z</time>
      </trkpt>
      <trkpt lat="48.86167" lon="1.77827">
        <ele>134.4</ele>
        <time>2023-12-20T11:13:42Z</time>
      </trkpt>
      <trkpt lat="48.8616" lon="1.77819">
        <ele>133.4</ele>
        <time>2023-12-20T11:13:43Z</time>
      </trkpt>
      <trkpt lat="48.86152" lon="1.77809">
        <ele>133.4</ele>
        <time>2023-12-20T11:13:44Z</time>
      </trkpt>
      <trkpt lat="48.86145" lon="1.778">
        <ele>133.4</ele>
        <time>2023-12-20T11:13:45Z</time>
      </trkpt>
      <trkpt lat="48.86138" lon="1.77791">
        <ele>133.4</ele>
        <time>2023-12-20T11:13:46Z</time>
      </trkpt>
      <trkpt lat="48.86131" lon="1.77782">
        <ele>133</ele>
        <time>2023-12-20T11:13:47Z</time>
      </trkpt>
      <trkpt lat="48.86125" lon="1.77772">
        <ele>133</ele>
        <time>2023-12-20T11:13:48Z</time>
      </trkpt>
      <trkpt lat="48.86119" lon="1.77763">
        <ele>133</ele>
        <time>2023-12-20T11:13:49Z</time>
      </trkpt>
      <trkpt lat="48.86113" lon="1.77754">
        <ele>133.8</ele>
        <time>2023-12-20T11:13:50Z</time>
      </trkpt>
      <trkpt lat="48.86107" lon="1.77745">
        <ele>133.4</ele>
        <time>2023-12-20T11:13:51Z</time>
      </trkpt>
      <trkpt lat="48.86102" lon="1.77736">
        <ele>133.4</ele>
        <time>2023-12-20T11:13:52Z</time>
      </trkpt>
      <trkpt lat="48.86096" lon="1.77727">
        <ele>133.4</ele>
        <time>2023-12-20T11:13:53Z</time>
      </trkpt>
      <trkpt lat="48.86091" lon="1.77718">
        <ele>133</ele>
        <time>2023-12-20T11:13:54Z</time>
      </trkpt>
      <trkpt lat="48.86086" lon="1.7771">
        <ele>133</ele>
        <time>2023-12-20T11:13:55Z</time>
      </trkpt>
      <trkpt lat="48.8608" lon="1.77701">
        <ele>133</ele>
        <time>2023-12-20T11:13:56Z</time>
      </trkpt>
      <trkpt lat="48.86075" lon="1.77692">
        <ele>133</ele>
        <time>2023-12-20T11:13:57Z</time>
      </trkpt>
      <trkpt lat="48.8607" lon="1.77683">
        <ele>132.4</ele>
        <time>2023-12-20T11:13:58Z</time>
      </trkpt>
      <trkpt lat="48.86065" lon="1.77674">
        <ele>131.8</ele>
        <time>2023-12-20T11:13:59Z</time>
      </trkpt>
      <trkpt lat="48.86061" lon="1.77664">
        <ele>131.8</ele>
        <time>2023-12-20T11:14:00Z</time>
      </trkpt>
      <trkpt lat="48.86056" lon="1.77654">
        <ele>131.8</ele>
        <time>2023-12-20T11:14:01Z</time>
      </trkpt>
      <trkpt lat="48.86052" lon="1.77644">
        <ele>131.2</ele>
        <time>2023-12-20T11:14:02Z</time>
      </trkpt>
      <trkpt lat="48.86048" lon="1.77634">
        <ele>131.2</ele>
        <time>2023-12-20T11:14:03Z</time>
      </trkpt>
      <trkpt lat="48.86044" lon="1.77623">
        <ele>131.2</ele>
        <time>2023-12-20T11:14:04Z</time>
      </trkpt>
      <trkpt lat="48.86042" lon="1.77611">
        <ele>131.2</ele>
        <time>2023-12-20T11:14:05Z</time>
      </trkpt>
      <trkpt lat="48.86041" lon="1.77599">
        <ele>131.2</ele>
        <time>2023-12-20T11:14:06Z</time>
      </trkpt>
      <trkpt lat="48.86041" lon="1.77587">
        <ele>131.4</ele>
        <time>2023-12-20T11:14:07Z</time>
      </trkpt>
      <trkpt lat="48.86043" lon="1.77576">
        <ele>131.4</ele>
        <time>2023-12-20T11:14:08Z</time>
      </trkpt>
      <trkpt lat="48.86046" lon="1.77565">
        <ele>131.4</ele>
        <time>2023-12-20T11:14:09Z</time>
      </trkpt>
      <trkpt lat="48.86049" lon="1.77555">
        <ele>131.4</ele>
        <time>2023-12-20T11:14:10Z</time>
      </trkpt>
      <trkpt lat="48.86052" lon="1.77545">
        <ele>131</ele>
        <time>2023-12-20T11:14:11Z</time>
      </trkpt>
      <trkpt lat="48.86055" lon="1.77536">
        <ele>131</ele>
        <time>2023-12-20T11:14:12Z</time>
      </trkpt>
      <trkpt lat="48.86058" lon="1.77527">
        <ele>131</ele>
        <time>2023-12-20T11:14:13Z</time>
      </trkpt>
      <trkpt lat="48.86062" lon="1.77517">
        <ele>131.8</ele>
        <time>2023-12-20T11:14:14Z</time>
      </trkpt>
      <trkpt lat="48.86065" lon="1.77508">
        <ele>132.4</ele>
        <time>2023-12-20T11:14:15Z</time>
      </trkpt>
      <trkpt lat="48.86068" lon="1.77499">
        <ele>132.4</ele>
        <time>2023-12-20T11:14:16Z</time>
      </trkpt>
      <trkpt lat="48.86072" lon="1.7749">
        <ele>132.4</ele>
        <time>2023-12-20T11:14:17Z</time>
      </trkpt>
      <trkpt lat="48.86075" lon="1.77481">
        <ele>132.4</ele>
        <time>2023-12-20T11:14:18Z</time>
      </trkpt>
      <trkpt lat="48.86078" lon="1.77472">
        <ele>132.4</ele>
        <time>2023-12-20T11:14:19Z</time>
      </trkpt>
      <trkpt lat="48.86082" lon="1.77464">
        <ele>132.4</ele>
        <time>2023-12-20T11:14:20Z</time>
      </trkpt>
      <trkpt lat="48.86084" lon="1.77455">
        <ele>132.4</ele>
        <time>2023-12-20T11:14:21Z</time>
      </trkpt>
      <trkpt lat="48.86087" lon="1.77447">
        <ele>132.4</ele>
        <time>2023-12-20T11:14:22Z</time>
      </trkpt>
      <trkpt lat="48.86089" lon="1.77438">
        <ele>131</ele>
        <time>2023-12-20T11:14:23Z</time>
      </trkpt>
      <trkpt lat="48.86092" lon="1.7743">
        <ele>131</ele>
        <time>2023-12-20T11:14:24Z</time>
      </trkpt>
      <trkpt lat="48.86094" lon="1.77422">
        <ele>131</ele>
        <time>2023-12-20T11:14:25Z</time>
      </trkpt>
      <trkpt lat="48.86096" lon="1.77413">
        <ele>132</ele>
        <time>2023-12-20T11:14:26Z</time>
      </trkpt>
      <trkpt lat="48.86097" lon="1.77405">
        <ele>132.4</ele>
        <time>2023-12-20T11:14:27Z</time>
      </trkpt>
      <trkpt lat="48.86099" lon="1.77396">
        <ele>132.4</ele>
        <time>2023-12-20T11:14:28Z</time>
      </trkpt>
      <trkpt lat="48.861" lon="1.77387">
        <ele>132.4</ele>
        <time>2023-12-20T11:14:29Z</time>
      </trkpt>
      <trkpt lat="48.86101" lon="1.77377">
        <ele>131.4</ele>
        <time>2023-12-20T11:14:30Z</time>
      </trkpt>
      <trkpt lat="48.86102" lon="1.77368">
        <ele>130.2</ele>
        <time>2023-12-20T11:14:31Z</time>
      </trkpt>
      <trkpt lat="48.86103" lon="1.77358">
        <ele>130.2</ele>
        <time>2023-12-20T11:14:32Z</time>
      </trkpt>
      <trkpt lat="48.86104" lon="1.77348">
        <ele>130.2</ele>
        <time>2023-12-20T11:14:33Z</time>
      </trkpt>
      <trkpt lat="48.86104" lon="1.77338">
        <ele>129.2</ele>
        <time>2023-12-20T11:14:34Z</time>
      </trkpt>
      <trkpt lat="48.86104" lon="1.77327">
        <ele>129.6</ele>
        <time>2023-12-20T11:14:35Z</time>
      </trkpt>
      <trkpt lat="48.86103" lon="1.77317">
        <ele>129.6</ele>
        <time>2023-12-20T11:14:36Z</time>
      </trkpt>
      <trkpt lat="48.861" lon="1.77309">
        <ele>129.6</ele>
        <time>2023-12-20T11:14:37Z</time>
      </trkpt>
      <trkpt lat="48.86096" lon="1.77301">
        <ele>129.6</ele>
        <time>2023-12-20T11:14:38Z</time>
      </trkpt>
      <trkpt lat="48.86091" lon="1.77295">
        <ele>129.6</ele>
        <time>2023-12-20T11:14:39Z</time>
      </trkpt>
      <trkpt lat="48.86085" lon="1.7729">
        <ele>129.6</ele>
        <time>2023-12-20T11:14:40Z</time>
      </trkpt>
      <trkpt lat="48.86079" lon="1.77285">
        <ele>129.6</ele>
        <time>2023-12-20T11:14:41Z</time>
      </trkpt>
      <trkpt lat="48.86073" lon="1.7728">
        <ele>128.6</ele>
        <time>2023-12-20T11:14:42Z</time>
      </trkpt>
      <trkpt lat="48.86067" lon="1.77276">
        <ele>128.8</ele>
        <time>2023-12-20T11:14:43Z</time>
      </trkpt>
      <trkpt lat="48.8606" lon="1.77271">
        <ele>128.8</ele>
        <time>2023-12-20T11:14:44Z</time>
      </trkpt>
      <trkpt lat="48.86054" lon="1.77267">
        <ele>128.8</ele>
        <time>2023-12-20T11:14:45Z</time>
      </trkpt>
      <trkpt lat="48.86047" lon="1.77262">
        <ele>127.8</ele>
        <time>2023-12-20T11:14:46Z</time>
      </trkpt>
      <trkpt lat="48.86041" lon="1.77257">
        <ele>127</ele>
        <time>2023-12-20T11:14:47Z</time>
      </trkpt>
      <trkpt lat="48.86035" lon="1.77253">
        <ele>127</ele>
        <time>2023-12-20T11:14:48Z</time>
      </trkpt>
      <trkpt lat="48.86029" lon="1.77248">
        <ele>127</ele>
        <time>2023-12-20T11:14:49Z</time>
      </trkpt>
      <trkpt lat="48.86023" lon="1.77244">
        <ele>127</ele>
        <time>2023-12-20T11:14:50Z</time>
      </trkpt>
      <trkpt lat="48.86017" lon="1.77239">
        <ele>126.8</ele>
        <time>2023-12-20T11:14:51Z</time>
      </trkpt>
      <trkpt lat="48.86011" lon="1.77234">
        <ele>126.8</ele>
        <time>2023-12-20T11:14:52Z</time>
      </trkpt>
      <trkpt lat="48.86006" lon="1.77229">
        <ele>126.8</ele>
        <time>2023-12-20T11:14:53Z</time>
      </trkpt>
      <trkpt lat="48.86" lon="1.77224">
        <ele>126.8</ele>
        <time>2023-12-20T11:14:54Z</time>
      </trkpt>
      <trkpt lat="48.85995" lon="1.77219">
        <ele>127.6</ele>
        <time>2023-12-20T11:14:55Z</time>
      </trkpt>
      <trkpt lat="48.85989" lon="1.77214">
        <ele>127.6</ele>
        <time>2023-12-20T11:14:56Z</time>
      </trkpt>
      <trkpt lat="48.85984" lon="1.7721">
        <ele>127.6</ele>
        <time>2023-12-20T11:14:57Z</time>
      </trkpt>
      <trkpt lat="48.85978" lon="1.77205">
        <ele>126.6</ele>
        <time>2023-12-20T11:14:58Z</time>
      </trkpt>
      <trkpt lat="48.85973" lon="1.77199">
        <ele>125.2</ele>
        <time>2023-12-20T11:14:59Z</time>
      </trkpt>
      <trkpt lat="48.85968" lon="1.77194">
        <ele>125.2</ele>
        <time>2023-12-20T11:15:00Z</time>
      </trkpt>
      <trkpt lat="48.85963" lon="1.77188">
        <ele>125.2</ele>
        <time>2023-12-20T11:15:01Z</time>
      </trkpt>
      <trkpt lat="48.85959" lon="1.77181">
        <ele>125.2</ele>
        <time>2023-12-20T11:15:02Z</time>
      </trkpt>
      <trkpt lat="48.85954" lon="1.77174">
        <ele>125.4</ele>
        <time>2023-12-20T11:15:03Z</time>
      </trkpt>
      <trkpt lat="48.85951" lon="1.77167">
        <ele>125.4</ele>
        <time>2023-12-20T11:15:04Z</time>
      </trkpt>
      <trkpt lat="48.85948" lon="1.77159">
        <ele>125.4</ele>
        <time>2023-12-20T11:15:05Z</time>
      </trkpt>
      <trkpt lat="48.85947" lon="1.7715">
        <ele>125.4</ele>
        <time>2023-12-20T11:15:06Z</time>
      </trkpt>
      <trkpt lat="48.85946" lon="1.77141">
        <ele>124.8</ele>
        <time>2023-12-20T11:15:07Z</time>
      </trkpt>
      <trkpt lat="48.85946" lon="1.77131">
        <ele>124.8</ele>
        <time>2023-12-20T11:15:08Z</time>
      </trkpt>
      <trkpt lat="48.85948" lon="1.77122">
        <ele>124.8</ele>
        <time>2023-12-20T11:15:09Z</time>
      </trkpt>
      <trkpt lat="48.85949" lon="1.77113">
        <ele>124.8</ele>
        <time>2023-12-20T11:15:10Z</time>
      </trkpt>
      <trkpt lat="48.85951" lon="1.77103">
        <ele>123.6</ele>
        <time>2023-12-20T11:15:11Z</time>
      </trkpt>
      <trkpt lat="48.85953" lon="1.77094">
        <ele>123.6</ele>
        <time>2023-12-20T11:15:12Z</time>
      </trkpt>
      <trkpt lat="48.85956" lon="1.77085">
        <ele>123.6</ele>
        <time>2023-12-20T11:15:13Z</time>
      </trkpt>
      <trkpt lat="48.85958" lon="1.77075">
        <ele>124.6</ele>
        <time>2023-12-20T11:15:14Z</time>
      </trkpt>
      <trkpt lat="48.85959" lon="1.77066">
        <ele>124.8</ele>
        <time>2023-12-20T11:15:15Z</time>
      </trkpt>
      <trkpt lat="48.85961" lon="1.77057">
        <ele>124.8</ele>
        <time>2023-12-20T11:15:16Z</time>
      </trkpt>
      <trkpt lat="48.85963" lon="1.77048">
        <ele>124.8</ele>
        <time>2023-12-20T11:15:17Z</time>
      </trkpt>
      <trkpt lat="48.85965" lon="1.77039">
        <ele>125</ele>
        <time>2023-12-20T11:15:18Z</time>
      </trkpt>
      <trkpt lat="48.85966" lon="1.7703">
        <ele>124.4</ele>
        <time>2023-12-20T11:15:19Z</time>
      </trkpt>
      <trkpt lat="48.85967" lon="1.77022">
        <ele>124.4</ele>
        <time>2023-12-20T11:15:20Z</time>
      </trkpt>
      <trkpt lat="48.85968" lon="1.77013">
        <ele>124.4</ele>
        <time>2023-12-20T11:15:21Z</time>
      </trkpt>
      <trkpt lat="48.85968" lon="1.77004">
        <ele>124.4</ele>
        <time>2023-12-20T11:15:22Z</time>
      </trkpt>
      <trkpt lat="48.85967" lon="1.76996">
        <ele>125</ele>
        <time>2023-12-20T11:15:23Z</time>
      </trkpt>
      <trkpt lat="48.85966" lon="1.76987">
        <ele>125</ele>
        <time>2023-12-20T11:15:24Z</time>
      </trkpt>
      <trkpt lat="48.85965" lon="1.76979">
        <ele>125</ele>
        <time>2023-12-20T11:15:25Z</time>
      </trkpt>
      <trkpt lat="48.85963" lon="1.76971">
        <ele>125</ele>
        <time>2023-12-20T11:15:26Z</time>
      </trkpt>
      <trkpt lat="48.85962" lon="1.76963">
        <ele>125</ele>
        <time>2023-12-20T11:15:27Z</time>
      </trkpt>
      <trkpt lat="48.85961" lon="1.76954">
        <ele>125</ele>
        <time>2023-12-20T11:15:28Z</time>
      </trkpt>
      <trkpt lat="48.85959" lon="1.76946">
        <ele>125</ele>
        <time>2023-12-20T11:15:29Z</time>
      </trkpt>
      <trkpt lat="48.85957" lon="1.76937">
        <ele>125</ele>
        <time>2023-12-20T11:15:30Z</time>
      </trkpt>
      <trkpt lat="48.85956" lon="1.76929">
        <ele>125</ele>
        <time>2023-12-20T11:15:31Z</time>
      </trkpt>
      <trkpt lat="48.85954" lon="1.7692">
        <ele>125</ele>
        <time>2023-12-20T11:15:32Z</time>
      </trkpt>
      <trkpt lat="48.85952" lon="1.76911">
        <ele>125</ele>
        <time>2023-12-20T11:15:33Z</time>
      </trkpt>
      <trkpt lat="48.85951" lon="1.76902">
        <ele>125</ele>
        <time>2023-12-20T11:15:34Z</time>
      </trkpt>
      <trkpt lat="48.85949" lon="1.76893">
        <ele>125</ele>
        <time>2023-12-20T11:15:35Z</time>
      </trkpt>
      <trkpt lat="48.85947" lon="1.76884">
        <ele>125</ele>
        <time>2023-12-20T11:15:36Z</time>
      </trkpt>
      <trkpt lat="48.85945" lon="1.76875">
        <ele>125</ele>
        <time>2023-12-20T11:15:37Z</time>
      </trkpt>
      <trkpt lat="48.85944" lon="1.76866">
        <ele>124.6</ele>
        <time>2023-12-20T11:15:38Z</time>
      </trkpt>
      <trkpt lat="48.85942" lon="1.76858">
        <ele>124.6</ele>
        <time>2023-12-20T11:15:39Z</time>
      </trkpt>
      <trkpt lat="48.8594" lon="1.76849">
        <ele>124.6</ele>
        <time>2023-12-20T11:15:40Z</time>
      </trkpt>
      <trkpt lat="48.85938" lon="1.76841">
        <ele>124.6</ele>
        <time>2023-12-20T11:15:41Z</time>
      </trkpt>
      <trkpt lat="48.85937" lon="1.76833">
        <ele>124.2</ele>
        <time>2023-12-20T11:15:42Z</time>
      </trkpt>
      <trkpt lat="48.85935" lon="1.76824">
        <ele>124.4</ele>
        <time>2023-12-20T11:15:43Z</time>
      </trkpt>
      <trkpt lat="48.85934" lon="1.76816">
        <ele>124.4</ele>
        <time>2023-12-20T11:15:44Z</time>
      </trkpt>
      <trkpt lat="48.85933" lon="1.76807">
        <ele>124.4</ele>
        <time>2023-12-20T11:15:45Z</time>
      </trkpt>
      <trkpt lat="48.85932" lon="1.76797">
        <ele>124.4</ele>
        <time>2023-12-20T11:15:46Z</time>
      </trkpt>
      <trkpt lat="48.85931" lon="1.76788">
        <ele>124.8</ele>
        <time>2023-12-20T11:15:47Z</time>
      </trkpt>
      <trkpt lat="48.85931" lon="1.76778">
        <ele>124.8</ele>
        <time>2023-12-20T11:15:48Z</time>
      </trkpt>
      <trkpt lat="48.85932" lon="1.76769">
        <ele>124.8</ele>
        <time>2023-12-20T11:15:49Z</time>
      </trkpt>
      <trkpt lat="48.85933" lon="1.7676">
        <ele>124.8</ele>
        <time>2023-12-20T11:15:50Z</time>
      </trkpt>
      <trkpt lat="48.85935" lon="1.76751">
        <ele>124.4</ele>
        <time>2023-12-20T11:15:51Z</time>
      </trkpt>
      <trkpt lat="48.85937" lon="1.76742">
        <ele>124.4</ele>
        <time>2023-12-20T11:15:52Z</time>
      </trkpt>
      <trkpt lat="48.8594" lon="1.76733">
        <ele>124.4</ele>
        <time>2023-12-20T11:15:53Z</time>
      </trkpt>
      <trkpt lat="48.85942" lon="1.76725">
        <ele>124.4</ele>
        <time>2023-12-20T11:15:54Z</time>
      </trkpt>
      <trkpt lat="48.85945" lon="1.76716">
        <ele>124.2</ele>
        <time>2023-12-20T11:15:55Z</time>
      </trkpt>
      <trkpt lat="48.85947" lon="1.76707">
        <ele>124.2</ele>
        <time>2023-12-20T11:15:56Z</time>
      </trkpt>
      <trkpt lat="48.8595" lon="1.76699">
        <ele>124.2</ele>
        <time>2023-12-20T11:15:57Z</time>
      </trkpt>
      <trkpt lat="48.85952" lon="1.76691">
        <ele>125.2</ele>
        <time>2023-12-20T11:15:58Z</time>
      </trkpt>
      <trkpt lat="48.85955" lon="1.76682">
        <ele>123.8</ele>
        <time>2023-12-20T11:15:59Z</time>
      </trkpt>
      <trkpt lat="48.85958" lon="1.76674">
        <ele>123.8</ele>
        <time>2023-12-20T11:16:00Z</time>
      </trkpt>
      <trkpt lat="48.8596" lon="1.76666">
        <ele>123.8</ele>
        <time>2023-12-20T11:16:01Z</time>
      </trkpt>
      <trkpt lat="48.85963" lon="1.76657">
        <ele>124.8</ele>
        <time>2023-12-20T11:16:02Z</time>
      </trkpt>
      <trkpt lat="48.85965" lon="1.76649">
        <ele>125.6</ele>
        <time>2023-12-20T11:16:03Z</time>
      </trkpt>
      <trkpt lat="48.85968" lon="1.7664">
        <ele>125.6</ele>
        <time>2023-12-20T11:16:04Z</time>
      </trkpt>
      <trkpt lat="48.8597" lon="1.76632">
        <ele>125.6</ele>
        <time>2023-12-20T11:16:05Z</time>
      </trkpt>
      <trkpt lat="48.85973" lon="1.76623">
        <ele>125.6</ele>
        <time>2023-12-20T11:16:06Z</time>
      </trkpt>
      <trkpt lat="48.85975" lon="1.76615">
        <ele>126.2</ele>
        <time>2023-12-20T11:16:07Z</time>
      </trkpt>
      <trkpt lat="48.85978" lon="1.76607">
        <ele>126.2</ele>
        <time>2023-12-20T11:16:08Z</time>
      </trkpt>
      <trkpt lat="48.8598" lon="1.76598">
        <ele>126.2</ele>
        <time>2023-12-20T11:16:09Z</time>
      </trkpt>
      <trkpt lat="48.85983" lon="1.76589">
        <ele>126.2</ele>
        <time>2023-12-20T11:16:10Z</time>
      </trkpt>
      <trkpt lat="48.85985" lon="1.7658">
        <ele>124.8</ele>
        <time>2023-12-20T11:16:11Z</time>
      </trkpt>
      <trkpt lat="48.85987" lon="1.76572">
        <ele>124.8</ele>
        <time>2023-12-20T11:16:12Z</time>
      </trkpt>
      <trkpt lat="48.85989" lon="1.76563">
        <ele>124.8</ele>
        <time>2023-12-20T11:16:13Z</time>
      </trkpt>
      <trkpt lat="48.85991" lon="1.76554">
        <ele>124.8</ele>
        <time>2023-12-20T11:16:14Z</time>
      </trkpt>
      <trkpt lat="48.85993" lon="1.76546">
        <ele>124.6</ele>
        <time>2023-12-20T11:16:15Z</time>
      </trkpt>
      <trkpt lat="48.85995" lon="1.76538">
        <ele>124.6</ele>
        <time>2023-12-20T11:16:16Z</time>
      </trkpt>
      <trkpt lat="48.85997" lon="1.76529">
        <ele>124.6</ele>
        <time>2023-12-20T11:16:17Z</time>
      </trkpt>
      <trkpt lat="48.85999" lon="1.76521">
        <ele>125</ele>
        <time>2023-12-20T11:16:18Z</time>
      </trkpt>
      <trkpt lat="48.86" lon="1.76512">
        <ele>125</ele>
        <time>2023-12-20T11:16:19Z</time>
      </trkpt>
      <trkpt lat="48.86002" lon="1.76504">
        <ele>125</ele>
        <time>2023-12-20T11:16:20Z</time>
      </trkpt>
      <trkpt lat="48.86004" lon="1.76496">
        <ele>125</ele>
        <time>2023-12-20T11:16:21Z</time>
      </trkpt>
      <trkpt lat="48.86006" lon="1.76488">
        <ele>125</ele>
        <time>2023-12-20T11:16:22Z</time>
      </trkpt>
      <trkpt lat="48.86007" lon="1.76479">
        <ele>125</ele>
        <time>2023-12-20T11:16:23Z</time>
      </trkpt>
      <trkpt lat="48.86009" lon="1.76471">
        <ele>125</ele>
        <time>2023-12-20T11:16:24Z</time>
      </trkpt>
      <trkpt lat="48.86011" lon="1.76462">
        <ele>125</ele>
        <time>2023-12-20T11:16:25Z</time>
      </trkpt>
      <trkpt lat="48.86013" lon="1.76454">
        <ele>125</ele>
        <time>2023-12-20T11:16:26Z</time>
      </trkpt>
      <trkpt lat="48.86015" lon="1.76445">
        <ele>125.2</ele>
        <time>2023-12-20T11:16:27Z</time>
      </trkpt>
      <trkpt lat="48.86017" lon="1.76437">
        <ele>125.2</ele>
        <time>2023-12-20T11:16:28Z</time>
      </trkpt>
      <trkpt lat="48.86019" lon="1.76429">
        <ele>125.2</ele>
        <time>2023-12-20T11:16:29Z</time>
      </trkpt>
      <trkpt lat="48.8602" lon="1.7642">
        <ele>125.2</ele>
        <time>2023-12-20T11:16:30Z</time>
      </trkpt>
      <trkpt lat="48.86022" lon="1.76412">
        <ele>125.2</ele>
        <time>2023-12-20T11:16:31Z</time>
      </trkpt>
      <trkpt lat="48.86024" lon="1.76403">
        <ele>125.2</ele>
        <time>2023-12-20T11:16:32Z</time>
      </trkpt>
      <trkpt lat="48.86025" lon="1.76395">
        <ele>125.2</ele>
        <time>2023-12-20T11:16:33Z</time>
      </trkpt>
      <trkpt lat="48.86027" lon="1.76387">
        <ele>125.2</ele>
        <time>2023-12-20T11:16:34Z</time>
      </trkpt>
      <trkpt lat="48.86029" lon="1.76379">
        <ele>125</ele>
        <time>2023-12-20T11:16:35Z</time>
      </trkpt>
      <trkpt lat="48.86031" lon="1.7637">
        <ele>125</ele>
        <time>2023-12-20T11:16:36Z</time>
      </trkpt>
      <trkpt lat="48.86032" lon="1.76362">
        <ele>125</ele>
        <time>2023-12-20T11:16:37Z</time>
      </trkpt>
      <trkpt lat="48.86034" lon="1.76354">
        <ele>126</ele>
        <time>2023-12-20T11:16:38Z</time>
      </trkpt>
      <trkpt lat="48.86035" lon="1.76345">
        <ele>126.2</ele>
        <time>2023-12-20T11:16:39Z</time>
      </trkpt>
      <trkpt lat="48.86036" lon="1.76337">
        <ele>126.2</ele>
        <time>2023-12-20T11:16:40Z</time>
      </trkpt>
      <trkpt lat="48.86037" lon="1.76329">
        <ele>126.2</ele>
        <time>2023-12-20T11:16:41Z</time>
      </trkpt>
      <trkpt lat="48.86038" lon="1.76321">
        <ele>126.2</ele>
        <time>2023-12-20T11:16:42Z</time>
      </trkpt>
      <trkpt lat="48.8604" lon="1.76312">
        <ele>126.2</ele>
        <time>2023-12-20T11:16:43Z</time>
      </trkpt>
      <trkpt lat="48.8604" lon="1.76304">
        <ele>126.2</ele>
        <time>2023-12-20T11:16:44Z</time>
      </trkpt>
      <trkpt lat="48.86041" lon="1.76295">
        <ele>126.2</ele>
        <time>2023-12-20T11:16:45Z</time>
      </trkpt>
      <trkpt lat="48.86042" lon="1.76287">
        <ele>125.2</ele>
        <time>2023-12-20T11:16:46Z</time>
      </trkpt>
      <trkpt lat="48.86043" lon="1.76279">
        <ele>125</ele>
        <time>2023-12-20T11:16:47Z</time>
      </trkpt>
      <trkpt lat="48.86044" lon="1.76271">
        <ele>125</ele>
        <time>2023-12-20T11:16:48Z</time>
      </trkpt>
      <trkpt lat="48.86045" lon="1.76263">
        <ele>125</ele>
        <time>2023-12-20T11:16:49Z</time>
      </trkpt>
      <trkpt lat="48.86046" lon="1.76254">
        <ele>126</ele>
        <time>2023-12-20T11:16:50Z</time>
      </trkpt>
      <trkpt lat="48.86046" lon="1.76247">
        <ele>125.8</ele>
        <time>2023-12-20T11:16:51Z</time>
      </trkpt>
      <trkpt lat="48.86046" lon="1.76239">
        <ele>125.8</ele>
        <time>2023-12-20T11:16:52Z</time>
      </trkpt>
      <trkpt lat="48.86046" lon="1.76231">
        <ele>125.8</ele>
        <time>2023-12-20T11:16:53Z</time>
      </trkpt>
      <trkpt lat="48.86046" lon="1.76222">
        <ele>125.8</ele>
        <time>2023-12-20T11:16:54Z</time>
      </trkpt>
      <trkpt lat="48.86046" lon="1.76213">
        <ele>124.2</ele>
        <time>2023-12-20T11:16:55Z</time>
      </trkpt>
      <trkpt lat="48.86045" lon="1.76203">
        <ele>124.2</ele>
        <time>2023-12-20T11:16:56Z</time>
      </trkpt>
      <trkpt lat="48.86045" lon="1.76194">
        <ele>124.2</ele>
        <time>2023-12-20T11:16:57Z</time>
      </trkpt>
      <trkpt lat="48.86044" lon="1.76185">
        <ele>124.8</ele>
        <time>2023-12-20T11:16:58Z</time>
      </trkpt>
      <trkpt lat="48.86044" lon="1.76177">
        <ele>124.6</ele>
        <time>2023-12-20T11:16:59Z</time>
      </trkpt>
      <trkpt lat="48.86043" lon="1.76168">
        <ele>124.6</ele>
        <time>2023-12-20T11:17:00Z</time>
      </trkpt>
      <trkpt lat="48.86043" lon="1.76158">
        <ele>124.6</ele>
        <time>2023-12-20T11:17:01Z</time>
      </trkpt>
      <trkpt lat="48.86042" lon="1.76148">
        <ele>124.2</ele>
        <time>2023-12-20T11:17:02Z</time>
      </trkpt>
      <trkpt lat="48.86041" lon="1.76139">
        <ele>125.4</ele>
        <time>2023-12-20T11:17:03Z</time>
      </trkpt>
      <trkpt lat="48.8604" lon="1.76129">
        <ele>125.4</ele>
        <time>2023-12-20T11:17:04Z</time>
      </trkpt>
      <trkpt lat="48.86039" lon="1.76119">
        <ele>125.4</ele>
        <time>2023-12-20T11:17:05Z</time>
      </trkpt>
      <trkpt lat="48.86038" lon="1.76109">
        <ele>125.4</ele>
        <time>2023-12-20T11:17:06Z</time>
      </trkpt>
      <trkpt lat="48.86038" lon="1.761">
        <ele>126</ele>
        <time>2023-12-20T11:17:07Z</time>
      </trkpt>
      <trkpt lat="48.86037" lon="1.7609">
        <ele>126</ele>
        <time>2023-12-20T11:17:08Z</time>
      </trkpt>
      <trkpt lat="48.86036" lon="1.7608">
        <ele>126</ele>
        <time>2023-12-20T11:17:09Z</time>
      </trkpt>
      <trkpt lat="48.86035" lon="1.7607">
        <ele>126</ele>
        <time>2023-12-20T11:17:10Z</time>
      </trkpt>
      <trkpt lat="48.86035" lon="1.7606">
        <ele>124.6</ele>
        <time>2023-12-20T11:17:11Z</time>
      </trkpt>
      <trkpt lat="48.86034" lon="1.76051">
        <ele>124.6</ele>
        <time>2023-12-20T11:17:12Z</time>
      </trkpt>
      <trkpt lat="48.86033" lon="1.76041">
        <ele>124.6</ele>
        <time>2023-12-20T11:17:13Z</time>
      </trkpt>
      <trkpt lat="48.86032" lon="1.76032">
        <ele>125</ele>
        <time>2023-12-20T11:17:14Z</time>
      </trkpt>
      <trkpt lat="48.86032" lon="1.76022">
        <ele>125.2</ele>
        <time>2023-12-20T11:17:15Z</time>
      </trkpt>
      <trkpt lat="48.86031" lon="1.76013">
        <ele>125.2</ele>
        <time>2023-12-20T11:17:16Z</time>
      </trkpt>
      <trkpt lat="48.8603" lon="1.76004">
        <ele>125.2</ele>
        <time>2023-12-20T11:17:17Z</time>
      </trkpt>
      <trkpt lat="48.8603" lon="1.75996">
        <ele>125.2</ele>
        <time>2023-12-20T11:17:18Z</time>
      </trkpt>
      <trkpt lat="48.86031" lon="1.75987">
        <ele>124.2</ele>
        <time>2023-12-20T11:17:19Z</time>
      </trkpt>
      <trkpt lat="48.8603" lon="1.75978">
        <ele>124.2</ele>
        <time>2023-12-20T11:17:20Z</time>
      </trkpt>
      <trkpt lat="48.86029" lon="1.75968">
        <ele>124.2</ele>
        <time>2023-12-20T11:17:21Z</time>
      </trkpt>
      <trkpt lat="48.86029" lon="1.75958">
        <ele>124.2</ele>
        <time>2023-12-20T11:17:22Z</time>
      </trkpt>
      <trkpt lat="48.86028" lon="1.75948">
        <ele>123.6</ele>
        <time>2023-12-20T11:17:23Z</time>
      </trkpt>
      <trkpt lat="48.86026" lon="1.75937">
        <ele>123.6</ele>
        <time>2023-12-20T11:17:24Z</time>
      </trkpt>
      <trkpt lat="48.86025" lon="1.75927">
        <ele>123.6</ele>
        <time>2023-12-20T11:17:25Z</time>
      </trkpt>
      <trkpt lat="48.86024" lon="1.75917">
        <ele>123.4</ele>
        <time>2023-12-20T11:17:26Z</time>
      </trkpt>
      <trkpt lat="48.86022" lon="1.75906">
        <ele>123.2</ele>
        <time>2023-12-20T11:17:27Z</time>
      </trkpt>
      <trkpt lat="48.86021" lon="1.75896">
        <ele>123.2</ele>
        <time>2023-12-20T11:17:28Z</time>
      </trkpt>
      <trkpt lat="48.8602" lon="1.75886">
        <ele>123.2</ele>
        <time>2023-12-20T11:17:29Z</time>
      </trkpt>
      <trkpt lat="48.86018" lon="1.75876">
        <ele>123.2</ele>
        <time>2023-12-20T11:17:30Z</time>
      </trkpt>
      <trkpt lat="48.86017" lon="1.75866">
        <ele>123.4</ele>
        <time>2023-12-20T11:17:31Z</time>
      </trkpt>
      <trkpt lat="48.86015" lon="1.75856">
        <ele>123.4</ele>
        <time>2023-12-20T11:17:32Z</time>
      </trkpt>
      <trkpt lat="48.86013" lon="1.75846">
        <ele>123.4</ele>
        <time>2023-12-20T11:17:33Z</time>
      </trkpt>
      <trkpt lat="48.8601" lon="1.75836">
        <ele>123.4</ele>
        <time>2023-12-20T11:17:34Z</time>
      </trkpt>
      <trkpt lat="48.86008" lon="1.75826">
        <ele>123.2</ele>
        <time>2023-12-20T11:17:35Z</time>
      </trkpt>
      <trkpt lat="48.86006" lon="1.75816">
        <ele>123.2</ele>
        <time>2023-12-20T11:17:36Z</time>
      </trkpt>
      <trkpt lat="48.86003" lon="1.75806">
        <ele>123.2</ele>
        <time>2023-12-20T11:17:37Z</time>
      </trkpt>
      <trkpt lat="48.86" lon="1.75796">
        <ele>123.2</ele>
        <time>2023-12-20T11:17:38Z</time>
      </trkpt>
      <trkpt lat="48.85997" lon="1.75787">
        <ele>124</ele>
        <time>2023-12-20T11:17:39Z</time>
      </trkpt>
      <trkpt lat="48.85994" lon="1.75777">
        <ele>124</ele>
        <time>2023-12-20T11:17:40Z</time>
      </trkpt>
      <trkpt lat="48.85991" lon="1.75768">
        <ele>124</ele>
        <time>2023-12-20T11:17:41Z</time>
      </trkpt>
      <trkpt lat="48.85987" lon="1.75759">
        <ele>123.4</ele>
        <time>2023-12-20T11:17:42Z</time>
      </trkpt>
      <trkpt lat="48.85983" lon="1.7575">
        <ele>124.2</ele>
        <time>2023-12-20T11:17:43Z</time>
      </trkpt>
      <trkpt lat="48.85979" lon="1.75742">
        <ele>124.2</ele>
        <time>2023-12-20T11:17:44Z</time>
      </trkpt>
      <trkpt lat="48.85975" lon="1.75733">
        <ele>124.2</ele>
        <time>2023-12-20T11:17:45Z</time>
      </trkpt>
      <trkpt lat="48.85971" lon="1.75725">
        <ele>123.4</ele>
        <time>2023-12-20T11:17:46Z</time>
      </trkpt>
      <trkpt lat="48.85967" lon="1.75717">
        <ele>123.6</ele>
        <time>2023-12-20T11:17:47Z</time>
      </trkpt>
      <trkpt lat="48.85962" lon="1.75708">
        <ele>123.6</ele>
        <time>2023-12-20T11:17:48Z</time>
      </trkpt>
      <trkpt lat="48.85958" lon="1.757">
        <ele>123.6</ele>
        <time>2023-12-20T11:17:49Z</time>
      </trkpt>
      <trkpt lat="48.85954" lon="1.75692">
        <ele>122.6</ele>
        <time>2023-12-20T11:17:50Z</time>
      </trkpt>
      <trkpt lat="48.85949" lon="1.75684">
        <ele>123</ele>
        <time>2023-12-20T11:17:51Z</time>
      </trkpt>
      <trkpt lat="48.85945" lon="1.75675">
        <ele>123</ele>
        <time>2023-12-20T11:17:52Z</time>
      </trkpt>
      <trkpt lat="48.85941" lon="1.75667">
        <ele>123</ele>
        <time>2023-12-20T11:17:53Z</time>
      </trkpt>
      <trkpt lat="48.85937" lon="1.75658">
        <ele>123</ele>
        <time>2023-12-20T11:17:54Z</time>
      </trkpt>
      <trkpt lat="48.85932" lon="1.7565">
        <ele>123</ele>
        <time>2023-12-20T11:17:55Z</time>
      </trkpt>
      <trkpt lat="48.85929" lon="1.75641">
        <ele>123</ele>
        <time>2023-12-20T11:17:56Z</time>
      </trkpt>
      <trkpt lat="48.85925" lon="1.75632">
        <ele>123</ele>
        <time>2023-12-20T11:17:57Z</time>
      </trkpt>
      <trkpt lat="48.85921" lon="1.75623">
        <ele>123</ele>
        <time>2023-12-20T11:17:58Z</time>
      </trkpt>
      <trkpt lat="48.85918" lon="1.75614">
        <ele>123</ele>
        <time>2023-12-20T11:17:59Z</time>
      </trkpt>
      <trkpt lat="48.85915" lon="1.75605">
        <ele>123</ele>
        <time>2023-12-20T11:18:00Z</time>
      </trkpt>
      <trkpt lat="48.85912" lon="1.75595">
        <ele>123</ele>
        <time>2023-12-20T11:18:01Z</time>
      </trkpt>
      <trkpt lat="48.85909" lon="1.75585">
        <ele>122.6</ele>
        <time>2023-12-20T11:18:02Z</time>
      </trkpt>
      <trkpt lat="48.85907" lon="1.75576">
        <ele>123</ele>
        <time>2023-12-20T11:18:03Z</time>
      </trkpt>
      <trkpt lat="48.85905" lon="1.75566">
        <ele>123</ele>
        <time>2023-12-20T11:18:04Z</time>
      </trkpt>
      <trkpt lat="48.85903" lon="1.75556">
        <ele>123</ele>
        <time>2023-12-20T11:18:05Z</time>
      </trkpt>
      <trkpt lat="48.85901" lon="1.75546">
        <ele>122.6</ele>
        <time>2023-12-20T11:18:06Z</time>
      </trkpt>
      <trkpt lat="48.85899" lon="1.75536">
        <ele>123</ele>
        <time>2023-12-20T11:18:07Z</time>
      </trkpt>
      <trkpt lat="48.85897" lon="1.75525">
        <ele>123</ele>
        <time>2023-12-20T11:18:08Z</time>
      </trkpt>
      <trkpt lat="48.85894" lon="1.75515">
        <ele>123</ele>
        <time>2023-12-20T11:18:09Z</time>
      </trkpt>
      <trkpt lat="48.85892" lon="1.75505">
        <ele>123</ele>
        <time>2023-12-20T11:18:10Z</time>
      </trkpt>
      <trkpt lat="48.8589" lon="1.75495">
        <ele>122</ele>
        <time>2023-12-20T11:18:11Z</time>
      </trkpt>
      <trkpt lat="48.85888" lon="1.75485">
        <ele>122</ele>
        <time>2023-12-20T11:18:12Z</time>
      </trkpt>
      <trkpt lat="48.85886" lon="1.75475">
        <ele>122</ele>
        <time>2023-12-20T11:18:13Z</time>
      </trkpt>
      <trkpt lat="48.85884" lon="1.75465">
        <ele>122</ele>
        <time>2023-12-20T11:18:14Z</time>
      </trkpt>
      <trkpt lat="48.85882" lon="1.75454">
        <ele>122.2</ele>
        <time>2023-12-20T11:18:15Z</time>
      </trkpt>
      <trkpt lat="48.8588" lon="1.75444">
        <ele>122.2</ele>
        <time>2023-12-20T11:18:16Z</time>
      </trkpt>
      <trkpt lat="48.85878" lon="1.75434">
        <ele>122.2</ele>
        <time>2023-12-20T11:18:17Z</time>
      </trkpt>
      <trkpt lat="48.85876" lon="1.75424">
        <ele>122.2</ele>
        <time>2023-12-20T11:18:18Z</time>
      </trkpt>
      <trkpt lat="48.85874" lon="1.75415">
        <ele>122.2</ele>
        <time>2023-12-20T11:18:19Z</time>
      </trkpt>
      <trkpt lat="48.85872" lon="1.75405">
        <ele>122.2</ele>
        <time>2023-12-20T11:18:20Z</time>
      </trkpt>
      <trkpt lat="48.8587" lon="1.75395">
        <ele>122.2</ele>
        <time>2023-12-20T11:18:21Z</time>
      </trkpt>
      <trkpt lat="48.85868" lon="1.75385">
        <ele>121.2</ele>
        <time>2023-12-20T11:18:22Z</time>
      </trkpt>
      <trkpt lat="48.85866" lon="1.75375">
        <ele>120</ele>
        <time>2023-12-20T11:18:23Z</time>
      </trkpt>
      <trkpt lat="48.85864" lon="1.75365">
        <ele>120</ele>
        <time>2023-12-20T11:18:24Z</time>
      </trkpt>
      <trkpt lat="48.85862" lon="1.75355">
        <ele>120</ele>
        <time>2023-12-20T11:18:25Z</time>
      </trkpt>
      <trkpt lat="48.8586" lon="1.75345">
        <ele>119.4</ele>
        <time>2023-12-20T11:18:26Z</time>
      </trkpt>
      <trkpt lat="48.85858" lon="1.75336">
        <ele>120.2</ele>
        <time>2023-12-20T11:18:27Z</time>
      </trkpt>
      <trkpt lat="48.85856" lon="1.75326">
        <ele>120.2</ele>
        <time>2023-12-20T11:18:28Z</time>
      </trkpt>
      <trkpt lat="48.85853" lon="1.75317">
        <ele>120.2</ele>
        <time>2023-12-20T11:18:29Z</time>
      </trkpt>
      <trkpt lat="48.8585" lon="1.75307">
        <ele>120.2</ele>
        <time>2023-12-20T11:18:30Z</time>
      </trkpt>
      <trkpt lat="48.85846" lon="1.75298">
        <ele>120</ele>
        <time>2023-12-20T11:18:31Z</time>
      </trkpt>
      <trkpt lat="48.85842" lon="1.7529">
        <ele>120</ele>
        <time>2023-12-20T11:18:32Z</time>
      </trkpt>
      <trkpt lat="48.85837" lon="1.75282">
        <ele>120</ele>
        <time>2023-12-20T11:18:33Z</time>
      </trkpt>
      <trkpt lat="48.85832" lon="1.75275">
        <ele>120.4</ele>
        <time>2023-12-20T11:18:34Z</time>
      </trkpt>
      <trkpt lat="48.85827" lon="1.75268">
        <ele>119.6</ele>
        <time>2023-12-20T11:18:35Z</time>
      </trkpt>
      <trkpt lat="48.85822" lon="1.75261">
        <ele>119.6</ele>
        <time>2023-12-20T11:18:36Z</time>
      </trkpt>
      <trkpt lat="48.85816" lon="1.75255">
        <ele>119.6</ele>
        <time>2023-12-20T11:18:37Z</time>
      </trkpt>
      <trkpt lat="48.85811" lon="1.75248">
        <ele>119.6</ele>
        <time>2023-12-20T11:18:38Z</time>
      </trkpt>
      <trkpt lat="48.85806" lon="1.75242">
        <ele>119.2</ele>
        <time>2023-12-20T11:18:39Z</time>
      </trkpt>
      <trkpt lat="48.85801" lon="1.75235">
        <ele>119.2</ele>
        <time>2023-12-20T11:18:40Z</time>
      </trkpt>
      <trkpt lat="48.85796" lon="1.75229">
        <ele>119.2</ele>
        <time>2023-12-20T11:18:41Z</time>
      </trkpt>
      <trkpt lat="48.85791" lon="1.75223">
        <ele>119.4</ele>
        <time>2023-12-20T11:18:42Z</time>
      </trkpt>
      <trkpt lat="48.85786" lon="1.75217">
        <ele>119.4</ele>
        <time>2023-12-20T11:18:43Z</time>
      </trkpt>
      <trkpt lat="48.85781" lon="1.7521">
        <ele>119.4</ele>
        <time>2023-12-20T11:18:44Z</time>
      </trkpt>
      <trkpt lat="48.85776" lon="1.75203">
        <ele>119.4</ele>
        <time>2023-12-20T11:18:45Z</time>
      </trkpt>
      <trkpt lat="48.85772" lon="1.75196">
        <ele>119.8</ele>
        <time>2023-12-20T11:18:46Z</time>
      </trkpt>
      <trkpt lat="48.85767" lon="1.75188">
        <ele>119.4</ele>
        <time>2023-12-20T11:18:47Z</time>
      </trkpt>
      <trkpt lat="48.85763" lon="1.7518">
        <ele>119.4</ele>
        <time>2023-12-20T11:18:48Z</time>
      </trkpt>
      <trkpt lat="48.85759" lon="1.7517">
        <ele>119.4</ele>
        <time>2023-12-20T11:18:49Z</time>
      </trkpt>
      <trkpt lat="48.85756" lon="1.7516">
        <ele>118.4</ele>
        <time>2023-12-20T11:18:50Z</time>
      </trkpt>
      <trkpt lat="48.85754" lon="1.7515">
        <ele>119.2</ele>
        <time>2023-12-20T11:18:51Z</time>
      </trkpt>
      <trkpt lat="48.85752" lon="1.7514">
        <ele>119.2</ele>
        <time>2023-12-20T11:18:52Z</time>
      </trkpt>
      <trkpt lat="48.8575" lon="1.75129">
        <ele>119.2</ele>
        <time>2023-12-20T11:18:53Z</time>
      </trkpt>
      <trkpt lat="48.85749" lon="1.75119">
        <ele>118.8</ele>
        <time>2023-12-20T11:18:54Z</time>
      </trkpt>
      <trkpt lat="48.85749" lon="1.75108">
        <ele>118.8</ele>
        <time>2023-12-20T11:18:55Z</time>
      </trkpt>
      <trkpt lat="48.85748" lon="1.75098">
        <ele>118.8</ele>
        <time>2023-12-20T11:18:56Z</time>
      </trkpt>
      <trkpt lat="48.85748" lon="1.75087">
        <ele>118.8</ele>
        <time>2023-12-20T11:18:57Z</time>
      </trkpt>
      <trkpt lat="48.85748" lon="1.75077">
        <ele>119.8</ele>
        <time>2023-12-20T11:18:58Z</time>
      </trkpt>
      <trkpt lat="48.85748" lon="1.75066">
        <ele>119.2</ele>
        <time>2023-12-20T11:18:59Z</time>
      </trkpt>
      <trkpt lat="48.85748" lon="1.75056">
        <ele>119.2</ele>
        <time>2023-12-20T11:19:00Z</time>
      </trkpt>
      <trkpt lat="48.85747" lon="1.75045">
        <ele>119.2</ele>
        <time>2023-12-20T11:19:01Z</time>
      </trkpt>
      <trkpt lat="48.85747" lon="1.75035">
        <ele>119.2</ele>
        <time>2023-12-20T11:19:02Z</time>
      </trkpt>
      <trkpt lat="48.85747" lon="1.75025">
        <ele>119.4</ele>
        <time>2023-12-20T11:19:03Z</time>
      </trkpt>
      <trkpt lat="48.85747" lon="1.75014">
        <ele>119.4</ele>
        <time>2023-12-20T11:19:04Z</time>
      </trkpt>
      <trkpt lat="48.85747" lon="1.75004">
        <ele>119.4</ele>
        <time>2023-12-20T11:19:05Z</time>
      </trkpt>
      <trkpt lat="48.85747" lon="1.74994">
        <ele>119.4</ele>
        <time>2023-12-20T11:19:06Z</time>
      </trkpt>
      <trkpt lat="48.85747" lon="1.74984">
        <ele>119.2</ele>
        <time>2023-12-20T11:19:07Z</time>
      </trkpt>
      <trkpt lat="48.85747" lon="1.74974">
        <ele>119.2</ele>
        <time>2023-12-20T11:19:08Z</time>
      </trkpt>
      <trkpt lat="48.85747" lon="1.74964">
        <ele>119.2</ele>
        <time>2023-12-20T11:19:09Z</time>
      </trkpt>
      <trkpt lat="48.85747" lon="1.74954">
        <ele>119.2</ele>
        <time>2023-12-20T11:19:10Z</time>
      </trkpt>
      <trkpt lat="48.85747" lon="1.74945">
        <ele>118.4</ele>
        <time>2023-12-20T11:19:11Z</time>
      </trkpt>
      <trkpt lat="48.85747" lon="1.74935">
        <ele>118.4</ele>
        <time>2023-12-20T11:19:12Z</time>
      </trkpt>
      <trkpt lat="48.85747" lon="1.74925">
        <ele>118.4</ele>
        <time>2023-12-20T11:19:13Z</time>
      </trkpt>
      <trkpt lat="48.85747" lon="1.74916">
        <ele>117.4</ele>
        <time>2023-12-20T11:19:14Z</time>
      </trkpt>
      <trkpt lat="48.85748" lon="1.74906">
        <ele>117.2</ele>
        <time>2023-12-20T11:19:15Z</time>
      </trkpt>
      <trkpt lat="48.85748" lon="1.74896">
        <ele>117.2</ele>
        <time>2023-12-20T11:19:16Z</time>
      </trkpt>
      <trkpt lat="48.85749" lon="1.74887">
        <ele>117.2</ele>
        <time>2023-12-20T11:19:17Z</time>
      </trkpt>
      <trkpt lat="48.85748" lon="1.74877">
        <ele>118</ele>
        <time>2023-12-20T11:19:18Z</time>
      </trkpt>
      <trkpt lat="48.85749" lon="1.74868">
        <ele>117.6</ele>
        <time>2023-12-20T11:19:19Z</time>
      </trkpt>
      <trkpt lat="48.8575" lon="1.74858">
        <ele>117.6</ele>
        <time>2023-12-20T11:19:20Z</time>
      </trkpt>
      <trkpt lat="48.85751" lon="1.74848">
        <ele>117.6</ele>
        <time>2023-12-20T11:19:21Z</time>
      </trkpt>
      <trkpt lat="48.85752" lon="1.74839">
        <ele>117.6</ele>
        <time>2023-12-20T11:19:22Z</time>
      </trkpt>
      <trkpt lat="48.85752" lon="1.7483">
        <ele>117.2</ele>
        <time>2023-12-20T11:19:23Z</time>
      </trkpt>
      <trkpt lat="48.85752" lon="1.7482">
        <ele>117.2</ele>
        <time>2023-12-20T11:19:24Z</time>
      </trkpt>
      <trkpt lat="48.85751" lon="1.7481">
        <ele>117.2</ele>
        <time>2023-12-20T11:19:25Z</time>
      </trkpt>
      <trkpt lat="48.8575" lon="1.74799">
        <ele>116.2</ele>
        <time>2023-12-20T11:19:26Z</time>
      </trkpt>
      <trkpt lat="48.85748" lon="1.74789">
        <ele>115</ele>
        <time>2023-12-20T11:19:27Z</time>
      </trkpt>
      <trkpt lat="48.85746" lon="1.74778">
        <ele>115</ele>
        <time>2023-12-20T11:19:28Z</time>
      </trkpt>
      <trkpt lat="48.85744" lon="1.74768">
        <ele>115</ele>
        <time>2023-12-20T11:19:29Z</time>
      </trkpt>
      <trkpt lat="48.85742" lon="1.74757">
        <ele>115</ele>
        <time>2023-12-20T11:19:30Z</time>
      </trkpt>
      <trkpt lat="48.8574" lon="1.74747">
        <ele>115.4</ele>
        <time>2023-12-20T11:19:31Z</time>
      </trkpt>
      <trkpt lat="48.85738" lon="1.74736">
        <ele>115.4</ele>
        <time>2023-12-20T11:19:32Z</time>
      </trkpt>
      <trkpt lat="48.85737" lon="1.74726">
        <ele>115.4</ele>
        <time>2023-12-20T11:19:33Z</time>
      </trkpt>
      <trkpt lat="48.85735" lon="1.74716">
        <ele>114.8</ele>
        <time>2023-12-20T11:19:34Z</time>
      </trkpt>
      <trkpt lat="48.85733" lon="1.74707">
        <ele>114.8</ele>
        <time>2023-12-20T11:19:35Z</time>
      </trkpt>
      <trkpt lat="48.85731" lon="1.74697">
        <ele>114.8</ele>
        <time>2023-12-20T11:19:36Z</time>
      </trkpt>
      <trkpt lat="48.8573" lon="1.74688">
        <ele>114.8</ele>
        <time>2023-12-20T11:19:37Z</time>
      </trkpt>
      <trkpt lat="48.85728" lon="1.74678">
        <ele>114.8</ele>
        <time>2023-12-20T11:19:38Z</time>
      </trkpt>
      <trkpt lat="48.85726" lon="1.74668">
        <ele>114.8</ele>
        <time>2023-12-20T11:19:39Z</time>
      </trkpt>
      <trkpt lat="48.85724" lon="1.74659">
        <ele>114.8</ele>
        <time>2023-12-20T11:19:40Z</time>
      </trkpt>
      <trkpt lat="48.85723" lon="1.74649">
        <ele>114.8</ele>
        <time>2023-12-20T11:19:41Z</time>
      </trkpt>
      <trkpt lat="48.85722" lon="1.7464">
        <ele>114.8</ele>
        <time>2023-12-20T11:19:42Z</time>
      </trkpt>
      <trkpt lat="48.85721" lon="1.7463">
        <ele>115.4</ele>
        <time>2023-12-20T11:19:43Z</time>
      </trkpt>
      <trkpt lat="48.85722" lon="1.74621">
        <ele>115.4</ele>
        <time>2023-12-20T11:19:44Z</time>
      </trkpt>
      <trkpt lat="48.85723" lon="1.74612">
        <ele>115.4</ele>
        <time>2023-12-20T11:19:45Z</time>
      </trkpt>
      <trkpt lat="48.85724" lon="1.74603">
        <ele>115.4</ele>
        <time>2023-12-20T11:19:46Z</time>
      </trkpt>
      <trkpt lat="48.85726" lon="1.74595">
        <ele>115</ele>
        <time>2023-12-20T11:19:47Z</time>
      </trkpt>
      <trkpt lat="48.85727" lon="1.74586">
        <ele>115</ele>
        <time>2023-12-20T11:19:48Z</time>
      </trkpt>
      <trkpt lat="48.85729" lon="1.74578">
        <ele>115</ele>
        <time>2023-12-20T11:19:49Z</time>
      </trkpt>
      <trkpt lat="48.8573" lon="1.74569">
        <ele>116</ele>
        <time>2023-12-20T11:19:50Z</time>
      </trkpt>
      <trkpt lat="48.85732" lon="1.7456">
        <ele>116.8</ele>
        <time>2023-12-20T11:19:51Z</time>
      </trkpt>
      <trkpt lat="48.85734" lon="1.74552">
        <ele>116.8</ele>
        <time>2023-12-20T11:19:52Z</time>
      </trkpt>
      <trkpt lat="48.85736" lon="1.74544">
        <ele>116.8</ele>
        <time>2023-12-20T11:19:53Z</time>
      </trkpt>
      <trkpt lat="48.85737" lon="1.74535">
        <ele>116.6</ele>
        <time>2023-12-20T11:19:54Z</time>
      </trkpt>
      <trkpt lat="48.85739" lon="1.74526">
        <ele>116.8</ele>
        <time>2023-12-20T11:19:55Z</time>
      </trkpt>
      <trkpt lat="48.8574" lon="1.74517">
        <ele>116.8</ele>
        <time>2023-12-20T11:19:56Z</time>
      </trkpt>
      <trkpt lat="48.85742" lon="1.74508">
        <ele>116.8</ele>
        <time>2023-12-20T11:19:57Z</time>
      </trkpt>
      <trkpt lat="48.85744" lon="1.745">
        <ele>116.8</ele>
        <time>2023-12-20T11:19:58Z</time>
      </trkpt>
      <trkpt lat="48.85745" lon="1.74491">
        <ele>116.8</ele>
        <time>2023-12-20T11:19:59Z</time>
      </trkpt>
      <trkpt lat="48.85747" lon="1.74483">
        <ele>116.8</ele>
        <time>2023-12-20T11:20:00Z</time>
      </trkpt>
      <trkpt lat="48.85749" lon="1.74474">
        <ele>116.8</ele>
        <time>2023-12-20T11:20:01Z</time>
      </trkpt>
      <trkpt lat="48.85751" lon="1.74466">
        <ele>115.8</ele>
        <time>2023-12-20T11:20:02Z</time>
      </trkpt>
      <trkpt lat="48.85753" lon="1.74457">
        <ele>115.4</ele>
        <time>2023-12-20T11:20:03Z</time>
      </trkpt>
      <trkpt lat="48.85754" lon="1.74449">
        <ele>115.4</ele>
        <time>2023-12-20T11:20:04Z</time>
      </trkpt>
      <trkpt lat="48.85756" lon="1.74441">
        <ele>115.4</ele>
        <time>2023-12-20T11:20:05Z</time>
      </trkpt>
      <trkpt lat="48.85757" lon="1.74433">
        <ele>115.4</ele>
        <time>2023-12-20T11:20:06Z</time>
      </trkpt>
      <trkpt lat="48.85759" lon="1.74425">
        <ele>117.6</ele>
        <time>2023-12-20T11:20:07Z</time>
      </trkpt>
      <trkpt lat="48.85761" lon="1.74417">
        <ele>117.6</ele>
        <time>2023-12-20T11:20:08Z</time>
      </trkpt>
      <trkpt lat="48.85763" lon="1.74408">
        <ele>117.6</ele>
        <time>2023-12-20T11:20:09Z</time>
      </trkpt>
      <trkpt lat="48.85764" lon="1.744">
        <ele>116.6</ele>
        <time>2023-12-20T11:20:10Z</time>
      </trkpt>
      <trkpt lat="48.85765" lon="1.74391">
        <ele>116</ele>
        <time>2023-12-20T11:20:11Z</time>
      </trkpt>
      <trkpt lat="48.85766" lon="1.74383">
        <ele>116</ele>
        <time>2023-12-20T11:20:12Z</time>
      </trkpt>
      <trkpt lat="48.85767" lon="1.74374">
        <ele>116</ele>
        <time>2023-12-20T11:20:13Z</time>
      </trkpt>
      <trkpt lat="48.85768" lon="1.74366">
        <ele>116</ele>
        <time>2023-12-20T11:20:14Z</time>
      </trkpt>
      <trkpt lat="48.85769" lon="1.74357">
        <ele>117.4</ele>
        <time>2023-12-20T11:20:15Z</time>
      </trkpt>
      <trkpt lat="48.8577" lon="1.74349">
        <ele>117.4</ele>
        <time>2023-12-20T11:20:16Z</time>
      </trkpt>
      <trkpt lat="48.85771" lon="1.74341">
        <ele>117.4</ele>
        <time>2023-12-20T11:20:17Z</time>
      </trkpt>
      <trkpt lat="48.85773" lon="1.74332">
        <ele>117.4</ele>
        <time>2023-12-20T11:20:18Z</time>
      </trkpt>
      <trkpt lat="48.85775" lon="1.74324">
        <ele>118</ele>
        <time>2023-12-20T11:20:19Z</time>
      </trkpt>
      <trkpt lat="48.85777" lon="1.74316">
        <ele>118</ele>
        <time>2023-12-20T11:20:20Z</time>
      </trkpt>
      <trkpt lat="48.85779" lon="1.74308">
        <ele>118</ele>
        <time>2023-12-20T11:20:21Z</time>
      </trkpt>
      <trkpt lat="48.85781" lon="1.743">
        <ele>117.8</ele>
        <time>2023-12-20T11:20:22Z</time>
      </trkpt>
      <trkpt lat="48.85784" lon="1.74293">
        <ele>118</ele>
        <time>2023-12-20T11:20:23Z</time>
      </trkpt>
      <trkpt lat="48.85787" lon="1.74286">
        <ele>118</ele>
        <time>2023-12-20T11:20:24Z</time>
      </trkpt>
      <trkpt lat="48.8579" lon="1.74278">
        <ele>118</ele>
        <time>2023-12-20T11:20:25Z</time>
      </trkpt>
      <trkpt lat="48.85792" lon="1.74271">
        <ele>118</ele>
        <time>2023-12-20T11:20:26Z</time>
      </trkpt>
      <trkpt lat="48.85795" lon="1.74264">
        <ele>118.8</ele>
        <time>2023-12-20T11:20:27Z</time>
      </trkpt>
      <trkpt lat="48.85798" lon="1.74257">
        <ele>118.8</ele>
        <time>2023-12-20T11:20:28Z</time>
      </trkpt>
      <trkpt lat="48.858" lon="1.74249">
        <ele>118.8</ele>
        <time>2023-12-20T11:20:29Z</time>
      </trkpt>
      <trkpt lat="48.85803" lon="1.74242">
        <ele>118.8</ele>
        <time>2023-12-20T11:20:30Z</time>
      </trkpt>
      <trkpt lat="48.85805" lon="1.74235">
        <ele>117.8</ele>
        <time>2023-12-20T11:20:31Z</time>
      </trkpt>
      <trkpt lat="48.85808" lon="1.74227">
        <ele>117.8</ele>
        <time>2023-12-20T11:20:32Z</time>
      </trkpt>
      <trkpt lat="48.85811" lon="1.7422">
        <ele>117.8</ele>
        <time>2023-12-20T11:20:33Z</time>
      </trkpt>
      <trkpt lat="48.85813" lon="1.74213">
        <ele>117.8</ele>
        <time>2023-12-20T11:20:34Z</time>
      </trkpt>
      <trkpt lat="48.85815" lon="1.74205">
        <ele>118.6</ele>
        <time>2023-12-20T11:20:35Z</time>
      </trkpt>
      <trkpt lat="48.85817" lon="1.74197">
        <ele>118.6</ele>
        <time>2023-12-20T11:20:36Z</time>
      </trkpt>
      <trkpt lat="48.85819" lon="1.7419">
        <ele>118.6</ele>
        <time>2023-12-20T11:20:37Z</time>
      </trkpt>
      <trkpt lat="48.8582" lon="1.74182">
        <ele>119</ele>
        <time>2023-12-20T11:20:38Z</time>
      </trkpt>
      <trkpt lat="48.8582" lon="1.74174">
        <ele>118.6</ele>
        <time>2023-12-20T11:20:39Z</time>
      </trkpt>
      <trkpt lat="48.85821" lon="1.74166">
        <ele>118.6</ele>
        <time>2023-12-20T11:20:40Z</time>
      </trkpt>
      <trkpt lat="48.85821" lon="1.74158">
        <ele>118.6</ele>
        <time>2023-12-20T11:20:41Z</time>
      </trkpt>
      <trkpt lat="48.8582" lon="1.74151">
        <ele>119.6</ele>
        <time>2023-12-20T11:20:42Z</time>
      </trkpt>
      <trkpt lat="48.85819" lon="1.74143">
        <ele>119</ele>
        <time>2023-12-20T11:20:43Z</time>
      </trkpt>
      <trkpt lat="48.85817" lon="1.74136">
        <ele>119</ele>
        <time>2023-12-20T11:20:44Z</time>
      </trkpt>
      <trkpt lat="48.85815" lon="1.74129">
        <ele>119</ele>
        <time>2023-12-20T11:20:45Z</time>
      </trkpt>
      <trkpt lat="48.85812" lon="1.74123">
        <ele>120</ele>
        <time>2023-12-20T11:20:46Z</time>
      </trkpt>
      <trkpt lat="48.85809" lon="1.74116">
        <ele>121.2</ele>
        <time>2023-12-20T11:20:47Z</time>
      </trkpt>
      <trkpt lat="48.85806" lon="1.74111">
        <ele>121.2</ele>
        <time>2023-12-20T11:20:48Z</time>
      </trkpt>
      <trkpt lat="48.85802" lon="1.74105">
        <ele>121.2</ele>
        <time>2023-12-20T11:20:49Z</time>
      </trkpt>
      <trkpt lat="48.85798" lon="1.741">
        <ele>121.6</ele>
        <time>2023-12-20T11:20:50Z</time>
      </trkpt>
      <trkpt lat="48.85794" lon="1.74096">
        <ele>122</ele>
        <time>2023-12-20T11:20:51Z</time>
      </trkpt>
      <trkpt lat="48.8579" lon="1.74091">
        <ele>122</ele>
        <time>2023-12-20T11:20:52Z</time>
      </trkpt>
      <trkpt lat="48.85785" lon="1.74087">
        <ele>122</ele>
        <time>2023-12-20T11:20:53Z</time>
      </trkpt>
      <trkpt lat="48.85781" lon="1.74082">
        <ele>121</ele>
        <time>2023-12-20T11:20:54Z</time>
      </trkpt>
      <trkpt lat="48.85776" lon="1.74078">
        <ele>121.4</ele>
        <time>2023-12-20T11:20:55Z</time>
      </trkpt>
      <trkpt lat="48.85772" lon="1.74074">
        <ele>121.4</ele>
        <time>2023-12-20T11:20:56Z</time>
      </trkpt>
      <trkpt lat="48.85768" lon="1.74069">
        <ele>121.4</ele>
        <time>2023-12-20T11:20:57Z</time>
      </trkpt>
      <trkpt lat="48.85763" lon="1.74065">
        <ele>121.4</ele>
        <time>2023-12-20T11:20:58Z</time>
      </trkpt>
      <trkpt lat="48.85759" lon="1.7406">
        <ele>121.2</ele>
        <time>2023-12-20T11:20:59Z</time>
      </trkpt>
      <trkpt lat="48.85754" lon="1.74056">
        <ele>121.2</ele>
        <time>2023-12-20T11:21:00Z</time>
      </trkpt>
      <trkpt lat="48.8575" lon="1.74051">
        <ele>121.2</ele>
        <time>2023-12-20T11:21:01Z</time>
      </trkpt>
      <trkpt lat="48.85745" lon="1.74047">
        <ele>120.2</ele>
        <time>2023-12-20T11:21:02Z</time>
      </trkpt>
      <trkpt lat="48.85741" lon="1.74042">
        <ele>121</ele>
        <time>2023-12-20T11:21:03Z</time>
      </trkpt>
      <trkpt lat="48.85736" lon="1.74038">
        <ele>121</ele>
        <time>2023-12-20T11:21:04Z</time>
      </trkpt>
      <trkpt lat="48.85732" lon="1.74033">
        <ele>121</ele>
        <time>2023-12-20T11:21:05Z</time>
      </trkpt>
      <trkpt lat="48.85728" lon="1.74029">
        <ele>122</ele>
        <time>2023-12-20T11:21:06Z</time>
      </trkpt>
      <trkpt lat="48.85723" lon="1.74024">
        <ele>122.6</ele>
        <time>2023-12-20T11:21:07Z</time>
      </trkpt>
      <trkpt lat="48.85719" lon="1.74019">
        <ele>122.6</ele>
        <time>2023-12-20T11:21:08Z</time>
      </trkpt>
      <trkpt lat="48.85714" lon="1.74015">
        <ele>122.6</ele>
        <time>2023-12-20T11:21:09Z</time>
      </trkpt>
      <trkpt lat="48.85709" lon="1.7401">
        <ele>121.6</ele>
        <time>2023-12-20T11:21:10Z</time>
      </trkpt>
      <trkpt lat="48.85704" lon="1.74006">
        <ele>120.8</ele>
        <time>2023-12-20T11:21:11Z</time>
      </trkpt>
      <trkpt lat="48.857" lon="1.74001">
        <ele>120.8</ele>
        <time>2023-12-20T11:21:12Z</time>
      </trkpt>
      <trkpt lat="48.85695" lon="1.73996">
        <ele>120.8</ele>
        <time>2023-12-20T11:21:13Z</time>
      </trkpt>
      <trkpt lat="48.8569" lon="1.73992">
        <ele>121.8</ele>
        <time>2023-12-20T11:21:14Z</time>
      </trkpt>
      <trkpt lat="48.85686" lon="1.73988">
        <ele>121.2</ele>
        <time>2023-12-20T11:21:15Z</time>
      </trkpt>
      <trkpt lat="48.85681" lon="1.73983">
        <ele>121.2</ele>
        <time>2023-12-20T11:21:16Z</time>
      </trkpt>
      <trkpt lat="48.85676" lon="1.73978">
        <ele>121.2</ele>
        <time>2023-12-20T11:21:17Z</time>
      </trkpt>
      <trkpt lat="48.85672" lon="1.73974">
        <ele>121.2</ele>
        <time>2023-12-20T11:21:18Z</time>
      </trkpt>
      <trkpt lat="48.85667" lon="1.73969">
        <ele>121.6</ele>
        <time>2023-12-20T11:21:19Z</time>
      </trkpt>
      <trkpt lat="48.85663" lon="1.73964">
        <ele>121.6</ele>
        <time>2023-12-20T11:21:20Z</time>
      </trkpt>
      <trkpt lat="48.85658" lon="1.7396">
        <ele>121.6</ele>
        <time>2023-12-20T11:21:21Z</time>
      </trkpt>
      <trkpt lat="48.85654" lon="1.73956">
        <ele>121.6</ele>
        <time>2023-12-20T11:21:22Z</time>
      </trkpt>
      <trkpt lat="48.85649" lon="1.73952">
        <ele>122</ele>
        <time>2023-12-20T11:21:23Z</time>
      </trkpt>
      <trkpt lat="48.85645" lon="1.73948">
        <ele>122</ele>
        <time>2023-12-20T11:21:24Z</time>
      </trkpt>
      <trkpt lat="48.8564" lon="1.73943">
        <ele>122</ele>
        <time>2023-12-20T11:21:25Z</time>
      </trkpt>
      <trkpt lat="48.85636" lon="1.73939">
        <ele>122.8</ele>
        <time>2023-12-20T11:21:26Z</time>
      </trkpt>
      <trkpt lat="48.85631" lon="1.73935">
        <ele>123.4</ele>
        <time>2023-12-20T11:21:27Z</time>
      </trkpt>
      <trkpt lat="48.85626" lon="1.73931">
        <ele>123.4</ele>
        <time>2023-12-20T11:21:28Z</time>
      </trkpt>
      <trkpt lat="48.85622" lon="1.73926">
        <ele>123.4</ele>
        <time>2023-12-20T11:21:29Z</time>
      </trkpt>
      <trkpt lat="48.85617" lon="1.73922">
        <ele>122.4</ele>
        <time>2023-12-20T11:21:30Z</time>
      </trkpt>
      <trkpt lat="48.85613" lon="1.73917">
        <ele>123.2</ele>
        <time>2023-12-20T11:21:31Z</time>
      </trkpt>
      <trkpt lat="48.85608" lon="1.73913">
        <ele>123.2</ele>
        <time>2023-12-20T11:21:32Z</time>
      </trkpt>
      <trkpt lat="48.85603" lon="1.73909">
        <ele>123.2</ele>
        <time>2023-12-20T11:21:33Z</time>
      </trkpt>
      <trkpt lat="48.85598" lon="1.73905">
        <ele>124.2</ele>
        <time>2023-12-20T11:21:34Z</time>
      </trkpt>
      <trkpt lat="48.85593" lon="1.73901">
        <ele>123.6</ele>
        <time>2023-12-20T11:21:35Z</time>
      </trkpt>
      <trkpt lat="48.85588" lon="1.73897">
        <ele>123.6</ele>
        <time>2023-12-20T11:21:36Z</time>
      </trkpt>
      <trkpt lat="48.85583" lon="1.73892">
        <ele>123.6</ele>
        <time>2023-12-20T11:21:37Z</time>
      </trkpt>
      <trkpt lat="48.85578" lon="1.73887">
        <ele>123.6</ele>
        <time>2023-12-20T11:21:38Z</time>
      </trkpt>
      <trkpt lat="48.85574" lon="1.73881">
        <ele>123</ele>
        <time>2023-12-20T11:21:39Z</time>
      </trkpt>
      <trkpt lat="48.8557" lon="1.73875">
        <ele>123</ele>
        <time>2023-12-20T11:21:40Z</time>
      </trkpt>
      <trkpt lat="48.85565" lon="1.73869">
        <ele>123</ele>
        <time>2023-12-20T11:21:41Z</time>
      </trkpt>
      <trkpt lat="48.85561" lon="1.73864">
        <ele>123</ele>
        <time>2023-12-20T11:21:42Z</time>
      </trkpt>
      <trkpt lat="48.85556" lon="1.73859">
        <ele>123.6</ele>
        <time>2023-12-20T11:21:43Z</time>
      </trkpt>
      <trkpt lat="48.85551" lon="1.73854">
        <ele>123.6</ele>
        <time>2023-12-20T11:21:44Z</time>
      </trkpt>
      <trkpt lat="48.85547" lon="1.73848">
        <ele>123.6</ele>
        <time>2023-12-20T11:21:45Z</time>
      </trkpt>
      <trkpt lat="48.85542" lon="1.73843">
        <ele>123.6</ele>
        <time>2023-12-20T11:21:46Z</time>
      </trkpt>
      <trkpt lat="48.85537" lon="1.73837">
        <ele>123</ele>
        <time>2023-12-20T11:21:47Z</time>
      </trkpt>
      <trkpt lat="48.85532" lon="1.73833">
        <ele>123</ele>
        <time>2023-12-20T11:21:48Z</time>
      </trkpt>
      <trkpt lat="48.85527" lon="1.73828">
        <ele>123</ele>
        <time>2023-12-20T11:21:49Z</time>
      </trkpt>
      <trkpt lat="48.85522" lon="1.73823">
        <ele>123</ele>
        <time>2023-12-20T11:21:50Z</time>
      </trkpt>
      <trkpt lat="48.85517" lon="1.73819">
        <ele>123.6</ele>
        <time>2023-12-20T11:21:51Z</time>
      </trkpt>
      <trkpt lat="48.85512" lon="1.73814">
        <ele>123.6</ele>
        <time>2023-12-20T11:21:52Z</time>
      </trkpt>
      <trkpt lat="48.85507" lon="1.7381">
        <ele>123.6</ele>
        <time>2023-12-20T11:21:53Z</time>
      </trkpt>
      <trkpt lat="48.85501" lon="1.73806">
        <ele>123.4</ele>
        <time>2023-12-20T11:21:54Z</time>
      </trkpt>
      <trkpt lat="48.85496" lon="1.73802">
        <ele>123.4</ele>
        <time>2023-12-20T11:21:55Z</time>
      </trkpt>
      <trkpt lat="48.8549" lon="1.73798">
        <ele>123.4</ele>
        <time>2023-12-20T11:21:56Z</time>
      </trkpt>
      <trkpt lat="48.85485" lon="1.73795">
        <ele>123.4</ele>
        <time>2023-12-20T11:21:57Z</time>
      </trkpt>
      <trkpt lat="48.85479" lon="1.73792">
        <ele>123.4</ele>
        <time>2023-12-20T11:21:58Z</time>
      </trkpt>
      <trkpt lat="48.85474" lon="1.7379">
        <ele>123.4</ele>
        <time>2023-12-20T11:21:59Z</time>
      </trkpt>
      <trkpt lat="48.85468" lon="1.73788">
        <ele>123.4</ele>
        <time>2023-12-20T11:22:00Z</time>
      </trkpt>
      <trkpt lat="48.85462" lon="1.73786">
        <ele>123.4</ele>
        <time>2023-12-20T11:22:01Z</time>
      </trkpt>
      <trkpt lat="48.85456" lon="1.73785">
        <ele>123.4</ele>
        <time>2023-12-20T11:22:02Z</time>
      </trkpt>
      <trkpt lat="48.8545" lon="1.73783">
        <ele>122.6</ele>
        <time>2023-12-20T11:22:03Z</time>
      </trkpt>
      <trkpt lat="48.85445" lon="1.73782">
        <ele>122.6</ele>
        <time>2023-12-20T11:22:04Z</time>
      </trkpt>
      <trkpt lat="48.85439" lon="1.7378">
        <ele>122.6</ele>
        <time>2023-12-20T11:22:05Z</time>
      </trkpt>
      <trkpt lat="48.85433" lon="1.73778">
        <ele>121.6</ele>
        <time>2023-12-20T11:22:06Z</time>
      </trkpt>
      <trkpt lat="48.85427" lon="1.73777">
        <ele>121.6</ele>
        <time>2023-12-20T11:22:07Z</time>
      </trkpt>
      <trkpt lat="48.85421" lon="1.73775">
        <ele>121.6</ele>
        <time>2023-12-20T11:22:08Z</time>
      </trkpt>
      <trkpt lat="48.85415" lon="1.73773">
        <ele>121.6</ele>
        <time>2023-12-20T11:22:09Z</time>
      </trkpt>
      <trkpt lat="48.8541" lon="1.73769">
        <ele>120.6</ele>
        <time>2023-12-20T11:22:10Z</time>
      </trkpt>
      <trkpt lat="48.85404" lon="1.73765">
        <ele>120.6</ele>
        <time>2023-12-20T11:22:11Z</time>
      </trkpt>
      <trkpt lat="48.85399" lon="1.73761">
        <ele>120.6</ele>
        <time>2023-12-20T11:22:12Z</time>
      </trkpt>
      <trkpt lat="48.85394" lon="1.73755">
        <ele>120.6</ele>
        <time>2023-12-20T11:22:13Z</time>
      </trkpt>
      <trkpt lat="48.8539" lon="1.73748">
        <ele>119.8</ele>
        <time>2023-12-20T11:22:14Z</time>
      </trkpt>
      <trkpt lat="48.85385" lon="1.73741">
        <ele>120.2</ele>
        <time>2023-12-20T11:22:15Z</time>
      </trkpt>
      <trkpt lat="48.85382" lon="1.73734">
        <ele>120.2</ele>
        <time>2023-12-20T11:22:16Z</time>
      </trkpt>
      <trkpt lat="48.85378" lon="1.73726">
        <ele>120.2</ele>
        <time>2023-12-20T11:22:17Z</time>
      </trkpt>
      <trkpt lat="48.85374" lon="1.73719">
        <ele>120.2</ele>
        <time>2023-12-20T11:22:18Z</time>
      </trkpt>
      <trkpt lat="48.85371" lon="1.73711">
        <ele>120.2</ele>
        <time>2023-12-20T11:22:19Z</time>
      </trkpt>
      <trkpt lat="48.85368" lon="1.73703">
        <ele>120.2</ele>
        <time>2023-12-20T11:22:20Z</time>
      </trkpt>
      <trkpt lat="48.85365" lon="1.73695">
        <ele>120.2</ele>
        <time>2023-12-20T11:22:21Z</time>
      </trkpt>
      <trkpt lat="48.85362" lon="1.73687">
        <ele>120.6</ele>
        <time>2023-12-20T11:22:22Z</time>
      </trkpt>
      <trkpt lat="48.85359" lon="1.73679">
        <ele>120.4</ele>
        <time>2023-12-20T11:22:23Z</time>
      </trkpt>
      <trkpt lat="48.85356" lon="1.73671">
        <ele>120.4</ele>
        <time>2023-12-20T11:22:24Z</time>
      </trkpt>
      <trkpt lat="48.85353" lon="1.73663">
        <ele>120.4</ele>
        <time>2023-12-20T11:22:25Z</time>
      </trkpt>
      <trkpt lat="48.8535" lon="1.73655">
        <ele>120</ele>
        <time>2023-12-20T11:22:26Z</time>
      </trkpt>
      <trkpt lat="48.85347" lon="1.73647">
        <ele>120</ele>
        <time>2023-12-20T11:22:27Z</time>
      </trkpt>
      <trkpt lat="48.85344" lon="1.73639">
        <ele>120</ele>
        <time>2023-12-20T11:22:28Z</time>
      </trkpt>
      <trkpt lat="48.85341" lon="1.7363">
        <ele>120</ele>
        <time>2023-12-20T11:22:29Z</time>
      </trkpt>
      <trkpt lat="48.85339" lon="1.73622">
        <ele>120</ele>
        <time>2023-12-20T11:22:30Z</time>
      </trkpt>
      <trkpt lat="48.85336" lon="1.73614">
        <ele>121</ele>
        <time>2023-12-20T11:22:31Z</time>
      </trkpt>
      <trkpt lat="48.85332" lon="1.73606">
        <ele>121</ele>
        <time>2023-12-20T11:22:32Z</time>
      </trkpt>
      <trkpt lat="48.85329" lon="1.73598">
        <ele>121</ele>
        <time>2023-12-20T11:22:33Z</time>
      </trkpt>
      <trkpt lat="48.85326" lon="1.7359">
        <ele>120.2</ele>
        <time>2023-12-20T11:22:34Z</time>
      </trkpt>
      <trkpt lat="48.85322" lon="1.73582">
        <ele>119.6</ele>
        <time>2023-12-20T11:22:35Z</time>
      </trkpt>
      <trkpt lat="48.85317" lon="1.73575">
        <ele>119.6</ele>
        <time>2023-12-20T11:22:36Z</time>
      </trkpt>
      <trkpt lat="48.85312" lon="1.73569">
        <ele>119.6</ele>
        <time>2023-12-20T11:22:37Z</time>
      </trkpt>
      <trkpt lat="48.85308" lon="1.73563">
        <ele>119.6</ele>
        <time>2023-12-20T11:22:38Z</time>
      </trkpt>
      <trkpt lat="48.85303" lon="1.73557">
        <ele>118.8</ele>
        <time>2023-12-20T11:22:39Z</time>
      </trkpt>
      <trkpt lat="48.85298" lon="1.73551">
        <ele>118.8</ele>
        <time>2023-12-20T11:22:40Z</time>
      </trkpt>
      <trkpt lat="48.85293" lon="1.73545">
        <ele>118.8</ele>
        <time>2023-12-20T11:22:41Z</time>
      </trkpt>
      <trkpt lat="48.85288" lon="1.73539">
        <ele>117.8</ele>
        <time>2023-12-20T11:22:42Z</time>
      </trkpt>
      <trkpt lat="48.85282" lon="1.73533">
        <ele>115.6</ele>
        <time>2023-12-20T11:22:43Z</time>
      </trkpt>
      <trkpt lat="48.85277" lon="1.73527">
        <ele>115.6</ele>
        <time>2023-12-20T11:22:44Z</time>
      </trkpt>
      <trkpt lat="48.85272" lon="1.73521">
        <ele>115.6</ele>
        <time>2023-12-20T11:22:45Z</time>
      </trkpt>
      <trkpt lat="48.85267" lon="1.73515">
        <ele>116.6</ele>
        <time>2023-12-20T11:22:46Z</time>
      </trkpt>
      <trkpt lat="48.85262" lon="1.73509">
        <ele>116.8</ele>
        <time>2023-12-20T11:22:47Z</time>
      </trkpt>
      <trkpt lat="48.85257" lon="1.73502">
        <ele>116.8</ele>
        <time>2023-12-20T11:22:48Z</time>
      </trkpt>
      <trkpt lat="48.85252" lon="1.73496">
        <ele>116.8</ele>
        <time>2023-12-20T11:22:49Z</time>
      </trkpt>
      <trkpt lat="48.85247" lon="1.73489">
        <ele>116.8</ele>
        <time>2023-12-20T11:22:50Z</time>
      </trkpt>
      <trkpt lat="48.85241" lon="1.73483">
        <ele>115.8</ele>
        <time>2023-12-20T11:22:51Z</time>
      </trkpt>
      <trkpt lat="48.85235" lon="1.73477">
        <ele>115.8</ele>
        <time>2023-12-20T11:22:52Z</time>
      </trkpt>
      <trkpt lat="48.85229" lon="1.73472">
        <ele>115.8</ele>
        <time>2023-12-20T11:22:53Z</time>
      </trkpt>
      <trkpt lat="48.85223" lon="1.73467">
        <ele>115.8</ele>
        <time>2023-12-20T11:22:54Z</time>
      </trkpt>
      <trkpt lat="48.85217" lon="1.73463">
        <ele>115.4</ele>
        <time>2023-12-20T11:22:55Z</time>
      </trkpt>
      <trkpt lat="48.8521" lon="1.7346">
        <ele>115.4</ele>
        <time>2023-12-20T11:22:56Z</time>
      </trkpt>
      <trkpt lat="48.85203" lon="1.73458">
        <ele>115.4</ele>
        <time>2023-12-20T11:22:57Z</time>
      </trkpt>
      <trkpt lat="48.85196" lon="1.73455">
        <ele>115.4</ele>
        <time>2023-12-20T11:22:58Z</time>
      </trkpt>
      <trkpt lat="48.85188" lon="1.73453">
        <ele>113.4</ele>
        <time>2023-12-20T11:22:59Z</time>
      </trkpt>
      <trkpt lat="48.85181" lon="1.73451">
        <ele>113.4</ele>
        <time>2023-12-20T11:23:00Z</time>
      </trkpt>
      <trkpt lat="48.85174" lon="1.73448">
        <ele>113.4</ele>
        <time>2023-12-20T11:23:01Z</time>
      </trkpt>
      <trkpt lat="48.85167" lon="1.73446">
        <ele>113.4</ele>
        <time>2023-12-20T11:23:02Z</time>
      </trkpt>
      <trkpt lat="48.8516" lon="1.73443">
        <ele>112.4</ele>
        <time>2023-12-20T11:23:03Z</time>
      </trkpt>
      <trkpt lat="48.85152" lon="1.7344">
        <ele>112.4</ele>
        <time>2023-12-20T11:23:04Z</time>
      </trkpt>
      <trkpt lat="48.85145" lon="1.73438">
        <ele>112.4</ele>
        <time>2023-12-20T11:23:05Z</time>
      </trkpt>
      <trkpt lat="48.85138" lon="1.73436">
        <ele>112</ele>
        <time>2023-12-20T11:23:06Z</time>
      </trkpt>
      <trkpt lat="48.85131" lon="1.73434">
        <ele>111</ele>
        <time>2023-12-20T11:23:07Z</time>
      </trkpt>
      <trkpt lat="48.85123" lon="1.73432">
        <ele>111</ele>
        <time>2023-12-20T11:23:08Z</time>
      </trkpt>
      <trkpt lat="48.85116" lon="1.73429">
        <ele>111</ele>
        <time>2023-12-20T11:23:09Z</time>
      </trkpt>
      <trkpt lat="48.85109" lon="1.73426">
        <ele>111</ele>
        <time>2023-12-20T11:23:10Z</time>
      </trkpt>
      <trkpt lat="48.85102" lon="1.73424">
        <ele>111.4</ele>
        <time>2023-12-20T11:23:11Z</time>
      </trkpt>
      <trkpt lat="48.85097" lon="1.73422">
        <ele>111.4</ele>
        <time>2023-12-20T11:23:12Z</time>
      </trkpt>
      <trkpt lat="48.85093" lon="1.73421">
        <ele>111.4</ele>
        <time>2023-12-20T11:23:13Z</time>
      </trkpt>
      <trkpt lat="48.85088" lon="1.7342">
        <ele>111.6</ele>
        <time>2023-12-20T11:23:14Z</time>
      </trkpt>
      <trkpt lat="48.85083" lon="1.73419">
        <ele>111</ele>
        <time>2023-12-20T11:23:15Z</time>
      </trkpt>
      <trkpt lat="48.85078" lon="1.73417">
        <ele>111</ele>
        <time>2023-12-20T11:23:16Z</time>
      </trkpt>
      <trkpt lat="48.85073" lon="1.73415">
        <ele>111</ele>
        <time>2023-12-20T11:23:17Z</time>
      </trkpt>
      <trkpt lat="48.85067" lon="1.73413">
        <ele>110.4</ele>
        <time>2023-12-20T11:23:18Z</time>
      </trkpt>
      <trkpt lat="48.8506" lon="1.73411">
        <ele>109.8</ele>
        <time>2023-12-20T11:23:19Z</time>
      </trkpt>
      <trkpt lat="48.85054" lon="1.73409">
        <ele>109.8</ele>
        <time>2023-12-20T11:23:20Z</time>
      </trkpt>
      <trkpt lat="48.85047" lon="1.73408">
        <ele>109.8</ele>
        <time>2023-12-20T11:23:21Z</time>
      </trkpt>
      <trkpt lat="48.8504" lon="1.73405">
        <ele>108.8</ele>
        <time>2023-12-20T11:23:22Z</time>
      </trkpt>
      <trkpt lat="48.85033" lon="1.73403">
        <ele>107.6</ele>
        <time>2023-12-20T11:23:23Z</time>
      </trkpt>
      <trkpt lat="48.85026" lon="1.73401">
        <ele>107.6</ele>
        <time>2023-12-20T11:23:24Z</time>
      </trkpt>
      <trkpt lat="48.85018" lon="1.73399">
        <ele>107.6</ele>
        <time>2023-12-20T11:23:25Z</time>
      </trkpt>
      <trkpt lat="48.85011" lon="1.73397">
        <ele>108.2</ele>
        <time>2023-12-20T11:23:26Z</time>
      </trkpt>
      <trkpt lat="48.85003" lon="1.73395">
        <ele>106.6</ele>
        <time>2023-12-20T11:23:27Z</time>
      </trkpt>
      <trkpt lat="48.84996" lon="1.73392">
        <ele>106.6</ele>
        <time>2023-12-20T11:23:28Z</time>
      </trkpt>
      <trkpt lat="48.84988" lon="1.7339">
        <ele>106.6</ele>
        <time>2023-12-20T11:23:29Z</time>
      </trkpt>
      <trkpt lat="48.8498" lon="1.73388">
        <ele>106.6</ele>
        <time>2023-12-20T11:23:30Z</time>
      </trkpt>
      <trkpt lat="48.84972" lon="1.73385">
        <ele>105.8</ele>
        <time>2023-12-20T11:23:31Z</time>
      </trkpt>
      <trkpt lat="48.84964" lon="1.73382">
        <ele>105.8</ele>
        <time>2023-12-20T11:23:32Z</time>
      </trkpt>
      <trkpt lat="48.84957" lon="1.7338">
        <ele>105.8</ele>
        <time>2023-12-20T11:23:33Z</time>
      </trkpt>
      <trkpt lat="48.84949" lon="1.73377">
        <ele>106.6</ele>
        <time>2023-12-20T11:23:34Z</time>
      </trkpt>
      <trkpt lat="48.84941" lon="1.73375">
        <ele>106.4</ele>
        <time>2023-12-20T11:23:35Z</time>
      </trkpt>
      <trkpt lat="48.84934" lon="1.73373">
        <ele>106.4</ele>
        <time>2023-12-20T11:23:36Z</time>
      </trkpt>
      <trkpt lat="48.84926" lon="1.7337">
        <ele>106.4</ele>
        <time>2023-12-20T11:23:37Z</time>
      </trkpt>
      <trkpt lat="48.84919" lon="1.73368">
        <ele>105.4</ele>
        <time>2023-12-20T11:23:38Z</time>
      </trkpt>
      <trkpt lat="48.84912" lon="1.73365">
        <ele>105.6</ele>
        <time>2023-12-20T11:23:39Z</time>
      </trkpt>
      <trkpt lat="48.84905" lon="1.73363">
        <ele>105.6</ele>
        <time>2023-12-20T11:23:40Z</time>
      </trkpt>
      <trkpt lat="48.84897" lon="1.73361">
        <ele>105.6</ele>
        <time>2023-12-20T11:23:41Z</time>
      </trkpt>
      <trkpt lat="48.8489" lon="1.73359">
        <ele>105.4</ele>
        <time>2023-12-20T11:23:42Z</time>
      </trkpt>
      <trkpt lat="48.84883" lon="1.73357">
        <ele>105</ele>
        <time>2023-12-20T11:23:43Z</time>
      </trkpt>
      <trkpt lat="48.84876" lon="1.73354">
        <ele>105</ele>
        <time>2023-12-20T11:23:44Z</time>
      </trkpt>
      <trkpt lat="48.84869" lon="1.73352">
        <ele>105</ele>
        <time>2023-12-20T11:23:45Z</time>
      </trkpt>
      <trkpt lat="48.84862" lon="1.7335">
        <ele>105</ele>
        <time>2023-12-20T11:23:46Z</time>
      </trkpt>
      <trkpt lat="48.84855" lon="1.73348">
        <ele>104.2</ele>
        <time>2023-12-20T11:23:47Z</time>
      </trkpt>
      <trkpt lat="48.84848" lon="1.73345">
        <ele>104.2</ele>
        <time>2023-12-20T11:23:48Z</time>
      </trkpt>
      <trkpt lat="48.84841" lon="1.73343">
        <ele>104.2</ele>
        <time>2023-12-20T11:23:49Z</time>
      </trkpt>
      <trkpt lat="48.84834" lon="1.73341">
        <ele>104.2</ele>
        <time>2023-12-20T11:23:50Z</time>
      </trkpt>
      <trkpt lat="48.84827" lon="1.73339">
        <ele>104.2</ele>
        <time>2023-12-20T11:23:51Z</time>
      </trkpt>
      <trkpt lat="48.8482" lon="1.73338">
        <ele>104.2</ele>
        <time>2023-12-20T11:23:52Z</time>
      </trkpt>
      <trkpt lat="48.84813" lon="1.73336">
        <ele>104.2</ele>
        <time>2023-12-20T11:23:53Z</time>
      </trkpt>
      <trkpt lat="48.84806" lon="1.73335">
        <ele>104.2</ele>
        <time>2023-12-20T11:23:54Z</time>
      </trkpt>
      <trkpt lat="48.848" lon="1.73332">
        <ele>105</ele>
        <time>2023-12-20T11:23:55Z</time>
      </trkpt>
      <trkpt lat="48.84793" lon="1.7333">
        <ele>105</ele>
        <time>2023-12-20T11:23:56Z</time>
      </trkpt>
      <trkpt lat="48.84786" lon="1.73327">
        <ele>105</ele>
        <time>2023-12-20T11:23:57Z</time>
      </trkpt>
      <trkpt lat="48.84779" lon="1.73323">
        <ele>104</ele>
        <time>2023-12-20T11:23:58Z</time>
      </trkpt>
      <trkpt lat="48.84772" lon="1.7332">
        <ele>103.4</ele>
        <time>2023-12-20T11:23:59Z</time>
      </trkpt>
      <trkpt lat="48.84765" lon="1.73316">
        <ele>103.4</ele>
        <time>2023-12-20T11:24:00Z</time>
      </trkpt>
      <trkpt lat="48.84759" lon="1.73312">
        <ele>103.4</ele>
        <time>2023-12-20T11:24:01Z</time>
      </trkpt>
      <trkpt lat="48.84752" lon="1.73308">
        <ele>103</ele>
        <time>2023-12-20T11:24:02Z</time>
      </trkpt>
      <trkpt lat="48.84746" lon="1.73304">
        <ele>103.2</ele>
        <time>2023-12-20T11:24:03Z</time>
      </trkpt>
      <trkpt lat="48.8474" lon="1.733">
        <ele>103.2</ele>
        <time>2023-12-20T11:24:04Z</time>
      </trkpt>
      <trkpt lat="48.84734" lon="1.73296">
        <ele>103.2</ele>
        <time>2023-12-20T11:24:05Z</time>
      </trkpt>
      <trkpt lat="48.84728" lon="1.73292">
        <ele>103.2</ele>
        <time>2023-12-20T11:24:06Z</time>
      </trkpt>
      <trkpt lat="48.84722" lon="1.73289">
        <ele>104.2</ele>
        <time>2023-12-20T11:24:07Z</time>
      </trkpt>
      <trkpt lat="48.84716" lon="1.73285">
        <ele>104.2</ele>
        <time>2023-12-20T11:24:08Z</time>
      </trkpt>
      <trkpt lat="48.84711" lon="1.73281">
        <ele>104.2</ele>
        <time>2023-12-20T11:24:09Z</time>
      </trkpt>
      <trkpt lat="48.84705" lon="1.73277">
        <ele>105</ele>
        <time>2023-12-20T11:24:10Z</time>
      </trkpt>
      <trkpt lat="48.847" lon="1.73272">
        <ele>105.4</ele>
        <time>2023-12-20T11:24:11Z</time>
      </trkpt>
      <trkpt lat="48.84694" lon="1.73269">
        <ele>105.4</ele>
        <time>2023-12-20T11:24:12Z</time>
      </trkpt>
      <trkpt lat="48.84689" lon="1.73265">
        <ele>105.4</ele>
        <time>2023-12-20T11:24:13Z</time>
      </trkpt>
      <trkpt lat="48.84684" lon="1.73261">
        <ele>105.4</ele>
        <time>2023-12-20T11:24:14Z</time>
      </trkpt>
      <trkpt lat="48.84679" lon="1.73257">
        <ele>105.4</ele>
        <time>2023-12-20T11:24:15Z</time>
      </trkpt>
      <trkpt lat="48.84674" lon="1.73252">
        <ele>105.4</ele>
        <time>2023-12-20T11:24:16Z</time>
      </trkpt>
      <trkpt lat="48.84669" lon="1.73248">
        <ele>105.4</ele>
        <time>2023-12-20T11:24:17Z</time>
      </trkpt>
      <trkpt lat="48.84664" lon="1.73244">
        <ele>105.4</ele>
        <time>2023-12-20T11:24:18Z</time>
      </trkpt>
      <trkpt lat="48.84659" lon="1.73239">
        <ele>105.8</ele>
        <time>2023-12-20T11:24:19Z</time>
      </trkpt>
      <trkpt lat="48.84653" lon="1.73235">
        <ele>105.8</ele>
        <time>2023-12-20T11:24:20Z</time>
      </trkpt>
      <trkpt lat="48.84648" lon="1.73231">
        <ele>105.8</ele>
        <time>2023-12-20T11:24:21Z</time>
      </trkpt>
      <trkpt lat="48.84643" lon="1.73226">
        <ele>105.8</ele>
        <time>2023-12-20T11:24:22Z</time>
      </trkpt>
      <trkpt lat="48.84638" lon="1.73222">
        <ele>105.8</ele>
        <time>2023-12-20T11:24:23Z</time>
      </trkpt>
      <trkpt lat="48.84633" lon="1.73217">
        <ele>105.8</ele>
        <time>2023-12-20T11:24:24Z</time>
      </trkpt>
      <trkpt lat="48.84628" lon="1.73213">
        <ele>105.8</ele>
        <time>2023-12-20T11:24:25Z</time>
      </trkpt>
      <trkpt lat="48.84623" lon="1.73208">
        <ele>105.8</ele>
        <time>2023-12-20T11:24:26Z</time>
      </trkpt>
      <trkpt lat="48.84618" lon="1.73204">
        <ele>105.6</ele>
        <time>2023-12-20T11:24:27Z</time>
      </trkpt>
      <trkpt lat="48.84613" lon="1.73199">
        <ele>105.6</ele>
        <time>2023-12-20T11:24:28Z</time>
      </trkpt>
      <trkpt lat="48.84609" lon="1.73195">
        <ele>105.6</ele>
        <time>2023-12-20T11:24:29Z</time>
      </trkpt>
      <trkpt lat="48.84604" lon="1.7319">
        <ele>105.6</ele>
        <time>2023-12-20T11:24:30Z</time>
      </trkpt>
      <trkpt lat="48.84599" lon="1.73186">
        <ele>106.2</ele>
        <time>2023-12-20T11:24:31Z</time>
      </trkpt>
      <trkpt lat="48.84594" lon="1.73182">
        <ele>106.2</ele>
        <time>2023-12-20T11:24:32Z</time>
      </trkpt>
      <trkpt lat="48.8459" lon="1.73177">
        <ele>106.2</ele>
        <time>2023-12-20T11:24:33Z</time>
      </trkpt>
      <trkpt lat="48.84585" lon="1.73173">
        <ele>106.2</ele>
        <time>2023-12-20T11:24:34Z</time>
      </trkpt>
      <trkpt lat="48.84581" lon="1.73168">
        <ele>107</ele>
        <time>2023-12-20T11:24:35Z</time>
      </trkpt>
      <trkpt lat="48.84577" lon="1.73164">
        <ele>107</ele>
        <time>2023-12-20T11:24:36Z</time>
      </trkpt>
      <trkpt lat="48.84573" lon="1.7316">
        <ele>107</ele>
        <time>2023-12-20T11:24:37Z</time>
      </trkpt>
      <trkpt lat="48.84569" lon="1.73155">
        <ele>107</ele>
        <time>2023-12-20T11:24:38Z</time>
      </trkpt>
      <trkpt lat="48.84564" lon="1.73152">
        <ele>106.6</ele>
        <time>2023-12-20T11:24:39Z</time>
      </trkpt>
      <trkpt lat="48.8456" lon="1.73147">
        <ele>106.6</ele>
        <time>2023-12-20T11:24:40Z</time>
      </trkpt>
      <trkpt lat="48.84556" lon="1.73143">
        <ele>106.6</ele>
        <time>2023-12-20T11:24:41Z</time>
      </trkpt>
      <trkpt lat="48.84552" lon="1.73139">
        <ele>107</ele>
        <time>2023-12-20T11:24:42Z</time>
      </trkpt>
      <trkpt lat="48.84547" lon="1.73135">
        <ele>106.6</ele>
        <time>2023-12-20T11:24:43Z</time>
      </trkpt>
      <trkpt lat="48.84543" lon="1.7313">
        <ele>106.6</ele>
        <time>2023-12-20T11:24:44Z</time>
      </trkpt>
      <trkpt lat="48.84539" lon="1.73126">
        <ele>106.6</ele>
        <time>2023-12-20T11:24:45Z</time>
      </trkpt>
      <trkpt lat="48.84534" lon="1.73121">
        <ele>107.2</ele>
        <time>2023-12-20T11:24:46Z</time>
      </trkpt>
      <trkpt lat="48.8453" lon="1.73117">
        <ele>107.2</ele>
        <time>2023-12-20T11:24:47Z</time>
      </trkpt>
      <trkpt lat="48.84525" lon="1.73113">
        <ele>107.2</ele>
        <time>2023-12-20T11:24:48Z</time>
      </trkpt>
      <trkpt lat="48.84521" lon="1.73108">
        <ele>107.2</ele>
        <time>2023-12-20T11:24:49Z</time>
      </trkpt>
      <trkpt lat="48.84516" lon="1.73104">
        <ele>108.2</ele>
        <time>2023-12-20T11:24:50Z</time>
      </trkpt>
      <trkpt lat="48.84512" lon="1.73101">
        <ele>108.6</ele>
        <time>2023-12-20T11:24:51Z</time>
      </trkpt>
      <trkpt lat="48.84507" lon="1.73096">
        <ele>108.6</ele>
        <time>2023-12-20T11:24:52Z</time>
      </trkpt>
      <trkpt lat="48.84503" lon="1.73091">
        <ele>108.6</ele>
        <time>2023-12-20T11:24:53Z</time>
      </trkpt>
      <trkpt lat="48.84498" lon="1.73086">
        <ele>108.2</ele>
        <time>2023-12-20T11:24:54Z</time>
      </trkpt>
      <trkpt lat="48.84494" lon="1.73081">
        <ele>108.4</ele>
        <time>2023-12-20T11:24:55Z</time>
      </trkpt>
      <trkpt lat="48.84489" lon="1.73076">
        <ele>108.4</ele>
        <time>2023-12-20T11:24:56Z</time>
      </trkpt>
      <trkpt lat="48.84484" lon="1.73072">
        <ele>108.4</ele>
        <time>2023-12-20T11:24:57Z</time>
      </trkpt>
      <trkpt lat="48.84479" lon="1.73067">
        <ele>108.4</ele>
        <time>2023-12-20T11:24:58Z</time>
      </trkpt>
      <trkpt lat="48.84475" lon="1.73062">
        <ele>109</ele>
        <time>2023-12-20T11:24:59Z</time>
      </trkpt>
      <trkpt lat="48.8447" lon="1.73058">
        <ele>109</ele>
        <time>2023-12-20T11:25:00Z</time>
      </trkpt>
      <trkpt lat="48.84465" lon="1.73053">
        <ele>109</ele>
        <time>2023-12-20T11:25:01Z</time>
      </trkpt>
      <trkpt lat="48.84461" lon="1.73048">
        <ele>109.2</ele>
        <time>2023-12-20T11:25:02Z</time>
      </trkpt>
      <trkpt lat="48.84456" lon="1.73044">
        <ele>109.4</ele>
        <time>2023-12-20T11:25:03Z</time>
      </trkpt>
      <trkpt lat="48.84451" lon="1.73039">
        <ele>109.4</ele>
        <time>2023-12-20T11:25:04Z</time>
      </trkpt>
      <trkpt lat="48.84447" lon="1.73035">
        <ele>109.4</ele>
        <time>2023-12-20T11:25:05Z</time>
      </trkpt>
      <trkpt lat="48.84442" lon="1.73031">
        <ele>110.4</ele>
        <time>2023-12-20T11:25:06Z</time>
      </trkpt>
      <trkpt lat="48.84437" lon="1.73027">
        <ele>109.8</ele>
        <time>2023-12-20T11:25:07Z</time>
      </trkpt>
      <trkpt lat="48.84432" lon="1.73022">
        <ele>109.8</ele>
        <time>2023-12-20T11:25:08Z</time>
      </trkpt>
      <trkpt lat="48.84427" lon="1.73018">
        <ele>109.8</ele>
        <time>2023-12-20T11:25:09Z</time>
      </trkpt>
      <trkpt lat="48.84422" lon="1.73014">
        <ele>109.2</ele>
        <time>2023-12-20T11:25:10Z</time>
      </trkpt>
      <trkpt lat="48.84417" lon="1.73009">
        <ele>109.4</ele>
        <time>2023-12-20T11:25:11Z</time>
      </trkpt>
      <trkpt lat="48.84412" lon="1.73005">
        <ele>109.4</ele>
        <time>2023-12-20T11:25:12Z</time>
      </trkpt>
      <trkpt lat="48.84407" lon="1.73001">
        <ele>109.4</ele>
        <time>2023-12-20T11:25:13Z</time>
      </trkpt>
      <trkpt lat="48.84403" lon="1.72997">
        <ele>109.4</ele>
        <time>2023-12-20T11:25:14Z</time>
      </trkpt>
      <trkpt lat="48.84398" lon="1.72993">
        <ele>109.6</ele>
        <time>2023-12-20T11:25:15Z</time>
      </trkpt>
      <trkpt lat="48.84393" lon="1.72989">
        <ele>109.6</ele>
        <time>2023-12-20T11:25:16Z</time>
      </trkpt>
      <trkpt lat="48.84388" lon="1.72985">
        <ele>109.6</ele>
        <time>2023-12-20T11:25:17Z</time>
      </trkpt>
      <trkpt lat="48.84384" lon="1.72981">
        <ele>110.2</ele>
        <time>2023-12-20T11:25:18Z</time>
      </trkpt>
      <trkpt lat="48.84379" lon="1.72977">
        <ele>109.8</ele>
        <time>2023-12-20T11:25:19Z</time>
      </trkpt>
      <trkpt lat="48.84375" lon="1.72973">
        <ele>109.8</ele>
        <time>2023-12-20T11:25:20Z</time>
      </trkpt>
      <trkpt lat="48.8437" lon="1.72969">
        <ele>109.8</ele>
        <time>2023-12-20T11:25:21Z</time>
      </trkpt>
      <trkpt lat="48.84366" lon="1.72965">
        <ele>110</ele>
        <time>2023-12-20T11:25:22Z</time>
      </trkpt>
      <trkpt lat="48.84361" lon="1.72961">
        <ele>110.6</ele>
        <time>2023-12-20T11:25:23Z</time>
      </trkpt>
      <trkpt lat="48.84357" lon="1.72957">
        <ele>110.6</ele>
        <time>2023-12-20T11:25:24Z</time>
      </trkpt>
      <trkpt lat="48.84352" lon="1.72953">
        <ele>110.6</ele>
        <time>2023-12-20T11:25:25Z</time>
      </trkpt>
      <trkpt lat="48.84348" lon="1.72949">
        <ele>110.6</ele>
        <time>2023-12-20T11:25:26Z</time>
      </trkpt>
      <trkpt lat="48.84343" lon="1.72946">
        <ele>111.2</ele>
        <time>2023-12-20T11:25:27Z</time>
      </trkpt>
      <trkpt lat="48.84339" lon="1.72942">
        <ele>111.2</ele>
        <time>2023-12-20T11:25:28Z</time>
      </trkpt>
      <trkpt lat="48.84335" lon="1.72937">
        <ele>111.2</ele>
        <time>2023-12-20T11:25:29Z</time>
      </trkpt>
      <trkpt lat="48.84331" lon="1.72934">
        <ele>112.2</ele>
        <time>2023-12-20T11:25:30Z</time>
      </trkpt>
      <trkpt lat="48.84326" lon="1.7293">
        <ele>112.2</ele>
        <time>2023-12-20T11:25:31Z</time>
      </trkpt>
      <trkpt lat="48.84322" lon="1.72927">
        <ele>112.2</ele>
        <time>2023-12-20T11:25:32Z</time>
      </trkpt>
      <trkpt lat="48.84317" lon="1.72923">
        <ele>112.2</ele>
        <time>2023-12-20T11:25:33Z</time>
      </trkpt>
      <trkpt lat="48.84313" lon="1.7292">
        <ele>112</ele>
        <time>2023-12-20T11:25:34Z</time>
      </trkpt>
      <trkpt lat="48.84309" lon="1.72916">
        <ele>112.4</ele>
        <time>2023-12-20T11:25:35Z</time>
      </trkpt>
      <trkpt lat="48.84304" lon="1.72913">
        <ele>112.4</ele>
        <time>2023-12-20T11:25:36Z</time>
      </trkpt>
      <trkpt lat="48.843" lon="1.72909">
        <ele>112.4</ele>
        <time>2023-12-20T11:25:37Z</time>
      </trkpt>
      <trkpt lat="48.84296" lon="1.72905">
        <ele>112.8</ele>
        <time>2023-12-20T11:25:38Z</time>
      </trkpt>
      <trkpt lat="48.84292" lon="1.72902">
        <ele>113</ele>
        <time>2023-12-20T11:25:39Z</time>
      </trkpt>
      <trkpt lat="48.84288" lon="1.72899">
        <ele>113</ele>
        <time>2023-12-20T11:25:40Z</time>
      </trkpt>
      <trkpt lat="48.84284" lon="1.72895">
        <ele>113</ele>
        <time>2023-12-20T11:25:41Z</time>
      </trkpt>
      <trkpt lat="48.8428" lon="1.72892">
        <ele>113</ele>
        <time>2023-12-20T11:25:42Z</time>
      </trkpt>
      <trkpt lat="48.84276" lon="1.72888">
        <ele>113.2</ele>
        <time>2023-12-20T11:25:43Z</time>
      </trkpt>
      <trkpt lat="48.84272" lon="1.72885">
        <ele>113.2</ele>
        <time>2023-12-20T11:25:44Z</time>
      </trkpt>
      <trkpt lat="48.84268" lon="1.72881">
        <ele>113.2</ele>
        <time>2023-12-20T11:25:45Z</time>
      </trkpt>
      <trkpt lat="48.84264" lon="1.72878">
        <ele>113.4</ele>
        <time>2023-12-20T11:25:46Z</time>
      </trkpt>
      <trkpt lat="48.8426" lon="1.72875">
        <ele>114.8</ele>
        <time>2023-12-20T11:25:47Z</time>
      </trkpt>
      <trkpt lat="48.84255" lon="1.72872">
        <ele>114.8</ele>
        <time>2023-12-20T11:25:48Z</time>
      </trkpt>
      <trkpt lat="48.84251" lon="1.72868">
        <ele>114.8</ele>
        <time>2023-12-20T11:25:49Z</time>
      </trkpt>
      <trkpt lat="48.84247" lon="1.72866">
        <ele>114.8</ele>
        <time>2023-12-20T11:25:50Z</time>
      </trkpt>
      <trkpt lat="48.84242" lon="1.72863">
        <ele>115</ele>
        <time>2023-12-20T11:25:51Z</time>
      </trkpt>
      <trkpt lat="48.84238" lon="1.7286">
        <ele>115</ele>
        <time>2023-12-20T11:25:52Z</time>
      </trkpt>
      <trkpt lat="48.84233" lon="1.72857">
        <ele>115</ele>
        <time>2023-12-20T11:25:53Z</time>
      </trkpt>
      <trkpt lat="48.84229" lon="1.72854">
        <ele>115.6</ele>
        <time>2023-12-20T11:25:54Z</time>
      </trkpt>
      <trkpt lat="48.84224" lon="1.72851">
        <ele>116</ele>
        <time>2023-12-20T11:25:55Z</time>
      </trkpt>
      <trkpt lat="48.8422" lon="1.72848">
        <ele>116</ele>
        <time>2023-12-20T11:25:56Z</time>
      </trkpt>
      <trkpt lat="48.84216" lon="1.72846">
        <ele>116</ele>
        <time>2023-12-20T11:25:57Z</time>
      </trkpt>
      <trkpt lat="48.84211" lon="1.72843">
        <ele>116</ele>
        <time>2023-12-20T11:25:58Z</time>
      </trkpt>
      <trkpt lat="48.84207" lon="1.72841">
        <ele>116.8</ele>
        <time>2023-12-20T11:25:59Z</time>
      </trkpt>
      <trkpt lat="48.84202" lon="1.72839">
        <ele>116.8</ele>
        <time>2023-12-20T11:26:00Z</time>
      </trkpt>
      <trkpt lat="48.84198" lon="1.72836">
        <ele>116.8</ele>
        <time>2023-12-20T11:26:01Z</time>
      </trkpt>
      <trkpt lat="48.84193" lon="1.72833">
        <ele>117.8</ele>
        <time>2023-12-20T11:26:02Z</time>
      </trkpt>
      <trkpt lat="48.84188" lon="1.72831">
        <ele>118</ele>
        <time>2023-12-20T11:26:03Z</time>
      </trkpt>
      <trkpt lat="48.84184" lon="1.72829">
        <ele>118</ele>
        <time>2023-12-20T11:26:04Z</time>
      </trkpt>
      <trkpt lat="48.8418" lon="1.72826">
        <ele>118</ele>
        <time>2023-12-20T11:26:05Z</time>
      </trkpt>
      <trkpt lat="48.84175" lon="1.72824">
        <ele>118</ele>
        <time>2023-12-20T11:26:06Z</time>
      </trkpt>
      <trkpt lat="48.84171" lon="1.72822">
        <ele>119</ele>
        <time>2023-12-20T11:26:07Z</time>
      </trkpt>
      <trkpt lat="48.84167" lon="1.7282">
        <ele>119</ele>
        <time>2023-12-20T11:26:08Z</time>
      </trkpt>
      <trkpt lat="48.84162" lon="1.72818">
        <ele>119</ele>
        <time>2023-12-20T11:26:09Z</time>
      </trkpt>
      <trkpt lat="48.84158" lon="1.72817">
        <ele>119</ele>
        <time>2023-12-20T11:26:10Z</time>
      </trkpt>
      <trkpt lat="48.84154" lon="1.72815">
        <ele>120.4</ele>
        <time>2023-12-20T11:26:11Z</time>
      </trkpt>
      <trkpt lat="48.84149" lon="1.72813">
        <ele>120.4</ele>
        <time>2023-12-20T11:26:12Z</time>
      </trkpt>
      <trkpt lat="48.84145" lon="1.72812">
        <ele>120.4</ele>
        <time>2023-12-20T11:26:13Z</time>
      </trkpt>
      <trkpt lat="48.84141" lon="1.72811">
        <ele>121.4</ele>
        <time>2023-12-20T11:26:14Z</time>
      </trkpt>
      <trkpt lat="48.84136" lon="1.7281">
        <ele>121.2</ele>
        <time>2023-12-20T11:26:15Z</time>
      </trkpt>
      <trkpt lat="48.84132" lon="1.72808">
        <ele>121.2</ele>
        <time>2023-12-20T11:26:16Z</time>
      </trkpt>
      <trkpt lat="48.84127" lon="1.72807">
        <ele>121.2</ele>
        <time>2023-12-20T11:26:17Z</time>
      </trkpt>
      <trkpt lat="48.84123" lon="1.72806">
        <ele>121.2</ele>
        <time>2023-12-20T11:26:18Z</time>
      </trkpt>
      <trkpt lat="48.84118" lon="1.72805">
        <ele>121.4</ele>
        <time>2023-12-20T11:26:19Z</time>
      </trkpt>
      <trkpt lat="48.84114" lon="1.72804">
        <ele>121.4</ele>
        <time>2023-12-20T11:26:20Z</time>
      </trkpt>
      <trkpt lat="48.84109" lon="1.72802">
        <ele>121.4</ele>
        <time>2023-12-20T11:26:21Z</time>
      </trkpt>
      <trkpt lat="48.84105" lon="1.72801">
        <ele>121.4</ele>
        <time>2023-12-20T11:26:22Z</time>
      </trkpt>
      <trkpt lat="48.841" lon="1.728">
        <ele>121.2</ele>
        <time>2023-12-20T11:26:23Z</time>
      </trkpt>
      <trkpt lat="48.84096" lon="1.72799">
        <ele>121.2</ele>
        <time>2023-12-20T11:26:24Z</time>
      </trkpt>
      <trkpt lat="48.84092" lon="1.72797">
        <ele>121.2</ele>
        <time>2023-12-20T11:26:25Z</time>
      </trkpt>
      <trkpt lat="48.84087" lon="1.72796">
        <ele>121.8</ele>
        <time>2023-12-20T11:26:26Z</time>
      </trkpt>
      <trkpt lat="48.84083" lon="1.72795">
        <ele>122</ele>
        <time>2023-12-20T11:26:27Z</time>
      </trkpt>
      <trkpt lat="48.84078" lon="1.72795">
        <ele>122</ele>
        <time>2023-12-20T11:26:28Z</time>
      </trkpt>
      <trkpt lat="48.84074" lon="1.72794">
        <ele>122</ele>
        <time>2023-12-20T11:26:29Z</time>
      </trkpt>
      <trkpt lat="48.84069" lon="1.72793">
        <ele>122.4</ele>
        <time>2023-12-20T11:26:30Z</time>
      </trkpt>
      <trkpt lat="48.84065" lon="1.72792">
        <ele>122.8</ele>
        <time>2023-12-20T11:26:31Z</time>
      </trkpt>
      <trkpt lat="48.8406" lon="1.72791">
        <ele>122.8</ele>
        <time>2023-12-20T11:26:32Z</time>
      </trkpt>
      <trkpt lat="48.84055" lon="1.7279">
        <ele>122.8</ele>
        <time>2023-12-20T11:26:33Z</time>
      </trkpt>
      <trkpt lat="48.84051" lon="1.72788">
        <ele>122.2</ele>
        <time>2023-12-20T11:26:34Z</time>
      </trkpt>
      <trkpt lat="48.84046" lon="1.72787">
        <ele>122.8</ele>
        <time>2023-12-20T11:26:35Z</time>
      </trkpt>
      <trkpt lat="48.84041" lon="1.72785">
        <ele>122.8</ele>
        <time>2023-12-20T11:26:36Z</time>
      </trkpt>
      <trkpt lat="48.84037" lon="1.72783">
        <ele>122.8</ele>
        <time>2023-12-20T11:26:37Z</time>
      </trkpt>
      <trkpt lat="48.84032" lon="1.72781">
        <ele>122</ele>
        <time>2023-12-20T11:26:38Z</time>
      </trkpt>
      <trkpt lat="48.84028" lon="1.72778">
        <ele>122.8</ele>
        <time>2023-12-20T11:26:39Z</time>
      </trkpt>
      <trkpt lat="48.84023" lon="1.72776">
        <ele>122.8</ele>
        <time>2023-12-20T11:26:40Z</time>
      </trkpt>
      <trkpt lat="48.84018" lon="1.72774">
        <ele>122.8</ele>
        <time>2023-12-20T11:26:41Z</time>
      </trkpt>
      <trkpt lat="48.84014" lon="1.72771">
        <ele>122.8</ele>
        <time>2023-12-20T11:26:42Z</time>
      </trkpt>
      <trkpt lat="48.84009" lon="1.72768">
        <ele>122.8</ele>
        <time>2023-12-20T11:26:43Z</time>
      </trkpt>
      <trkpt lat="48.84005" lon="1.72765">
        <ele>122.8</ele>
        <time>2023-12-20T11:26:44Z</time>
      </trkpt>
      <trkpt lat="48.84" lon="1.72762">
        <ele>122.8</ele>
        <time>2023-12-20T11:26:45Z</time>
      </trkpt>
      <trkpt lat="48.83996" lon="1.72759">
        <ele>123.8</ele>
        <time>2023-12-20T11:26:46Z</time>
      </trkpt>
      <trkpt lat="48.83991" lon="1.72756">
        <ele>123.4</ele>
        <time>2023-12-20T11:26:47Z</time>
      </trkpt>
      <trkpt lat="48.83987" lon="1.72753">
        <ele>123.4</ele>
        <time>2023-12-20T11:26:48Z</time>
      </trkpt>
      <trkpt lat="48.83983" lon="1.72749">
        <ele>123.4</ele>
        <time>2023-12-20T11:26:49Z</time>
      </trkpt>
      <trkpt lat="48.83978" lon="1.72746">
        <ele>123.4</ele>
        <time>2023-12-20T11:26:50Z</time>
      </trkpt>
      <trkpt lat="48.83974" lon="1.72742">
        <ele>123.2</ele>
        <time>2023-12-20T11:26:51Z</time>
      </trkpt>
      <trkpt lat="48.8397" lon="1.72739">
        <ele>123.2</ele>
        <time>2023-12-20T11:26:52Z</time>
      </trkpt>
      <trkpt lat="48.83966" lon="1.72735">
        <ele>123.2</ele>
        <time>2023-12-20T11:26:53Z</time>
      </trkpt>
      <trkpt lat="48.83962" lon="1.72731">
        <ele>123.2</ele>
        <time>2023-12-20T11:26:54Z</time>
      </trkpt>
      <trkpt lat="48.83958" lon="1.72727">
        <ele>122.6</ele>
        <time>2023-12-20T11:26:55Z</time>
      </trkpt>
      <trkpt lat="48.83954" lon="1.72723">
        <ele>122.6</ele>
        <time>2023-12-20T11:26:56Z</time>
      </trkpt>
      <trkpt lat="48.8395" lon="1.72719">
        <ele>122.6</ele>
        <time>2023-12-20T11:26:57Z</time>
      </trkpt>
      <trkpt lat="48.83946" lon="1.72715">
        <ele>123.6</ele>
        <time>2023-12-20T11:26:58Z</time>
      </trkpt>
      <trkpt lat="48.83942" lon="1.72711">
        <ele>124.2</ele>
        <time>2023-12-20T11:26:59Z</time>
      </trkpt>
      <trkpt lat="48.83938" lon="1.72708">
        <ele>124.2</ele>
        <time>2023-12-20T11:27:00Z</time>
      </trkpt>
      <trkpt lat="48.83934" lon="1.72704">
        <ele>124.2</ele>
        <time>2023-12-20T11:27:01Z</time>
      </trkpt>
      <trkpt lat="48.83929" lon="1.727">
        <ele>123.8</ele>
        <time>2023-12-20T11:27:02Z</time>
      </trkpt>
      <trkpt lat="48.83925" lon="1.72697">
        <ele>124.4</ele>
        <time>2023-12-20T11:27:03Z</time>
      </trkpt>
      <trkpt lat="48.83921" lon="1.72694">
        <ele>124.4</ele>
        <time>2023-12-20T11:27:04Z</time>
      </trkpt>
      <trkpt lat="48.83916" lon="1.7269">
        <ele>124.4</ele>
        <time>2023-12-20T11:27:05Z</time>
      </trkpt>
      <trkpt lat="48.83912" lon="1.72687">
        <ele>124.4</ele>
        <time>2023-12-20T11:27:06Z</time>
      </trkpt>
      <trkpt lat="48.83907" lon="1.72684">
        <ele>123.8</ele>
        <time>2023-12-20T11:27:07Z</time>
      </trkpt>
      <trkpt lat="48.83903" lon="1.72681">
        <ele>123.8</ele>
        <time>2023-12-20T11:27:08Z</time>
      </trkpt>
      <trkpt lat="48.83898" lon="1.72679">
        <ele>123.8</ele>
        <time>2023-12-20T11:27:09Z</time>
      </trkpt>
      <trkpt lat="48.83894" lon="1.72676">
        <ele>124.6</ele>
        <time>2023-12-20T11:27:10Z</time>
      </trkpt>
      <trkpt lat="48.83889" lon="1.72674">
        <ele>125.2</ele>
        <time>2023-12-20T11:27:11Z</time>
      </trkpt>
      <trkpt lat="48.83884" lon="1.72671">
        <ele>125.2</ele>
        <time>2023-12-20T11:27:12Z</time>
      </trkpt>
      <trkpt lat="48.8388" lon="1.72669">
        <ele>125.2</ele>
        <time>2023-12-20T11:27:13Z</time>
      </trkpt>
      <trkpt lat="48.83875" lon="1.72667">
        <ele>125.2</ele>
        <time>2023-12-20T11:27:14Z</time>
      </trkpt>
      <trkpt lat="48.8387" lon="1.72664">
        <ele>124.6</ele>
        <time>2023-12-20T11:27:15Z</time>
      </trkpt>
      <trkpt lat="48.83865" lon="1.72662">
        <ele>124.6</ele>
        <time>2023-12-20T11:27:16Z</time>
      </trkpt>
      <trkpt lat="48.8386" lon="1.7266">
        <ele>124.6</ele>
        <time>2023-12-20T11:27:17Z</time>
      </trkpt>
      <trkpt lat="48.83855" lon="1.72658">
        <ele>125.6</ele>
        <time>2023-12-20T11:27:18Z</time>
      </trkpt>
      <trkpt lat="48.83851" lon="1.72655">
        <ele>124.8</ele>
        <time>2023-12-20T11:27:19Z</time>
      </trkpt>
      <trkpt lat="48.83846" lon="1.72652">
        <ele>124.8</ele>
        <time>2023-12-20T11:27:20Z</time>
      </trkpt>
      <trkpt lat="48.83841" lon="1.7265">
        <ele>124.8</ele>
        <time>2023-12-20T11:27:21Z</time>
      </trkpt>
      <trkpt lat="48.83836" lon="1.72647">
        <ele>124.8</ele>
        <time>2023-12-20T11:27:22Z</time>
      </trkpt>
      <trkpt lat="48.83832" lon="1.72644">
        <ele>123.8</ele>
        <time>2023-12-20T11:27:23Z</time>
      </trkpt>
      <trkpt lat="48.83827" lon="1.72642">
        <ele>123.8</ele>
        <time>2023-12-20T11:27:24Z</time>
      </trkpt>
      <trkpt lat="48.83823" lon="1.7264">
        <ele>123.8</ele>
        <time>2023-12-20T11:27:25Z</time>
      </trkpt>
      <trkpt lat="48.83818" lon="1.72637">
        <ele>124.8</ele>
        <time>2023-12-20T11:27:26Z</time>
      </trkpt>
      <trkpt lat="48.83813" lon="1.72635">
        <ele>126.4</ele>
        <time>2023-12-20T11:27:27Z</time>
      </trkpt>
      <trkpt lat="48.83809" lon="1.72633">
        <ele>126.4</ele>
        <time>2023-12-20T11:27:28Z</time>
      </trkpt>
      <trkpt lat="48.83804" lon="1.72631">
        <ele>126.4</ele>
        <time>2023-12-20T11:27:29Z</time>
      </trkpt>
      <trkpt lat="48.83799" lon="1.72628">
        <ele>126.4</ele>
        <time>2023-12-20T11:27:30Z</time>
      </trkpt>
      <trkpt lat="48.83794" lon="1.72626">
        <ele>126.2</ele>
        <time>2023-12-20T11:27:31Z</time>
      </trkpt>
      <trkpt lat="48.83789" lon="1.72623">
        <ele>126.2</ele>
        <time>2023-12-20T11:27:32Z</time>
      </trkpt>
      <trkpt lat="48.83784" lon="1.72621">
        <ele>126.2</ele>
        <time>2023-12-20T11:27:33Z</time>
      </trkpt>
      <trkpt lat="48.83778" lon="1.72618">
        <ele>126.6</ele>
        <time>2023-12-20T11:27:34Z</time>
      </trkpt>
      <trkpt lat="48.83773" lon="1.72616">
        <ele>126.6</ele>
        <time>2023-12-20T11:27:35Z</time>
      </trkpt>
      <trkpt lat="48.83768" lon="1.72613">
        <ele>126.6</ele>
        <time>2023-12-20T11:27:36Z</time>
      </trkpt>
      <trkpt lat="48.83763" lon="1.7261">
        <ele>126.6</ele>
        <time>2023-12-20T11:27:37Z</time>
      </trkpt>
      <trkpt lat="48.83759" lon="1.72607">
        <ele>126.8</ele>
        <time>2023-12-20T11:27:38Z</time>
      </trkpt>
      <trkpt lat="48.83754" lon="1.72603">
        <ele>127</ele>
        <time>2023-12-20T11:27:39Z</time>
      </trkpt>
      <trkpt lat="48.83749" lon="1.726">
        <ele>127</ele>
        <time>2023-12-20T11:27:40Z</time>
      </trkpt>
      <trkpt lat="48.83745" lon="1.72596">
        <ele>127</ele>
        <time>2023-12-20T11:27:41Z</time>
      </trkpt>
      <trkpt lat="48.8374" lon="1.72592">
        <ele>127</ele>
        <time>2023-12-20T11:27:42Z</time>
      </trkpt>
      <trkpt lat="48.83736" lon="1.72587">
        <ele>127.4</ele>
        <time>2023-12-20T11:27:43Z</time>
      </trkpt>
      <trkpt lat="48.83731" lon="1.72583">
        <ele>127.4</ele>
        <time>2023-12-20T11:27:44Z</time>
      </trkpt>
      <trkpt lat="48.83727" lon="1.72578">
        <ele>127.4</ele>
        <time>2023-12-20T11:27:45Z</time>
      </trkpt>
      <trkpt lat="48.83722" lon="1.72573">
        <ele>127.4</ele>
        <time>2023-12-20T11:27:46Z</time>
      </trkpt>
      <trkpt lat="48.83718" lon="1.72569">
        <ele>127</ele>
        <time>2023-12-20T11:27:47Z</time>
      </trkpt>
      <trkpt lat="48.83713" lon="1.72564">
        <ele>127</ele>
        <time>2023-12-20T11:27:48Z</time>
      </trkpt>
      <trkpt lat="48.83709" lon="1.72559">
        <ele>127</ele>
        <time>2023-12-20T11:27:49Z</time>
      </trkpt>
      <trkpt lat="48.83705" lon="1.72554">
        <ele>127</ele>
        <time>2023-12-20T11:27:50Z</time>
      </trkpt>
      <trkpt lat="48.83701" lon="1.72549">
        <ele>127</ele>
        <time>2023-12-20T11:27:51Z</time>
      </trkpt>
      <trkpt lat="48.83697" lon="1.72544">
        <ele>127</ele>
        <time>2023-12-20T11:27:52Z</time>
      </trkpt>
      <trkpt lat="48.83692" lon="1.72539">
        <ele>127</ele>
        <time>2023-12-20T11:27:53Z</time>
      </trkpt>
      <trkpt lat="48.83689" lon="1.72534">
        <ele>127</ele>
        <time>2023-12-20T11:27:54Z</time>
      </trkpt>
      <trkpt lat="48.83684" lon="1.72529">
        <ele>128</ele>
        <time>2023-12-20T11:27:55Z</time>
      </trkpt>
      <trkpt lat="48.8368" lon="1.72524">
        <ele>128</ele>
        <time>2023-12-20T11:27:56Z</time>
      </trkpt>
      <trkpt lat="48.83676" lon="1.72519">
        <ele>128</ele>
        <time>2023-12-20T11:27:57Z</time>
      </trkpt>
      <trkpt lat="48.83672" lon="1.72513">
        <ele>128</ele>
        <time>2023-12-20T11:27:58Z</time>
      </trkpt>
      <trkpt lat="48.83668" lon="1.72508">
        <ele>128.6</ele>
        <time>2023-12-20T11:27:59Z</time>
      </trkpt>
      <trkpt lat="48.83664" lon="1.72503">
        <ele>128.6</ele>
        <time>2023-12-20T11:28:00Z</time>
      </trkpt>
      <trkpt lat="48.8366" lon="1.72497">
        <ele>128.6</ele>
        <time>2023-12-20T11:28:01Z</time>
      </trkpt>
      <trkpt lat="48.83656" lon="1.72492">
        <ele>128.8</ele>
        <time>2023-12-20T11:28:02Z</time>
      </trkpt>
      <trkpt lat="48.83652" lon="1.72486">
        <ele>129</ele>
        <time>2023-12-20T11:28:03Z</time>
      </trkpt>
      <trkpt lat="48.83648" lon="1.72481">
        <ele>129</ele>
        <time>2023-12-20T11:28:04Z</time>
      </trkpt>
      <trkpt lat="48.83645" lon="1.72475">
        <ele>129</ele>
        <time>2023-12-20T11:28:05Z</time>
      </trkpt>
      <trkpt lat="48.83641" lon="1.7247">
        <ele>128</ele>
        <time>2023-12-20T11:28:06Z</time>
      </trkpt>
      <trkpt lat="48.83637" lon="1.72464">
        <ele>128.6</ele>
        <time>2023-12-20T11:28:07Z</time>
      </trkpt>
      <trkpt lat="48.83634" lon="1.72458">
        <ele>128.6</ele>
        <time>2023-12-20T11:28:08Z</time>
      </trkpt>
      <trkpt lat="48.8363" lon="1.72453">
        <ele>128.6</ele>
        <time>2023-12-20T11:28:09Z</time>
      </trkpt>
      <trkpt lat="48.83627" lon="1.72447">
        <ele>127.6</ele>
        <time>2023-12-20T11:28:10Z</time>
      </trkpt>
      <trkpt lat="48.83623" lon="1.72441">
        <ele>128.8</ele>
        <time>2023-12-20T11:28:11Z</time>
      </trkpt>
      <trkpt lat="48.8362" lon="1.72435">
        <ele>128.8</ele>
        <time>2023-12-20T11:28:12Z</time>
      </trkpt>
      <trkpt lat="48.83617" lon="1.72429">
        <ele>128.8</ele>
        <time>2023-12-20T11:28:13Z</time>
      </trkpt>
      <trkpt lat="48.83614" lon="1.72422">
        <ele>128.8</ele>
        <time>2023-12-20T11:28:14Z</time>
      </trkpt>
      <trkpt lat="48.83611" lon="1.72416">
        <ele>128.6</ele>
        <time>2023-12-20T11:28:15Z</time>
      </trkpt>
      <trkpt lat="48.83608" lon="1.7241">
        <ele>128.6</ele>
        <time>2023-12-20T11:28:16Z</time>
      </trkpt>
      <trkpt lat="48.83604" lon="1.72404">
        <ele>128.6</ele>
        <time>2023-12-20T11:28:17Z</time>
      </trkpt>
      <trkpt lat="48.83601" lon="1.72398">
        <ele>128</ele>
        <time>2023-12-20T11:28:18Z</time>
      </trkpt>
      <trkpt lat="48.83598" lon="1.72391">
        <ele>128.2</ele>
        <time>2023-12-20T11:28:19Z</time>
      </trkpt>
      <trkpt lat="48.83595" lon="1.72385">
        <ele>128.2</ele>
        <time>2023-12-20T11:28:20Z</time>
      </trkpt>
      <trkpt lat="48.83592" lon="1.72379">
        <ele>128.2</ele>
        <time>2023-12-20T11:28:21Z</time>
      </trkpt>
      <trkpt lat="48.83589" lon="1.72372">
        <ele>128.8</ele>
        <time>2023-12-20T11:28:22Z</time>
      </trkpt>
      <trkpt lat="48.83586" lon="1.72366">
        <ele>128</ele>
        <time>2023-12-20T11:28:23Z</time>
      </trkpt>
      <trkpt lat="48.83583" lon="1.72359">
        <ele>128</ele>
        <time>2023-12-20T11:28:24Z</time>
      </trkpt>
      <trkpt lat="48.8358" lon="1.72352">
        <ele>128</ele>
        <time>2023-12-20T11:28:25Z</time>
      </trkpt>
      <trkpt lat="48.83578" lon="1.72345">
        <ele>128</ele>
        <time>2023-12-20T11:28:26Z</time>
      </trkpt>
      <trkpt lat="48.83575" lon="1.72338">
        <ele>129</ele>
        <time>2023-12-20T11:28:27Z</time>
      </trkpt>
      <trkpt lat="48.83573" lon="1.72331">
        <ele>129</ele>
        <time>2023-12-20T11:28:28Z</time>
      </trkpt>
      <trkpt lat="48.83571" lon="1.72324">
        <ele>129</ele>
        <time>2023-12-20T11:28:29Z</time>
      </trkpt>
      <trkpt lat="48.83568" lon="1.72316">
        <ele>128</ele>
        <time>2023-12-20T11:28:30Z</time>
      </trkpt>
      <trkpt lat="48.83566" lon="1.72309">
        <ele>128</ele>
        <time>2023-12-20T11:28:31Z</time>
      </trkpt>
      <trkpt lat="48.83564" lon="1.72301">
        <ele>128</ele>
        <time>2023-12-20T11:28:32Z</time>
      </trkpt>
      <trkpt lat="48.83562" lon="1.72294">
        <ele>128</ele>
        <time>2023-12-20T11:28:33Z</time>
      </trkpt>
      <trkpt lat="48.8356" lon="1.72286">
        <ele>128</ele>
        <time>2023-12-20T11:28:34Z</time>
      </trkpt>
      <trkpt lat="48.83558" lon="1.72279">
        <ele>129.2</ele>
        <time>2023-12-20T11:28:35Z</time>
      </trkpt>
      <trkpt lat="48.83555" lon="1.72272">
        <ele>129.2</ele>
        <time>2023-12-20T11:28:36Z</time>
      </trkpt>
      <trkpt lat="48.83553" lon="1.72264">
        <ele>129.2</ele>
        <time>2023-12-20T11:28:37Z</time>
      </trkpt>
      <trkpt lat="48.83551" lon="1.72257">
        <ele>129.2</ele>
        <time>2023-12-20T11:28:38Z</time>
      </trkpt>
      <trkpt lat="48.83548" lon="1.72251">
        <ele>128.8</ele>
        <time>2023-12-20T11:28:39Z</time>
      </trkpt>
      <trkpt lat="48.83545" lon="1.72244">
        <ele>128.8</ele>
        <time>2023-12-20T11:28:40Z</time>
      </trkpt>
      <trkpt lat="48.83542" lon="1.72238">
        <ele>128.8</ele>
        <time>2023-12-20T11:28:41Z</time>
      </trkpt>
      <trkpt lat="48.83539" lon="1.72231">
        <ele>128.8</ele>
        <time>2023-12-20T11:28:42Z</time>
      </trkpt>
      <trkpt lat="48.83537" lon="1.72225">
        <ele>128.6</ele>
        <time>2023-12-20T11:28:43Z</time>
      </trkpt>
      <trkpt lat="48.83534" lon="1.72219">
        <ele>128.6</ele>
        <time>2023-12-20T11:28:44Z</time>
      </trkpt>
      <trkpt lat="48.8353" lon="1.72212">
        <ele>128.6</ele>
        <time>2023-12-20T11:28:45Z</time>
      </trkpt>
      <trkpt lat="48.83527" lon="1.72207">
        <ele>129.6</ele>
        <time>2023-12-20T11:28:46Z</time>
      </trkpt>
      <trkpt lat="48.83523" lon="1.72201">
        <ele>130</ele>
        <time>2023-12-20T11:28:47Z</time>
      </trkpt>
      <trkpt lat="48.8352" lon="1.72195">
        <ele>130</ele>
        <time>2023-12-20T11:28:48Z</time>
      </trkpt>
      <trkpt lat="48.83516" lon="1.7219">
        <ele>130</ele>
        <time>2023-12-20T11:28:49Z</time>
      </trkpt>
      <trkpt lat="48.83513" lon="1.72185">
        <ele>130</ele>
        <time>2023-12-20T11:28:50Z</time>
      </trkpt>
      <trkpt lat="48.83509" lon="1.7218">
        <ele>130.4</ele>
        <time>2023-12-20T11:28:51Z</time>
      </trkpt>
      <trkpt lat="48.83505" lon="1.72175">
        <ele>130.4</ele>
        <time>2023-12-20T11:28:52Z</time>
      </trkpt>
      <trkpt lat="48.83501" lon="1.7217">
        <ele>130.4</ele>
        <time>2023-12-20T11:28:53Z</time>
      </trkpt>
      <trkpt lat="48.83497" lon="1.72166">
        <ele>130.4</ele>
        <time>2023-12-20T11:28:54Z</time>
      </trkpt>
      <trkpt lat="48.83492" lon="1.72161">
        <ele>129.6</ele>
        <time>2023-12-20T11:28:55Z</time>
      </trkpt>
      <trkpt lat="48.83488" lon="1.72157">
        <ele>129.6</ele>
        <time>2023-12-20T11:28:56Z</time>
      </trkpt>
      <trkpt lat="48.83484" lon="1.72153">
        <ele>129.6</ele>
        <time>2023-12-20T11:28:57Z</time>
      </trkpt>
      <trkpt lat="48.8348" lon="1.72149">
        <ele>130.6</ele>
        <time>2023-12-20T11:28:58Z</time>
      </trkpt>
      <trkpt lat="48.83475" lon="1.72145">
        <ele>131.4</ele>
        <time>2023-12-20T11:28:59Z</time>
      </trkpt>
      <trkpt lat="48.83471" lon="1.72142">
        <ele>131.4</ele>
        <time>2023-12-20T11:29:00Z</time>
      </trkpt>
      <trkpt lat="48.83466" lon="1.72139">
        <ele>131.4</ele>
        <time>2023-12-20T11:29:01Z</time>
      </trkpt>
      <trkpt lat="48.83461" lon="1.72136">
        <ele>130.8</ele>
        <time>2023-12-20T11:29:02Z</time>
      </trkpt>
      <trkpt lat="48.83456" lon="1.72133">
        <ele>129.6</ele>
        <time>2023-12-20T11:29:03Z</time>
      </trkpt>
      <trkpt lat="48.83452" lon="1.7213">
        <ele>129.6</ele>
        <time>2023-12-20T11:29:04Z</time>
      </trkpt>
      <trkpt lat="48.83446" lon="1.72127">
        <ele>129.6</ele>
        <time>2023-12-20T11:29:05Z</time>
      </trkpt>
      <trkpt lat="48.83441" lon="1.72124">
        <ele>129.6</ele>
        <time>2023-12-20T11:29:06Z</time>
      </trkpt>
      <trkpt lat="48.83436" lon="1.72122">
        <ele>130</ele>
        <time>2023-12-20T11:29:07Z</time>
      </trkpt>
      <trkpt lat="48.83431" lon="1.7212">
        <ele>130</ele>
        <time>2023-12-20T11:29:08Z</time>
      </trkpt>
      <trkpt lat="48.83426" lon="1.72118">
        <ele>130</ele>
        <time>2023-12-20T11:29:09Z</time>
      </trkpt>
      <trkpt lat="48.83421" lon="1.72117">
        <ele>130</ele>
        <time>2023-12-20T11:29:10Z</time>
      </trkpt>
      <trkpt lat="48.83416" lon="1.72116">
        <ele>128.6</ele>
        <time>2023-12-20T11:29:11Z</time>
      </trkpt>
      <trkpt lat="48.83411" lon="1.72115">
        <ele>128.6</ele>
        <time>2023-12-20T11:29:12Z</time>
      </trkpt>
      <trkpt lat="48.83406" lon="1.72114">
        <ele>128.6</ele>
        <time>2023-12-20T11:29:13Z</time>
      </trkpt>
      <trkpt lat="48.83401" lon="1.72113">
        <ele>128.6</ele>
        <time>2023-12-20T11:29:14Z</time>
      </trkpt>
      <trkpt lat="48.83396" lon="1.72111">
        <ele>128.6</ele>
        <time>2023-12-20T11:29:15Z</time>
      </trkpt>
      <trkpt lat="48.83391" lon="1.7211">
        <ele>128.6</ele>
        <time>2023-12-20T11:29:16Z</time>
      </trkpt>
      <trkpt lat="48.83387" lon="1.72108">
        <ele>128.6</ele>
        <time>2023-12-20T11:29:17Z</time>
      </trkpt>
      <trkpt lat="48.83382" lon="1.72107">
        <ele>129.6</ele>
        <time>2023-12-20T11:29:18Z</time>
      </trkpt>
      <trkpt lat="48.83377" lon="1.72106">
        <ele>131</ele>
        <time>2023-12-20T11:29:19Z</time>
      </trkpt>
      <trkpt lat="48.83372" lon="1.72105">
        <ele>131</ele>
        <time>2023-12-20T11:29:20Z</time>
      </trkpt>
      <trkpt lat="48.83368" lon="1.72104">
        <ele>131</ele>
        <time>2023-12-20T11:29:21Z</time>
      </trkpt>
      <trkpt lat="48.83363" lon="1.72103">
        <ele>131</ele>
        <time>2023-12-20T11:29:22Z</time>
      </trkpt>
      <trkpt lat="48.83359" lon="1.72102">
        <ele>131</ele>
        <time>2023-12-20T11:29:23Z</time>
      </trkpt>
      <trkpt lat="48.83354" lon="1.72101">
        <ele>131</ele>
        <time>2023-12-20T11:29:24Z</time>
      </trkpt>
      <trkpt lat="48.83349" lon="1.72099">
        <ele>131</ele>
        <time>2023-12-20T11:29:25Z</time>
      </trkpt>
      <trkpt lat="48.83345" lon="1.72098">
        <ele>131</ele>
        <time>2023-12-20T11:29:26Z</time>
      </trkpt>
      <trkpt lat="48.8334" lon="1.72097">
        <ele>130</ele>
        <time>2023-12-20T11:29:27Z</time>
      </trkpt>
      <trkpt lat="48.83336" lon="1.72096">
        <ele>130</ele>
        <time>2023-12-20T11:29:28Z</time>
      </trkpt>
      <trkpt lat="48.83331" lon="1.72095">
        <ele>130</ele>
        <time>2023-12-20T11:29:29Z</time>
      </trkpt>
      <trkpt lat="48.83326" lon="1.72094">
        <ele>131</ele>
        <time>2023-12-20T11:29:30Z</time>
      </trkpt>
      <trkpt lat="48.83321" lon="1.72093">
        <ele>131</ele>
        <time>2023-12-20T11:29:31Z</time>
      </trkpt>
      <trkpt lat="48.83316" lon="1.72092">
        <ele>131</ele>
        <time>2023-12-20T11:29:32Z</time>
      </trkpt>
      <trkpt lat="48.83312" lon="1.7209">
        <ele>131</ele>
        <time>2023-12-20T11:29:33Z</time>
      </trkpt>
      <trkpt lat="48.83307" lon="1.72089">
        <ele>132</ele>
        <time>2023-12-20T11:29:34Z</time>
      </trkpt>
      <trkpt lat="48.83302" lon="1.72089">
        <ele>133</ele>
        <time>2023-12-20T11:29:35Z</time>
      </trkpt>
      <trkpt lat="48.83298" lon="1.72088">
        <ele>133</ele>
        <time>2023-12-20T11:29:36Z</time>
      </trkpt>
      <trkpt lat="48.83293" lon="1.72088">
        <ele>133</ele>
        <time>2023-12-20T11:29:37Z</time>
      </trkpt>
      <trkpt lat="48.83289" lon="1.72087">
        <ele>133</ele>
        <time>2023-12-20T11:29:38Z</time>
      </trkpt>
      <trkpt lat="48.83285" lon="1.72086">
        <ele>133</ele>
        <time>2023-12-20T11:29:39Z</time>
      </trkpt>
      <trkpt lat="48.83281" lon="1.72085">
        <ele>133</ele>
        <time>2023-12-20T11:29:40Z</time>
      </trkpt>
      <trkpt lat="48.83277" lon="1.72084">
        <ele>133</ele>
        <time>2023-12-20T11:29:41Z</time>
      </trkpt>
      <trkpt lat="48.83273" lon="1.72083">
        <ele>132.6</ele>
        <time>2023-12-20T11:29:42Z</time>
      </trkpt>
      <trkpt lat="48.83268" lon="1.72083">
        <ele>132.8</ele>
        <time>2023-12-20T11:29:43Z</time>
      </trkpt>
      <trkpt lat="48.83264" lon="1.72082">
        <ele>132.8</ele>
        <time>2023-12-20T11:29:44Z</time>
      </trkpt>
      <trkpt lat="48.8326" lon="1.7208">
        <ele>132.8</ele>
        <time>2023-12-20T11:29:45Z</time>
      </trkpt>
      <trkpt lat="48.83255" lon="1.72079">
        <ele>133.2</ele>
        <time>2023-12-20T11:29:46Z</time>
      </trkpt>
      <trkpt lat="48.83252" lon="1.72078">
        <ele>133.2</ele>
        <time>2023-12-20T11:29:47Z</time>
      </trkpt>
      <trkpt lat="48.83248" lon="1.72077">
        <ele>133.2</ele>
        <time>2023-12-20T11:29:48Z</time>
      </trkpt>
      <trkpt lat="48.83244" lon="1.72076">
        <ele>133.2</ele>
        <time>2023-12-20T11:29:49Z</time>
      </trkpt>
      <trkpt lat="48.8324" lon="1.72075">
        <ele>134.2</ele>
        <time>2023-12-20T11:29:50Z</time>
      </trkpt>
      <trkpt lat="48.83236" lon="1.72074">
        <ele>134.2</ele>
        <time>2023-12-20T11:29:51Z</time>
      </trkpt>
      <trkpt lat="48.83231" lon="1.72074">
        <ele>134.2</ele>
        <time>2023-12-20T11:29:52Z</time>
      </trkpt>
      <trkpt lat="48.83226" lon="1.72072">
        <ele>134.2</ele>
        <time>2023-12-20T11:29:53Z</time>
      </trkpt>
      <trkpt lat="48.83222" lon="1.72071">
        <ele>134</ele>
        <time>2023-12-20T11:29:54Z</time>
      </trkpt>
      <trkpt lat="48.83217" lon="1.7207">
        <ele>134</ele>
        <time>2023-12-20T11:29:55Z</time>
      </trkpt>
      <trkpt lat="48.83212" lon="1.72069">
        <ele>134</ele>
        <time>2023-12-20T11:29:56Z</time>
      </trkpt>
      <trkpt lat="48.83207" lon="1.72068">
        <ele>134</ele>
        <time>2023-12-20T11:29:57Z</time>
      </trkpt>
      <trkpt lat="48.83203" lon="1.72067">
        <ele>135</ele>
        <time>2023-12-20T11:29:58Z</time>
      </trkpt>
      <trkpt lat="48.83198" lon="1.72066">
        <ele>134.4</ele>
        <time>2023-12-20T11:29:59Z</time>
      </trkpt>
      <trkpt lat="48.83194" lon="1.72065">
        <ele>134.4</ele>
        <time>2023-12-20T11:30:00Z</time>
      </trkpt>
      <trkpt lat="48.8319" lon="1.72064">
        <ele>134.4</ele>
        <time>2023-12-20T11:30:01Z</time>
      </trkpt>
      <trkpt lat="48.83186" lon="1.72063">
        <ele>134.6</ele>
        <time>2023-12-20T11:30:02Z</time>
      </trkpt>
      <trkpt lat="48.83181" lon="1.72062">
        <ele>134.6</ele>
        <time>2023-12-20T11:30:03Z</time>
      </trkpt>
      <trkpt lat="48.83177" lon="1.72061">
        <ele>134.6</ele>
        <time>2023-12-20T11:30:04Z</time>
      </trkpt>
      <trkpt lat="48.83172" lon="1.7206">
        <ele>134.6</ele>
        <time>2023-12-20T11:30:05Z</time>
      </trkpt>
      <trkpt lat="48.83167" lon="1.72059">
        <ele>134.6</ele>
        <time>2023-12-20T11:30:06Z</time>
      </trkpt>
      <trkpt lat="48.83163" lon="1.72058">
        <ele>135.2</ele>
        <time>2023-12-20T11:30:07Z</time>
      </trkpt>
      <trkpt lat="48.83159" lon="1.72057">
        <ele>135.2</ele>
        <time>2023-12-20T11:30:08Z</time>
      </trkpt>
      <trkpt lat="48.83155" lon="1.72056">
        <ele>135.2</ele>
        <time>2023-12-20T11:30:09Z</time>
      </trkpt>
      <trkpt lat="48.83151" lon="1.72055">
        <ele>134.4</ele>
        <time>2023-12-20T11:30:10Z</time>
      </trkpt>
      <trkpt lat="48.83146" lon="1.72053">
        <ele>135.2</ele>
        <time>2023-12-20T11:30:11Z</time>
      </trkpt>
      <trkpt lat="48.83141" lon="1.72052">
        <ele>135.2</ele>
        <time>2023-12-20T11:30:12Z</time>
      </trkpt>
      <trkpt lat="48.83137" lon="1.72051">
        <ele>135.2</ele>
        <time>2023-12-20T11:30:13Z</time>
      </trkpt>
      <trkpt lat="48.83132" lon="1.7205">
        <ele>134.8</ele>
        <time>2023-12-20T11:30:14Z</time>
      </trkpt>
      <trkpt lat="48.83128" lon="1.72049">
        <ele>135.4</ele>
        <time>2023-12-20T11:30:15Z</time>
      </trkpt>
      <trkpt lat="48.83123" lon="1.72047">
        <ele>135.4</ele>
        <time>2023-12-20T11:30:16Z</time>
      </trkpt>
      <trkpt lat="48.83118" lon="1.72046">
        <ele>135.4</ele>
        <time>2023-12-20T11:30:17Z</time>
      </trkpt>
      <trkpt lat="48.83114" lon="1.72045">
        <ele>136.4</ele>
        <time>2023-12-20T11:30:18Z</time>
      </trkpt>
      <trkpt lat="48.8311" lon="1.72044">
        <ele>136.4</ele>
        <time>2023-12-20T11:30:19Z</time>
      </trkpt>
      <trkpt lat="48.83107" lon="1.72043">
        <ele>136.4</ele>
        <time>2023-12-20T11:30:20Z</time>
      </trkpt>
      <trkpt lat="48.83106" lon="1.72043">
        <ele>136.4</ele>
        <time>2023-12-20T11:30:21Z</time>
      </trkpt>
      <trkpt lat="48.83105" lon="1.72042">
        <ele>136.4</ele>
        <time>2023-12-20T11:30:22Z</time>
      </trkpt>
      <trkpt lat="48.83105" lon="1.72042">
        <ele>136.4</ele>
        <time>2023-12-20T11:30:23Z</time>
      </trkpt>
      <trkpt lat="48.83105" lon="1.72042">
        <ele>136.4</ele>
        <time>2023-12-20T11:30:29Z</time>
      </trkpt>
      <trkpt lat="48.83103" lon="1.72042">
        <ele>136.4</ele>
        <time>2023-12-20T11:30:30Z</time>
      </trkpt>
      <trkpt lat="48.83101" lon="1.72041">
        <ele>136.4</ele>
        <time>2023-12-20T11:30:31Z</time>
      </trkpt>
      <trkpt lat="48.83099" lon="1.72042">
        <ele>136.4</ele>
        <time>2023-12-20T11:30:32Z</time>
      </trkpt>
      <trkpt lat="48.83097" lon="1.72043">
        <ele>136.4</ele>
        <time>2023-12-20T11:30:33Z</time>
      </trkpt>
      <trkpt lat="48.83095" lon="1.72046">
        <ele>136.4</ele>
        <time>2023-12-20T11:30:34Z</time>
      </trkpt>
      <trkpt lat="48.83094" lon="1.7205">
        <ele>136.2</ele>
        <time>2023-12-20T11:30:35Z</time>
      </trkpt>
      <trkpt lat="48.83092" lon="1.72054">
        <ele>136.2</ele>
        <time>2023-12-20T11:30:36Z</time>
      </trkpt>
      <trkpt lat="48.8309" lon="1.72059">
        <ele>136.2</ele>
        <time>2023-12-20T11:30:37Z</time>
      </trkpt>
      <trkpt lat="48.83088" lon="1.72065">
        <ele>136.2</ele>
        <time>2023-12-20T11:30:38Z</time>
      </trkpt>
      <trkpt lat="48.83086" lon="1.72072">
        <ele>136.4</ele>
        <time>2023-12-20T11:30:39Z</time>
      </trkpt>
      <trkpt lat="48.83085" lon="1.7208">
        <ele>136.4</ele>
        <time>2023-12-20T11:30:40Z</time>
      </trkpt>
      <trkpt lat="48.83083" lon="1.72088">
        <ele>136.4</ele>
        <time>2023-12-20T11:30:41Z</time>
      </trkpt>
      <trkpt lat="48.83082" lon="1.72095">
        <ele>136.4</ele>
        <time>2023-12-20T11:30:42Z</time>
      </trkpt>
      <trkpt lat="48.8308" lon="1.72103">
        <ele>137</ele>
        <time>2023-12-20T11:30:43Z</time>
      </trkpt>
      <trkpt lat="48.83078" lon="1.7211">
        <ele>137</ele>
        <time>2023-12-20T11:30:44Z</time>
      </trkpt>
      <trkpt lat="48.83077" lon="1.72117">
        <ele>137</ele>
        <time>2023-12-20T11:30:45Z</time>
      </trkpt>
      <trkpt lat="48.83075" lon="1.72124">
        <ele>137</ele>
        <time>2023-12-20T11:30:46Z</time>
      </trkpt>
      <trkpt lat="48.83074" lon="1.7213">
        <ele>137.2</ele>
        <time>2023-12-20T11:30:47Z</time>
      </trkpt>
      <trkpt lat="48.83073" lon="1.72136">
        <ele>137.2</ele>
        <time>2023-12-20T11:30:48Z</time>
      </trkpt>
      <trkpt lat="48.83071" lon="1.72143">
        <ele>137.2</ele>
        <time>2023-12-20T11:30:49Z</time>
      </trkpt>
      <trkpt lat="48.8307" lon="1.72143">
        <ele>138</ele>
        <time>2023-12-20T11:30:50Z</time>
      </trkpt>
      <trkpt lat="48.83069" lon="1.72144">
        <ele>137.8</ele>
        <time>2023-12-20T11:30:51Z</time>
      </trkpt>
      <trkpt lat="48.83069" lon="1.72145">
        <ele>137.8</ele>
        <time>2023-12-20T11:30:52Z</time>
      </trkpt>
      <trkpt lat="48.83068" lon="1.72146">
        <ele>137.8</ele>
        <time>2023-12-20T11:30:53Z</time>
      </trkpt>
      <trkpt lat="48.83068" lon="1.72147">
        <ele>138.2</ele>
        <time>2023-12-20T11:30:54Z</time>
      </trkpt>
      <trkpt lat="48.83067" lon="1.72148">
        <ele>138.2</ele>
        <time>2023-12-20T11:30:55Z</time>
      </trkpt>
      <trkpt lat="48.83067" lon="1.72149">
        <ele>138.2</ele>
        <time>2023-12-20T11:30:56Z</time>
      </trkpt>
      <trkpt lat="48.83066" lon="1.72149">
        <ele>138.2</ele>
        <time>2023-12-20T11:30:57Z</time>
      </trkpt>
      <trkpt lat="48.83066" lon="1.7215">
        <ele>138.2</ele>
        <time>2023-12-20T11:33:40Z</time>
      </trkpt>
      <trkpt lat="48.83065" lon="1.72151">
        <ele>138.2</ele>
        <time>2023-12-20T11:33:41Z</time>
      </trkpt>
      <trkpt lat="48.83065" lon="1.72156">
        <ele>138.2</ele>
        <time>2023-12-20T11:33:42Z</time>
      </trkpt>
      <trkpt lat="48.83064" lon="1.72161">
        <ele>137.8</ele>
        <time>2023-12-20T11:33:43Z</time>
      </trkpt>
      <trkpt lat="48.83063" lon="1.72167">
        <ele>137.8</ele>
        <time>2023-12-20T11:33:44Z</time>
      </trkpt>
      <trkpt lat="48.83062" lon="1.72173">
        <ele>137.8</ele>
        <time>2023-12-20T11:33:45Z</time>
      </trkpt>
      <trkpt lat="48.83061" lon="1.7218">
        <ele>137</ele>
        <time>2023-12-20T11:33:46Z</time>
      </trkpt>
      <trkpt lat="48.8306" lon="1.72186">
        <ele>137</ele>
        <time>2023-12-20T11:33:47Z</time>
      </trkpt>
      <trkpt lat="48.83059" lon="1.72193">
        <ele>137</ele>
        <time>2023-12-20T11:33:48Z</time>
      </trkpt>
      <trkpt lat="48.83057" lon="1.72201">
        <ele>137</ele>
        <time>2023-12-20T11:33:49Z</time>
      </trkpt>
      <trkpt lat="48.83056" lon="1.72208">
        <ele>137</ele>
        <time>2023-12-20T11:33:50Z</time>
      </trkpt>
      <trkpt lat="48.83055" lon="1.72216">
        <ele>137</ele>
        <time>2023-12-20T11:33:51Z</time>
      </trkpt>
      <trkpt lat="48.83053" lon="1.72224">
        <ele>137</ele>
        <time>2023-12-20T11:33:52Z</time>
      </trkpt>
      <trkpt lat="48.83052" lon="1.72232">
        <ele>137</ele>
        <time>2023-12-20T11:33:53Z</time>
      </trkpt>
      <trkpt lat="48.8305" lon="1.7224">
        <ele>136.8</ele>
        <time>2023-12-20T11:33:54Z</time>
      </trkpt>
      <trkpt lat="48.83048" lon="1.72249">
        <ele>136.4</ele>
        <time>2023-12-20T11:33:55Z</time>
      </trkpt>
      <trkpt lat="48.83047" lon="1.72257">
        <ele>136.4</ele>
        <time>2023-12-20T11:33:56Z</time>
      </trkpt>
      <trkpt lat="48.83045" lon="1.72266">
        <ele>136.4</ele>
        <time>2023-12-20T11:33:57Z</time>
      </trkpt>
      <trkpt lat="48.83043" lon="1.72274">
        <ele>136.4</ele>
        <time>2023-12-20T11:33:58Z</time>
      </trkpt>
      <trkpt lat="48.83041" lon="1.72283">
        <ele>136.4</ele>
        <time>2023-12-20T11:33:59Z</time>
      </trkpt>
      <trkpt lat="48.83039" lon="1.72291">
        <ele>136.4</ele>
        <time>2023-12-20T11:34:00Z</time>
      </trkpt>
      <trkpt lat="48.83036" lon="1.723">
        <ele>136.4</ele>
        <time>2023-12-20T11:34:01Z</time>
      </trkpt>
      <trkpt lat="48.83033" lon="1.72308">
        <ele>135.8</ele>
        <time>2023-12-20T11:34:02Z</time>
      </trkpt>
      <trkpt lat="48.83031" lon="1.72317">
        <ele>135.6</ele>
        <time>2023-12-20T11:34:03Z</time>
      </trkpt>
      <trkpt lat="48.83029" lon="1.72326">
        <ele>135.6</ele>
        <time>2023-12-20T11:34:04Z</time>
      </trkpt>
      <trkpt lat="48.83026" lon="1.72335">
        <ele>135.6</ele>
        <time>2023-12-20T11:34:05Z</time>
      </trkpt>
      <trkpt lat="48.83024" lon="1.72344">
        <ele>135.6</ele>
        <time>2023-12-20T11:34:06Z</time>
      </trkpt>
      <trkpt lat="48.83022" lon="1.72354">
        <ele>135.6</ele>
        <time>2023-12-20T11:34:07Z</time>
      </trkpt>
      <trkpt lat="48.83019" lon="1.72363">
        <ele>135.6</ele>
        <time>2023-12-20T11:34:08Z</time>
      </trkpt>
      <trkpt lat="48.83017" lon="1.72373">
        <ele>135.6</ele>
        <time>2023-12-20T11:34:09Z</time>
      </trkpt>
      <trkpt lat="48.83015" lon="1.72383">
        <ele>135.6</ele>
        <time>2023-12-20T11:34:10Z</time>
      </trkpt>
      <trkpt lat="48.83013" lon="1.72393">
        <ele>134.8</ele>
        <time>2023-12-20T11:34:11Z</time>
      </trkpt>
      <trkpt lat="48.83011" lon="1.72403">
        <ele>134.8</ele>
        <time>2023-12-20T11:34:12Z</time>
      </trkpt>
      <trkpt lat="48.83009" lon="1.72414">
        <ele>134.8</ele>
        <time>2023-12-20T11:34:13Z</time>
      </trkpt>
      <trkpt lat="48.83006" lon="1.72425">
        <ele>134</ele>
        <time>2023-12-20T11:34:14Z</time>
      </trkpt>
      <trkpt lat="48.83005" lon="1.72435">
        <ele>133.8</ele>
        <time>2023-12-20T11:34:15Z</time>
      </trkpt>
      <trkpt lat="48.83003" lon="1.72446">
        <ele>133.8</ele>
        <time>2023-12-20T11:34:16Z</time>
      </trkpt>
      <trkpt lat="48.83" lon="1.72457">
        <ele>133.8</ele>
        <time>2023-12-20T11:34:17Z</time>
      </trkpt>
      <trkpt lat="48.82998" lon="1.72468">
        <ele>133.8</ele>
        <time>2023-12-20T11:34:18Z</time>
      </trkpt>
      <trkpt lat="48.82996" lon="1.72479">
        <ele>133.2</ele>
        <time>2023-12-20T11:34:19Z</time>
      </trkpt>
      <trkpt lat="48.82994" lon="1.72491">
        <ele>133.2</ele>
        <time>2023-12-20T11:34:20Z</time>
      </trkpt>
      <trkpt lat="48.82991" lon="1.72502">
        <ele>133.2</ele>
        <time>2023-12-20T11:34:21Z</time>
      </trkpt>
      <trkpt lat="48.82989" lon="1.72514">
        <ele>133.2</ele>
        <time>2023-12-20T11:34:22Z</time>
      </trkpt>
      <trkpt lat="48.82986" lon="1.72525">
        <ele>133.2</ele>
        <time>2023-12-20T11:34:23Z</time>
      </trkpt>
      <trkpt lat="48.82984" lon="1.72537">
        <ele>133.2</ele>
        <time>2023-12-20T11:34:24Z</time>
      </trkpt>
      <trkpt lat="48.82982" lon="1.72549">
        <ele>133.2</ele>
        <time>2023-12-20T11:34:25Z</time>
      </trkpt>
      <trkpt lat="48.82979" lon="1.72561">
        <ele>133.2</ele>
        <time>2023-12-20T11:34:26Z</time>
      </trkpt>
      <trkpt lat="48.82977" lon="1.72574">
        <ele>133</ele>
        <time>2023-12-20T11:34:27Z</time>
      </trkpt>
      <trkpt lat="48.82975" lon="1.72586">
        <ele>133</ele>
        <time>2023-12-20T11:34:28Z</time>
      </trkpt>
      <trkpt lat="48.82972" lon="1.72598">
        <ele>133</ele>
        <time>2023-12-20T11:34:29Z</time>
      </trkpt>
      <trkpt lat="48.8297" lon="1.72609">
        <ele>133.4</ele>
        <time>2023-12-20T11:34:30Z</time>
      </trkpt>
      <trkpt lat="48.82969" lon="1.72618">
        <ele>133.6</ele>
        <time>2023-12-20T11:34:31Z</time>
      </trkpt>
      <trkpt lat="48.82967" lon="1.72625">
        <ele>133.6</ele>
        <time>2023-12-20T11:34:32Z</time>
      </trkpt>
      <trkpt lat="48.82966" lon="1.72633">
        <ele>133.6</ele>
        <time>2023-12-20T11:34:33Z</time>
      </trkpt>
      <trkpt lat="48.82963" lon="1.7264">
        <ele>133</ele>
        <time>2023-12-20T11:34:34Z</time>
      </trkpt>
      <trkpt lat="48.82961" lon="1.72647">
        <ele>133</ele>
        <time>2023-12-20T11:34:35Z</time>
      </trkpt>
      <trkpt lat="48.8296" lon="1.72654">
        <ele>133</ele>
        <time>2023-12-20T11:34:36Z</time>
      </trkpt>
      <trkpt lat="48.82958" lon="1.72662">
        <ele>133</ele>
        <time>2023-12-20T11:34:37Z</time>
      </trkpt>
      <trkpt lat="48.82957" lon="1.72671">
        <ele>132</ele>
        <time>2023-12-20T11:34:38Z</time>
      </trkpt>
      <trkpt lat="48.82956" lon="1.72679">
        <ele>132</ele>
        <time>2023-12-20T11:34:39Z</time>
      </trkpt>
      <trkpt lat="48.82954" lon="1.72688">
        <ele>132</ele>
        <time>2023-12-20T11:34:40Z</time>
      </trkpt>
      <trkpt lat="48.82953" lon="1.72697">
        <ele>132</ele>
        <time>2023-12-20T11:34:41Z</time>
      </trkpt>
      <trkpt lat="48.82952" lon="1.72707">
        <ele>131</ele>
        <time>2023-12-20T11:34:42Z</time>
      </trkpt>
      <trkpt lat="48.82951" lon="1.72717">
        <ele>130.4</ele>
        <time>2023-12-20T11:34:43Z</time>
      </trkpt>
      <trkpt lat="48.8295" lon="1.72727">
        <ele>130.4</ele>
        <time>2023-12-20T11:34:44Z</time>
      </trkpt>
      <trkpt lat="48.82949" lon="1.72737">
        <ele>130.4</ele>
        <time>2023-12-20T11:34:45Z</time>
      </trkpt>
      <trkpt lat="48.82948" lon="1.72748">
        <ele>130.4</ele>
        <time>2023-12-20T11:34:46Z</time>
      </trkpt>
      <trkpt lat="48.82947" lon="1.72759">
        <ele>130</ele>
        <time>2023-12-20T11:34:47Z</time>
      </trkpt>
      <trkpt lat="48.82946" lon="1.7277">
        <ele>130</ele>
        <time>2023-12-20T11:34:48Z</time>
      </trkpt>
      <trkpt lat="48.82945" lon="1.72781">
        <ele>130</ele>
        <time>2023-12-20T11:34:49Z</time>
      </trkpt>
      <trkpt lat="48.82944" lon="1.72793">
        <ele>130</ele>
        <time>2023-12-20T11:34:50Z</time>
      </trkpt>
      <trkpt lat="48.82943" lon="1.72805">
        <ele>129.6</ele>
        <time>2023-12-20T11:34:51Z</time>
      </trkpt>
      <trkpt lat="48.82942" lon="1.72816">
        <ele>129.6</ele>
        <time>2023-12-20T11:34:52Z</time>
      </trkpt>
      <trkpt lat="48.82941" lon="1.72828">
        <ele>129.6</ele>
        <time>2023-12-20T11:34:53Z</time>
      </trkpt>
      <trkpt lat="48.8294" lon="1.7284">
        <ele>129.6</ele>
        <time>2023-12-20T11:34:54Z</time>
      </trkpt>
      <trkpt lat="48.82939" lon="1.72853">
        <ele>130</ele>
        <time>2023-12-20T11:34:55Z</time>
      </trkpt>
      <trkpt lat="48.82938" lon="1.72865">
        <ele>130</ele>
        <time>2023-12-20T11:34:56Z</time>
      </trkpt>
      <trkpt lat="48.82937" lon="1.72877">
        <ele>130</ele>
        <time>2023-12-20T11:34:57Z</time>
      </trkpt>
      <trkpt lat="48.82936" lon="1.7289">
        <ele>130</ele>
        <time>2023-12-20T11:34:58Z</time>
      </trkpt>
      <trkpt lat="48.82934" lon="1.72902">
        <ele>130.2</ele>
        <time>2023-12-20T11:34:59Z</time>
      </trkpt>
      <trkpt lat="48.82933" lon="1.72915">
        <ele>130.2</ele>
        <time>2023-12-20T11:35:00Z</time>
      </trkpt>
      <trkpt lat="48.82931" lon="1.72927">
        <ele>130.2</ele>
        <time>2023-12-20T11:35:01Z</time>
      </trkpt>
      <trkpt lat="48.82929" lon="1.72939">
        <ele>129.2</ele>
        <time>2023-12-20T11:35:02Z</time>
      </trkpt>
      <trkpt lat="48.82927" lon="1.72952">
        <ele>129.4</ele>
        <time>2023-12-20T11:35:03Z</time>
      </trkpt>
      <trkpt lat="48.82925" lon="1.72964">
        <ele>129.4</ele>
        <time>2023-12-20T11:35:04Z</time>
      </trkpt>
      <trkpt lat="48.82922" lon="1.72976">
        <ele>129.4</ele>
        <time>2023-12-20T11:35:05Z</time>
      </trkpt>
      <trkpt lat="48.8292" lon="1.72987">
        <ele>128.6</ele>
        <time>2023-12-20T11:35:06Z</time>
      </trkpt>
      <trkpt lat="48.82918" lon="1.72998">
        <ele>128.8</ele>
        <time>2023-12-20T11:35:07Z</time>
      </trkpt>
      <trkpt lat="48.82915" lon="1.73009">
        <ele>128.8</ele>
        <time>2023-12-20T11:35:08Z</time>
      </trkpt>
      <trkpt lat="48.82913" lon="1.7302">
        <ele>128.8</ele>
        <time>2023-12-20T11:35:09Z</time>
      </trkpt>
      <trkpt lat="48.82911" lon="1.7303">
        <ele>129.4</ele>
        <time>2023-12-20T11:35:10Z</time>
      </trkpt>
      <trkpt lat="48.82908" lon="1.7304">
        <ele>129.4</ele>
        <time>2023-12-20T11:35:11Z</time>
      </trkpt>
      <trkpt lat="48.82906" lon="1.7305">
        <ele>129.4</ele>
        <time>2023-12-20T11:35:12Z</time>
      </trkpt>
      <trkpt lat="48.82903" lon="1.7306">
        <ele>129.4</ele>
        <time>2023-12-20T11:35:13Z</time>
      </trkpt>
      <trkpt lat="48.82901" lon="1.73069">
        <ele>129.4</ele>
        <time>2023-12-20T11:35:14Z</time>
      </trkpt>
      <trkpt lat="48.82898" lon="1.73078">
        <ele>129.2</ele>
        <time>2023-12-20T11:35:15Z</time>
      </trkpt>
      <trkpt lat="48.82896" lon="1.73088">
        <ele>129.2</ele>
        <time>2023-12-20T11:35:16Z</time>
      </trkpt>
      <trkpt lat="48.82894" lon="1.73097">
        <ele>129.2</ele>
        <time>2023-12-20T11:35:17Z</time>
      </trkpt>
      <trkpt lat="48.82891" lon="1.73105">
        <ele>129.2</ele>
        <time>2023-12-20T11:35:18Z</time>
      </trkpt>
      <trkpt lat="48.82888" lon="1.73114">
        <ele>129.4</ele>
        <time>2023-12-20T11:35:19Z</time>
      </trkpt>
      <trkpt lat="48.82886" lon="1.73122">
        <ele>129.4</ele>
        <time>2023-12-20T11:35:20Z</time>
      </trkpt>
      <trkpt lat="48.82883" lon="1.73131">
        <ele>129.4</ele>
        <time>2023-12-20T11:35:21Z</time>
      </trkpt>
      <trkpt lat="48.82881" lon="1.73139">
        <ele>129</ele>
        <time>2023-12-20T11:35:22Z</time>
      </trkpt>
      <trkpt lat="48.82879" lon="1.73148">
        <ele>129</ele>
        <time>2023-12-20T11:35:23Z</time>
      </trkpt>
      <trkpt lat="48.82877" lon="1.73156">
        <ele>129</ele>
        <time>2023-12-20T11:35:24Z</time>
      </trkpt>
      <trkpt lat="48.82874" lon="1.73164">
        <ele>129</ele>
        <time>2023-12-20T11:35:25Z</time>
      </trkpt>
      <trkpt lat="48.82872" lon="1.73172">
        <ele>129.2</ele>
        <time>2023-12-20T11:35:26Z</time>
      </trkpt>
      <trkpt lat="48.8287" lon="1.7318">
        <ele>129.2</ele>
        <time>2023-12-20T11:35:27Z</time>
      </trkpt>
      <trkpt lat="48.82869" lon="1.73188">
        <ele>129.2</ele>
        <time>2023-12-20T11:35:28Z</time>
      </trkpt>
      <trkpt lat="48.82866" lon="1.73196">
        <ele>129.2</ele>
        <time>2023-12-20T11:35:29Z</time>
      </trkpt>
      <trkpt lat="48.82864" lon="1.73203">
        <ele>129.2</ele>
        <time>2023-12-20T11:35:30Z</time>
      </trkpt>
      <trkpt lat="48.82862" lon="1.73211">
        <ele>128</ele>
        <time>2023-12-20T11:35:31Z</time>
      </trkpt>
      <trkpt lat="48.8286" lon="1.7322">
        <ele>128</ele>
        <time>2023-12-20T11:35:32Z</time>
      </trkpt>
      <trkpt lat="48.82858" lon="1.73229">
        <ele>128</ele>
        <time>2023-12-20T11:35:33Z</time>
      </trkpt>
      <trkpt lat="48.82855" lon="1.73238">
        <ele>129</ele>
        <time>2023-12-20T11:35:34Z</time>
      </trkpt>
      <trkpt lat="48.82853" lon="1.73248">
        <ele>127.8</ele>
        <time>2023-12-20T11:35:35Z</time>
      </trkpt>
      <trkpt lat="48.8285" lon="1.73258">
        <ele>127.8</ele>
        <time>2023-12-20T11:35:36Z</time>
      </trkpt>
      <trkpt lat="48.82847" lon="1.73268">
        <ele>127.8</ele>
        <time>2023-12-20T11:35:37Z</time>
      </trkpt>
      <trkpt lat="48.82845" lon="1.73279">
        <ele>128</ele>
        <time>2023-12-20T11:35:38Z</time>
      </trkpt>
      <trkpt lat="48.82842" lon="1.7329">
        <ele>128</ele>
        <time>2023-12-20T11:35:39Z</time>
      </trkpt>
      <trkpt lat="48.82839" lon="1.73301">
        <ele>128</ele>
        <time>2023-12-20T11:35:40Z</time>
      </trkpt>
      <trkpt lat="48.82836" lon="1.73312">
        <ele>128</ele>
        <time>2023-12-20T11:35:41Z</time>
      </trkpt>
      <trkpt lat="48.82834" lon="1.73323">
        <ele>127</ele>
        <time>2023-12-20T11:35:42Z</time>
      </trkpt>
      <trkpt lat="48.82831" lon="1.73334">
        <ele>128.2</ele>
        <time>2023-12-20T11:35:43Z</time>
      </trkpt>
      <trkpt lat="48.82828" lon="1.73345">
        <ele>128.2</ele>
        <time>2023-12-20T11:35:44Z</time>
      </trkpt>
      <trkpt lat="48.82825" lon="1.73356">
        <ele>128.2</ele>
        <time>2023-12-20T11:35:45Z</time>
      </trkpt>
      <trkpt lat="48.82823" lon="1.73367">
        <ele>128.2</ele>
        <time>2023-12-20T11:35:46Z</time>
      </trkpt>
      <trkpt lat="48.8282" lon="1.73379">
        <ele>127.6</ele>
        <time>2023-12-20T11:35:47Z</time>
      </trkpt>
      <trkpt lat="48.82817" lon="1.7339">
        <ele>127.6</ele>
        <time>2023-12-20T11:35:48Z</time>
      </trkpt>
      <trkpt lat="48.82814" lon="1.73401">
        <ele>127.6</ele>
        <time>2023-12-20T11:35:49Z</time>
      </trkpt>
      <trkpt lat="48.82811" lon="1.73412">
        <ele>127.6</ele>
        <time>2023-12-20T11:35:50Z</time>
      </trkpt>
      <trkpt lat="48.82808" lon="1.73423">
        <ele>127.6</ele>
        <time>2023-12-20T11:35:51Z</time>
      </trkpt>
      <trkpt lat="48.82805" lon="1.73434">
        <ele>127.6</ele>
        <time>2023-12-20T11:35:52Z</time>
      </trkpt>
      <trkpt lat="48.82803" lon="1.73445">
        <ele>127.6</ele>
        <time>2023-12-20T11:35:53Z</time>
      </trkpt>
      <trkpt lat="48.82801" lon="1.73456">
        <ele>128.2</ele>
        <time>2023-12-20T11:35:54Z</time>
      </trkpt>
      <trkpt lat="48.82798" lon="1.73467">
        <ele>128</ele>
        <time>2023-12-20T11:35:55Z</time>
      </trkpt>
      <trkpt lat="48.82796" lon="1.73478">
        <ele>128</ele>
        <time>2023-12-20T11:35:56Z</time>
      </trkpt>
      <trkpt lat="48.82793" lon="1.73489">
        <ele>128</ele>
        <time>2023-12-20T11:35:57Z</time>
      </trkpt>
      <trkpt lat="48.82791" lon="1.735">
        <ele>127.2</ele>
        <time>2023-12-20T11:35:58Z</time>
      </trkpt>
      <trkpt lat="48.8279" lon="1.73511">
        <ele>126.6</ele>
        <time>2023-12-20T11:35:59Z</time>
      </trkpt>
      <trkpt lat="48.82788" lon="1.73522">
        <ele>126.6</ele>
        <time>2023-12-20T11:36:00Z</time>
      </trkpt>
      <trkpt lat="48.82787" lon="1.73534">
        <ele>126.6</ele>
        <time>2023-12-20T11:36:01Z</time>
      </trkpt>
      <trkpt lat="48.82785" lon="1.73545">
        <ele>126.6</ele>
        <time>2023-12-20T11:36:02Z</time>
      </trkpt>
      <trkpt lat="48.82784" lon="1.73556">
        <ele>126</ele>
        <time>2023-12-20T11:36:03Z</time>
      </trkpt>
      <trkpt lat="48.82782" lon="1.73567">
        <ele>126</ele>
        <time>2023-12-20T11:36:04Z</time>
      </trkpt>
      <trkpt lat="48.82781" lon="1.73579">
        <ele>126</ele>
        <time>2023-12-20T11:36:05Z</time>
      </trkpt>
      <trkpt lat="48.82779" lon="1.7359">
        <ele>126</ele>
        <time>2023-12-20T11:36:06Z</time>
      </trkpt>
      <trkpt lat="48.82778" lon="1.73602">
        <ele>126</ele>
        <time>2023-12-20T11:36:07Z</time>
      </trkpt>
      <trkpt lat="48.82776" lon="1.73613">
        <ele>126</ele>
        <time>2023-12-20T11:36:08Z</time>
      </trkpt>
      <trkpt lat="48.82775" lon="1.73625">
        <ele>126</ele>
        <time>2023-12-20T11:36:09Z</time>
      </trkpt>
      <trkpt lat="48.82774" lon="1.73636">
        <ele>126</ele>
        <time>2023-12-20T11:36:10Z</time>
      </trkpt>
      <trkpt lat="48.82772" lon="1.73648">
        <ele>125.4</ele>
        <time>2023-12-20T11:36:11Z</time>
      </trkpt>
      <trkpt lat="48.82771" lon="1.7366">
        <ele>125.4</ele>
        <time>2023-12-20T11:36:12Z</time>
      </trkpt>
      <trkpt lat="48.8277" lon="1.73671">
        <ele>125.4</ele>
        <time>2023-12-20T11:36:13Z</time>
      </trkpt>
      <trkpt lat="48.82768" lon="1.73682">
        <ele>124.6</ele>
        <time>2023-12-20T11:36:14Z</time>
      </trkpt>
      <trkpt lat="48.82767" lon="1.73694">
        <ele>124.8</ele>
        <time>2023-12-20T11:36:15Z</time>
      </trkpt>
      <trkpt lat="48.82766" lon="1.73705">
        <ele>124.8</ele>
        <time>2023-12-20T11:36:16Z</time>
      </trkpt>
      <trkpt lat="48.82765" lon="1.73715">
        <ele>124.8</ele>
        <time>2023-12-20T11:36:17Z</time>
      </trkpt>
      <trkpt lat="48.82763" lon="1.73726">
        <ele>125.8</ele>
        <time>2023-12-20T11:36:18Z</time>
      </trkpt>
      <trkpt lat="48.82762" lon="1.73737">
        <ele>126</ele>
        <time>2023-12-20T11:36:19Z</time>
      </trkpt>
      <trkpt lat="48.82761" lon="1.73748">
        <ele>126</ele>
        <time>2023-12-20T11:36:20Z</time>
      </trkpt>
      <trkpt lat="48.8276" lon="1.73758">
        <ele>126</ele>
        <time>2023-12-20T11:36:21Z</time>
      </trkpt>
      <trkpt lat="48.82758" lon="1.73769">
        <ele>126</ele>
        <time>2023-12-20T11:36:22Z</time>
      </trkpt>
      <trkpt lat="48.82757" lon="1.73778">
        <ele>127.6</ele>
        <time>2023-12-20T11:36:23Z</time>
      </trkpt>
      <trkpt lat="48.82755" lon="1.73788">
        <ele>127.6</ele>
        <time>2023-12-20T11:36:24Z</time>
      </trkpt>
      <trkpt lat="48.82754" lon="1.73798">
        <ele>127.6</ele>
        <time>2023-12-20T11:36:25Z</time>
      </trkpt>
      <trkpt lat="48.82753" lon="1.73808">
        <ele>126.8</ele>
        <time>2023-12-20T11:36:26Z</time>
      </trkpt>
      <trkpt lat="48.82752" lon="1.73818">
        <ele>126</ele>
        <time>2023-12-20T11:36:27Z</time>
      </trkpt>
      <trkpt lat="48.8275" lon="1.73829">
        <ele>126</ele>
        <time>2023-12-20T11:36:28Z</time>
      </trkpt>
      <trkpt lat="48.82749" lon="1.73839">
        <ele>126</ele>
        <time>2023-12-20T11:36:29Z</time>
      </trkpt>
      <trkpt lat="48.82748" lon="1.7385">
        <ele>126.8</ele>
        <time>2023-12-20T11:36:30Z</time>
      </trkpt>
      <trkpt lat="48.82746" lon="1.7386">
        <ele>127</ele>
        <time>2023-12-20T11:36:31Z</time>
      </trkpt>
      <trkpt lat="48.82745" lon="1.73871">
        <ele>127</ele>
        <time>2023-12-20T11:36:32Z</time>
      </trkpt>
      <trkpt lat="48.82744" lon="1.73882">
        <ele>127</ele>
        <time>2023-12-20T11:36:33Z</time>
      </trkpt>
      <trkpt lat="48.82743" lon="1.73892">
        <ele>127</ele>
        <time>2023-12-20T11:36:34Z</time>
      </trkpt>
      <trkpt lat="48.82742" lon="1.73903">
        <ele>127.6</ele>
        <time>2023-12-20T11:36:35Z</time>
      </trkpt>
      <trkpt lat="48.8274" lon="1.73913">
        <ele>127.6</ele>
        <time>2023-12-20T11:36:36Z</time>
      </trkpt>
      <trkpt lat="48.82739" lon="1.73924">
        <ele>127.6</ele>
        <time>2023-12-20T11:36:37Z</time>
      </trkpt>
      <trkpt lat="48.82738" lon="1.73934">
        <ele>127.6</ele>
        <time>2023-12-20T11:36:38Z</time>
      </trkpt>
      <trkpt lat="48.82737" lon="1.73944">
        <ele>126.8</ele>
        <time>2023-12-20T11:36:39Z</time>
      </trkpt>
      <trkpt lat="48.82736" lon="1.73955">
        <ele>126.8</ele>
        <time>2023-12-20T11:36:40Z</time>
      </trkpt>
      <trkpt lat="48.82735" lon="1.73965">
        <ele>126.8</ele>
        <time>2023-12-20T11:36:41Z</time>
      </trkpt>
      <trkpt lat="48.82733" lon="1.73976">
        <ele>126.8</ele>
        <time>2023-12-20T11:36:42Z</time>
      </trkpt>
      <trkpt lat="48.82732" lon="1.73987">
        <ele>126.8</ele>
        <time>2023-12-20T11:36:43Z</time>
      </trkpt>
      <trkpt lat="48.82731" lon="1.73997">
        <ele>126.8</ele>
        <time>2023-12-20T11:36:44Z</time>
      </trkpt>
      <trkpt lat="48.8273" lon="1.74008">
        <ele>126.8</ele>
        <time>2023-12-20T11:36:45Z</time>
      </trkpt>
      <trkpt lat="48.82729" lon="1.74018">
        <ele>126.8</ele>
        <time>2023-12-20T11:36:46Z</time>
      </trkpt>
      <trkpt lat="48.82727" lon="1.74028">
        <ele>127</ele>
        <time>2023-12-20T11:36:47Z</time>
      </trkpt>
      <trkpt lat="48.82726" lon="1.74038">
        <ele>127</ele>
        <time>2023-12-20T11:36:48Z</time>
      </trkpt>
      <trkpt lat="48.82724" lon="1.74047">
        <ele>127</ele>
        <time>2023-12-20T11:36:49Z</time>
      </trkpt>
      <trkpt lat="48.82722" lon="1.74057">
        <ele>127</ele>
        <time>2023-12-20T11:36:50Z</time>
      </trkpt>
      <trkpt lat="48.82721" lon="1.74066">
        <ele>126.8</ele>
        <time>2023-12-20T11:36:51Z</time>
      </trkpt>
      <trkpt lat="48.82719" lon="1.74076">
        <ele>126.8</ele>
        <time>2023-12-20T11:36:52Z</time>
      </trkpt>
      <trkpt lat="48.82718" lon="1.74086">
        <ele>126.8</ele>
        <time>2023-12-20T11:36:53Z</time>
      </trkpt>
      <trkpt lat="48.82716" lon="1.74096">
        <ele>126.4</ele>
        <time>2023-12-20T11:36:54Z</time>
      </trkpt>
      <trkpt lat="48.82715" lon="1.74106">
        <ele>125.8</ele>
        <time>2023-12-20T11:36:55Z</time>
      </trkpt>
      <trkpt lat="48.82714" lon="1.74116">
        <ele>125.8</ele>
        <time>2023-12-20T11:36:56Z</time>
      </trkpt>
      <trkpt lat="48.82713" lon="1.74128">
        <ele>125.8</ele>
        <time>2023-12-20T11:36:57Z</time>
      </trkpt>
      <trkpt lat="48.82711" lon="1.74139">
        <ele>124.8</ele>
        <time>2023-12-20T11:36:58Z</time>
      </trkpt>
      <trkpt lat="48.82709" lon="1.74151">
        <ele>124.2</ele>
        <time>2023-12-20T11:36:59Z</time>
      </trkpt>
      <trkpt lat="48.82708" lon="1.74163">
        <ele>124.2</ele>
        <time>2023-12-20T11:37:00Z</time>
      </trkpt>
      <trkpt lat="48.82707" lon="1.74175">
        <ele>124.2</ele>
        <time>2023-12-20T11:37:01Z</time>
      </trkpt>
      <trkpt lat="48.82706" lon="1.74187">
        <ele>123.4</ele>
        <time>2023-12-20T11:37:02Z</time>
      </trkpt>
      <trkpt lat="48.82704" lon="1.74198">
        <ele>123.4</ele>
        <time>2023-12-20T11:37:03Z</time>
      </trkpt>
      <trkpt lat="48.82703" lon="1.74211">
        <ele>123.4</ele>
        <time>2023-12-20T11:37:04Z</time>
      </trkpt>
      <trkpt lat="48.82701" lon="1.74223">
        <ele>123.4</ele>
        <time>2023-12-20T11:37:05Z</time>
      </trkpt>
      <trkpt lat="48.827" lon="1.74236">
        <ele>122.4</ele>
        <time>2023-12-20T11:37:06Z</time>
      </trkpt>
      <trkpt lat="48.82698" lon="1.74249">
        <ele>121.8</ele>
        <time>2023-12-20T11:37:07Z</time>
      </trkpt>
      <trkpt lat="48.82697" lon="1.74262">
        <ele>121.8</ele>
        <time>2023-12-20T11:37:08Z</time>
      </trkpt>
      <trkpt lat="48.82696" lon="1.74276">
        <ele>121.8</ele>
        <time>2023-12-20T11:37:09Z</time>
      </trkpt>
      <trkpt lat="48.82694" lon="1.74289">
        <ele>120.8</ele>
        <time>2023-12-20T11:37:10Z</time>
      </trkpt>
      <trkpt lat="48.82693" lon="1.74302">
        <ele>121</ele>
        <time>2023-12-20T11:37:11Z</time>
      </trkpt>
      <trkpt lat="48.82692" lon="1.74315">
        <ele>121</ele>
        <time>2023-12-20T11:37:12Z</time>
      </trkpt>
      <trkpt lat="48.8269" lon="1.74328">
        <ele>121</ele>
        <time>2023-12-20T11:37:13Z</time>
      </trkpt>
      <trkpt lat="48.82689" lon="1.74341">
        <ele>121</ele>
        <time>2023-12-20T11:37:14Z</time>
      </trkpt>
      <trkpt lat="48.82688" lon="1.74354">
        <ele>120.2</ele>
        <time>2023-12-20T11:37:15Z</time>
      </trkpt>
      <trkpt lat="48.82686" lon="1.74366">
        <ele>120.2</ele>
        <time>2023-12-20T11:37:16Z</time>
      </trkpt>
      <trkpt lat="48.82685" lon="1.74379">
        <ele>120.2</ele>
        <time>2023-12-20T11:37:17Z</time>
      </trkpt>
      <trkpt lat="48.82684" lon="1.74391">
        <ele>120.2</ele>
        <time>2023-12-20T11:37:18Z</time>
      </trkpt>
      <trkpt lat="48.82682" lon="1.74404">
        <ele>119.4</ele>
        <time>2023-12-20T11:37:19Z</time>
      </trkpt>
      <trkpt lat="48.82681" lon="1.74417">
        <ele>119.4</ele>
        <time>2023-12-20T11:37:20Z</time>
      </trkpt>
      <trkpt lat="48.8268" lon="1.7443">
        <ele>119.4</ele>
        <time>2023-12-20T11:37:21Z</time>
      </trkpt>
      <trkpt lat="48.82678" lon="1.74442">
        <ele>118.4</ele>
        <time>2023-12-20T11:37:22Z</time>
      </trkpt>
      <trkpt lat="48.82676" lon="1.74455">
        <ele>117.8</ele>
        <time>2023-12-20T11:37:23Z</time>
      </trkpt>
      <trkpt lat="48.82674" lon="1.74468">
        <ele>117.8</ele>
        <time>2023-12-20T11:37:24Z</time>
      </trkpt>
      <trkpt lat="48.82672" lon="1.7448">
        <ele>117.8</ele>
        <time>2023-12-20T11:37:25Z</time>
      </trkpt>
      <trkpt lat="48.82668" lon="1.74493">
        <ele>116.8</ele>
        <time>2023-12-20T11:37:26Z</time>
      </trkpt>
      <trkpt lat="48.82664" lon="1.74505">
        <ele>115.2</ele>
        <time>2023-12-20T11:37:27Z</time>
      </trkpt>
      <trkpt lat="48.8266" lon="1.74516">
        <ele>115.2</ele>
        <time>2023-12-20T11:37:28Z</time>
      </trkpt>
      <trkpt lat="48.82654" lon="1.74527">
        <ele>115.2</ele>
        <time>2023-12-20T11:37:29Z</time>
      </trkpt>
      <trkpt lat="48.82648" lon="1.74537">
        <ele>114.4</ele>
        <time>2023-12-20T11:37:30Z</time>
      </trkpt>
      <trkpt lat="48.82642" lon="1.74548">
        <ele>114.4</ele>
        <time>2023-12-20T11:37:31Z</time>
      </trkpt>
      <trkpt lat="48.82635" lon="1.74557">
        <ele>114.4</ele>
        <time>2023-12-20T11:37:32Z</time>
      </trkpt>
      <trkpt lat="48.82629" lon="1.74567">
        <ele>114.4</ele>
        <time>2023-12-20T11:37:33Z</time>
      </trkpt>
      <trkpt lat="48.82622" lon="1.74576">
        <ele>113.6</ele>
        <time>2023-12-20T11:37:34Z</time>
      </trkpt>
      <trkpt lat="48.82615" lon="1.74586">
        <ele>113</ele>
        <time>2023-12-20T11:37:35Z</time>
      </trkpt>
      <trkpt lat="48.82609" lon="1.74595">
        <ele>113</ele>
        <time>2023-12-20T11:37:36Z</time>
      </trkpt>
      <trkpt lat="48.82602" lon="1.74604">
        <ele>113</ele>
        <time>2023-12-20T11:37:37Z</time>
      </trkpt>
      <trkpt lat="48.82595" lon="1.74613">
        <ele>112.4</ele>
        <time>2023-12-20T11:37:38Z</time>
      </trkpt>
      <trkpt lat="48.82589" lon="1.74623">
        <ele>112.6</ele>
        <time>2023-12-20T11:37:39Z</time>
      </trkpt>
      <trkpt lat="48.82583" lon="1.74632">
        <ele>112.6</ele>
        <time>2023-12-20T11:37:40Z</time>
      </trkpt>
      <trkpt lat="48.82577" lon="1.74643">
        <ele>112.6</ele>
        <time>2023-12-20T11:37:41Z</time>
      </trkpt>
      <trkpt lat="48.82572" lon="1.74653">
        <ele>111.6</ele>
        <time>2023-12-20T11:37:42Z</time>
      </trkpt>
      <trkpt lat="48.82567" lon="1.74665">
        <ele>110.4</ele>
        <time>2023-12-20T11:37:43Z</time>
      </trkpt>
      <trkpt lat="48.82563" lon="1.74676">
        <ele>110.4</ele>
        <time>2023-12-20T11:37:44Z</time>
      </trkpt>
      <trkpt lat="48.8256" lon="1.74689">
        <ele>110.4</ele>
        <time>2023-12-20T11:37:45Z</time>
      </trkpt>
      <trkpt lat="48.82557" lon="1.74701">
        <ele>110.2</ele>
        <time>2023-12-20T11:37:46Z</time>
      </trkpt>
      <trkpt lat="48.82555" lon="1.74714">
        <ele>109.8</ele>
        <time>2023-12-20T11:37:47Z</time>
      </trkpt>
      <trkpt lat="48.82553" lon="1.74727">
        <ele>109.8</ele>
        <time>2023-12-20T11:37:48Z</time>
      </trkpt>
      <trkpt lat="48.82551" lon="1.7474">
        <ele>109.8</ele>
        <time>2023-12-20T11:37:49Z</time>
      </trkpt>
      <trkpt lat="48.8255" lon="1.74753">
        <ele>109.8</ele>
        <time>2023-12-20T11:37:50Z</time>
      </trkpt>
      <trkpt lat="48.82548" lon="1.74766">
        <ele>108.4</ele>
        <time>2023-12-20T11:37:51Z</time>
      </trkpt>
      <trkpt lat="48.82547" lon="1.74779">
        <ele>108.4</ele>
        <time>2023-12-20T11:37:52Z</time>
      </trkpt>
      <trkpt lat="48.82544" lon="1.74791">
        <ele>108.4</ele>
        <time>2023-12-20T11:37:53Z</time>
      </trkpt>
      <trkpt lat="48.82541" lon="1.74804">
        <ele>107.4</ele>
        <time>2023-12-20T11:37:54Z</time>
      </trkpt>
      <trkpt lat="48.82538" lon="1.74816">
        <ele>106.6</ele>
        <time>2023-12-20T11:37:55Z</time>
      </trkpt>
      <trkpt lat="48.82534" lon="1.74828">
        <ele>106.6</ele>
        <time>2023-12-20T11:37:56Z</time>
      </trkpt>
      <trkpt lat="48.82529" lon="1.74839">
        <ele>106.6</ele>
        <time>2023-12-20T11:37:57Z</time>
      </trkpt>
      <trkpt lat="48.82524" lon="1.74849">
        <ele>106.6</ele>
        <time>2023-12-20T11:37:58Z</time>
      </trkpt>
      <trkpt lat="48.82519" lon="1.74859">
        <ele>106</ele>
        <time>2023-12-20T11:37:59Z</time>
      </trkpt>
      <trkpt lat="48.82513" lon="1.74868">
        <ele>106</ele>
        <time>2023-12-20T11:38:00Z</time>
      </trkpt>
      <trkpt lat="48.82507" lon="1.74878">
        <ele>106</ele>
        <time>2023-12-20T11:38:01Z</time>
      </trkpt>
      <trkpt lat="48.82501" lon="1.74888">
        <ele>105</ele>
        <time>2023-12-20T11:38:02Z</time>
      </trkpt>
      <trkpt lat="48.82495" lon="1.74897">
        <ele>104</ele>
        <time>2023-12-20T11:38:03Z</time>
      </trkpt>
      <trkpt lat="48.82488" lon="1.74907">
        <ele>104</ele>
        <time>2023-12-20T11:38:04Z</time>
      </trkpt>
      <trkpt lat="48.82482" lon="1.74917">
        <ele>104</ele>
        <time>2023-12-20T11:38:05Z</time>
      </trkpt>
      <trkpt lat="48.82476" lon="1.74927">
        <ele>103</ele>
        <time>2023-12-20T11:38:06Z</time>
      </trkpt>
      <trkpt lat="48.8247" lon="1.74938">
        <ele>103.2</ele>
        <time>2023-12-20T11:38:07Z</time>
      </trkpt>
      <trkpt lat="48.82464" lon="1.74948">
        <ele>103.2</ele>
        <time>2023-12-20T11:38:08Z</time>
      </trkpt>
      <trkpt lat="48.82457" lon="1.74958">
        <ele>103.2</ele>
        <time>2023-12-20T11:38:09Z</time>
      </trkpt>
      <trkpt lat="48.82451" lon="1.74968">
        <ele>103.2</ele>
        <time>2023-12-20T11:38:10Z</time>
      </trkpt>
      <trkpt lat="48.82446" lon="1.74979">
        <ele>102.2</ele>
        <time>2023-12-20T11:38:11Z</time>
      </trkpt>
      <trkpt lat="48.82439" lon="1.74989">
        <ele>102.2</ele>
        <time>2023-12-20T11:38:12Z</time>
      </trkpt>
      <trkpt lat="48.82433" lon="1.74998">
        <ele>102.2</ele>
        <time>2023-12-20T11:38:13Z</time>
      </trkpt>
      <trkpt lat="48.82427" lon="1.75008">
        <ele>101.2</ele>
        <time>2023-12-20T11:38:14Z</time>
      </trkpt>
      <trkpt lat="48.8242" lon="1.75016">
        <ele>101.2</ele>
        <time>2023-12-20T11:38:15Z</time>
      </trkpt>
      <trkpt lat="48.82413" lon="1.75024">
        <ele>101.2</ele>
        <time>2023-12-20T11:38:16Z</time>
      </trkpt>
      <trkpt lat="48.82405" lon="1.75032">
        <ele>101.2</ele>
        <time>2023-12-20T11:38:17Z</time>
      </trkpt>
      <trkpt lat="48.82398" lon="1.75039">
        <ele>101.2</ele>
        <time>2023-12-20T11:38:18Z</time>
      </trkpt>
      <trkpt lat="48.8239" lon="1.75045">
        <ele>100.8</ele>
        <time>2023-12-20T11:38:19Z</time>
      </trkpt>
      <trkpt lat="48.82382" lon="1.7505">
        <ele>100.8</ele>
        <time>2023-12-20T11:38:20Z</time>
      </trkpt>
      <trkpt lat="48.82374" lon="1.75054">
        <ele>100.8</ele>
        <time>2023-12-20T11:38:21Z</time>
      </trkpt>
      <trkpt lat="48.82367" lon="1.75058">
        <ele>101.8</ele>
        <time>2023-12-20T11:38:22Z</time>
      </trkpt>
      <trkpt lat="48.82359" lon="1.75062">
        <ele>102.6</ele>
        <time>2023-12-20T11:38:23Z</time>
      </trkpt>
      <trkpt lat="48.82353" lon="1.75066">
        <ele>102.6</ele>
        <time>2023-12-20T11:38:24Z</time>
      </trkpt>
      <trkpt lat="48.82346" lon="1.75069">
        <ele>102.6</ele>
        <time>2023-12-20T11:38:25Z</time>
      </trkpt>
      <trkpt lat="48.82339" lon="1.75072">
        <ele>102.4</ele>
        <time>2023-12-20T11:38:26Z</time>
      </trkpt>
      <trkpt lat="48.82333" lon="1.75074">
        <ele>102.2</ele>
        <time>2023-12-20T11:38:27Z</time>
      </trkpt>
      <trkpt lat="48.82326" lon="1.75077">
        <ele>102.2</ele>
        <time>2023-12-20T11:38:28Z</time>
      </trkpt>
      <trkpt lat="48.82319" lon="1.75081">
        <ele>102.2</ele>
        <time>2023-12-20T11:38:29Z</time>
      </trkpt>
      <trkpt lat="48.82313" lon="1.75083">
        <ele>102.2</ele>
        <time>2023-12-20T11:38:30Z</time>
      </trkpt>
      <trkpt lat="48.82306" lon="1.75086">
        <ele>100</ele>
        <time>2023-12-20T11:38:31Z</time>
      </trkpt>
      <trkpt lat="48.82299" lon="1.75089">
        <ele>100</ele>
        <time>2023-12-20T11:38:32Z</time>
      </trkpt>
      <trkpt lat="48.82293" lon="1.75093">
        <ele>100</ele>
        <time>2023-12-20T11:38:33Z</time>
      </trkpt>
      <trkpt lat="48.82286" lon="1.75096">
        <ele>101</ele>
        <time>2023-12-20T11:38:34Z</time>
      </trkpt>
      <trkpt lat="48.8228" lon="1.75099">
        <ele>101.8</ele>
        <time>2023-12-20T11:38:35Z</time>
      </trkpt>
      <trkpt lat="48.82273" lon="1.75102">
        <ele>101.8</ele>
        <time>2023-12-20T11:38:36Z</time>
      </trkpt>
      <trkpt lat="48.82267" lon="1.75105">
        <ele>101.8</ele>
        <time>2023-12-20T11:38:37Z</time>
      </trkpt>
      <trkpt lat="48.82261" lon="1.75108">
        <ele>101.8</ele>
        <time>2023-12-20T11:38:38Z</time>
      </trkpt>
      <trkpt lat="48.82255" lon="1.7511">
        <ele>102</ele>
        <time>2023-12-20T11:38:39Z</time>
      </trkpt>
      <trkpt lat="48.82249" lon="1.75113">
        <ele>102</ele>
        <time>2023-12-20T11:38:40Z</time>
      </trkpt>
      <trkpt lat="48.82243" lon="1.75116">
        <ele>102</ele>
        <time>2023-12-20T11:38:41Z</time>
      </trkpt>
      <trkpt lat="48.82236" lon="1.75119">
        <ele>102</ele>
        <time>2023-12-20T11:38:42Z</time>
      </trkpt>
      <trkpt lat="48.8223" lon="1.75122">
        <ele>101.4</ele>
        <time>2023-12-20T11:38:43Z</time>
      </trkpt>
      <trkpt lat="48.82223" lon="1.75125">
        <ele>101.4</ele>
        <time>2023-12-20T11:38:44Z</time>
      </trkpt>
      <trkpt lat="48.82217" lon="1.75128">
        <ele>101.4</ele>
        <time>2023-12-20T11:38:45Z</time>
      </trkpt>
      <trkpt lat="48.82211" lon="1.7513">
        <ele>101.6</ele>
        <time>2023-12-20T11:38:46Z</time>
      </trkpt>
      <trkpt lat="48.82205" lon="1.75133">
        <ele>101.8</ele>
        <time>2023-12-20T11:38:47Z</time>
      </trkpt>
      <trkpt lat="48.82199" lon="1.75136">
        <ele>101.8</ele>
        <time>2023-12-20T11:38:48Z</time>
      </trkpt>
      <trkpt lat="48.82193" lon="1.75138">
        <ele>101.8</ele>
        <time>2023-12-20T11:38:49Z</time>
      </trkpt>
      <trkpt lat="48.82187" lon="1.75141">
        <ele>102.4</ele>
        <time>2023-12-20T11:38:50Z</time>
      </trkpt>
      <trkpt lat="48.82181" lon="1.75144">
        <ele>102.6</ele>
        <time>2023-12-20T11:38:51Z</time>
      </trkpt>
      <trkpt lat="48.82175" lon="1.75147">
        <ele>102.6</ele>
        <time>2023-12-20T11:38:52Z</time>
      </trkpt>
      <trkpt lat="48.82169" lon="1.75149">
        <ele>102.6</ele>
        <time>2023-12-20T11:38:53Z</time>
      </trkpt>
      <trkpt lat="48.82164" lon="1.75152">
        <ele>101.6</ele>
        <time>2023-12-20T11:38:54Z</time>
      </trkpt>
      <trkpt lat="48.82158" lon="1.75155">
        <ele>102.4</ele>
        <time>2023-12-20T11:38:55Z</time>
      </trkpt>
      <trkpt lat="48.82152" lon="1.75158">
        <ele>102.4</ele>
        <time>2023-12-20T11:38:56Z</time>
      </trkpt>
      <trkpt lat="48.82146" lon="1.75161">
        <ele>102.4</ele>
        <time>2023-12-20T11:38:57Z</time>
      </trkpt>
      <trkpt lat="48.8214" lon="1.75164">
        <ele>103.4</ele>
        <time>2023-12-20T11:38:58Z</time>
      </trkpt>
      <trkpt lat="48.82134" lon="1.75167">
        <ele>103.2</ele>
        <time>2023-12-20T11:38:59Z</time>
      </trkpt>
      <trkpt lat="48.82129" lon="1.7517">
        <ele>103.2</ele>
        <time>2023-12-20T11:39:00Z</time>
      </trkpt>
      <trkpt lat="48.82123" lon="1.75173">
        <ele>103.2</ele>
        <time>2023-12-20T11:39:01Z</time>
      </trkpt>
      <trkpt lat="48.82118" lon="1.75175">
        <ele>103.2</ele>
        <time>2023-12-20T11:39:02Z</time>
      </trkpt>
      <trkpt lat="48.82112" lon="1.75177">
        <ele>104</ele>
        <time>2023-12-20T11:39:03Z</time>
      </trkpt>
      <trkpt lat="48.82106" lon="1.75179">
        <ele>104</ele>
        <time>2023-12-20T11:39:04Z</time>
      </trkpt>
      <trkpt lat="48.821" lon="1.75181">
        <ele>104</ele>
        <time>2023-12-20T11:39:05Z</time>
      </trkpt>
      <trkpt lat="48.82094" lon="1.75184">
        <ele>104</ele>
        <time>2023-12-20T11:39:06Z</time>
      </trkpt>
      <trkpt lat="48.82089" lon="1.75186">
        <ele>104</ele>
        <time>2023-12-20T11:39:07Z</time>
      </trkpt>
      <trkpt lat="48.82083" lon="1.75188">
        <ele>104</ele>
        <time>2023-12-20T11:39:08Z</time>
      </trkpt>
      <trkpt lat="48.82077" lon="1.75191">
        <ele>104</ele>
        <time>2023-12-20T11:39:09Z</time>
      </trkpt>
      <trkpt lat="48.82072" lon="1.75193">
        <ele>104</ele>
        <time>2023-12-20T11:39:10Z</time>
      </trkpt>
      <trkpt lat="48.82066" lon="1.75196">
        <ele>104.2</ele>
        <time>2023-12-20T11:39:11Z</time>
      </trkpt>
      <trkpt lat="48.8206" lon="1.75198">
        <ele>104.2</ele>
        <time>2023-12-20T11:39:12Z</time>
      </trkpt>
      <trkpt lat="48.82055" lon="1.75201">
        <ele>104.2</ele>
        <time>2023-12-20T11:39:13Z</time>
      </trkpt>
      <trkpt lat="48.8205" lon="1.75203">
        <ele>104.8</ele>
        <time>2023-12-20T11:39:14Z</time>
      </trkpt>
      <trkpt lat="48.82045" lon="1.75205">
        <ele>105.2</ele>
        <time>2023-12-20T11:39:15Z</time>
      </trkpt>
      <trkpt lat="48.82039" lon="1.75208">
        <ele>105.2</ele>
        <time>2023-12-20T11:39:16Z</time>
      </trkpt>
      <trkpt lat="48.82034" lon="1.7521">
        <ele>105.2</ele>
        <time>2023-12-20T11:39:17Z</time>
      </trkpt>
      <trkpt lat="48.8203" lon="1.75212">
        <ele>106.2</ele>
        <time>2023-12-20T11:39:18Z</time>
      </trkpt>
      <trkpt lat="48.82026" lon="1.75215">
        <ele>106.2</ele>
        <time>2023-12-20T11:39:19Z</time>
      </trkpt>
      <trkpt lat="48.82022" lon="1.7522">
        <ele>106.2</ele>
        <time>2023-12-20T11:39:20Z</time>
      </trkpt>
      <trkpt lat="48.8202" lon="1.75227">
        <ele>106.2</ele>
        <time>2023-12-20T11:39:21Z</time>
      </trkpt>
      <trkpt lat="48.82021" lon="1.75234">
        <ele>106.2</ele>
        <time>2023-12-20T11:39:22Z</time>
      </trkpt>
      <trkpt lat="48.82022" lon="1.75241">
        <ele>106.6</ele>
        <time>2023-12-20T11:39:23Z</time>
      </trkpt>
      <trkpt lat="48.82022" lon="1.75245">
        <ele>106.6</ele>
        <time>2023-12-20T11:39:24Z</time>
      </trkpt>
      <trkpt lat="48.82023" lon="1.75248">
        <ele>106.6</ele>
        <time>2023-12-20T11:39:25Z</time>
      </trkpt>
      <trkpt lat="48.82024" lon="1.75252">
        <ele>106.6</ele>
        <time>2023-12-20T11:39:26Z</time>
      </trkpt>
      <trkpt lat="48.82025" lon="1.75256">
        <ele>106</ele>
        <time>2023-12-20T11:39:27Z</time>
      </trkpt>
      <trkpt lat="48.82027" lon="1.7526">
        <ele>106</ele>
        <time>2023-12-20T11:39:28Z</time>
      </trkpt>
      <trkpt lat="48.82028" lon="1.75266">
        <ele>106</ele>
        <time>2023-12-20T11:39:29Z</time>
      </trkpt>
      <trkpt lat="48.82029" lon="1.75272">
        <ele>106</ele>
        <time>2023-12-20T11:39:30Z</time>
      </trkpt>
      <trkpt lat="48.8203" lon="1.7528">
        <ele>106.2</ele>
        <time>2023-12-20T11:39:31Z</time>
      </trkpt>
      <trkpt lat="48.82032" lon="1.75288">
        <ele>106.2</ele>
        <time>2023-12-20T11:39:32Z</time>
      </trkpt>
      <trkpt lat="48.82033" lon="1.75297">
        <ele>106.2</ele>
        <time>2023-12-20T11:39:33Z</time>
      </trkpt>
      <trkpt lat="48.82034" lon="1.75305">
        <ele>106.2</ele>
        <time>2023-12-20T11:39:34Z</time>
      </trkpt>
      <trkpt lat="48.82035" lon="1.75314">
        <ele>105.8</ele>
        <time>2023-12-20T11:39:35Z</time>
      </trkpt>
      <trkpt lat="48.82036" lon="1.75323">
        <ele>105.8</ele>
        <time>2023-12-20T11:39:36Z</time>
      </trkpt>
      <trkpt lat="48.82038" lon="1.75332">
        <ele>105.8</ele>
        <time>2023-12-20T11:39:37Z</time>
      </trkpt>
      <trkpt lat="48.82039" lon="1.75341">
        <ele>105.8</ele>
        <time>2023-12-20T11:39:38Z</time>
      </trkpt>
      <trkpt lat="48.8204" lon="1.7535">
        <ele>105.6</ele>
        <time>2023-12-20T11:39:39Z</time>
      </trkpt>
      <trkpt lat="48.82042" lon="1.75359">
        <ele>105.6</ele>
        <time>2023-12-20T11:39:40Z</time>
      </trkpt>
      <trkpt lat="48.82043" lon="1.75367">
        <ele>105.6</ele>
        <time>2023-12-20T11:39:41Z</time>
      </trkpt>
      <trkpt lat="48.82045" lon="1.75376">
        <ele>105.6</ele>
        <time>2023-12-20T11:39:42Z</time>
      </trkpt>
      <trkpt lat="48.82046" lon="1.75384">
        <ele>106</ele>
        <time>2023-12-20T11:39:43Z</time>
      </trkpt>
      <trkpt lat="48.82048" lon="1.75392">
        <ele>106</ele>
        <time>2023-12-20T11:39:44Z</time>
      </trkpt>
      <trkpt lat="48.82048" lon="1.75396">
        <ele>106</ele>
        <time>2023-12-20T11:39:45Z</time>
      </trkpt>
      <trkpt lat="48.82047" lon="1.754">
        <ele>106.4</ele>
        <time>2023-12-20T11:39:46Z</time>
      </trkpt>
      <trkpt lat="48.82046" lon="1.75401">
        <ele>105.8</ele>
        <time>2023-12-20T11:39:47Z</time>
      </trkpt>
      <trkpt lat="48.82043" lon="1.754">
        <ele>105.8</ele>
        <time>2023-12-20T11:39:48Z</time>
      </trkpt>
      <trkpt lat="48.8204" lon="1.75399">
        <ele>105.8</ele>
        <time>2023-12-20T11:39:49Z</time>
      </trkpt>
      <trkpt lat="48.82037" lon="1.75398">
        <ele>105.8</ele>
        <time>2023-12-20T11:39:50Z</time>
      </trkpt>
      <trkpt lat="48.82033" lon="1.75397">
        <ele>106</ele>
        <time>2023-12-20T11:39:51Z</time>
      </trkpt>
      <trkpt lat="48.82029" lon="1.75396">
        <ele>106</ele>
        <time>2023-12-20T11:39:52Z</time>
      </trkpt>
      <trkpt lat="48.82024" lon="1.75395">
        <ele>106</ele>
        <time>2023-12-20T11:39:53Z</time>
      </trkpt>
      <trkpt lat="48.82019" lon="1.75394">
        <ele>105.6</ele>
        <time>2023-12-20T11:39:54Z</time>
      </trkpt>
      <trkpt lat="48.82014" lon="1.75392">
        <ele>105.6</ele>
        <time>2023-12-20T11:39:55Z</time>
      </trkpt>
      <trkpt lat="48.82009" lon="1.75391">
        <ele>105.6</ele>
        <time>2023-12-20T11:39:56Z</time>
      </trkpt>
      <trkpt lat="48.82005" lon="1.75389">
        <ele>105.6</ele>
        <time>2023-12-20T11:39:57Z</time>
      </trkpt>
      <trkpt lat="48.82" lon="1.75388">
        <ele>104.6</ele>
        <time>2023-12-20T11:39:58Z</time>
      </trkpt>
      <trkpt lat="48.81995" lon="1.75387">
        <ele>104.6</ele>
        <time>2023-12-20T11:39:59Z</time>
      </trkpt>
      <trkpt lat="48.8199" lon="1.75385">
        <ele>104.6</ele>
        <time>2023-12-20T11:40:00Z</time>
      </trkpt>
      <trkpt lat="48.81985" lon="1.75383">
        <ele>104.6</ele>
        <time>2023-12-20T11:40:01Z</time>
      </trkpt>
      <trkpt lat="48.8198" lon="1.75381">
        <ele>105.4</ele>
        <time>2023-12-20T11:40:02Z</time>
      </trkpt>
      <trkpt lat="48.81975" lon="1.75379">
        <ele>104.8</ele>
        <time>2023-12-20T11:40:03Z</time>
      </trkpt>
      <trkpt lat="48.8197" lon="1.75376">
        <ele>104.8</ele>
        <time>2023-12-20T11:40:04Z</time>
      </trkpt>
      <trkpt lat="48.81965" lon="1.75373">
        <ele>104.8</ele>
        <time>2023-12-20T11:40:05Z</time>
      </trkpt>
      <trkpt lat="48.8196" lon="1.7537">
        <ele>104.8</ele>
        <time>2023-12-20T11:40:06Z</time>
      </trkpt>
      <trkpt lat="48.81955" lon="1.75367">
        <ele>104.8</ele>
        <time>2023-12-20T11:40:07Z</time>
      </trkpt>
      <trkpt lat="48.8195" lon="1.75364">
        <ele>104.8</ele>
        <time>2023-12-20T11:40:08Z</time>
      </trkpt>
      <trkpt lat="48.81945" lon="1.75361">
        <ele>104.8</ele>
        <time>2023-12-20T11:40:09Z</time>
      </trkpt>
      <trkpt lat="48.8194" lon="1.75358">
        <ele>104.8</ele>
        <time>2023-12-20T11:40:10Z</time>
      </trkpt>
      <trkpt lat="48.81936" lon="1.75355">
        <ele>105.2</ele>
        <time>2023-12-20T11:40:11Z</time>
      </trkpt>
      <trkpt lat="48.81931" lon="1.75351">
        <ele>105.2</ele>
        <time>2023-12-20T11:40:12Z</time>
      </trkpt>
      <trkpt lat="48.81926" lon="1.75348">
        <ele>105.2</ele>
        <time>2023-12-20T11:40:13Z</time>
      </trkpt>
      <trkpt lat="48.81921" lon="1.75344">
        <ele>105.2</ele>
        <time>2023-12-20T11:40:14Z</time>
      </trkpt>
      <trkpt lat="48.81917" lon="1.7534">
        <ele>105.8</ele>
        <time>2023-12-20T11:40:15Z</time>
      </trkpt>
      <trkpt lat="48.81912" lon="1.75336">
        <ele>105.8</ele>
        <time>2023-12-20T11:40:16Z</time>
      </trkpt>
      <trkpt lat="48.81908" lon="1.75332">
        <ele>105.8</ele>
        <time>2023-12-20T11:40:17Z</time>
      </trkpt>
      <trkpt lat="48.81904" lon="1.75328">
        <ele>105.8</ele>
        <time>2023-12-20T11:40:18Z</time>
      </trkpt>
      <trkpt lat="48.819" lon="1.75324">
        <ele>106.2</ele>
        <time>2023-12-20T11:40:19Z</time>
      </trkpt>
      <trkpt lat="48.81896" lon="1.75321">
        <ele>106.2</ele>
        <time>2023-12-20T11:40:20Z</time>
      </trkpt>
      <trkpt lat="48.81892" lon="1.75318">
        <ele>106.2</ele>
        <time>2023-12-20T11:40:21Z</time>
      </trkpt>
      <trkpt lat="48.81889" lon="1.75317">
        <ele>107.2</ele>
        <time>2023-12-20T11:40:22Z</time>
      </trkpt>
      <trkpt lat="48.81886" lon="1.75319">
        <ele>107.6</ele>
        <time>2023-12-20T11:40:23Z</time>
      </trkpt>
      <trkpt lat="48.81884" lon="1.75323">
        <ele>107.6</ele>
        <time>2023-12-20T11:40:24Z</time>
      </trkpt>
      <trkpt lat="48.81883" lon="1.75326">
        <ele>107.6</ele>
        <time>2023-12-20T11:40:25Z</time>
      </trkpt>
      <trkpt lat="48.81881" lon="1.7533">
        <ele>107.6</ele>
        <time>2023-12-20T11:40:26Z</time>
      </trkpt>
      <trkpt lat="48.81879" lon="1.75335">
        <ele>107.8</ele>
        <time>2023-12-20T11:40:27Z</time>
      </trkpt>
      <trkpt lat="48.81877" lon="1.75342">
        <ele>107.8</ele>
        <time>2023-12-20T11:40:28Z</time>
      </trkpt>
      <trkpt lat="48.81874" lon="1.75349">
        <ele>107.8</ele>
        <time>2023-12-20T11:40:29Z</time>
      </trkpt>
      <trkpt lat="48.81871" lon="1.75355">
        <ele>107.8</ele>
        <time>2023-12-20T11:40:30Z</time>
      </trkpt>
      <trkpt lat="48.81868" lon="1.75361">
        <ele>107.8</ele>
        <time>2023-12-20T11:40:31Z</time>
      </trkpt>
      <trkpt lat="48.81865" lon="1.75367">
        <ele>107.8</ele>
        <time>2023-12-20T11:40:32Z</time>
      </trkpt>
      <trkpt lat="48.81861" lon="1.75373">
        <ele>107.8</ele>
        <time>2023-12-20T11:40:33Z</time>
      </trkpt>
      <trkpt lat="48.81858" lon="1.75379">
        <ele>107.8</ele>
        <time>2023-12-20T11:40:34Z</time>
      </trkpt>
      <trkpt lat="48.81854" lon="1.75384">
        <ele>107.6</ele>
        <time>2023-12-20T11:40:35Z</time>
      </trkpt>
      <trkpt lat="48.8185" lon="1.7539">
        <ele>107.6</ele>
        <time>2023-12-20T11:40:36Z</time>
      </trkpt>
      <trkpt lat="48.81846" lon="1.75397">
        <ele>107.6</ele>
        <time>2023-12-20T11:40:37Z</time>
      </trkpt>
      <trkpt lat="48.81843" lon="1.75403">
        <ele>107.6</ele>
        <time>2023-12-20T11:40:38Z</time>
      </trkpt>
      <trkpt lat="48.81839" lon="1.75408">
        <ele>108</ele>
        <time>2023-12-20T11:40:39Z</time>
      </trkpt>
      <trkpt lat="48.81835" lon="1.75414">
        <ele>108</ele>
        <time>2023-12-20T11:40:40Z</time>
      </trkpt>
      <trkpt lat="48.81831" lon="1.7542">
        <ele>108</ele>
        <time>2023-12-20T11:40:41Z</time>
      </trkpt>
      <trkpt lat="48.81827" lon="1.75426">
        <ele>108</ele>
        <time>2023-12-20T11:40:42Z</time>
      </trkpt>
      <trkpt lat="48.81823" lon="1.75432">
        <ele>108.4</ele>
        <time>2023-12-20T11:40:43Z</time>
      </trkpt>
      <trkpt lat="48.8182" lon="1.75438">
        <ele>108.4</ele>
        <time>2023-12-20T11:40:44Z</time>
      </trkpt>
      <trkpt lat="48.81816" lon="1.75445">
        <ele>108.4</ele>
        <time>2023-12-20T11:40:45Z</time>
      </trkpt>
      <trkpt lat="48.81812" lon="1.75451">
        <ele>108.4</ele>
        <time>2023-12-20T11:40:46Z</time>
      </trkpt>
      <trkpt lat="48.81808" lon="1.75457">
        <ele>108.6</ele>
        <time>2023-12-20T11:40:47Z</time>
      </trkpt>
      <trkpt lat="48.81805" lon="1.75463">
        <ele>108.6</ele>
        <time>2023-12-20T11:40:48Z</time>
      </trkpt>
      <trkpt lat="48.81801" lon="1.75469">
        <ele>108.6</ele>
        <time>2023-12-20T11:40:49Z</time>
      </trkpt>
      <trkpt lat="48.81798" lon="1.75475">
        <ele>109</ele>
        <time>2023-12-20T11:40:50Z</time>
      </trkpt>
      <trkpt lat="48.81794" lon="1.75482">
        <ele>109.6</ele>
        <time>2023-12-20T11:40:51Z</time>
      </trkpt>
      <trkpt lat="48.81791" lon="1.75488">
        <ele>109.6</ele>
        <time>2023-12-20T11:40:52Z</time>
      </trkpt>
      <trkpt lat="48.81788" lon="1.75494">
        <ele>109.6</ele>
        <time>2023-12-20T11:40:53Z</time>
      </trkpt>
      <trkpt lat="48.81785" lon="1.755">
        <ele>109.6</ele>
        <time>2023-12-20T11:40:54Z</time>
      </trkpt>
      <trkpt lat="48.81782" lon="1.75504">
        <ele>109.4</ele>
        <time>2023-12-20T11:40:55Z</time>
      </trkpt>
      <trkpt lat="48.81778" lon="1.75509">
        <ele>109.4</ele>
        <time>2023-12-20T11:40:56Z</time>
      </trkpt>
      <trkpt lat="48.81775" lon="1.75512">
        <ele>109.4</ele>
        <time>2023-12-20T11:40:57Z</time>
      </trkpt>
      <trkpt lat="48.81773" lon="1.75515">
        <ele>109.8</ele>
        <time>2023-12-20T11:40:58Z</time>
      </trkpt>
      <trkpt lat="48.81771" lon="1.75516">
        <ele>110.4</ele>
        <time>2023-12-20T11:40:59Z</time>
      </trkpt>
      <trkpt lat="48.81769" lon="1.75518">
        <ele>110.4</ele>
        <time>2023-12-20T11:41:00Z</time>
      </trkpt>
      <trkpt lat="48.81768" lon="1.75519">
        <ele>110.4</ele>
        <time>2023-12-20T11:41:01Z</time>
      </trkpt>
      <trkpt lat="48.81767" lon="1.7552">
        <ele>110.4</ele>
        <time>2023-12-20T11:41:02Z</time>
      </trkpt>
      <trkpt lat="48.81766" lon="1.7552">
        <ele>110.8</ele>
        <time>2023-12-20T11:41:03Z</time>
      </trkpt>
      <trkpt lat="48.81765" lon="1.75521">
        <ele>110.8</ele>
        <time>2023-12-20T11:41:04Z</time>
      </trkpt>
      <trkpt lat="48.81764" lon="1.75525">
        <ele>110.4</ele>
        <time>2023-12-20T11:41:10Z</time>
      </trkpt>
      <trkpt lat="48.81763" lon="1.75528">
        <ele>110.6</ele>
        <time>2023-12-20T11:41:11Z</time>
      </trkpt>
      <trkpt lat="48.81762" lon="1.7553">
        <ele>110.6</ele>
        <time>2023-12-20T11:41:12Z</time>
      </trkpt>
      <trkpt lat="48.8176" lon="1.75532">
        <ele>110.6</ele>
        <time>2023-12-20T11:41:13Z</time>
      </trkpt>
      <trkpt lat="48.81758" lon="1.75534">
        <ele>110</ele>
        <time>2023-12-20T11:41:14Z</time>
      </trkpt>
      <trkpt lat="48.81756" lon="1.75536">
        <ele>109.6</ele>
        <time>2023-12-20T11:41:15Z</time>
      </trkpt>
      <trkpt lat="48.81753" lon="1.75539">
        <ele>109.6</ele>
        <time>2023-12-20T11:41:16Z</time>
      </trkpt>
      <trkpt lat="48.8175" lon="1.75543">
        <ele>109.6</ele>
        <time>2023-12-20T11:41:17Z</time>
      </trkpt>
      <trkpt lat="48.81747" lon="1.75545">
        <ele>110</ele>
        <time>2023-12-20T11:41:18Z</time>
      </trkpt>
      <trkpt lat="48.81743" lon="1.75549">
        <ele>108.6</ele>
        <time>2023-12-20T11:41:19Z</time>
      </trkpt>
      <trkpt lat="48.8174" lon="1.75553">
        <ele>108.6</ele>
        <time>2023-12-20T11:41:20Z</time>
      </trkpt>
      <trkpt lat="48.81738" lon="1.75557">
        <ele>108.6</ele>
        <time>2023-12-20T11:41:21Z</time>
      </trkpt>
      <trkpt lat="48.81735" lon="1.7556">
        <ele>109.6</ele>
        <time>2023-12-20T11:41:22Z</time>
      </trkpt>
      <trkpt lat="48.81732" lon="1.75564">
        <ele>110.4</ele>
        <time>2023-12-20T11:41:23Z</time>
      </trkpt>
      <trkpt lat="48.81729" lon="1.75569">
        <ele>110.4</ele>
        <time>2023-12-20T11:41:24Z</time>
      </trkpt>
      <trkpt lat="48.81726" lon="1.75573">
        <ele>110.4</ele>
        <time>2023-12-20T11:41:25Z</time>
      </trkpt>
      <trkpt lat="48.81724" lon="1.75578">
        <ele>111.4</ele>
        <time>2023-12-20T11:41:26Z</time>
      </trkpt>
      <trkpt lat="48.81721" lon="1.75583">
        <ele>111.8</ele>
        <time>2023-12-20T11:41:27Z</time>
      </trkpt>
      <trkpt lat="48.81719" lon="1.75589">
        <ele>111.8</ele>
        <time>2023-12-20T11:41:28Z</time>
      </trkpt>
      <trkpt lat="48.81716" lon="1.75596">
        <ele>111.8</ele>
        <time>2023-12-20T11:41:29Z</time>
      </trkpt>
      <trkpt lat="48.81713" lon="1.75601">
        <ele>111.8</ele>
        <time>2023-12-20T11:41:30Z</time>
      </trkpt>
      <trkpt lat="48.8171" lon="1.75607">
        <ele>111.8</ele>
        <time>2023-12-20T11:41:31Z</time>
      </trkpt>
      <trkpt lat="48.81708" lon="1.75612">
        <ele>111.8</ele>
        <time>2023-12-20T11:41:32Z</time>
      </trkpt>
      <trkpt lat="48.81705" lon="1.75618">
        <ele>111.8</ele>
        <time>2023-12-20T11:41:33Z</time>
      </trkpt>
      <trkpt lat="48.81702" lon="1.75623">
        <ele>112.4</ele>
        <time>2023-12-20T11:41:34Z</time>
      </trkpt>
      <trkpt lat="48.817" lon="1.75628">
        <ele>112.6</ele>
        <time>2023-12-20T11:41:35Z</time>
      </trkpt>
      <trkpt lat="48.81697" lon="1.75634">
        <ele>112.6</ele>
        <time>2023-12-20T11:41:36Z</time>
      </trkpt>
      <trkpt lat="48.81694" lon="1.75639">
        <ele>112.6</ele>
        <time>2023-12-20T11:41:37Z</time>
      </trkpt>
      <trkpt lat="48.81692" lon="1.75645">
        <ele>112.8</ele>
        <time>2023-12-20T11:41:38Z</time>
      </trkpt>
      <trkpt lat="48.81689" lon="1.75651">
        <ele>113</ele>
        <time>2023-12-20T11:41:39Z</time>
      </trkpt>
      <trkpt lat="48.81686" lon="1.75656">
        <ele>113</ele>
        <time>2023-12-20T11:41:40Z</time>
      </trkpt>
      <trkpt lat="48.81683" lon="1.75662">
        <ele>113</ele>
        <time>2023-12-20T11:41:41Z</time>
      </trkpt>
      <trkpt lat="48.8168" lon="1.75667">
        <ele>114</ele>
        <time>2023-12-20T11:41:42Z</time>
      </trkpt>
      <trkpt lat="48.81677" lon="1.75673">
        <ele>113.4</ele>
        <time>2023-12-20T11:41:43Z</time>
      </trkpt>
      <trkpt lat="48.81675" lon="1.75679">
        <ele>113.4</ele>
        <time>2023-12-20T11:41:44Z</time>
      </trkpt>
      <trkpt lat="48.81672" lon="1.75684">
        <ele>113.4</ele>
        <time>2023-12-20T11:41:45Z</time>
      </trkpt>
      <trkpt lat="48.8167" lon="1.75688">
        <ele>114.4</ele>
        <time>2023-12-20T11:41:46Z</time>
      </trkpt>
      <trkpt lat="48.81667" lon="1.75693">
        <ele>115.8</ele>
        <time>2023-12-20T11:41:47Z</time>
      </trkpt>
      <trkpt lat="48.81665" lon="1.75698">
        <ele>115.8</ele>
        <time>2023-12-20T11:41:48Z</time>
      </trkpt>
      <trkpt lat="48.81662" lon="1.75704">
        <ele>115.8</ele>
        <time>2023-12-20T11:41:49Z</time>
      </trkpt>
      <trkpt lat="48.8166" lon="1.75708">
        <ele>116.4</ele>
        <time>2023-12-20T11:41:50Z</time>
      </trkpt>
      <trkpt lat="48.81658" lon="1.75713">
        <ele>116.4</ele>
        <time>2023-12-20T11:41:51Z</time>
      </trkpt>
      <trkpt lat="48.81655" lon="1.75717">
        <ele>116.4</ele>
        <time>2023-12-20T11:41:52Z</time>
      </trkpt>
      <trkpt lat="48.81653" lon="1.75722">
        <ele>116.4</ele>
        <time>2023-12-20T11:41:53Z</time>
      </trkpt>
      <trkpt lat="48.81651" lon="1.75727">
        <ele>117.4</ele>
        <time>2023-12-20T11:41:54Z</time>
      </trkpt>
      <trkpt lat="48.81648" lon="1.75731">
        <ele>117.2</ele>
        <time>2023-12-20T11:41:55Z</time>
      </trkpt>
      <trkpt lat="48.81646" lon="1.75736">
        <ele>117.2</ele>
        <time>2023-12-20T11:41:56Z</time>
      </trkpt>
      <trkpt lat="48.81644" lon="1.75741">
        <ele>117.2</ele>
        <time>2023-12-20T11:41:57Z</time>
      </trkpt>
      <trkpt lat="48.81642" lon="1.75746">
        <ele>117.2</ele>
        <time>2023-12-20T11:41:58Z</time>
      </trkpt>
      <trkpt lat="48.8164" lon="1.75751">
        <ele>117.8</ele>
        <time>2023-12-20T11:41:59Z</time>
      </trkpt>
      <trkpt lat="48.81638" lon="1.75756">
        <ele>117.8</ele>
        <time>2023-12-20T11:42:00Z</time>
      </trkpt>
      <trkpt lat="48.81636" lon="1.75759">
        <ele>117.8</ele>
        <time>2023-12-20T11:42:01Z</time>
      </trkpt>
      <trkpt lat="48.81634" lon="1.75763">
        <ele>117.8</ele>
        <time>2023-12-20T11:42:02Z</time>
      </trkpt>
      <trkpt lat="48.81632" lon="1.75766">
        <ele>118.6</ele>
        <time>2023-12-20T11:42:03Z</time>
      </trkpt>
      <trkpt lat="48.81629" lon="1.7577">
        <ele>118.6</ele>
        <time>2023-12-20T11:42:04Z</time>
      </trkpt>
      <trkpt lat="48.81626" lon="1.75774">
        <ele>118.6</ele>
        <time>2023-12-20T11:42:05Z</time>
      </trkpt>
      <trkpt lat="48.81624" lon="1.75779">
        <ele>119.6</ele>
        <time>2023-12-20T11:42:06Z</time>
      </trkpt>
      <trkpt lat="48.81622" lon="1.75784">
        <ele>119.6</ele>
        <time>2023-12-20T11:42:07Z</time>
      </trkpt>
      <trkpt lat="48.8162" lon="1.75789">
        <ele>119.6</ele>
        <time>2023-12-20T11:42:08Z</time>
      </trkpt>
      <trkpt lat="48.81618" lon="1.75793">
        <ele>119.6</ele>
        <time>2023-12-20T11:42:09Z</time>
      </trkpt>
      <trkpt lat="48.81616" lon="1.75798">
        <ele>119.6</ele>
        <time>2023-12-20T11:42:10Z</time>
      </trkpt>
      <trkpt lat="48.81614" lon="1.75802">
        <ele>120.2</ele>
        <time>2023-12-20T11:42:11Z</time>
      </trkpt>
      <trkpt lat="48.81612" lon="1.75806">
        <ele>120.2</ele>
        <time>2023-12-20T11:42:12Z</time>
      </trkpt>
      <trkpt lat="48.81611" lon="1.75811">
        <ele>120.2</ele>
        <time>2023-12-20T11:42:13Z</time>
      </trkpt>
      <trkpt lat="48.81609" lon="1.75816">
        <ele>120.6</ele>
        <time>2023-12-20T11:42:14Z</time>
      </trkpt>
      <trkpt lat="48.81607" lon="1.7582">
        <ele>122.4</ele>
        <time>2023-12-20T11:42:15Z</time>
      </trkpt>
      <trkpt lat="48.81606" lon="1.75824">
        <ele>122.4</ele>
        <time>2023-12-20T11:42:16Z</time>
      </trkpt>
      <trkpt lat="48.81604" lon="1.75829">
        <ele>122.4</ele>
        <time>2023-12-20T11:42:17Z</time>
      </trkpt>
      <trkpt lat="48.81602" lon="1.75835">
        <ele>121.8</ele>
        <time>2023-12-20T11:42:18Z</time>
      </trkpt>
      <trkpt lat="48.81601" lon="1.7584">
        <ele>122.2</ele>
        <time>2023-12-20T11:42:19Z</time>
      </trkpt>
      <trkpt lat="48.816" lon="1.75845">
        <ele>122.2</ele>
        <time>2023-12-20T11:42:20Z</time>
      </trkpt>
      <trkpt lat="48.81598" lon="1.75851">
        <ele>122.2</ele>
        <time>2023-12-20T11:42:21Z</time>
      </trkpt>
      <trkpt lat="48.81597" lon="1.75856">
        <ele>123.2</ele>
        <time>2023-12-20T11:42:22Z</time>
      </trkpt>
      <trkpt lat="48.81595" lon="1.75861">
        <ele>122.8</ele>
        <time>2023-12-20T11:42:23Z</time>
      </trkpt>
      <trkpt lat="48.81593" lon="1.75867">
        <ele>122.8</ele>
        <time>2023-12-20T11:42:24Z</time>
      </trkpt>
      <trkpt lat="48.81591" lon="1.75872">
        <ele>122.8</ele>
        <time>2023-12-20T11:42:25Z</time>
      </trkpt>
      <trkpt lat="48.8159" lon="1.75877">
        <ele>122.8</ele>
        <time>2023-12-20T11:42:26Z</time>
      </trkpt>
      <trkpt lat="48.81588" lon="1.75882">
        <ele>124</ele>
        <time>2023-12-20T11:42:27Z</time>
      </trkpt>
      <trkpt lat="48.81585" lon="1.75887">
        <ele>124</ele>
        <time>2023-12-20T11:42:28Z</time>
      </trkpt>
      <trkpt lat="48.81583" lon="1.75892">
        <ele>124</ele>
        <time>2023-12-20T11:42:29Z</time>
      </trkpt>
      <trkpt lat="48.81581" lon="1.75898">
        <ele>123</ele>
        <time>2023-12-20T11:42:30Z</time>
      </trkpt>
      <trkpt lat="48.81579" lon="1.75903">
        <ele>122.8</ele>
        <time>2023-12-20T11:42:31Z</time>
      </trkpt>
      <trkpt lat="48.81577" lon="1.75909">
        <ele>122.8</ele>
        <time>2023-12-20T11:42:32Z</time>
      </trkpt>
      <trkpt lat="48.81575" lon="1.75914">
        <ele>122.8</ele>
        <time>2023-12-20T11:42:33Z</time>
      </trkpt>
      <trkpt lat="48.81573" lon="1.75919">
        <ele>123.2</ele>
        <time>2023-12-20T11:42:34Z</time>
      </trkpt>
      <trkpt lat="48.8157" lon="1.75924">
        <ele>124</ele>
        <time>2023-12-20T11:42:35Z</time>
      </trkpt>
      <trkpt lat="48.81567" lon="1.75929">
        <ele>124</ele>
        <time>2023-12-20T11:42:36Z</time>
      </trkpt>
      <trkpt lat="48.81565" lon="1.75935">
        <ele>124</ele>
        <time>2023-12-20T11:42:37Z</time>
      </trkpt>
      <trkpt lat="48.81563" lon="1.7594">
        <ele>124</ele>
        <time>2023-12-20T11:42:38Z</time>
      </trkpt>
      <trkpt lat="48.8156" lon="1.75945">
        <ele>124.6</ele>
        <time>2023-12-20T11:42:39Z</time>
      </trkpt>
      <trkpt lat="48.81558" lon="1.7595">
        <ele>124.6</ele>
        <time>2023-12-20T11:42:40Z</time>
      </trkpt>
      <trkpt lat="48.81556" lon="1.75955">
        <ele>124.6</ele>
        <time>2023-12-20T11:42:41Z</time>
      </trkpt>
      <trkpt lat="48.81553" lon="1.7596">
        <ele>124.6</ele>
        <time>2023-12-20T11:42:42Z</time>
      </trkpt>
      <trkpt lat="48.8155" lon="1.75965">
        <ele>124.6</ele>
        <time>2023-12-20T11:42:43Z</time>
      </trkpt>
      <trkpt lat="48.81548" lon="1.75969">
        <ele>124.6</ele>
        <time>2023-12-20T11:42:44Z</time>
      </trkpt>
      <trkpt lat="48.81545" lon="1.75975">
        <ele>124.6</ele>
        <time>2023-12-20T11:42:45Z</time>
      </trkpt>
      <trkpt lat="48.81543" lon="1.7598">
        <ele>124.6</ele>
        <time>2023-12-20T11:42:46Z</time>
      </trkpt>
      <trkpt lat="48.8154" lon="1.75985">
        <ele>125.2</ele>
        <time>2023-12-20T11:42:47Z</time>
      </trkpt>
      <trkpt lat="48.81538" lon="1.7599">
        <ele>125.2</ele>
        <time>2023-12-20T11:42:48Z</time>
      </trkpt>
      <trkpt lat="48.81536" lon="1.75996">
        <ele>125.2</ele>
        <time>2023-12-20T11:42:49Z</time>
      </trkpt>
      <trkpt lat="48.81533" lon="1.76001">
        <ele>125.6</ele>
        <time>2023-12-20T11:42:50Z</time>
      </trkpt>
      <trkpt lat="48.81531" lon="1.76007">
        <ele>125.6</ele>
        <time>2023-12-20T11:42:51Z</time>
      </trkpt>
      <trkpt lat="48.81529" lon="1.76012">
        <ele>125.6</ele>
        <time>2023-12-20T11:42:52Z</time>
      </trkpt>
      <trkpt lat="48.81526" lon="1.76017">
        <ele>125.6</ele>
        <time>2023-12-20T11:42:53Z</time>
      </trkpt>
      <trkpt lat="48.81524" lon="1.76022">
        <ele>125.6</ele>
        <time>2023-12-20T11:42:54Z</time>
      </trkpt>
      <trkpt lat="48.81521" lon="1.76027">
        <ele>125.8</ele>
        <time>2023-12-20T11:42:55Z</time>
      </trkpt>
      <trkpt lat="48.81518" lon="1.76032">
        <ele>125.8</ele>
        <time>2023-12-20T11:42:56Z</time>
      </trkpt>
      <trkpt lat="48.81514" lon="1.76036">
        <ele>125.8</ele>
        <time>2023-12-20T11:42:57Z</time>
      </trkpt>
      <trkpt lat="48.8151" lon="1.7604">
        <ele>125.8</ele>
        <time>2023-12-20T11:42:58Z</time>
      </trkpt>
      <trkpt lat="48.81506" lon="1.76045">
        <ele>125.2</ele>
        <time>2023-12-20T11:42:59Z</time>
      </trkpt>
      <trkpt lat="48.81502" lon="1.76049">
        <ele>125.2</ele>
        <time>2023-12-20T11:43:00Z</time>
      </trkpt>
      <trkpt lat="48.81498" lon="1.76053">
        <ele>125.2</ele>
        <time>2023-12-20T11:43:01Z</time>
      </trkpt>
      <trkpt lat="48.81495" lon="1.76057">
        <ele>125.2</ele>
        <time>2023-12-20T11:43:02Z</time>
      </trkpt>
      <trkpt lat="48.81491" lon="1.76061">
        <ele>126.2</ele>
        <time>2023-12-20T11:43:03Z</time>
      </trkpt>
      <trkpt lat="48.81486" lon="1.76066">
        <ele>126.2</ele>
        <time>2023-12-20T11:43:04Z</time>
      </trkpt>
      <trkpt lat="48.81482" lon="1.7607">
        <ele>126.2</ele>
        <time>2023-12-20T11:43:05Z</time>
      </trkpt>
      <trkpt lat="48.81478" lon="1.76074">
        <ele>125.4</ele>
        <time>2023-12-20T11:43:06Z</time>
      </trkpt>
      <trkpt lat="48.81474" lon="1.76078">
        <ele>125</ele>
        <time>2023-12-20T11:43:07Z</time>
      </trkpt>
      <trkpt lat="48.81469" lon="1.76082">
        <ele>125</ele>
        <time>2023-12-20T11:43:08Z</time>
      </trkpt>
      <trkpt lat="48.81465" lon="1.76086">
        <ele>125</ele>
        <time>2023-12-20T11:43:09Z</time>
      </trkpt>
      <trkpt lat="48.81461" lon="1.7609">
        <ele>125</ele>
        <time>2023-12-20T11:43:10Z</time>
      </trkpt>
      <trkpt lat="48.81457" lon="1.76093">
        <ele>125.8</ele>
        <time>2023-12-20T11:43:11Z</time>
      </trkpt>
      <trkpt lat="48.81453" lon="1.76097">
        <ele>125.8</ele>
        <time>2023-12-20T11:43:12Z</time>
      </trkpt>
      <trkpt lat="48.81448" lon="1.76102">
        <ele>125.8</ele>
        <time>2023-12-20T11:43:13Z</time>
      </trkpt>
      <trkpt lat="48.81444" lon="1.76107">
        <ele>125.2</ele>
        <time>2023-12-20T11:43:14Z</time>
      </trkpt>
      <trkpt lat="48.81439" lon="1.76113">
        <ele>124.8</ele>
        <time>2023-12-20T11:43:15Z</time>
      </trkpt>
      <trkpt lat="48.81435" lon="1.76118">
        <ele>124.8</ele>
        <time>2023-12-20T11:43:16Z</time>
      </trkpt>
      <trkpt lat="48.8143" lon="1.76123">
        <ele>124.8</ele>
        <time>2023-12-20T11:43:17Z</time>
      </trkpt>
      <trkpt lat="48.81425" lon="1.76128">
        <ele>124.8</ele>
        <time>2023-12-20T11:43:18Z</time>
      </trkpt>
      <trkpt lat="48.8142" lon="1.76133">
        <ele>125.4</ele>
        <time>2023-12-20T11:43:19Z</time>
      </trkpt>
      <trkpt lat="48.81415" lon="1.76139">
        <ele>125.4</ele>
        <time>2023-12-20T11:43:20Z</time>
      </trkpt>
      <trkpt lat="48.8141" lon="1.76144">
        <ele>125.4</ele>
        <time>2023-12-20T11:43:21Z</time>
      </trkpt>
      <trkpt lat="48.81405" lon="1.76148">
        <ele>124.4</ele>
        <time>2023-12-20T11:43:22Z</time>
      </trkpt>
      <trkpt lat="48.814" lon="1.76153">
        <ele>124.2</ele>
        <time>2023-12-20T11:43:23Z</time>
      </trkpt>
      <trkpt lat="48.81394" lon="1.76159">
        <ele>124.2</ele>
        <time>2023-12-20T11:43:24Z</time>
      </trkpt>
      <trkpt lat="48.81389" lon="1.76164">
        <ele>124.2</ele>
        <time>2023-12-20T11:43:25Z</time>
      </trkpt>
      <trkpt lat="48.81383" lon="1.7617">
        <ele>124.2</ele>
        <time>2023-12-20T11:43:26Z</time>
      </trkpt>
      <trkpt lat="48.81378" lon="1.76174">
        <ele>123.8</ele>
        <time>2023-12-20T11:43:27Z</time>
      </trkpt>
      <trkpt lat="48.81372" lon="1.76179">
        <ele>123.8</ele>
        <time>2023-12-20T11:43:28Z</time>
      </trkpt>
      <trkpt lat="48.81366" lon="1.76183">
        <ele>123.8</ele>
        <time>2023-12-20T11:43:29Z</time>
      </trkpt>
      <trkpt lat="48.81361" lon="1.76187">
        <ele>123.8</ele>
        <time>2023-12-20T11:43:30Z</time>
      </trkpt>
      <trkpt lat="48.81355" lon="1.76191">
        <ele>124.2</ele>
        <time>2023-12-20T11:43:31Z</time>
      </trkpt>
      <trkpt lat="48.81349" lon="1.76195">
        <ele>124.2</ele>
        <time>2023-12-20T11:43:32Z</time>
      </trkpt>
      <trkpt lat="48.81343" lon="1.76198">
        <ele>124.2</ele>
        <time>2023-12-20T11:43:33Z</time>
      </trkpt>
      <trkpt lat="48.81337" lon="1.76201">
        <ele>125</ele>
        <time>2023-12-20T11:43:34Z</time>
      </trkpt>
      <trkpt lat="48.81331" lon="1.76203">
        <ele>124.2</ele>
        <time>2023-12-20T11:43:35Z</time>
      </trkpt>
      <trkpt lat="48.81325" lon="1.76205">
        <ele>124.2</ele>
        <time>2023-12-20T11:43:36Z</time>
      </trkpt>
      <trkpt lat="48.81319" lon="1.76207">
        <ele>124.2</ele>
        <time>2023-12-20T11:43:37Z</time>
      </trkpt>
      <trkpt lat="48.81313" lon="1.76209">
        <ele>124.2</ele>
        <time>2023-12-20T11:43:38Z</time>
      </trkpt>
      <trkpt lat="48.81307" lon="1.76212">
        <ele>124.2</ele>
        <time>2023-12-20T11:43:39Z</time>
      </trkpt>
      <trkpt lat="48.81301" lon="1.76214">
        <ele>124.2</ele>
        <time>2023-12-20T11:43:40Z</time>
      </trkpt>
      <trkpt lat="48.81295" lon="1.76215">
        <ele>124.2</ele>
        <time>2023-12-20T11:43:41Z</time>
      </trkpt>
      <trkpt lat="48.81289" lon="1.76217">
        <ele>124.4</ele>
        <time>2023-12-20T11:43:42Z</time>
      </trkpt>
      <trkpt lat="48.81282" lon="1.7622">
        <ele>124</ele>
        <time>2023-12-20T11:43:43Z</time>
      </trkpt>
      <trkpt lat="48.81276" lon="1.76222">
        <ele>124</ele>
        <time>2023-12-20T11:43:44Z</time>
      </trkpt>
      <trkpt lat="48.8127" lon="1.76223">
        <ele>124</ele>
        <time>2023-12-20T11:43:45Z</time>
      </trkpt>
      <trkpt lat="48.81264" lon="1.76225">
        <ele>124</ele>
        <time>2023-12-20T11:43:46Z</time>
      </trkpt>
      <trkpt lat="48.81257" lon="1.76227">
        <ele>124.2</ele>
        <time>2023-12-20T11:43:47Z</time>
      </trkpt>
      <trkpt lat="48.81251" lon="1.76228">
        <ele>124.2</ele>
        <time>2023-12-20T11:43:48Z</time>
      </trkpt>
      <trkpt lat="48.81245" lon="1.7623">
        <ele>124.2</ele>
        <time>2023-12-20T11:43:49Z</time>
      </trkpt>
      <trkpt lat="48.81238" lon="1.76232">
        <ele>123.2</ele>
        <time>2023-12-20T11:43:50Z</time>
      </trkpt>
      <trkpt lat="48.81232" lon="1.76234">
        <ele>124.2</ele>
        <time>2023-12-20T11:43:51Z</time>
      </trkpt>
      <trkpt lat="48.81226" lon="1.76236">
        <ele>124.2</ele>
        <time>2023-12-20T11:43:52Z</time>
      </trkpt>
      <trkpt lat="48.81221" lon="1.76238">
        <ele>124.2</ele>
        <time>2023-12-20T11:43:53Z</time>
      </trkpt>
      <trkpt lat="48.81215" lon="1.76241">
        <ele>124.6</ele>
        <time>2023-12-20T11:43:54Z</time>
      </trkpt>
      <trkpt lat="48.81209" lon="1.76244">
        <ele>124.8</ele>
        <time>2023-12-20T11:43:55Z</time>
      </trkpt>
      <trkpt lat="48.81203" lon="1.76247">
        <ele>124.8</ele>
        <time>2023-12-20T11:43:56Z</time>
      </trkpt>
      <trkpt lat="48.81198" lon="1.76251">
        <ele>124.8</ele>
        <time>2023-12-20T11:43:57Z</time>
      </trkpt>
      <trkpt lat="48.81192" lon="1.76255">
        <ele>124.8</ele>
        <time>2023-12-20T11:43:58Z</time>
      </trkpt>
      <trkpt lat="48.81187" lon="1.76259">
        <ele>124.2</ele>
        <time>2023-12-20T11:43:59Z</time>
      </trkpt>
      <trkpt lat="48.81181" lon="1.76264">
        <ele>124.2</ele>
        <time>2023-12-20T11:44:00Z</time>
      </trkpt>
      <trkpt lat="48.81176" lon="1.76269">
        <ele>124.2</ele>
        <time>2023-12-20T11:44:01Z</time>
      </trkpt>
      <trkpt lat="48.81171" lon="1.76274">
        <ele>124.2</ele>
        <time>2023-12-20T11:44:02Z</time>
      </trkpt>
      <trkpt lat="48.81166" lon="1.76278">
        <ele>124</ele>
        <time>2023-12-20T11:44:03Z</time>
      </trkpt>
      <trkpt lat="48.81161" lon="1.76283">
        <ele>124</ele>
        <time>2023-12-20T11:44:04Z</time>
      </trkpt>
      <trkpt lat="48.81156" lon="1.76288">
        <ele>124</ele>
        <time>2023-12-20T11:44:05Z</time>
      </trkpt>
      <trkpt lat="48.81152" lon="1.76292">
        <ele>124.2</ele>
        <time>2023-12-20T11:44:06Z</time>
      </trkpt>
      <trkpt lat="48.81146" lon="1.76294">
        <ele>125.4</ele>
        <time>2023-12-20T11:44:07Z</time>
      </trkpt>
      <trkpt lat="48.81141" lon="1.76296">
        <ele>125.4</ele>
        <time>2023-12-20T11:44:08Z</time>
      </trkpt>
      <trkpt lat="48.81137" lon="1.76298">
        <ele>125.4</ele>
        <time>2023-12-20T11:44:09Z</time>
      </trkpt>
      <trkpt lat="48.81133" lon="1.76303">
        <ele>126.4</ele>
        <time>2023-12-20T11:44:10Z</time>
      </trkpt>
      <trkpt lat="48.81131" lon="1.76309">
        <ele>126.2</ele>
        <time>2023-12-20T11:44:11Z</time>
      </trkpt>
      <trkpt lat="48.81129" lon="1.76316">
        <ele>126.2</ele>
        <time>2023-12-20T11:44:12Z</time>
      </trkpt>
      <trkpt lat="48.81127" lon="1.76323">
        <ele>126.2</ele>
        <time>2023-12-20T11:44:13Z</time>
      </trkpt>
      <trkpt lat="48.81124" lon="1.76331">
        <ele>126</ele>
        <time>2023-12-20T11:44:14Z</time>
      </trkpt>
      <trkpt lat="48.81122" lon="1.76338">
        <ele>126.2</ele>
        <time>2023-12-20T11:44:15Z</time>
      </trkpt>
      <trkpt lat="48.81119" lon="1.76345">
        <ele>126.2</ele>
        <time>2023-12-20T11:44:16Z</time>
      </trkpt>
      <trkpt lat="48.81117" lon="1.76352">
        <ele>126.2</ele>
        <time>2023-12-20T11:44:17Z</time>
      </trkpt>
      <trkpt lat="48.81114" lon="1.76359">
        <ele>126.2</ele>
        <time>2023-12-20T11:44:18Z</time>
      </trkpt>
      <trkpt lat="48.81112" lon="1.76367">
        <ele>126.4</ele>
        <time>2023-12-20T11:44:19Z</time>
      </trkpt>
      <trkpt lat="48.8111" lon="1.76375">
        <ele>126.4</ele>
        <time>2023-12-20T11:44:20Z</time>
      </trkpt>
      <trkpt lat="48.81108" lon="1.76383">
        <ele>126.4</ele>
        <time>2023-12-20T11:44:21Z</time>
      </trkpt>
      <trkpt lat="48.81107" lon="1.76392">
        <ele>127.4</ele>
        <time>2023-12-20T11:44:22Z</time>
      </trkpt>
      <trkpt lat="48.81106" lon="1.764">
        <ele>127.4</ele>
        <time>2023-12-20T11:44:23Z</time>
      </trkpt>
      <trkpt lat="48.81104" lon="1.76408">
        <ele>127.4</ele>
        <time>2023-12-20T11:44:24Z</time>
      </trkpt>
      <trkpt lat="48.81103" lon="1.76417">
        <ele>127.4</ele>
        <time>2023-12-20T11:44:25Z</time>
      </trkpt>
      <trkpt lat="48.81102" lon="1.76426">
        <ele>127.4</ele>
        <time>2023-12-20T11:44:26Z</time>
      </trkpt>
      <trkpt lat="48.81101" lon="1.76434">
        <ele>126.8</ele>
        <time>2023-12-20T11:44:27Z</time>
      </trkpt>
      <trkpt lat="48.81099" lon="1.76443">
        <ele>126.8</ele>
        <time>2023-12-20T11:44:28Z</time>
      </trkpt>
      <trkpt lat="48.81098" lon="1.76452">
        <ele>126.8</ele>
        <time>2023-12-20T11:44:29Z</time>
      </trkpt>
      <trkpt lat="48.81096" lon="1.7646">
        <ele>127</ele>
        <time>2023-12-20T11:44:30Z</time>
      </trkpt>
      <trkpt lat="48.81095" lon="1.76469">
        <ele>127.8</ele>
        <time>2023-12-20T11:44:31Z</time>
      </trkpt>
      <trkpt lat="48.81094" lon="1.76477">
        <ele>127.8</ele>
        <time>2023-12-20T11:44:32Z</time>
      </trkpt>
      <trkpt lat="48.81092" lon="1.76486">
        <ele>127.8</ele>
        <time>2023-12-20T11:44:33Z</time>
      </trkpt>
      <trkpt lat="48.81091" lon="1.76494">
        <ele>127.8</ele>
        <time>2023-12-20T11:44:34Z</time>
      </trkpt>
      <trkpt lat="48.8109" lon="1.76504">
        <ele>127.4</ele>
        <time>2023-12-20T11:44:35Z</time>
      </trkpt>
      <trkpt lat="48.81088" lon="1.76513">
        <ele>127.4</ele>
        <time>2023-12-20T11:44:36Z</time>
      </trkpt>
      <trkpt lat="48.81087" lon="1.76522">
        <ele>127.4</ele>
        <time>2023-12-20T11:44:37Z</time>
      </trkpt>
      <trkpt lat="48.81086" lon="1.76531">
        <ele>126.4</ele>
        <time>2023-12-20T11:44:38Z</time>
      </trkpt>
      <trkpt lat="48.81084" lon="1.76541">
        <ele>126.4</ele>
        <time>2023-12-20T11:44:39Z</time>
      </trkpt>
      <trkpt lat="48.81083" lon="1.76551">
        <ele>126.4</ele>
        <time>2023-12-20T11:44:40Z</time>
      </trkpt>
      <trkpt lat="48.81081" lon="1.7656">
        <ele>126.4</ele>
        <time>2023-12-20T11:44:41Z</time>
      </trkpt>
      <trkpt lat="48.8108" lon="1.7657">
        <ele>126.4</ele>
        <time>2023-12-20T11:44:42Z</time>
      </trkpt>
      <trkpt lat="48.81078" lon="1.7658">
        <ele>126</ele>
        <time>2023-12-20T11:44:43Z</time>
      </trkpt>
      <trkpt lat="48.81077" lon="1.76591">
        <ele>126</ele>
        <time>2023-12-20T11:44:44Z</time>
      </trkpt>
      <trkpt lat="48.81075" lon="1.76601">
        <ele>126</ele>
        <time>2023-12-20T11:44:45Z</time>
      </trkpt>
      <trkpt lat="48.81073" lon="1.76611">
        <ele>126</ele>
        <time>2023-12-20T11:44:46Z</time>
      </trkpt>
      <trkpt lat="48.81071" lon="1.7662">
        <ele>126.2</ele>
        <time>2023-12-20T11:44:47Z</time>
      </trkpt>
      <trkpt lat="48.81067" lon="1.76629">
        <ele>126.2</ele>
        <time>2023-12-20T11:44:48Z</time>
      </trkpt>
      <trkpt lat="48.81063" lon="1.76637">
        <ele>126.2</ele>
        <time>2023-12-20T11:44:49Z</time>
      </trkpt>
      <trkpt lat="48.81057" lon="1.76643">
        <ele>125.8</ele>
        <time>2023-12-20T11:44:50Z</time>
      </trkpt>
      <trkpt lat="48.81051" lon="1.76646">
        <ele>125.6</ele>
        <time>2023-12-20T11:44:51Z</time>
      </trkpt>
      <trkpt lat="48.81044" lon="1.76647">
        <ele>125.6</ele>
        <time>2023-12-20T11:44:52Z</time>
      </trkpt>
      <trkpt lat="48.81037" lon="1.76646">
        <ele>125.6</ele>
        <time>2023-12-20T11:44:53Z</time>
      </trkpt>
      <trkpt lat="48.8103" lon="1.76644">
        <ele>125.6</ele>
        <time>2023-12-20T11:44:54Z</time>
      </trkpt>
      <trkpt lat="48.81023" lon="1.76642">
        <ele>123.4</ele>
        <time>2023-12-20T11:44:55Z</time>
      </trkpt>
      <trkpt lat="48.81016" lon="1.7664">
        <ele>123.4</ele>
        <time>2023-12-20T11:44:56Z</time>
      </trkpt>
      <trkpt lat="48.81009" lon="1.76638">
        <ele>123.4</ele>
        <time>2023-12-20T11:44:57Z</time>
      </trkpt>
      <trkpt lat="48.81003" lon="1.76636">
        <ele>124.4</ele>
        <time>2023-12-20T11:44:58Z</time>
      </trkpt>
      <trkpt lat="48.80997" lon="1.76635">
        <ele>127.4</ele>
        <time>2023-12-20T11:44:59Z</time>
      </trkpt>
      <trkpt lat="48.80991" lon="1.76634">
        <ele>127.4</ele>
        <time>2023-12-20T11:45:00Z</time>
      </trkpt>
      <trkpt lat="48.80986" lon="1.76635">
        <ele>127.4</ele>
        <time>2023-12-20T11:45:01Z</time>
      </trkpt>
      <trkpt lat="48.8098" lon="1.76636">
        <ele>128</ele>
        <time>2023-12-20T11:45:02Z</time>
      </trkpt>
      <trkpt lat="48.80975" lon="1.76639">
        <ele>128.6</ele>
        <time>2023-12-20T11:45:03Z</time>
      </trkpt>
      <trkpt lat="48.8097" lon="1.76643">
        <ele>128.6</ele>
        <time>2023-12-20T11:45:04Z</time>
      </trkpt>
      <trkpt lat="48.80965" lon="1.76649">
        <ele>128.6</ele>
        <time>2023-12-20T11:45:05Z</time>
      </trkpt>
      <trkpt lat="48.80961" lon="1.76655">
        <ele>129.2</ele>
        <time>2023-12-20T11:45:06Z</time>
      </trkpt>
      <trkpt lat="48.80957" lon="1.76662">
        <ele>129.8</ele>
        <time>2023-12-20T11:45:07Z</time>
      </trkpt>
      <trkpt lat="48.80953" lon="1.7667">
        <ele>129.8</ele>
        <time>2023-12-20T11:45:08Z</time>
      </trkpt>
      <trkpt lat="48.80949" lon="1.76678">
        <ele>129.8</ele>
        <time>2023-12-20T11:45:09Z</time>
      </trkpt>
      <trkpt lat="48.80944" lon="1.76685">
        <ele>129.8</ele>
        <time>2023-12-20T11:45:10Z</time>
      </trkpt>
      <trkpt lat="48.8094" lon="1.76692">
        <ele>130.2</ele>
        <time>2023-12-20T11:45:11Z</time>
      </trkpt>
      <trkpt lat="48.80935" lon="1.76698">
        <ele>130.2</ele>
        <time>2023-12-20T11:45:12Z</time>
      </trkpt>
      <trkpt lat="48.80931" lon="1.76704">
        <ele>130.2</ele>
        <time>2023-12-20T11:45:13Z</time>
      </trkpt>
      <trkpt lat="48.80926" lon="1.76708">
        <ele>130.2</ele>
        <time>2023-12-20T11:45:14Z</time>
      </trkpt>
      <trkpt lat="48.80921" lon="1.76713">
        <ele>131.2</ele>
        <time>2023-12-20T11:45:15Z</time>
      </trkpt>
      <trkpt lat="48.80916" lon="1.76717">
        <ele>131.2</ele>
        <time>2023-12-20T11:45:16Z</time>
      </trkpt>
      <trkpt lat="48.80911" lon="1.76721">
        <ele>131.2</ele>
        <time>2023-12-20T11:45:17Z</time>
      </trkpt>
      <trkpt lat="48.80906" lon="1.76724">
        <ele>131.6</ele>
        <time>2023-12-20T11:45:18Z</time>
      </trkpt>
      <trkpt lat="48.80902" lon="1.76727">
        <ele>132.4</ele>
        <time>2023-12-20T11:45:19Z</time>
      </trkpt>
      <trkpt lat="48.80898" lon="1.76729">
        <ele>132.4</ele>
        <time>2023-12-20T11:45:20Z</time>
      </trkpt>
      <trkpt lat="48.80893" lon="1.76731">
        <ele>132.4</ele>
        <time>2023-12-20T11:45:21Z</time>
      </trkpt>
      <trkpt lat="48.80889" lon="1.76733">
        <ele>132.4</ele>
        <time>2023-12-20T11:45:22Z</time>
      </trkpt>
      <trkpt lat="48.80885" lon="1.76734">
        <ele>133</ele>
        <time>2023-12-20T11:45:23Z</time>
      </trkpt>
      <trkpt lat="48.80882" lon="1.76736">
        <ele>133</ele>
        <time>2023-12-20T11:45:24Z</time>
      </trkpt>
      <trkpt lat="48.80879" lon="1.76738">
        <ele>133</ele>
        <time>2023-12-20T11:45:25Z</time>
      </trkpt>
      <trkpt lat="48.80875" lon="1.7674">
        <ele>132</ele>
        <time>2023-12-20T11:45:26Z</time>
      </trkpt>
      <trkpt lat="48.80871" lon="1.76742">
        <ele>131.4</ele>
        <time>2023-12-20T11:45:27Z</time>
      </trkpt>
      <trkpt lat="48.80866" lon="1.76744">
        <ele>131.4</ele>
        <time>2023-12-20T11:45:28Z</time>
      </trkpt>
      <trkpt lat="48.80862" lon="1.76747">
        <ele>131.4</ele>
        <time>2023-12-20T11:45:29Z</time>
      </trkpt>
      <trkpt lat="48.80857" lon="1.7675">
        <ele>131.4</ele>
        <time>2023-12-20T11:45:30Z</time>
      </trkpt>
      <trkpt lat="48.80852" lon="1.76753">
        <ele>131.2</ele>
        <time>2023-12-20T11:45:31Z</time>
      </trkpt>
      <trkpt lat="48.80847" lon="1.76755">
        <ele>131.2</ele>
        <time>2023-12-20T11:45:32Z</time>
      </trkpt>
      <trkpt lat="48.80842" lon="1.76758">
        <ele>131.2</ele>
        <time>2023-12-20T11:45:33Z</time>
      </trkpt>
      <trkpt lat="48.80837" lon="1.7676">
        <ele>131.2</ele>
        <time>2023-12-20T11:45:34Z</time>
      </trkpt>
      <trkpt lat="48.80832" lon="1.76763">
        <ele>132.4</ele>
        <time>2023-12-20T11:45:35Z</time>
      </trkpt>
      <trkpt lat="48.80827" lon="1.76766">
        <ele>132.4</ele>
        <time>2023-12-20T11:45:36Z</time>
      </trkpt>
      <trkpt lat="48.80822" lon="1.76769">
        <ele>132.4</ele>
        <time>2023-12-20T11:45:37Z</time>
      </trkpt>
      <trkpt lat="48.80817" lon="1.76771">
        <ele>131.8</ele>
        <time>2023-12-20T11:45:38Z</time>
      </trkpt>
      <trkpt lat="48.80812" lon="1.76774">
        <ele>131.8</ele>
        <time>2023-12-20T11:45:39Z</time>
      </trkpt>
      <trkpt lat="48.80807" lon="1.76776">
        <ele>131.8</ele>
        <time>2023-12-20T11:45:40Z</time>
      </trkpt>
      <trkpt lat="48.80802" lon="1.76778">
        <ele>131.8</ele>
        <time>2023-12-20T11:45:41Z</time>
      </trkpt>
      <trkpt lat="48.80797" lon="1.7678">
        <ele>131.8</ele>
        <time>2023-12-20T11:45:42Z</time>
      </trkpt>
      <trkpt lat="48.80792" lon="1.76782">
        <ele>131.6</ele>
        <time>2023-12-20T11:45:43Z</time>
      </trkpt>
      <trkpt lat="48.80786" lon="1.76783">
        <ele>131.6</ele>
        <time>2023-12-20T11:45:44Z</time>
      </trkpt>
      <trkpt lat="48.80781" lon="1.76784">
        <ele>131.6</ele>
        <time>2023-12-20T11:45:45Z</time>
      </trkpt>
      <trkpt lat="48.80776" lon="1.76784">
        <ele>131.6</ele>
        <time>2023-12-20T11:45:46Z</time>
      </trkpt>
      <trkpt lat="48.8077" lon="1.76784">
        <ele>131.8</ele>
        <time>2023-12-20T11:45:47Z</time>
      </trkpt>
      <trkpt lat="48.80765" lon="1.76783">
        <ele>131.8</ele>
        <time>2023-12-20T11:45:48Z</time>
      </trkpt>
      <trkpt lat="48.8076" lon="1.76782">
        <ele>131.8</ele>
        <time>2023-12-20T11:45:49Z</time>
      </trkpt>
      <trkpt lat="48.80755" lon="1.7678">
        <ele>131.8</ele>
        <time>2023-12-20T11:45:50Z</time>
      </trkpt>
      <trkpt lat="48.80749" lon="1.76779">
        <ele>133</ele>
        <time>2023-12-20T11:45:51Z</time>
      </trkpt>
      <trkpt lat="48.80744" lon="1.76777">
        <ele>133</ele>
        <time>2023-12-20T11:45:52Z</time>
      </trkpt>
      <trkpt lat="48.80739" lon="1.76776">
        <ele>133</ele>
        <time>2023-12-20T11:45:53Z</time>
      </trkpt>
      <trkpt lat="48.80734" lon="1.76774">
        <ele>133</ele>
        <time>2023-12-20T11:45:54Z</time>
      </trkpt>
      <trkpt lat="48.80729" lon="1.76772">
        <ele>133</ele>
        <time>2023-12-20T11:45:55Z</time>
      </trkpt>
      <trkpt lat="48.80723" lon="1.76769">
        <ele>133</ele>
        <time>2023-12-20T11:45:56Z</time>
      </trkpt>
      <trkpt lat="48.80718" lon="1.76767">
        <ele>133</ele>
        <time>2023-12-20T11:45:57Z</time>
      </trkpt>
      <trkpt lat="48.80713" lon="1.76765">
        <ele>133.4</ele>
        <time>2023-12-20T11:45:58Z</time>
      </trkpt>
      <trkpt lat="48.80708" lon="1.76763">
        <ele>133.4</ele>
        <time>2023-12-20T11:45:59Z</time>
      </trkpt>
      <trkpt lat="48.80702" lon="1.76761">
        <ele>133.4</ele>
        <time>2023-12-20T11:46:00Z</time>
      </trkpt>
      <trkpt lat="48.80697" lon="1.76759">
        <ele>133.4</ele>
        <time>2023-12-20T11:46:01Z</time>
      </trkpt>
      <trkpt lat="48.80692" lon="1.76756">
        <ele>133.4</ele>
        <time>2023-12-20T11:46:02Z</time>
      </trkpt>
      <trkpt lat="48.80686" lon="1.76754">
        <ele>132.8</ele>
        <time>2023-12-20T11:46:03Z</time>
      </trkpt>
      <trkpt lat="48.80681" lon="1.76752">
        <ele>132.8</ele>
        <time>2023-12-20T11:46:04Z</time>
      </trkpt>
      <trkpt lat="48.80677" lon="1.76748">
        <ele>132.8</ele>
        <time>2023-12-20T11:46:05Z</time>
      </trkpt>
      <trkpt lat="48.80671" lon="1.76746">
        <ele>133.6</ele>
        <time>2023-12-20T11:46:06Z</time>
      </trkpt>
      <trkpt lat="48.80665" lon="1.76744">
        <ele>133.2</ele>
        <time>2023-12-20T11:46:07Z</time>
      </trkpt>
      <trkpt lat="48.8066" lon="1.76742">
        <ele>133.2</ele>
        <time>2023-12-20T11:46:08Z</time>
      </trkpt>
      <trkpt lat="48.80654" lon="1.76741">
        <ele>133.2</ele>
        <time>2023-12-20T11:46:09Z</time>
      </trkpt>
      <trkpt lat="48.80648" lon="1.7674">
        <ele>132.2</ele>
        <time>2023-12-20T11:46:10Z</time>
      </trkpt>
      <trkpt lat="48.80642" lon="1.7674">
        <ele>132</ele>
        <time>2023-12-20T11:46:11Z</time>
      </trkpt>
      <trkpt lat="48.80637" lon="1.7674">
        <ele>132</ele>
        <time>2023-12-20T11:46:12Z</time>
      </trkpt>
      <trkpt lat="48.80631" lon="1.76739">
        <ele>132</ele>
        <time>2023-12-20T11:46:13Z</time>
      </trkpt>
      <trkpt lat="48.80625" lon="1.76738">
        <ele>131</ele>
        <time>2023-12-20T11:46:14Z</time>
      </trkpt>
      <trkpt lat="48.80619" lon="1.76737">
        <ele>130.8</ele>
        <time>2023-12-20T11:46:15Z</time>
      </trkpt>
      <trkpt lat="48.80613" lon="1.76737">
        <ele>130.8</ele>
        <time>2023-12-20T11:46:16Z</time>
      </trkpt>
      <trkpt lat="48.80607" lon="1.76737">
        <ele>130.8</ele>
        <time>2023-12-20T11:46:17Z</time>
      </trkpt>
      <trkpt lat="48.806" lon="1.76737">
        <ele>130.8</ele>
        <time>2023-12-20T11:46:18Z</time>
      </trkpt>
      <trkpt lat="48.80595" lon="1.76738">
        <ele>131.2</ele>
        <time>2023-12-20T11:46:19Z</time>
      </trkpt>
      <trkpt lat="48.80591" lon="1.76743">
        <ele>131.2</ele>
        <time>2023-12-20T11:46:20Z</time>
      </trkpt>
      <trkpt lat="48.80588" lon="1.7675">
        <ele>131.2</ele>
        <time>2023-12-20T11:46:21Z</time>
      </trkpt>
      <trkpt lat="48.80588" lon="1.76758">
        <ele>130.2</ele>
        <time>2023-12-20T11:46:22Z</time>
      </trkpt>
      <trkpt lat="48.80589" lon="1.76767">
        <ele>129.4</ele>
        <time>2023-12-20T11:46:23Z</time>
      </trkpt>
      <trkpt lat="48.80589" lon="1.76777">
        <ele>129.4</ele>
        <time>2023-12-20T11:46:24Z</time>
      </trkpt>
      <trkpt lat="48.80588" lon="1.76786">
        <ele>129.4</ele>
        <time>2023-12-20T11:46:25Z</time>
      </trkpt>
      <trkpt lat="48.80586" lon="1.76796">
        <ele>129.4</ele>
        <time>2023-12-20T11:46:26Z</time>
      </trkpt>
      <trkpt lat="48.80584" lon="1.76805">
        <ele>129</ele>
        <time>2023-12-20T11:46:27Z</time>
      </trkpt>
      <trkpt lat="48.80582" lon="1.76815">
        <ele>129</ele>
        <time>2023-12-20T11:46:28Z</time>
      </trkpt>
      <trkpt lat="48.8058" lon="1.76825">
        <ele>129</ele>
        <time>2023-12-20T11:46:29Z</time>
      </trkpt>
      <trkpt lat="48.80577" lon="1.76835">
        <ele>128</ele>
        <time>2023-12-20T11:46:30Z</time>
      </trkpt>
      <trkpt lat="48.80575" lon="1.76845">
        <ele>126.8</ele>
        <time>2023-12-20T11:46:31Z</time>
      </trkpt>
      <trkpt lat="48.80572" lon="1.76855">
        <ele>126.8</ele>
        <time>2023-12-20T11:46:32Z</time>
      </trkpt>
      <trkpt lat="48.8057" lon="1.76866">
        <ele>126.8</ele>
        <time>2023-12-20T11:46:33Z</time>
      </trkpt>
      <trkpt lat="48.80567" lon="1.76877">
        <ele>125.8</ele>
        <time>2023-12-20T11:46:34Z</time>
      </trkpt>
      <trkpt lat="48.80565" lon="1.76887">
        <ele>125</ele>
        <time>2023-12-20T11:46:35Z</time>
      </trkpt>
      <trkpt lat="48.80563" lon="1.76898">
        <ele>125</ele>
        <time>2023-12-20T11:46:36Z</time>
      </trkpt>
      <trkpt lat="48.8056" lon="1.76908">
        <ele>125</ele>
        <time>2023-12-20T11:46:37Z</time>
      </trkpt>
      <trkpt lat="48.80558" lon="1.76918">
        <ele>125.6</ele>
        <time>2023-12-20T11:46:38Z</time>
      </trkpt>
      <trkpt lat="48.80555" lon="1.76928">
        <ele>125.6</ele>
        <time>2023-12-20T11:46:39Z</time>
      </trkpt>
      <trkpt lat="48.80553" lon="1.76938">
        <ele>125.6</ele>
        <time>2023-12-20T11:46:40Z</time>
      </trkpt>
      <trkpt lat="48.80551" lon="1.76948">
        <ele>125.6</ele>
        <time>2023-12-20T11:46:41Z</time>
      </trkpt>
      <trkpt lat="48.80549" lon="1.76958">
        <ele>125.6</ele>
        <time>2023-12-20T11:46:42Z</time>
      </trkpt>
      <trkpt lat="48.80547" lon="1.76967">
        <ele>125</ele>
        <time>2023-12-20T11:46:43Z</time>
      </trkpt>
      <trkpt lat="48.80544" lon="1.76977">
        <ele>125</ele>
        <time>2023-12-20T11:46:44Z</time>
      </trkpt>
      <trkpt lat="48.80542" lon="1.76987">
        <ele>125</ele>
        <time>2023-12-20T11:46:45Z</time>
      </trkpt>
      <trkpt lat="48.80541" lon="1.76997">
        <ele>125</ele>
        <time>2023-12-20T11:46:46Z</time>
      </trkpt>
      <trkpt lat="48.80539" lon="1.77007">
        <ele>125.2</ele>
        <time>2023-12-20T11:46:47Z</time>
      </trkpt>
      <trkpt lat="48.80538" lon="1.77018">
        <ele>125.2</ele>
        <time>2023-12-20T11:46:48Z</time>
      </trkpt>
      <trkpt lat="48.80537" lon="1.77028">
        <ele>125.2</ele>
        <time>2023-12-20T11:46:49Z</time>
      </trkpt>
      <trkpt lat="48.80536" lon="1.77039">
        <ele>125.2</ele>
        <time>2023-12-20T11:46:50Z</time>
      </trkpt>
      <trkpt lat="48.80535" lon="1.77049">
        <ele>125.2</ele>
        <time>2023-12-20T11:46:51Z</time>
      </trkpt>
      <trkpt lat="48.80535" lon="1.7706">
        <ele>125.2</ele>
        <time>2023-12-20T11:46:52Z</time>
      </trkpt>
      <trkpt lat="48.80534" lon="1.77069">
        <ele>125.2</ele>
        <time>2023-12-20T11:46:53Z</time>
      </trkpt>
      <trkpt lat="48.80534" lon="1.77079">
        <ele>126.2</ele>
        <time>2023-12-20T11:46:54Z</time>
      </trkpt>
      <trkpt lat="48.80533" lon="1.77088">
        <ele>126.8</ele>
        <time>2023-12-20T11:46:55Z</time>
      </trkpt>
      <trkpt lat="48.80533" lon="1.77096">
        <ele>126.8</ele>
        <time>2023-12-20T11:46:56Z</time>
      </trkpt>
      <trkpt lat="48.80532" lon="1.77104">
        <ele>126.8</ele>
        <time>2023-12-20T11:46:57Z</time>
      </trkpt>
      <trkpt lat="48.80531" lon="1.77112">
        <ele>126.8</ele>
        <time>2023-12-20T11:46:58Z</time>
      </trkpt>
      <trkpt lat="48.8053" lon="1.7712">
        <ele>127</ele>
        <time>2023-12-20T11:46:59Z</time>
      </trkpt>
      <trkpt lat="48.80529" lon="1.77129">
        <ele>127</ele>
        <time>2023-12-20T11:47:00Z</time>
      </trkpt>
      <trkpt lat="48.80528" lon="1.77137">
        <ele>127</ele>
        <time>2023-12-20T11:47:01Z</time>
      </trkpt>
      <trkpt lat="48.80528" lon="1.77146">
        <ele>127</ele>
        <time>2023-12-20T11:47:02Z</time>
      </trkpt>
      <trkpt lat="48.80527" lon="1.77156">
        <ele>127.2</ele>
        <time>2023-12-20T11:47:03Z</time>
      </trkpt>
      <trkpt lat="48.80526" lon="1.77166">
        <ele>127.2</ele>
        <time>2023-12-20T11:47:04Z</time>
      </trkpt>
      <trkpt lat="48.80526" lon="1.77176">
        <ele>127.2</ele>
        <time>2023-12-20T11:47:05Z</time>
      </trkpt>
      <trkpt lat="48.80525" lon="1.77185">
        <ele>127.2</ele>
        <time>2023-12-20T11:47:06Z</time>
      </trkpt>
      <trkpt lat="48.80524" lon="1.77195">
        <ele>128.2</ele>
        <time>2023-12-20T11:47:07Z</time>
      </trkpt>
      <trkpt lat="48.80523" lon="1.77204">
        <ele>128.2</ele>
        <time>2023-12-20T11:47:08Z</time>
      </trkpt>
      <trkpt lat="48.80522" lon="1.77214">
        <ele>128.2</ele>
        <time>2023-12-20T11:47:09Z</time>
      </trkpt>
      <trkpt lat="48.80521" lon="1.77223">
        <ele>128.2</ele>
        <time>2023-12-20T11:47:10Z</time>
      </trkpt>
      <trkpt lat="48.80521" lon="1.77232">
        <ele>128.8</ele>
        <time>2023-12-20T11:47:11Z</time>
      </trkpt>
      <trkpt lat="48.8052" lon="1.77242">
        <ele>128.8</ele>
        <time>2023-12-20T11:47:12Z</time>
      </trkpt>
      <trkpt lat="48.80519" lon="1.77251">
        <ele>128.8</ele>
        <time>2023-12-20T11:47:13Z</time>
      </trkpt>
      <trkpt lat="48.80518" lon="1.7726">
        <ele>128.8</ele>
        <time>2023-12-20T11:47:14Z</time>
      </trkpt>
      <trkpt lat="48.80518" lon="1.77269">
        <ele>129</ele>
        <time>2023-12-20T11:47:15Z</time>
      </trkpt>
      <trkpt lat="48.80517" lon="1.77278">
        <ele>129</ele>
        <time>2023-12-20T11:47:16Z</time>
      </trkpt>
      <trkpt lat="48.80516" lon="1.77287">
        <ele>129</ele>
        <time>2023-12-20T11:47:17Z</time>
      </trkpt>
      <trkpt lat="48.80515" lon="1.77295">
        <ele>129</ele>
        <time>2023-12-20T11:47:18Z</time>
      </trkpt>
      <trkpt lat="48.80514" lon="1.77304">
        <ele>129.8</ele>
        <time>2023-12-20T11:47:19Z</time>
      </trkpt>
      <trkpt lat="48.80514" lon="1.77313">
        <ele>129.8</ele>
        <time>2023-12-20T11:47:20Z</time>
      </trkpt>
      <trkpt lat="48.80513" lon="1.77322">
        <ele>129.8</ele>
        <time>2023-12-20T11:47:21Z</time>
      </trkpt>
      <trkpt lat="48.80512" lon="1.77331">
        <ele>130</ele>
        <time>2023-12-20T11:47:22Z</time>
      </trkpt>
      <trkpt lat="48.80511" lon="1.7734">
        <ele>129.6</ele>
        <time>2023-12-20T11:47:23Z</time>
      </trkpt>
      <trkpt lat="48.8051" lon="1.77349">
        <ele>129.6</ele>
        <time>2023-12-20T11:47:24Z</time>
      </trkpt>
      <trkpt lat="48.80509" lon="1.77358">
        <ele>129.6</ele>
        <time>2023-12-20T11:47:25Z</time>
      </trkpt>
      <trkpt lat="48.80507" lon="1.77367">
        <ele>130</ele>
        <time>2023-12-20T11:47:26Z</time>
      </trkpt>
      <trkpt lat="48.80506" lon="1.77376">
        <ele>130</ele>
        <time>2023-12-20T11:47:27Z</time>
      </trkpt>
      <trkpt lat="48.80505" lon="1.77385">
        <ele>130</ele>
        <time>2023-12-20T11:47:28Z</time>
      </trkpt>
      <trkpt lat="48.80504" lon="1.77395">
        <ele>130</ele>
        <time>2023-12-20T11:47:29Z</time>
      </trkpt>
      <trkpt lat="48.80502" lon="1.77404">
        <ele>130</ele>
        <time>2023-12-20T11:47:30Z</time>
      </trkpt>
      <trkpt lat="48.80501" lon="1.77413">
        <ele>129.6</ele>
        <time>2023-12-20T11:47:31Z</time>
      </trkpt>
      <trkpt lat="48.805" lon="1.77423">
        <ele>129.6</ele>
        <time>2023-12-20T11:47:32Z</time>
      </trkpt>
      <trkpt lat="48.80499" lon="1.77432">
        <ele>129.6</ele>
        <time>2023-12-20T11:47:33Z</time>
      </trkpt>
      <trkpt lat="48.80497" lon="1.77441">
        <ele>130.4</ele>
        <time>2023-12-20T11:47:34Z</time>
      </trkpt>
      <trkpt lat="48.80496" lon="1.7745">
        <ele>130.2</ele>
        <time>2023-12-20T11:47:35Z</time>
      </trkpt>
      <trkpt lat="48.80495" lon="1.77459">
        <ele>130.2</ele>
        <time>2023-12-20T11:47:36Z</time>
      </trkpt>
      <trkpt lat="48.80493" lon="1.77468">
        <ele>130.2</ele>
        <time>2023-12-20T11:47:37Z</time>
      </trkpt>
      <trkpt lat="48.80491" lon="1.77477">
        <ele>130.2</ele>
        <time>2023-12-20T11:47:38Z</time>
      </trkpt>
      <trkpt lat="48.80487" lon="1.77485">
        <ele>130.6</ele>
        <time>2023-12-20T11:47:39Z</time>
      </trkpt>
      <trkpt lat="48.80483" lon="1.77492">
        <ele>130.6</ele>
        <time>2023-12-20T11:47:40Z</time>
      </trkpt>
      <trkpt lat="48.80478" lon="1.77499">
        <ele>130.6</ele>
        <time>2023-12-20T11:47:41Z</time>
      </trkpt>
      <trkpt lat="48.80474" lon="1.77506">
        <ele>129.6</ele>
        <time>2023-12-20T11:47:42Z</time>
      </trkpt>
      <trkpt lat="48.80469" lon="1.77513">
        <ele>129.4</ele>
        <time>2023-12-20T11:47:43Z</time>
      </trkpt>
      <trkpt lat="48.80465" lon="1.77521">
        <ele>129.4</ele>
        <time>2023-12-20T11:47:44Z</time>
      </trkpt>
      <trkpt lat="48.80461" lon="1.77529">
        <ele>129.4</ele>
        <time>2023-12-20T11:47:45Z</time>
      </trkpt>
      <trkpt lat="48.80457" lon="1.77537">
        <ele>129.4</ele>
        <time>2023-12-20T11:47:46Z</time>
      </trkpt>
      <trkpt lat="48.80454" lon="1.77546">
        <ele>130</ele>
        <time>2023-12-20T11:47:47Z</time>
      </trkpt>
      <trkpt lat="48.8045" lon="1.77554">
        <ele>130</ele>
        <time>2023-12-20T11:47:48Z</time>
      </trkpt>
      <trkpt lat="48.80446" lon="1.77562">
        <ele>130</ele>
        <time>2023-12-20T11:47:49Z</time>
      </trkpt>
      <trkpt lat="48.80442" lon="1.7757">
        <ele>129.6</ele>
        <time>2023-12-20T11:47:50Z</time>
      </trkpt>
      <trkpt lat="48.80438" lon="1.77578">
        <ele>130</ele>
        <time>2023-12-20T11:47:51Z</time>
      </trkpt>
      <trkpt lat="48.80434" lon="1.77585">
        <ele>130</ele>
        <time>2023-12-20T11:47:52Z</time>
      </trkpt>
      <trkpt lat="48.80429" lon="1.77593">
        <ele>130</ele>
        <time>2023-12-20T11:47:53Z</time>
      </trkpt>
      <trkpt lat="48.80425" lon="1.776">
        <ele>130.6</ele>
        <time>2023-12-20T11:47:54Z</time>
      </trkpt>
      <trkpt lat="48.80421" lon="1.77607">
        <ele>130.4</ele>
        <time>2023-12-20T11:47:55Z</time>
      </trkpt>
      <trkpt lat="48.80417" lon="1.77615">
        <ele>130.4</ele>
        <time>2023-12-20T11:47:56Z</time>
      </trkpt>
      <trkpt lat="48.80413" lon="1.77622">
        <ele>130.4</ele>
        <time>2023-12-20T11:47:57Z</time>
      </trkpt>
      <trkpt lat="48.80409" lon="1.77629">
        <ele>131.2</ele>
        <time>2023-12-20T11:47:58Z</time>
      </trkpt>
      <trkpt lat="48.80405" lon="1.77635">
        <ele>131.2</ele>
        <time>2023-12-20T11:47:59Z</time>
      </trkpt>
      <trkpt lat="48.80401" lon="1.77642">
        <ele>131.2</ele>
        <time>2023-12-20T11:48:00Z</time>
      </trkpt>
      <trkpt lat="48.80397" lon="1.77649">
        <ele>131.2</ele>
        <time>2023-12-20T11:48:01Z</time>
      </trkpt>
      <trkpt lat="48.80393" lon="1.77656">
        <ele>131</ele>
        <time>2023-12-20T11:48:02Z</time>
      </trkpt>
      <trkpt lat="48.80388" lon="1.77663">
        <ele>130.6</ele>
        <time>2023-12-20T11:48:03Z</time>
      </trkpt>
      <trkpt lat="48.80384" lon="1.77669">
        <ele>130.6</ele>
        <time>2023-12-20T11:48:04Z</time>
      </trkpt>
      <trkpt lat="48.80379" lon="1.77676">
        <ele>130.6</ele>
        <time>2023-12-20T11:48:05Z</time>
      </trkpt>
      <trkpt lat="48.80375" lon="1.77683">
        <ele>130</ele>
        <time>2023-12-20T11:48:06Z</time>
      </trkpt>
      <trkpt lat="48.8037" lon="1.7769">
        <ele>130</ele>
        <time>2023-12-20T11:48:07Z</time>
      </trkpt>
      <trkpt lat="48.80366" lon="1.77697">
        <ele>130</ele>
        <time>2023-12-20T11:48:08Z</time>
      </trkpt>
      <trkpt lat="48.80361" lon="1.77704">
        <ele>130</ele>
        <time>2023-12-20T11:48:09Z</time>
      </trkpt>
      <trkpt lat="48.80356" lon="1.77711">
        <ele>129.6</ele>
        <time>2023-12-20T11:48:10Z</time>
      </trkpt>
      <trkpt lat="48.80351" lon="1.77718">
        <ele>129.8</ele>
        <time>2023-12-20T11:48:11Z</time>
      </trkpt>
      <trkpt lat="48.80347" lon="1.77725">
        <ele>129.8</ele>
        <time>2023-12-20T11:48:12Z</time>
      </trkpt>
      <trkpt lat="48.80342" lon="1.77733">
        <ele>129.8</ele>
        <time>2023-12-20T11:48:13Z</time>
      </trkpt>
      <trkpt lat="48.80337" lon="1.7774">
        <ele>129.6</ele>
        <time>2023-12-20T11:48:14Z</time>
      </trkpt>
      <trkpt lat="48.80331" lon="1.77747">
        <ele>129</ele>
        <time>2023-12-20T11:48:15Z</time>
      </trkpt>
      <trkpt lat="48.80326" lon="1.77755">
        <ele>129</ele>
        <time>2023-12-20T11:48:16Z</time>
      </trkpt>
      <trkpt lat="48.80321" lon="1.77763">
        <ele>129</ele>
        <time>2023-12-20T11:48:17Z</time>
      </trkpt>
      <trkpt lat="48.80317" lon="1.7777">
        <ele>129</ele>
        <time>2023-12-20T11:48:18Z</time>
      </trkpt>
      <trkpt lat="48.80312" lon="1.77778">
        <ele>129.4</ele>
        <time>2023-12-20T11:48:19Z</time>
      </trkpt>
      <trkpt lat="48.80307" lon="1.77785">
        <ele>129.4</ele>
        <time>2023-12-20T11:48:20Z</time>
      </trkpt>
      <trkpt lat="48.80302" lon="1.77793">
        <ele>129.4</ele>
        <time>2023-12-20T11:48:21Z</time>
      </trkpt>
      <trkpt lat="48.80297" lon="1.77801">
        <ele>128.4</ele>
        <time>2023-12-20T11:48:22Z</time>
      </trkpt>
      <trkpt lat="48.80292" lon="1.77809">
        <ele>128</ele>
        <time>2023-12-20T11:48:23Z</time>
      </trkpt>
      <trkpt lat="48.80287" lon="1.77817">
        <ele>128</ele>
        <time>2023-12-20T11:48:24Z</time>
      </trkpt>
      <trkpt lat="48.80282" lon="1.77825">
        <ele>128</ele>
        <time>2023-12-20T11:48:25Z</time>
      </trkpt>
      <trkpt lat="48.80277" lon="1.77833">
        <ele>128</ele>
        <time>2023-12-20T11:48:26Z</time>
      </trkpt>
      <trkpt lat="48.80272" lon="1.77841">
        <ele>127.8</ele>
        <time>2023-12-20T11:48:27Z</time>
      </trkpt>
      <trkpt lat="48.80267" lon="1.77849">
        <ele>127.8</ele>
        <time>2023-12-20T11:48:28Z</time>
      </trkpt>
      <trkpt lat="48.80262" lon="1.77857">
        <ele>127.8</ele>
        <time>2023-12-20T11:48:29Z</time>
      </trkpt>
      <trkpt lat="48.80257" lon="1.77865">
        <ele>127.8</ele>
        <time>2023-12-20T11:48:30Z</time>
      </trkpt>
      <trkpt lat="48.80253" lon="1.77873">
        <ele>127.8</ele>
        <time>2023-12-20T11:48:31Z</time>
      </trkpt>
      <trkpt lat="48.80248" lon="1.77881">
        <ele>127.8</ele>
        <time>2023-12-20T11:48:32Z</time>
      </trkpt>
      <trkpt lat="48.80243" lon="1.77889">
        <ele>127.8</ele>
        <time>2023-12-20T11:48:33Z</time>
      </trkpt>
      <trkpt lat="48.80238" lon="1.77896">
        <ele>127.2</ele>
        <time>2023-12-20T11:48:34Z</time>
      </trkpt>
      <trkpt lat="48.80233" lon="1.77904">
        <ele>127</ele>
        <time>2023-12-20T11:48:35Z</time>
      </trkpt>
      <trkpt lat="48.80228" lon="1.77912">
        <ele>127</ele>
        <time>2023-12-20T11:48:36Z</time>
      </trkpt>
      <trkpt lat="48.80223" lon="1.7792">
        <ele>127</ele>
        <time>2023-12-20T11:48:37Z</time>
      </trkpt>
      <trkpt lat="48.80219" lon="1.77929">
        <ele>127</ele>
        <time>2023-12-20T11:48:38Z</time>
      </trkpt>
      <trkpt lat="48.80214" lon="1.77937">
        <ele>126.2</ele>
        <time>2023-12-20T11:48:39Z</time>
      </trkpt>
      <trkpt lat="48.80209" lon="1.77945">
        <ele>126.2</ele>
        <time>2023-12-20T11:48:40Z</time>
      </trkpt>
      <trkpt lat="48.80204" lon="1.77954">
        <ele>126.2</ele>
        <time>2023-12-20T11:48:41Z</time>
      </trkpt>
      <trkpt lat="48.80198" lon="1.77962">
        <ele>126.4</ele>
        <time>2023-12-20T11:48:42Z</time>
      </trkpt>
      <trkpt lat="48.80193" lon="1.7797">
        <ele>125.8</ele>
        <time>2023-12-20T11:48:43Z</time>
      </trkpt>
      <trkpt lat="48.80187" lon="1.77979">
        <ele>125.8</ele>
        <time>2023-12-20T11:48:44Z</time>
      </trkpt>
      <trkpt lat="48.80182" lon="1.77988">
        <ele>125.8</ele>
        <time>2023-12-20T11:48:45Z</time>
      </trkpt>
      <trkpt lat="48.80177" lon="1.77998">
        <ele>125.8</ele>
        <time>2023-12-20T11:48:46Z</time>
      </trkpt>
      <trkpt lat="48.80171" lon="1.78007">
        <ele>124.6</ele>
        <time>2023-12-20T11:48:47Z</time>
      </trkpt>
      <trkpt lat="48.80165" lon="1.78016">
        <ele>124.6</ele>
        <time>2023-12-20T11:48:48Z</time>
      </trkpt>
      <trkpt lat="48.8016" lon="1.78025">
        <ele>124.6</ele>
        <time>2023-12-20T11:48:49Z</time>
      </trkpt>
      <trkpt lat="48.80154" lon="1.78035">
        <ele>124.6</ele>
        <time>2023-12-20T11:48:50Z</time>
      </trkpt>
      <trkpt lat="48.80148" lon="1.78044">
        <ele>123.8</ele>
        <time>2023-12-20T11:48:51Z</time>
      </trkpt>
      <trkpt lat="48.80143" lon="1.78054">
        <ele>123.8</ele>
        <time>2023-12-20T11:48:52Z</time>
      </trkpt>
      <trkpt lat="48.80137" lon="1.78063">
        <ele>123.8</ele>
        <time>2023-12-20T11:48:53Z</time>
      </trkpt>
      <trkpt lat="48.80131" lon="1.78073">
        <ele>123.8</ele>
        <time>2023-12-20T11:48:54Z</time>
      </trkpt>
      <trkpt lat="48.80126" lon="1.78082">
        <ele>124</ele>
        <time>2023-12-20T11:48:55Z</time>
      </trkpt>
      <trkpt lat="48.8012" lon="1.78092">
        <ele>124</ele>
        <time>2023-12-20T11:48:56Z</time>
      </trkpt>
      <trkpt lat="48.80115" lon="1.78101">
        <ele>124</ele>
        <time>2023-12-20T11:48:57Z</time>
      </trkpt>
      <trkpt lat="48.80109" lon="1.7811">
        <ele>125</ele>
        <time>2023-12-20T11:48:58Z</time>
      </trkpt>
      <trkpt lat="48.80104" lon="1.78119">
        <ele>125.2</ele>
        <time>2023-12-20T11:48:59Z</time>
      </trkpt>
      <trkpt lat="48.80099" lon="1.78127">
        <ele>125.2</ele>
        <time>2023-12-20T11:49:00Z</time>
      </trkpt>
      <trkpt lat="48.80094" lon="1.78136">
        <ele>125.2</ele>
        <time>2023-12-20T11:49:01Z</time>
      </trkpt>
      <trkpt lat="48.80088" lon="1.78144">
        <ele>125.2</ele>
        <time>2023-12-20T11:49:02Z</time>
      </trkpt>
      <trkpt lat="48.80083" lon="1.78153">
        <ele>125.8</ele>
        <time>2023-12-20T11:49:03Z</time>
      </trkpt>
      <trkpt lat="48.80078" lon="1.78161">
        <ele>125.8</ele>
        <time>2023-12-20T11:49:04Z</time>
      </trkpt>
      <trkpt lat="48.80073" lon="1.78169">
        <ele>125.8</ele>
        <time>2023-12-20T11:49:05Z</time>
      </trkpt>
      <trkpt lat="48.80068" lon="1.78177">
        <ele>125.8</ele>
        <time>2023-12-20T11:49:06Z</time>
      </trkpt>
      <trkpt lat="48.80064" lon="1.78185">
        <ele>125.6</ele>
        <time>2023-12-20T11:49:07Z</time>
      </trkpt>
      <trkpt lat="48.80059" lon="1.78193">
        <ele>125.6</ele>
        <time>2023-12-20T11:49:08Z</time>
      </trkpt>
      <trkpt lat="48.80054" lon="1.782">
        <ele>125.6</ele>
        <time>2023-12-20T11:49:09Z</time>
      </trkpt>
      <trkpt lat="48.80049" lon="1.78208">
        <ele>126.6</ele>
        <time>2023-12-20T11:49:10Z</time>
      </trkpt>
      <trkpt lat="48.80045" lon="1.78215">
        <ele>126.8</ele>
        <time>2023-12-20T11:49:11Z</time>
      </trkpt>
      <trkpt lat="48.80041" lon="1.78223">
        <ele>126.8</ele>
        <time>2023-12-20T11:49:12Z</time>
      </trkpt>
      <trkpt lat="48.80036" lon="1.78231">
        <ele>126.8</ele>
        <time>2023-12-20T11:49:13Z</time>
      </trkpt>
      <trkpt lat="48.80032" lon="1.78238">
        <ele>126.8</ele>
        <time>2023-12-20T11:49:14Z</time>
      </trkpt>
      <trkpt lat="48.80027" lon="1.78245">
        <ele>128</ele>
        <time>2023-12-20T11:49:15Z</time>
      </trkpt>
      <trkpt lat="48.80023" lon="1.78252">
        <ele>128</ele>
        <time>2023-12-20T11:49:16Z</time>
      </trkpt>
      <trkpt lat="48.80019" lon="1.78259">
        <ele>128</ele>
        <time>2023-12-20T11:49:17Z</time>
      </trkpt>
      <trkpt lat="48.80015" lon="1.78266">
        <ele>128</ele>
        <time>2023-12-20T11:49:18Z</time>
      </trkpt>
      <trkpt lat="48.80011" lon="1.78273">
        <ele>128.4</ele>
        <time>2023-12-20T11:49:19Z</time>
      </trkpt>
      <trkpt lat="48.80006" lon="1.7828">
        <ele>128.4</ele>
        <time>2023-12-20T11:49:20Z</time>
      </trkpt>
      <trkpt lat="48.80002" lon="1.78287">
        <ele>128.4</ele>
        <time>2023-12-20T11:49:21Z</time>
      </trkpt>
      <trkpt lat="48.79998" lon="1.78294">
        <ele>127.6</ele>
        <time>2023-12-20T11:49:22Z</time>
      </trkpt>
      <trkpt lat="48.79993" lon="1.78301">
        <ele>126.8</ele>
        <time>2023-12-20T11:49:23Z</time>
      </trkpt>
      <trkpt lat="48.79989" lon="1.78309">
        <ele>126.8</ele>
        <time>2023-12-20T11:49:24Z</time>
      </trkpt>
      <trkpt lat="48.79985" lon="1.78316">
        <ele>126.8</ele>
        <time>2023-12-20T11:49:25Z</time>
      </trkpt>
      <trkpt lat="48.79981" lon="1.78323">
        <ele>126.8</ele>
        <time>2023-12-20T11:49:26Z</time>
      </trkpt>
      <trkpt lat="48.79976" lon="1.7833">
        <ele>126</ele>
        <time>2023-12-20T11:49:27Z</time>
      </trkpt>
      <trkpt lat="48.79972" lon="1.78338">
        <ele>126</ele>
        <time>2023-12-20T11:49:28Z</time>
      </trkpt>
      <trkpt lat="48.79967" lon="1.78345">
        <ele>126</ele>
        <time>2023-12-20T11:49:29Z</time>
      </trkpt>
      <trkpt lat="48.79962" lon="1.78353">
        <ele>125</ele>
        <time>2023-12-20T11:49:30Z</time>
      </trkpt>
      <trkpt lat="48.79958" lon="1.78361">
        <ele>124.6</ele>
        <time>2023-12-20T11:49:31Z</time>
      </trkpt>
      <trkpt lat="48.79953" lon="1.78369">
        <ele>124.6</ele>
        <time>2023-12-20T11:49:32Z</time>
      </trkpt>
      <trkpt lat="48.79949" lon="1.78377">
        <ele>124.6</ele>
        <time>2023-12-20T11:49:33Z</time>
      </trkpt>
      <trkpt lat="48.79944" lon="1.78385">
        <ele>124</ele>
        <time>2023-12-20T11:49:34Z</time>
      </trkpt>
      <trkpt lat="48.79939" lon="1.78394">
        <ele>123.2</ele>
        <time>2023-12-20T11:49:35Z</time>
      </trkpt>
      <trkpt lat="48.79934" lon="1.78404">
        <ele>123.2</ele>
        <time>2023-12-20T11:49:36Z</time>
      </trkpt>
      <trkpt lat="48.79929" lon="1.78413">
        <ele>123.2</ele>
        <time>2023-12-20T11:49:37Z</time>
      </trkpt>
      <trkpt lat="48.79924" lon="1.78424">
        <ele>122.2</ele>
        <time>2023-12-20T11:49:38Z</time>
      </trkpt>
      <trkpt lat="48.79919" lon="1.78435">
        <ele>119.8</ele>
        <time>2023-12-20T11:49:39Z</time>
      </trkpt>
      <trkpt lat="48.79914" lon="1.78447">
        <ele>119.8</ele>
        <time>2023-12-20T11:49:40Z</time>
      </trkpt>
      <trkpt lat="48.79909" lon="1.7846">
        <ele>119.8</ele>
        <time>2023-12-20T11:49:41Z</time>
      </trkpt>
      <trkpt lat="48.79905" lon="1.78473">
        <ele>118.8</ele>
        <time>2023-12-20T11:49:42Z</time>
      </trkpt>
      <trkpt lat="48.799" lon="1.78487">
        <ele>116.6</ele>
        <time>2023-12-20T11:49:43Z</time>
      </trkpt>
      <trkpt lat="48.79896" lon="1.78501">
        <ele>116.6</ele>
        <time>2023-12-20T11:49:44Z</time>
      </trkpt>
      <trkpt lat="48.79892" lon="1.78516">
        <ele>116.6</ele>
        <time>2023-12-20T11:49:45Z</time>
      </trkpt>
      <trkpt lat="48.79888" lon="1.78531">
        <ele>116.6</ele>
        <time>2023-12-20T11:49:46Z</time>
      </trkpt>
      <trkpt lat="48.79885" lon="1.78546">
        <ele>116</ele>
        <time>2023-12-20T11:49:47Z</time>
      </trkpt>
      <trkpt lat="48.79882" lon="1.78561">
        <ele>116</ele>
        <time>2023-12-20T11:49:48Z</time>
      </trkpt>
      <trkpt lat="48.7988" lon="1.78577">
        <ele>116</ele>
        <time>2023-12-20T11:49:49Z</time>
      </trkpt>
      <trkpt lat="48.79878" lon="1.78594">
        <ele>116</ele>
        <time>2023-12-20T11:49:50Z</time>
      </trkpt>
      <trkpt lat="48.79876" lon="1.7861">
        <ele>111.4</ele>
        <time>2023-12-20T11:49:51Z</time>
      </trkpt>
      <trkpt lat="48.79874" lon="1.78627">
        <ele>111.4</ele>
        <time>2023-12-20T11:49:52Z</time>
      </trkpt>
      <trkpt lat="48.79872" lon="1.78644">
        <ele>111.4</ele>
        <time>2023-12-20T11:49:53Z</time>
      </trkpt>
      <trkpt lat="48.7987" lon="1.78661">
        <ele>111.4</ele>
        <time>2023-12-20T11:49:54Z</time>
      </trkpt>
      <trkpt lat="48.79867" lon="1.78679">
        <ele>108.8</ele>
        <time>2023-12-20T11:49:55Z</time>
      </trkpt>
      <trkpt lat="48.79865" lon="1.78696">
        <ele>108.8</ele>
        <time>2023-12-20T11:49:56Z</time>
      </trkpt>
      <trkpt lat="48.79862" lon="1.78713">
        <ele>108.8</ele>
        <time>2023-12-20T11:49:57Z</time>
      </trkpt>
      <trkpt lat="48.7986" lon="1.78729">
        <ele>109</ele>
        <time>2023-12-20T11:49:58Z</time>
      </trkpt>
      <trkpt lat="48.79857" lon="1.78746">
        <ele>108.8</ele>
        <time>2023-12-20T11:49:59Z</time>
      </trkpt>
      <trkpt lat="48.79853" lon="1.78762">
        <ele>108.8</ele>
        <time>2023-12-20T11:50:00Z</time>
      </trkpt>
      <trkpt lat="48.7985" lon="1.78777">
        <ele>108.8</ele>
        <time>2023-12-20T11:50:01Z</time>
      </trkpt>
      <trkpt lat="48.79846" lon="1.78792">
        <ele>107.8</ele>
        <time>2023-12-20T11:50:02Z</time>
      </trkpt>
      <trkpt lat="48.79842" lon="1.78807">
        <ele>108</ele>
        <time>2023-12-20T11:50:03Z</time>
      </trkpt>
      <trkpt lat="48.79839" lon="1.78822">
        <ele>108</ele>
        <time>2023-12-20T11:50:04Z</time>
      </trkpt>
      <trkpt lat="48.79835" lon="1.78836">
        <ele>108</ele>
        <time>2023-12-20T11:50:05Z</time>
      </trkpt>
      <trkpt lat="48.79831" lon="1.78849">
        <ele>108</ele>
        <time>2023-12-20T11:50:06Z</time>
      </trkpt>
      <trkpt lat="48.79828" lon="1.78863">
        <ele>108.6</ele>
        <time>2023-12-20T11:50:07Z</time>
      </trkpt>
      <trkpt lat="48.79824" lon="1.78876">
        <ele>108.6</ele>
        <time>2023-12-20T11:50:08Z</time>
      </trkpt>
      <trkpt lat="48.79821" lon="1.78888">
        <ele>108.6</ele>
        <time>2023-12-20T11:50:09Z</time>
      </trkpt>
      <trkpt lat="48.79818" lon="1.789">
        <ele>108.6</ele>
        <time>2023-12-20T11:50:10Z</time>
      </trkpt>
      <trkpt lat="48.79815" lon="1.78911">
        <ele>109.8</ele>
        <time>2023-12-20T11:50:11Z</time>
      </trkpt>
      <trkpt lat="48.79812" lon="1.78921">
        <ele>109.8</ele>
        <time>2023-12-20T11:50:12Z</time>
      </trkpt>
      <trkpt lat="48.79808" lon="1.78931">
        <ele>109.8</ele>
        <time>2023-12-20T11:50:13Z</time>
      </trkpt>
      <trkpt lat="48.79806" lon="1.78941">
        <ele>110.8</ele>
        <time>2023-12-20T11:50:14Z</time>
      </trkpt>
      <trkpt lat="48.79803" lon="1.7895">
        <ele>111.8</ele>
        <time>2023-12-20T11:50:15Z</time>
      </trkpt>
      <trkpt lat="48.798" lon="1.78959">
        <ele>111.8</ele>
        <time>2023-12-20T11:50:16Z</time>
      </trkpt>
      <trkpt lat="48.79798" lon="1.78967">
        <ele>111.8</ele>
        <time>2023-12-20T11:50:17Z</time>
      </trkpt>
      <trkpt lat="48.79796" lon="1.78976">
        <ele>112.4</ele>
        <time>2023-12-20T11:50:18Z</time>
      </trkpt>
      <trkpt lat="48.79794" lon="1.78983">
        <ele>113.2</ele>
        <time>2023-12-20T11:50:19Z</time>
      </trkpt>
      <trkpt lat="48.79792" lon="1.78991">
        <ele>113.2</ele>
        <time>2023-12-20T11:50:20Z</time>
      </trkpt>
      <trkpt lat="48.7979" lon="1.78998">
        <ele>113.2</ele>
        <time>2023-12-20T11:50:21Z</time>
      </trkpt>
      <trkpt lat="48.79788" lon="1.79005">
        <ele>114</ele>
        <time>2023-12-20T11:50:22Z</time>
      </trkpt>
      <trkpt lat="48.79785" lon="1.79012">
        <ele>114.2</ele>
        <time>2023-12-20T11:50:23Z</time>
      </trkpt>
      <trkpt lat="48.79783" lon="1.79018">
        <ele>114.2</ele>
        <time>2023-12-20T11:50:24Z</time>
      </trkpt>
      <trkpt lat="48.7978" lon="1.79024">
        <ele>114.2</ele>
        <time>2023-12-20T11:50:25Z</time>
      </trkpt>
      <trkpt lat="48.79777" lon="1.79031">
        <ele>114.8</ele>
        <time>2023-12-20T11:50:26Z</time>
      </trkpt>
      <trkpt lat="48.79775" lon="1.79039">
        <ele>115</ele>
        <time>2023-12-20T11:50:27Z</time>
      </trkpt>
      <trkpt lat="48.79773" lon="1.79046">
        <ele>115</ele>
        <time>2023-12-20T11:50:28Z</time>
      </trkpt>
      <trkpt lat="48.79771" lon="1.79054">
        <ele>115</ele>
        <time>2023-12-20T11:50:29Z</time>
      </trkpt>
      <trkpt lat="48.79768" lon="1.79061">
        <ele>116</ele>
        <time>2023-12-20T11:50:30Z</time>
      </trkpt>
      <trkpt lat="48.79766" lon="1.79069">
        <ele>116.8</ele>
        <time>2023-12-20T11:50:31Z</time>
      </trkpt>
      <trkpt lat="48.79764" lon="1.79076">
        <ele>116.8</ele>
        <time>2023-12-20T11:50:32Z</time>
      </trkpt>
      <trkpt lat="48.79761" lon="1.79084">
        <ele>116.8</ele>
        <time>2023-12-20T11:50:33Z</time>
      </trkpt>
      <trkpt lat="48.79759" lon="1.79091">
        <ele>117.8</ele>
        <time>2023-12-20T11:50:34Z</time>
      </trkpt>
      <trkpt lat="48.79757" lon="1.79099">
        <ele>119</ele>
        <time>2023-12-20T11:50:35Z</time>
      </trkpt>
      <trkpt lat="48.79755" lon="1.79107">
        <ele>119</ele>
        <time>2023-12-20T11:50:36Z</time>
      </trkpt>
      <trkpt lat="48.79752" lon="1.79115">
        <ele>119</ele>
        <time>2023-12-20T11:50:37Z</time>
      </trkpt>
      <trkpt lat="48.7975" lon="1.79123">
        <ele>120</ele>
        <time>2023-12-20T11:50:38Z</time>
      </trkpt>
      <trkpt lat="48.79749" lon="1.79129">
        <ele>120.8</ele>
        <time>2023-12-20T11:50:39Z</time>
      </trkpt>
      <trkpt lat="48.79747" lon="1.79136">
        <ele>120.8</ele>
        <time>2023-12-20T11:50:40Z</time>
      </trkpt>
      <trkpt lat="48.79746" lon="1.79143">
        <ele>120.8</ele>
        <time>2023-12-20T11:50:41Z</time>
      </trkpt>
      <trkpt lat="48.79744" lon="1.7915">
        <ele>121.4</ele>
        <time>2023-12-20T11:50:42Z</time>
      </trkpt>
      <trkpt lat="48.79743" lon="1.79157">
        <ele>121.2</ele>
        <time>2023-12-20T11:50:43Z</time>
      </trkpt>
      <trkpt lat="48.79741" lon="1.79164">
        <ele>121.2</ele>
        <time>2023-12-20T11:50:44Z</time>
      </trkpt>
      <trkpt lat="48.7974" lon="1.79171">
        <ele>121.2</ele>
        <time>2023-12-20T11:50:45Z</time>
      </trkpt>
      <trkpt lat="48.79739" lon="1.79177">
        <ele>122.2</ele>
        <time>2023-12-20T11:50:46Z</time>
      </trkpt>
      <trkpt lat="48.79738" lon="1.79184">
        <ele>122.6</ele>
        <time>2023-12-20T11:50:47Z</time>
      </trkpt>
      <trkpt lat="48.79737" lon="1.79191">
        <ele>122.6</ele>
        <time>2023-12-20T11:50:48Z</time>
      </trkpt>
      <trkpt lat="48.79737" lon="1.79197">
        <ele>122.6</ele>
        <time>2023-12-20T11:50:49Z</time>
      </trkpt>
      <trkpt lat="48.79736" lon="1.79203">
        <ele>122.6</ele>
        <time>2023-12-20T11:50:50Z</time>
      </trkpt>
      <trkpt lat="48.79735" lon="1.7921">
        <ele>123</ele>
        <time>2023-12-20T11:50:51Z</time>
      </trkpt>
      <trkpt lat="48.79734" lon="1.79217">
        <ele>123</ele>
        <time>2023-12-20T11:50:52Z</time>
      </trkpt>
      <trkpt lat="48.79734" lon="1.79224">
        <ele>123</ele>
        <time>2023-12-20T11:50:53Z</time>
      </trkpt>
      <trkpt lat="48.79733" lon="1.79231">
        <ele>123.6</ele>
        <time>2023-12-20T11:50:54Z</time>
      </trkpt>
      <trkpt lat="48.79732" lon="1.79238">
        <ele>123.8</ele>
        <time>2023-12-20T11:50:55Z</time>
      </trkpt>
      <trkpt lat="48.79732" lon="1.79245">
        <ele>123.8</ele>
        <time>2023-12-20T11:50:56Z</time>
      </trkpt>
      <trkpt lat="48.79731" lon="1.79252">
        <ele>123.8</ele>
        <time>2023-12-20T11:50:57Z</time>
      </trkpt>
      <trkpt lat="48.7973" lon="1.79259">
        <ele>124</ele>
        <time>2023-12-20T11:50:58Z</time>
      </trkpt>
      <trkpt lat="48.7973" lon="1.79266">
        <ele>124.2</ele>
        <time>2023-12-20T11:50:59Z</time>
      </trkpt>
      <trkpt lat="48.79729" lon="1.79273">
        <ele>124.2</ele>
        <time>2023-12-20T11:51:00Z</time>
      </trkpt>
      <trkpt lat="48.79729" lon="1.7928">
        <ele>124.2</ele>
        <time>2023-12-20T11:51:01Z</time>
      </trkpt>
      <trkpt lat="48.79728" lon="1.79287">
        <ele>124.8</ele>
        <time>2023-12-20T11:51:02Z</time>
      </trkpt>
      <trkpt lat="48.79728" lon="1.79294">
        <ele>125.2</ele>
        <time>2023-12-20T11:51:03Z</time>
      </trkpt>
      <trkpt lat="48.79728" lon="1.79301">
        <ele>125.2</ele>
        <time>2023-12-20T11:51:04Z</time>
      </trkpt>
      <trkpt lat="48.79727" lon="1.79308">
        <ele>125.2</ele>
        <time>2023-12-20T11:51:05Z</time>
      </trkpt>
      <trkpt lat="48.79727" lon="1.79315">
        <ele>125.2</ele>
        <time>2023-12-20T11:51:06Z</time>
      </trkpt>
      <trkpt lat="48.79726" lon="1.79322">
        <ele>125.6</ele>
        <time>2023-12-20T11:51:07Z</time>
      </trkpt>
      <trkpt lat="48.79725" lon="1.79328">
        <ele>125.6</ele>
        <time>2023-12-20T11:51:08Z</time>
      </trkpt>
      <trkpt lat="48.79724" lon="1.79335">
        <ele>125.6</ele>
        <time>2023-12-20T11:51:09Z</time>
      </trkpt>
      <trkpt lat="48.79723" lon="1.79341">
        <ele>126.2</ele>
        <time>2023-12-20T11:51:10Z</time>
      </trkpt>
      <trkpt lat="48.79722" lon="1.79348">
        <ele>126.4</ele>
        <time>2023-12-20T11:51:11Z</time>
      </trkpt>
      <trkpt lat="48.7972" lon="1.79354">
        <ele>126.4</ele>
        <time>2023-12-20T11:51:12Z</time>
      </trkpt>
      <trkpt lat="48.79719" lon="1.7936">
        <ele>126.4</ele>
        <time>2023-12-20T11:51:13Z</time>
      </trkpt>
      <trkpt lat="48.79716" lon="1.79366">
        <ele>126.8</ele>
        <time>2023-12-20T11:51:14Z</time>
      </trkpt>
      <trkpt lat="48.79715" lon="1.79372">
        <ele>127</ele>
        <time>2023-12-20T11:51:15Z</time>
      </trkpt>
      <trkpt lat="48.79713" lon="1.79378">
        <ele>127</ele>
        <time>2023-12-20T11:51:16Z</time>
      </trkpt>
      <trkpt lat="48.79711" lon="1.79384">
        <ele>127</ele>
        <time>2023-12-20T11:51:17Z</time>
      </trkpt>
      <trkpt lat="48.79709" lon="1.79391">
        <ele>127.4</ele>
        <time>2023-12-20T11:51:18Z</time>
      </trkpt>
      <trkpt lat="48.79708" lon="1.79397">
        <ele>127.6</ele>
        <time>2023-12-20T11:51:19Z</time>
      </trkpt>
      <trkpt lat="48.79706" lon="1.79403">
        <ele>127.6</ele>
        <time>2023-12-20T11:51:20Z</time>
      </trkpt>
      <trkpt lat="48.79704" lon="1.79409">
        <ele>127.6</ele>
        <time>2023-12-20T11:51:21Z</time>
      </trkpt>
      <trkpt lat="48.79702" lon="1.79416">
        <ele>128</ele>
        <time>2023-12-20T11:51:22Z</time>
      </trkpt>
      <trkpt lat="48.797" lon="1.79422">
        <ele>128.6</ele>
        <time>2023-12-20T11:51:23Z</time>
      </trkpt>
      <trkpt lat="48.79699" lon="1.79428">
        <ele>128.6</ele>
        <time>2023-12-20T11:51:24Z</time>
      </trkpt>
      <trkpt lat="48.79697" lon="1.79435">
        <ele>128.6</ele>
        <time>2023-12-20T11:51:25Z</time>
      </trkpt>
      <trkpt lat="48.79695" lon="1.79441">
        <ele>128.6</ele>
        <time>2023-12-20T11:51:26Z</time>
      </trkpt>
      <trkpt lat="48.79693" lon="1.79448">
        <ele>128.6</ele>
        <time>2023-12-20T11:51:27Z</time>
      </trkpt>
      <trkpt lat="48.79692" lon="1.79455">
        <ele>128.6</ele>
        <time>2023-12-20T11:51:28Z</time>
      </trkpt>
      <trkpt lat="48.7969" lon="1.79462">
        <ele>128.6</ele>
        <time>2023-12-20T11:51:29Z</time>
      </trkpt>
      <trkpt lat="48.79688" lon="1.79469">
        <ele>129.6</ele>
        <time>2023-12-20T11:51:30Z</time>
      </trkpt>
      <trkpt lat="48.79687" lon="1.79476">
        <ele>130</ele>
        <time>2023-12-20T11:51:31Z</time>
      </trkpt>
      <trkpt lat="48.79685" lon="1.79483">
        <ele>130</ele>
        <time>2023-12-20T11:51:32Z</time>
      </trkpt>
      <trkpt lat="48.79683" lon="1.7949">
        <ele>130</ele>
        <time>2023-12-20T11:51:33Z</time>
      </trkpt>
      <trkpt lat="48.7968" lon="1.79496">
        <ele>131</ele>
        <time>2023-12-20T11:51:34Z</time>
      </trkpt>
      <trkpt lat="48.79678" lon="1.79503">
        <ele>130.6</ele>
        <time>2023-12-20T11:51:35Z</time>
      </trkpt>
      <trkpt lat="48.79675" lon="1.79509">
        <ele>130.6</ele>
        <time>2023-12-20T11:51:36Z</time>
      </trkpt>
      <trkpt lat="48.79673" lon="1.79515">
        <ele>130.6</ele>
        <time>2023-12-20T11:51:37Z</time>
      </trkpt>
      <trkpt lat="48.7967" lon="1.79521">
        <ele>130.6</ele>
        <time>2023-12-20T11:51:38Z</time>
      </trkpt>
      <trkpt lat="48.79667" lon="1.79527">
        <ele>131.2</ele>
        <time>2023-12-20T11:51:39Z</time>
      </trkpt>
      <trkpt lat="48.79664" lon="1.79533">
        <ele>131.2</ele>
        <time>2023-12-20T11:51:40Z</time>
      </trkpt>
      <trkpt lat="48.7966" lon="1.79538">
        <ele>131.2</ele>
        <time>2023-12-20T11:51:41Z</time>
      </trkpt>
      <trkpt lat="48.79657" lon="1.79543">
        <ele>131.6</ele>
        <time>2023-12-20T11:51:42Z</time>
      </trkpt>
      <trkpt lat="48.79653" lon="1.79548">
        <ele>131.8</ele>
        <time>2023-12-20T11:51:43Z</time>
      </trkpt>
      <trkpt lat="48.7965" lon="1.79553">
        <ele>131.8</ele>
        <time>2023-12-20T11:51:44Z</time>
      </trkpt>
      <trkpt lat="48.79646" lon="1.79558">
        <ele>131.8</ele>
        <time>2023-12-20T11:51:45Z</time>
      </trkpt>
      <trkpt lat="48.79643" lon="1.79562">
        <ele>131.8</ele>
        <time>2023-12-20T11:51:46Z</time>
      </trkpt>
      <trkpt lat="48.7964" lon="1.79568">
        <ele>132.4</ele>
        <time>2023-12-20T11:51:47Z</time>
      </trkpt>
      <trkpt lat="48.79636" lon="1.79573">
        <ele>132.4</ele>
        <time>2023-12-20T11:51:48Z</time>
      </trkpt>
      <trkpt lat="48.79633" lon="1.79578">
        <ele>132.4</ele>
        <time>2023-12-20T11:51:49Z</time>
      </trkpt>
      <trkpt lat="48.7963" lon="1.79583">
        <ele>132.4</ele>
        <time>2023-12-20T11:51:50Z</time>
      </trkpt>
      <trkpt lat="48.79626" lon="1.79588">
        <ele>133</ele>
        <time>2023-12-20T11:51:51Z</time>
      </trkpt>
      <trkpt lat="48.79623" lon="1.79593">
        <ele>133</ele>
        <time>2023-12-20T11:51:52Z</time>
      </trkpt>
      <trkpt lat="48.7962" lon="1.79597">
        <ele>133</ele>
        <time>2023-12-20T11:51:53Z</time>
      </trkpt>
      <trkpt lat="48.79617" lon="1.79602">
        <ele>133</ele>
        <time>2023-12-20T11:51:54Z</time>
      </trkpt>
      <trkpt lat="48.79614" lon="1.79607">
        <ele>132.2</ele>
        <time>2023-12-20T11:51:55Z</time>
      </trkpt>
      <trkpt lat="48.7961" lon="1.79612">
        <ele>132.2</ele>
        <time>2023-12-20T11:51:56Z</time>
      </trkpt>
      <trkpt lat="48.79607" lon="1.79618">
        <ele>132.2</ele>
        <time>2023-12-20T11:51:57Z</time>
      </trkpt>
      <trkpt lat="48.79603" lon="1.79624">
        <ele>131.6</ele>
        <time>2023-12-20T11:51:58Z</time>
      </trkpt>
      <trkpt lat="48.796" lon="1.7963">
        <ele>131.2</ele>
        <time>2023-12-20T11:51:59Z</time>
      </trkpt>
      <trkpt lat="48.79595" lon="1.79636">
        <ele>131.2</ele>
        <time>2023-12-20T11:52:00Z</time>
      </trkpt>
      <trkpt lat="48.79591" lon="1.79641">
        <ele>131.2</ele>
        <time>2023-12-20T11:52:01Z</time>
      </trkpt>
      <trkpt lat="48.79586" lon="1.79646">
        <ele>131.2</ele>
        <time>2023-12-20T11:52:02Z</time>
      </trkpt>
      <trkpt lat="48.7958" lon="1.7965">
        <ele>130</ele>
        <time>2023-12-20T11:52:03Z</time>
      </trkpt>
      <trkpt lat="48.79575" lon="1.79654">
        <ele>130</ele>
        <time>2023-12-20T11:52:04Z</time>
      </trkpt>
      <trkpt lat="48.79569" lon="1.79657">
        <ele>130</ele>
        <time>2023-12-20T11:52:05Z</time>
      </trkpt>
      <trkpt lat="48.79564" lon="1.79661">
        <ele>129.8</ele>
        <time>2023-12-20T11:52:06Z</time>
      </trkpt>
      <trkpt lat="48.79559" lon="1.79664">
        <ele>130</ele>
        <time>2023-12-20T11:52:07Z</time>
      </trkpt>
      <trkpt lat="48.79553" lon="1.79667">
        <ele>130</ele>
        <time>2023-12-20T11:52:08Z</time>
      </trkpt>
      <trkpt lat="48.79548" lon="1.79671">
        <ele>130</ele>
        <time>2023-12-20T11:52:09Z</time>
      </trkpt>
      <trkpt lat="48.79543" lon="1.79674">
        <ele>130</ele>
        <time>2023-12-20T11:52:10Z</time>
      </trkpt>
      <trkpt lat="48.79537" lon="1.79677">
        <ele>130</ele>
        <time>2023-12-20T11:52:11Z</time>
      </trkpt>
      <trkpt lat="48.79532" lon="1.79678">
        <ele>130</ele>
        <time>2023-12-20T11:52:12Z</time>
      </trkpt>
      <trkpt lat="48.79527" lon="1.79678">
        <ele>130</ele>
        <time>2023-12-20T11:52:13Z</time>
      </trkpt>
      <trkpt lat="48.79521" lon="1.79679">
        <ele>130</ele>
        <time>2023-12-20T11:52:14Z</time>
      </trkpt>
      <trkpt lat="48.79517" lon="1.79684">
        <ele>130.4</ele>
        <time>2023-12-20T11:52:15Z</time>
      </trkpt>
      <trkpt lat="48.79514" lon="1.79691">
        <ele>130.4</ele>
        <time>2023-12-20T11:52:16Z</time>
      </trkpt>
      <trkpt lat="48.79513" lon="1.797">
        <ele>130.4</ele>
        <time>2023-12-20T11:52:17Z</time>
      </trkpt>
      <trkpt lat="48.79511" lon="1.79709">
        <ele>129.4</ele>
        <time>2023-12-20T11:52:18Z</time>
      </trkpt>
      <trkpt lat="48.79508" lon="1.79717">
        <ele>128.2</ele>
        <time>2023-12-20T11:52:19Z</time>
      </trkpt>
      <trkpt lat="48.79504" lon="1.79725">
        <ele>128.2</ele>
        <time>2023-12-20T11:52:20Z</time>
      </trkpt>
      <trkpt lat="48.795" lon="1.79733">
        <ele>128.2</ele>
        <time>2023-12-20T11:52:21Z</time>
      </trkpt>
      <trkpt lat="48.79495" lon="1.7974">
        <ele>127.2</ele>
        <time>2023-12-20T11:52:22Z</time>
      </trkpt>
      <trkpt lat="48.7949" lon="1.79748">
        <ele>127.2</ele>
        <time>2023-12-20T11:52:23Z</time>
      </trkpt>
      <trkpt lat="48.79485" lon="1.79756">
        <ele>127.2</ele>
        <time>2023-12-20T11:52:24Z</time>
      </trkpt>
      <trkpt lat="48.7948" lon="1.79763">
        <ele>127.2</ele>
        <time>2023-12-20T11:52:25Z</time>
      </trkpt>
      <trkpt lat="48.79476" lon="1.79771">
        <ele>128</ele>
        <time>2023-12-20T11:52:26Z</time>
      </trkpt>
      <trkpt lat="48.79471" lon="1.79779">
        <ele>127.6</ele>
        <time>2023-12-20T11:52:27Z</time>
      </trkpt>
      <trkpt lat="48.79467" lon="1.79788">
        <ele>127.6</ele>
        <time>2023-12-20T11:52:28Z</time>
      </trkpt>
      <trkpt lat="48.79464" lon="1.79797">
        <ele>127.6</ele>
        <time>2023-12-20T11:52:29Z</time>
      </trkpt>
      <trkpt lat="48.79462" lon="1.79805">
        <ele>128.6</ele>
        <time>2023-12-20T11:52:30Z</time>
      </trkpt>
      <trkpt lat="48.7946" lon="1.79813">
        <ele>129.6</ele>
        <time>2023-12-20T11:52:31Z</time>
      </trkpt>
      <trkpt lat="48.7946" lon="1.79822">
        <ele>129.6</ele>
        <time>2023-12-20T11:52:32Z</time>
      </trkpt>
      <trkpt lat="48.79459" lon="1.79824">
        <ele>129.6</ele>
        <time>2023-12-20T11:52:33Z</time>
      </trkpt>
      <trkpt lat="48.79459" lon="1.79826">
        <ele>129.6</ele>
        <time>2023-12-20T11:52:34Z</time>
      </trkpt>
      <trkpt lat="48.79459" lon="1.79828">
        <ele>129.8</ele>
        <time>2023-12-20T11:52:35Z</time>
      </trkpt>
      <trkpt lat="48.79458" lon="1.7983">
        <ele>129.8</ele>
        <time>2023-12-20T11:52:36Z</time>
      </trkpt>
      <trkpt lat="48.79458" lon="1.79832">
        <ele>129.8</ele>
        <time>2023-12-20T11:52:37Z</time>
      </trkpt>
      <trkpt lat="48.79458" lon="1.79833">
        <ele>129.8</ele>
        <time>2023-12-20T11:52:38Z</time>
      </trkpt>
      <trkpt lat="48.79458" lon="1.79835">
        <ele>129.8</ele>
        <time>2023-12-20T11:52:39Z</time>
      </trkpt>
      <trkpt lat="48.79457" lon="1.79837">
        <ele>129.6</ele>
        <time>2023-12-20T11:52:55Z</time>
      </trkpt>
      <trkpt lat="48.79457" lon="1.79839">
        <ele>129.6</ele>
        <time>2023-12-20T11:52:56Z</time>
      </trkpt>
      <trkpt lat="48.79457" lon="1.79844">
        <ele>129.6</ele>
        <time>2023-12-20T11:52:57Z</time>
      </trkpt>
      <trkpt lat="48.79457" lon="1.79849">
        <ele>129.6</ele>
        <time>2023-12-20T11:52:58Z</time>
      </trkpt>
      <trkpt lat="48.79456" lon="1.79854">
        <ele>129</ele>
        <time>2023-12-20T11:52:59Z</time>
      </trkpt>
      <trkpt lat="48.79455" lon="1.79861">
        <ele>129</ele>
        <time>2023-12-20T11:53:00Z</time>
      </trkpt>
      <trkpt lat="48.79455" lon="1.79868">
        <ele>129</ele>
        <time>2023-12-20T11:53:01Z</time>
      </trkpt>
      <trkpt lat="48.79453" lon="1.79876">
        <ele>128</ele>
        <time>2023-12-20T11:53:02Z</time>
      </trkpt>
      <trkpt lat="48.7945" lon="1.79886">
        <ele>128.8</ele>
        <time>2023-12-20T11:53:03Z</time>
      </trkpt>
      <trkpt lat="48.79447" lon="1.79896">
        <ele>128.8</ele>
        <time>2023-12-20T11:53:04Z</time>
      </trkpt>
      <trkpt lat="48.79444" lon="1.79906">
        <ele>128.8</ele>
        <time>2023-12-20T11:53:05Z</time>
      </trkpt>
      <trkpt lat="48.79442" lon="1.79916">
        <ele>128.8</ele>
        <time>2023-12-20T11:53:06Z</time>
      </trkpt>
      <trkpt lat="48.79439" lon="1.79926">
        <ele>128</ele>
        <time>2023-12-20T11:53:07Z</time>
      </trkpt>
      <trkpt lat="48.79435" lon="1.79935">
        <ele>128</ele>
        <time>2023-12-20T11:53:08Z</time>
      </trkpt>
      <trkpt lat="48.79432" lon="1.79944">
        <ele>128</ele>
        <time>2023-12-20T11:53:09Z</time>
      </trkpt>
      <trkpt lat="48.79429" lon="1.79954">
        <ele>128</ele>
        <time>2023-12-20T11:53:10Z</time>
      </trkpt>
      <trkpt lat="48.79425" lon="1.79964">
        <ele>127</ele>
        <time>2023-12-20T11:53:11Z</time>
      </trkpt>
      <trkpt lat="48.79422" lon="1.79973">
        <ele>127</ele>
        <time>2023-12-20T11:53:12Z</time>
      </trkpt>
      <trkpt lat="48.79418" lon="1.79983">
        <ele>127</ele>
        <time>2023-12-20T11:53:13Z</time>
      </trkpt>
      <trkpt lat="48.79414" lon="1.79993">
        <ele>126</ele>
        <time>2023-12-20T11:53:14Z</time>
      </trkpt>
      <trkpt lat="48.79409" lon="1.80003">
        <ele>125.6</ele>
        <time>2023-12-20T11:53:15Z</time>
      </trkpt>
      <trkpt lat="48.79403" lon="1.80012">
        <ele>125.6</ele>
        <time>2023-12-20T11:53:16Z</time>
      </trkpt>
      <trkpt lat="48.79398" lon="1.80021">
        <ele>125.6</ele>
        <time>2023-12-20T11:53:17Z</time>
      </trkpt>
      <trkpt lat="48.79392" lon="1.8003">
        <ele>125.2</ele>
        <time>2023-12-20T11:53:18Z</time>
      </trkpt>
      <trkpt lat="48.79385" lon="1.80039">
        <ele>123.8</ele>
        <time>2023-12-20T11:53:19Z</time>
      </trkpt>
      <trkpt lat="48.79378" lon="1.80047">
        <ele>123.8</ele>
        <time>2023-12-20T11:53:20Z</time>
      </trkpt>
      <trkpt lat="48.79371" lon="1.80054">
        <ele>123.8</ele>
        <time>2023-12-20T11:53:21Z</time>
      </trkpt>
      <trkpt lat="48.79364" lon="1.80061">
        <ele>124.2</ele>
        <time>2023-12-20T11:53:22Z</time>
      </trkpt>
      <trkpt lat="48.79357" lon="1.80068">
        <ele>124.4</ele>
        <time>2023-12-20T11:53:23Z</time>
      </trkpt>
      <trkpt lat="48.79349" lon="1.80074">
        <ele>124.4</ele>
        <time>2023-12-20T11:53:24Z</time>
      </trkpt>
      <trkpt lat="48.79341" lon="1.80079">
        <ele>124.4</ele>
        <time>2023-12-20T11:53:25Z</time>
      </trkpt>
      <trkpt lat="48.79334" lon="1.80085">
        <ele>124.4</ele>
        <time>2023-12-20T11:53:26Z</time>
      </trkpt>
      <trkpt lat="48.79326" lon="1.80089">
        <ele>123.4</ele>
        <time>2023-12-20T11:53:27Z</time>
      </trkpt>
      <trkpt lat="48.79318" lon="1.80094">
        <ele>123.4</ele>
        <time>2023-12-20T11:53:28Z</time>
      </trkpt>
      <trkpt lat="48.7931" lon="1.80098">
        <ele>123.4</ele>
        <time>2023-12-20T11:53:29Z</time>
      </trkpt>
      <trkpt lat="48.79302" lon="1.80103">
        <ele>122.4</ele>
        <time>2023-12-20T11:53:30Z</time>
      </trkpt>
      <trkpt lat="48.79294" lon="1.80107">
        <ele>120.2</ele>
        <time>2023-12-20T11:53:31Z</time>
      </trkpt>
      <trkpt lat="48.79286" lon="1.80112">
        <ele>120.2</ele>
        <time>2023-12-20T11:53:32Z</time>
      </trkpt>
      <trkpt lat="48.79278" lon="1.80116">
        <ele>120.2</ele>
        <time>2023-12-20T11:53:33Z</time>
      </trkpt>
      <trkpt lat="48.79269" lon="1.80121">
        <ele>120.2</ele>
        <time>2023-12-20T11:53:34Z</time>
      </trkpt>
      <trkpt lat="48.79261" lon="1.80125">
        <ele>120.2</ele>
        <time>2023-12-20T11:53:35Z</time>
      </trkpt>
      <trkpt lat="48.79253" lon="1.80129">
        <ele>120.2</ele>
        <time>2023-12-20T11:53:36Z</time>
      </trkpt>
      <trkpt lat="48.79245" lon="1.80134">
        <ele>120.2</ele>
        <time>2023-12-20T11:53:37Z</time>
      </trkpt>
      <trkpt lat="48.79236" lon="1.80138">
        <ele>119.2</ele>
        <time>2023-12-20T11:53:38Z</time>
      </trkpt>
      <trkpt lat="48.79228" lon="1.80143">
        <ele>118</ele>
        <time>2023-12-20T11:53:39Z</time>
      </trkpt>
      <trkpt lat="48.79219" lon="1.80147">
        <ele>118</ele>
        <time>2023-12-20T11:53:40Z</time>
      </trkpt>
      <trkpt lat="48.79211" lon="1.80151">
        <ele>118</ele>
        <time>2023-12-20T11:53:41Z</time>
      </trkpt>
      <trkpt lat="48.79202" lon="1.80156">
        <ele>118</ele>
        <time>2023-12-20T11:53:42Z</time>
      </trkpt>
      <trkpt lat="48.79194" lon="1.8016">
        <ele>117.8</ele>
        <time>2023-12-20T11:53:43Z</time>
      </trkpt>
      <trkpt lat="48.79186" lon="1.80165">
        <ele>117.8</ele>
        <time>2023-12-20T11:53:44Z</time>
      </trkpt>
      <trkpt lat="48.79177" lon="1.80169">
        <ele>117.8</ele>
        <time>2023-12-20T11:53:45Z</time>
      </trkpt>
      <trkpt lat="48.79168" lon="1.80174">
        <ele>116.8</ele>
        <time>2023-12-20T11:53:46Z</time>
      </trkpt>
      <trkpt lat="48.7916" lon="1.80178">
        <ele>116</ele>
        <time>2023-12-20T11:53:47Z</time>
      </trkpt>
      <trkpt lat="48.79151" lon="1.80183">
        <ele>116</ele>
        <time>2023-12-20T11:53:48Z</time>
      </trkpt>
      <trkpt lat="48.79142" lon="1.80188">
        <ele>116</ele>
        <time>2023-12-20T11:53:49Z</time>
      </trkpt>
      <trkpt lat="48.79134" lon="1.80193">
        <ele>115</ele>
        <time>2023-12-20T11:53:50Z</time>
      </trkpt>
      <trkpt lat="48.79125" lon="1.80198">
        <ele>114.8</ele>
        <time>2023-12-20T11:53:51Z</time>
      </trkpt>
      <trkpt lat="48.79116" lon="1.80203">
        <ele>114.8</ele>
        <time>2023-12-20T11:53:52Z</time>
      </trkpt>
      <trkpt lat="48.79108" lon="1.80209">
        <ele>114.8</ele>
        <time>2023-12-20T11:53:53Z</time>
      </trkpt>
      <trkpt lat="48.79099" lon="1.80214">
        <ele>113.8</ele>
        <time>2023-12-20T11:53:54Z</time>
      </trkpt>
      <trkpt lat="48.79091" lon="1.8022">
        <ele>113.6</ele>
        <time>2023-12-20T11:53:55Z</time>
      </trkpt>
      <trkpt lat="48.79083" lon="1.80227">
        <ele>113.6</ele>
        <time>2023-12-20T11:53:56Z</time>
      </trkpt>
      <trkpt lat="48.79075" lon="1.80233">
        <ele>113.6</ele>
        <time>2023-12-20T11:53:57Z</time>
      </trkpt>
      <trkpt lat="48.79067" lon="1.8024">
        <ele>114.6</ele>
        <time>2023-12-20T11:53:58Z</time>
      </trkpt>
      <trkpt lat="48.79059" lon="1.80246">
        <ele>115.6</ele>
        <time>2023-12-20T11:53:59Z</time>
      </trkpt>
      <trkpt lat="48.79051" lon="1.80253">
        <ele>115.6</ele>
        <time>2023-12-20T11:54:00Z</time>
      </trkpt>
      <trkpt lat="48.79044" lon="1.8026">
        <ele>115.6</ele>
        <time>2023-12-20T11:54:01Z</time>
      </trkpt>
      <trkpt lat="48.79037" lon="1.80266">
        <ele>115.6</ele>
        <time>2023-12-20T11:54:02Z</time>
      </trkpt>
      <trkpt lat="48.79029" lon="1.80272">
        <ele>115.4</ele>
        <time>2023-12-20T11:54:03Z</time>
      </trkpt>
      <trkpt lat="48.79023" lon="1.80278">
        <ele>115.4</ele>
        <time>2023-12-20T11:54:04Z</time>
      </trkpt>
      <trkpt lat="48.79016" lon="1.80284">
        <ele>115.4</ele>
        <time>2023-12-20T11:54:05Z</time>
      </trkpt>
      <trkpt lat="48.79009" lon="1.8029">
        <ele>116.4</ele>
        <time>2023-12-20T11:54:06Z</time>
      </trkpt>
      <trkpt lat="48.79003" lon="1.80295">
        <ele>116.8</ele>
        <time>2023-12-20T11:54:07Z</time>
      </trkpt>
      <trkpt lat="48.78997" lon="1.803">
        <ele>116.8</ele>
        <time>2023-12-20T11:54:08Z</time>
      </trkpt>
      <trkpt lat="48.78991" lon="1.80305">
        <ele>116.8</ele>
        <time>2023-12-20T11:54:09Z</time>
      </trkpt>
      <trkpt lat="48.78986" lon="1.8031">
        <ele>117.8</ele>
        <time>2023-12-20T11:54:10Z</time>
      </trkpt>
      <trkpt lat="48.78981" lon="1.80315">
        <ele>118.6</ele>
        <time>2023-12-20T11:54:11Z</time>
      </trkpt>
      <trkpt lat="48.78976" lon="1.80319">
        <ele>118.6</ele>
        <time>2023-12-20T11:54:12Z</time>
      </trkpt>
      <trkpt lat="48.78971" lon="1.80323">
        <ele>118.6</ele>
        <time>2023-12-20T11:54:13Z</time>
      </trkpt>
      <trkpt lat="48.78966" lon="1.80327">
        <ele>119.6</ele>
        <time>2023-12-20T11:54:14Z</time>
      </trkpt>
      <trkpt lat="48.78961" lon="1.80331">
        <ele>119.8</ele>
        <time>2023-12-20T11:54:15Z</time>
      </trkpt>
      <trkpt lat="48.78956" lon="1.80335">
        <ele>119.8</ele>
        <time>2023-12-20T11:54:16Z</time>
      </trkpt>
      <trkpt lat="48.78952" lon="1.80339">
        <ele>119.8</ele>
        <time>2023-12-20T11:54:17Z</time>
      </trkpt>
      <trkpt lat="48.78947" lon="1.80343">
        <ele>120.6</ele>
        <time>2023-12-20T11:54:18Z</time>
      </trkpt>
      <trkpt lat="48.78943" lon="1.80347">
        <ele>121.2</ele>
        <time>2023-12-20T11:54:19Z</time>
      </trkpt>
      <trkpt lat="48.78938" lon="1.8035">
        <ele>121.2</ele>
        <time>2023-12-20T11:54:20Z</time>
      </trkpt>
      <trkpt lat="48.78934" lon="1.80354">
        <ele>121.2</ele>
        <time>2023-12-20T11:54:21Z</time>
      </trkpt>
      <trkpt lat="48.78929" lon="1.80358">
        <ele>121.6</ele>
        <time>2023-12-20T11:54:22Z</time>
      </trkpt>
      <trkpt lat="48.78925" lon="1.80362">
        <ele>121.4</ele>
        <time>2023-12-20T11:54:23Z</time>
      </trkpt>
      <trkpt lat="48.7892" lon="1.80365">
        <ele>121.4</ele>
        <time>2023-12-20T11:54:24Z</time>
      </trkpt>
      <trkpt lat="48.78916" lon="1.80369">
        <ele>121.4</ele>
        <time>2023-12-20T11:54:25Z</time>
      </trkpt>
      <trkpt lat="48.78911" lon="1.80373">
        <ele>121.4</ele>
        <time>2023-12-20T11:54:26Z</time>
      </trkpt>
      <trkpt lat="48.78907" lon="1.80376">
        <ele>122.2</ele>
        <time>2023-12-20T11:54:27Z</time>
      </trkpt>
      <trkpt lat="48.78902" lon="1.8038">
        <ele>122.2</ele>
        <time>2023-12-20T11:54:28Z</time>
      </trkpt>
      <trkpt lat="48.78898" lon="1.80383">
        <ele>122.2</ele>
        <time>2023-12-20T11:54:29Z</time>
      </trkpt>
      <trkpt lat="48.78893" lon="1.80387">
        <ele>122.2</ele>
        <time>2023-12-20T11:54:30Z</time>
      </trkpt>
      <trkpt lat="48.78889" lon="1.8039">
        <ele>123.4</ele>
        <time>2023-12-20T11:54:31Z</time>
      </trkpt>
      <trkpt lat="48.78885" lon="1.80394">
        <ele>123.4</ele>
        <time>2023-12-20T11:54:32Z</time>
      </trkpt>
      <trkpt lat="48.7888" lon="1.80398">
        <ele>123.4</ele>
        <time>2023-12-20T11:54:33Z</time>
      </trkpt>
      <trkpt lat="48.78876" lon="1.80401">
        <ele>123.4</ele>
        <time>2023-12-20T11:54:34Z</time>
      </trkpt>
      <trkpt lat="48.78871" lon="1.80405">
        <ele>123.8</ele>
        <time>2023-12-20T11:54:35Z</time>
      </trkpt>
      <trkpt lat="48.78867" lon="1.80408">
        <ele>123.8</ele>
        <time>2023-12-20T11:54:36Z</time>
      </trkpt>
      <trkpt lat="48.78862" lon="1.80411">
        <ele>123.8</ele>
        <time>2023-12-20T11:54:37Z</time>
      </trkpt>
      <trkpt lat="48.78858" lon="1.80414">
        <ele>124.6</ele>
        <time>2023-12-20T11:54:38Z</time>
      </trkpt>
      <trkpt lat="48.78853" lon="1.80417">
        <ele>125</ele>
        <time>2023-12-20T11:54:39Z</time>
      </trkpt>
      <trkpt lat="48.78848" lon="1.8042">
        <ele>125</ele>
        <time>2023-12-20T11:54:40Z</time>
      </trkpt>
      <trkpt lat="48.78843" lon="1.80423">
        <ele>125</ele>
        <time>2023-12-20T11:54:41Z</time>
      </trkpt>
      <trkpt lat="48.78839" lon="1.80426">
        <ele>125</ele>
        <time>2023-12-20T11:54:42Z</time>
      </trkpt>
      <trkpt lat="48.78834" lon="1.80429">
        <ele>125.4</ele>
        <time>2023-12-20T11:54:43Z</time>
      </trkpt>
      <trkpt lat="48.78829" lon="1.80431">
        <ele>125.4</ele>
        <time>2023-12-20T11:54:44Z</time>
      </trkpt>
      <trkpt lat="48.78825" lon="1.80434">
        <ele>125.4</ele>
        <time>2023-12-20T11:54:45Z</time>
      </trkpt>
      <trkpt lat="48.7882" lon="1.80436">
        <ele>126.4</ele>
        <time>2023-12-20T11:54:46Z</time>
      </trkpt>
      <trkpt lat="48.78816" lon="1.80438">
        <ele>126.6</ele>
        <time>2023-12-20T11:54:47Z</time>
      </trkpt>
      <trkpt lat="48.78811" lon="1.8044">
        <ele>126.6</ele>
        <time>2023-12-20T11:54:48Z</time>
      </trkpt>
      <trkpt lat="48.78806" lon="1.80441">
        <ele>126.6</ele>
        <time>2023-12-20T11:54:49Z</time>
      </trkpt>
      <trkpt lat="48.78802" lon="1.80443">
        <ele>127</ele>
        <time>2023-12-20T11:54:50Z</time>
      </trkpt>
      <trkpt lat="48.78797" lon="1.80443">
        <ele>127.6</ele>
        <time>2023-12-20T11:54:51Z</time>
      </trkpt>
      <trkpt lat="48.78793" lon="1.80444">
        <ele>127.6</ele>
        <time>2023-12-20T11:54:52Z</time>
      </trkpt>
      <trkpt lat="48.78788" lon="1.80445">
        <ele>127.6</ele>
        <time>2023-12-20T11:54:53Z</time>
      </trkpt>
      <trkpt lat="48.78784" lon="1.80446">
        <ele>127.6</ele>
        <time>2023-12-20T11:54:54Z</time>
      </trkpt>
      <trkpt lat="48.78779" lon="1.80447">
        <ele>128</ele>
        <time>2023-12-20T11:54:55Z</time>
      </trkpt>
      <trkpt lat="48.78775" lon="1.80448">
        <ele>128</ele>
        <time>2023-12-20T11:54:56Z</time>
      </trkpt>
      <trkpt lat="48.7877" lon="1.80449">
        <ele>128</ele>
        <time>2023-12-20T11:54:57Z</time>
      </trkpt>
      <trkpt lat="48.78765" lon="1.80449">
        <ele>128</ele>
        <time>2023-12-20T11:54:58Z</time>
      </trkpt>
      <trkpt lat="48.78761" lon="1.80451">
        <ele>128.4</ele>
        <time>2023-12-20T11:54:59Z</time>
      </trkpt>
      <trkpt lat="48.78756" lon="1.80451">
        <ele>128.4</ele>
        <time>2023-12-20T11:55:00Z</time>
      </trkpt>
      <trkpt lat="48.78751" lon="1.80453">
        <ele>128.4</ele>
        <time>2023-12-20T11:55:01Z</time>
      </trkpt>
      <trkpt lat="48.78747" lon="1.80453">
        <ele>128.8</ele>
        <time>2023-12-20T11:55:02Z</time>
      </trkpt>
      <trkpt lat="48.78742" lon="1.80452">
        <ele>129</ele>
        <time>2023-12-20T11:55:03Z</time>
      </trkpt>
      <trkpt lat="48.78738" lon="1.80452">
        <ele>129</ele>
        <time>2023-12-20T11:55:04Z</time>
      </trkpt>
      <trkpt lat="48.78733" lon="1.80452">
        <ele>129</ele>
        <time>2023-12-20T11:55:05Z</time>
      </trkpt>
      <trkpt lat="48.78728" lon="1.80452">
        <ele>129</ele>
        <time>2023-12-20T11:55:06Z</time>
      </trkpt>
      <trkpt lat="48.78724" lon="1.80452">
        <ele>129.6</ele>
        <time>2023-12-20T11:55:07Z</time>
      </trkpt>
      <trkpt lat="48.78719" lon="1.80452">
        <ele>129.6</ele>
        <time>2023-12-20T11:55:08Z</time>
      </trkpt>
      <trkpt lat="48.78714" lon="1.80452">
        <ele>129.6</ele>
        <time>2023-12-20T11:55:09Z</time>
      </trkpt>
      <trkpt lat="48.7871" lon="1.80451">
        <ele>129.6</ele>
        <time>2023-12-20T11:55:10Z</time>
      </trkpt>
      <trkpt lat="48.78706" lon="1.80452">
        <ele>130.8</ele>
        <time>2023-12-20T11:55:11Z</time>
      </trkpt>
      <trkpt lat="48.78702" lon="1.80452">
        <ele>130.8</ele>
        <time>2023-12-20T11:55:12Z</time>
      </trkpt>
      <trkpt lat="48.78697" lon="1.80453">
        <ele>130.8</ele>
        <time>2023-12-20T11:55:13Z</time>
      </trkpt>
      <trkpt lat="48.78693" lon="1.80453">
        <ele>131.2</ele>
        <time>2023-12-20T11:55:14Z</time>
      </trkpt>
      <trkpt lat="48.78688" lon="1.80453">
        <ele>131.4</ele>
        <time>2023-12-20T11:55:15Z</time>
      </trkpt>
      <trkpt lat="48.78684" lon="1.80453">
        <ele>131.4</ele>
        <time>2023-12-20T11:55:16Z</time>
      </trkpt>
      <trkpt lat="48.78679" lon="1.80453">
        <ele>131.4</ele>
        <time>2023-12-20T11:55:17Z</time>
      </trkpt>
      <trkpt lat="48.78675" lon="1.80453">
        <ele>131.4</ele>
        <time>2023-12-20T11:55:18Z</time>
      </trkpt>
      <trkpt lat="48.7867" lon="1.80455">
        <ele>131.6</ele>
        <time>2023-12-20T11:55:19Z</time>
      </trkpt>
      <trkpt lat="48.78666" lon="1.80456">
        <ele>131.6</ele>
        <time>2023-12-20T11:55:20Z</time>
      </trkpt>
      <trkpt lat="48.78662" lon="1.80456">
        <ele>131.6</ele>
        <time>2023-12-20T11:55:21Z</time>
      </trkpt>
      <trkpt lat="48.78657" lon="1.80456">
        <ele>132.6</ele>
        <time>2023-12-20T11:55:22Z</time>
      </trkpt>
      <trkpt lat="48.78652" lon="1.80456">
        <ele>132</ele>
        <time>2023-12-20T11:55:23Z</time>
      </trkpt>
      <trkpt lat="48.78648" lon="1.80457">
        <ele>132</ele>
        <time>2023-12-20T11:55:24Z</time>
      </trkpt>
      <trkpt lat="48.78643" lon="1.80457">
        <ele>132</ele>
        <time>2023-12-20T11:55:25Z</time>
      </trkpt>
      <trkpt lat="48.78638" lon="1.80457">
        <ele>132.4</ele>
        <time>2023-12-20T11:55:26Z</time>
      </trkpt>
      <trkpt lat="48.78633" lon="1.80457">
        <ele>132.6</ele>
        <time>2023-12-20T11:55:27Z</time>
      </trkpt>
      <trkpt lat="48.78629" lon="1.80457">
        <ele>132.6</ele>
        <time>2023-12-20T11:55:28Z</time>
      </trkpt>
      <trkpt lat="48.78624" lon="1.80458">
        <ele>132.6</ele>
        <time>2023-12-20T11:55:29Z</time>
      </trkpt>
      <trkpt lat="48.78619" lon="1.80458">
        <ele>132.6</ele>
        <time>2023-12-20T11:55:30Z</time>
      </trkpt>
      <trkpt lat="48.78615" lon="1.80459">
        <ele>132.8</ele>
        <time>2023-12-20T11:55:31Z</time>
      </trkpt>
      <trkpt lat="48.7861" lon="1.8046">
        <ele>132.8</ele>
        <time>2023-12-20T11:55:32Z</time>
      </trkpt>
      <trkpt lat="48.78605" lon="1.80461">
        <ele>132.8</ele>
        <time>2023-12-20T11:55:33Z</time>
      </trkpt>
      <trkpt lat="48.78601" lon="1.80463">
        <ele>133.2</ele>
        <time>2023-12-20T11:55:34Z</time>
      </trkpt>
      <trkpt lat="48.78596" lon="1.80465">
        <ele>133.4</ele>
        <time>2023-12-20T11:55:35Z</time>
      </trkpt>
      <trkpt lat="48.78591" lon="1.80467">
        <ele>133.4</ele>
        <time>2023-12-20T11:55:36Z</time>
      </trkpt>
      <trkpt lat="48.78586" lon="1.80469">
        <ele>133.4</ele>
        <time>2023-12-20T11:55:37Z</time>
      </trkpt>
      <trkpt lat="48.78582" lon="1.80472">
        <ele>133.6</ele>
        <time>2023-12-20T11:55:38Z</time>
      </trkpt>
      <trkpt lat="48.78577" lon="1.80475">
        <ele>134</ele>
        <time>2023-12-20T11:55:39Z</time>
      </trkpt>
      <trkpt lat="48.78572" lon="1.80479">
        <ele>134</ele>
        <time>2023-12-20T11:55:40Z</time>
      </trkpt>
      <trkpt lat="48.78568" lon="1.80484">
        <ele>134</ele>
        <time>2023-12-20T11:55:41Z</time>
      </trkpt>
      <trkpt lat="48.78563" lon="1.80488">
        <ele>133.8</ele>
        <time>2023-12-20T11:55:42Z</time>
      </trkpt>
      <trkpt lat="48.78559" lon="1.80493">
        <ele>133.4</ele>
        <time>2023-12-20T11:55:43Z</time>
      </trkpt>
      <trkpt lat="48.78554" lon="1.80498">
        <ele>133.4</ele>
        <time>2023-12-20T11:55:44Z</time>
      </trkpt>
      <trkpt lat="48.7855" lon="1.80503">
        <ele>133.4</ele>
        <time>2023-12-20T11:55:45Z</time>
      </trkpt>
      <trkpt lat="48.78546" lon="1.80507">
        <ele>133.4</ele>
        <time>2023-12-20T11:55:46Z</time>
      </trkpt>
      <trkpt lat="48.78541" lon="1.80512">
        <ele>133.4</ele>
        <time>2023-12-20T11:55:47Z</time>
      </trkpt>
      <trkpt lat="48.78537" lon="1.80517">
        <ele>133.4</ele>
        <time>2023-12-20T11:55:48Z</time>
      </trkpt>
      <trkpt lat="48.78533" lon="1.80522">
        <ele>133.4</ele>
        <time>2023-12-20T11:55:49Z</time>
      </trkpt>
      <trkpt lat="48.78529" lon="1.80527">
        <ele>133.6</ele>
        <time>2023-12-20T11:55:50Z</time>
      </trkpt>
      <trkpt lat="48.78525" lon="1.80532">
        <ele>134.2</ele>
        <time>2023-12-20T11:55:51Z</time>
      </trkpt>
      <trkpt lat="48.78521" lon="1.80538">
        <ele>134.2</ele>
        <time>2023-12-20T11:55:52Z</time>
      </trkpt>
      <trkpt lat="48.78517" lon="1.80543">
        <ele>134.2</ele>
        <time>2023-12-20T11:55:53Z</time>
      </trkpt>
      <trkpt lat="48.78513" lon="1.80548">
        <ele>133.6</ele>
        <time>2023-12-20T11:55:54Z</time>
      </trkpt>
      <trkpt lat="48.78509" lon="1.80554">
        <ele>133.8</ele>
        <time>2023-12-20T11:55:55Z</time>
      </trkpt>
      <trkpt lat="48.78505" lon="1.80559">
        <ele>133.8</ele>
        <time>2023-12-20T11:55:56Z</time>
      </trkpt>
      <trkpt lat="48.78501" lon="1.80565">
        <ele>133.8</ele>
        <time>2023-12-20T11:55:57Z</time>
      </trkpt>
      <trkpt lat="48.78497" lon="1.8057">
        <ele>133.8</ele>
        <time>2023-12-20T11:55:58Z</time>
      </trkpt>
      <trkpt lat="48.78493" lon="1.80575">
        <ele>133.8</ele>
        <time>2023-12-20T11:55:59Z</time>
      </trkpt>
      <trkpt lat="48.7849" lon="1.80581">
        <ele>133.8</ele>
        <time>2023-12-20T11:56:00Z</time>
      </trkpt>
      <trkpt lat="48.78486" lon="1.80586">
        <ele>133.8</ele>
        <time>2023-12-20T11:56:01Z</time>
      </trkpt>
      <trkpt lat="48.78483" lon="1.80593">
        <ele>134.4</ele>
        <time>2023-12-20T11:56:02Z</time>
      </trkpt>
      <trkpt lat="48.78479" lon="1.80599">
        <ele>134</ele>
        <time>2023-12-20T11:56:03Z</time>
      </trkpt>
      <trkpt lat="48.78476" lon="1.80605">
        <ele>134</ele>
        <time>2023-12-20T11:56:04Z</time>
      </trkpt>
      <trkpt lat="48.78473" lon="1.80612">
        <ele>134</ele>
        <time>2023-12-20T11:56:05Z</time>
      </trkpt>
      <trkpt lat="48.78471" lon="1.80618">
        <ele>134.6</ele>
        <time>2023-12-20T11:56:06Z</time>
      </trkpt>
      <trkpt lat="48.78469" lon="1.80625">
        <ele>134.4</ele>
        <time>2023-12-20T11:56:07Z</time>
      </trkpt>
      <trkpt lat="48.78466" lon="1.80632">
        <ele>134.4</ele>
        <time>2023-12-20T11:56:08Z</time>
      </trkpt>
      <trkpt lat="48.78464" lon="1.80638">
        <ele>134.4</ele>
        <time>2023-12-20T11:56:09Z</time>
      </trkpt>
      <trkpt lat="48.78461" lon="1.80645">
        <ele>134</ele>
        <time>2023-12-20T11:56:10Z</time>
      </trkpt>
      <trkpt lat="48.78459" lon="1.80652">
        <ele>135.2</ele>
        <time>2023-12-20T11:56:11Z</time>
      </trkpt>
      <trkpt lat="48.78457" lon="1.80659">
        <ele>135.2</ele>
        <time>2023-12-20T11:56:12Z</time>
      </trkpt>
      <trkpt lat="48.78454" lon="1.80665">
        <ele>135.2</ele>
        <time>2023-12-20T11:56:13Z</time>
      </trkpt>
      <trkpt lat="48.78452" lon="1.80672">
        <ele>135.8</ele>
        <time>2023-12-20T11:56:14Z</time>
      </trkpt>
      <trkpt lat="48.78449" lon="1.80679">
        <ele>135.6</ele>
        <time>2023-12-20T11:56:15Z</time>
      </trkpt>
      <trkpt lat="48.78447" lon="1.80685">
        <ele>135.6</ele>
        <time>2023-12-20T11:56:16Z</time>
      </trkpt>
      <trkpt lat="48.78444" lon="1.80692">
        <ele>135.6</ele>
        <time>2023-12-20T11:56:17Z</time>
      </trkpt>
      <trkpt lat="48.78442" lon="1.80699">
        <ele>135.6</ele>
        <time>2023-12-20T11:56:18Z</time>
      </trkpt>
      <trkpt lat="48.78439" lon="1.80705">
        <ele>135.8</ele>
        <time>2023-12-20T11:56:19Z</time>
      </trkpt>
      <trkpt lat="48.78436" lon="1.80712">
        <ele>135.8</ele>
        <time>2023-12-20T11:56:20Z</time>
      </trkpt>
      <trkpt lat="48.78433" lon="1.80718">
        <ele>135.8</ele>
        <time>2023-12-20T11:56:21Z</time>
      </trkpt>
      <trkpt lat="48.78429" lon="1.80724">
        <ele>136.8</ele>
        <time>2023-12-20T11:56:22Z</time>
      </trkpt>
      <trkpt lat="48.78426" lon="1.8073">
        <ele>136.6</ele>
        <time>2023-12-20T11:56:23Z</time>
      </trkpt>
      <trkpt lat="48.78422" lon="1.80736">
        <ele>136.6</ele>
        <time>2023-12-20T11:56:24Z</time>
      </trkpt>
      <trkpt lat="48.78418" lon="1.80741">
        <ele>136.6</ele>
        <time>2023-12-20T11:56:25Z</time>
      </trkpt>
      <trkpt lat="48.78414" lon="1.80746">
        <ele>136.4</ele>
        <time>2023-12-20T11:56:26Z</time>
      </trkpt>
      <trkpt lat="48.78409" lon="1.80751">
        <ele>137.6</ele>
        <time>2023-12-20T11:56:27Z</time>
      </trkpt>
      <trkpt lat="48.78405" lon="1.80755">
        <ele>137.6</ele>
        <time>2023-12-20T11:56:28Z</time>
      </trkpt>
      <trkpt lat="48.784" lon="1.8076">
        <ele>137.6</ele>
        <time>2023-12-20T11:56:29Z</time>
      </trkpt>
      <trkpt lat="48.78396" lon="1.80764">
        <ele>137</ele>
        <time>2023-12-20T11:56:30Z</time>
      </trkpt>
      <trkpt lat="48.78391" lon="1.80768">
        <ele>137.4</ele>
        <time>2023-12-20T11:56:31Z</time>
      </trkpt>
      <trkpt lat="48.78387" lon="1.80771">
        <ele>137.4</ele>
        <time>2023-12-20T11:56:32Z</time>
      </trkpt>
      <trkpt lat="48.78382" lon="1.80775">
        <ele>137.4</ele>
        <time>2023-12-20T11:56:33Z</time>
      </trkpt>
      <trkpt lat="48.78378" lon="1.80778">
        <ele>137.4</ele>
        <time>2023-12-20T11:56:34Z</time>
      </trkpt>
      <trkpt lat="48.78373" lon="1.80781">
        <ele>139.2</ele>
        <time>2023-12-20T11:56:35Z</time>
      </trkpt>
      <trkpt lat="48.78368" lon="1.80784">
        <ele>139.2</ele>
        <time>2023-12-20T11:56:36Z</time>
      </trkpt>
      <trkpt lat="48.78364" lon="1.80786">
        <ele>139.2</ele>
        <time>2023-12-20T11:56:37Z</time>
      </trkpt>
      <trkpt lat="48.78359" lon="1.80789">
        <ele>139.2</ele>
        <time>2023-12-20T11:56:38Z</time>
      </trkpt>
      <trkpt lat="48.78354" lon="1.80792">
        <ele>140.4</ele>
        <time>2023-12-20T11:56:39Z</time>
      </trkpt>
      <trkpt lat="48.7835" lon="1.80795">
        <ele>140.4</ele>
        <time>2023-12-20T11:56:40Z</time>
      </trkpt>
      <trkpt lat="48.78345" lon="1.80798">
        <ele>140.4</ele>
        <time>2023-12-20T11:56:41Z</time>
      </trkpt>
      <trkpt lat="48.78341" lon="1.80799">
        <ele>140.4</ele>
        <time>2023-12-20T11:56:42Z</time>
      </trkpt>
      <trkpt lat="48.78338" lon="1.80801">
        <ele>140.4</ele>
        <time>2023-12-20T11:56:43Z</time>
      </trkpt>
      <trkpt lat="48.78334" lon="1.80803">
        <ele>140.4</ele>
        <time>2023-12-20T11:56:44Z</time>
      </trkpt>
      <trkpt lat="48.78329" lon="1.80805">
        <ele>140.4</ele>
        <time>2023-12-20T11:56:45Z</time>
      </trkpt>
      <trkpt lat="48.78325" lon="1.80808">
        <ele>141.4</ele>
        <time>2023-12-20T11:56:46Z</time>
      </trkpt>
      <trkpt lat="48.78321" lon="1.80811">
        <ele>140.6</ele>
        <time>2023-12-20T11:56:47Z</time>
      </trkpt>
      <trkpt lat="48.78316" lon="1.80815">
        <ele>140.6</ele>
        <time>2023-12-20T11:56:48Z</time>
      </trkpt>
      <trkpt lat="48.78312" lon="1.80818">
        <ele>140.6</ele>
        <time>2023-12-20T11:56:49Z</time>
      </trkpt>
      <trkpt lat="48.78309" lon="1.80821">
        <ele>140.8</ele>
        <time>2023-12-20T11:56:50Z</time>
      </trkpt>
      <trkpt lat="48.78304" lon="1.80824">
        <ele>141</ele>
        <time>2023-12-20T11:56:51Z</time>
      </trkpt>
      <trkpt lat="48.78301" lon="1.80828">
        <ele>141</ele>
        <time>2023-12-20T11:56:52Z</time>
      </trkpt>
      <trkpt lat="48.78297" lon="1.80831">
        <ele>141</ele>
        <time>2023-12-20T11:56:53Z</time>
      </trkpt>
      <trkpt lat="48.78293" lon="1.80835">
        <ele>142</ele>
        <time>2023-12-20T11:56:54Z</time>
      </trkpt>
      <trkpt lat="48.78289" lon="1.80839">
        <ele>143.2</ele>
        <time>2023-12-20T11:56:55Z</time>
      </trkpt>
      <trkpt lat="48.78285" lon="1.80843">
        <ele>143.2</ele>
        <time>2023-12-20T11:56:56Z</time>
      </trkpt>
      <trkpt lat="48.78281" lon="1.80847">
        <ele>143.2</ele>
        <time>2023-12-20T11:56:57Z</time>
      </trkpt>
      <trkpt lat="48.78277" lon="1.80851">
        <ele>144</ele>
        <time>2023-12-20T11:56:58Z</time>
      </trkpt>
      <trkpt lat="48.78274" lon="1.80855">
        <ele>144</ele>
        <time>2023-12-20T11:56:59Z</time>
      </trkpt>
      <trkpt lat="48.7827" lon="1.80859">
        <ele>144</ele>
        <time>2023-12-20T11:57:00Z</time>
      </trkpt>
      <trkpt lat="48.78266" lon="1.80863">
        <ele>144</ele>
        <time>2023-12-20T11:57:01Z</time>
      </trkpt>
      <trkpt lat="48.78262" lon="1.80867">
        <ele>144.8</ele>
        <time>2023-12-20T11:57:02Z</time>
      </trkpt>
      <trkpt lat="48.78259" lon="1.80872">
        <ele>145.2</ele>
        <time>2023-12-20T11:57:03Z</time>
      </trkpt>
      <trkpt lat="48.78255" lon="1.80875">
        <ele>145.2</ele>
        <time>2023-12-20T11:57:04Z</time>
      </trkpt>
      <trkpt lat="48.78251" lon="1.80878">
        <ele>145.2</ele>
        <time>2023-12-20T11:57:05Z</time>
      </trkpt>
      <trkpt lat="48.78246" lon="1.80882">
        <ele>146.2</ele>
        <time>2023-12-20T11:57:06Z</time>
      </trkpt>
      <trkpt lat="48.78242" lon="1.80885">
        <ele>146.2</ele>
        <time>2023-12-20T11:57:07Z</time>
      </trkpt>
      <trkpt lat="48.78238" lon="1.80888">
        <ele>146.2</ele>
        <time>2023-12-20T11:57:08Z</time>
      </trkpt>
      <trkpt lat="48.78233" lon="1.80889">
        <ele>146.2</ele>
        <time>2023-12-20T11:57:09Z</time>
      </trkpt>
      <trkpt lat="48.78229" lon="1.80891">
        <ele>146.6</ele>
        <time>2023-12-20T11:57:10Z</time>
      </trkpt>
      <trkpt lat="48.78225" lon="1.80892">
        <ele>147.4</ele>
        <time>2023-12-20T11:57:11Z</time>
      </trkpt>
      <trkpt lat="48.78222" lon="1.80892">
        <ele>147.4</ele>
        <time>2023-12-20T11:57:12Z</time>
      </trkpt>
      <trkpt lat="48.78218" lon="1.80893">
        <ele>147.4</ele>
        <time>2023-12-20T11:57:13Z</time>
      </trkpt>
      <trkpt lat="48.78214" lon="1.80895">
        <ele>148.2</ele>
        <time>2023-12-20T11:57:14Z</time>
      </trkpt>
      <trkpt lat="48.7821" lon="1.80898">
        <ele>149</ele>
        <time>2023-12-20T11:57:15Z</time>
      </trkpt>
      <trkpt lat="48.78206" lon="1.80902">
        <ele>149</ele>
        <time>2023-12-20T11:57:16Z</time>
      </trkpt>
      <trkpt lat="48.78203" lon="1.80906">
        <ele>149</ele>
        <time>2023-12-20T11:57:17Z</time>
      </trkpt>
      <trkpt lat="48.782" lon="1.8091">
        <ele>149</ele>
        <time>2023-12-20T11:57:18Z</time>
      </trkpt>
      <trkpt lat="48.78196" lon="1.80913">
        <ele>149.4</ele>
        <time>2023-12-20T11:57:19Z</time>
      </trkpt>
      <trkpt lat="48.78192" lon="1.80916">
        <ele>149.4</ele>
        <time>2023-12-20T11:57:20Z</time>
      </trkpt>
      <trkpt lat="48.78188" lon="1.80918">
        <ele>149.4</ele>
        <time>2023-12-20T11:57:21Z</time>
      </trkpt>
      <trkpt lat="48.78184" lon="1.8092">
        <ele>149.8</ele>
        <time>2023-12-20T11:57:22Z</time>
      </trkpt>
      <trkpt lat="48.7818" lon="1.80923">
        <ele>150</ele>
        <time>2023-12-20T11:57:23Z</time>
      </trkpt>
      <trkpt lat="48.78176" lon="1.80925">
        <ele>150</ele>
        <time>2023-12-20T11:57:24Z</time>
      </trkpt>
      <trkpt lat="48.78172" lon="1.80928">
        <ele>150</ele>
        <time>2023-12-20T11:57:25Z</time>
      </trkpt>
      <trkpt lat="48.78169" lon="1.80932">
        <ele>150.4</ele>
        <time>2023-12-20T11:57:26Z</time>
      </trkpt>
      <trkpt lat="48.78165" lon="1.80935">
        <ele>150</ele>
        <time>2023-12-20T11:57:27Z</time>
      </trkpt>
      <trkpt lat="48.78162" lon="1.80939">
        <ele>150</ele>
        <time>2023-12-20T11:57:28Z</time>
      </trkpt>
      <trkpt lat="48.78159" lon="1.80943">
        <ele>150</ele>
        <time>2023-12-20T11:57:29Z</time>
      </trkpt>
      <trkpt lat="48.78155" lon="1.80947">
        <ele>150</ele>
        <time>2023-12-20T11:57:30Z</time>
      </trkpt>
      <trkpt lat="48.78152" lon="1.8095">
        <ele>150.2</ele>
        <time>2023-12-20T11:57:31Z</time>
      </trkpt>
      <trkpt lat="48.78148" lon="1.80954">
        <ele>150.2</ele>
        <time>2023-12-20T11:57:32Z</time>
      </trkpt>
      <trkpt lat="48.78145" lon="1.80959">
        <ele>150.2</ele>
        <time>2023-12-20T11:57:33Z</time>
      </trkpt>
      <trkpt lat="48.78142" lon="1.80963">
        <ele>150.2</ele>
        <time>2023-12-20T11:57:34Z</time>
      </trkpt>
      <trkpt lat="48.78138" lon="1.80967">
        <ele>150.2</ele>
        <time>2023-12-20T11:57:35Z</time>
      </trkpt>
      <trkpt lat="48.78135" lon="1.80972">
        <ele>150.2</ele>
        <time>2023-12-20T11:57:36Z</time>
      </trkpt>
      <trkpt lat="48.78132" lon="1.80976">
        <ele>150.2</ele>
        <time>2023-12-20T11:57:37Z</time>
      </trkpt>
      <trkpt lat="48.78128" lon="1.8098">
        <ele>150.2</ele>
        <time>2023-12-20T11:57:38Z</time>
      </trkpt>
      <trkpt lat="48.78125" lon="1.80984">
        <ele>149.6</ele>
        <time>2023-12-20T11:57:39Z</time>
      </trkpt>
      <trkpt lat="48.78122" lon="1.80989">
        <ele>149.6</ele>
        <time>2023-12-20T11:57:40Z</time>
      </trkpt>
      <trkpt lat="48.78119" lon="1.80994">
        <ele>149.6</ele>
        <time>2023-12-20T11:57:41Z</time>
      </trkpt>
      <trkpt lat="48.78116" lon="1.81">
        <ele>148.8</ele>
        <time>2023-12-20T11:57:42Z</time>
      </trkpt>
      <trkpt lat="48.78113" lon="1.81005">
        <ele>149</ele>
        <time>2023-12-20T11:57:43Z</time>
      </trkpt>
      <trkpt lat="48.7811" lon="1.81011">
        <ele>149</ele>
        <time>2023-12-20T11:57:44Z</time>
      </trkpt>
      <trkpt lat="48.78106" lon="1.81016">
        <ele>149</ele>
        <time>2023-12-20T11:57:45Z</time>
      </trkpt>
      <trkpt lat="48.78103" lon="1.81022">
        <ele>148.2</ele>
        <time>2023-12-20T11:57:46Z</time>
      </trkpt>
      <trkpt lat="48.78099" lon="1.81028">
        <ele>148</ele>
        <time>2023-12-20T11:57:47Z</time>
      </trkpt>
      <trkpt lat="48.78096" lon="1.81033">
        <ele>148</ele>
        <time>2023-12-20T11:57:48Z</time>
      </trkpt>
      <trkpt lat="48.78093" lon="1.81039">
        <ele>148</ele>
        <time>2023-12-20T11:57:49Z</time>
      </trkpt>
      <trkpt lat="48.7809" lon="1.81045">
        <ele>148</ele>
        <time>2023-12-20T11:57:50Z</time>
      </trkpt>
      <trkpt lat="48.78087" lon="1.81052">
        <ele>147.8</ele>
        <time>2023-12-20T11:57:51Z</time>
      </trkpt>
      <trkpt lat="48.78083" lon="1.81058">
        <ele>147.8</ele>
        <time>2023-12-20T11:57:52Z</time>
      </trkpt>
      <trkpt lat="48.7808" lon="1.81064">
        <ele>147.8</ele>
        <time>2023-12-20T11:57:53Z</time>
      </trkpt>
      <trkpt lat="48.78076" lon="1.8107">
        <ele>146.8</ele>
        <time>2023-12-20T11:57:54Z</time>
      </trkpt>
      <trkpt lat="48.78072" lon="1.81075">
        <ele>146.8</ele>
        <time>2023-12-20T11:57:55Z</time>
      </trkpt>
      <trkpt lat="48.78069" lon="1.81079">
        <ele>146.8</ele>
        <time>2023-12-20T11:57:56Z</time>
      </trkpt>
      <trkpt lat="48.78067" lon="1.81083">
        <ele>146.8</ele>
        <time>2023-12-20T11:57:57Z</time>
      </trkpt>
      <trkpt lat="48.78064" lon="1.81085">
        <ele>145.8</ele>
        <time>2023-12-20T11:57:58Z</time>
      </trkpt>
      <trkpt lat="48.78062" lon="1.81088">
        <ele>145.6</ele>
        <time>2023-12-20T11:57:59Z</time>
      </trkpt>
      <trkpt lat="48.7806" lon="1.81091">
        <ele>145.6</ele>
        <time>2023-12-20T11:58:00Z</time>
      </trkpt>
      <trkpt lat="48.78057" lon="1.81094">
        <ele>145.6</ele>
        <time>2023-12-20T11:58:01Z</time>
      </trkpt>
      <trkpt lat="48.78055" lon="1.81098">
        <ele>145.6</ele>
        <time>2023-12-20T11:58:02Z</time>
      </trkpt>
      <trkpt lat="48.78054" lon="1.81103">
        <ele>145.2</ele>
        <time>2023-12-20T11:58:03Z</time>
      </trkpt>
      <trkpt lat="48.78053" lon="1.81109">
        <ele>145.2</ele>
        <time>2023-12-20T11:58:04Z</time>
      </trkpt>
      <trkpt lat="48.78052" lon="1.81116">
        <ele>145.2</ele>
        <time>2023-12-20T11:58:05Z</time>
      </trkpt>
      <trkpt lat="48.78051" lon="1.81122">
        <ele>144.4</ele>
        <time>2023-12-20T11:58:06Z</time>
      </trkpt>
      <trkpt lat="48.78051" lon="1.81129">
        <ele>144</ele>
        <time>2023-12-20T11:58:07Z</time>
      </trkpt>
      <trkpt lat="48.78049" lon="1.81136">
        <ele>144</ele>
        <time>2023-12-20T11:58:08Z</time>
      </trkpt>
      <trkpt lat="48.78048" lon="1.81143">
        <ele>144</ele>
        <time>2023-12-20T11:58:09Z</time>
      </trkpt>
      <trkpt lat="48.78048" lon="1.81151">
        <ele>144</ele>
        <time>2023-12-20T11:58:10Z</time>
      </trkpt>
      <trkpt lat="48.78047" lon="1.81159">
        <ele>143.2</ele>
        <time>2023-12-20T11:58:11Z</time>
      </trkpt>
      <trkpt lat="48.78046" lon="1.81167">
        <ele>143.2</ele>
        <time>2023-12-20T11:58:12Z</time>
      </trkpt>
      <trkpt lat="48.78045" lon="1.81175">
        <ele>143.2</ele>
        <time>2023-12-20T11:58:13Z</time>
      </trkpt>
      <trkpt lat="48.78044" lon="1.81184">
        <ele>142.2</ele>
        <time>2023-12-20T11:58:14Z</time>
      </trkpt>
      <trkpt lat="48.78042" lon="1.81192">
        <ele>141.6</ele>
        <time>2023-12-20T11:58:15Z</time>
      </trkpt>
      <trkpt lat="48.78041" lon="1.81201">
        <ele>141.6</ele>
        <time>2023-12-20T11:58:16Z</time>
      </trkpt>
      <trkpt lat="48.78039" lon="1.8121">
        <ele>141.6</ele>
        <time>2023-12-20T11:58:17Z</time>
      </trkpt>
      <trkpt lat="48.78037" lon="1.81219">
        <ele>140.6</ele>
        <time>2023-12-20T11:58:18Z</time>
      </trkpt>
      <trkpt lat="48.78033" lon="1.81229">
        <ele>137.6</ele>
        <time>2023-12-20T11:58:19Z</time>
      </trkpt>
      <trkpt lat="48.78029" lon="1.81238">
        <ele>137.6</ele>
        <time>2023-12-20T11:58:20Z</time>
      </trkpt>
      <trkpt lat="48.78025" lon="1.81248">
        <ele>137.6</ele>
        <time>2023-12-20T11:58:21Z</time>
      </trkpt>
      <trkpt lat="48.78019" lon="1.81256">
        <ele>137.4</ele>
        <time>2023-12-20T11:58:22Z</time>
      </trkpt>
      <trkpt lat="48.78012" lon="1.81264">
        <ele>134</ele>
        <time>2023-12-20T11:58:23Z</time>
      </trkpt>
      <trkpt lat="48.78004" lon="1.81271">
        <ele>134</ele>
        <time>2023-12-20T11:58:24Z</time>
      </trkpt>
      <trkpt lat="48.77996" lon="1.81277">
        <ele>134</ele>
        <time>2023-12-20T11:58:25Z</time>
      </trkpt>
      <trkpt lat="48.77988" lon="1.81281">
        <ele>133</ele>
        <time>2023-12-20T11:58:26Z</time>
      </trkpt>
      <trkpt lat="48.77978" lon="1.81284">
        <ele>131.6</ele>
        <time>2023-12-20T11:58:27Z</time>
      </trkpt>
      <trkpt lat="48.77969" lon="1.81286">
        <ele>131.6</ele>
        <time>2023-12-20T11:58:28Z</time>
      </trkpt>
      <trkpt lat="48.77959" lon="1.81287">
        <ele>131.6</ele>
        <time>2023-12-20T11:58:29Z</time>
      </trkpt>
      <trkpt lat="48.77949" lon="1.81288">
        <ele>130.6</ele>
        <time>2023-12-20T11:58:30Z</time>
      </trkpt>
      <trkpt lat="48.77938" lon="1.81288">
        <ele>127</ele>
        <time>2023-12-20T11:58:31Z</time>
      </trkpt>
      <trkpt lat="48.77927" lon="1.81289">
        <ele>127</ele>
        <time>2023-12-20T11:58:32Z</time>
      </trkpt>
      <trkpt lat="48.77917" lon="1.81289">
        <ele>127</ele>
        <time>2023-12-20T11:58:33Z</time>
      </trkpt>
      <trkpt lat="48.77909" lon="1.81289">
        <ele>127.6</ele>
        <time>2023-12-20T11:58:34Z</time>
      </trkpt>
      <trkpt lat="48.77902" lon="1.81288">
        <ele>129.2</ele>
        <time>2023-12-20T11:58:35Z</time>
      </trkpt>
      <trkpt lat="48.77894" lon="1.81287">
        <ele>129.2</ele>
        <time>2023-12-20T11:58:36Z</time>
      </trkpt>
      <trkpt lat="48.77888" lon="1.81289">
        <ele>129.2</ele>
        <time>2023-12-20T11:58:37Z</time>
      </trkpt>
      <trkpt lat="48.77881" lon="1.81291">
        <ele>128.2</ele>
        <time>2023-12-20T11:58:38Z</time>
      </trkpt>
      <trkpt lat="48.77873" lon="1.81293">
        <ele>124</ele>
        <time>2023-12-20T11:58:39Z</time>
      </trkpt>
      <trkpt lat="48.77865" lon="1.81294">
        <ele>124</ele>
        <time>2023-12-20T11:58:40Z</time>
      </trkpt>
      <trkpt lat="48.77856" lon="1.81296">
        <ele>124</ele>
        <time>2023-12-20T11:58:41Z</time>
      </trkpt>
      <trkpt lat="48.77848" lon="1.81299">
        <ele>123</ele>
        <time>2023-12-20T11:58:42Z</time>
      </trkpt>
      <trkpt lat="48.77839" lon="1.81302">
        <ele>120.6</ele>
        <time>2023-12-20T11:58:43Z</time>
      </trkpt>
      <trkpt lat="48.7783" lon="1.81305">
        <ele>120.6</ele>
        <time>2023-12-20T11:58:44Z</time>
      </trkpt>
      <trkpt lat="48.77821" lon="1.81309">
        <ele>120.6</ele>
        <time>2023-12-20T11:58:45Z</time>
      </trkpt>
      <trkpt lat="48.77811" lon="1.81313">
        <ele>119.6</ele>
        <time>2023-12-20T11:58:46Z</time>
      </trkpt>
      <trkpt lat="48.77802" lon="1.81316">
        <ele>118.4</ele>
        <time>2023-12-20T11:58:47Z</time>
      </trkpt>
      <trkpt lat="48.77792" lon="1.81316">
        <ele>118.4</ele>
        <time>2023-12-20T11:58:48Z</time>
      </trkpt>
      <trkpt lat="48.77782" lon="1.81313">
        <ele>118.4</ele>
        <time>2023-12-20T11:58:49Z</time>
      </trkpt>
      <trkpt lat="48.77774" lon="1.81307">
        <ele>119</ele>
        <time>2023-12-20T11:58:50Z</time>
      </trkpt>
      <trkpt lat="48.77765" lon="1.813">
        <ele>119.8</ele>
        <time>2023-12-20T11:58:51Z</time>
      </trkpt>
      <trkpt lat="48.77757" lon="1.81294">
        <ele>119.8</ele>
        <time>2023-12-20T11:58:52Z</time>
      </trkpt>
      <trkpt lat="48.77748" lon="1.81288">
        <ele>119.8</ele>
        <time>2023-12-20T11:58:53Z</time>
      </trkpt>
      <trkpt lat="48.7774" lon="1.81285">
        <ele>119.8</ele>
        <time>2023-12-20T11:58:54Z</time>
      </trkpt>
      <trkpt lat="48.77731" lon="1.81284">
        <ele>120.2</ele>
        <time>2023-12-20T11:58:55Z</time>
      </trkpt>
      <trkpt lat="48.77724" lon="1.81282">
        <ele>120.2</ele>
        <time>2023-12-20T11:58:56Z</time>
      </trkpt>
      <trkpt lat="48.77716" lon="1.81282">
        <ele>120.2</ele>
        <time>2023-12-20T11:58:57Z</time>
      </trkpt>
      <trkpt lat="48.77709" lon="1.81281">
        <ele>121.2</ele>
        <time>2023-12-20T11:58:58Z</time>
      </trkpt>
      <trkpt lat="48.77701" lon="1.81281">
        <ele>122.4</ele>
        <time>2023-12-20T11:58:59Z</time>
      </trkpt>
      <trkpt lat="48.77694" lon="1.81281">
        <ele>122.4</ele>
        <time>2023-12-20T11:59:00Z</time>
      </trkpt>
      <trkpt lat="48.77688" lon="1.8128">
        <ele>122.4</ele>
        <time>2023-12-20T11:59:01Z</time>
      </trkpt>
      <trkpt lat="48.77681" lon="1.8128">
        <ele>123.4</ele>
        <time>2023-12-20T11:59:02Z</time>
      </trkpt>
      <trkpt lat="48.77675" lon="1.81279">
        <ele>124.4</ele>
        <time>2023-12-20T11:59:03Z</time>
      </trkpt>
      <trkpt lat="48.77669" lon="1.81278">
        <ele>124.4</ele>
        <time>2023-12-20T11:59:04Z</time>
      </trkpt>
      <trkpt lat="48.77664" lon="1.81278">
        <ele>124.4</ele>
        <time>2023-12-20T11:59:05Z</time>
      </trkpt>
      <trkpt lat="48.77658" lon="1.81278">
        <ele>124.4</ele>
        <time>2023-12-20T11:59:06Z</time>
      </trkpt>
      <trkpt lat="48.77653" lon="1.81278">
        <ele>124.8</ele>
        <time>2023-12-20T11:59:07Z</time>
      </trkpt>
      <trkpt lat="48.77648" lon="1.81277">
        <ele>124.8</ele>
        <time>2023-12-20T11:59:08Z</time>
      </trkpt>
      <trkpt lat="48.77643" lon="1.81276">
        <ele>124.8</ele>
        <time>2023-12-20T11:59:09Z</time>
      </trkpt>
      <trkpt lat="48.77638" lon="1.81275">
        <ele>125.6</ele>
        <time>2023-12-20T11:59:10Z</time>
      </trkpt>
      <trkpt lat="48.77633" lon="1.81275">
        <ele>125.4</ele>
        <time>2023-12-20T11:59:11Z</time>
      </trkpt>
      <trkpt lat="48.77627" lon="1.81274">
        <ele>125.4</ele>
        <time>2023-12-20T11:59:12Z</time>
      </trkpt>
      <trkpt lat="48.77622" lon="1.81274">
        <ele>125.4</ele>
        <time>2023-12-20T11:59:13Z</time>
      </trkpt>
      <trkpt lat="48.77618" lon="1.81273">
        <ele>126.2</ele>
        <time>2023-12-20T11:59:14Z</time>
      </trkpt>
      <trkpt lat="48.77613" lon="1.81273">
        <ele>126.4</ele>
        <time>2023-12-20T11:59:15Z</time>
      </trkpt>
      <trkpt lat="48.77608" lon="1.81273">
        <ele>126.4</ele>
        <time>2023-12-20T11:59:16Z</time>
      </trkpt>
      <trkpt lat="48.77603" lon="1.81272">
        <ele>126.4</ele>
        <time>2023-12-20T11:59:17Z</time>
      </trkpt>
      <trkpt lat="48.77598" lon="1.81272">
        <ele>126.4</ele>
        <time>2023-12-20T11:59:18Z</time>
      </trkpt>
      <trkpt lat="48.77593" lon="1.81271">
        <ele>127</ele>
        <time>2023-12-20T11:59:19Z</time>
      </trkpt>
      <trkpt lat="48.77588" lon="1.81271">
        <ele>127</ele>
        <time>2023-12-20T11:59:20Z</time>
      </trkpt>
      <trkpt lat="48.77583" lon="1.8127">
        <ele>127</ele>
        <time>2023-12-20T11:59:21Z</time>
      </trkpt>
      <trkpt lat="48.77578" lon="1.81269">
        <ele>128</ele>
        <time>2023-12-20T11:59:22Z</time>
      </trkpt>
      <trkpt lat="48.77574" lon="1.81269">
        <ele>128.6</ele>
        <time>2023-12-20T11:59:23Z</time>
      </trkpt>
      <trkpt lat="48.77569" lon="1.81268">
        <ele>128.6</ele>
        <time>2023-12-20T11:59:24Z</time>
      </trkpt>
      <trkpt lat="48.77564" lon="1.81267">
        <ele>128.6</ele>
        <time>2023-12-20T11:59:25Z</time>
      </trkpt>
      <trkpt lat="48.77559" lon="1.81265">
        <ele>128</ele>
        <time>2023-12-20T11:59:26Z</time>
      </trkpt>
      <trkpt lat="48.77554" lon="1.81263">
        <ele>128.6</ele>
        <time>2023-12-20T11:59:27Z</time>
      </trkpt>
      <trkpt lat="48.7755" lon="1.81262">
        <ele>128.6</ele>
        <time>2023-12-20T11:59:28Z</time>
      </trkpt>
      <trkpt lat="48.77545" lon="1.81259">
        <ele>128.6</ele>
        <time>2023-12-20T11:59:29Z</time>
      </trkpt>
      <trkpt lat="48.7754" lon="1.81257">
        <ele>128.6</ele>
        <time>2023-12-20T11:59:30Z</time>
      </trkpt>
      <trkpt lat="48.77537" lon="1.81253">
        <ele>130</ele>
        <time>2023-12-20T11:59:31Z</time>
      </trkpt>
      <trkpt lat="48.77532" lon="1.81251">
        <ele>130</ele>
        <time>2023-12-20T11:59:32Z</time>
      </trkpt>
      <trkpt lat="48.77528" lon="1.81248">
        <ele>130</ele>
        <time>2023-12-20T11:59:33Z</time>
      </trkpt>
      <trkpt lat="48.77524" lon="1.81245">
        <ele>129.8</ele>
        <time>2023-12-20T11:59:34Z</time>
      </trkpt>
      <trkpt lat="48.77519" lon="1.81242">
        <ele>128.6</ele>
        <time>2023-12-20T11:59:35Z</time>
      </trkpt>
      <trkpt lat="48.77515" lon="1.81239">
        <ele>128.6</ele>
        <time>2023-12-20T11:59:36Z</time>
      </trkpt>
      <trkpt lat="48.7751" lon="1.81236">
        <ele>128.6</ele>
        <time>2023-12-20T11:59:37Z</time>
      </trkpt>
      <trkpt lat="48.77506" lon="1.81233">
        <ele>128.6</ele>
        <time>2023-12-20T11:59:38Z</time>
      </trkpt>
      <trkpt lat="48.77501" lon="1.8123">
        <ele>129.6</ele>
        <time>2023-12-20T11:59:39Z</time>
      </trkpt>
      <trkpt lat="48.77497" lon="1.81226">
        <ele>129.6</ele>
        <time>2023-12-20T11:59:40Z</time>
      </trkpt>
      <trkpt lat="48.77493" lon="1.81222">
        <ele>129.6</ele>
        <time>2023-12-20T11:59:41Z</time>
      </trkpt>
      <trkpt lat="48.77489" lon="1.81219">
        <ele>130</ele>
        <time>2023-12-20T11:59:42Z</time>
      </trkpt>
      <trkpt lat="48.77485" lon="1.81215">
        <ele>130.6</ele>
        <time>2023-12-20T11:59:43Z</time>
      </trkpt>
      <trkpt lat="48.77481" lon="1.81212">
        <ele>130.6</ele>
        <time>2023-12-20T11:59:44Z</time>
      </trkpt>
      <trkpt lat="48.77477" lon="1.81209">
        <ele>130.6</ele>
        <time>2023-12-20T11:59:45Z</time>
      </trkpt>
      <trkpt lat="48.77472" lon="1.81206">
        <ele>131</ele>
        <time>2023-12-20T11:59:46Z</time>
      </trkpt>
      <trkpt lat="48.77468" lon="1.81202">
        <ele>130.6</ele>
        <time>2023-12-20T11:59:47Z</time>
      </trkpt>
      <trkpt lat="48.77464" lon="1.81199">
        <ele>130.6</ele>
        <time>2023-12-20T11:59:48Z</time>
      </trkpt>
      <trkpt lat="48.77459" lon="1.81196">
        <ele>130.6</ele>
        <time>2023-12-20T11:59:49Z</time>
      </trkpt>
      <trkpt lat="48.77455" lon="1.81192">
        <ele>130.6</ele>
        <time>2023-12-20T11:59:50Z</time>
      </trkpt>
      <trkpt lat="48.7745" lon="1.81189">
        <ele>130.2</ele>
        <time>2023-12-20T11:59:51Z</time>
      </trkpt>
      <trkpt lat="48.77446" lon="1.81185">
        <ele>130.2</ele>
        <time>2023-12-20T11:59:52Z</time>
      </trkpt>
      <trkpt lat="48.77441" lon="1.81182">
        <ele>130.2</ele>
        <time>2023-12-20T11:59:53Z</time>
      </trkpt>
      <trkpt lat="48.77437" lon="1.81179">
        <ele>130.2</ele>
        <time>2023-12-20T11:59:54Z</time>
      </trkpt>
      <trkpt lat="48.77432" lon="1.81176">
        <ele>132</ele>
        <time>2023-12-20T11:59:55Z</time>
      </trkpt>
      <trkpt lat="48.77428" lon="1.81173">
        <ele>132</ele>
        <time>2023-12-20T11:59:56Z</time>
      </trkpt>
      <trkpt lat="48.77423" lon="1.81169">
        <ele>132</ele>
        <time>2023-12-20T11:59:57Z</time>
      </trkpt>
      <trkpt lat="48.77419" lon="1.81166">
        <ele>132</ele>
        <time>2023-12-20T11:59:58Z</time>
      </trkpt>
      <trkpt lat="48.77414" lon="1.81163">
        <ele>132.8</ele>
        <time>2023-12-20T11:59:59Z</time>
      </trkpt>
      <trkpt lat="48.77409" lon="1.8116">
        <ele>132.8</ele>
        <time>2023-12-20T12:00:00Z</time>
      </trkpt>
      <trkpt lat="48.77405" lon="1.81158">
        <ele>132.8</ele>
        <time>2023-12-20T12:00:01Z</time>
      </trkpt>
      <trkpt lat="48.774" lon="1.81157">
        <ele>133.6</ele>
        <time>2023-12-20T12:00:02Z</time>
      </trkpt>
      <trkpt lat="48.77395" lon="1.81157">
        <ele>134.2</ele>
        <time>2023-12-20T12:00:03Z</time>
      </trkpt>
      <trkpt lat="48.7739" lon="1.81158">
        <ele>134.2</ele>
        <time>2023-12-20T12:00:04Z</time>
      </trkpt>
      <trkpt lat="48.77385" lon="1.81161">
        <ele>134.2</ele>
        <time>2023-12-20T12:00:05Z</time>
      </trkpt>
      <trkpt lat="48.7738" lon="1.81164">
        <ele>134.2</ele>
        <time>2023-12-20T12:00:06Z</time>
      </trkpt>
      <trkpt lat="48.77376" lon="1.81168">
        <ele>134</ele>
        <time>2023-12-20T12:00:07Z</time>
      </trkpt>
      <trkpt lat="48.77372" lon="1.81172">
        <ele>134</ele>
        <time>2023-12-20T12:00:08Z</time>
      </trkpt>
      <trkpt lat="48.77368" lon="1.81175">
        <ele>134</ele>
        <time>2023-12-20T12:00:09Z</time>
      </trkpt>
      <trkpt lat="48.77364" lon="1.8118">
        <ele>135</ele>
        <time>2023-12-20T12:00:10Z</time>
      </trkpt>
      <trkpt lat="48.7736" lon="1.81184">
        <ele>135.4</ele>
        <time>2023-12-20T12:00:11Z</time>
      </trkpt>
      <trkpt lat="48.77356" lon="1.81188">
        <ele>135.4</ele>
        <time>2023-12-20T12:00:12Z</time>
      </trkpt>
      <trkpt lat="48.77352" lon="1.81192">
        <ele>135.4</ele>
        <time>2023-12-20T12:00:13Z</time>
      </trkpt>
      <trkpt lat="48.77348" lon="1.81196">
        <ele>135.4</ele>
        <time>2023-12-20T12:00:14Z</time>
      </trkpt>
      <trkpt lat="48.77344" lon="1.812">
        <ele>135.8</ele>
        <time>2023-12-20T12:00:15Z</time>
      </trkpt>
      <trkpt lat="48.7734" lon="1.81204">
        <ele>135.8</ele>
        <time>2023-12-20T12:00:16Z</time>
      </trkpt>
      <trkpt lat="48.77336" lon="1.81207">
        <ele>135.8</ele>
        <time>2023-12-20T12:00:17Z</time>
      </trkpt>
      <trkpt lat="48.77332" lon="1.81211">
        <ele>136.4</ele>
        <time>2023-12-20T12:00:18Z</time>
      </trkpt>
      <trkpt lat="48.77328" lon="1.81215">
        <ele>137</ele>
        <time>2023-12-20T12:00:19Z</time>
      </trkpt>
      <trkpt lat="48.77323" lon="1.81218">
        <ele>137</ele>
        <time>2023-12-20T12:00:20Z</time>
      </trkpt>
      <trkpt lat="48.7732" lon="1.81222">
        <ele>137</ele>
        <time>2023-12-20T12:00:21Z</time>
      </trkpt>
      <trkpt lat="48.77316" lon="1.81226">
        <ele>137</ele>
        <time>2023-12-20T12:00:22Z</time>
      </trkpt>
      <trkpt lat="48.77311" lon="1.81229">
        <ele>137.2</ele>
        <time>2023-12-20T12:00:23Z</time>
      </trkpt>
      <trkpt lat="48.77307" lon="1.81234">
        <ele>137.2</ele>
        <time>2023-12-20T12:00:24Z</time>
      </trkpt>
      <trkpt lat="48.77303" lon="1.81237">
        <ele>137.2</ele>
        <time>2023-12-20T12:00:25Z</time>
      </trkpt>
      <trkpt lat="48.77299" lon="1.81241">
        <ele>137.2</ele>
        <time>2023-12-20T12:00:26Z</time>
      </trkpt>
      <trkpt lat="48.77295" lon="1.81245">
        <ele>137.8</ele>
        <time>2023-12-20T12:00:27Z</time>
      </trkpt>
      <trkpt lat="48.77291" lon="1.81248">
        <ele>137.8</ele>
        <time>2023-12-20T12:00:28Z</time>
      </trkpt>
      <trkpt lat="48.77287" lon="1.81252">
        <ele>137.8</ele>
        <time>2023-12-20T12:00:29Z</time>
      </trkpt>
      <trkpt lat="48.77283" lon="1.81256">
        <ele>136.8</ele>
        <time>2023-12-20T12:00:30Z</time>
      </trkpt>
      <trkpt lat="48.77279" lon="1.8126">
        <ele>136.8</ele>
        <time>2023-12-20T12:00:31Z</time>
      </trkpt>
      <trkpt lat="48.77275" lon="1.81264">
        <ele>136.8</ele>
        <time>2023-12-20T12:00:32Z</time>
      </trkpt>
      <trkpt lat="48.7727" lon="1.81269">
        <ele>136.8</ele>
        <time>2023-12-20T12:00:33Z</time>
      </trkpt>
      <trkpt lat="48.77267" lon="1.81273">
        <ele>137.6</ele>
        <time>2023-12-20T12:00:34Z</time>
      </trkpt>
      <trkpt lat="48.77263" lon="1.81277">
        <ele>137</ele>
        <time>2023-12-20T12:00:35Z</time>
      </trkpt>
      <trkpt lat="48.77259" lon="1.81282">
        <ele>137</ele>
        <time>2023-12-20T12:00:36Z</time>
      </trkpt>
      <trkpt lat="48.77255" lon="1.81286">
        <ele>137</ele>
        <time>2023-12-20T12:00:37Z</time>
      </trkpt>
      <trkpt lat="48.77252" lon="1.81292">
        <ele>137</ele>
        <time>2023-12-20T12:00:38Z</time>
      </trkpt>
      <trkpt lat="48.77248" lon="1.81298">
        <ele>136.8</ele>
        <time>2023-12-20T12:00:39Z</time>
      </trkpt>
      <trkpt lat="48.77245" lon="1.81304">
        <ele>136.8</ele>
        <time>2023-12-20T12:00:40Z</time>
      </trkpt>
      <trkpt lat="48.77242" lon="1.81311">
        <ele>136.8</ele>
        <time>2023-12-20T12:00:41Z</time>
      </trkpt>
      <trkpt lat="48.77239" lon="1.81318">
        <ele>135.8</ele>
        <time>2023-12-20T12:00:42Z</time>
      </trkpt>
      <trkpt lat="48.77236" lon="1.81326">
        <ele>136</ele>
        <time>2023-12-20T12:00:43Z</time>
      </trkpt>
      <trkpt lat="48.77233" lon="1.81333">
        <ele>136</ele>
        <time>2023-12-20T12:00:44Z</time>
      </trkpt>
      <trkpt lat="48.7723" lon="1.81341">
        <ele>136</ele>
        <time>2023-12-20T12:00:45Z</time>
      </trkpt>
      <trkpt lat="48.77227" lon="1.81349">
        <ele>135</ele>
        <time>2023-12-20T12:00:46Z</time>
      </trkpt>
      <trkpt lat="48.77225" lon="1.81357">
        <ele>135</ele>
        <time>2023-12-20T12:00:47Z</time>
      </trkpt>
      <trkpt lat="48.77222" lon="1.81365">
        <ele>135</ele>
        <time>2023-12-20T12:00:48Z</time>
      </trkpt>
      <trkpt lat="48.77219" lon="1.81374">
        <ele>135</ele>
        <time>2023-12-20T12:00:49Z</time>
      </trkpt>
      <trkpt lat="48.77217" lon="1.81383">
        <ele>135</ele>
        <time>2023-12-20T12:00:50Z</time>
      </trkpt>
      <trkpt lat="48.77214" lon="1.81393">
        <ele>133.6</ele>
        <time>2023-12-20T12:00:51Z</time>
      </trkpt>
      <trkpt lat="48.77212" lon="1.81403">
        <ele>133.6</ele>
        <time>2023-12-20T12:00:52Z</time>
      </trkpt>
      <trkpt lat="48.7721" lon="1.81414">
        <ele>133.6</ele>
        <time>2023-12-20T12:00:53Z</time>
      </trkpt>
      <trkpt lat="48.77208" lon="1.81424">
        <ele>132.6</ele>
        <time>2023-12-20T12:00:54Z</time>
      </trkpt>
      <trkpt lat="48.77206" lon="1.81436">
        <ele>132.2</ele>
        <time>2023-12-20T12:00:55Z</time>
      </trkpt>
      <trkpt lat="48.77204" lon="1.81447">
        <ele>132.2</ele>
        <time>2023-12-20T12:00:56Z</time>
      </trkpt>
      <trkpt lat="48.77202" lon="1.81459">
        <ele>132.2</ele>
        <time>2023-12-20T12:00:57Z</time>
      </trkpt>
      <trkpt lat="48.772" lon="1.8147">
        <ele>131.8</ele>
        <time>2023-12-20T12:00:58Z</time>
      </trkpt>
      <trkpt lat="48.77199" lon="1.81482">
        <ele>132</ele>
        <time>2023-12-20T12:00:59Z</time>
      </trkpt>
      <trkpt lat="48.77197" lon="1.81494">
        <ele>132</ele>
        <time>2023-12-20T12:01:00Z</time>
      </trkpt>
      <trkpt lat="48.77196" lon="1.81506">
        <ele>132</ele>
        <time>2023-12-20T12:01:01Z</time>
      </trkpt>
      <trkpt lat="48.77194" lon="1.81518">
        <ele>132</ele>
        <time>2023-12-20T12:01:02Z</time>
      </trkpt>
      <trkpt lat="48.77192" lon="1.8153">
        <ele>131</ele>
        <time>2023-12-20T12:01:03Z</time>
      </trkpt>
      <trkpt lat="48.77189" lon="1.81542">
        <ele>131</ele>
        <time>2023-12-20T12:01:04Z</time>
      </trkpt>
      <trkpt lat="48.77186" lon="1.81553">
        <ele>131</ele>
        <time>2023-12-20T12:01:05Z</time>
      </trkpt>
      <trkpt lat="48.77182" lon="1.81564">
        <ele>130.4</ele>
        <time>2023-12-20T12:01:06Z</time>
      </trkpt>
      <trkpt lat="48.77177" lon="1.81574">
        <ele>131.2</ele>
        <time>2023-12-20T12:01:07Z</time>
      </trkpt>
      <trkpt lat="48.77173" lon="1.81584">
        <ele>131.2</ele>
        <time>2023-12-20T12:01:08Z</time>
      </trkpt>
      <trkpt lat="48.77168" lon="1.81593">
        <ele>131.2</ele>
        <time>2023-12-20T12:01:09Z</time>
      </trkpt>
      <trkpt lat="48.77163" lon="1.81601">
        <ele>130.2</ele>
        <time>2023-12-20T12:01:10Z</time>
      </trkpt>
      <trkpt lat="48.77158" lon="1.8161">
        <ele>131</ele>
        <time>2023-12-20T12:01:11Z</time>
      </trkpt>
      <trkpt lat="48.77154" lon="1.81618">
        <ele>131</ele>
        <time>2023-12-20T12:01:12Z</time>
      </trkpt>
      <trkpt lat="48.77149" lon="1.81627">
        <ele>131</ele>
        <time>2023-12-20T12:01:13Z</time>
      </trkpt>
      <trkpt lat="48.77144" lon="1.81636">
        <ele>130.8</ele>
        <time>2023-12-20T12:01:14Z</time>
      </trkpt>
      <trkpt lat="48.7714" lon="1.81645">
        <ele>131</ele>
        <time>2023-12-20T12:01:15Z</time>
      </trkpt>
      <trkpt lat="48.77135" lon="1.81654">
        <ele>131</ele>
        <time>2023-12-20T12:01:16Z</time>
      </trkpt>
      <trkpt lat="48.77131" lon="1.81662">
        <ele>131</ele>
        <time>2023-12-20T12:01:17Z</time>
      </trkpt>
      <trkpt lat="48.77126" lon="1.81671">
        <ele>131</ele>
        <time>2023-12-20T12:01:18Z</time>
      </trkpt>
      <trkpt lat="48.77121" lon="1.8168">
        <ele>130</ele>
        <time>2023-12-20T12:01:19Z</time>
      </trkpt>
      <trkpt lat="48.77117" lon="1.81688">
        <ele>130</ele>
        <time>2023-12-20T12:01:20Z</time>
      </trkpt>
      <trkpt lat="48.77112" lon="1.81697">
        <ele>130</ele>
        <time>2023-12-20T12:01:21Z</time>
      </trkpt>
      <trkpt lat="48.77107" lon="1.81706">
        <ele>130</ele>
        <time>2023-12-20T12:01:22Z</time>
      </trkpt>
      <trkpt lat="48.77102" lon="1.81714">
        <ele>130.8</ele>
        <time>2023-12-20T12:01:23Z</time>
      </trkpt>
      <trkpt lat="48.77098" lon="1.81723">
        <ele>130.8</ele>
        <time>2023-12-20T12:01:24Z</time>
      </trkpt>
      <trkpt lat="48.77093" lon="1.81732">
        <ele>130.8</ele>
        <time>2023-12-20T12:01:25Z</time>
      </trkpt>
      <trkpt lat="48.77089" lon="1.8174">
        <ele>130.8</ele>
        <time>2023-12-20T12:01:26Z</time>
      </trkpt>
      <trkpt lat="48.77084" lon="1.81748">
        <ele>130.4</ele>
        <time>2023-12-20T12:01:27Z</time>
      </trkpt>
      <trkpt lat="48.7708" lon="1.81756">
        <ele>130.4</ele>
        <time>2023-12-20T12:01:28Z</time>
      </trkpt>
      <trkpt lat="48.77075" lon="1.81764">
        <ele>130.4</ele>
        <time>2023-12-20T12:01:29Z</time>
      </trkpt>
      <trkpt lat="48.77071" lon="1.81773">
        <ele>131</ele>
        <time>2023-12-20T12:01:30Z</time>
      </trkpt>
      <trkpt lat="48.77066" lon="1.81781">
        <ele>131.4</ele>
        <time>2023-12-20T12:01:31Z</time>
      </trkpt>
      <trkpt lat="48.77062" lon="1.81788">
        <ele>131.4</ele>
        <time>2023-12-20T12:01:32Z</time>
      </trkpt>
      <trkpt lat="48.77057" lon="1.81796">
        <ele>131.4</ele>
        <time>2023-12-20T12:01:33Z</time>
      </trkpt>
      <trkpt lat="48.77053" lon="1.81804">
        <ele>131.2</ele>
        <time>2023-12-20T12:01:34Z</time>
      </trkpt>
      <trkpt lat="48.77048" lon="1.81812">
        <ele>131.4</ele>
        <time>2023-12-20T12:01:35Z</time>
      </trkpt>
      <trkpt lat="48.77043" lon="1.81819">
        <ele>131.4</ele>
        <time>2023-12-20T12:01:36Z</time>
      </trkpt>
      <trkpt lat="48.77038" lon="1.81826">
        <ele>131.4</ele>
        <time>2023-12-20T12:01:37Z</time>
      </trkpt>
      <trkpt lat="48.77033" lon="1.81834">
        <ele>131.4</ele>
        <time>2023-12-20T12:01:38Z</time>
      </trkpt>
      <trkpt lat="48.77028" lon="1.81841">
        <ele>132.4</ele>
        <time>2023-12-20T12:01:39Z</time>
      </trkpt>
      <trkpt lat="48.77024" lon="1.81847">
        <ele>132.4</ele>
        <time>2023-12-20T12:01:40Z</time>
      </trkpt>
      <trkpt lat="48.77019" lon="1.81854">
        <ele>132.4</ele>
        <time>2023-12-20T12:01:41Z</time>
      </trkpt>
      <trkpt lat="48.77015" lon="1.8186">
        <ele>132</ele>
        <time>2023-12-20T12:01:42Z</time>
      </trkpt>
      <trkpt lat="48.7701" lon="1.81867">
        <ele>132</ele>
        <time>2023-12-20T12:01:43Z</time>
      </trkpt>
      <trkpt lat="48.77005" lon="1.81873">
        <ele>132</ele>
        <time>2023-12-20T12:01:44Z</time>
      </trkpt>
      <trkpt lat="48.77001" lon="1.81879">
        <ele>132</ele>
        <time>2023-12-20T12:01:45Z</time>
      </trkpt>
      <trkpt lat="48.76996" lon="1.81886">
        <ele>133</ele>
        <time>2023-12-20T12:01:46Z</time>
      </trkpt>
      <trkpt lat="48.76992" lon="1.81892">
        <ele>133</ele>
        <time>2023-12-20T12:01:47Z</time>
      </trkpt>
      <trkpt lat="48.76987" lon="1.81899">
        <ele>133</ele>
        <time>2023-12-20T12:01:48Z</time>
      </trkpt>
      <trkpt lat="48.76983" lon="1.81905">
        <ele>133</ele>
        <time>2023-12-20T12:01:49Z</time>
      </trkpt>
      <trkpt lat="48.76978" lon="1.81912">
        <ele>133.6</ele>
        <time>2023-12-20T12:01:50Z</time>
      </trkpt>
      <trkpt lat="48.76973" lon="1.81919">
        <ele>134.2</ele>
        <time>2023-12-20T12:01:51Z</time>
      </trkpt>
      <trkpt lat="48.76969" lon="1.81925">
        <ele>134.2</ele>
        <time>2023-12-20T12:01:52Z</time>
      </trkpt>
      <trkpt lat="48.76964" lon="1.81932">
        <ele>134.2</ele>
        <time>2023-12-20T12:01:53Z</time>
      </trkpt>
      <trkpt lat="48.76959" lon="1.81939">
        <ele>134.2</ele>
        <time>2023-12-20T12:01:54Z</time>
      </trkpt>
      <trkpt lat="48.76955" lon="1.81945">
        <ele>134.2</ele>
        <time>2023-12-20T12:01:55Z</time>
      </trkpt>
      <trkpt lat="48.7695" lon="1.81952">
        <ele>134.2</ele>
        <time>2023-12-20T12:01:56Z</time>
      </trkpt>
      <trkpt lat="48.76946" lon="1.81959">
        <ele>134.2</ele>
        <time>2023-12-20T12:01:57Z</time>
      </trkpt>
      <trkpt lat="48.76941" lon="1.81965">
        <ele>134.2</ele>
        <time>2023-12-20T12:01:58Z</time>
      </trkpt>
      <trkpt lat="48.76937" lon="1.81971">
        <ele>135.2</ele>
        <time>2023-12-20T12:01:59Z</time>
      </trkpt>
      <trkpt lat="48.76932" lon="1.81977">
        <ele>135.2</ele>
        <time>2023-12-20T12:02:00Z</time>
      </trkpt>
      <trkpt lat="48.76927" lon="1.81983">
        <ele>135.2</ele>
        <time>2023-12-20T12:02:01Z</time>
      </trkpt>
      <trkpt lat="48.76923" lon="1.81989">
        <ele>135.6</ele>
        <time>2023-12-20T12:02:02Z</time>
      </trkpt>
      <trkpt lat="48.76918" lon="1.81995">
        <ele>135.6</ele>
        <time>2023-12-20T12:02:03Z</time>
      </trkpt>
      <trkpt lat="48.76914" lon="1.82001">
        <ele>135.6</ele>
        <time>2023-12-20T12:02:04Z</time>
      </trkpt>
      <trkpt lat="48.76909" lon="1.82007">
        <ele>135.6</ele>
        <time>2023-12-20T12:02:05Z</time>
      </trkpt>
      <trkpt lat="48.76904" lon="1.82012">
        <ele>135.2</ele>
        <time>2023-12-20T12:02:06Z</time>
      </trkpt>
      <trkpt lat="48.76899" lon="1.82018">
        <ele>135.6</ele>
        <time>2023-12-20T12:02:07Z</time>
      </trkpt>
      <trkpt lat="48.76894" lon="1.82023">
        <ele>135.6</ele>
        <time>2023-12-20T12:02:08Z</time>
      </trkpt>
      <trkpt lat="48.76889" lon="1.82029">
        <ele>135.6</ele>
        <time>2023-12-20T12:02:09Z</time>
      </trkpt>
      <trkpt lat="48.76884" lon="1.82034">
        <ele>135.6</ele>
        <time>2023-12-20T12:02:10Z</time>
      </trkpt>
      <trkpt lat="48.76879" lon="1.82039">
        <ele>135.8</ele>
        <time>2023-12-20T12:02:11Z</time>
      </trkpt>
      <trkpt lat="48.76874" lon="1.82044">
        <ele>135.8</ele>
        <time>2023-12-20T12:02:12Z</time>
      </trkpt>
      <trkpt lat="48.76869" lon="1.8205">
        <ele>135.8</ele>
        <time>2023-12-20T12:02:13Z</time>
      </trkpt>
      <trkpt lat="48.76864" lon="1.82055">
        <ele>135.2</ele>
        <time>2023-12-20T12:02:14Z</time>
      </trkpt>
      <trkpt lat="48.76859" lon="1.82061">
        <ele>135.2</ele>
        <time>2023-12-20T12:02:15Z</time>
      </trkpt>
      <trkpt lat="48.76853" lon="1.82067">
        <ele>135.2</ele>
        <time>2023-12-20T12:02:16Z</time>
      </trkpt>
      <trkpt lat="48.76848" lon="1.82073">
        <ele>135.2</ele>
        <time>2023-12-20T12:02:17Z</time>
      </trkpt>
      <trkpt lat="48.76842" lon="1.82079">
        <ele>135.2</ele>
        <time>2023-12-20T12:02:18Z</time>
      </trkpt>
      <trkpt lat="48.76836" lon="1.82085">
        <ele>135</ele>
        <time>2023-12-20T12:02:19Z</time>
      </trkpt>
      <trkpt lat="48.76831" lon="1.82092">
        <ele>135</ele>
        <time>2023-12-20T12:02:20Z</time>
      </trkpt>
      <trkpt lat="48.76825" lon="1.82098">
        <ele>135</ele>
        <time>2023-12-20T12:02:21Z</time>
      </trkpt>
      <trkpt lat="48.76819" lon="1.82106">
        <ele>134</ele>
        <time>2023-12-20T12:02:22Z</time>
      </trkpt>
      <trkpt lat="48.76814" lon="1.82114">
        <ele>133.4</ele>
        <time>2023-12-20T12:02:23Z</time>
      </trkpt>
      <trkpt lat="48.76809" lon="1.82122">
        <ele>133.4</ele>
        <time>2023-12-20T12:02:24Z</time>
      </trkpt>
      <trkpt lat="48.76804" lon="1.82132">
        <ele>133.4</ele>
        <time>2023-12-20T12:02:25Z</time>
      </trkpt>
      <trkpt lat="48.768" lon="1.82143">
        <ele>132.4</ele>
        <time>2023-12-20T12:02:26Z</time>
      </trkpt>
      <trkpt lat="48.76795" lon="1.82154">
        <ele>129.8</ele>
        <time>2023-12-20T12:02:27Z</time>
      </trkpt>
      <trkpt lat="48.76791" lon="1.82166">
        <ele>129.8</ele>
        <time>2023-12-20T12:02:28Z</time>
      </trkpt>
      <trkpt lat="48.76787" lon="1.82178">
        <ele>129.8</ele>
        <time>2023-12-20T12:02:29Z</time>
      </trkpt>
      <trkpt lat="48.76783" lon="1.82191">
        <ele>128.8</ele>
        <time>2023-12-20T12:02:30Z</time>
      </trkpt>
      <trkpt lat="48.76779" lon="1.82204">
        <ele>127.4</ele>
        <time>2023-12-20T12:02:31Z</time>
      </trkpt>
      <trkpt lat="48.76775" lon="1.82218">
        <ele>127.4</ele>
        <time>2023-12-20T12:02:32Z</time>
      </trkpt>
      <trkpt lat="48.76771" lon="1.82232">
        <ele>127.4</ele>
        <time>2023-12-20T12:02:33Z</time>
      </trkpt>
      <trkpt lat="48.76767" lon="1.82246">
        <ele>126.4</ele>
        <time>2023-12-20T12:02:34Z</time>
      </trkpt>
      <trkpt lat="48.76762" lon="1.82261">
        <ele>125</ele>
        <time>2023-12-20T12:02:35Z</time>
      </trkpt>
      <trkpt lat="48.76757" lon="1.82274">
        <ele>125</ele>
        <time>2023-12-20T12:02:36Z</time>
      </trkpt>
      <trkpt lat="48.76751" lon="1.82287">
        <ele>125</ele>
        <time>2023-12-20T12:02:37Z</time>
      </trkpt>
      <trkpt lat="48.76744" lon="1.82299">
        <ele>125</ele>
        <time>2023-12-20T12:02:38Z</time>
      </trkpt>
      <trkpt lat="48.76737" lon="1.8231">
        <ele>125.6</ele>
        <time>2023-12-20T12:02:39Z</time>
      </trkpt>
      <trkpt lat="48.7673" lon="1.82319">
        <ele>125.6</ele>
        <time>2023-12-20T12:02:40Z</time>
      </trkpt>
      <trkpt lat="48.76721" lon="1.82327">
        <ele>125.6</ele>
        <time>2023-12-20T12:02:41Z</time>
      </trkpt>
      <trkpt lat="48.76713" lon="1.82334">
        <ele>125.6</ele>
        <time>2023-12-20T12:02:42Z</time>
      </trkpt>
      <trkpt lat="48.76704" lon="1.8234">
        <ele>125.2</ele>
        <time>2023-12-20T12:02:43Z</time>
      </trkpt>
      <trkpt lat="48.76695" lon="1.82344">
        <ele>125.2</ele>
        <time>2023-12-20T12:02:44Z</time>
      </trkpt>
      <trkpt lat="48.76687" lon="1.82348">
        <ele>125.2</ele>
        <time>2023-12-20T12:02:45Z</time>
      </trkpt>
      <trkpt lat="48.76678" lon="1.82351">
        <ele>125.2</ele>
        <time>2023-12-20T12:02:46Z</time>
      </trkpt>
      <trkpt lat="48.76669" lon="1.82354">
        <ele>123.8</ele>
        <time>2023-12-20T12:02:47Z</time>
      </trkpt>
      <trkpt lat="48.7666" lon="1.82357">
        <ele>123.8</ele>
        <time>2023-12-20T12:02:48Z</time>
      </trkpt>
      <trkpt lat="48.76652" lon="1.82359">
        <ele>123.8</ele>
        <time>2023-12-20T12:02:49Z</time>
      </trkpt>
      <trkpt lat="48.76643" lon="1.82361">
        <ele>123.8</ele>
        <time>2023-12-20T12:02:50Z</time>
      </trkpt>
      <trkpt lat="48.76635" lon="1.82362">
        <ele>125.4</ele>
        <time>2023-12-20T12:02:51Z</time>
      </trkpt>
      <trkpt lat="48.76626" lon="1.82363">
        <ele>125.4</ele>
        <time>2023-12-20T12:02:52Z</time>
      </trkpt>
      <trkpt lat="48.76618" lon="1.82364">
        <ele>125.4</ele>
        <time>2023-12-20T12:02:53Z</time>
      </trkpt>
      <trkpt lat="48.76611" lon="1.82365">
        <ele>125.4</ele>
        <time>2023-12-20T12:02:54Z</time>
      </trkpt>
      <trkpt lat="48.76603" lon="1.82367">
        <ele>126</ele>
        <time>2023-12-20T12:02:55Z</time>
      </trkpt>
      <trkpt lat="48.76596" lon="1.8237">
        <ele>126</ele>
        <time>2023-12-20T12:02:56Z</time>
      </trkpt>
      <trkpt lat="48.76589" lon="1.82372">
        <ele>126</ele>
        <time>2023-12-20T12:02:57Z</time>
      </trkpt>
      <trkpt lat="48.76582" lon="1.82375">
        <ele>126.8</ele>
        <time>2023-12-20T12:02:58Z</time>
      </trkpt>
      <trkpt lat="48.76575" lon="1.82379">
        <ele>126.6</ele>
        <time>2023-12-20T12:02:59Z</time>
      </trkpt>
      <trkpt lat="48.76568" lon="1.82383">
        <ele>126.6</ele>
        <time>2023-12-20T12:03:00Z</time>
      </trkpt>
      <trkpt lat="48.76561" lon="1.82387">
        <ele>126.6</ele>
        <time>2023-12-20T12:03:01Z</time>
      </trkpt>
      <trkpt lat="48.76554" lon="1.82391">
        <ele>126.6</ele>
        <time>2023-12-20T12:03:02Z</time>
      </trkpt>
      <trkpt lat="48.76547" lon="1.82396">
        <ele>126.8</ele>
        <time>2023-12-20T12:03:03Z</time>
      </trkpt>
      <trkpt lat="48.7654" lon="1.824">
        <ele>126.8</ele>
        <time>2023-12-20T12:03:04Z</time>
      </trkpt>
      <trkpt lat="48.76533" lon="1.82405">
        <ele>126.8</ele>
        <time>2023-12-20T12:03:05Z</time>
      </trkpt>
      <trkpt lat="48.76526" lon="1.8241">
        <ele>126.8</ele>
        <time>2023-12-20T12:03:06Z</time>
      </trkpt>
      <trkpt lat="48.76519" lon="1.82415">
        <ele>127.8</ele>
        <time>2023-12-20T12:03:07Z</time>
      </trkpt>
      <trkpt lat="48.76512" lon="1.8242">
        <ele>127.8</ele>
        <time>2023-12-20T12:03:08Z</time>
      </trkpt>
      <trkpt lat="48.76505" lon="1.82424">
        <ele>127.8</ele>
        <time>2023-12-20T12:03:09Z</time>
      </trkpt>
      <trkpt lat="48.76498" lon="1.82429">
        <ele>127.8</ele>
        <time>2023-12-20T12:03:10Z</time>
      </trkpt>
      <trkpt lat="48.76491" lon="1.82434">
        <ele>127.4</ele>
        <time>2023-12-20T12:03:11Z</time>
      </trkpt>
      <trkpt lat="48.76484" lon="1.82438">
        <ele>127.4</ele>
        <time>2023-12-20T12:03:12Z</time>
      </trkpt>
      <trkpt lat="48.76477" lon="1.82442">
        <ele>127.4</ele>
        <time>2023-12-20T12:03:13Z</time>
      </trkpt>
      <trkpt lat="48.7647" lon="1.82447">
        <ele>128</ele>
        <time>2023-12-20T12:03:14Z</time>
      </trkpt>
      <trkpt lat="48.76463" lon="1.82451">
        <ele>127.4</ele>
        <time>2023-12-20T12:03:15Z</time>
      </trkpt>
      <trkpt lat="48.76456" lon="1.82454">
        <ele>127.4</ele>
        <time>2023-12-20T12:03:16Z</time>
      </trkpt>
      <trkpt lat="48.76449" lon="1.82458">
        <ele>127.4</ele>
        <time>2023-12-20T12:03:17Z</time>
      </trkpt>
      <trkpt lat="48.76442" lon="1.82462">
        <ele>127.6</ele>
        <time>2023-12-20T12:03:18Z</time>
      </trkpt>
      <trkpt lat="48.76435" lon="1.82466">
        <ele>128</ele>
        <time>2023-12-20T12:03:19Z</time>
      </trkpt>
      <trkpt lat="48.76428" lon="1.82469">
        <ele>128</ele>
        <time>2023-12-20T12:03:20Z</time>
      </trkpt>
      <trkpt lat="48.7642" lon="1.82473">
        <ele>128</ele>
        <time>2023-12-20T12:03:21Z</time>
      </trkpt>
      <trkpt lat="48.76413" lon="1.82477">
        <ele>127</ele>
        <time>2023-12-20T12:03:22Z</time>
      </trkpt>
      <trkpt lat="48.76405" lon="1.8248">
        <ele>127</ele>
        <time>2023-12-20T12:03:23Z</time>
      </trkpt>
      <trkpt lat="48.76398" lon="1.82484">
        <ele>127</ele>
        <time>2023-12-20T12:03:24Z</time>
      </trkpt>
      <trkpt lat="48.76391" lon="1.82488">
        <ele>127</ele>
        <time>2023-12-20T12:03:25Z</time>
      </trkpt>
      <trkpt lat="48.76384" lon="1.82492">
        <ele>128</ele>
        <time>2023-12-20T12:03:26Z</time>
      </trkpt>
      <trkpt lat="48.76377" lon="1.82498">
        <ele>127.4</ele>
        <time>2023-12-20T12:03:27Z</time>
      </trkpt>
      <trkpt lat="48.7637" lon="1.82505">
        <ele>127.4</ele>
        <time>2023-12-20T12:03:28Z</time>
      </trkpt>
      <trkpt lat="48.76365" lon="1.82514">
        <ele>127.4</ele>
        <time>2023-12-20T12:03:29Z</time>
      </trkpt>
      <trkpt lat="48.76361" lon="1.82524">
        <ele>127.4</ele>
        <time>2023-12-20T12:03:30Z</time>
      </trkpt>
      <trkpt lat="48.76358" lon="1.82535">
        <ele>126.8</ele>
        <time>2023-12-20T12:03:31Z</time>
      </trkpt>
      <trkpt lat="48.76355" lon="1.82547">
        <ele>126.8</ele>
        <time>2023-12-20T12:03:32Z</time>
      </trkpt>
      <trkpt lat="48.76353" lon="1.82558">
        <ele>126.8</ele>
        <time>2023-12-20T12:03:33Z</time>
      </trkpt>
      <trkpt lat="48.7635" lon="1.8257">
        <ele>125.8</ele>
        <time>2023-12-20T12:03:34Z</time>
      </trkpt>
      <trkpt lat="48.76347" lon="1.82582">
        <ele>124.2</ele>
        <time>2023-12-20T12:03:35Z</time>
      </trkpt>
      <trkpt lat="48.76345" lon="1.82595">
        <ele>124.2</ele>
        <time>2023-12-20T12:03:36Z</time>
      </trkpt>
      <trkpt lat="48.76342" lon="1.82607">
        <ele>124.2</ele>
        <time>2023-12-20T12:03:37Z</time>
      </trkpt>
      <trkpt lat="48.7634" lon="1.82619">
        <ele>123.4</ele>
        <time>2023-12-20T12:03:38Z</time>
      </trkpt>
      <trkpt lat="48.76337" lon="1.82632">
        <ele>123.2</ele>
        <time>2023-12-20T12:03:39Z</time>
      </trkpt>
      <trkpt lat="48.76335" lon="1.82645">
        <ele>123.2</ele>
        <time>2023-12-20T12:03:40Z</time>
      </trkpt>
      <trkpt lat="48.76332" lon="1.82657">
        <ele>123.2</ele>
        <time>2023-12-20T12:03:41Z</time>
      </trkpt>
      <trkpt lat="48.7633" lon="1.8267">
        <ele>122.2</ele>
        <time>2023-12-20T12:03:42Z</time>
      </trkpt>
      <trkpt lat="48.76327" lon="1.82683">
        <ele>121.6</ele>
        <time>2023-12-20T12:03:43Z</time>
      </trkpt>
      <trkpt lat="48.76325" lon="1.82695">
        <ele>121.6</ele>
        <time>2023-12-20T12:03:44Z</time>
      </trkpt>
      <trkpt lat="48.76322" lon="1.82708">
        <ele>121.6</ele>
        <time>2023-12-20T12:03:45Z</time>
      </trkpt>
      <trkpt lat="48.7632" lon="1.82721">
        <ele>121.6</ele>
        <time>2023-12-20T12:03:46Z</time>
      </trkpt>
      <trkpt lat="48.76317" lon="1.82733">
        <ele>121.2</ele>
        <time>2023-12-20T12:03:47Z</time>
      </trkpt>
      <trkpt lat="48.76315" lon="1.82746">
        <ele>121.2</ele>
        <time>2023-12-20T12:03:48Z</time>
      </trkpt>
      <trkpt lat="48.76313" lon="1.82758">
        <ele>121.2</ele>
        <time>2023-12-20T12:03:49Z</time>
      </trkpt>
      <trkpt lat="48.76311" lon="1.8277">
        <ele>121.2</ele>
        <time>2023-12-20T12:03:50Z</time>
      </trkpt>
      <trkpt lat="48.76308" lon="1.82781">
        <ele>121.4</ele>
        <time>2023-12-20T12:03:51Z</time>
      </trkpt>
      <trkpt lat="48.76306" lon="1.82793">
        <ele>121.4</ele>
        <time>2023-12-20T12:03:52Z</time>
      </trkpt>
      <trkpt lat="48.76304" lon="1.82804">
        <ele>121.4</ele>
        <time>2023-12-20T12:03:53Z</time>
      </trkpt>
      <trkpt lat="48.76302" lon="1.82815">
        <ele>121.4</ele>
        <time>2023-12-20T12:03:54Z</time>
      </trkpt>
      <trkpt lat="48.763" lon="1.82826">
        <ele>121.8</ele>
        <time>2023-12-20T12:03:55Z</time>
      </trkpt>
      <trkpt lat="48.76297" lon="1.82836">
        <ele>121.8</ele>
        <time>2023-12-20T12:03:56Z</time>
      </trkpt>
      <trkpt lat="48.76295" lon="1.82847">
        <ele>121.8</ele>
        <time>2023-12-20T12:03:57Z</time>
      </trkpt>
      <trkpt lat="48.76292" lon="1.82857">
        <ele>120.8</ele>
        <time>2023-12-20T12:03:58Z</time>
      </trkpt>
      <trkpt lat="48.76289" lon="1.82867">
        <ele>120.6</ele>
        <time>2023-12-20T12:03:59Z</time>
      </trkpt>
      <trkpt lat="48.76285" lon="1.82877">
        <ele>120.6</ele>
        <time>2023-12-20T12:04:00Z</time>
      </trkpt>
      <trkpt lat="48.76282" lon="1.82887">
        <ele>120.6</ele>
        <time>2023-12-20T12:04:01Z</time>
      </trkpt>
      <trkpt lat="48.76278" lon="1.82897">
        <ele>119.6</ele>
        <time>2023-12-20T12:04:02Z</time>
      </trkpt>
      <trkpt lat="48.76273" lon="1.82907">
        <ele>119.2</ele>
        <time>2023-12-20T12:04:03Z</time>
      </trkpt>
      <trkpt lat="48.76269" lon="1.82917">
        <ele>119.2</ele>
        <time>2023-12-20T12:04:04Z</time>
      </trkpt>
      <trkpt lat="48.76264" lon="1.82927">
        <ele>119.2</ele>
        <time>2023-12-20T12:04:05Z</time>
      </trkpt>
      <trkpt lat="48.7626" lon="1.82938">
        <ele>119.2</ele>
        <time>2023-12-20T12:04:06Z</time>
      </trkpt>
      <trkpt lat="48.76255" lon="1.82949">
        <ele>118.2</ele>
        <time>2023-12-20T12:04:07Z</time>
      </trkpt>
      <trkpt lat="48.7625" lon="1.8296">
        <ele>118.2</ele>
        <time>2023-12-20T12:04:08Z</time>
      </trkpt>
      <trkpt lat="48.76245" lon="1.82971">
        <ele>118.2</ele>
        <time>2023-12-20T12:04:09Z</time>
      </trkpt>
      <trkpt lat="48.7624" lon="1.82983">
        <ele>117.2</ele>
        <time>2023-12-20T12:04:10Z</time>
      </trkpt>
      <trkpt lat="48.76235" lon="1.82995">
        <ele>116.2</ele>
        <time>2023-12-20T12:04:11Z</time>
      </trkpt>
      <trkpt lat="48.76229" lon="1.83007">
        <ele>116.2</ele>
        <time>2023-12-20T12:04:12Z</time>
      </trkpt>
      <trkpt lat="48.76224" lon="1.8302">
        <ele>116.2</ele>
        <time>2023-12-20T12:04:13Z</time>
      </trkpt>
      <trkpt lat="48.76218" lon="1.83033">
        <ele>115.2</ele>
        <time>2023-12-20T12:04:14Z</time>
      </trkpt>
      <trkpt lat="48.76212" lon="1.83046">
        <ele>113.4</ele>
        <time>2023-12-20T12:04:15Z</time>
      </trkpt>
      <trkpt lat="48.76206" lon="1.83059">
        <ele>113.4</ele>
        <time>2023-12-20T12:04:16Z</time>
      </trkpt>
      <trkpt lat="48.762" lon="1.83073">
        <ele>113.4</ele>
        <time>2023-12-20T12:04:17Z</time>
      </trkpt>
      <trkpt lat="48.76194" lon="1.83086">
        <ele>113.4</ele>
        <time>2023-12-20T12:04:18Z</time>
      </trkpt>
      <trkpt lat="48.76189" lon="1.83099">
        <ele>112.6</ele>
        <time>2023-12-20T12:04:19Z</time>
      </trkpt>
      <trkpt lat="48.76183" lon="1.83112">
        <ele>112.6</ele>
        <time>2023-12-20T12:04:20Z</time>
      </trkpt>
      <trkpt lat="48.76177" lon="1.83125">
        <ele>112.6</ele>
        <time>2023-12-20T12:04:21Z</time>
      </trkpt>
      <trkpt lat="48.76171" lon="1.83138">
        <ele>112.4</ele>
        <time>2023-12-20T12:04:22Z</time>
      </trkpt>
      <trkpt lat="48.76166" lon="1.8315">
        <ele>111.6</ele>
        <time>2023-12-20T12:04:23Z</time>
      </trkpt>
      <trkpt lat="48.7616" lon="1.83164">
        <ele>111.6</ele>
        <time>2023-12-20T12:04:24Z</time>
      </trkpt>
      <trkpt lat="48.76154" lon="1.83177">
        <ele>111.6</ele>
        <time>2023-12-20T12:04:25Z</time>
      </trkpt>
      <trkpt lat="48.76148" lon="1.8319">
        <ele>110.6</ele>
        <time>2023-12-20T12:04:26Z</time>
      </trkpt>
      <trkpt lat="48.76142" lon="1.83204">
        <ele>109.4</ele>
        <time>2023-12-20T12:04:27Z</time>
      </trkpt>
      <trkpt lat="48.76137" lon="1.83217">
        <ele>109.4</ele>
        <time>2023-12-20T12:04:28Z</time>
      </trkpt>
      <trkpt lat="48.76131" lon="1.83231">
        <ele>109.4</ele>
        <time>2023-12-20T12:04:29Z</time>
      </trkpt>
      <trkpt lat="48.76125" lon="1.83245">
        <ele>108.4</ele>
        <time>2023-12-20T12:04:30Z</time>
      </trkpt>
      <trkpt lat="48.76118" lon="1.83259">
        <ele>106.8</ele>
        <time>2023-12-20T12:04:31Z</time>
      </trkpt>
      <trkpt lat="48.76112" lon="1.83274">
        <ele>106.8</ele>
        <time>2023-12-20T12:04:32Z</time>
      </trkpt>
      <trkpt lat="48.76106" lon="1.83288">
        <ele>106.8</ele>
        <time>2023-12-20T12:04:33Z</time>
      </trkpt>
      <trkpt lat="48.76099" lon="1.83302">
        <ele>105.8</ele>
        <time>2023-12-20T12:04:34Z</time>
      </trkpt>
      <trkpt lat="48.76093" lon="1.83317">
        <ele>103.6</ele>
        <time>2023-12-20T12:04:35Z</time>
      </trkpt>
      <trkpt lat="48.76086" lon="1.83331">
        <ele>103.6</ele>
        <time>2023-12-20T12:04:36Z</time>
      </trkpt>
      <trkpt lat="48.7608" lon="1.83346">
        <ele>103.6</ele>
        <time>2023-12-20T12:04:37Z</time>
      </trkpt>
      <trkpt lat="48.76073" lon="1.8336">
        <ele>102.6</ele>
        <time>2023-12-20T12:04:38Z</time>
      </trkpt>
      <trkpt lat="48.76067" lon="1.83375">
        <ele>100.2</ele>
        <time>2023-12-20T12:04:39Z</time>
      </trkpt>
      <trkpt lat="48.76061" lon="1.8339">
        <ele>100.2</ele>
        <time>2023-12-20T12:04:40Z</time>
      </trkpt>
      <trkpt lat="48.76056" lon="1.83404">
        <ele>100.2</ele>
        <time>2023-12-20T12:04:41Z</time>
      </trkpt>
      <trkpt lat="48.76052" lon="1.83419">
        <ele>101.2</ele>
        <time>2023-12-20T12:04:42Z</time>
      </trkpt>
      <trkpt lat="48.7605" lon="1.83431">
        <ele>103.6</ele>
        <time>2023-12-20T12:04:43Z</time>
      </trkpt>
      <trkpt lat="48.76049" lon="1.83442">
        <ele>103.6</ele>
        <time>2023-12-20T12:04:44Z</time>
      </trkpt>
      <trkpt lat="48.76048" lon="1.83453">
        <ele>103.6</ele>
        <time>2023-12-20T12:04:45Z</time>
      </trkpt>
      <trkpt lat="48.76047" lon="1.83463">
        <ele>102.8</ele>
        <time>2023-12-20T12:04:46Z</time>
      </trkpt>
      <trkpt lat="48.76044" lon="1.83472">
        <ele>102.8</ele>
        <time>2023-12-20T12:04:47Z</time>
      </trkpt>
      <trkpt lat="48.76039" lon="1.83479">
        <ele>102.8</ele>
        <time>2023-12-20T12:04:48Z</time>
      </trkpt>
      <trkpt lat="48.76034" lon="1.83484">
        <ele>102.8</ele>
        <time>2023-12-20T12:04:49Z</time>
      </trkpt>
      <trkpt lat="48.76028" lon="1.83488">
        <ele>102.8</ele>
        <time>2023-12-20T12:04:50Z</time>
      </trkpt>
      <trkpt lat="48.76022" lon="1.83492">
        <ele>102.6</ele>
        <time>2023-12-20T12:04:51Z</time>
      </trkpt>
      <trkpt lat="48.76016" lon="1.83496">
        <ele>102.6</ele>
        <time>2023-12-20T12:04:52Z</time>
      </trkpt>
      <trkpt lat="48.7601" lon="1.83502">
        <ele>102.6</ele>
        <time>2023-12-20T12:04:53Z</time>
      </trkpt>
      <trkpt lat="48.76004" lon="1.83508">
        <ele>102.6</ele>
        <time>2023-12-20T12:04:54Z</time>
      </trkpt>
      <trkpt lat="48.75999" lon="1.83514">
        <ele>102.4</ele>
        <time>2023-12-20T12:04:55Z</time>
      </trkpt>
      <trkpt lat="48.75992" lon="1.83519">
        <ele>102.4</ele>
        <time>2023-12-20T12:04:56Z</time>
      </trkpt>
      <trkpt lat="48.75985" lon="1.83523">
        <ele>102.4</ele>
        <time>2023-12-20T12:04:57Z</time>
      </trkpt>
      <trkpt lat="48.75978" lon="1.83525">
        <ele>101.4</ele>
        <time>2023-12-20T12:04:58Z</time>
      </trkpt>
      <trkpt lat="48.7597" lon="1.83527">
        <ele>100.8</ele>
        <time>2023-12-20T12:04:59Z</time>
      </trkpt>
      <trkpt lat="48.75962" lon="1.83527">
        <ele>100.8</ele>
        <time>2023-12-20T12:05:00Z</time>
      </trkpt>
      <trkpt lat="48.75954" lon="1.83527">
        <ele>100.8</ele>
        <time>2023-12-20T12:05:01Z</time>
      </trkpt>
      <trkpt lat="48.75946" lon="1.83526">
        <ele>101.8</ele>
        <time>2023-12-20T12:05:02Z</time>
      </trkpt>
      <trkpt lat="48.75938" lon="1.83527">
        <ele>101.6</ele>
        <time>2023-12-20T12:05:03Z</time>
      </trkpt>
      <trkpt lat="48.75931" lon="1.83527">
        <ele>101.6</ele>
        <time>2023-12-20T12:05:04Z</time>
      </trkpt>
      <trkpt lat="48.75924" lon="1.83528">
        <ele>101.6</ele>
        <time>2023-12-20T12:05:05Z</time>
      </trkpt>
      <trkpt lat="48.75918" lon="1.8353">
        <ele>102.6</ele>
        <time>2023-12-20T12:05:06Z</time>
      </trkpt>
      <trkpt lat="48.75911" lon="1.83533">
        <ele>103.2</ele>
        <time>2023-12-20T12:05:07Z</time>
      </trkpt>
      <trkpt lat="48.75905" lon="1.83535">
        <ele>103.2</ele>
        <time>2023-12-20T12:05:08Z</time>
      </trkpt>
      <trkpt lat="48.75899" lon="1.83539">
        <ele>103.2</ele>
        <time>2023-12-20T12:05:09Z</time>
      </trkpt>
      <trkpt lat="48.75894" lon="1.83543">
        <ele>104.2</ele>
        <time>2023-12-20T12:05:10Z</time>
      </trkpt>
      <trkpt lat="48.75889" lon="1.83547">
        <ele>104.6</ele>
        <time>2023-12-20T12:05:11Z</time>
      </trkpt>
      <trkpt lat="48.75885" lon="1.83552">
        <ele>104.6</ele>
        <time>2023-12-20T12:05:12Z</time>
      </trkpt>
      <trkpt lat="48.75881" lon="1.83557">
        <ele>104.6</ele>
        <time>2023-12-20T12:05:13Z</time>
      </trkpt>
      <trkpt lat="48.75878" lon="1.83562">
        <ele>105.6</ele>
        <time>2023-12-20T12:05:14Z</time>
      </trkpt>
      <trkpt lat="48.75876" lon="1.83567">
        <ele>106.4</ele>
        <time>2023-12-20T12:05:15Z</time>
      </trkpt>
      <trkpt lat="48.75873" lon="1.83572">
        <ele>106.4</ele>
        <time>2023-12-20T12:05:16Z</time>
      </trkpt>
      <trkpt lat="48.7587" lon="1.83576">
        <ele>106.4</ele>
        <time>2023-12-20T12:05:17Z</time>
      </trkpt>
      <trkpt lat="48.75868" lon="1.83581">
        <ele>106.4</ele>
        <time>2023-12-20T12:05:18Z</time>
      </trkpt>
      <trkpt lat="48.75865" lon="1.83585">
        <ele>107.2</ele>
        <time>2023-12-20T12:05:19Z</time>
      </trkpt>
      <trkpt lat="48.75863" lon="1.8359">
        <ele>107.2</ele>
        <time>2023-12-20T12:05:20Z</time>
      </trkpt>
      <trkpt lat="48.75861" lon="1.83595">
        <ele>107.2</ele>
        <time>2023-12-20T12:05:21Z</time>
      </trkpt>
      <trkpt lat="48.75858" lon="1.836">
        <ele>108.2</ele>
        <time>2023-12-20T12:05:22Z</time>
      </trkpt>
      <trkpt lat="48.75856" lon="1.83605">
        <ele>108</ele>
        <time>2023-12-20T12:05:23Z</time>
      </trkpt>
      <trkpt lat="48.75854" lon="1.83611">
        <ele>108</ele>
        <time>2023-12-20T12:05:24Z</time>
      </trkpt>
      <trkpt lat="48.75851" lon="1.83617">
        <ele>108</ele>
        <time>2023-12-20T12:05:25Z</time>
      </trkpt>
      <trkpt lat="48.75849" lon="1.83622">
        <ele>108.6</ele>
        <time>2023-12-20T12:05:26Z</time>
      </trkpt>
      <trkpt lat="48.75847" lon="1.83628">
        <ele>108.8</ele>
        <time>2023-12-20T12:05:27Z</time>
      </trkpt>
      <trkpt lat="48.75845" lon="1.83634">
        <ele>108.8</ele>
        <time>2023-12-20T12:05:28Z</time>
      </trkpt>
      <trkpt lat="48.75843" lon="1.8364">
        <ele>108.8</ele>
        <time>2023-12-20T12:05:29Z</time>
      </trkpt>
      <trkpt lat="48.75842" lon="1.83646">
        <ele>108.6</ele>
        <time>2023-12-20T12:05:30Z</time>
      </trkpt>
      <trkpt lat="48.7584" lon="1.83653">
        <ele>108.8</ele>
        <time>2023-12-20T12:05:31Z</time>
      </trkpt>
      <trkpt lat="48.75838" lon="1.83659">
        <ele>108.8</ele>
        <time>2023-12-20T12:05:32Z</time>
      </trkpt>
      <trkpt lat="48.75836" lon="1.83665">
        <ele>108.8</ele>
        <time>2023-12-20T12:05:33Z</time>
      </trkpt>
      <trkpt lat="48.75835" lon="1.83671">
        <ele>108.8</ele>
        <time>2023-12-20T12:05:34Z</time>
      </trkpt>
      <trkpt lat="48.75833" lon="1.83677">
        <ele>110</ele>
        <time>2023-12-20T12:05:35Z</time>
      </trkpt>
      <trkpt lat="48.75832" lon="1.83683">
        <ele>110</ele>
        <time>2023-12-20T12:05:36Z</time>
      </trkpt>
      <trkpt lat="48.7583" lon="1.83689">
        <ele>110</ele>
        <time>2023-12-20T12:05:37Z</time>
      </trkpt>
      <trkpt lat="48.75828" lon="1.83695">
        <ele>110.4</ele>
        <time>2023-12-20T12:05:38Z</time>
      </trkpt>
      <trkpt lat="48.75826" lon="1.83701">
        <ele>110.6</ele>
        <time>2023-12-20T12:05:39Z</time>
      </trkpt>
      <trkpt lat="48.75823" lon="1.83706">
        <ele>110.6</ele>
        <time>2023-12-20T12:05:40Z</time>
      </trkpt>
      <trkpt lat="48.75821" lon="1.83712">
        <ele>110.6</ele>
        <time>2023-12-20T12:05:41Z</time>
      </trkpt>
      <trkpt lat="48.75818" lon="1.83716">
        <ele>111.2</ele>
        <time>2023-12-20T12:05:42Z</time>
      </trkpt>
      <trkpt lat="48.75815" lon="1.83721">
        <ele>111</ele>
        <time>2023-12-20T12:05:43Z</time>
      </trkpt>
      <trkpt lat="48.75811" lon="1.83724">
        <ele>111</ele>
        <time>2023-12-20T12:05:44Z</time>
      </trkpt>
      <trkpt lat="48.75807" lon="1.83728">
        <ele>111</ele>
        <time>2023-12-20T12:05:45Z</time>
      </trkpt>
      <trkpt lat="48.75803" lon="1.8373">
        <ele>111.8</ele>
        <time>2023-12-20T12:05:46Z</time>
      </trkpt>
      <trkpt lat="48.75799" lon="1.83731">
        <ele>111.4</ele>
        <time>2023-12-20T12:05:47Z</time>
      </trkpt>
      <trkpt lat="48.75795" lon="1.83732">
        <ele>111.4</ele>
        <time>2023-12-20T12:05:48Z</time>
      </trkpt>
      <trkpt lat="48.75792" lon="1.83731">
        <ele>111.4</ele>
        <time>2023-12-20T12:05:49Z</time>
      </trkpt>
      <trkpt lat="48.75788" lon="1.8373">
        <ele>112.4</ele>
        <time>2023-12-20T12:05:50Z</time>
      </trkpt>
      <trkpt lat="48.75784" lon="1.83729">
        <ele>112.4</ele>
        <time>2023-12-20T12:05:51Z</time>
      </trkpt>
      <trkpt lat="48.75781" lon="1.83727">
        <ele>112.4</ele>
        <time>2023-12-20T12:05:52Z</time>
      </trkpt>
      <trkpt lat="48.75778" lon="1.83724">
        <ele>112.4</ele>
        <time>2023-12-20T12:05:53Z</time>
      </trkpt>
      <trkpt lat="48.75775" lon="1.83722">
        <ele>112.4</ele>
        <time>2023-12-20T12:05:54Z</time>
      </trkpt>
      <trkpt lat="48.75771" lon="1.83719">
        <ele>112.4</ele>
        <time>2023-12-20T12:05:55Z</time>
      </trkpt>
      <trkpt lat="48.75768" lon="1.83716">
        <ele>112.4</ele>
        <time>2023-12-20T12:05:56Z</time>
      </trkpt>
      <trkpt lat="48.75765" lon="1.83713">
        <ele>112.4</ele>
        <time>2023-12-20T12:05:57Z</time>
      </trkpt>
      <trkpt lat="48.75762" lon="1.8371">
        <ele>112.8</ele>
        <time>2023-12-20T12:05:58Z</time>
      </trkpt>
      <trkpt lat="48.75759" lon="1.83707">
        <ele>113.2</ele>
        <time>2023-12-20T12:05:59Z</time>
      </trkpt>
      <trkpt lat="48.75756" lon="1.83703">
        <ele>113.2</ele>
        <time>2023-12-20T12:06:00Z</time>
      </trkpt>
      <trkpt lat="48.75754" lon="1.837">
        <ele>113.2</ele>
        <time>2023-12-20T12:06:01Z</time>
      </trkpt>
      <trkpt lat="48.7575" lon="1.83696">
        <ele>113.2</ele>
        <time>2023-12-20T12:06:02Z</time>
      </trkpt>
      <trkpt lat="48.75747" lon="1.83693">
        <ele>113.8</ele>
        <time>2023-12-20T12:06:03Z</time>
      </trkpt>
      <trkpt lat="48.75744" lon="1.83689">
        <ele>113.8</ele>
        <time>2023-12-20T12:06:04Z</time>
      </trkpt>
      <trkpt lat="48.75741" lon="1.83686">
        <ele>113.8</ele>
        <time>2023-12-20T12:06:05Z</time>
      </trkpt>
      <trkpt lat="48.75738" lon="1.83682">
        <ele>114.8</ele>
        <time>2023-12-20T12:06:06Z</time>
      </trkpt>
      <trkpt lat="48.75735" lon="1.83678">
        <ele>114.8</ele>
        <time>2023-12-20T12:06:07Z</time>
      </trkpt>
      <trkpt lat="48.75732" lon="1.83674">
        <ele>114.8</ele>
        <time>2023-12-20T12:06:08Z</time>
      </trkpt>
      <trkpt lat="48.75729" lon="1.8367">
        <ele>114.8</ele>
        <time>2023-12-20T12:06:09Z</time>
      </trkpt>
      <trkpt lat="48.75726" lon="1.83665">
        <ele>114.2</ele>
        <time>2023-12-20T12:06:10Z</time>
      </trkpt>
      <trkpt lat="48.75723" lon="1.83661">
        <ele>114.4</ele>
        <time>2023-12-20T12:06:11Z</time>
      </trkpt>
      <trkpt lat="48.75721" lon="1.83656">
        <ele>114.4</ele>
        <time>2023-12-20T12:06:12Z</time>
      </trkpt>
      <trkpt lat="48.75718" lon="1.83652">
        <ele>114.4</ele>
        <time>2023-12-20T12:06:13Z</time>
      </trkpt>
      <trkpt lat="48.75715" lon="1.83647">
        <ele>115.4</ele>
        <time>2023-12-20T12:06:14Z</time>
      </trkpt>
      <trkpt lat="48.75712" lon="1.83642">
        <ele>115.8</ele>
        <time>2023-12-20T12:06:15Z</time>
      </trkpt>
      <trkpt lat="48.7571" lon="1.83637">
        <ele>115.8</ele>
        <time>2023-12-20T12:06:16Z</time>
      </trkpt>
      <trkpt lat="48.75707" lon="1.83632">
        <ele>115.8</ele>
        <time>2023-12-20T12:06:17Z</time>
      </trkpt>
      <trkpt lat="48.75705" lon="1.83627">
        <ele>114.8</ele>
        <time>2023-12-20T12:06:18Z</time>
      </trkpt>
      <trkpt lat="48.75702" lon="1.83622">
        <ele>113.8</ele>
        <time>2023-12-20T12:06:19Z</time>
      </trkpt>
      <trkpt lat="48.757" lon="1.83616">
        <ele>113.8</ele>
        <time>2023-12-20T12:06:20Z</time>
      </trkpt>
      <trkpt lat="48.75698" lon="1.8361">
        <ele>113.8</ele>
        <time>2023-12-20T12:06:21Z</time>
      </trkpt>
      <trkpt lat="48.75697" lon="1.83605">
        <ele>114.6</ele>
        <time>2023-12-20T12:06:22Z</time>
      </trkpt>
      <trkpt lat="48.75696" lon="1.83599">
        <ele>115</ele>
        <time>2023-12-20T12:06:23Z</time>
      </trkpt>
      <trkpt lat="48.75694" lon="1.83594">
        <ele>115</ele>
        <time>2023-12-20T12:06:24Z</time>
      </trkpt>
      <trkpt lat="48.75692" lon="1.83589">
        <ele>115</ele>
        <time>2023-12-20T12:06:25Z</time>
      </trkpt>
      <trkpt lat="48.75689" lon="1.83584">
        <ele>115.2</ele>
        <time>2023-12-20T12:06:26Z</time>
      </trkpt>
      <trkpt lat="48.75687" lon="1.83578">
        <ele>115.8</ele>
        <time>2023-12-20T12:06:27Z</time>
      </trkpt>
      <trkpt lat="48.75684" lon="1.83573">
        <ele>115.8</ele>
        <time>2023-12-20T12:06:28Z</time>
      </trkpt>
      <trkpt lat="48.75682" lon="1.83568">
        <ele>115.8</ele>
        <time>2023-12-20T12:06:29Z</time>
      </trkpt>
      <trkpt lat="48.75679" lon="1.83563">
        <ele>115.6</ele>
        <time>2023-12-20T12:06:30Z</time>
      </trkpt>
      <trkpt lat="48.75677" lon="1.83557">
        <ele>116.2</ele>
        <time>2023-12-20T12:06:31Z</time>
      </trkpt>
      <trkpt lat="48.75674" lon="1.83552">
        <ele>116.2</ele>
        <time>2023-12-20T12:06:32Z</time>
      </trkpt>
      <trkpt lat="48.75672" lon="1.83547">
        <ele>116.2</ele>
        <time>2023-12-20T12:06:33Z</time>
      </trkpt>
      <trkpt lat="48.7567" lon="1.83542">
        <ele>115.8</ele>
        <time>2023-12-20T12:06:34Z</time>
      </trkpt>
      <trkpt lat="48.75667" lon="1.83536">
        <ele>116.6</ele>
        <time>2023-12-20T12:06:35Z</time>
      </trkpt>
      <trkpt lat="48.75665" lon="1.83531">
        <ele>116.6</ele>
        <time>2023-12-20T12:06:36Z</time>
      </trkpt>
      <trkpt lat="48.75662" lon="1.83526">
        <ele>116.6</ele>
        <time>2023-12-20T12:06:37Z</time>
      </trkpt>
      <trkpt lat="48.7566" lon="1.8352">
        <ele>116.6</ele>
        <time>2023-12-20T12:06:38Z</time>
      </trkpt>
      <trkpt lat="48.75657" lon="1.83515">
        <ele>115.8</ele>
        <time>2023-12-20T12:06:39Z</time>
      </trkpt>
      <trkpt lat="48.75655" lon="1.8351">
        <ele>115.8</ele>
        <time>2023-12-20T12:06:40Z</time>
      </trkpt>
      <trkpt lat="48.75653" lon="1.83505">
        <ele>115.8</ele>
        <time>2023-12-20T12:06:41Z</time>
      </trkpt>
      <trkpt lat="48.7565" lon="1.835">
        <ele>116.8</ele>
        <time>2023-12-20T12:06:42Z</time>
      </trkpt>
      <trkpt lat="48.75647" lon="1.83496">
        <ele>115.8</ele>
        <time>2023-12-20T12:06:43Z</time>
      </trkpt>
      <trkpt lat="48.75644" lon="1.83495">
        <ele>115.8</ele>
        <time>2023-12-20T12:06:44Z</time>
      </trkpt>
      <trkpt lat="48.75639" lon="1.83494">
        <ele>115.8</ele>
        <time>2023-12-20T12:06:45Z</time>
      </trkpt>
      <trkpt lat="48.75635" lon="1.83494">
        <ele>116.8</ele>
        <time>2023-12-20T12:06:46Z</time>
      </trkpt>
      <trkpt lat="48.7563" lon="1.83493">
        <ele>117.4</ele>
        <time>2023-12-20T12:06:47Z</time>
      </trkpt>
      <trkpt lat="48.75626" lon="1.83492">
        <ele>117.4</ele>
        <time>2023-12-20T12:06:48Z</time>
      </trkpt>
      <trkpt lat="48.75622" lon="1.83491">
        <ele>117.4</ele>
        <time>2023-12-20T12:06:49Z</time>
      </trkpt>
      <trkpt lat="48.75617" lon="1.8349">
        <ele>117.8</ele>
        <time>2023-12-20T12:06:50Z</time>
      </trkpt>
      <trkpt lat="48.75613" lon="1.83489">
        <ele>119.2</ele>
        <time>2023-12-20T12:06:51Z</time>
      </trkpt>
      <trkpt lat="48.75609" lon="1.83488">
        <ele>119.2</ele>
        <time>2023-12-20T12:06:52Z</time>
      </trkpt>
      <trkpt lat="48.75605" lon="1.83486">
        <ele>119.2</ele>
        <time>2023-12-20T12:06:53Z</time>
      </trkpt>
      <trkpt lat="48.75603" lon="1.83481">
        <ele>119.2</ele>
        <time>2023-12-20T12:06:54Z</time>
      </trkpt>
      <trkpt lat="48.75601" lon="1.83476">
        <ele>118.8</ele>
        <time>2023-12-20T12:06:55Z</time>
      </trkpt>
      <trkpt lat="48.75598" lon="1.83471">
        <ele>118.8</ele>
        <time>2023-12-20T12:06:56Z</time>
      </trkpt>
      <trkpt lat="48.75596" lon="1.83466">
        <ele>118.8</ele>
        <time>2023-12-20T12:06:57Z</time>
      </trkpt>
      <trkpt lat="48.75594" lon="1.8346">
        <ele>119.2</ele>
        <time>2023-12-20T12:06:58Z</time>
      </trkpt>
      <trkpt lat="48.75592" lon="1.83455">
        <ele>119.8</ele>
        <time>2023-12-20T12:06:59Z</time>
      </trkpt>
      <trkpt lat="48.7559" lon="1.83449">
        <ele>119.8</ele>
        <time>2023-12-20T12:07:00Z</time>
      </trkpt>
      <trkpt lat="48.75588" lon="1.83443">
        <ele>119.8</ele>
        <time>2023-12-20T12:07:01Z</time>
      </trkpt>
      <trkpt lat="48.75586" lon="1.83438">
        <ele>119.8</ele>
        <time>2023-12-20T12:07:02Z</time>
      </trkpt>
      <trkpt lat="48.75584" lon="1.83432">
        <ele>119.6</ele>
        <time>2023-12-20T12:07:03Z</time>
      </trkpt>
      <trkpt lat="48.75581" lon="1.83427">
        <ele>119.6</ele>
        <time>2023-12-20T12:07:04Z</time>
      </trkpt>
      <trkpt lat="48.75579" lon="1.83421">
        <ele>119.6</ele>
        <time>2023-12-20T12:07:05Z</time>
      </trkpt>
      <trkpt lat="48.75577" lon="1.83415">
        <ele>119.8</ele>
        <time>2023-12-20T12:07:06Z</time>
      </trkpt>
      <trkpt lat="48.75575" lon="1.8341">
        <ele>120.8</ele>
        <time>2023-12-20T12:07:07Z</time>
      </trkpt>
      <trkpt lat="48.75573" lon="1.83404">
        <ele>120.8</ele>
        <time>2023-12-20T12:07:08Z</time>
      </trkpt>
      <trkpt lat="48.7557" lon="1.83398">
        <ele>120.8</ele>
        <time>2023-12-20T12:07:09Z</time>
      </trkpt>
      <trkpt lat="48.75568" lon="1.83393">
        <ele>120.6</ele>
        <time>2023-12-20T12:07:10Z</time>
      </trkpt>
      <trkpt lat="48.75566" lon="1.83387">
        <ele>119.6</ele>
        <time>2023-12-20T12:07:11Z</time>
      </trkpt>
      <trkpt lat="48.75564" lon="1.83381">
        <ele>119.6</ele>
        <time>2023-12-20T12:07:12Z</time>
      </trkpt>
      <trkpt lat="48.75561" lon="1.83376">
        <ele>119.6</ele>
        <time>2023-12-20T12:07:13Z</time>
      </trkpt>
      <trkpt lat="48.75559" lon="1.83371">
        <ele>120.6</ele>
        <time>2023-12-20T12:07:14Z</time>
      </trkpt>
      <trkpt lat="48.75556" lon="1.83366">
        <ele>121.2</ele>
        <time>2023-12-20T12:07:15Z</time>
      </trkpt>
      <trkpt lat="48.75554" lon="1.8336">
        <ele>121.2</ele>
        <time>2023-12-20T12:07:16Z</time>
      </trkpt>
      <trkpt lat="48.75553" lon="1.83355">
        <ele>121.2</ele>
        <time>2023-12-20T12:07:17Z</time>
      </trkpt>
      <trkpt lat="48.75551" lon="1.83351">
        <ele>121.2</ele>
        <time>2023-12-20T12:07:18Z</time>
      </trkpt>
      <trkpt lat="48.7555" lon="1.83346">
        <ele>122.2</ele>
        <time>2023-12-20T12:07:19Z</time>
      </trkpt>
      <trkpt lat="48.7555" lon="1.83343">
        <ele>122.2</ele>
        <time>2023-12-20T12:07:20Z</time>
      </trkpt>
      <trkpt lat="48.75548" lon="1.83339">
        <ele>122.2</ele>
        <time>2023-12-20T12:07:21Z</time>
      </trkpt>
      <trkpt lat="48.75547" lon="1.83335">
        <ele>122.2</ele>
        <time>2023-12-20T12:07:22Z</time>
      </trkpt>
      <trkpt lat="48.75545" lon="1.83331">
        <ele>122.8</ele>
        <time>2023-12-20T12:07:23Z</time>
      </trkpt>
      <trkpt lat="48.75543" lon="1.83328">
        <ele>122.8</ele>
        <time>2023-12-20T12:07:24Z</time>
      </trkpt>
      <trkpt lat="48.75541" lon="1.83324">
        <ele>122.8</ele>
        <time>2023-12-20T12:07:25Z</time>
      </trkpt>
      <trkpt lat="48.7554" lon="1.83321">
        <ele>123.6</ele>
        <time>2023-12-20T12:07:26Z</time>
      </trkpt>
      <trkpt lat="48.75539" lon="1.83317">
        <ele>123.6</ele>
        <time>2023-12-20T12:07:27Z</time>
      </trkpt>
      <trkpt lat="48.75538" lon="1.83314">
        <ele>123.6</ele>
        <time>2023-12-20T12:07:28Z</time>
      </trkpt>
      <trkpt lat="48.75537" lon="1.83311">
        <ele>123.6</ele>
        <time>2023-12-20T12:07:29Z</time>
      </trkpt>
      <trkpt lat="48.75535" lon="1.83308">
        <ele>123.6</ele>
        <time>2023-12-20T12:07:30Z</time>
      </trkpt>
      <trkpt lat="48.75535" lon="1.83304">
        <ele>124.4</ele>
        <time>2023-12-20T12:07:31Z</time>
      </trkpt>
      <trkpt lat="48.75534" lon="1.833">
        <ele>124.4</ele>
        <time>2023-12-20T12:07:32Z</time>
      </trkpt>
      <trkpt lat="48.75533" lon="1.83296">
        <ele>124.4</ele>
        <time>2023-12-20T12:07:33Z</time>
      </trkpt>
      <trkpt lat="48.75533" lon="1.83291">
        <ele>125.4</ele>
        <time>2023-12-20T12:07:34Z</time>
      </trkpt>
      <trkpt lat="48.75532" lon="1.83287">
        <ele>126.6</ele>
        <time>2023-12-20T12:07:35Z</time>
      </trkpt>
      <trkpt lat="48.75531" lon="1.83283">
        <ele>126.6</ele>
        <time>2023-12-20T12:07:36Z</time>
      </trkpt>
      <trkpt lat="48.75531" lon="1.83279">
        <ele>126.6</ele>
        <time>2023-12-20T12:07:37Z</time>
      </trkpt>
      <trkpt lat="48.7553" lon="1.83275">
        <ele>126.6</ele>
        <time>2023-12-20T12:07:38Z</time>
      </trkpt>
      <trkpt lat="48.75529" lon="1.83271">
        <ele>127.4</ele>
        <time>2023-12-20T12:07:39Z</time>
      </trkpt>
      <trkpt lat="48.75528" lon="1.83266">
        <ele>127.4</ele>
        <time>2023-12-20T12:07:40Z</time>
      </trkpt>
      <trkpt lat="48.75527" lon="1.83262">
        <ele>127.4</ele>
        <time>2023-12-20T12:07:41Z</time>
      </trkpt>
      <trkpt lat="48.75525" lon="1.83258">
        <ele>128</ele>
        <time>2023-12-20T12:07:42Z</time>
      </trkpt>
      <trkpt lat="48.75524" lon="1.83253">
        <ele>128.4</ele>
        <time>2023-12-20T12:07:43Z</time>
      </trkpt>
      <trkpt lat="48.75523" lon="1.83249">
        <ele>128.4</ele>
        <time>2023-12-20T12:07:44Z</time>
      </trkpt>
      <trkpt lat="48.75522" lon="1.83245">
        <ele>128.4</ele>
        <time>2023-12-20T12:07:45Z</time>
      </trkpt>
      <trkpt lat="48.7552" lon="1.83241">
        <ele>129.2</ele>
        <time>2023-12-20T12:07:46Z</time>
      </trkpt>
      <trkpt lat="48.75519" lon="1.83236">
        <ele>129.4</ele>
        <time>2023-12-20T12:07:47Z</time>
      </trkpt>
      <trkpt lat="48.75518" lon="1.83232">
        <ele>129.4</ele>
        <time>2023-12-20T12:07:48Z</time>
      </trkpt>
      <trkpt lat="48.75515" lon="1.83228">
        <ele>129.4</ele>
        <time>2023-12-20T12:07:49Z</time>
      </trkpt>
      <trkpt lat="48.75513" lon="1.83225">
        <ele>129.4</ele>
        <time>2023-12-20T12:07:50Z</time>
      </trkpt>
      <trkpt lat="48.75511" lon="1.83222">
        <ele>129.6</ele>
        <time>2023-12-20T12:07:51Z</time>
      </trkpt>
      <trkpt lat="48.75508" lon="1.83219">
        <ele>129.6</ele>
        <time>2023-12-20T12:07:52Z</time>
      </trkpt>
      <trkpt lat="48.75506" lon="1.83216">
        <ele>129.6</ele>
        <time>2023-12-20T12:07:53Z</time>
      </trkpt>
      <trkpt lat="48.75504" lon="1.83214">
        <ele>130.6</ele>
        <time>2023-12-20T12:07:54Z</time>
      </trkpt>
      <trkpt lat="48.75501" lon="1.83211">
        <ele>131</ele>
        <time>2023-12-20T12:07:55Z</time>
      </trkpt>
      <trkpt lat="48.75498" lon="1.83209">
        <ele>131</ele>
        <time>2023-12-20T12:07:56Z</time>
      </trkpt>
      <trkpt lat="48.75495" lon="1.83207">
        <ele>131</ele>
        <time>2023-12-20T12:07:57Z</time>
      </trkpt>
      <trkpt lat="48.75492" lon="1.83206">
        <ele>132</ele>
        <time>2023-12-20T12:07:58Z</time>
      </trkpt>
      <trkpt lat="48.75489" lon="1.83204">
        <ele>132.4</ele>
        <time>2023-12-20T12:07:59Z</time>
      </trkpt>
      <trkpt lat="48.75485" lon="1.83203">
        <ele>132.4</ele>
        <time>2023-12-20T12:08:00Z</time>
      </trkpt>
      <trkpt lat="48.75481" lon="1.83202">
        <ele>132.4</ele>
        <time>2023-12-20T12:08:01Z</time>
      </trkpt>
      <trkpt lat="48.75477" lon="1.83202">
        <ele>132.4</ele>
        <time>2023-12-20T12:08:02Z</time>
      </trkpt>
      <trkpt lat="48.75474" lon="1.83202">
        <ele>132.8</ele>
        <time>2023-12-20T12:08:03Z</time>
      </trkpt>
      <trkpt lat="48.7547" lon="1.83202">
        <ele>132.8</ele>
        <time>2023-12-20T12:08:04Z</time>
      </trkpt>
      <trkpt lat="48.75467" lon="1.83203">
        <ele>132.8</ele>
        <time>2023-12-20T12:08:05Z</time>
      </trkpt>
      <trkpt lat="48.75464" lon="1.83203">
        <ele>133.2</ele>
        <time>2023-12-20T12:08:06Z</time>
      </trkpt>
      <trkpt lat="48.75461" lon="1.83204">
        <ele>133.6</ele>
        <time>2023-12-20T12:08:07Z</time>
      </trkpt>
      <trkpt lat="48.75457" lon="1.83204">
        <ele>133.6</ele>
        <time>2023-12-20T12:08:08Z</time>
      </trkpt>
      <trkpt lat="48.75454" lon="1.83205">
        <ele>133.6</ele>
        <time>2023-12-20T12:08:09Z</time>
      </trkpt>
      <trkpt lat="48.75451" lon="1.83206">
        <ele>134.6</ele>
        <time>2023-12-20T12:08:10Z</time>
      </trkpt>
      <trkpt lat="48.75448" lon="1.83207">
        <ele>135</ele>
        <time>2023-12-20T12:08:11Z</time>
      </trkpt>
      <trkpt lat="48.75444" lon="1.83208">
        <ele>135</ele>
        <time>2023-12-20T12:08:12Z</time>
      </trkpt>
      <trkpt lat="48.75441" lon="1.83209">
        <ele>135</ele>
        <time>2023-12-20T12:08:13Z</time>
      </trkpt>
      <trkpt lat="48.75438" lon="1.83211">
        <ele>135</ele>
        <time>2023-12-20T12:08:14Z</time>
      </trkpt>
      <trkpt lat="48.75436" lon="1.83212">
        <ele>136</ele>
        <time>2023-12-20T12:08:15Z</time>
      </trkpt>
      <trkpt lat="48.75433" lon="1.83213">
        <ele>136</ele>
        <time>2023-12-20T12:08:16Z</time>
      </trkpt>
      <trkpt lat="48.7543" lon="1.83214">
        <ele>136</ele>
        <time>2023-12-20T12:08:17Z</time>
      </trkpt>
      <trkpt lat="48.75427" lon="1.83214">
        <ele>136</ele>
        <time>2023-12-20T12:08:18Z</time>
      </trkpt>
      <trkpt lat="48.75425" lon="1.83215">
        <ele>136.8</ele>
        <time>2023-12-20T12:08:19Z</time>
      </trkpt>
      <trkpt lat="48.75422" lon="1.83216">
        <ele>136.8</ele>
        <time>2023-12-20T12:08:20Z</time>
      </trkpt>
      <trkpt lat="48.75419" lon="1.83216">
        <ele>136.8</ele>
        <time>2023-12-20T12:08:21Z</time>
      </trkpt>
      <trkpt lat="48.75416" lon="1.83216">
        <ele>137.6</ele>
        <time>2023-12-20T12:08:22Z</time>
      </trkpt>
      <trkpt lat="48.75414" lon="1.83216">
        <ele>137.4</ele>
        <time>2023-12-20T12:08:23Z</time>
      </trkpt>
      <trkpt lat="48.75411" lon="1.83216">
        <ele>137.4</ele>
        <time>2023-12-20T12:08:24Z</time>
      </trkpt>
      <trkpt lat="48.75408" lon="1.83215">
        <ele>137.4</ele>
        <time>2023-12-20T12:08:25Z</time>
      </trkpt>
      <trkpt lat="48.75406" lon="1.83214">
        <ele>138.2</ele>
        <time>2023-12-20T12:08:26Z</time>
      </trkpt>
      <trkpt lat="48.75403" lon="1.83214">
        <ele>138.4</ele>
        <time>2023-12-20T12:08:27Z</time>
      </trkpt>
      <trkpt lat="48.754" lon="1.83213">
        <ele>138.4</ele>
        <time>2023-12-20T12:08:28Z</time>
      </trkpt>
      <trkpt lat="48.75398" lon="1.83212">
        <ele>138.4</ele>
        <time>2023-12-20T12:08:29Z</time>
      </trkpt>
      <trkpt lat="48.75395" lon="1.83211">
        <ele>139</ele>
        <time>2023-12-20T12:08:30Z</time>
      </trkpt>
      <trkpt lat="48.75393" lon="1.83209">
        <ele>139.4</ele>
        <time>2023-12-20T12:08:31Z</time>
      </trkpt>
      <trkpt lat="48.7539" lon="1.83208">
        <ele>139.4</ele>
        <time>2023-12-20T12:08:32Z</time>
      </trkpt>
      <trkpt lat="48.75388" lon="1.83206">
        <ele>139.4</ele>
        <time>2023-12-20T12:08:33Z</time>
      </trkpt>
      <trkpt lat="48.75385" lon="1.83205">
        <ele>140</ele>
        <time>2023-12-20T12:08:34Z</time>
      </trkpt>
      <trkpt lat="48.75383" lon="1.83203">
        <ele>140</ele>
        <time>2023-12-20T12:08:35Z</time>
      </trkpt>
      <trkpt lat="48.7538" lon="1.83202">
        <ele>140</ele>
        <time>2023-12-20T12:08:36Z</time>
      </trkpt>
      <trkpt lat="48.75378" lon="1.83201">
        <ele>140</ele>
        <time>2023-12-20T12:08:37Z</time>
      </trkpt>
      <trkpt lat="48.75375" lon="1.83199">
        <ele>140</ele>
        <time>2023-12-20T12:08:38Z</time>
      </trkpt>
      <trkpt lat="48.75373" lon="1.83198">
        <ele>140.6</ele>
        <time>2023-12-20T12:08:39Z</time>
      </trkpt>
      <trkpt lat="48.7537" lon="1.83197">
        <ele>140.6</ele>
        <time>2023-12-20T12:08:40Z</time>
      </trkpt>
      <trkpt lat="48.75367" lon="1.83195">
        <ele>140.6</ele>
        <time>2023-12-20T12:08:41Z</time>
      </trkpt>
      <trkpt lat="48.75365" lon="1.83193">
        <ele>141.2</ele>
        <time>2023-12-20T12:08:42Z</time>
      </trkpt>
      <trkpt lat="48.75362" lon="1.83192">
        <ele>141.4</ele>
        <time>2023-12-20T12:08:43Z</time>
      </trkpt>
      <trkpt lat="48.7536" lon="1.8319">
        <ele>141.4</ele>
        <time>2023-12-20T12:08:44Z</time>
      </trkpt>
      <trkpt lat="48.75358" lon="1.83189">
        <ele>141.4</ele>
        <time>2023-12-20T12:08:45Z</time>
      </trkpt>
      <trkpt lat="48.75355" lon="1.83187">
        <ele>141.6</ele>
        <time>2023-12-20T12:08:46Z</time>
      </trkpt>
      <trkpt lat="48.75353" lon="1.83186">
        <ele>141.8</ele>
        <time>2023-12-20T12:08:47Z</time>
      </trkpt>
      <trkpt lat="48.75351" lon="1.83184">
        <ele>141.8</ele>
        <time>2023-12-20T12:08:48Z</time>
      </trkpt>
      <trkpt lat="48.75348" lon="1.83182">
        <ele>141.8</ele>
        <time>2023-12-20T12:08:49Z</time>
      </trkpt>
      <trkpt lat="48.75346" lon="1.8318">
        <ele>142.8</ele>
        <time>2023-12-20T12:08:50Z</time>
      </trkpt>
      <trkpt lat="48.75343" lon="1.83179">
        <ele>143</ele>
        <time>2023-12-20T12:08:51Z</time>
      </trkpt>
      <trkpt lat="48.75341" lon="1.83177">
        <ele>143</ele>
        <time>2023-12-20T12:08:52Z</time>
      </trkpt>
      <trkpt lat="48.75338" lon="1.83175">
        <ele>143</ele>
        <time>2023-12-20T12:08:53Z</time>
      </trkpt>
      <trkpt lat="48.75336" lon="1.83174">
        <ele>143.6</ele>
        <time>2023-12-20T12:08:54Z</time>
      </trkpt>
      <trkpt lat="48.75333" lon="1.83172">
        <ele>143.8</ele>
        <time>2023-12-20T12:08:55Z</time>
      </trkpt>
      <trkpt lat="48.7533" lon="1.8317">
        <ele>143.8</ele>
        <time>2023-12-20T12:08:56Z</time>
      </trkpt>
      <trkpt lat="48.75328" lon="1.83169">
        <ele>143.8</ele>
        <time>2023-12-20T12:08:57Z</time>
      </trkpt>
      <trkpt lat="48.75325" lon="1.83167">
        <ele>144.2</ele>
        <time>2023-12-20T12:08:58Z</time>
      </trkpt>
      <trkpt lat="48.75323" lon="1.83165">
        <ele>144.2</ele>
        <time>2023-12-20T12:08:59Z</time>
      </trkpt>
      <trkpt lat="48.7532" lon="1.83163">
        <ele>144.2</ele>
        <time>2023-12-20T12:09:00Z</time>
      </trkpt>
      <trkpt lat="48.75317" lon="1.83162">
        <ele>144.2</ele>
        <time>2023-12-20T12:09:01Z</time>
      </trkpt>
      <trkpt lat="48.75314" lon="1.8316">
        <ele>145.2</ele>
        <time>2023-12-20T12:09:02Z</time>
      </trkpt>
      <trkpt lat="48.75312" lon="1.83159">
        <ele>146</ele>
        <time>2023-12-20T12:09:03Z</time>
      </trkpt>
      <trkpt lat="48.75309" lon="1.83157">
        <ele>146</ele>
        <time>2023-12-20T12:09:04Z</time>
      </trkpt>
      <trkpt lat="48.75306" lon="1.83156">
        <ele>146</ele>
        <time>2023-12-20T12:09:05Z</time>
      </trkpt>
      <trkpt lat="48.75303" lon="1.83155">
        <ele>146.2</ele>
        <time>2023-12-20T12:09:06Z</time>
      </trkpt>
      <trkpt lat="48.753" lon="1.83155">
        <ele>146.8</ele>
        <time>2023-12-20T12:09:07Z</time>
      </trkpt>
      <trkpt lat="48.75298" lon="1.83154">
        <ele>146.8</ele>
        <time>2023-12-20T12:09:08Z</time>
      </trkpt>
      <trkpt lat="48.75295" lon="1.83153">
        <ele>146.8</ele>
        <time>2023-12-20T12:09:09Z</time>
      </trkpt>
      <trkpt lat="48.75292" lon="1.83153">
        <ele>146.8</ele>
        <time>2023-12-20T12:09:10Z</time>
      </trkpt>
      <trkpt lat="48.75289" lon="1.83153">
        <ele>147.4</ele>
        <time>2023-12-20T12:09:11Z</time>
      </trkpt>
      <trkpt lat="48.75286" lon="1.83153">
        <ele>147.4</ele>
        <time>2023-12-20T12:09:12Z</time>
      </trkpt>
      <trkpt lat="48.75284" lon="1.83152">
        <ele>147.4</ele>
        <time>2023-12-20T12:09:13Z</time>
      </trkpt>
      <trkpt lat="48.75281" lon="1.83152">
        <ele>148.4</ele>
        <time>2023-12-20T12:09:14Z</time>
      </trkpt>
      <trkpt lat="48.75278" lon="1.83152">
        <ele>148.2</ele>
        <time>2023-12-20T12:09:15Z</time>
      </trkpt>
      <trkpt lat="48.75276" lon="1.83153">
        <ele>148.2</ele>
        <time>2023-12-20T12:09:16Z</time>
      </trkpt>
      <trkpt lat="48.75273" lon="1.83153">
        <ele>148.2</ele>
        <time>2023-12-20T12:09:17Z</time>
      </trkpt>
      <trkpt lat="48.7527" lon="1.83153">
        <ele>149.2</ele>
        <time>2023-12-20T12:09:18Z</time>
      </trkpt>
      <trkpt lat="48.75267" lon="1.83153">
        <ele>150</ele>
        <time>2023-12-20T12:09:19Z</time>
      </trkpt>
      <trkpt lat="48.75265" lon="1.83154">
        <ele>150</ele>
        <time>2023-12-20T12:09:20Z</time>
      </trkpt>
      <trkpt lat="48.75262" lon="1.83154">
        <ele>150</ele>
        <time>2023-12-20T12:09:21Z</time>
      </trkpt>
      <trkpt lat="48.75259" lon="1.83155">
        <ele>150</ele>
        <time>2023-12-20T12:09:22Z</time>
      </trkpt>
      <trkpt lat="48.75257" lon="1.83156">
        <ele>150.6</ele>
        <time>2023-12-20T12:09:23Z</time>
      </trkpt>
      <trkpt lat="48.75254" lon="1.83157">
        <ele>150.6</ele>
        <time>2023-12-20T12:09:24Z</time>
      </trkpt>
      <trkpt lat="48.75251" lon="1.83159">
        <ele>150.6</ele>
        <time>2023-12-20T12:09:25Z</time>
      </trkpt>
      <trkpt lat="48.75248" lon="1.8316">
        <ele>150.6</ele>
        <time>2023-12-20T12:09:26Z</time>
      </trkpt>
      <trkpt lat="48.75246" lon="1.83162">
        <ele>151.4</ele>
        <time>2023-12-20T12:09:27Z</time>
      </trkpt>
      <trkpt lat="48.75243" lon="1.83163">
        <ele>151.4</ele>
        <time>2023-12-20T12:09:28Z</time>
      </trkpt>
      <trkpt lat="48.7524" lon="1.83165">
        <ele>151.4</ele>
        <time>2023-12-20T12:09:29Z</time>
      </trkpt>
      <trkpt lat="48.75238" lon="1.83166">
        <ele>151.6</ele>
        <time>2023-12-20T12:09:30Z</time>
      </trkpt>
      <trkpt lat="48.75235" lon="1.83168">
        <ele>152</ele>
        <time>2023-12-20T12:09:31Z</time>
      </trkpt>
      <trkpt lat="48.75232" lon="1.8317">
        <ele>152</ele>
        <time>2023-12-20T12:09:32Z</time>
      </trkpt>
      <trkpt lat="48.75229" lon="1.83172">
        <ele>152</ele>
        <time>2023-12-20T12:09:33Z</time>
      </trkpt>
      <trkpt lat="48.75227" lon="1.83174">
        <ele>153</ele>
        <time>2023-12-20T12:09:34Z</time>
      </trkpt>
      <trkpt lat="48.75224" lon="1.83176">
        <ele>153.2</ele>
        <time>2023-12-20T12:09:35Z</time>
      </trkpt>
      <trkpt lat="48.75222" lon="1.83178">
        <ele>153.2</ele>
        <time>2023-12-20T12:09:36Z</time>
      </trkpt>
      <trkpt lat="48.75219" lon="1.83179">
        <ele>153.2</ele>
        <time>2023-12-20T12:09:37Z</time>
      </trkpt>
      <trkpt lat="48.75217" lon="1.83181">
        <ele>153.6</ele>
        <time>2023-12-20T12:09:38Z</time>
      </trkpt>
      <trkpt lat="48.75214" lon="1.83183">
        <ele>154</ele>
        <time>2023-12-20T12:09:39Z</time>
      </trkpt>
      <trkpt lat="48.75212" lon="1.83185">
        <ele>154</ele>
        <time>2023-12-20T12:09:40Z</time>
      </trkpt>
      <trkpt lat="48.7521" lon="1.83187">
        <ele>154</ele>
        <time>2023-12-20T12:09:41Z</time>
      </trkpt>
      <trkpt lat="48.75207" lon="1.83189">
        <ele>155</ele>
        <time>2023-12-20T12:09:42Z</time>
      </trkpt>
      <trkpt lat="48.75204" lon="1.8319">
        <ele>155.2</ele>
        <time>2023-12-20T12:09:43Z</time>
      </trkpt>
      <trkpt lat="48.75202" lon="1.83192">
        <ele>155.2</ele>
        <time>2023-12-20T12:09:44Z</time>
      </trkpt>
      <trkpt lat="48.75199" lon="1.83194">
        <ele>155.2</ele>
        <time>2023-12-20T12:09:45Z</time>
      </trkpt>
      <trkpt lat="48.75197" lon="1.83196">
        <ele>155.8</ele>
        <time>2023-12-20T12:09:46Z</time>
      </trkpt>
      <trkpt lat="48.75194" lon="1.83198">
        <ele>155.8</ele>
        <time>2023-12-20T12:09:47Z</time>
      </trkpt>
      <trkpt lat="48.75191" lon="1.832">
        <ele>155.8</ele>
        <time>2023-12-20T12:09:48Z</time>
      </trkpt>
      <trkpt lat="48.75188" lon="1.83201">
        <ele>155.8</ele>
        <time>2023-12-20T12:09:49Z</time>
      </trkpt>
      <trkpt lat="48.75186" lon="1.83203">
        <ele>156.8</ele>
        <time>2023-12-20T12:09:50Z</time>
      </trkpt>
      <trkpt lat="48.75183" lon="1.83205">
        <ele>157.2</ele>
        <time>2023-12-20T12:09:51Z</time>
      </trkpt>
      <trkpt lat="48.75181" lon="1.83207">
        <ele>157.2</ele>
        <time>2023-12-20T12:09:52Z</time>
      </trkpt>
      <trkpt lat="48.75179" lon="1.83209">
        <ele>157.2</ele>
        <time>2023-12-20T12:09:53Z</time>
      </trkpt>
      <trkpt lat="48.75176" lon="1.8321">
        <ele>158</ele>
        <time>2023-12-20T12:09:54Z</time>
      </trkpt>
      <trkpt lat="48.75174" lon="1.83212">
        <ele>158.2</ele>
        <time>2023-12-20T12:09:55Z</time>
      </trkpt>
      <trkpt lat="48.75171" lon="1.83214">
        <ele>158.2</ele>
        <time>2023-12-20T12:09:56Z</time>
      </trkpt>
      <trkpt lat="48.75169" lon="1.83216">
        <ele>158.2</ele>
        <time>2023-12-20T12:09:57Z</time>
      </trkpt>
      <trkpt lat="48.75166" lon="1.83218">
        <ele>158.6</ele>
        <time>2023-12-20T12:09:58Z</time>
      </trkpt>
      <trkpt lat="48.75164" lon="1.83219">
        <ele>158.8</ele>
        <time>2023-12-20T12:09:59Z</time>
      </trkpt>
      <trkpt lat="48.75161" lon="1.8322">
        <ele>158.8</ele>
        <time>2023-12-20T12:10:00Z</time>
      </trkpt>
      <trkpt lat="48.75158" lon="1.83222">
        <ele>158.8</ele>
        <time>2023-12-20T12:10:01Z</time>
      </trkpt>
      <trkpt lat="48.75155" lon="1.83223">
        <ele>159.8</ele>
        <time>2023-12-20T12:10:02Z</time>
      </trkpt>
      <trkpt lat="48.75153" lon="1.83225">
        <ele>160.2</ele>
        <time>2023-12-20T12:10:03Z</time>
      </trkpt>
      <trkpt lat="48.7515" lon="1.83226">
        <ele>160.2</ele>
        <time>2023-12-20T12:10:04Z</time>
      </trkpt>
      <trkpt lat="48.75147" lon="1.83227">
        <ele>160.2</ele>
        <time>2023-12-20T12:10:05Z</time>
      </trkpt>
      <trkpt lat="48.75144" lon="1.83228">
        <ele>161</ele>
        <time>2023-12-20T12:10:06Z</time>
      </trkpt>
      <trkpt lat="48.75141" lon="1.83229">
        <ele>161.2</ele>
        <time>2023-12-20T12:10:07Z</time>
      </trkpt>
      <trkpt lat="48.75139" lon="1.83231">
        <ele>161.2</ele>
        <time>2023-12-20T12:10:08Z</time>
      </trkpt>
      <trkpt lat="48.75136" lon="1.83232">
        <ele>161.2</ele>
        <time>2023-12-20T12:10:09Z</time>
      </trkpt>
      <trkpt lat="48.75133" lon="1.83232">
        <ele>162.2</ele>
        <time>2023-12-20T12:10:10Z</time>
      </trkpt>
      <trkpt lat="48.7513" lon="1.83233">
        <ele>162.2</ele>
        <time>2023-12-20T12:10:11Z</time>
      </trkpt>
      <trkpt lat="48.75127" lon="1.83234">
        <ele>162.2</ele>
        <time>2023-12-20T12:10:12Z</time>
      </trkpt>
      <trkpt lat="48.75124" lon="1.83235">
        <ele>162.2</ele>
        <time>2023-12-20T12:10:13Z</time>
      </trkpt>
      <trkpt lat="48.75122" lon="1.83235">
        <ele>163.2</ele>
        <time>2023-12-20T12:10:14Z</time>
      </trkpt>
      <trkpt lat="48.75119" lon="1.83235">
        <ele>163.2</ele>
        <time>2023-12-20T12:10:15Z</time>
      </trkpt>
      <trkpt lat="48.75116" lon="1.83235">
        <ele>163.2</ele>
        <time>2023-12-20T12:10:16Z</time>
      </trkpt>
      <trkpt lat="48.75113" lon="1.83235">
        <ele>163.2</ele>
        <time>2023-12-20T12:10:17Z</time>
      </trkpt>
      <trkpt lat="48.7511" lon="1.83236">
        <ele>163.8</ele>
        <time>2023-12-20T12:10:18Z</time>
      </trkpt>
      <trkpt lat="48.75107" lon="1.83236">
        <ele>164.6</ele>
        <time>2023-12-20T12:10:19Z</time>
      </trkpt>
      <trkpt lat="48.75104" lon="1.83235">
        <ele>164.6</ele>
        <time>2023-12-20T12:10:20Z</time>
      </trkpt>
      <trkpt lat="48.75101" lon="1.83235">
        <ele>164.6</ele>
        <time>2023-12-20T12:10:21Z</time>
      </trkpt>
      <trkpt lat="48.75098" lon="1.83235">
        <ele>165.4</ele>
        <time>2023-12-20T12:10:22Z</time>
      </trkpt>
      <trkpt lat="48.75096" lon="1.83235">
        <ele>165.4</ele>
        <time>2023-12-20T12:10:23Z</time>
      </trkpt>
      <trkpt lat="48.75093" lon="1.83235">
        <ele>165.4</ele>
        <time>2023-12-20T12:10:24Z</time>
      </trkpt>
      <trkpt lat="48.7509" lon="1.83235">
        <ele>165.4</ele>
        <time>2023-12-20T12:10:25Z</time>
      </trkpt>
      <trkpt lat="48.75087" lon="1.83234">
        <ele>166.4</ele>
        <time>2023-12-20T12:10:26Z</time>
      </trkpt>
      <trkpt lat="48.75084" lon="1.83232">
        <ele>166.6</ele>
        <time>2023-12-20T12:10:27Z</time>
      </trkpt>
      <trkpt lat="48.75081" lon="1.83232">
        <ele>166.6</ele>
        <time>2023-12-20T12:10:28Z</time>
      </trkpt>
      <trkpt lat="48.75078" lon="1.83231">
        <ele>166.6</ele>
        <time>2023-12-20T12:10:29Z</time>
      </trkpt>
      <trkpt lat="48.75075" lon="1.83231">
        <ele>167.4</ele>
        <time>2023-12-20T12:10:30Z</time>
      </trkpt>
      <trkpt lat="48.75073" lon="1.83231">
        <ele>167.2</ele>
        <time>2023-12-20T12:10:31Z</time>
      </trkpt>
      <trkpt lat="48.7507" lon="1.8323">
        <ele>167.2</ele>
        <time>2023-12-20T12:10:32Z</time>
      </trkpt>
      <trkpt lat="48.75067" lon="1.83229">
        <ele>167.2</ele>
        <time>2023-12-20T12:10:33Z</time>
      </trkpt>
      <trkpt lat="48.75064" lon="1.83229">
        <ele>168</ele>
        <time>2023-12-20T12:10:34Z</time>
      </trkpt>
      <trkpt lat="48.75061" lon="1.83228">
        <ele>168.2</ele>
        <time>2023-12-20T12:10:35Z</time>
      </trkpt>
      <trkpt lat="48.75059" lon="1.83227">
        <ele>168.2</ele>
        <time>2023-12-20T12:10:36Z</time>
      </trkpt>
      <trkpt lat="48.75056" lon="1.83226">
        <ele>168.2</ele>
        <time>2023-12-20T12:10:37Z</time>
      </trkpt>
      <trkpt lat="48.75053" lon="1.83225">
        <ele>168.6</ele>
        <time>2023-12-20T12:10:38Z</time>
      </trkpt>
      <trkpt lat="48.7505" lon="1.83225">
        <ele>169.2</ele>
        <time>2023-12-20T12:10:39Z</time>
      </trkpt>
      <trkpt lat="48.75047" lon="1.83225">
        <ele>169.2</ele>
        <time>2023-12-20T12:10:40Z</time>
      </trkpt>
      <trkpt lat="48.75045" lon="1.83224">
        <ele>169.2</ele>
        <time>2023-12-20T12:10:41Z</time>
      </trkpt>
      <trkpt lat="48.75042" lon="1.83223">
        <ele>169.6</ele>
        <time>2023-12-20T12:10:42Z</time>
      </trkpt>
      <trkpt lat="48.75039" lon="1.83223">
        <ele>170.2</ele>
        <time>2023-12-20T12:10:43Z</time>
      </trkpt>
      <trkpt lat="48.75037" lon="1.83222">
        <ele>170.2</ele>
        <time>2023-12-20T12:10:44Z</time>
      </trkpt>
      <trkpt lat="48.75034" lon="1.83221">
        <ele>170.2</ele>
        <time>2023-12-20T12:10:45Z</time>
      </trkpt>
      <trkpt lat="48.75031" lon="1.83221">
        <ele>170.6</ele>
        <time>2023-12-20T12:10:46Z</time>
      </trkpt>
      <trkpt lat="48.75029" lon="1.83219">
        <ele>170.8</ele>
        <time>2023-12-20T12:10:47Z</time>
      </trkpt>
      <trkpt lat="48.75026" lon="1.83219">
        <ele>170.8</ele>
        <time>2023-12-20T12:10:48Z</time>
      </trkpt>
      <trkpt lat="48.75023" lon="1.83218">
        <ele>170.8</ele>
        <time>2023-12-20T12:10:49Z</time>
      </trkpt>
      <trkpt lat="48.7502" lon="1.83217">
        <ele>171.8</ele>
        <time>2023-12-20T12:10:50Z</time>
      </trkpt>
      <trkpt lat="48.75017" lon="1.83218">
        <ele>172.2</ele>
        <time>2023-12-20T12:10:51Z</time>
      </trkpt>
      <trkpt lat="48.75015" lon="1.83218">
        <ele>172.2</ele>
        <time>2023-12-20T12:10:52Z</time>
      </trkpt>
      <trkpt lat="48.75012" lon="1.83218">
        <ele>172.2</ele>
        <time>2023-12-20T12:10:53Z</time>
      </trkpt>
      <trkpt lat="48.75008" lon="1.83218">
        <ele>172.2</ele>
        <time>2023-12-20T12:10:54Z</time>
      </trkpt>
      <trkpt lat="48.75005" lon="1.8322">
        <ele>173</ele>
        <time>2023-12-20T12:10:55Z</time>
      </trkpt>
      <trkpt lat="48.75002" lon="1.8322">
        <ele>173</ele>
        <time>2023-12-20T12:10:56Z</time>
      </trkpt>
      <trkpt lat="48.74999" lon="1.83221">
        <ele>173</ele>
        <time>2023-12-20T12:10:57Z</time>
      </trkpt>
      <trkpt lat="48.74996" lon="1.83222">
        <ele>174</ele>
        <time>2023-12-20T12:10:58Z</time>
      </trkpt>
      <trkpt lat="48.74993" lon="1.83223">
        <ele>174.2</ele>
        <time>2023-12-20T12:10:59Z</time>
      </trkpt>
      <trkpt lat="48.7499" lon="1.83224">
        <ele>174.2</ele>
        <time>2023-12-20T12:11:00Z</time>
      </trkpt>
      <trkpt lat="48.74987" lon="1.83224">
        <ele>174.2</ele>
        <time>2023-12-20T12:11:01Z</time>
      </trkpt>
      <trkpt lat="48.74984" lon="1.83224">
        <ele>174.8</ele>
        <time>2023-12-20T12:11:02Z</time>
      </trkpt>
      <trkpt lat="48.74981" lon="1.83225">
        <ele>175</ele>
        <time>2023-12-20T12:11:03Z</time>
      </trkpt>
      <trkpt lat="48.74978" lon="1.83226">
        <ele>175</ele>
        <time>2023-12-20T12:11:04Z</time>
      </trkpt>
      <trkpt lat="48.74976" lon="1.83227">
        <ele>175</ele>
        <time>2023-12-20T12:11:05Z</time>
      </trkpt>
      <trkpt lat="48.74973" lon="1.83227">
        <ele>176</ele>
        <time>2023-12-20T12:11:06Z</time>
      </trkpt>
      <trkpt lat="48.7497" lon="1.83228">
        <ele>176.4</ele>
        <time>2023-12-20T12:11:07Z</time>
      </trkpt>
      <trkpt lat="48.74967" lon="1.83228">
        <ele>176.4</ele>
        <time>2023-12-20T12:11:08Z</time>
      </trkpt>
      <trkpt lat="48.74964" lon="1.8323">
        <ele>176.4</ele>
        <time>2023-12-20T12:11:09Z</time>
      </trkpt>
      <trkpt lat="48.74962" lon="1.83231">
        <ele>177.2</ele>
        <time>2023-12-20T12:11:10Z</time>
      </trkpt>
      <trkpt lat="48.74959" lon="1.83232">
        <ele>177</ele>
        <time>2023-12-20T12:11:11Z</time>
      </trkpt>
      <trkpt lat="48.74956" lon="1.83233">
        <ele>177</ele>
        <time>2023-12-20T12:11:12Z</time>
      </trkpt>
      <trkpt lat="48.74953" lon="1.83234">
        <ele>177</ele>
        <time>2023-12-20T12:11:13Z</time>
      </trkpt>
      <trkpt lat="48.7495" lon="1.83236">
        <ele>178</ele>
        <time>2023-12-20T12:11:14Z</time>
      </trkpt>
      <trkpt lat="48.74948" lon="1.83238">
        <ele>178.6</ele>
        <time>2023-12-20T12:11:15Z</time>
      </trkpt>
      <trkpt lat="48.74944" lon="1.83241">
        <ele>178.6</ele>
        <time>2023-12-20T12:11:16Z</time>
      </trkpt>
      <trkpt lat="48.74943" lon="1.83242">
        <ele>178.6</ele>
        <time>2023-12-20T12:11:17Z</time>
      </trkpt>
      <trkpt lat="48.7494" lon="1.83243">
        <ele>178.6</ele>
        <time>2023-12-20T12:11:18Z</time>
      </trkpt>
      <trkpt lat="48.74937" lon="1.83244">
        <ele>179</ele>
        <time>2023-12-20T12:11:19Z</time>
      </trkpt>
      <trkpt lat="48.74934" lon="1.83244">
        <ele>179</ele>
        <time>2023-12-20T12:11:20Z</time>
      </trkpt>
      <trkpt lat="48.74931" lon="1.83244">
        <ele>179</ele>
        <time>2023-12-20T12:11:21Z</time>
      </trkpt>
      <trkpt lat="48.74928" lon="1.83245">
        <ele>179</ele>
        <time>2023-12-20T12:11:22Z</time>
      </trkpt>
      <trkpt lat="48.74925" lon="1.83248">
        <ele>179.8</ele>
        <time>2023-12-20T12:11:23Z</time>
      </trkpt>
      <trkpt lat="48.74921" lon="1.83249">
        <ele>179.8</ele>
        <time>2023-12-20T12:11:24Z</time>
      </trkpt>
      <trkpt lat="48.74918" lon="1.83249">
        <ele>179.8</ele>
        <time>2023-12-20T12:11:25Z</time>
      </trkpt>
      <trkpt lat="48.74915" lon="1.83251">
        <ele>180.6</ele>
        <time>2023-12-20T12:11:26Z</time>
      </trkpt>
      <trkpt lat="48.74912" lon="1.83252">
        <ele>181.2</ele>
        <time>2023-12-20T12:11:27Z</time>
      </trkpt>
      <trkpt lat="48.74909" lon="1.83252">
        <ele>181.2</ele>
        <time>2023-12-20T12:11:28Z</time>
      </trkpt>
      <trkpt lat="48.74906" lon="1.83253">
        <ele>181.2</ele>
        <time>2023-12-20T12:11:29Z</time>
      </trkpt>
      <trkpt lat="48.74903" lon="1.83253">
        <ele>181.2</ele>
        <time>2023-12-20T12:11:30Z</time>
      </trkpt>
      <trkpt lat="48.749" lon="1.83254">
        <ele>181.6</ele>
        <time>2023-12-20T12:11:31Z</time>
      </trkpt>
      <trkpt lat="48.74896" lon="1.83254">
        <ele>181.6</ele>
        <time>2023-12-20T12:11:32Z</time>
      </trkpt>
      <trkpt lat="48.74893" lon="1.83255">
        <ele>181.6</ele>
        <time>2023-12-20T12:11:33Z</time>
      </trkpt>
      <trkpt lat="48.7489" lon="1.83255">
        <ele>181.6</ele>
        <time>2023-12-20T12:11:34Z</time>
      </trkpt>
      <trkpt lat="48.74886" lon="1.83255">
        <ele>182</ele>
        <time>2023-12-20T12:11:35Z</time>
      </trkpt>
      <trkpt lat="48.74883" lon="1.83255">
        <ele>182</ele>
        <time>2023-12-20T12:11:36Z</time>
      </trkpt>
      <trkpt lat="48.74879" lon="1.83256">
        <ele>182</ele>
        <time>2023-12-20T12:11:37Z</time>
      </trkpt>
      <trkpt lat="48.74876" lon="1.83255">
        <ele>182.4</ele>
        <time>2023-12-20T12:11:38Z</time>
      </trkpt>
      <trkpt lat="48.74872" lon="1.83254">
        <ele>181.8</ele>
        <time>2023-12-20T12:11:39Z</time>
      </trkpt>
      <trkpt lat="48.74868" lon="1.83259">
        <ele>181.8</ele>
        <time>2023-12-20T12:11:40Z</time>
      </trkpt>
      <trkpt lat="48.74864" lon="1.83258">
        <ele>181.8</ele>
        <time>2023-12-20T12:11:41Z</time>
      </trkpt>
      <trkpt lat="48.74861" lon="1.83257">
        <ele>181.8</ele>
        <time>2023-12-20T12:11:42Z</time>
      </trkpt>
      <trkpt lat="48.74857" lon="1.83256">
        <ele>181.8</ele>
        <time>2023-12-20T12:11:43Z</time>
      </trkpt>
      <trkpt lat="48.74853" lon="1.83254">
        <ele>181.8</ele>
        <time>2023-12-20T12:11:44Z</time>
      </trkpt>
      <trkpt lat="48.74849" lon="1.83253">
        <ele>181.8</ele>
        <time>2023-12-20T12:11:45Z</time>
      </trkpt>
      <trkpt lat="48.74845" lon="1.83252">
        <ele>181.8</ele>
        <time>2023-12-20T12:11:46Z</time>
      </trkpt>
      <trkpt lat="48.7484" lon="1.83252">
        <ele>181.8</ele>
        <time>2023-12-20T12:11:47Z</time>
      </trkpt>
      <trkpt lat="48.74836" lon="1.83249">
        <ele>181.8</ele>
        <time>2023-12-20T12:11:48Z</time>
      </trkpt>
      <trkpt lat="48.74832" lon="1.83248">
        <ele>181.8</ele>
        <time>2023-12-20T12:11:49Z</time>
      </trkpt>
      <trkpt lat="48.74828" lon="1.83246">
        <ele>181.8</ele>
        <time>2023-12-20T12:11:50Z</time>
      </trkpt>
      <trkpt lat="48.74824" lon="1.83243">
        <ele>182.6</ele>
        <time>2023-12-20T12:11:51Z</time>
      </trkpt>
      <trkpt lat="48.74819" lon="1.83242">
        <ele>182.6</ele>
        <time>2023-12-20T12:11:52Z</time>
      </trkpt>
      <trkpt lat="48.74815" lon="1.8324">
        <ele>182.6</ele>
        <time>2023-12-20T12:11:53Z</time>
      </trkpt>
      <trkpt lat="48.7481" lon="1.83237">
        <ele>182.6</ele>
        <time>2023-12-20T12:11:54Z</time>
      </trkpt>
      <trkpt lat="48.74806" lon="1.83234">
        <ele>182</ele>
        <time>2023-12-20T12:11:55Z</time>
      </trkpt>
      <trkpt lat="48.74802" lon="1.83231">
        <ele>182</ele>
        <time>2023-12-20T12:11:56Z</time>
      </trkpt>
      <trkpt lat="48.74797" lon="1.83228">
        <ele>182</ele>
        <time>2023-12-20T12:11:57Z</time>
      </trkpt>
      <trkpt lat="48.74792" lon="1.83225">
        <ele>182.6</ele>
        <time>2023-12-20T12:11:58Z</time>
      </trkpt>
      <trkpt lat="48.74788" lon="1.83222">
        <ele>182.4</ele>
        <time>2023-12-20T12:11:59Z</time>
      </trkpt>
      <trkpt lat="48.74783" lon="1.83219">
        <ele>182.4</ele>
        <time>2023-12-20T12:12:00Z</time>
      </trkpt>
      <trkpt lat="48.74778" lon="1.83216">
        <ele>182.4</ele>
        <time>2023-12-20T12:12:01Z</time>
      </trkpt>
      <trkpt lat="48.74773" lon="1.83213">
        <ele>182.4</ele>
        <time>2023-12-20T12:12:02Z</time>
      </trkpt>
      <trkpt lat="48.74769" lon="1.8321">
        <ele>181.8</ele>
        <time>2023-12-20T12:12:03Z</time>
      </trkpt>
      <trkpt lat="48.74764" lon="1.83207">
        <ele>181.8</ele>
        <time>2023-12-20T12:12:04Z</time>
      </trkpt>
      <trkpt lat="48.7476" lon="1.83204">
        <ele>181.8</ele>
        <time>2023-12-20T12:12:05Z</time>
      </trkpt>
      <trkpt lat="48.74755" lon="1.83201">
        <ele>182.4</ele>
        <time>2023-12-20T12:12:06Z</time>
      </trkpt>
      <trkpt lat="48.7475" lon="1.83198">
        <ele>182.8</ele>
        <time>2023-12-20T12:12:07Z</time>
      </trkpt>
      <trkpt lat="48.74746" lon="1.83195">
        <ele>182.8</ele>
        <time>2023-12-20T12:12:08Z</time>
      </trkpt>
      <trkpt lat="48.74741" lon="1.83192">
        <ele>182.8</ele>
        <time>2023-12-20T12:12:09Z</time>
      </trkpt>
      <trkpt lat="48.74736" lon="1.83189">
        <ele>182.8</ele>
        <time>2023-12-20T12:12:10Z</time>
      </trkpt>
      <trkpt lat="48.74731" lon="1.83187">
        <ele>181.8</ele>
        <time>2023-12-20T12:12:11Z</time>
      </trkpt>
      <trkpt lat="48.74726" lon="1.83185">
        <ele>181.8</ele>
        <time>2023-12-20T12:12:12Z</time>
      </trkpt>
      <trkpt lat="48.74721" lon="1.83183">
        <ele>181.8</ele>
        <time>2023-12-20T12:12:13Z</time>
      </trkpt>
      <trkpt lat="48.74716" lon="1.83181">
        <ele>182.8</ele>
        <time>2023-12-20T12:12:14Z</time>
      </trkpt>
      <trkpt lat="48.74712" lon="1.83179">
        <ele>183.2</ele>
        <time>2023-12-20T12:12:15Z</time>
      </trkpt>
      <trkpt lat="48.74707" lon="1.83178">
        <ele>183.2</ele>
        <time>2023-12-20T12:12:16Z</time>
      </trkpt>
      <trkpt lat="48.74702" lon="1.83177">
        <ele>183.2</ele>
        <time>2023-12-20T12:12:17Z</time>
      </trkpt>
      <trkpt lat="48.74697" lon="1.83176">
        <ele>183.2</ele>
        <time>2023-12-20T12:12:18Z</time>
      </trkpt>
      <trkpt lat="48.74692" lon="1.83174">
        <ele>183.2</ele>
        <time>2023-12-20T12:12:19Z</time>
      </trkpt>
      <trkpt lat="48.74687" lon="1.83174">
        <ele>183.2</ele>
        <time>2023-12-20T12:12:20Z</time>
      </trkpt>
      <trkpt lat="48.74682" lon="1.83174">
        <ele>183.2</ele>
        <time>2023-12-20T12:12:21Z</time>
      </trkpt>
      <trkpt lat="48.74677" lon="1.83174">
        <ele>183.2</ele>
        <time>2023-12-20T12:12:22Z</time>
      </trkpt>
      <trkpt lat="48.74672" lon="1.83173">
        <ele>182.6</ele>
        <time>2023-12-20T12:12:23Z</time>
      </trkpt>
      <trkpt lat="48.74667" lon="1.83173">
        <ele>182.6</ele>
        <time>2023-12-20T12:12:24Z</time>
      </trkpt>
      <trkpt lat="48.74662" lon="1.83173">
        <ele>182.6</ele>
        <time>2023-12-20T12:12:25Z</time>
      </trkpt>
      <trkpt lat="48.74656" lon="1.83174">
        <ele>182.6</ele>
        <time>2023-12-20T12:12:26Z</time>
      </trkpt>
      <trkpt lat="48.74651" lon="1.83174">
        <ele>182.4</ele>
        <time>2023-12-20T12:12:27Z</time>
      </trkpt>
      <trkpt lat="48.74645" lon="1.83174">
        <ele>182.4</ele>
        <time>2023-12-20T12:12:28Z</time>
      </trkpt>
      <trkpt lat="48.7464" lon="1.83175">
        <ele>182.4</ele>
        <time>2023-12-20T12:12:29Z</time>
      </trkpt>
      <trkpt lat="48.74634" lon="1.83175">
        <ele>182</ele>
        <time>2023-12-20T12:12:30Z</time>
      </trkpt>
      <trkpt lat="48.74629" lon="1.83175">
        <ele>181.4</ele>
        <time>2023-12-20T12:12:31Z</time>
      </trkpt>
      <trkpt lat="48.74623" lon="1.83176">
        <ele>181.4</ele>
        <time>2023-12-20T12:12:32Z</time>
      </trkpt>
      <trkpt lat="48.74618" lon="1.83176">
        <ele>181.4</ele>
        <time>2023-12-20T12:12:33Z</time>
      </trkpt>
      <trkpt lat="48.74612" lon="1.83177">
        <ele>181.4</ele>
        <time>2023-12-20T12:12:34Z</time>
      </trkpt>
      <trkpt lat="48.74607" lon="1.83177">
        <ele>181.2</ele>
        <time>2023-12-20T12:12:35Z</time>
      </trkpt>
      <trkpt lat="48.74601" lon="1.83178">
        <ele>181.2</ele>
        <time>2023-12-20T12:12:36Z</time>
      </trkpt>
      <trkpt lat="48.74595" lon="1.83179">
        <ele>181.2</ele>
        <time>2023-12-20T12:12:37Z</time>
      </trkpt>
      <trkpt lat="48.74589" lon="1.83179">
        <ele>182.2</ele>
        <time>2023-12-20T12:12:38Z</time>
      </trkpt>
      <trkpt lat="48.74583" lon="1.8318">
        <ele>183</ele>
        <time>2023-12-20T12:12:39Z</time>
      </trkpt>
      <trkpt lat="48.74577" lon="1.83181">
        <ele>183</ele>
        <time>2023-12-20T12:12:40Z</time>
      </trkpt>
      <trkpt lat="48.74571" lon="1.83182">
        <ele>183</ele>
        <time>2023-12-20T12:12:41Z</time>
      </trkpt>
      <trkpt lat="48.74565" lon="1.83181">
        <ele>183</ele>
        <time>2023-12-20T12:12:42Z</time>
      </trkpt>
      <trkpt lat="48.74559" lon="1.83181">
        <ele>183.2</ele>
        <time>2023-12-20T12:12:43Z</time>
      </trkpt>
      <trkpt lat="48.74553" lon="1.83182">
        <ele>183.2</ele>
        <time>2023-12-20T12:12:44Z</time>
      </trkpt>
      <trkpt lat="48.74546" lon="1.83182">
        <ele>183.2</ele>
        <time>2023-12-20T12:12:45Z</time>
      </trkpt>
      <trkpt lat="48.7454" lon="1.83183">
        <ele>182.2</ele>
        <time>2023-12-20T12:12:46Z</time>
      </trkpt>
      <trkpt lat="48.74533" lon="1.83184">
        <ele>181.8</ele>
        <time>2023-12-20T12:12:47Z</time>
      </trkpt>
      <trkpt lat="48.74526" lon="1.83185">
        <ele>181.8</ele>
        <time>2023-12-20T12:12:48Z</time>
      </trkpt>
      <trkpt lat="48.74519" lon="1.83185">
        <ele>181.8</ele>
        <time>2023-12-20T12:12:49Z</time>
      </trkpt>
      <trkpt lat="48.74513" lon="1.83185">
        <ele>182</ele>
        <time>2023-12-20T12:12:50Z</time>
      </trkpt>
      <trkpt lat="48.74505" lon="1.83184">
        <ele>181.8</ele>
        <time>2023-12-20T12:12:51Z</time>
      </trkpt>
      <trkpt lat="48.74498" lon="1.83186">
        <ele>181.8</ele>
        <time>2023-12-20T12:12:52Z</time>
      </trkpt>
      <trkpt lat="48.74491" lon="1.83185">
        <ele>181.8</ele>
        <time>2023-12-20T12:12:53Z</time>
      </trkpt>
      <trkpt lat="48.74484" lon="1.83183">
        <ele>181.8</ele>
        <time>2023-12-20T12:12:54Z</time>
      </trkpt>
      <trkpt lat="48.74477" lon="1.83182">
        <ele>181.6</ele>
        <time>2023-12-20T12:12:55Z</time>
      </trkpt>
      <trkpt lat="48.7447" lon="1.83181">
        <ele>181.6</ele>
        <time>2023-12-20T12:12:56Z</time>
      </trkpt>
      <trkpt lat="48.74462" lon="1.8318">
        <ele>181.6</ele>
        <time>2023-12-20T12:12:57Z</time>
      </trkpt>
      <trkpt lat="48.74455" lon="1.83179">
        <ele>181.8</ele>
        <time>2023-12-20T12:12:58Z</time>
      </trkpt>
      <trkpt lat="48.74448" lon="1.83178">
        <ele>182</ele>
        <time>2023-12-20T12:12:59Z</time>
      </trkpt>
      <trkpt lat="48.74441" lon="1.83177">
        <ele>182</ele>
        <time>2023-12-20T12:13:00Z</time>
      </trkpt>
      <trkpt lat="48.74434" lon="1.83176">
        <ele>182</ele>
        <time>2023-12-20T12:13:01Z</time>
      </trkpt>
      <trkpt lat="48.74427" lon="1.83174">
        <ele>181</ele>
        <time>2023-12-20T12:13:02Z</time>
      </trkpt>
      <trkpt lat="48.7442" lon="1.83174">
        <ele>180.8</ele>
        <time>2023-12-20T12:13:03Z</time>
      </trkpt>
      <trkpt lat="48.74413" lon="1.83173">
        <ele>180.8</ele>
        <time>2023-12-20T12:13:04Z</time>
      </trkpt>
      <trkpt lat="48.74406" lon="1.83172">
        <ele>180.8</ele>
        <time>2023-12-20T12:13:05Z</time>
      </trkpt>
      <trkpt lat="48.74399" lon="1.8317">
        <ele>180.8</ele>
        <time>2023-12-20T12:13:06Z</time>
      </trkpt>
      <trkpt lat="48.74392" lon="1.83168">
        <ele>180.2</ele>
        <time>2023-12-20T12:13:07Z</time>
      </trkpt>
      <trkpt lat="48.74384" lon="1.83166">
        <ele>180.2</ele>
        <time>2023-12-20T12:13:08Z</time>
      </trkpt>
      <trkpt lat="48.74377" lon="1.83164">
        <ele>180.2</ele>
        <time>2023-12-20T12:13:09Z</time>
      </trkpt>
      <trkpt lat="48.7437" lon="1.83162">
        <ele>180.2</ele>
        <time>2023-12-20T12:13:10Z</time>
      </trkpt>
      <trkpt lat="48.74363" lon="1.8316">
        <ele>179.2</ele>
        <time>2023-12-20T12:13:11Z</time>
      </trkpt>
      <trkpt lat="48.74355" lon="1.83157">
        <ele>179.2</ele>
        <time>2023-12-20T12:13:12Z</time>
      </trkpt>
      <trkpt lat="48.74348" lon="1.83156">
        <ele>179.2</ele>
        <time>2023-12-20T12:13:13Z</time>
      </trkpt>
      <trkpt lat="48.7434" lon="1.83155">
        <ele>179.2</ele>
        <time>2023-12-20T12:13:14Z</time>
      </trkpt>
      <trkpt lat="48.74332" lon="1.83154">
        <ele>178.8</ele>
        <time>2023-12-20T12:13:15Z</time>
      </trkpt>
      <trkpt lat="48.74325" lon="1.83152">
        <ele>178.8</ele>
        <time>2023-12-20T12:13:16Z</time>
      </trkpt>
      <trkpt lat="48.74317" lon="1.8315">
        <ele>178.8</ele>
        <time>2023-12-20T12:13:17Z</time>
      </trkpt>
      <trkpt lat="48.74309" lon="1.83148">
        <ele>178.8</ele>
        <time>2023-12-20T12:13:18Z</time>
      </trkpt>
      <trkpt lat="48.74302" lon="1.83146">
        <ele>179.2</ele>
        <time>2023-12-20T12:13:19Z</time>
      </trkpt>
      <trkpt lat="48.74294" lon="1.83146">
        <ele>179.2</ele>
        <time>2023-12-20T12:13:20Z</time>
      </trkpt>
      <trkpt lat="48.74286" lon="1.83145">
        <ele>179.2</ele>
        <time>2023-12-20T12:13:21Z</time>
      </trkpt>
      <trkpt lat="48.74279" lon="1.83144">
        <ele>179.2</ele>
        <time>2023-12-20T12:13:22Z</time>
      </trkpt>
      <trkpt lat="48.74272" lon="1.83142">
        <ele>180</ele>
        <time>2023-12-20T12:13:23Z</time>
      </trkpt>
      <trkpt lat="48.74265" lon="1.8314">
        <ele>180</ele>
        <time>2023-12-20T12:13:24Z</time>
      </trkpt>
      <trkpt lat="48.74259" lon="1.83139">
        <ele>180</ele>
        <time>2023-12-20T12:13:25Z</time>
      </trkpt>
      <trkpt lat="48.74253" lon="1.83139">
        <ele>180.8</ele>
        <time>2023-12-20T12:13:26Z</time>
      </trkpt>
      <trkpt lat="48.74246" lon="1.83138">
        <ele>181.2</ele>
        <time>2023-12-20T12:13:27Z</time>
      </trkpt>
      <trkpt lat="48.7424" lon="1.83136">
        <ele>181.2</ele>
        <time>2023-12-20T12:13:28Z</time>
      </trkpt>
      <trkpt lat="48.74235" lon="1.83135">
        <ele>181.2</ele>
        <time>2023-12-20T12:13:29Z</time>
      </trkpt>
      <trkpt lat="48.74229" lon="1.83132">
        <ele>181.4</ele>
        <time>2023-12-20T12:13:30Z</time>
      </trkpt>
      <trkpt lat="48.74224" lon="1.83131">
        <ele>181.8</ele>
        <time>2023-12-20T12:13:31Z</time>
      </trkpt>
      <trkpt lat="48.74218" lon="1.8313">
        <ele>181.8</ele>
        <time>2023-12-20T12:13:32Z</time>
      </trkpt>
      <trkpt lat="48.74213" lon="1.83129">
        <ele>181.8</ele>
        <time>2023-12-20T12:13:33Z</time>
      </trkpt>
      <trkpt lat="48.74207" lon="1.83127">
        <ele>182.2</ele>
        <time>2023-12-20T12:13:34Z</time>
      </trkpt>
      <trkpt lat="48.74202" lon="1.83125">
        <ele>182.4</ele>
        <time>2023-12-20T12:13:35Z</time>
      </trkpt>
      <trkpt lat="48.74196" lon="1.83125">
        <ele>182.4</ele>
        <time>2023-12-20T12:13:36Z</time>
      </trkpt>
      <trkpt lat="48.74191" lon="1.83123">
        <ele>182.4</ele>
        <time>2023-12-20T12:13:37Z</time>
      </trkpt>
      <trkpt lat="48.74185" lon="1.83122">
        <ele>182</ele>
        <time>2023-12-20T12:13:38Z</time>
      </trkpt>
      <trkpt lat="48.7418" lon="1.83122">
        <ele>182.4</ele>
        <time>2023-12-20T12:13:39Z</time>
      </trkpt>
      <trkpt lat="48.74174" lon="1.83121">
        <ele>182.4</ele>
        <time>2023-12-20T12:13:40Z</time>
      </trkpt>
      <trkpt lat="48.74168" lon="1.83121">
        <ele>182.4</ele>
        <time>2023-12-20T12:13:41Z</time>
      </trkpt>
      <trkpt lat="48.74163" lon="1.8312">
        <ele>182.4</ele>
        <time>2023-12-20T12:13:42Z</time>
      </trkpt>
      <trkpt lat="48.74157" lon="1.83119">
        <ele>182.4</ele>
        <time>2023-12-20T12:13:43Z</time>
      </trkpt>
      <trkpt lat="48.74151" lon="1.83119">
        <ele>182.4</ele>
        <time>2023-12-20T12:13:44Z</time>
      </trkpt>
      <trkpt lat="48.74145" lon="1.83118">
        <ele>182.4</ele>
        <time>2023-12-20T12:13:45Z</time>
      </trkpt>
      <trkpt lat="48.7414" lon="1.83117">
        <ele>182.4</ele>
        <time>2023-12-20T12:13:46Z</time>
      </trkpt>
      <trkpt lat="48.74134" lon="1.83115">
        <ele>182.6</ele>
        <time>2023-12-20T12:13:47Z</time>
      </trkpt>
      <trkpt lat="48.74128" lon="1.83114">
        <ele>182.6</ele>
        <time>2023-12-20T12:13:48Z</time>
      </trkpt>
      <trkpt lat="48.74122" lon="1.83114">
        <ele>182.6</ele>
        <time>2023-12-20T12:13:49Z</time>
      </trkpt>
      <trkpt lat="48.74116" lon="1.83113">
        <ele>182.4</ele>
        <time>2023-12-20T12:13:50Z</time>
      </trkpt>
      <trkpt lat="48.7411" lon="1.83111">
        <ele>182.4</ele>
        <time>2023-12-20T12:13:51Z</time>
      </trkpt>
      <trkpt lat="48.74104" lon="1.83109">
        <ele>182.4</ele>
        <time>2023-12-20T12:13:52Z</time>
      </trkpt>
      <trkpt lat="48.74098" lon="1.83108">
        <ele>182.4</ele>
        <time>2023-12-20T12:13:53Z</time>
      </trkpt>
      <trkpt lat="48.74092" lon="1.83107">
        <ele>182.4</ele>
        <time>2023-12-20T12:13:54Z</time>
      </trkpt>
      <trkpt lat="48.74087" lon="1.83104">
        <ele>182.6</ele>
        <time>2023-12-20T12:13:55Z</time>
      </trkpt>
      <trkpt lat="48.7408" lon="1.83104">
        <ele>182.6</ele>
        <time>2023-12-20T12:13:56Z</time>
      </trkpt>
      <trkpt lat="48.74074" lon="1.83103">
        <ele>182.6</ele>
        <time>2023-12-20T12:13:57Z</time>
      </trkpt>
      <trkpt lat="48.74068" lon="1.83101">
        <ele>182.6</ele>
        <time>2023-12-20T12:13:58Z</time>
      </trkpt>
      <trkpt lat="48.74062" lon="1.83099">
        <ele>182</ele>
        <time>2023-12-20T12:13:59Z</time>
      </trkpt>
      <trkpt lat="48.74056" lon="1.83098">
        <ele>182</ele>
        <time>2023-12-20T12:14:00Z</time>
      </trkpt>
      <trkpt lat="48.74049" lon="1.83096">
        <ele>182</ele>
        <time>2023-12-20T12:14:01Z</time>
      </trkpt>
      <trkpt lat="48.74043" lon="1.83094">
        <ele>183</ele>
        <time>2023-12-20T12:14:02Z</time>
      </trkpt>
      <trkpt lat="48.74036" lon="1.83092">
        <ele>182.6</ele>
        <time>2023-12-20T12:14:03Z</time>
      </trkpt>
      <trkpt lat="48.7403" lon="1.8309">
        <ele>182.6</ele>
        <time>2023-12-20T12:14:04Z</time>
      </trkpt>
      <trkpt lat="48.74023" lon="1.8309">
        <ele>182.6</ele>
        <time>2023-12-20T12:14:05Z</time>
      </trkpt>
      <trkpt lat="48.74017" lon="1.83088">
        <ele>182.6</ele>
        <time>2023-12-20T12:14:06Z</time>
      </trkpt>
      <trkpt lat="48.7401" lon="1.83089">
        <ele>182.8</ele>
        <time>2023-12-20T12:14:07Z</time>
      </trkpt>
      <trkpt lat="48.74003" lon="1.83087">
        <ele>182.8</ele>
        <time>2023-12-20T12:14:08Z</time>
      </trkpt>
      <trkpt lat="48.73996" lon="1.83087">
        <ele>182.8</ele>
        <time>2023-12-20T12:14:09Z</time>
      </trkpt>
      <trkpt lat="48.73989" lon="1.83085">
        <ele>182.8</ele>
        <time>2023-12-20T12:14:10Z</time>
      </trkpt>
      <trkpt lat="48.73982" lon="1.83084">
        <ele>183.2</ele>
        <time>2023-12-20T12:14:11Z</time>
      </trkpt>
      <trkpt lat="48.73976" lon="1.83083">
        <ele>183.2</ele>
        <time>2023-12-20T12:14:12Z</time>
      </trkpt>
      <trkpt lat="48.73969" lon="1.83082">
        <ele>183.2</ele>
        <time>2023-12-20T12:14:13Z</time>
      </trkpt>
      <trkpt lat="48.73962" lon="1.8308">
        <ele>183.2</ele>
        <time>2023-12-20T12:14:14Z</time>
      </trkpt>
      <trkpt lat="48.73954" lon="1.83079">
        <ele>182.6</ele>
        <time>2023-12-20T12:14:15Z</time>
      </trkpt>
      <trkpt lat="48.73947" lon="1.83078">
        <ele>182.6</ele>
        <time>2023-12-20T12:14:16Z</time>
      </trkpt>
      <trkpt lat="48.7394" lon="1.83077">
        <ele>182.6</ele>
        <time>2023-12-20T12:14:17Z</time>
      </trkpt>
      <trkpt lat="48.73933" lon="1.83076">
        <ele>182.6</ele>
        <time>2023-12-20T12:14:18Z</time>
      </trkpt>
      <trkpt lat="48.73926" lon="1.83075">
        <ele>182.2</ele>
        <time>2023-12-20T12:14:19Z</time>
      </trkpt>
      <trkpt lat="48.7392" lon="1.83075">
        <ele>182.2</ele>
        <time>2023-12-20T12:14:20Z</time>
      </trkpt>
      <trkpt lat="48.73913" lon="1.83075">
        <ele>182.2</ele>
        <time>2023-12-20T12:14:21Z</time>
      </trkpt>
      <trkpt lat="48.73907" lon="1.83074">
        <ele>182.2</ele>
        <time>2023-12-20T12:14:22Z</time>
      </trkpt>
      <trkpt lat="48.739" lon="1.83074">
        <ele>183.2</ele>
        <time>2023-12-20T12:14:23Z</time>
      </trkpt>
      <trkpt lat="48.73894" lon="1.83075">
        <ele>183.2</ele>
        <time>2023-12-20T12:14:24Z</time>
      </trkpt>
      <trkpt lat="48.73888" lon="1.83075">
        <ele>183.2</ele>
        <time>2023-12-20T12:14:25Z</time>
      </trkpt>
      <trkpt lat="48.73882" lon="1.83077">
        <ele>183.2</ele>
        <time>2023-12-20T12:14:26Z</time>
      </trkpt>
      <trkpt lat="48.73875" lon="1.83078">
        <ele>183.4</ele>
        <time>2023-12-20T12:14:27Z</time>
      </trkpt>
      <trkpt lat="48.73869" lon="1.8308">
        <ele>183.4</ele>
        <time>2023-12-20T12:14:28Z</time>
      </trkpt>
      <trkpt lat="48.73863" lon="1.83082">
        <ele>183.4</ele>
        <time>2023-12-20T12:14:29Z</time>
      </trkpt>
      <trkpt lat="48.73857" lon="1.83085">
        <ele>183.2</ele>
        <time>2023-12-20T12:14:30Z</time>
      </trkpt>
      <trkpt lat="48.73851" lon="1.8309">
        <ele>182.6</ele>
        <time>2023-12-20T12:14:31Z</time>
      </trkpt>
      <trkpt lat="48.73845" lon="1.83094">
        <ele>182.6</ele>
        <time>2023-12-20T12:14:32Z</time>
      </trkpt>
      <trkpt lat="48.73839" lon="1.83098">
        <ele>182.6</ele>
        <time>2023-12-20T12:14:33Z</time>
      </trkpt>
      <trkpt lat="48.73833" lon="1.83102">
        <ele>183.6</ele>
        <time>2023-12-20T12:14:34Z</time>
      </trkpt>
      <trkpt lat="48.73826" lon="1.83106">
        <ele>183.4</ele>
        <time>2023-12-20T12:14:35Z</time>
      </trkpt>
      <trkpt lat="48.7382" lon="1.8311">
        <ele>183.4</ele>
        <time>2023-12-20T12:14:36Z</time>
      </trkpt>
      <trkpt lat="48.73814" lon="1.83114">
        <ele>183.4</ele>
        <time>2023-12-20T12:14:37Z</time>
      </trkpt>
      <trkpt lat="48.73807" lon="1.83118">
        <ele>183.4</ele>
        <time>2023-12-20T12:14:38Z</time>
      </trkpt>
      <trkpt lat="48.73801" lon="1.83121">
        <ele>184.2</ele>
        <time>2023-12-20T12:14:39Z</time>
      </trkpt>
      <trkpt lat="48.73795" lon="1.83125">
        <ele>184.2</ele>
        <time>2023-12-20T12:14:40Z</time>
      </trkpt>
      <trkpt lat="48.73789" lon="1.83128">
        <ele>184.2</ele>
        <time>2023-12-20T12:14:41Z</time>
      </trkpt>
      <trkpt lat="48.73782" lon="1.83132">
        <ele>184.2</ele>
        <time>2023-12-20T12:14:42Z</time>
      </trkpt>
      <trkpt lat="48.73776" lon="1.83135">
        <ele>184.2</ele>
        <time>2023-12-20T12:14:43Z</time>
      </trkpt>
      <trkpt lat="48.7377" lon="1.83139">
        <ele>184.2</ele>
        <time>2023-12-20T12:14:44Z</time>
      </trkpt>
      <trkpt lat="48.73764" lon="1.83142">
        <ele>184.2</ele>
        <time>2023-12-20T12:14:45Z</time>
      </trkpt>
      <trkpt lat="48.73757" lon="1.83146">
        <ele>184.2</ele>
        <time>2023-12-20T12:14:46Z</time>
      </trkpt>
      <trkpt lat="48.73751" lon="1.83149">
        <ele>184.2</ele>
        <time>2023-12-20T12:14:47Z</time>
      </trkpt>
      <trkpt lat="48.73744" lon="1.83153">
        <ele>184.2</ele>
        <time>2023-12-20T12:14:48Z</time>
      </trkpt>
      <trkpt lat="48.73738" lon="1.83156">
        <ele>184.2</ele>
        <time>2023-12-20T12:14:49Z</time>
      </trkpt>
      <trkpt lat="48.73732" lon="1.8316">
        <ele>183.4</ele>
        <time>2023-12-20T12:14:50Z</time>
      </trkpt>
      <trkpt lat="48.73726" lon="1.83163">
        <ele>183.8</ele>
        <time>2023-12-20T12:14:51Z</time>
      </trkpt>
      <trkpt lat="48.73719" lon="1.83167">
        <ele>183.8</ele>
        <time>2023-12-20T12:14:52Z</time>
      </trkpt>
      <trkpt lat="48.73713" lon="1.8317">
        <ele>183.8</ele>
        <time>2023-12-20T12:14:53Z</time>
      </trkpt>
      <trkpt lat="48.73706" lon="1.83174">
        <ele>183.2</ele>
        <time>2023-12-20T12:14:54Z</time>
      </trkpt>
      <trkpt lat="48.737" lon="1.83177">
        <ele>183.4</ele>
        <time>2023-12-20T12:14:55Z</time>
      </trkpt>
      <trkpt lat="48.73693" lon="1.83181">
        <ele>183.4</ele>
        <time>2023-12-20T12:14:56Z</time>
      </trkpt>
      <trkpt lat="48.73687" lon="1.83184">
        <ele>183.4</ele>
        <time>2023-12-20T12:14:57Z</time>
      </trkpt>
      <trkpt lat="48.73681" lon="1.83188">
        <ele>183.4</ele>
        <time>2023-12-20T12:14:58Z</time>
      </trkpt>
      <trkpt lat="48.73674" lon="1.83191">
        <ele>183</ele>
        <time>2023-12-20T12:14:59Z</time>
      </trkpt>
      <trkpt lat="48.73668" lon="1.83195">
        <ele>183</ele>
        <time>2023-12-20T12:15:00Z</time>
      </trkpt>
      <trkpt lat="48.73661" lon="1.83198">
        <ele>183</ele>
        <time>2023-12-20T12:15:01Z</time>
      </trkpt>
      <trkpt lat="48.73655" lon="1.83202">
        <ele>183.8</ele>
        <time>2023-12-20T12:15:02Z</time>
      </trkpt>
      <trkpt lat="48.73648" lon="1.83206">
        <ele>183.4</ele>
        <time>2023-12-20T12:15:03Z</time>
      </trkpt>
      <trkpt lat="48.73642" lon="1.83209">
        <ele>183.4</ele>
        <time>2023-12-20T12:15:04Z</time>
      </trkpt>
      <trkpt lat="48.73636" lon="1.83213">
        <ele>183.4</ele>
        <time>2023-12-20T12:15:05Z</time>
      </trkpt>
      <trkpt lat="48.73629" lon="1.83216">
        <ele>183.4</ele>
        <time>2023-12-20T12:15:06Z</time>
      </trkpt>
      <trkpt lat="48.73623" lon="1.8322">
        <ele>183.4</ele>
        <time>2023-12-20T12:15:07Z</time>
      </trkpt>
      <trkpt lat="48.73616" lon="1.83223">
        <ele>183.4</ele>
        <time>2023-12-20T12:15:08Z</time>
      </trkpt>
      <trkpt lat="48.7361" lon="1.83227">
        <ele>183.4</ele>
        <time>2023-12-20T12:15:09Z</time>
      </trkpt>
      <trkpt lat="48.73603" lon="1.8323">
        <ele>183.4</ele>
        <time>2023-12-20T12:15:10Z</time>
      </trkpt>
      <trkpt lat="48.73597" lon="1.83234">
        <ele>183.4</ele>
        <time>2023-12-20T12:15:11Z</time>
      </trkpt>
      <trkpt lat="48.73591" lon="1.83237">
        <ele>183.4</ele>
        <time>2023-12-20T12:15:12Z</time>
      </trkpt>
      <trkpt lat="48.73584" lon="1.83241">
        <ele>183.4</ele>
        <time>2023-12-20T12:15:13Z</time>
      </trkpt>
      <trkpt lat="48.73578" lon="1.83244">
        <ele>184.4</ele>
        <time>2023-12-20T12:15:14Z</time>
      </trkpt>
      <trkpt lat="48.73572" lon="1.83248">
        <ele>184.6</ele>
        <time>2023-12-20T12:15:15Z</time>
      </trkpt>
      <trkpt lat="48.73565" lon="1.83251">
        <ele>184.6</ele>
        <time>2023-12-20T12:15:16Z</time>
      </trkpt>
      <trkpt lat="48.73559" lon="1.83255">
        <ele>184.6</ele>
        <time>2023-12-20T12:15:17Z</time>
      </trkpt>
      <trkpt lat="48.73552" lon="1.83258">
        <ele>183.6</ele>
        <time>2023-12-20T12:15:18Z</time>
      </trkpt>
      <trkpt lat="48.73546" lon="1.83262">
        <ele>183.4</ele>
        <time>2023-12-20T12:15:19Z</time>
      </trkpt>
      <trkpt lat="48.73539" lon="1.83266">
        <ele>183.4</ele>
        <time>2023-12-20T12:15:20Z</time>
      </trkpt>
      <trkpt lat="48.73533" lon="1.8327">
        <ele>183.4</ele>
        <time>2023-12-20T12:15:21Z</time>
      </trkpt>
      <trkpt lat="48.73526" lon="1.83273">
        <ele>183.2</ele>
        <time>2023-12-20T12:15:22Z</time>
      </trkpt>
      <trkpt lat="48.7352" lon="1.83276">
        <ele>183.2</ele>
        <time>2023-12-20T12:15:23Z</time>
      </trkpt>
      <trkpt lat="48.73513" lon="1.8328">
        <ele>183.2</ele>
        <time>2023-12-20T12:15:24Z</time>
      </trkpt>
      <trkpt lat="48.73507" lon="1.83283">
        <ele>183.2</ele>
        <time>2023-12-20T12:15:25Z</time>
      </trkpt>
      <trkpt lat="48.73501" lon="1.83286">
        <ele>183.2</ele>
        <time>2023-12-20T12:15:26Z</time>
      </trkpt>
      <trkpt lat="48.73495" lon="1.8329">
        <ele>183</ele>
        <time>2023-12-20T12:15:27Z</time>
      </trkpt>
      <trkpt lat="48.73488" lon="1.83293">
        <ele>183</ele>
        <time>2023-12-20T12:15:28Z</time>
      </trkpt>
      <trkpt lat="48.73482" lon="1.83296">
        <ele>183</ele>
        <time>2023-12-20T12:15:29Z</time>
      </trkpt>
      <trkpt lat="48.73476" lon="1.833">
        <ele>183</ele>
        <time>2023-12-20T12:15:30Z</time>
      </trkpt>
      <trkpt lat="48.7347" lon="1.83303">
        <ele>182.8</ele>
        <time>2023-12-20T12:15:31Z</time>
      </trkpt>
      <trkpt lat="48.73463" lon="1.83306">
        <ele>182.8</ele>
        <time>2023-12-20T12:15:32Z</time>
      </trkpt>
      <trkpt lat="48.73457" lon="1.83309">
        <ele>182.8</ele>
        <time>2023-12-20T12:15:33Z</time>
      </trkpt>
      <trkpt lat="48.73451" lon="1.83314">
        <ele>183.8</ele>
        <time>2023-12-20T12:15:34Z</time>
      </trkpt>
      <trkpt lat="48.73445" lon="1.83318">
        <ele>184.2</ele>
        <time>2023-12-20T12:15:35Z</time>
      </trkpt>
      <trkpt lat="48.73439" lon="1.83321">
        <ele>184.2</ele>
        <time>2023-12-20T12:15:36Z</time>
      </trkpt>
      <trkpt lat="48.73433" lon="1.83324">
        <ele>184.2</ele>
        <time>2023-12-20T12:15:37Z</time>
      </trkpt>
      <trkpt lat="48.73427" lon="1.83327">
        <ele>184</ele>
        <time>2023-12-20T12:15:38Z</time>
      </trkpt>
      <trkpt lat="48.7342" lon="1.83331">
        <ele>183.6</ele>
        <time>2023-12-20T12:15:39Z</time>
      </trkpt>
      <trkpt lat="48.73414" lon="1.83334">
        <ele>183.6</ele>
        <time>2023-12-20T12:15:40Z</time>
      </trkpt>
      <trkpt lat="48.73408" lon="1.83338">
        <ele>183.6</ele>
        <time>2023-12-20T12:15:41Z</time>
      </trkpt>
      <trkpt lat="48.73402" lon="1.83341">
        <ele>183</ele>
        <time>2023-12-20T12:15:42Z</time>
      </trkpt>
      <trkpt lat="48.73395" lon="1.83345">
        <ele>182.8</ele>
        <time>2023-12-20T12:15:43Z</time>
      </trkpt>
      <trkpt lat="48.73389" lon="1.83348">
        <ele>182.8</ele>
        <time>2023-12-20T12:15:44Z</time>
      </trkpt>
      <trkpt lat="48.73382" lon="1.83352">
        <ele>182.8</ele>
        <time>2023-12-20T12:15:45Z</time>
      </trkpt>
      <trkpt lat="48.73376" lon="1.83355">
        <ele>183.2</ele>
        <time>2023-12-20T12:15:46Z</time>
      </trkpt>
      <trkpt lat="48.7337" lon="1.83359">
        <ele>183.2</ele>
        <time>2023-12-20T12:15:47Z</time>
      </trkpt>
      <trkpt lat="48.73364" lon="1.83362">
        <ele>183.2</ele>
        <time>2023-12-20T12:15:48Z</time>
      </trkpt>
      <trkpt lat="48.73358" lon="1.83365">
        <ele>183.2</ele>
        <time>2023-12-20T12:15:49Z</time>
      </trkpt>
      <trkpt lat="48.73351" lon="1.83368">
        <ele>183.2</ele>
        <time>2023-12-20T12:15:50Z</time>
      </trkpt>
      <trkpt lat="48.73345" lon="1.83371">
        <ele>183.8</ele>
        <time>2023-12-20T12:15:51Z</time>
      </trkpt>
      <trkpt lat="48.73339" lon="1.83375">
        <ele>183.8</ele>
        <time>2023-12-20T12:15:52Z</time>
      </trkpt>
      <trkpt lat="48.73332" lon="1.83377">
        <ele>183.8</ele>
        <time>2023-12-20T12:15:53Z</time>
      </trkpt>
      <trkpt lat="48.73326" lon="1.83381">
        <ele>183.8</ele>
        <time>2023-12-20T12:15:54Z</time>
      </trkpt>
      <trkpt lat="48.73319" lon="1.83385">
        <ele>183.8</ele>
        <time>2023-12-20T12:15:55Z</time>
      </trkpt>
      <trkpt lat="48.73313" lon="1.83388">
        <ele>183.8</ele>
        <time>2023-12-20T12:15:56Z</time>
      </trkpt>
      <trkpt lat="48.73307" lon="1.83392">
        <ele>183.8</ele>
        <time>2023-12-20T12:15:57Z</time>
      </trkpt>
      <trkpt lat="48.733" lon="1.83395">
        <ele>182.8</ele>
        <time>2023-12-20T12:15:58Z</time>
      </trkpt>
      <trkpt lat="48.73294" lon="1.83399">
        <ele>182.6</ele>
        <time>2023-12-20T12:15:59Z</time>
      </trkpt>
      <trkpt lat="48.73287" lon="1.83403">
        <ele>182.6</ele>
        <time>2023-12-20T12:16:00Z</time>
      </trkpt>
      <trkpt lat="48.73281" lon="1.83407">
        <ele>182.6</ele>
        <time>2023-12-20T12:16:01Z</time>
      </trkpt>
      <trkpt lat="48.73275" lon="1.8341">
        <ele>182.6</ele>
        <time>2023-12-20T12:16:02Z</time>
      </trkpt>
      <trkpt lat="48.73268" lon="1.83414">
        <ele>183.2</ele>
        <time>2023-12-20T12:16:03Z</time>
      </trkpt>
      <trkpt lat="48.73262" lon="1.83417">
        <ele>183.2</ele>
        <time>2023-12-20T12:16:04Z</time>
      </trkpt>
      <trkpt lat="48.73256" lon="1.83421">
        <ele>183.2</ele>
        <time>2023-12-20T12:16:05Z</time>
      </trkpt>
      <trkpt lat="48.73249" lon="1.83425">
        <ele>183.2</ele>
        <time>2023-12-20T12:16:06Z</time>
      </trkpt>
      <trkpt lat="48.73242" lon="1.83428">
        <ele>183.2</ele>
        <time>2023-12-20T12:16:07Z</time>
      </trkpt>
      <trkpt lat="48.73236" lon="1.83432">
        <ele>183.2</ele>
        <time>2023-12-20T12:16:08Z</time>
      </trkpt>
      <trkpt lat="48.73229" lon="1.83436">
        <ele>183.2</ele>
        <time>2023-12-20T12:16:09Z</time>
      </trkpt>
      <trkpt lat="48.73222" lon="1.83439">
        <ele>183.2</ele>
        <time>2023-12-20T12:16:10Z</time>
      </trkpt>
      <trkpt lat="48.73216" lon="1.83442">
        <ele>182.6</ele>
        <time>2023-12-20T12:16:11Z</time>
      </trkpt>
      <trkpt lat="48.73209" lon="1.83446">
        <ele>182.6</ele>
        <time>2023-12-20T12:16:12Z</time>
      </trkpt>
      <trkpt lat="48.73202" lon="1.83449">
        <ele>182.6</ele>
        <time>2023-12-20T12:16:13Z</time>
      </trkpt>
      <trkpt lat="48.73195" lon="1.83452">
        <ele>182.6</ele>
        <time>2023-12-20T12:16:14Z</time>
      </trkpt>
      <trkpt lat="48.73188" lon="1.83455">
        <ele>182.6</ele>
        <time>2023-12-20T12:16:15Z</time>
      </trkpt>
      <trkpt lat="48.73181" lon="1.83458">
        <ele>182.6</ele>
        <time>2023-12-20T12:16:16Z</time>
      </trkpt>
      <trkpt lat="48.73175" lon="1.83461">
        <ele>182.6</ele>
        <time>2023-12-20T12:16:17Z</time>
      </trkpt>
      <trkpt lat="48.73168" lon="1.83464">
        <ele>182.6</ele>
        <time>2023-12-20T12:16:18Z</time>
      </trkpt>
      <trkpt lat="48.73161" lon="1.83467">
        <ele>182.2</ele>
        <time>2023-12-20T12:16:19Z</time>
      </trkpt>
      <trkpt lat="48.73154" lon="1.8347">
        <ele>182.2</ele>
        <time>2023-12-20T12:16:20Z</time>
      </trkpt>
      <trkpt lat="48.73148" lon="1.83473">
        <ele>182.2</ele>
        <time>2023-12-20T12:16:21Z</time>
      </trkpt>
      <trkpt lat="48.73141" lon="1.83476">
        <ele>182.2</ele>
        <time>2023-12-20T12:16:22Z</time>
      </trkpt>
      <trkpt lat="48.73135" lon="1.8348">
        <ele>182</ele>
        <time>2023-12-20T12:16:23Z</time>
      </trkpt>
      <trkpt lat="48.73128" lon="1.83483">
        <ele>182</ele>
        <time>2023-12-20T12:16:24Z</time>
      </trkpt>
      <trkpt lat="48.73122" lon="1.83487">
        <ele>182</ele>
        <time>2023-12-20T12:16:25Z</time>
      </trkpt>
      <trkpt lat="48.73115" lon="1.8349">
        <ele>183</ele>
        <time>2023-12-20T12:16:26Z</time>
      </trkpt>
      <trkpt lat="48.73108" lon="1.83493">
        <ele>183.2</ele>
        <time>2023-12-20T12:16:27Z</time>
      </trkpt>
      <trkpt lat="48.73102" lon="1.83497">
        <ele>183.2</ele>
        <time>2023-12-20T12:16:28Z</time>
      </trkpt>
      <trkpt lat="48.73095" lon="1.83501">
        <ele>183.2</ele>
        <time>2023-12-20T12:16:29Z</time>
      </trkpt>
      <trkpt lat="48.73089" lon="1.83505">
        <ele>183.2</ele>
        <time>2023-12-20T12:16:30Z</time>
      </trkpt>
      <trkpt lat="48.73082" lon="1.83509">
        <ele>183.2</ele>
        <time>2023-12-20T12:16:31Z</time>
      </trkpt>
      <trkpt lat="48.73076" lon="1.83513">
        <ele>183.2</ele>
        <time>2023-12-20T12:16:32Z</time>
      </trkpt>
      <trkpt lat="48.73069" lon="1.83518">
        <ele>183.2</ele>
        <time>2023-12-20T12:16:33Z</time>
      </trkpt>
      <trkpt lat="48.73063" lon="1.83522">
        <ele>183.2</ele>
        <time>2023-12-20T12:16:34Z</time>
      </trkpt>
      <trkpt lat="48.73057" lon="1.83526">
        <ele>183.4</ele>
        <time>2023-12-20T12:16:35Z</time>
      </trkpt>
      <trkpt lat="48.7305" lon="1.8353">
        <ele>183.4</ele>
        <time>2023-12-20T12:16:36Z</time>
      </trkpt>
      <trkpt lat="48.73044" lon="1.83535">
        <ele>183.4</ele>
        <time>2023-12-20T12:16:37Z</time>
      </trkpt>
      <trkpt lat="48.73037" lon="1.83539">
        <ele>183.4</ele>
        <time>2023-12-20T12:16:38Z</time>
      </trkpt>
      <trkpt lat="48.73031" lon="1.83543">
        <ele>183.2</ele>
        <time>2023-12-20T12:16:39Z</time>
      </trkpt>
      <trkpt lat="48.73025" lon="1.83547">
        <ele>183.2</ele>
        <time>2023-12-20T12:16:40Z</time>
      </trkpt>
      <trkpt lat="48.73018" lon="1.83551">
        <ele>183.2</ele>
        <time>2023-12-20T12:16:41Z</time>
      </trkpt>
      <trkpt lat="48.73012" lon="1.83555">
        <ele>183.2</ele>
        <time>2023-12-20T12:16:42Z</time>
      </trkpt>
      <trkpt lat="48.73005" lon="1.83559">
        <ele>183.2</ele>
        <time>2023-12-20T12:16:43Z</time>
      </trkpt>
      <trkpt lat="48.72999" lon="1.83562">
        <ele>183.2</ele>
        <time>2023-12-20T12:16:44Z</time>
      </trkpt>
      <trkpt lat="48.72992" lon="1.83566">
        <ele>183.2</ele>
        <time>2023-12-20T12:16:45Z</time>
      </trkpt>
      <trkpt lat="48.72986" lon="1.8357">
        <ele>184</ele>
        <time>2023-12-20T12:16:46Z</time>
      </trkpt>
      <trkpt lat="48.72979" lon="1.83573">
        <ele>183.8</ele>
        <time>2023-12-20T12:16:47Z</time>
      </trkpt>
      <trkpt lat="48.72972" lon="1.83577">
        <ele>183.8</ele>
        <time>2023-12-20T12:16:48Z</time>
      </trkpt>
      <trkpt lat="48.72966" lon="1.8358">
        <ele>183.8</ele>
        <time>2023-12-20T12:16:49Z</time>
      </trkpt>
      <trkpt lat="48.72959" lon="1.83584">
        <ele>183.8</ele>
        <time>2023-12-20T12:16:50Z</time>
      </trkpt>
      <trkpt lat="48.72953" lon="1.83587">
        <ele>184</ele>
        <time>2023-12-20T12:16:51Z</time>
      </trkpt>
      <trkpt lat="48.72946" lon="1.83591">
        <ele>184</ele>
        <time>2023-12-20T12:16:52Z</time>
      </trkpt>
      <trkpt lat="48.7294" lon="1.83594">
        <ele>184</ele>
        <time>2023-12-20T12:16:53Z</time>
      </trkpt>
      <trkpt lat="48.72933" lon="1.83598">
        <ele>184.4</ele>
        <time>2023-12-20T12:16:54Z</time>
      </trkpt>
      <trkpt lat="48.72926" lon="1.83601">
        <ele>184.4</ele>
        <time>2023-12-20T12:16:55Z</time>
      </trkpt>
      <trkpt lat="48.7292" lon="1.83605">
        <ele>184.4</ele>
        <time>2023-12-20T12:16:56Z</time>
      </trkpt>
      <trkpt lat="48.72913" lon="1.83608">
        <ele>184.4</ele>
        <time>2023-12-20T12:16:57Z</time>
      </trkpt>
      <trkpt lat="48.72907" lon="1.83612">
        <ele>184.4</ele>
        <time>2023-12-20T12:16:58Z</time>
      </trkpt>
      <trkpt lat="48.72901" lon="1.83616">
        <ele>183.8</ele>
        <time>2023-12-20T12:16:59Z</time>
      </trkpt>
      <trkpt lat="48.72895" lon="1.83619">
        <ele>183.8</ele>
        <time>2023-12-20T12:17:00Z</time>
      </trkpt>
      <trkpt lat="48.72888" lon="1.83622">
        <ele>183.8</ele>
        <time>2023-12-20T12:17:01Z</time>
      </trkpt>
      <trkpt lat="48.72882" lon="1.83626">
        <ele>183.8</ele>
        <time>2023-12-20T12:17:02Z</time>
      </trkpt>
      <trkpt lat="48.72876" lon="1.83629">
        <ele>183.6</ele>
        <time>2023-12-20T12:17:03Z</time>
      </trkpt>
      <trkpt lat="48.7287" lon="1.83633">
        <ele>183.6</ele>
        <time>2023-12-20T12:17:04Z</time>
      </trkpt>
      <trkpt lat="48.72863" lon="1.83636">
        <ele>183.6</ele>
        <time>2023-12-20T12:17:05Z</time>
      </trkpt>
      <trkpt lat="48.72857" lon="1.8364">
        <ele>184.2</ele>
        <time>2023-12-20T12:17:06Z</time>
      </trkpt>
      <trkpt lat="48.7285" lon="1.83643">
        <ele>184</ele>
        <time>2023-12-20T12:17:07Z</time>
      </trkpt>
      <trkpt lat="48.72843" lon="1.83647">
        <ele>184</ele>
        <time>2023-12-20T12:17:08Z</time>
      </trkpt>
      <trkpt lat="48.72837" lon="1.8365">
        <ele>184</ele>
        <time>2023-12-20T12:17:09Z</time>
      </trkpt>
      <trkpt lat="48.7283" lon="1.83654">
        <ele>183.2</ele>
        <time>2023-12-20T12:17:10Z</time>
      </trkpt>
      <trkpt lat="48.72824" lon="1.83657">
        <ele>182.8</ele>
        <time>2023-12-20T12:17:11Z</time>
      </trkpt>
      <trkpt lat="48.72818" lon="1.83661">
        <ele>182.8</ele>
        <time>2023-12-20T12:17:12Z</time>
      </trkpt>
      <trkpt lat="48.72811" lon="1.83665">
        <ele>182.8</ele>
        <time>2023-12-20T12:17:13Z</time>
      </trkpt>
      <trkpt lat="48.72805" lon="1.83668">
        <ele>183.2</ele>
        <time>2023-12-20T12:17:14Z</time>
      </trkpt>
      <trkpt lat="48.72798" lon="1.83672">
        <ele>184.2</ele>
        <time>2023-12-20T12:17:15Z</time>
      </trkpt>
      <trkpt lat="48.72792" lon="1.83675">
        <ele>184.2</ele>
        <time>2023-12-20T12:17:16Z</time>
      </trkpt>
      <trkpt lat="48.72786" lon="1.83678">
        <ele>184.2</ele>
        <time>2023-12-20T12:17:17Z</time>
      </trkpt>
      <trkpt lat="48.72779" lon="1.83682">
        <ele>184.2</ele>
        <time>2023-12-20T12:17:18Z</time>
      </trkpt>
      <trkpt lat="48.72772" lon="1.83686">
        <ele>184.8</ele>
        <time>2023-12-20T12:17:19Z</time>
      </trkpt>
      <trkpt lat="48.72766" lon="1.83689">
        <ele>184.8</ele>
        <time>2023-12-20T12:17:20Z</time>
      </trkpt>
      <trkpt lat="48.7276" lon="1.83692">
        <ele>184.8</ele>
        <time>2023-12-20T12:17:21Z</time>
      </trkpt>
      <trkpt lat="48.72753" lon="1.83696">
        <ele>184.8</ele>
        <time>2023-12-20T12:17:22Z</time>
      </trkpt>
      <trkpt lat="48.72747" lon="1.83699">
        <ele>185.2</ele>
        <time>2023-12-20T12:17:23Z</time>
      </trkpt>
      <trkpt lat="48.7274" lon="1.83703">
        <ele>185.2</ele>
        <time>2023-12-20T12:17:24Z</time>
      </trkpt>
      <trkpt lat="48.72734" lon="1.83706">
        <ele>185.2</ele>
        <time>2023-12-20T12:17:25Z</time>
      </trkpt>
      <trkpt lat="48.72727" lon="1.8371">
        <ele>185</ele>
        <time>2023-12-20T12:17:26Z</time>
      </trkpt>
      <trkpt lat="48.7272" lon="1.83713">
        <ele>185</ele>
        <time>2023-12-20T12:17:27Z</time>
      </trkpt>
      <trkpt lat="48.72714" lon="1.83717">
        <ele>185</ele>
        <time>2023-12-20T12:17:28Z</time>
      </trkpt>
      <trkpt lat="48.72707" lon="1.83721">
        <ele>185</ele>
        <time>2023-12-20T12:17:29Z</time>
      </trkpt>
      <trkpt lat="48.727" lon="1.83724">
        <ele>185</ele>
        <time>2023-12-20T12:17:30Z</time>
      </trkpt>
      <trkpt lat="48.72693" lon="1.83728">
        <ele>184.8</ele>
        <time>2023-12-20T12:17:31Z</time>
      </trkpt>
      <trkpt lat="48.72687" lon="1.83732">
        <ele>184.8</ele>
        <time>2023-12-20T12:17:32Z</time>
      </trkpt>
      <trkpt lat="48.7268" lon="1.83735">
        <ele>184.8</ele>
        <time>2023-12-20T12:17:33Z</time>
      </trkpt>
      <trkpt lat="48.72673" lon="1.83739">
        <ele>183.8</ele>
        <time>2023-12-20T12:17:34Z</time>
      </trkpt>
      <trkpt lat="48.72666" lon="1.83743">
        <ele>184.2</ele>
        <time>2023-12-20T12:17:35Z</time>
      </trkpt>
      <trkpt lat="48.72659" lon="1.83747">
        <ele>184.2</ele>
        <time>2023-12-20T12:17:36Z</time>
      </trkpt>
      <trkpt lat="48.72653" lon="1.83751">
        <ele>184.2</ele>
        <time>2023-12-20T12:17:37Z</time>
      </trkpt>
      <trkpt lat="48.72646" lon="1.83755">
        <ele>183.8</ele>
        <time>2023-12-20T12:17:38Z</time>
      </trkpt>
      <trkpt lat="48.72639" lon="1.83758">
        <ele>183.8</ele>
        <time>2023-12-20T12:17:39Z</time>
      </trkpt>
      <trkpt lat="48.72632" lon="1.83761">
        <ele>183.8</ele>
        <time>2023-12-20T12:17:40Z</time>
      </trkpt>
      <trkpt lat="48.72625" lon="1.83764">
        <ele>183.8</ele>
        <time>2023-12-20T12:17:41Z</time>
      </trkpt>
      <trkpt lat="48.72618" lon="1.83768">
        <ele>184.2</ele>
        <time>2023-12-20T12:17:42Z</time>
      </trkpt>
      <trkpt lat="48.72612" lon="1.83771">
        <ele>184.2</ele>
        <time>2023-12-20T12:17:43Z</time>
      </trkpt>
      <trkpt lat="48.72605" lon="1.83775">
        <ele>184.2</ele>
        <time>2023-12-20T12:17:44Z</time>
      </trkpt>
      <trkpt lat="48.72598" lon="1.83779">
        <ele>184.2</ele>
        <time>2023-12-20T12:17:45Z</time>
      </trkpt>
      <trkpt lat="48.72591" lon="1.83782">
        <ele>183.6</ele>
        <time>2023-12-20T12:17:46Z</time>
      </trkpt>
      <trkpt lat="48.72585" lon="1.83785">
        <ele>183.8</ele>
        <time>2023-12-20T12:17:47Z</time>
      </trkpt>
      <trkpt lat="48.72578" lon="1.83788">
        <ele>183.8</ele>
        <time>2023-12-20T12:17:48Z</time>
      </trkpt>
      <trkpt lat="48.72572" lon="1.83792">
        <ele>183.8</ele>
        <time>2023-12-20T12:17:49Z</time>
      </trkpt>
      <trkpt lat="48.72565" lon="1.83795">
        <ele>183.8</ele>
        <time>2023-12-20T12:17:50Z</time>
      </trkpt>
      <trkpt lat="48.72558" lon="1.83799">
        <ele>183.6</ele>
        <time>2023-12-20T12:17:51Z</time>
      </trkpt>
      <trkpt lat="48.72551" lon="1.83802">
        <ele>183.6</ele>
        <time>2023-12-20T12:17:52Z</time>
      </trkpt>
      <trkpt lat="48.72545" lon="1.83806">
        <ele>183.6</ele>
        <time>2023-12-20T12:17:53Z</time>
      </trkpt>
      <trkpt lat="48.72538" lon="1.83808">
        <ele>183.2</ele>
        <time>2023-12-20T12:17:54Z</time>
      </trkpt>
      <trkpt lat="48.72531" lon="1.83812">
        <ele>183.8</ele>
        <time>2023-12-20T12:17:55Z</time>
      </trkpt>
      <trkpt lat="48.72525" lon="1.83815">
        <ele>183.8</ele>
        <time>2023-12-20T12:17:56Z</time>
      </trkpt>
      <trkpt lat="48.72519" lon="1.83819">
        <ele>183.8</ele>
        <time>2023-12-20T12:17:57Z</time>
      </trkpt>
      <trkpt lat="48.72512" lon="1.83823">
        <ele>183.8</ele>
        <time>2023-12-20T12:17:58Z</time>
      </trkpt>
      <trkpt lat="48.72505" lon="1.83826">
        <ele>184</ele>
        <time>2023-12-20T12:17:59Z</time>
      </trkpt>
      <trkpt lat="48.72498" lon="1.8383">
        <ele>184</ele>
        <time>2023-12-20T12:18:00Z</time>
      </trkpt>
      <trkpt lat="48.72491" lon="1.83834">
        <ele>184</ele>
        <time>2023-12-20T12:18:01Z</time>
      </trkpt>
      <trkpt lat="48.72484" lon="1.83837">
        <ele>183.4</ele>
        <time>2023-12-20T12:18:02Z</time>
      </trkpt>
      <trkpt lat="48.72477" lon="1.83841">
        <ele>183</ele>
        <time>2023-12-20T12:18:03Z</time>
      </trkpt>
      <trkpt lat="48.7247" lon="1.83844">
        <ele>183</ele>
        <time>2023-12-20T12:18:04Z</time>
      </trkpt>
      <trkpt lat="48.72464" lon="1.83847">
        <ele>183</ele>
        <time>2023-12-20T12:18:05Z</time>
      </trkpt>
      <trkpt lat="48.72457" lon="1.8385">
        <ele>183</ele>
        <time>2023-12-20T12:18:06Z</time>
      </trkpt>
      <trkpt lat="48.7245" lon="1.83854">
        <ele>184</ele>
        <time>2023-12-20T12:18:07Z</time>
      </trkpt>
      <trkpt lat="48.72443" lon="1.83857">
        <ele>184</ele>
        <time>2023-12-20T12:18:08Z</time>
      </trkpt>
      <trkpt lat="48.72437" lon="1.83861">
        <ele>184</ele>
        <time>2023-12-20T12:18:09Z</time>
      </trkpt>
      <trkpt lat="48.7243" lon="1.83864">
        <ele>184</ele>
        <time>2023-12-20T12:18:10Z</time>
      </trkpt>
      <trkpt lat="48.72423" lon="1.83867">
        <ele>183.8</ele>
        <time>2023-12-20T12:18:11Z</time>
      </trkpt>
      <trkpt lat="48.72416" lon="1.83871">
        <ele>183.8</ele>
        <time>2023-12-20T12:18:12Z</time>
      </trkpt>
      <trkpt lat="48.72409" lon="1.83874">
        <ele>183.8</ele>
        <time>2023-12-20T12:18:13Z</time>
      </trkpt>
      <trkpt lat="48.72402" lon="1.83878">
        <ele>184.2</ele>
        <time>2023-12-20T12:18:14Z</time>
      </trkpt>
      <trkpt lat="48.72395" lon="1.83882">
        <ele>185.2</ele>
        <time>2023-12-20T12:18:15Z</time>
      </trkpt>
      <trkpt lat="48.72388" lon="1.83886">
        <ele>185.2</ele>
        <time>2023-12-20T12:18:16Z</time>
      </trkpt>
      <trkpt lat="48.72381" lon="1.8389">
        <ele>185.2</ele>
        <time>2023-12-20T12:18:17Z</time>
      </trkpt>
      <trkpt lat="48.72374" lon="1.83894">
        <ele>184.2</ele>
        <time>2023-12-20T12:18:18Z</time>
      </trkpt>
      <trkpt lat="48.72367" lon="1.83898">
        <ele>183.4</ele>
        <time>2023-12-20T12:18:19Z</time>
      </trkpt>
      <trkpt lat="48.7236" lon="1.83902">
        <ele>183.4</ele>
        <time>2023-12-20T12:18:20Z</time>
      </trkpt>
      <trkpt lat="48.72352" lon="1.83906">
        <ele>183.4</ele>
        <time>2023-12-20T12:18:21Z</time>
      </trkpt>
      <trkpt lat="48.72345" lon="1.8391">
        <ele>182.6</ele>
        <time>2023-12-20T12:18:22Z</time>
      </trkpt>
      <trkpt lat="48.72338" lon="1.83913">
        <ele>182.4</ele>
        <time>2023-12-20T12:18:23Z</time>
      </trkpt>
      <trkpt lat="48.7233" lon="1.83917">
        <ele>182.4</ele>
        <time>2023-12-20T12:18:24Z</time>
      </trkpt>
      <trkpt lat="48.72323" lon="1.83922">
        <ele>182.4</ele>
        <time>2023-12-20T12:18:25Z</time>
      </trkpt>
      <trkpt lat="48.72316" lon="1.83925">
        <ele>182.4</ele>
        <time>2023-12-20T12:18:26Z</time>
      </trkpt>
      <trkpt lat="48.72308" lon="1.83929">
        <ele>182.6</ele>
        <time>2023-12-20T12:18:27Z</time>
      </trkpt>
      <trkpt lat="48.72301" lon="1.83933">
        <ele>182.6</ele>
        <time>2023-12-20T12:18:28Z</time>
      </trkpt>
      <trkpt lat="48.72294" lon="1.83936">
        <ele>182.6</ele>
        <time>2023-12-20T12:18:29Z</time>
      </trkpt>
      <trkpt lat="48.72287" lon="1.8394">
        <ele>182.6</ele>
        <time>2023-12-20T12:18:30Z</time>
      </trkpt>
      <trkpt lat="48.7228" lon="1.83944">
        <ele>182.6</ele>
        <time>2023-12-20T12:18:31Z</time>
      </trkpt>
      <trkpt lat="48.72273" lon="1.83947">
        <ele>182.6</ele>
        <time>2023-12-20T12:18:32Z</time>
      </trkpt>
      <trkpt lat="48.72266" lon="1.83951">
        <ele>182.6</ele>
        <time>2023-12-20T12:18:33Z</time>
      </trkpt>
      <trkpt lat="48.72259" lon="1.83954">
        <ele>182.8</ele>
        <time>2023-12-20T12:18:34Z</time>
      </trkpt>
      <trkpt lat="48.72252" lon="1.83958">
        <ele>183.2</ele>
        <time>2023-12-20T12:18:35Z</time>
      </trkpt>
      <trkpt lat="48.72245" lon="1.83962">
        <ele>183.2</ele>
        <time>2023-12-20T12:18:36Z</time>
      </trkpt>
      <trkpt lat="48.72238" lon="1.83966">
        <ele>183.2</ele>
        <time>2023-12-20T12:18:37Z</time>
      </trkpt>
      <trkpt lat="48.72232" lon="1.8397">
        <ele>183.2</ele>
        <time>2023-12-20T12:18:38Z</time>
      </trkpt>
      <trkpt lat="48.72225" lon="1.83974">
        <ele>182.8</ele>
        <time>2023-12-20T12:18:39Z</time>
      </trkpt>
      <trkpt lat="48.72219" lon="1.83979">
        <ele>182.8</ele>
        <time>2023-12-20T12:18:40Z</time>
      </trkpt>
      <trkpt lat="48.72212" lon="1.83984">
        <ele>182.8</ele>
        <time>2023-12-20T12:18:41Z</time>
      </trkpt>
      <trkpt lat="48.72206" lon="1.83989">
        <ele>182.8</ele>
        <time>2023-12-20T12:18:42Z</time>
      </trkpt>
      <trkpt lat="48.722" lon="1.83996">
        <ele>182.6</ele>
        <time>2023-12-20T12:18:43Z</time>
      </trkpt>
      <trkpt lat="48.72194" lon="1.84002">
        <ele>182.6</ele>
        <time>2023-12-20T12:18:44Z</time>
      </trkpt>
      <trkpt lat="48.72188" lon="1.84009">
        <ele>182.6</ele>
        <time>2023-12-20T12:18:45Z</time>
      </trkpt>
      <trkpt lat="48.72182" lon="1.84016">
        <ele>182.6</ele>
        <time>2023-12-20T12:18:46Z</time>
      </trkpt>
      <trkpt lat="48.72176" lon="1.84022">
        <ele>182.6</ele>
        <time>2023-12-20T12:18:47Z</time>
      </trkpt>
      <trkpt lat="48.72171" lon="1.84027">
        <ele>182.6</ele>
        <time>2023-12-20T12:18:48Z</time>
      </trkpt>
      <trkpt lat="48.72166" lon="1.84032">
        <ele>182.6</ele>
        <time>2023-12-20T12:18:49Z</time>
      </trkpt>
      <trkpt lat="48.72161" lon="1.84039">
        <ele>182.6</ele>
        <time>2023-12-20T12:18:50Z</time>
      </trkpt>
      <trkpt lat="48.72156" lon="1.84046">
        <ele>182.2</ele>
        <time>2023-12-20T12:18:51Z</time>
      </trkpt>
      <trkpt lat="48.72152" lon="1.84053">
        <ele>182.2</ele>
        <time>2023-12-20T12:18:52Z</time>
      </trkpt>
      <trkpt lat="48.72147" lon="1.8406">
        <ele>182.2</ele>
        <time>2023-12-20T12:18:53Z</time>
      </trkpt>
      <trkpt lat="48.72142" lon="1.84067">
        <ele>182.2</ele>
        <time>2023-12-20T12:18:54Z</time>
      </trkpt>
      <trkpt lat="48.72138" lon="1.84075">
        <ele>182.2</ele>
        <time>2023-12-20T12:18:55Z</time>
      </trkpt>
      <trkpt lat="48.72134" lon="1.84082">
        <ele>182.2</ele>
        <time>2023-12-20T12:18:56Z</time>
      </trkpt>
      <trkpt lat="48.7213" lon="1.84091">
        <ele>182.2</ele>
        <time>2023-12-20T12:18:57Z</time>
      </trkpt>
      <trkpt lat="48.72126" lon="1.84102">
        <ele>182.6</ele>
        <time>2023-12-20T12:18:58Z</time>
      </trkpt>
      <trkpt lat="48.72122" lon="1.84112">
        <ele>182.6</ele>
        <time>2023-12-20T12:18:59Z</time>
      </trkpt>
      <trkpt lat="48.72118" lon="1.84122">
        <ele>182.6</ele>
        <time>2023-12-20T12:19:00Z</time>
      </trkpt>
      <trkpt lat="48.72114" lon="1.84132">
        <ele>182.6</ele>
        <time>2023-12-20T12:19:01Z</time>
      </trkpt>
      <trkpt lat="48.7211" lon="1.84144">
        <ele>182.6</ele>
        <time>2023-12-20T12:19:02Z</time>
      </trkpt>
      <trkpt lat="48.72106" lon="1.84153">
        <ele>182.4</ele>
        <time>2023-12-20T12:19:03Z</time>
      </trkpt>
      <trkpt lat="48.72102" lon="1.84164">
        <ele>182.4</ele>
        <time>2023-12-20T12:19:04Z</time>
      </trkpt>
      <trkpt lat="48.72098" lon="1.84174">
        <ele>182.4</ele>
        <time>2023-12-20T12:19:05Z</time>
      </trkpt>
      <trkpt lat="48.72094" lon="1.84184">
        <ele>182.8</ele>
        <time>2023-12-20T12:19:06Z</time>
      </trkpt>
      <trkpt lat="48.7209" lon="1.84195">
        <ele>182.6</ele>
        <time>2023-12-20T12:19:07Z</time>
      </trkpt>
      <trkpt lat="48.72086" lon="1.84206">
        <ele>182.6</ele>
        <time>2023-12-20T12:19:08Z</time>
      </trkpt>
      <trkpt lat="48.72082" lon="1.84217">
        <ele>182.6</ele>
        <time>2023-12-20T12:19:09Z</time>
      </trkpt>
      <trkpt lat="48.72078" lon="1.84227">
        <ele>182.6</ele>
        <time>2023-12-20T12:19:10Z</time>
      </trkpt>
      <trkpt lat="48.72075" lon="1.84238">
        <ele>182.2</ele>
        <time>2023-12-20T12:19:11Z</time>
      </trkpt>
      <trkpt lat="48.72071" lon="1.84249">
        <ele>182.2</ele>
        <time>2023-12-20T12:19:12Z</time>
      </trkpt>
      <trkpt lat="48.72067" lon="1.8426">
        <ele>182.2</ele>
        <time>2023-12-20T12:19:13Z</time>
      </trkpt>
      <trkpt lat="48.72063" lon="1.8427">
        <ele>182.2</ele>
        <time>2023-12-20T12:19:14Z</time>
      </trkpt>
      <trkpt lat="48.7206" lon="1.84281">
        <ele>181.6</ele>
        <time>2023-12-20T12:19:15Z</time>
      </trkpt>
      <trkpt lat="48.72056" lon="1.84291">
        <ele>181.6</ele>
        <time>2023-12-20T12:19:16Z</time>
      </trkpt>
      <trkpt lat="48.72052" lon="1.84302">
        <ele>181.6</ele>
        <time>2023-12-20T12:19:17Z</time>
      </trkpt>
      <trkpt lat="48.72048" lon="1.84312">
        <ele>182.2</ele>
        <time>2023-12-20T12:19:18Z</time>
      </trkpt>
      <trkpt lat="48.72045" lon="1.84321">
        <ele>181.8</ele>
        <time>2023-12-20T12:19:19Z</time>
      </trkpt>
      <trkpt lat="48.72041" lon="1.84332">
        <ele>181.8</ele>
        <time>2023-12-20T12:19:20Z</time>
      </trkpt>
      <trkpt lat="48.72037" lon="1.84342">
        <ele>181.8</ele>
        <time>2023-12-20T12:19:21Z</time>
      </trkpt>
      <trkpt lat="48.72033" lon="1.84353">
        <ele>181.8</ele>
        <time>2023-12-20T12:19:22Z</time>
      </trkpt>
      <trkpt lat="48.7203" lon="1.84363">
        <ele>181.6</ele>
        <time>2023-12-20T12:19:23Z</time>
      </trkpt>
      <trkpt lat="48.72026" lon="1.84374">
        <ele>181.6</ele>
        <time>2023-12-20T12:19:24Z</time>
      </trkpt>
      <trkpt lat="48.72022" lon="1.84385">
        <ele>181.6</ele>
        <time>2023-12-20T12:19:25Z</time>
      </trkpt>
      <trkpt lat="48.72018" lon="1.84395">
        <ele>182.2</ele>
        <time>2023-12-20T12:19:26Z</time>
      </trkpt>
      <trkpt lat="48.72015" lon="1.84406">
        <ele>181.8</ele>
        <time>2023-12-20T12:19:27Z</time>
      </trkpt>
      <trkpt lat="48.72011" lon="1.84417">
        <ele>181.8</ele>
        <time>2023-12-20T12:19:28Z</time>
      </trkpt>
      <trkpt lat="48.72007" lon="1.84427">
        <ele>181.8</ele>
        <time>2023-12-20T12:19:29Z</time>
      </trkpt>
      <trkpt lat="48.72003" lon="1.84436">
        <ele>182.2</ele>
        <time>2023-12-20T12:19:30Z</time>
      </trkpt>
      <trkpt lat="48.72" lon="1.84445">
        <ele>181.6</ele>
        <time>2023-12-20T12:19:31Z</time>
      </trkpt>
      <trkpt lat="48.71996" lon="1.84455">
        <ele>181.6</ele>
        <time>2023-12-20T12:19:32Z</time>
      </trkpt>
      <trkpt lat="48.71992" lon="1.84465">
        <ele>181.6</ele>
        <time>2023-12-20T12:19:33Z</time>
      </trkpt>
      <trkpt lat="48.71989" lon="1.84475">
        <ele>181.6</ele>
        <time>2023-12-20T12:19:34Z</time>
      </trkpt>
      <trkpt lat="48.71985" lon="1.84484">
        <ele>181.6</ele>
        <time>2023-12-20T12:19:35Z</time>
      </trkpt>
      <trkpt lat="48.71982" lon="1.84493">
        <ele>181.6</ele>
        <time>2023-12-20T12:19:36Z</time>
      </trkpt>
      <trkpt lat="48.71978" lon="1.84502">
        <ele>181.6</ele>
        <time>2023-12-20T12:19:37Z</time>
      </trkpt>
      <trkpt lat="48.71975" lon="1.84511">
        <ele>181.6</ele>
        <time>2023-12-20T12:19:38Z</time>
      </trkpt>
      <trkpt lat="48.71971" lon="1.84521">
        <ele>182.2</ele>
        <time>2023-12-20T12:19:39Z</time>
      </trkpt>
      <trkpt lat="48.71968" lon="1.8453">
        <ele>182.2</ele>
        <time>2023-12-20T12:19:40Z</time>
      </trkpt>
      <trkpt lat="48.71964" lon="1.84539">
        <ele>182.2</ele>
        <time>2023-12-20T12:19:41Z</time>
      </trkpt>
      <trkpt lat="48.71961" lon="1.84548">
        <ele>183.2</ele>
        <time>2023-12-20T12:19:42Z</time>
      </trkpt>
      <trkpt lat="48.71958" lon="1.84557">
        <ele>183.2</ele>
        <time>2023-12-20T12:19:43Z</time>
      </trkpt>
      <trkpt lat="48.71954" lon="1.84567">
        <ele>183.2</ele>
        <time>2023-12-20T12:19:44Z</time>
      </trkpt>
      <trkpt lat="48.71951" lon="1.84576">
        <ele>183.2</ele>
        <time>2023-12-20T12:19:45Z</time>
      </trkpt>
      <trkpt lat="48.71947" lon="1.84587">
        <ele>183.2</ele>
        <time>2023-12-20T12:19:46Z</time>
      </trkpt>
      <trkpt lat="48.71943" lon="1.84597">
        <ele>182.4</ele>
        <time>2023-12-20T12:19:47Z</time>
      </trkpt>
      <trkpt lat="48.7194" lon="1.84607">
        <ele>182.4</ele>
        <time>2023-12-20T12:19:48Z</time>
      </trkpt>
      <trkpt lat="48.71936" lon="1.84617">
        <ele>182.4</ele>
        <time>2023-12-20T12:19:49Z</time>
      </trkpt>
      <trkpt lat="48.71932" lon="1.84628">
        <ele>182.4</ele>
        <time>2023-12-20T12:19:50Z</time>
      </trkpt>
      <trkpt lat="48.71928" lon="1.84638">
        <ele>182</ele>
        <time>2023-12-20T12:19:51Z</time>
      </trkpt>
      <trkpt lat="48.71924" lon="1.84649">
        <ele>182</ele>
        <time>2023-12-20T12:19:52Z</time>
      </trkpt>
      <trkpt lat="48.7192" lon="1.8466">
        <ele>182</ele>
        <time>2023-12-20T12:19:53Z</time>
      </trkpt>
      <trkpt lat="48.71916" lon="1.8467">
        <ele>181.8</ele>
        <time>2023-12-20T12:19:54Z</time>
      </trkpt>
      <trkpt lat="48.71912" lon="1.84681">
        <ele>181.8</ele>
        <time>2023-12-20T12:19:55Z</time>
      </trkpt>
      <trkpt lat="48.71908" lon="1.84692">
        <ele>181.8</ele>
        <time>2023-12-20T12:19:56Z</time>
      </trkpt>
      <trkpt lat="48.71904" lon="1.84703">
        <ele>181.8</ele>
        <time>2023-12-20T12:19:57Z</time>
      </trkpt>
      <trkpt lat="48.719" lon="1.84713">
        <ele>181.8</ele>
        <time>2023-12-20T12:19:58Z</time>
      </trkpt>
      <trkpt lat="48.71895" lon="1.84724">
        <ele>180.8</ele>
        <time>2023-12-20T12:19:59Z</time>
      </trkpt>
      <trkpt lat="48.71891" lon="1.84734">
        <ele>180.8</ele>
        <time>2023-12-20T12:20:00Z</time>
      </trkpt>
      <trkpt lat="48.71887" lon="1.84745">
        <ele>180.8</ele>
        <time>2023-12-20T12:20:01Z</time>
      </trkpt>
      <trkpt lat="48.71883" lon="1.84756">
        <ele>180.8</ele>
        <time>2023-12-20T12:20:02Z</time>
      </trkpt>
      <trkpt lat="48.71879" lon="1.84767">
        <ele>181.2</ele>
        <time>2023-12-20T12:20:03Z</time>
      </trkpt>
      <trkpt lat="48.71875" lon="1.84777">
        <ele>181.2</ele>
        <time>2023-12-20T12:20:04Z</time>
      </trkpt>
      <trkpt lat="48.71871" lon="1.84789">
        <ele>181.2</ele>
        <time>2023-12-20T12:20:05Z</time>
      </trkpt>
      <trkpt lat="48.71867" lon="1.848">
        <ele>181.2</ele>
        <time>2023-12-20T12:20:06Z</time>
      </trkpt>
      <trkpt lat="48.71863" lon="1.8481">
        <ele>181</ele>
        <time>2023-12-20T12:20:07Z</time>
      </trkpt>
      <trkpt lat="48.71859" lon="1.84821">
        <ele>181</ele>
        <time>2023-12-20T12:20:08Z</time>
      </trkpt>
      <trkpt lat="48.71855" lon="1.84832">
        <ele>181</ele>
        <time>2023-12-20T12:20:09Z</time>
      </trkpt>
      <trkpt lat="48.71851" lon="1.84843">
        <ele>180.4</ele>
        <time>2023-12-20T12:20:10Z</time>
      </trkpt>
      <trkpt lat="48.71846" lon="1.84854">
        <ele>180.2</ele>
        <time>2023-12-20T12:20:11Z</time>
      </trkpt>
      <trkpt lat="48.71841" lon="1.84864">
        <ele>180.2</ele>
        <time>2023-12-20T12:20:12Z</time>
      </trkpt>
      <trkpt lat="48.71835" lon="1.84872">
        <ele>180.2</ele>
        <time>2023-12-20T12:20:13Z</time>
      </trkpt>
      <trkpt lat="48.71829" lon="1.8488">
        <ele>179.2</ele>
        <time>2023-12-20T12:20:14Z</time>
      </trkpt>
      <trkpt lat="48.71823" lon="1.84886">
        <ele>179.2</ele>
        <time>2023-12-20T12:20:15Z</time>
      </trkpt>
      <trkpt lat="48.71816" lon="1.84894">
        <ele>179.2</ele>
        <time>2023-12-20T12:20:16Z</time>
      </trkpt>
      <trkpt lat="48.71809" lon="1.84902">
        <ele>179.2</ele>
        <time>2023-12-20T12:20:17Z</time>
      </trkpt>
      <trkpt lat="48.71802" lon="1.8491">
        <ele>179.2</ele>
        <time>2023-12-20T12:20:18Z</time>
      </trkpt>
      <trkpt lat="48.71795" lon="1.84918">
        <ele>180</ele>
        <time>2023-12-20T12:20:19Z</time>
      </trkpt>
      <trkpt lat="48.71787" lon="1.84926">
        <ele>180</ele>
        <time>2023-12-20T12:20:20Z</time>
      </trkpt>
      <trkpt lat="48.7178" lon="1.84933">
        <ele>180</ele>
        <time>2023-12-20T12:20:21Z</time>
      </trkpt>
      <trkpt lat="48.71773" lon="1.8494">
        <ele>179.6</ele>
        <time>2023-12-20T12:20:22Z</time>
      </trkpt>
      <trkpt lat="48.71766" lon="1.84946">
        <ele>180</ele>
        <time>2023-12-20T12:20:23Z</time>
      </trkpt>
      <trkpt lat="48.71759" lon="1.84953">
        <ele>180</ele>
        <time>2023-12-20T12:20:24Z</time>
      </trkpt>
      <trkpt lat="48.71752" lon="1.84959">
        <ele>180</ele>
        <time>2023-12-20T12:20:25Z</time>
      </trkpt>
      <trkpt lat="48.71745" lon="1.84965">
        <ele>180</ele>
        <time>2023-12-20T12:20:26Z</time>
      </trkpt>
      <trkpt lat="48.71739" lon="1.8497">
        <ele>179.8</ele>
        <time>2023-12-20T12:20:27Z</time>
      </trkpt>
      <trkpt lat="48.71732" lon="1.84976">
        <ele>179.8</ele>
        <time>2023-12-20T12:20:28Z</time>
      </trkpt>
      <trkpt lat="48.71725" lon="1.84982">
        <ele>179.8</ele>
        <time>2023-12-20T12:20:29Z</time>
      </trkpt>
      <trkpt lat="48.71718" lon="1.84987">
        <ele>179.8</ele>
        <time>2023-12-20T12:20:30Z</time>
      </trkpt>
      <trkpt lat="48.71711" lon="1.84993">
        <ele>180.6</ele>
        <time>2023-12-20T12:20:31Z</time>
      </trkpt>
      <trkpt lat="48.71704" lon="1.84998">
        <ele>180.6</ele>
        <time>2023-12-20T12:20:32Z</time>
      </trkpt>
      <trkpt lat="48.71697" lon="1.85004">
        <ele>180.6</ele>
        <time>2023-12-20T12:20:33Z</time>
      </trkpt>
      <trkpt lat="48.7169" lon="1.8501">
        <ele>179.8</ele>
        <time>2023-12-20T12:20:34Z</time>
      </trkpt>
      <trkpt lat="48.71683" lon="1.85015">
        <ele>179.2</ele>
        <time>2023-12-20T12:20:35Z</time>
      </trkpt>
      <trkpt lat="48.71677" lon="1.8502">
        <ele>179.2</ele>
        <time>2023-12-20T12:20:36Z</time>
      </trkpt>
      <trkpt lat="48.7167" lon="1.85025">
        <ele>179.2</ele>
        <time>2023-12-20T12:20:37Z</time>
      </trkpt>
      <trkpt lat="48.71663" lon="1.8503">
        <ele>179.2</ele>
        <time>2023-12-20T12:20:38Z</time>
      </trkpt>
      <trkpt lat="48.71656" lon="1.85035">
        <ele>179.4</ele>
        <time>2023-12-20T12:20:39Z</time>
      </trkpt>
      <trkpt lat="48.7165" lon="1.8504">
        <ele>179.4</ele>
        <time>2023-12-20T12:20:40Z</time>
      </trkpt>
      <trkpt lat="48.71643" lon="1.85044">
        <ele>179.4</ele>
        <time>2023-12-20T12:20:41Z</time>
      </trkpt>
      <trkpt lat="48.71636" lon="1.85049">
        <ele>179.2</ele>
        <time>2023-12-20T12:20:42Z</time>
      </trkpt>
      <trkpt lat="48.71629" lon="1.85054">
        <ele>180.2</ele>
        <time>2023-12-20T12:20:43Z</time>
      </trkpt>
      <trkpt lat="48.71622" lon="1.85059">
        <ele>180.2</ele>
        <time>2023-12-20T12:20:44Z</time>
      </trkpt>
      <trkpt lat="48.71616" lon="1.85063">
        <ele>180.2</ele>
        <time>2023-12-20T12:20:45Z</time>
      </trkpt>
      <trkpt lat="48.71609" lon="1.85067">
        <ele>179.2</ele>
        <time>2023-12-20T12:20:46Z</time>
      </trkpt>
      <trkpt lat="48.71603" lon="1.85072">
        <ele>178.8</ele>
        <time>2023-12-20T12:20:47Z</time>
      </trkpt>
      <trkpt lat="48.71596" lon="1.85077">
        <ele>178.8</ele>
        <time>2023-12-20T12:20:48Z</time>
      </trkpt>
      <trkpt lat="48.71589" lon="1.85083">
        <ele>178.8</ele>
        <time>2023-12-20T12:20:49Z</time>
      </trkpt>
      <trkpt lat="48.71583" lon="1.8509">
        <ele>179.8</ele>
        <time>2023-12-20T12:20:50Z</time>
      </trkpt>
      <trkpt lat="48.71577" lon="1.85098">
        <ele>180</ele>
        <time>2023-12-20T12:20:51Z</time>
      </trkpt>
      <trkpt lat="48.71572" lon="1.85107">
        <ele>180</ele>
        <time>2023-12-20T12:20:52Z</time>
      </trkpt>
      <trkpt lat="48.71566" lon="1.85118">
        <ele>180</ele>
        <time>2023-12-20T12:20:53Z</time>
      </trkpt>
      <trkpt lat="48.71562" lon="1.85128">
        <ele>180</ele>
        <time>2023-12-20T12:20:54Z</time>
      </trkpt>
      <trkpt lat="48.71558" lon="1.8514">
        <ele>178.8</ele>
        <time>2023-12-20T12:20:55Z</time>
      </trkpt>
      <trkpt lat="48.71554" lon="1.85151">
        <ele>178.8</ele>
        <time>2023-12-20T12:20:56Z</time>
      </trkpt>
      <trkpt lat="48.71551" lon="1.85163">
        <ele>178.8</ele>
        <time>2023-12-20T12:20:57Z</time>
      </trkpt>
      <trkpt lat="48.71549" lon="1.85176">
        <ele>178.8</ele>
        <time>2023-12-20T12:20:58Z</time>
      </trkpt>
      <trkpt lat="48.71546" lon="1.85186">
        <ele>179.8</ele>
        <time>2023-12-20T12:20:59Z</time>
      </trkpt>
      <trkpt lat="48.71543" lon="1.85197">
        <ele>179.8</ele>
        <time>2023-12-20T12:21:00Z</time>
      </trkpt>
      <trkpt lat="48.7154" lon="1.85207">
        <ele>179.8</ele>
        <time>2023-12-20T12:21:01Z</time>
      </trkpt>
      <trkpt lat="48.71538" lon="1.85218">
        <ele>179.8</ele>
        <time>2023-12-20T12:21:02Z</time>
      </trkpt>
      <trkpt lat="48.71535" lon="1.85228">
        <ele>180.2</ele>
        <time>2023-12-20T12:21:03Z</time>
      </trkpt>
      <trkpt lat="48.71533" lon="1.85238">
        <ele>180.2</ele>
        <time>2023-12-20T12:21:04Z</time>
      </trkpt>
      <trkpt lat="48.7153" lon="1.85247">
        <ele>180.2</ele>
        <time>2023-12-20T12:21:05Z</time>
      </trkpt>
      <trkpt lat="48.71528" lon="1.85256">
        <ele>180.2</ele>
        <time>2023-12-20T12:21:06Z</time>
      </trkpt>
      <trkpt lat="48.71526" lon="1.85265">
        <ele>180.4</ele>
        <time>2023-12-20T12:21:07Z</time>
      </trkpt>
      <trkpt lat="48.71523" lon="1.85275">
        <ele>180.4</ele>
        <time>2023-12-20T12:21:08Z</time>
      </trkpt>
      <trkpt lat="48.71521" lon="1.85284">
        <ele>180.4</ele>
        <time>2023-12-20T12:21:09Z</time>
      </trkpt>
      <trkpt lat="48.71518" lon="1.85294">
        <ele>180.4</ele>
        <time>2023-12-20T12:21:10Z</time>
      </trkpt>
      <trkpt lat="48.71516" lon="1.85304">
        <ele>180.8</ele>
        <time>2023-12-20T12:21:11Z</time>
      </trkpt>
      <trkpt lat="48.71513" lon="1.85313">
        <ele>180.8</ele>
        <time>2023-12-20T12:21:12Z</time>
      </trkpt>
      <trkpt lat="48.7151" lon="1.85323">
        <ele>180.8</ele>
        <time>2023-12-20T12:21:13Z</time>
      </trkpt>
      <trkpt lat="48.71508" lon="1.85333">
        <ele>180.8</ele>
        <time>2023-12-20T12:21:14Z</time>
      </trkpt>
      <trkpt lat="48.71505" lon="1.85342">
        <ele>180.6</ele>
        <time>2023-12-20T12:21:15Z</time>
      </trkpt>
      <trkpt lat="48.71503" lon="1.85352">
        <ele>180.6</ele>
        <time>2023-12-20T12:21:16Z</time>
      </trkpt>
      <trkpt lat="48.715" lon="1.85362">
        <ele>180.6</ele>
        <time>2023-12-20T12:21:17Z</time>
      </trkpt>
      <trkpt lat="48.71498" lon="1.85371">
        <ele>180.6</ele>
        <time>2023-12-20T12:21:18Z</time>
      </trkpt>
      <trkpt lat="48.71495" lon="1.85381">
        <ele>181.2</ele>
        <time>2023-12-20T12:21:19Z</time>
      </trkpt>
      <trkpt lat="48.71492" lon="1.85391">
        <ele>181.2</ele>
        <time>2023-12-20T12:21:20Z</time>
      </trkpt>
      <trkpt lat="48.71489" lon="1.85401">
        <ele>181.2</ele>
        <time>2023-12-20T12:21:21Z</time>
      </trkpt>
      <trkpt lat="48.71487" lon="1.85411">
        <ele>180.4</ele>
        <time>2023-12-20T12:21:22Z</time>
      </trkpt>
      <trkpt lat="48.71484" lon="1.85421">
        <ele>180</ele>
        <time>2023-12-20T12:21:23Z</time>
      </trkpt>
      <trkpt lat="48.71481" lon="1.85431">
        <ele>180</ele>
        <time>2023-12-20T12:21:24Z</time>
      </trkpt>
      <trkpt lat="48.71479" lon="1.85441">
        <ele>180</ele>
        <time>2023-12-20T12:21:25Z</time>
      </trkpt>
      <trkpt lat="48.71476" lon="1.85451">
        <ele>180</ele>
        <time>2023-12-20T12:21:26Z</time>
      </trkpt>
      <trkpt lat="48.71473" lon="1.85462">
        <ele>180.2</ele>
        <time>2023-12-20T12:21:27Z</time>
      </trkpt>
      <trkpt lat="48.7147" lon="1.85472">
        <ele>180.2</ele>
        <time>2023-12-20T12:21:28Z</time>
      </trkpt>
      <trkpt lat="48.71468" lon="1.85482">
        <ele>180.2</ele>
        <time>2023-12-20T12:21:29Z</time>
      </trkpt>
      <trkpt lat="48.71465" lon="1.85491">
        <ele>180.2</ele>
        <time>2023-12-20T12:21:30Z</time>
      </trkpt>
      <trkpt lat="48.71462" lon="1.85501">
        <ele>179.6</ele>
        <time>2023-12-20T12:21:31Z</time>
      </trkpt>
      <trkpt lat="48.71459" lon="1.85512">
        <ele>179.6</ele>
        <time>2023-12-20T12:21:32Z</time>
      </trkpt>
      <trkpt lat="48.71457" lon="1.85522">
        <ele>179.6</ele>
        <time>2023-12-20T12:21:33Z</time>
      </trkpt>
      <trkpt lat="48.71454" lon="1.85532">
        <ele>180.6</ele>
        <time>2023-12-20T12:21:34Z</time>
      </trkpt>
      <trkpt lat="48.71451" lon="1.85542">
        <ele>180.8</ele>
        <time>2023-12-20T12:21:35Z</time>
      </trkpt>
      <trkpt lat="48.71448" lon="1.85552">
        <ele>180.8</ele>
        <time>2023-12-20T12:21:36Z</time>
      </trkpt>
      <trkpt lat="48.71446" lon="1.85562">
        <ele>180.8</ele>
        <time>2023-12-20T12:21:37Z</time>
      </trkpt>
      <trkpt lat="48.71443" lon="1.85572">
        <ele>180.6</ele>
        <time>2023-12-20T12:21:38Z</time>
      </trkpt>
      <trkpt lat="48.7144" lon="1.85582">
        <ele>180.8</ele>
        <time>2023-12-20T12:21:39Z</time>
      </trkpt>
      <trkpt lat="48.71438" lon="1.85592">
        <ele>180.8</ele>
        <time>2023-12-20T12:21:40Z</time>
      </trkpt>
      <trkpt lat="48.71435" lon="1.85601">
        <ele>180.8</ele>
        <time>2023-12-20T12:21:41Z</time>
      </trkpt>
      <trkpt lat="48.71433" lon="1.85611">
        <ele>180.8</ele>
        <time>2023-12-20T12:21:42Z</time>
      </trkpt>
      <trkpt lat="48.7143" lon="1.85621">
        <ele>181.2</ele>
        <time>2023-12-20T12:21:43Z</time>
      </trkpt>
      <trkpt lat="48.71427" lon="1.85631">
        <ele>181.2</ele>
        <time>2023-12-20T12:21:44Z</time>
      </trkpt>
      <trkpt lat="48.71425" lon="1.85641">
        <ele>181.2</ele>
        <time>2023-12-20T12:21:45Z</time>
      </trkpt>
      <trkpt lat="48.71422" lon="1.85651">
        <ele>181.2</ele>
        <time>2023-12-20T12:21:46Z</time>
      </trkpt>
      <trkpt lat="48.71419" lon="1.85661">
        <ele>181.2</ele>
        <time>2023-12-20T12:21:47Z</time>
      </trkpt>
      <trkpt lat="48.71416" lon="1.85671">
        <ele>181.2</ele>
        <time>2023-12-20T12:21:48Z</time>
      </trkpt>
      <trkpt lat="48.71414" lon="1.85681">
        <ele>181.2</ele>
        <time>2023-12-20T12:21:49Z</time>
      </trkpt>
      <trkpt lat="48.71411" lon="1.85692">
        <ele>180.8</ele>
        <time>2023-12-20T12:21:50Z</time>
      </trkpt>
      <trkpt lat="48.71409" lon="1.85702">
        <ele>181</ele>
        <time>2023-12-20T12:21:51Z</time>
      </trkpt>
      <trkpt lat="48.71406" lon="1.85712">
        <ele>181</ele>
        <time>2023-12-20T12:21:52Z</time>
      </trkpt>
      <trkpt lat="48.71403" lon="1.85721">
        <ele>181</ele>
        <time>2023-12-20T12:21:53Z</time>
      </trkpt>
      <trkpt lat="48.714" lon="1.85731">
        <ele>181.2</ele>
        <time>2023-12-20T12:21:54Z</time>
      </trkpt>
      <trkpt lat="48.71398" lon="1.85741">
        <ele>181.4</ele>
        <time>2023-12-20T12:21:55Z</time>
      </trkpt>
      <trkpt lat="48.71395" lon="1.85752">
        <ele>181.4</ele>
        <time>2023-12-20T12:21:56Z</time>
      </trkpt>
      <trkpt lat="48.71392" lon="1.85762">
        <ele>181.4</ele>
        <time>2023-12-20T12:21:57Z</time>
      </trkpt>
      <trkpt lat="48.71389" lon="1.85772">
        <ele>180.8</ele>
        <time>2023-12-20T12:21:58Z</time>
      </trkpt>
      <trkpt lat="48.71387" lon="1.85782">
        <ele>181</ele>
        <time>2023-12-20T12:21:59Z</time>
      </trkpt>
      <trkpt lat="48.71384" lon="1.85792">
        <ele>181</ele>
        <time>2023-12-20T12:22:00Z</time>
      </trkpt>
      <trkpt lat="48.71381" lon="1.85803">
        <ele>181</ele>
        <time>2023-12-20T12:22:01Z</time>
      </trkpt>
      <trkpt lat="48.71379" lon="1.85813">
        <ele>181.2</ele>
        <time>2023-12-20T12:22:02Z</time>
      </trkpt>
      <trkpt lat="48.71376" lon="1.85823">
        <ele>181.6</ele>
        <time>2023-12-20T12:22:03Z</time>
      </trkpt>
      <trkpt lat="48.71373" lon="1.85833">
        <ele>181.6</ele>
        <time>2023-12-20T12:22:04Z</time>
      </trkpt>
      <trkpt lat="48.7137" lon="1.85843">
        <ele>181.6</ele>
        <time>2023-12-20T12:22:05Z</time>
      </trkpt>
      <trkpt lat="48.71367" lon="1.85853">
        <ele>181.6</ele>
        <time>2023-12-20T12:22:06Z</time>
      </trkpt>
      <trkpt lat="48.71365" lon="1.85863">
        <ele>180.8</ele>
        <time>2023-12-20T12:22:07Z</time>
      </trkpt>
      <trkpt lat="48.71362" lon="1.85873">
        <ele>180.8</ele>
        <time>2023-12-20T12:22:08Z</time>
      </trkpt>
      <trkpt lat="48.71359" lon="1.85883">
        <ele>180.8</ele>
        <time>2023-12-20T12:22:09Z</time>
      </trkpt>
      <trkpt lat="48.71357" lon="1.85893">
        <ele>180.8</ele>
        <time>2023-12-20T12:22:10Z</time>
      </trkpt>
      <trkpt lat="48.71354" lon="1.85904">
        <ele>181</ele>
        <time>2023-12-20T12:22:11Z</time>
      </trkpt>
      <trkpt lat="48.71351" lon="1.85914">
        <ele>181</ele>
        <time>2023-12-20T12:22:12Z</time>
      </trkpt>
      <trkpt lat="48.71348" lon="1.85924">
        <ele>181</ele>
        <time>2023-12-20T12:22:13Z</time>
      </trkpt>
      <trkpt lat="48.71345" lon="1.85935">
        <ele>181</ele>
        <time>2023-12-20T12:22:14Z</time>
      </trkpt>
      <trkpt lat="48.71343" lon="1.85945">
        <ele>181</ele>
        <time>2023-12-20T12:22:15Z</time>
      </trkpt>
      <trkpt lat="48.7134" lon="1.85955">
        <ele>181</ele>
        <time>2023-12-20T12:22:16Z</time>
      </trkpt>
      <trkpt lat="48.71337" lon="1.85965">
        <ele>181</ele>
        <time>2023-12-20T12:22:17Z</time>
      </trkpt>
      <trkpt lat="48.71334" lon="1.85975">
        <ele>180.6</ele>
        <time>2023-12-20T12:22:18Z</time>
      </trkpt>
      <trkpt lat="48.71331" lon="1.85986">
        <ele>180.8</ele>
        <time>2023-12-20T12:22:19Z</time>
      </trkpt>
      <trkpt lat="48.71328" lon="1.85996">
        <ele>180.8</ele>
        <time>2023-12-20T12:22:20Z</time>
      </trkpt>
      <trkpt lat="48.71325" lon="1.86006">
        <ele>180.8</ele>
        <time>2023-12-20T12:22:21Z</time>
      </trkpt>
      <trkpt lat="48.71322" lon="1.86016">
        <ele>180.8</ele>
        <time>2023-12-20T12:22:22Z</time>
      </trkpt>
      <trkpt lat="48.71318" lon="1.86026">
        <ele>180.8</ele>
        <time>2023-12-20T12:22:23Z</time>
      </trkpt>
      <trkpt lat="48.71315" lon="1.86037">
        <ele>180.8</ele>
        <time>2023-12-20T12:22:24Z</time>
      </trkpt>
      <trkpt lat="48.71312" lon="1.86047">
        <ele>180.8</ele>
        <time>2023-12-20T12:22:25Z</time>
      </trkpt>
      <trkpt lat="48.71309" lon="1.86058">
        <ele>180.8</ele>
        <time>2023-12-20T12:22:26Z</time>
      </trkpt>
      <trkpt lat="48.71306" lon="1.86068">
        <ele>180.2</ele>
        <time>2023-12-20T12:22:27Z</time>
      </trkpt>
      <trkpt lat="48.71303" lon="1.86078">
        <ele>180.2</ele>
        <time>2023-12-20T12:22:28Z</time>
      </trkpt>
      <trkpt lat="48.713" lon="1.86089">
        <ele>180.2</ele>
        <time>2023-12-20T12:22:29Z</time>
      </trkpt>
      <trkpt lat="48.71298" lon="1.86099">
        <ele>180.2</ele>
        <time>2023-12-20T12:22:30Z</time>
      </trkpt>
      <trkpt lat="48.71295" lon="1.86109">
        <ele>180.2</ele>
        <time>2023-12-20T12:22:31Z</time>
      </trkpt>
      <trkpt lat="48.71292" lon="1.8612">
        <ele>180.2</ele>
        <time>2023-12-20T12:22:32Z</time>
      </trkpt>
      <trkpt lat="48.71289" lon="1.86131">
        <ele>180.2</ele>
        <time>2023-12-20T12:22:33Z</time>
      </trkpt>
      <trkpt lat="48.71286" lon="1.86141">
        <ele>180.2</ele>
        <time>2023-12-20T12:22:34Z</time>
      </trkpt>
      <trkpt lat="48.71284" lon="1.86152">
        <ele>180.2</ele>
        <time>2023-12-20T12:22:35Z</time>
      </trkpt>
      <trkpt lat="48.71281" lon="1.86163">
        <ele>180.2</ele>
        <time>2023-12-20T12:22:36Z</time>
      </trkpt>
      <trkpt lat="48.71278" lon="1.86174">
        <ele>180.2</ele>
        <time>2023-12-20T12:22:37Z</time>
      </trkpt>
      <trkpt lat="48.71276" lon="1.86184">
        <ele>180.2</ele>
        <time>2023-12-20T12:22:38Z</time>
      </trkpt>
      <trkpt lat="48.71274" lon="1.86195">
        <ele>180.2</ele>
        <time>2023-12-20T12:22:39Z</time>
      </trkpt>
      <trkpt lat="48.71271" lon="1.86206">
        <ele>180.2</ele>
        <time>2023-12-20T12:22:40Z</time>
      </trkpt>
      <trkpt lat="48.71269" lon="1.86217">
        <ele>180.2</ele>
        <time>2023-12-20T12:22:41Z</time>
      </trkpt>
      <trkpt lat="48.71266" lon="1.86227">
        <ele>180.2</ele>
        <time>2023-12-20T12:22:42Z</time>
      </trkpt>
      <trkpt lat="48.71263" lon="1.86238">
        <ele>180</ele>
        <time>2023-12-20T12:22:43Z</time>
      </trkpt>
      <trkpt lat="48.7126" lon="1.86249">
        <ele>180</ele>
        <time>2023-12-20T12:22:44Z</time>
      </trkpt>
      <trkpt lat="48.71257" lon="1.86259">
        <ele>180</ele>
        <time>2023-12-20T12:22:45Z</time>
      </trkpt>
      <trkpt lat="48.71254" lon="1.8627">
        <ele>180.6</ele>
        <time>2023-12-20T12:22:46Z</time>
      </trkpt>
      <trkpt lat="48.71251" lon="1.86281">
        <ele>180</ele>
        <time>2023-12-20T12:22:47Z</time>
      </trkpt>
      <trkpt lat="48.71249" lon="1.86292">
        <ele>180</ele>
        <time>2023-12-20T12:22:48Z</time>
      </trkpt>
      <trkpt lat="48.71246" lon="1.86303">
        <ele>180</ele>
        <time>2023-12-20T12:22:49Z</time>
      </trkpt>
      <trkpt lat="48.71243" lon="1.86313">
        <ele>180</ele>
        <time>2023-12-20T12:22:50Z</time>
      </trkpt>
      <trkpt lat="48.7124" lon="1.86324">
        <ele>179.8</ele>
        <time>2023-12-20T12:22:51Z</time>
      </trkpt>
      <trkpt lat="48.71237" lon="1.86335">
        <ele>179.8</ele>
        <time>2023-12-20T12:22:52Z</time>
      </trkpt>
      <trkpt lat="48.71234" lon="1.86346">
        <ele>179.8</ele>
        <time>2023-12-20T12:22:53Z</time>
      </trkpt>
      <trkpt lat="48.71231" lon="1.86356">
        <ele>179.8</ele>
        <time>2023-12-20T12:22:54Z</time>
      </trkpt>
      <trkpt lat="48.71228" lon="1.86367">
        <ele>180.2</ele>
        <time>2023-12-20T12:22:55Z</time>
      </trkpt>
      <trkpt lat="48.71225" lon="1.86377">
        <ele>180.2</ele>
        <time>2023-12-20T12:22:56Z</time>
      </trkpt>
      <trkpt lat="48.71222" lon="1.86388">
        <ele>180.2</ele>
        <time>2023-12-20T12:22:57Z</time>
      </trkpt>
      <trkpt lat="48.7122" lon="1.86399">
        <ele>180.2</ele>
        <time>2023-12-20T12:22:58Z</time>
      </trkpt>
      <trkpt lat="48.71217" lon="1.86409">
        <ele>180.2</ele>
        <time>2023-12-20T12:22:59Z</time>
      </trkpt>
      <trkpt lat="48.71214" lon="1.8642">
        <ele>180.2</ele>
        <time>2023-12-20T12:23:00Z</time>
      </trkpt>
      <trkpt lat="48.71211" lon="1.8643">
        <ele>180.2</ele>
        <time>2023-12-20T12:23:01Z</time>
      </trkpt>
      <trkpt lat="48.71208" lon="1.86441">
        <ele>179.6</ele>
        <time>2023-12-20T12:23:02Z</time>
      </trkpt>
      <trkpt lat="48.71205" lon="1.86452">
        <ele>179.8</ele>
        <time>2023-12-20T12:23:03Z</time>
      </trkpt>
      <trkpt lat="48.71202" lon="1.86463">
        <ele>179.8</ele>
        <time>2023-12-20T12:23:04Z</time>
      </trkpt>
      <trkpt lat="48.71199" lon="1.86473">
        <ele>179.8</ele>
        <time>2023-12-20T12:23:05Z</time>
      </trkpt>
      <trkpt lat="48.71196" lon="1.86484">
        <ele>179.8</ele>
        <time>2023-12-20T12:23:06Z</time>
      </trkpt>
      <trkpt lat="48.71193" lon="1.86494">
        <ele>180.8</ele>
        <time>2023-12-20T12:23:07Z</time>
      </trkpt>
      <trkpt lat="48.71191" lon="1.86504">
        <ele>180.8</ele>
        <time>2023-12-20T12:23:08Z</time>
      </trkpt>
      <trkpt lat="48.71188" lon="1.86515">
        <ele>180.8</ele>
        <time>2023-12-20T12:23:09Z</time>
      </trkpt>
      <trkpt lat="48.71185" lon="1.86525">
        <ele>180</ele>
        <time>2023-12-20T12:23:10Z</time>
      </trkpt>
      <trkpt lat="48.71182" lon="1.86536">
        <ele>180.6</ele>
        <time>2023-12-20T12:23:11Z</time>
      </trkpt>
      <trkpt lat="48.71179" lon="1.86547">
        <ele>180.6</ele>
        <time>2023-12-20T12:23:12Z</time>
      </trkpt>
      <trkpt lat="48.71176" lon="1.86557">
        <ele>180.6</ele>
        <time>2023-12-20T12:23:13Z</time>
      </trkpt>
      <trkpt lat="48.71173" lon="1.86568">
        <ele>180.6</ele>
        <time>2023-12-20T12:23:14Z</time>
      </trkpt>
      <trkpt lat="48.71169" lon="1.86579">
        <ele>180.6</ele>
        <time>2023-12-20T12:23:15Z</time>
      </trkpt>
      <trkpt lat="48.71166" lon="1.8659">
        <ele>180.6</ele>
        <time>2023-12-20T12:23:16Z</time>
      </trkpt>
      <trkpt lat="48.71163" lon="1.866">
        <ele>180.6</ele>
        <time>2023-12-20T12:23:17Z</time>
      </trkpt>
      <trkpt lat="48.7116" lon="1.86611">
        <ele>180.6</ele>
        <time>2023-12-20T12:23:18Z</time>
      </trkpt>
      <trkpt lat="48.71156" lon="1.86622">
        <ele>179.4</ele>
        <time>2023-12-20T12:23:19Z</time>
      </trkpt>
      <trkpt lat="48.71153" lon="1.86633">
        <ele>179.4</ele>
        <time>2023-12-20T12:23:20Z</time>
      </trkpt>
      <trkpt lat="48.7115" lon="1.86645">
        <ele>179.4</ele>
        <time>2023-12-20T12:23:21Z</time>
      </trkpt>
      <trkpt lat="48.71147" lon="1.86656">
        <ele>179.8</ele>
        <time>2023-12-20T12:23:22Z</time>
      </trkpt>
      <trkpt lat="48.71144" lon="1.86667">
        <ele>180.2</ele>
        <time>2023-12-20T12:23:23Z</time>
      </trkpt>
      <trkpt lat="48.7114" lon="1.86678">
        <ele>180.2</ele>
        <time>2023-12-20T12:23:24Z</time>
      </trkpt>
      <trkpt lat="48.71137" lon="1.8669">
        <ele>180.2</ele>
        <time>2023-12-20T12:23:25Z</time>
      </trkpt>
      <trkpt lat="48.71134" lon="1.86701">
        <ele>180.2</ele>
        <time>2023-12-20T12:23:26Z</time>
      </trkpt>
      <trkpt lat="48.71131" lon="1.86712">
        <ele>178.2</ele>
        <time>2023-12-20T12:23:27Z</time>
      </trkpt>
      <trkpt lat="48.71128" lon="1.86723">
        <ele>178.2</ele>
        <time>2023-12-20T12:23:28Z</time>
      </trkpt>
      <trkpt lat="48.71125" lon="1.86735">
        <ele>178.2</ele>
        <time>2023-12-20T12:23:29Z</time>
      </trkpt>
      <trkpt lat="48.71122" lon="1.86746">
        <ele>178.2</ele>
        <time>2023-12-20T12:23:30Z</time>
      </trkpt>
      <trkpt lat="48.71119" lon="1.86757">
        <ele>178.2</ele>
        <time>2023-12-20T12:23:31Z</time>
      </trkpt>
      <trkpt lat="48.71117" lon="1.86768">
        <ele>178.2</ele>
        <time>2023-12-20T12:23:32Z</time>
      </trkpt>
      <trkpt lat="48.71114" lon="1.86779">
        <ele>178.2</ele>
        <time>2023-12-20T12:23:33Z</time>
      </trkpt>
      <trkpt lat="48.71111" lon="1.8679">
        <ele>178.8</ele>
        <time>2023-12-20T12:23:34Z</time>
      </trkpt>
      <trkpt lat="48.71109" lon="1.86801">
        <ele>179</ele>
        <time>2023-12-20T12:23:35Z</time>
      </trkpt>
      <trkpt lat="48.71106" lon="1.86812">
        <ele>179</ele>
        <time>2023-12-20T12:23:36Z</time>
      </trkpt>
      <trkpt lat="48.71104" lon="1.86822">
        <ele>179</ele>
        <time>2023-12-20T12:23:37Z</time>
      </trkpt>
      <trkpt lat="48.71101" lon="1.86833">
        <ele>179.8</ele>
        <time>2023-12-20T12:23:38Z</time>
      </trkpt>
      <trkpt lat="48.71098" lon="1.86843">
        <ele>180.2</ele>
        <time>2023-12-20T12:23:39Z</time>
      </trkpt>
      <trkpt lat="48.71096" lon="1.86853">
        <ele>180.2</ele>
        <time>2023-12-20T12:23:40Z</time>
      </trkpt>
      <trkpt lat="48.71093" lon="1.86863">
        <ele>180.2</ele>
        <time>2023-12-20T12:23:41Z</time>
      </trkpt>
      <trkpt lat="48.71091" lon="1.86873">
        <ele>180.2</ele>
        <time>2023-12-20T12:23:42Z</time>
      </trkpt>
      <trkpt lat="48.71088" lon="1.86884">
        <ele>180.4</ele>
        <time>2023-12-20T12:23:43Z</time>
      </trkpt>
      <trkpt lat="48.71085" lon="1.86895">
        <ele>180.4</ele>
        <time>2023-12-20T12:23:44Z</time>
      </trkpt>
      <trkpt lat="48.71082" lon="1.86905">
        <ele>180.4</ele>
        <time>2023-12-20T12:23:45Z</time>
      </trkpt>
      <trkpt lat="48.71079" lon="1.86917">
        <ele>181.4</ele>
        <time>2023-12-20T12:23:46Z</time>
      </trkpt>
      <trkpt lat="48.71076" lon="1.86928">
        <ele>181</ele>
        <time>2023-12-20T12:23:47Z</time>
      </trkpt>
      <trkpt lat="48.71072" lon="1.86939">
        <ele>181</ele>
        <time>2023-12-20T12:23:48Z</time>
      </trkpt>
      <trkpt lat="48.71069" lon="1.8695">
        <ele>181</ele>
        <time>2023-12-20T12:23:49Z</time>
      </trkpt>
      <trkpt lat="48.71066" lon="1.8696">
        <ele>181</ele>
        <time>2023-12-20T12:23:50Z</time>
      </trkpt>
      <trkpt lat="48.71063" lon="1.86971">
        <ele>181.8</ele>
        <time>2023-12-20T12:23:51Z</time>
      </trkpt>
      <trkpt lat="48.7106" lon="1.86981">
        <ele>181.8</ele>
        <time>2023-12-20T12:23:52Z</time>
      </trkpt>
      <trkpt lat="48.71057" lon="1.86991">
        <ele>181.8</ele>
        <time>2023-12-20T12:23:53Z</time>
      </trkpt>
      <trkpt lat="48.71055" lon="1.87001">
        <ele>181.8</ele>
        <time>2023-12-20T12:23:54Z</time>
      </trkpt>
      <trkpt lat="48.71052" lon="1.8701">
        <ele>180.8</ele>
        <time>2023-12-20T12:23:55Z</time>
      </trkpt>
      <trkpt lat="48.7105" lon="1.8702">
        <ele>180.8</ele>
        <time>2023-12-20T12:23:56Z</time>
      </trkpt>
      <trkpt lat="48.71047" lon="1.8703">
        <ele>180.8</ele>
        <time>2023-12-20T12:23:57Z</time>
      </trkpt>
      <trkpt lat="48.71045" lon="1.87039">
        <ele>181.2</ele>
        <time>2023-12-20T12:23:58Z</time>
      </trkpt>
      <trkpt lat="48.71042" lon="1.87048">
        <ele>182</ele>
        <time>2023-12-20T12:23:59Z</time>
      </trkpt>
      <trkpt lat="48.7104" lon="1.87057">
        <ele>182</ele>
        <time>2023-12-20T12:24:00Z</time>
      </trkpt>
      <trkpt lat="48.71037" lon="1.87065">
        <ele>182</ele>
        <time>2023-12-20T12:24:01Z</time>
      </trkpt>
      <trkpt lat="48.71035" lon="1.87073">
        <ele>181.2</ele>
        <time>2023-12-20T12:24:02Z</time>
      </trkpt>
      <trkpt lat="48.71033" lon="1.87082">
        <ele>180.2</ele>
        <time>2023-12-20T12:24:03Z</time>
      </trkpt>
      <trkpt lat="48.7103" lon="1.87091">
        <ele>180.2</ele>
        <time>2023-12-20T12:24:04Z</time>
      </trkpt>
      <trkpt lat="48.71028" lon="1.87099">
        <ele>180.2</ele>
        <time>2023-12-20T12:24:05Z</time>
      </trkpt>
      <trkpt lat="48.71026" lon="1.87108">
        <ele>180.2</ele>
        <time>2023-12-20T12:24:06Z</time>
      </trkpt>
      <trkpt lat="48.71023" lon="1.87117">
        <ele>180.2</ele>
        <time>2023-12-20T12:24:07Z</time>
      </trkpt>
      <trkpt lat="48.71021" lon="1.87126">
        <ele>180.2</ele>
        <time>2023-12-20T12:24:08Z</time>
      </trkpt>
      <trkpt lat="48.71019" lon="1.87135">
        <ele>180.2</ele>
        <time>2023-12-20T12:24:09Z</time>
      </trkpt>
      <trkpt lat="48.71016" lon="1.87144">
        <ele>180.2</ele>
        <time>2023-12-20T12:24:10Z</time>
      </trkpt>
      <trkpt lat="48.71014" lon="1.87153">
        <ele>180.2</ele>
        <time>2023-12-20T12:24:11Z</time>
      </trkpt>
      <trkpt lat="48.71011" lon="1.87162">
        <ele>180.2</ele>
        <time>2023-12-20T12:24:12Z</time>
      </trkpt>
      <trkpt lat="48.71009" lon="1.87171">
        <ele>180.2</ele>
        <time>2023-12-20T12:24:13Z</time>
      </trkpt>
      <trkpt lat="48.71006" lon="1.8718">
        <ele>179.6</ele>
        <time>2023-12-20T12:24:14Z</time>
      </trkpt>
      <trkpt lat="48.71004" lon="1.87189">
        <ele>179.6</ele>
        <time>2023-12-20T12:24:15Z</time>
      </trkpt>
      <trkpt lat="48.71001" lon="1.87198">
        <ele>179.6</ele>
        <time>2023-12-20T12:24:16Z</time>
      </trkpt>
      <trkpt lat="48.70999" lon="1.87207">
        <ele>179.6</ele>
        <time>2023-12-20T12:24:17Z</time>
      </trkpt>
      <trkpt lat="48.70996" lon="1.87216">
        <ele>179</ele>
        <time>2023-12-20T12:24:18Z</time>
      </trkpt>
      <trkpt lat="48.70992" lon="1.87223">
        <ele>178.2</ele>
        <time>2023-12-20T12:24:19Z</time>
      </trkpt>
      <trkpt lat="48.70986" lon="1.87227">
        <ele>178.2</ele>
        <time>2023-12-20T12:24:20Z</time>
      </trkpt>
      <trkpt lat="48.7098" lon="1.87229">
        <ele>178.2</ele>
        <time>2023-12-20T12:24:21Z</time>
      </trkpt>
      <trkpt lat="48.70974" lon="1.87227">
        <ele>177.2</ele>
        <time>2023-12-20T12:24:22Z</time>
      </trkpt>
      <trkpt lat="48.70969" lon="1.87222">
        <ele>177.8</ele>
        <time>2023-12-20T12:24:23Z</time>
      </trkpt>
      <trkpt lat="48.70964" lon="1.87216">
        <ele>177.8</ele>
        <time>2023-12-20T12:24:24Z</time>
      </trkpt>
      <trkpt lat="48.70958" lon="1.8721">
        <ele>177.8</ele>
        <time>2023-12-20T12:24:25Z</time>
      </trkpt>
      <trkpt lat="48.70953" lon="1.87203">
        <ele>176.8</ele>
        <time>2023-12-20T12:24:26Z</time>
      </trkpt>
      <trkpt lat="48.70947" lon="1.87195">
        <ele>175.4</ele>
        <time>2023-12-20T12:24:27Z</time>
      </trkpt>
      <trkpt lat="48.70941" lon="1.87188">
        <ele>175.4</ele>
        <time>2023-12-20T12:24:28Z</time>
      </trkpt>
      <trkpt lat="48.70935" lon="1.8718">
        <ele>175.4</ele>
        <time>2023-12-20T12:24:29Z</time>
      </trkpt>
      <trkpt lat="48.70928" lon="1.87173">
        <ele>174.4</ele>
        <time>2023-12-20T12:24:30Z</time>
      </trkpt>
      <trkpt lat="48.70922" lon="1.87165">
        <ele>173.4</ele>
        <time>2023-12-20T12:24:31Z</time>
      </trkpt>
      <trkpt lat="48.70915" lon="1.87157">
        <ele>173.4</ele>
        <time>2023-12-20T12:24:32Z</time>
      </trkpt>
      <trkpt lat="48.70909" lon="1.87149">
        <ele>173.4</ele>
        <time>2023-12-20T12:24:33Z</time>
      </trkpt>
      <trkpt lat="48.70902" lon="1.8714">
        <ele>172.4</ele>
        <time>2023-12-20T12:24:34Z</time>
      </trkpt>
      <trkpt lat="48.70896" lon="1.87132">
        <ele>170.8</ele>
        <time>2023-12-20T12:24:35Z</time>
      </trkpt>
      <trkpt lat="48.70889" lon="1.87123">
        <ele>170.8</ele>
        <time>2023-12-20T12:24:36Z</time>
      </trkpt>
      <trkpt lat="48.70882" lon="1.87114">
        <ele>170.8</ele>
        <time>2023-12-20T12:24:37Z</time>
      </trkpt>
      <trkpt lat="48.70875" lon="1.87105">
        <ele>169.8</ele>
        <time>2023-12-20T12:24:38Z</time>
      </trkpt>
      <trkpt lat="48.70868" lon="1.87097">
        <ele>167.6</ele>
        <time>2023-12-20T12:24:39Z</time>
      </trkpt>
      <trkpt lat="48.70861" lon="1.87088">
        <ele>167.6</ele>
        <time>2023-12-20T12:24:40Z</time>
      </trkpt>
      <trkpt lat="48.70854" lon="1.87079">
        <ele>167.6</ele>
        <time>2023-12-20T12:24:41Z</time>
      </trkpt>
      <trkpt lat="48.70847" lon="1.8707">
        <ele>166.6</ele>
        <time>2023-12-20T12:24:42Z</time>
      </trkpt>
      <trkpt lat="48.7084" lon="1.87061">
        <ele>164.6</ele>
        <time>2023-12-20T12:24:43Z</time>
      </trkpt>
      <trkpt lat="48.70833" lon="1.87052">
        <ele>164.6</ele>
        <time>2023-12-20T12:24:44Z</time>
      </trkpt>
      <trkpt lat="48.70826" lon="1.87043">
        <ele>164.6</ele>
        <time>2023-12-20T12:24:45Z</time>
      </trkpt>
      <trkpt lat="48.7082" lon="1.87033">
        <ele>163.6</ele>
        <time>2023-12-20T12:24:46Z</time>
      </trkpt>
      <trkpt lat="48.70812" lon="1.87024">
        <ele>165.4</ele>
        <time>2023-12-20T12:24:47Z</time>
      </trkpt>
      <trkpt lat="48.70805" lon="1.87015">
        <ele>165.4</ele>
        <time>2023-12-20T12:24:48Z</time>
      </trkpt>
      <trkpt lat="48.70798" lon="1.87006">
        <ele>165.4</ele>
        <time>2023-12-20T12:24:49Z</time>
      </trkpt>
      <trkpt lat="48.7079" lon="1.86997">
        <ele>165.4</ele>
        <time>2023-12-20T12:24:50Z</time>
      </trkpt>
      <trkpt lat="48.70782" lon="1.86988">
        <ele>162</ele>
        <time>2023-12-20T12:24:51Z</time>
      </trkpt>
      <trkpt lat="48.70774" lon="1.86979">
        <ele>162</ele>
        <time>2023-12-20T12:24:52Z</time>
      </trkpt>
      <trkpt lat="48.70765" lon="1.86971">
        <ele>162</ele>
        <time>2023-12-20T12:24:53Z</time>
      </trkpt>
      <trkpt lat="48.70758" lon="1.86964">
        <ele>162</ele>
        <time>2023-12-20T12:24:54Z</time>
      </trkpt>
      <trkpt lat="48.70753" lon="1.86956">
        <ele>163.8</ele>
        <time>2023-12-20T12:24:55Z</time>
      </trkpt>
      <trkpt lat="48.70748" lon="1.8695">
        <ele>163.8</ele>
        <time>2023-12-20T12:24:56Z</time>
      </trkpt>
      <trkpt lat="48.70745" lon="1.86945">
        <ele>163.8</ele>
        <time>2023-12-20T12:24:57Z</time>
      </trkpt>
      <trkpt lat="48.70742" lon="1.86942">
        <ele>163.8</ele>
        <time>2023-12-20T12:24:58Z</time>
      </trkpt>
      <trkpt lat="48.7074" lon="1.86939">
        <ele>163.2</ele>
        <time>2023-12-20T12:24:59Z</time>
      </trkpt>
      <trkpt lat="48.70736" lon="1.86938">
        <ele>163.2</ele>
        <time>2023-12-20T12:25:00Z</time>
      </trkpt>
      <trkpt lat="48.70733" lon="1.86939">
        <ele>163.2</ele>
        <time>2023-12-20T12:25:01Z</time>
      </trkpt>
      <trkpt lat="48.70729" lon="1.86942">
        <ele>162.2</ele>
        <time>2023-12-20T12:25:02Z</time>
      </trkpt>
      <trkpt lat="48.70727" lon="1.86946">
        <ele>162.2</ele>
        <time>2023-12-20T12:25:03Z</time>
      </trkpt>
      <trkpt lat="48.70724" lon="1.86951">
        <ele>162.2</ele>
        <time>2023-12-20T12:25:04Z</time>
      </trkpt>
      <trkpt lat="48.70721" lon="1.86957">
        <ele>162.2</ele>
        <time>2023-12-20T12:25:05Z</time>
      </trkpt>
      <trkpt lat="48.70718" lon="1.86964">
        <ele>161.2</ele>
        <time>2023-12-20T12:25:06Z</time>
      </trkpt>
      <trkpt lat="48.70716" lon="1.86968">
        <ele>158.4</ele>
        <time>2023-12-20T12:25:07Z</time>
      </trkpt>
      <trkpt lat="48.70712" lon="1.86976">
        <ele>158.4</ele>
        <time>2023-12-20T12:25:08Z</time>
      </trkpt>
      <trkpt lat="48.70708" lon="1.86985">
        <ele>158.4</ele>
        <time>2023-12-20T12:25:09Z</time>
      </trkpt>
      <trkpt lat="48.70706" lon="1.86994">
        <ele>158.4</ele>
        <time>2023-12-20T12:25:10Z</time>
      </trkpt>
      <trkpt lat="48.70703" lon="1.87004">
        <ele>157.2</ele>
        <time>2023-12-20T12:25:11Z</time>
      </trkpt>
      <trkpt lat="48.707" lon="1.87015">
        <ele>157.2</ele>
        <time>2023-12-20T12:25:12Z</time>
      </trkpt>
      <trkpt lat="48.70697" lon="1.87026">
        <ele>157.2</ele>
        <time>2023-12-20T12:25:13Z</time>
      </trkpt>
      <trkpt lat="48.70693" lon="1.87038">
        <ele>157.2</ele>
        <time>2023-12-20T12:25:14Z</time>
      </trkpt>
      <trkpt lat="48.7069" lon="1.8705">
        <ele>157</ele>
        <time>2023-12-20T12:25:15Z</time>
      </trkpt>
      <trkpt lat="48.70687" lon="1.87061">
        <ele>157</ele>
        <time>2023-12-20T12:25:16Z</time>
      </trkpt>
      <trkpt lat="48.70683" lon="1.87072">
        <ele>157</ele>
        <time>2023-12-20T12:25:17Z</time>
      </trkpt>
      <trkpt lat="48.7068" lon="1.87082">
        <ele>156.6</ele>
        <time>2023-12-20T12:25:18Z</time>
      </trkpt>
      <trkpt lat="48.70676" lon="1.87093">
        <ele>157.2</ele>
        <time>2023-12-20T12:25:19Z</time>
      </trkpt>
      <trkpt lat="48.70673" lon="1.87103">
        <ele>157.2</ele>
        <time>2023-12-20T12:25:20Z</time>
      </trkpt>
      <trkpt lat="48.7067" lon="1.87114">
        <ele>157.2</ele>
        <time>2023-12-20T12:25:21Z</time>
      </trkpt>
      <trkpt lat="48.70666" lon="1.87124">
        <ele>157.2</ele>
        <time>2023-12-20T12:25:22Z</time>
      </trkpt>
      <trkpt lat="48.70663" lon="1.87134">
        <ele>157.2</ele>
        <time>2023-12-20T12:25:23Z</time>
      </trkpt>
      <trkpt lat="48.7066" lon="1.87144">
        <ele>157.2</ele>
        <time>2023-12-20T12:25:24Z</time>
      </trkpt>
      <trkpt lat="48.70657" lon="1.87154">
        <ele>157.2</ele>
        <time>2023-12-20T12:25:25Z</time>
      </trkpt>
      <trkpt lat="48.70653" lon="1.87164">
        <ele>157.6</ele>
        <time>2023-12-20T12:25:26Z</time>
      </trkpt>
      <trkpt lat="48.7065" lon="1.87174">
        <ele>157.6</ele>
        <time>2023-12-20T12:25:27Z</time>
      </trkpt>
      <trkpt lat="48.70647" lon="1.87184">
        <ele>157.6</ele>
        <time>2023-12-20T12:25:28Z</time>
      </trkpt>
      <trkpt lat="48.70644" lon="1.87193">
        <ele>157.6</ele>
        <time>2023-12-20T12:25:29Z</time>
      </trkpt>
      <trkpt lat="48.70641" lon="1.87203">
        <ele>156.6</ele>
        <time>2023-12-20T12:25:30Z</time>
      </trkpt>
      <trkpt lat="48.70638" lon="1.87213">
        <ele>156.6</ele>
        <time>2023-12-20T12:25:31Z</time>
      </trkpt>
      <trkpt lat="48.70635" lon="1.87222">
        <ele>156.6</ele>
        <time>2023-12-20T12:25:32Z</time>
      </trkpt>
      <trkpt lat="48.70632" lon="1.87232">
        <ele>156.6</ele>
        <time>2023-12-20T12:25:33Z</time>
      </trkpt>
      <trkpt lat="48.70629" lon="1.87241">
        <ele>156.6</ele>
        <time>2023-12-20T12:25:34Z</time>
      </trkpt>
      <trkpt lat="48.70626" lon="1.87251">
        <ele>157</ele>
        <time>2023-12-20T12:25:35Z</time>
      </trkpt>
      <trkpt lat="48.70623" lon="1.8726">
        <ele>157</ele>
        <time>2023-12-20T12:25:36Z</time>
      </trkpt>
      <trkpt lat="48.70619" lon="1.87269">
        <ele>157</ele>
        <time>2023-12-20T12:25:37Z</time>
      </trkpt>
      <trkpt lat="48.70617" lon="1.87278">
        <ele>157</ele>
        <time>2023-12-20T12:25:38Z</time>
      </trkpt>
      <trkpt lat="48.70614" lon="1.87287">
        <ele>156.4</ele>
        <time>2023-12-20T12:25:39Z</time>
      </trkpt>
      <trkpt lat="48.7061" lon="1.87297">
        <ele>156.4</ele>
        <time>2023-12-20T12:25:40Z</time>
      </trkpt>
      <trkpt lat="48.70608" lon="1.87307">
        <ele>156.4</ele>
        <time>2023-12-20T12:25:41Z</time>
      </trkpt>
      <trkpt lat="48.70605" lon="1.87317">
        <ele>155.8</ele>
        <time>2023-12-20T12:25:42Z</time>
      </trkpt>
      <trkpt lat="48.70601" lon="1.87326">
        <ele>156.2</ele>
        <time>2023-12-20T12:25:43Z</time>
      </trkpt>
      <trkpt lat="48.70598" lon="1.87336">
        <ele>156.2</ele>
        <time>2023-12-20T12:25:44Z</time>
      </trkpt>
      <trkpt lat="48.70595" lon="1.87346">
        <ele>156.2</ele>
        <time>2023-12-20T12:25:45Z</time>
      </trkpt>
      <trkpt lat="48.70591" lon="1.87356">
        <ele>156</ele>
        <time>2023-12-20T12:25:46Z</time>
      </trkpt>
      <trkpt lat="48.70588" lon="1.87366">
        <ele>156.2</ele>
        <time>2023-12-20T12:25:47Z</time>
      </trkpt>
      <trkpt lat="48.70585" lon="1.87376">
        <ele>156.2</ele>
        <time>2023-12-20T12:25:48Z</time>
      </trkpt>
      <trkpt lat="48.70582" lon="1.87386">
        <ele>156.2</ele>
        <time>2023-12-20T12:25:49Z</time>
      </trkpt>
      <trkpt lat="48.70578" lon="1.87396">
        <ele>155.2</ele>
        <time>2023-12-20T12:25:50Z</time>
      </trkpt>
      <trkpt lat="48.70575" lon="1.87408">
        <ele>153.2</ele>
        <time>2023-12-20T12:25:51Z</time>
      </trkpt>
      <trkpt lat="48.70573" lon="1.87421">
        <ele>153.2</ele>
        <time>2023-12-20T12:25:52Z</time>
      </trkpt>
      <trkpt lat="48.70572" lon="1.87434">
        <ele>153.2</ele>
        <time>2023-12-20T12:25:53Z</time>
      </trkpt>
      <trkpt lat="48.70571" lon="1.87446">
        <ele>152.8</ele>
        <time>2023-12-20T12:25:54Z</time>
      </trkpt>
      <trkpt lat="48.7057" lon="1.87459">
        <ele>152.4</ele>
        <time>2023-12-20T12:25:55Z</time>
      </trkpt>
      <trkpt lat="48.7057" lon="1.87472">
        <ele>152.4</ele>
        <time>2023-12-20T12:25:56Z</time>
      </trkpt>
      <trkpt lat="48.7057" lon="1.87484">
        <ele>152.4</ele>
        <time>2023-12-20T12:25:57Z</time>
      </trkpt>
      <trkpt lat="48.70569" lon="1.87496">
        <ele>152.4</ele>
        <time>2023-12-20T12:25:58Z</time>
      </trkpt>
      <trkpt lat="48.70569" lon="1.87508">
        <ele>151.2</ele>
        <time>2023-12-20T12:25:59Z</time>
      </trkpt>
      <trkpt lat="48.70567" lon="1.8752">
        <ele>151.2</ele>
        <time>2023-12-20T12:26:00Z</time>
      </trkpt>
      <trkpt lat="48.70565" lon="1.87532">
        <ele>151.2</ele>
        <time>2023-12-20T12:26:01Z</time>
      </trkpt>
      <trkpt lat="48.70562" lon="1.87544">
        <ele>150.2</ele>
        <time>2023-12-20T12:26:02Z</time>
      </trkpt>
      <trkpt lat="48.70558" lon="1.87554">
        <ele>148.8</ele>
        <time>2023-12-20T12:26:03Z</time>
      </trkpt>
      <trkpt lat="48.70554" lon="1.87564">
        <ele>148.8</ele>
        <time>2023-12-20T12:26:04Z</time>
      </trkpt>
      <trkpt lat="48.70549" lon="1.87574">
        <ele>148.8</ele>
        <time>2023-12-20T12:26:05Z</time>
      </trkpt>
      <trkpt lat="48.70544" lon="1.87584">
        <ele>147.8</ele>
        <time>2023-12-20T12:26:06Z</time>
      </trkpt>
      <trkpt lat="48.70538" lon="1.87593">
        <ele>147.2</ele>
        <time>2023-12-20T12:26:07Z</time>
      </trkpt>
      <trkpt lat="48.70534" lon="1.87601">
        <ele>147.2</ele>
        <time>2023-12-20T12:26:08Z</time>
      </trkpt>
      <trkpt lat="48.70529" lon="1.8761">
        <ele>147.2</ele>
        <time>2023-12-20T12:26:09Z</time>
      </trkpt>
      <trkpt lat="48.70524" lon="1.87618">
        <ele>146.2</ele>
        <time>2023-12-20T12:26:10Z</time>
      </trkpt>
      <trkpt lat="48.70519" lon="1.87627">
        <ele>146</ele>
        <time>2023-12-20T12:26:11Z</time>
      </trkpt>
      <trkpt lat="48.70514" lon="1.87635">
        <ele>146</ele>
        <time>2023-12-20T12:26:12Z</time>
      </trkpt>
      <trkpt lat="48.70509" lon="1.87643">
        <ele>146</ele>
        <time>2023-12-20T12:26:13Z</time>
      </trkpt>
      <trkpt lat="48.70505" lon="1.87651">
        <ele>146</ele>
        <time>2023-12-20T12:26:14Z</time>
      </trkpt>
      <trkpt lat="48.705" lon="1.87659">
        <ele>147.6</ele>
        <time>2023-12-20T12:26:15Z</time>
      </trkpt>
      <trkpt lat="48.70496" lon="1.87667">
        <ele>147.6</ele>
        <time>2023-12-20T12:26:16Z</time>
      </trkpt>
      <trkpt lat="48.70491" lon="1.87674">
        <ele>147.6</ele>
        <time>2023-12-20T12:26:17Z</time>
      </trkpt>
      <trkpt lat="48.70487" lon="1.87682">
        <ele>148.2</ele>
        <time>2023-12-20T12:26:18Z</time>
      </trkpt>
      <trkpt lat="48.70483" lon="1.8769">
        <ele>147.8</ele>
        <time>2023-12-20T12:26:19Z</time>
      </trkpt>
      <trkpt lat="48.70478" lon="1.87698">
        <ele>147.8</ele>
        <time>2023-12-20T12:26:20Z</time>
      </trkpt>
      <trkpt lat="48.70474" lon="1.87705">
        <ele>147.8</ele>
        <time>2023-12-20T12:26:21Z</time>
      </trkpt>
      <trkpt lat="48.7047" lon="1.87713">
        <ele>147.8</ele>
        <time>2023-12-20T12:26:22Z</time>
      </trkpt>
      <trkpt lat="48.70466" lon="1.87721">
        <ele>147.8</ele>
        <time>2023-12-20T12:26:23Z</time>
      </trkpt>
      <trkpt lat="48.70462" lon="1.87728">
        <ele>147.8</ele>
        <time>2023-12-20T12:26:24Z</time>
      </trkpt>
      <trkpt lat="48.70457" lon="1.87735">
        <ele>147.8</ele>
        <time>2023-12-20T12:26:25Z</time>
      </trkpt>
      <trkpt lat="48.70453" lon="1.87742">
        <ele>147.8</ele>
        <time>2023-12-20T12:26:26Z</time>
      </trkpt>
      <trkpt lat="48.70449" lon="1.8775">
        <ele>148</ele>
        <time>2023-12-20T12:26:27Z</time>
      </trkpt>
      <trkpt lat="48.70444" lon="1.87758">
        <ele>148</ele>
        <time>2023-12-20T12:26:28Z</time>
      </trkpt>
      <trkpt lat="48.7044" lon="1.87766">
        <ele>148</ele>
        <time>2023-12-20T12:26:29Z</time>
      </trkpt>
      <trkpt lat="48.70436" lon="1.87774">
        <ele>147.6</ele>
        <time>2023-12-20T12:26:30Z</time>
      </trkpt>
      <trkpt lat="48.70431" lon="1.87782">
        <ele>148</ele>
        <time>2023-12-20T12:26:31Z</time>
      </trkpt>
      <trkpt lat="48.70427" lon="1.87791">
        <ele>148</ele>
        <time>2023-12-20T12:26:32Z</time>
      </trkpt>
      <trkpt lat="48.70423" lon="1.87799">
        <ele>148</ele>
        <time>2023-12-20T12:26:33Z</time>
      </trkpt>
      <trkpt lat="48.70418" lon="1.87807">
        <ele>147.2</ele>
        <time>2023-12-20T12:26:34Z</time>
      </trkpt>
      <trkpt lat="48.70414" lon="1.87814">
        <ele>147.4</ele>
        <time>2023-12-20T12:26:35Z</time>
      </trkpt>
      <trkpt lat="48.7041" lon="1.87822">
        <ele>147.4</ele>
        <time>2023-12-20T12:26:36Z</time>
      </trkpt>
      <trkpt lat="48.70406" lon="1.8783">
        <ele>147.4</ele>
        <time>2023-12-20T12:26:37Z</time>
      </trkpt>
      <trkpt lat="48.70401" lon="1.87839">
        <ele>147.4</ele>
        <time>2023-12-20T12:26:38Z</time>
      </trkpt>
      <trkpt lat="48.70397" lon="1.87847">
        <ele>147</ele>
        <time>2023-12-20T12:26:39Z</time>
      </trkpt>
      <trkpt lat="48.70392" lon="1.87855">
        <ele>147</ele>
        <time>2023-12-20T12:26:40Z</time>
      </trkpt>
      <trkpt lat="48.70387" lon="1.87864">
        <ele>147</ele>
        <time>2023-12-20T12:26:41Z</time>
      </trkpt>
      <trkpt lat="48.70383" lon="1.87872">
        <ele>147.8</ele>
        <time>2023-12-20T12:26:42Z</time>
      </trkpt>
      <trkpt lat="48.70379" lon="1.87881">
        <ele>148.6</ele>
        <time>2023-12-20T12:26:43Z</time>
      </trkpt>
      <trkpt lat="48.70375" lon="1.87889">
        <ele>148.6</ele>
        <time>2023-12-20T12:26:44Z</time>
      </trkpt>
      <trkpt lat="48.7037" lon="1.87897">
        <ele>148.6</ele>
        <time>2023-12-20T12:26:45Z</time>
      </trkpt>
      <trkpt lat="48.70367" lon="1.87904">
        <ele>148.4</ele>
        <time>2023-12-20T12:26:46Z</time>
      </trkpt>
      <trkpt lat="48.70362" lon="1.87912">
        <ele>149</ele>
        <time>2023-12-20T12:26:47Z</time>
      </trkpt>
      <trkpt lat="48.70358" lon="1.8792">
        <ele>149</ele>
        <time>2023-12-20T12:26:48Z</time>
      </trkpt>
      <trkpt lat="48.70354" lon="1.87928">
        <ele>149</ele>
        <time>2023-12-20T12:26:49Z</time>
      </trkpt>
      <trkpt lat="48.7035" lon="1.87935">
        <ele>149.8</ele>
        <time>2023-12-20T12:26:50Z</time>
      </trkpt>
      <trkpt lat="48.70346" lon="1.87942">
        <ele>148</ele>
        <time>2023-12-20T12:26:51Z</time>
      </trkpt>
      <trkpt lat="48.70342" lon="1.87949">
        <ele>148</ele>
        <time>2023-12-20T12:26:52Z</time>
      </trkpt>
      <trkpt lat="48.70338" lon="1.87955">
        <ele>148</ele>
        <time>2023-12-20T12:26:53Z</time>
      </trkpt>
      <trkpt lat="48.70334" lon="1.87963">
        <ele>148.8</ele>
        <time>2023-12-20T12:26:54Z</time>
      </trkpt>
      <trkpt lat="48.7033" lon="1.8797">
        <ele>148.4</ele>
        <time>2023-12-20T12:26:55Z</time>
      </trkpt>
      <trkpt lat="48.70326" lon="1.87978">
        <ele>148.4</ele>
        <time>2023-12-20T12:26:56Z</time>
      </trkpt>
      <trkpt lat="48.70322" lon="1.87986">
        <ele>148.4</ele>
        <time>2023-12-20T12:26:57Z</time>
      </trkpt>
      <trkpt lat="48.70318" lon="1.87993">
        <ele>148.4</ele>
        <time>2023-12-20T12:26:58Z</time>
      </trkpt>
      <trkpt lat="48.70313" lon="1.88001">
        <ele>147.6</ele>
        <time>2023-12-20T12:26:59Z</time>
      </trkpt>
      <trkpt lat="48.70309" lon="1.8801">
        <ele>147.6</ele>
        <time>2023-12-20T12:27:00Z</time>
      </trkpt>
      <trkpt lat="48.70304" lon="1.88018">
        <ele>147.6</ele>
        <time>2023-12-20T12:27:01Z</time>
      </trkpt>
      <trkpt lat="48.703" lon="1.88026">
        <ele>147.6</ele>
        <time>2023-12-20T12:27:02Z</time>
      </trkpt>
      <trkpt lat="48.70295" lon="1.88034">
        <ele>148.2</ele>
        <time>2023-12-20T12:27:03Z</time>
      </trkpt>
      <trkpt lat="48.7029" lon="1.88043">
        <ele>148.2</ele>
        <time>2023-12-20T12:27:04Z</time>
      </trkpt>
      <trkpt lat="48.70286" lon="1.88052">
        <ele>148.2</ele>
        <time>2023-12-20T12:27:05Z</time>
      </trkpt>
      <trkpt lat="48.70281" lon="1.8806">
        <ele>147.2</ele>
        <time>2023-12-20T12:27:06Z</time>
      </trkpt>
      <trkpt lat="48.70277" lon="1.88069">
        <ele>146.8</ele>
        <time>2023-12-20T12:27:07Z</time>
      </trkpt>
      <trkpt lat="48.70272" lon="1.88077">
        <ele>146.8</ele>
        <time>2023-12-20T12:27:08Z</time>
      </trkpt>
      <trkpt lat="48.70267" lon="1.88085">
        <ele>146.8</ele>
        <time>2023-12-20T12:27:09Z</time>
      </trkpt>
      <trkpt lat="48.70262" lon="1.88095">
        <ele>145.8</ele>
        <time>2023-12-20T12:27:10Z</time>
      </trkpt>
      <trkpt lat="48.70257" lon="1.88106">
        <ele>145.8</ele>
        <time>2023-12-20T12:27:11Z</time>
      </trkpt>
      <trkpt lat="48.70252" lon="1.88116">
        <ele>145.8</ele>
        <time>2023-12-20T12:27:12Z</time>
      </trkpt>
      <trkpt lat="48.70247" lon="1.88125">
        <ele>145.8</ele>
        <time>2023-12-20T12:27:13Z</time>
      </trkpt>
      <trkpt lat="48.70243" lon="1.88134">
        <ele>145.6</ele>
        <time>2023-12-20T12:27:14Z</time>
      </trkpt>
      <trkpt lat="48.70238" lon="1.88144">
        <ele>146</ele>
        <time>2023-12-20T12:27:15Z</time>
      </trkpt>
      <trkpt lat="48.70234" lon="1.88156">
        <ele>146</ele>
        <time>2023-12-20T12:27:16Z</time>
      </trkpt>
      <trkpt lat="48.70231" lon="1.88168">
        <ele>146</ele>
        <time>2023-12-20T12:27:17Z</time>
      </trkpt>
      <trkpt lat="48.70229" lon="1.88182">
        <ele>146</ele>
        <time>2023-12-20T12:27:18Z</time>
      </trkpt>
      <trkpt lat="48.70228" lon="1.88195">
        <ele>145.8</ele>
        <time>2023-12-20T12:27:19Z</time>
      </trkpt>
      <trkpt lat="48.70228" lon="1.88208">
        <ele>145.8</ele>
        <time>2023-12-20T12:27:20Z</time>
      </trkpt>
      <trkpt lat="48.70229" lon="1.88221">
        <ele>145.8</ele>
        <time>2023-12-20T12:27:21Z</time>
      </trkpt>
      <trkpt lat="48.7023" lon="1.88233">
        <ele>144.8</ele>
        <time>2023-12-20T12:27:22Z</time>
      </trkpt>
      <trkpt lat="48.70233" lon="1.88245">
        <ele>144.8</ele>
        <time>2023-12-20T12:27:23Z</time>
      </trkpt>
      <trkpt lat="48.70235" lon="1.88256">
        <ele>144.8</ele>
        <time>2023-12-20T12:27:24Z</time>
      </trkpt>
      <trkpt lat="48.70237" lon="1.88268">
        <ele>144.8</ele>
        <time>2023-12-20T12:27:25Z</time>
      </trkpt>
      <trkpt lat="48.70239" lon="1.88279">
        <ele>145.8</ele>
        <time>2023-12-20T12:27:26Z</time>
      </trkpt>
      <trkpt lat="48.7024" lon="1.88289">
        <ele>146.8</ele>
        <time>2023-12-20T12:27:27Z</time>
      </trkpt>
      <trkpt lat="48.70242" lon="1.883">
        <ele>146.8</ele>
        <time>2023-12-20T12:27:28Z</time>
      </trkpt>
      <trkpt lat="48.70244" lon="1.8831">
        <ele>146.8</ele>
        <time>2023-12-20T12:27:29Z</time>
      </trkpt>
      <trkpt lat="48.70245" lon="1.88319">
        <ele>147.4</ele>
        <time>2023-12-20T12:27:30Z</time>
      </trkpt>
      <trkpt lat="48.70247" lon="1.88327">
        <ele>147.8</ele>
        <time>2023-12-20T12:27:31Z</time>
      </trkpt>
      <trkpt lat="48.70248" lon="1.88336">
        <ele>147.8</ele>
        <time>2023-12-20T12:27:32Z</time>
      </trkpt>
      <trkpt lat="48.70249" lon="1.88343">
        <ele>147.8</ele>
        <time>2023-12-20T12:27:33Z</time>
      </trkpt>
      <trkpt lat="48.70249" lon="1.8835">
        <ele>148.8</ele>
        <time>2023-12-20T12:27:34Z</time>
      </trkpt>
      <trkpt lat="48.7025" lon="1.88357">
        <ele>149</ele>
        <time>2023-12-20T12:27:35Z</time>
      </trkpt>
      <trkpt lat="48.7025" lon="1.88364">
        <ele>149</ele>
        <time>2023-12-20T12:27:36Z</time>
      </trkpt>
      <trkpt lat="48.7025" lon="1.88371">
        <ele>149</ele>
        <time>2023-12-20T12:27:37Z</time>
      </trkpt>
      <trkpt lat="48.7025" lon="1.88378">
        <ele>149</ele>
        <time>2023-12-20T12:27:38Z</time>
      </trkpt>
      <trkpt lat="48.7025" lon="1.88386">
        <ele>150.6</ele>
        <time>2023-12-20T12:27:39Z</time>
      </trkpt>
      <trkpt lat="48.7025" lon="1.88393">
        <ele>150.6</ele>
        <time>2023-12-20T12:27:40Z</time>
      </trkpt>
      <trkpt lat="48.70249" lon="1.884">
        <ele>150.6</ele>
        <time>2023-12-20T12:27:41Z</time>
      </trkpt>
      <trkpt lat="48.70249" lon="1.88407">
        <ele>151.2</ele>
        <time>2023-12-20T12:27:42Z</time>
      </trkpt>
      <trkpt lat="48.70248" lon="1.88413">
        <ele>151.4</ele>
        <time>2023-12-20T12:27:43Z</time>
      </trkpt>
      <trkpt lat="48.70247" lon="1.8842">
        <ele>151.4</ele>
        <time>2023-12-20T12:27:44Z</time>
      </trkpt>
      <trkpt lat="48.70246" lon="1.88426">
        <ele>151.4</ele>
        <time>2023-12-20T12:27:45Z</time>
      </trkpt>
      <trkpt lat="48.70246" lon="1.88431">
        <ele>152</ele>
        <time>2023-12-20T12:27:46Z</time>
      </trkpt>
      <trkpt lat="48.70245" lon="1.88436">
        <ele>152.2</ele>
        <time>2023-12-20T12:27:47Z</time>
      </trkpt>
      <trkpt lat="48.70244" lon="1.88441">
        <ele>152.2</ele>
        <time>2023-12-20T12:27:48Z</time>
      </trkpt>
      <trkpt lat="48.70243" lon="1.88445">
        <ele>152.2</ele>
        <time>2023-12-20T12:27:49Z</time>
      </trkpt>
      <trkpt lat="48.70243" lon="1.88449">
        <ele>152.8</ele>
        <time>2023-12-20T12:27:50Z</time>
      </trkpt>
      <trkpt lat="48.70242" lon="1.88452">
        <ele>152.6</ele>
        <time>2023-12-20T12:27:51Z</time>
      </trkpt>
      <trkpt lat="48.70242" lon="1.88455">
        <ele>152.6</ele>
        <time>2023-12-20T12:27:52Z</time>
      </trkpt>
      <trkpt lat="48.70242" lon="1.88459">
        <ele>152.6</ele>
        <time>2023-12-20T12:27:53Z</time>
      </trkpt>
      <trkpt lat="48.70241" lon="1.88462">
        <ele>153.2</ele>
        <time>2023-12-20T12:27:54Z</time>
      </trkpt>
      <trkpt lat="48.70241" lon="1.88466">
        <ele>153.6</ele>
        <time>2023-12-20T12:27:55Z</time>
      </trkpt>
      <trkpt lat="48.70241" lon="1.8847">
        <ele>153.6</ele>
        <time>2023-12-20T12:27:56Z</time>
      </trkpt>
      <trkpt lat="48.7024" lon="1.88474">
        <ele>153.6</ele>
        <time>2023-12-20T12:27:57Z</time>
      </trkpt>
      <trkpt lat="48.7024" lon="1.88478">
        <ele>153.2</ele>
        <time>2023-12-20T12:27:58Z</time>
      </trkpt>
      <trkpt lat="48.7024" lon="1.88483">
        <ele>153.4</ele>
        <time>2023-12-20T12:27:59Z</time>
      </trkpt>
      <trkpt lat="48.70239" lon="1.88488">
        <ele>153.4</ele>
        <time>2023-12-20T12:28:00Z</time>
      </trkpt>
      <trkpt lat="48.70239" lon="1.88494">
        <ele>153.4</ele>
        <time>2023-12-20T12:28:01Z</time>
      </trkpt>
      <trkpt lat="48.7024" lon="1.885">
        <ele>153.4</ele>
        <time>2023-12-20T12:28:02Z</time>
      </trkpt>
      <trkpt lat="48.70242" lon="1.88506">
        <ele>153</ele>
        <time>2023-12-20T12:28:03Z</time>
      </trkpt>
      <trkpt lat="48.70244" lon="1.88512">
        <ele>153</ele>
        <time>2023-12-20T12:28:04Z</time>
      </trkpt>
      <trkpt lat="48.70246" lon="1.88518">
        <ele>153</ele>
        <time>2023-12-20T12:28:05Z</time>
      </trkpt>
      <trkpt lat="48.70248" lon="1.88525">
        <ele>153</ele>
        <time>2023-12-20T12:28:06Z</time>
      </trkpt>
      <trkpt lat="48.70249" lon="1.88532">
        <ele>153.2</ele>
        <time>2023-12-20T12:28:07Z</time>
      </trkpt>
      <trkpt lat="48.70249" lon="1.88539">
        <ele>153.2</ele>
        <time>2023-12-20T12:28:08Z</time>
      </trkpt>
      <trkpt lat="48.70249" lon="1.88546">
        <ele>153.2</ele>
        <time>2023-12-20T12:28:09Z</time>
      </trkpt>
      <trkpt lat="48.70249" lon="1.88554">
        <ele>152.8</ele>
        <time>2023-12-20T12:28:10Z</time>
      </trkpt>
      <trkpt lat="48.70248" lon="1.88562">
        <ele>152.4</ele>
        <time>2023-12-20T12:28:11Z</time>
      </trkpt>
      <trkpt lat="48.70248" lon="1.8857">
        <ele>152.4</ele>
        <time>2023-12-20T12:28:12Z</time>
      </trkpt>
      <trkpt lat="48.70247" lon="1.88578">
        <ele>152.4</ele>
        <time>2023-12-20T12:28:13Z</time>
      </trkpt>
      <trkpt lat="48.70246" lon="1.88587">
        <ele>152.4</ele>
        <time>2023-12-20T12:28:14Z</time>
      </trkpt>
      <trkpt lat="48.70245" lon="1.88596">
        <ele>151.6</ele>
        <time>2023-12-20T12:28:15Z</time>
      </trkpt>
      <trkpt lat="48.70244" lon="1.88605">
        <ele>151.6</ele>
        <time>2023-12-20T12:28:16Z</time>
      </trkpt>
      <trkpt lat="48.70243" lon="1.88614">
        <ele>151.6</ele>
        <time>2023-12-20T12:28:17Z</time>
      </trkpt>
      <trkpt lat="48.70241" lon="1.88624">
        <ele>151.6</ele>
        <time>2023-12-20T12:28:18Z</time>
      </trkpt>
      <trkpt lat="48.70239" lon="1.88633">
        <ele>150.6</ele>
        <time>2023-12-20T12:28:19Z</time>
      </trkpt>
      <trkpt lat="48.70237" lon="1.88642">
        <ele>150.6</ele>
        <time>2023-12-20T12:28:20Z</time>
      </trkpt>
      <trkpt lat="48.70235" lon="1.88652">
        <ele>150.6</ele>
        <time>2023-12-20T12:28:21Z</time>
      </trkpt>
      <trkpt lat="48.70234" lon="1.88662">
        <ele>150.6</ele>
        <time>2023-12-20T12:28:22Z</time>
      </trkpt>
      <trkpt lat="48.70232" lon="1.88672">
        <ele>150</ele>
        <time>2023-12-20T12:28:23Z</time>
      </trkpt>
      <trkpt lat="48.7023" lon="1.88683">
        <ele>150</ele>
        <time>2023-12-20T12:28:24Z</time>
      </trkpt>
      <trkpt lat="48.70229" lon="1.88693">
        <ele>150</ele>
        <time>2023-12-20T12:28:25Z</time>
      </trkpt>
      <trkpt lat="48.70227" lon="1.88704">
        <ele>149</ele>
        <time>2023-12-20T12:28:26Z</time>
      </trkpt>
      <trkpt lat="48.70226" lon="1.88716">
        <ele>147.6</ele>
        <time>2023-12-20T12:28:27Z</time>
      </trkpt>
      <trkpt lat="48.70225" lon="1.88728">
        <ele>147.6</ele>
        <time>2023-12-20T12:28:28Z</time>
      </trkpt>
      <trkpt lat="48.70225" lon="1.8874">
        <ele>147.6</ele>
        <time>2023-12-20T12:28:29Z</time>
      </trkpt>
      <trkpt lat="48.70224" lon="1.88753">
        <ele>146.6</ele>
        <time>2023-12-20T12:28:30Z</time>
      </trkpt>
      <trkpt lat="48.70224" lon="1.88766">
        <ele>144.4</ele>
        <time>2023-12-20T12:28:31Z</time>
      </trkpt>
      <trkpt lat="48.70224" lon="1.8878">
        <ele>144.4</ele>
        <time>2023-12-20T12:28:32Z</time>
      </trkpt>
      <trkpt lat="48.70225" lon="1.88793">
        <ele>144.4</ele>
        <time>2023-12-20T12:28:33Z</time>
      </trkpt>
      <trkpt lat="48.70226" lon="1.88807">
        <ele>143.4</ele>
        <time>2023-12-20T12:28:34Z</time>
      </trkpt>
      <trkpt lat="48.70227" lon="1.88821">
        <ele>142.2</ele>
        <time>2023-12-20T12:28:35Z</time>
      </trkpt>
      <trkpt lat="48.70227" lon="1.88835">
        <ele>142.2</ele>
        <time>2023-12-20T12:28:36Z</time>
      </trkpt>
      <trkpt lat="48.70227" lon="1.8885">
        <ele>142.2</ele>
        <time>2023-12-20T12:28:37Z</time>
      </trkpt>
      <trkpt lat="48.70228" lon="1.88864">
        <ele>141.2</ele>
        <time>2023-12-20T12:28:38Z</time>
      </trkpt>
      <trkpt lat="48.70229" lon="1.88878">
        <ele>141</ele>
        <time>2023-12-20T12:28:39Z</time>
      </trkpt>
      <trkpt lat="48.7023" lon="1.88892">
        <ele>141</ele>
        <time>2023-12-20T12:28:40Z</time>
      </trkpt>
      <trkpt lat="48.70231" lon="1.88906">
        <ele>141</ele>
        <time>2023-12-20T12:28:41Z</time>
      </trkpt>
      <trkpt lat="48.70231" lon="1.88919">
        <ele>141.4</ele>
        <time>2023-12-20T12:28:42Z</time>
      </trkpt>
      <trkpt lat="48.70231" lon="1.88932">
        <ele>141</ele>
        <time>2023-12-20T12:28:43Z</time>
      </trkpt>
      <trkpt lat="48.70231" lon="1.88946">
        <ele>141</ele>
        <time>2023-12-20T12:28:44Z</time>
      </trkpt>
      <trkpt lat="48.7023" lon="1.88959">
        <ele>141</ele>
        <time>2023-12-20T12:28:45Z</time>
      </trkpt>
      <trkpt lat="48.70229" lon="1.88971">
        <ele>141</ele>
        <time>2023-12-20T12:28:46Z</time>
      </trkpt>
      <trkpt lat="48.70226" lon="1.88983">
        <ele>141.4</ele>
        <time>2023-12-20T12:28:47Z</time>
      </trkpt>
      <trkpt lat="48.70223" lon="1.88995">
        <ele>141.4</ele>
        <time>2023-12-20T12:28:48Z</time>
      </trkpt>
      <trkpt lat="48.70221" lon="1.89005">
        <ele>141.4</ele>
        <time>2023-12-20T12:28:49Z</time>
      </trkpt>
      <trkpt lat="48.70218" lon="1.89016">
        <ele>142.4</ele>
        <time>2023-12-20T12:28:50Z</time>
      </trkpt>
      <trkpt lat="48.70216" lon="1.89026">
        <ele>142.8</ele>
        <time>2023-12-20T12:28:51Z</time>
      </trkpt>
      <trkpt lat="48.70213" lon="1.89036">
        <ele>142.8</ele>
        <time>2023-12-20T12:28:52Z</time>
      </trkpt>
      <trkpt lat="48.70211" lon="1.89045">
        <ele>142.8</ele>
        <time>2023-12-20T12:28:53Z</time>
      </trkpt>
      <trkpt lat="48.70209" lon="1.89054">
        <ele>142.8</ele>
        <time>2023-12-20T12:28:54Z</time>
      </trkpt>
      <trkpt lat="48.70206" lon="1.89064">
        <ele>143</ele>
        <time>2023-12-20T12:28:55Z</time>
      </trkpt>
      <trkpt lat="48.70204" lon="1.89074">
        <ele>143</ele>
        <time>2023-12-20T12:28:56Z</time>
      </trkpt>
      <trkpt lat="48.70202" lon="1.89084">
        <ele>143</ele>
        <time>2023-12-20T12:28:57Z</time>
      </trkpt>
      <trkpt lat="48.70199" lon="1.89093">
        <ele>143</ele>
        <time>2023-12-20T12:28:58Z</time>
      </trkpt>
      <trkpt lat="48.70197" lon="1.89103">
        <ele>143.2</ele>
        <time>2023-12-20T12:28:59Z</time>
      </trkpt>
      <trkpt lat="48.70195" lon="1.89113">
        <ele>143.2</ele>
        <time>2023-12-20T12:29:00Z</time>
      </trkpt>
      <trkpt lat="48.70193" lon="1.89122">
        <ele>143.2</ele>
        <time>2023-12-20T12:29:01Z</time>
      </trkpt>
      <trkpt lat="48.70191" lon="1.89131">
        <ele>143.4</ele>
        <time>2023-12-20T12:29:02Z</time>
      </trkpt>
      <trkpt lat="48.70189" lon="1.89139">
        <ele>143.4</ele>
        <time>2023-12-20T12:29:03Z</time>
      </trkpt>
      <trkpt lat="48.70187" lon="1.89147">
        <ele>143.4</ele>
        <time>2023-12-20T12:29:04Z</time>
      </trkpt>
      <trkpt lat="48.70185" lon="1.89155">
        <ele>143.4</ele>
        <time>2023-12-20T12:29:05Z</time>
      </trkpt>
      <trkpt lat="48.70182" lon="1.89163">
        <ele>143.4</ele>
        <time>2023-12-20T12:29:06Z</time>
      </trkpt>
      <trkpt lat="48.70181" lon="1.89171">
        <ele>143.4</ele>
        <time>2023-12-20T12:29:07Z</time>
      </trkpt>
      <trkpt lat="48.70179" lon="1.8918">
        <ele>143.4</ele>
        <time>2023-12-20T12:29:08Z</time>
      </trkpt>
      <trkpt lat="48.70177" lon="1.89188">
        <ele>143.4</ele>
        <time>2023-12-20T12:29:09Z</time>
      </trkpt>
      <trkpt lat="48.70174" lon="1.89197">
        <ele>143.4</ele>
        <time>2023-12-20T12:29:10Z</time>
      </trkpt>
      <trkpt lat="48.70172" lon="1.89205">
        <ele>143.8</ele>
        <time>2023-12-20T12:29:11Z</time>
      </trkpt>
      <trkpt lat="48.7017" lon="1.89214">
        <ele>143.8</ele>
        <time>2023-12-20T12:29:12Z</time>
      </trkpt>
      <trkpt lat="48.70168" lon="1.89223">
        <ele>143.8</ele>
        <time>2023-12-20T12:29:13Z</time>
      </trkpt>
      <trkpt lat="48.70166" lon="1.89231">
        <ele>143.8</ele>
        <time>2023-12-20T12:29:14Z</time>
      </trkpt>
      <trkpt lat="48.70164" lon="1.89239">
        <ele>145</ele>
        <time>2023-12-20T12:29:15Z</time>
      </trkpt>
      <trkpt lat="48.70162" lon="1.89247">
        <ele>145</ele>
        <time>2023-12-20T12:29:16Z</time>
      </trkpt>
      <trkpt lat="48.7016" lon="1.89255">
        <ele>145</ele>
        <time>2023-12-20T12:29:17Z</time>
      </trkpt>
      <trkpt lat="48.70157" lon="1.89262">
        <ele>145</ele>
        <time>2023-12-20T12:29:18Z</time>
      </trkpt>
      <trkpt lat="48.70155" lon="1.8927">
        <ele>145</ele>
        <time>2023-12-20T12:29:19Z</time>
      </trkpt>
      <trkpt lat="48.70153" lon="1.89277">
        <ele>145</ele>
        <time>2023-12-20T12:29:20Z</time>
      </trkpt>
      <trkpt lat="48.7015" lon="1.89285">
        <ele>145</ele>
        <time>2023-12-20T12:29:21Z</time>
      </trkpt>
      <trkpt lat="48.70148" lon="1.89292">
        <ele>145.8</ele>
        <time>2023-12-20T12:29:22Z</time>
      </trkpt>
      <trkpt lat="48.70145" lon="1.893">
        <ele>145.6</ele>
        <time>2023-12-20T12:29:23Z</time>
      </trkpt>
      <trkpt lat="48.70142" lon="1.89307">
        <ele>145.6</ele>
        <time>2023-12-20T12:29:24Z</time>
      </trkpt>
      <trkpt lat="48.70139" lon="1.89315">
        <ele>145.6</ele>
        <time>2023-12-20T12:29:25Z</time>
      </trkpt>
      <trkpt lat="48.70137" lon="1.89322">
        <ele>145.6</ele>
        <time>2023-12-20T12:29:26Z</time>
      </trkpt>
      <trkpt lat="48.70134" lon="1.89329">
        <ele>145</ele>
        <time>2023-12-20T12:29:27Z</time>
      </trkpt>
      <trkpt lat="48.70131" lon="1.89336">
        <ele>145</ele>
        <time>2023-12-20T12:29:28Z</time>
      </trkpt>
      <trkpt lat="48.70128" lon="1.89343">
        <ele>145</ele>
        <time>2023-12-20T12:29:29Z</time>
      </trkpt>
      <trkpt lat="48.70125" lon="1.89351">
        <ele>144.2</ele>
        <time>2023-12-20T12:29:30Z</time>
      </trkpt>
      <trkpt lat="48.70122" lon="1.89359">
        <ele>144.2</ele>
        <time>2023-12-20T12:29:31Z</time>
      </trkpt>
      <trkpt lat="48.70118" lon="1.89366">
        <ele>144.2</ele>
        <time>2023-12-20T12:29:32Z</time>
      </trkpt>
      <trkpt lat="48.70115" lon="1.89374">
        <ele>144.2</ele>
        <time>2023-12-20T12:29:33Z</time>
      </trkpt>
      <trkpt lat="48.70112" lon="1.89383">
        <ele>144.2</ele>
        <time>2023-12-20T12:29:34Z</time>
      </trkpt>
      <trkpt lat="48.70108" lon="1.89391">
        <ele>143</ele>
        <time>2023-12-20T12:29:35Z</time>
      </trkpt>
      <trkpt lat="48.70105" lon="1.894">
        <ele>143</ele>
        <time>2023-12-20T12:29:36Z</time>
      </trkpt>
      <trkpt lat="48.70101" lon="1.89408">
        <ele>143</ele>
        <time>2023-12-20T12:29:37Z</time>
      </trkpt>
      <trkpt lat="48.70098" lon="1.89417">
        <ele>143</ele>
        <time>2023-12-20T12:29:38Z</time>
      </trkpt>
      <trkpt lat="48.70094" lon="1.89425">
        <ele>142.2</ele>
        <time>2023-12-20T12:29:39Z</time>
      </trkpt>
      <trkpt lat="48.7009" lon="1.89434">
        <ele>142.2</ele>
        <time>2023-12-20T12:29:40Z</time>
      </trkpt>
      <trkpt lat="48.70085" lon="1.89442">
        <ele>142.2</ele>
        <time>2023-12-20T12:29:41Z</time>
      </trkpt>
      <trkpt lat="48.70081" lon="1.89449">
        <ele>141.8</ele>
        <time>2023-12-20T12:29:42Z</time>
      </trkpt>
      <trkpt lat="48.70077" lon="1.89457">
        <ele>142.2</ele>
        <time>2023-12-20T12:29:43Z</time>
      </trkpt>
      <trkpt lat="48.70072" lon="1.89464">
        <ele>142.2</ele>
        <time>2023-12-20T12:29:44Z</time>
      </trkpt>
      <trkpt lat="48.70067" lon="1.89472">
        <ele>142.2</ele>
        <time>2023-12-20T12:29:45Z</time>
      </trkpt>
      <trkpt lat="48.70063" lon="1.8948">
        <ele>141.4</ele>
        <time>2023-12-20T12:29:46Z</time>
      </trkpt>
      <trkpt lat="48.7006" lon="1.89489">
        <ele>140.8</ele>
        <time>2023-12-20T12:29:47Z</time>
      </trkpt>
      <trkpt lat="48.70056" lon="1.89497">
        <ele>140.8</ele>
        <time>2023-12-20T12:29:48Z</time>
      </trkpt>
      <trkpt lat="48.70052" lon="1.89505">
        <ele>140.8</ele>
        <time>2023-12-20T12:29:49Z</time>
      </trkpt>
      <trkpt lat="48.70048" lon="1.89514">
        <ele>141.2</ele>
        <time>2023-12-20T12:29:50Z</time>
      </trkpt>
      <trkpt lat="48.70043" lon="1.89522">
        <ele>141.2</ele>
        <time>2023-12-20T12:29:51Z</time>
      </trkpt>
      <trkpt lat="48.70038" lon="1.8953">
        <ele>141.2</ele>
        <time>2023-12-20T12:29:52Z</time>
      </trkpt>
      <trkpt lat="48.70033" lon="1.89537">
        <ele>141.2</ele>
        <time>2023-12-20T12:29:53Z</time>
      </trkpt>
      <trkpt lat="48.70028" lon="1.89544">
        <ele>141</ele>
        <time>2023-12-20T12:29:54Z</time>
      </trkpt>
      <trkpt lat="48.70023" lon="1.89551">
        <ele>140.2</ele>
        <time>2023-12-20T12:29:55Z</time>
      </trkpt>
      <trkpt lat="48.70017" lon="1.89557">
        <ele>140.2</ele>
        <time>2023-12-20T12:29:56Z</time>
      </trkpt>
      <trkpt lat="48.70011" lon="1.89563">
        <ele>140.2</ele>
        <time>2023-12-20T12:29:57Z</time>
      </trkpt>
      <trkpt lat="48.70004" lon="1.89568">
        <ele>140.2</ele>
        <time>2023-12-20T12:29:58Z</time>
      </trkpt>
      <trkpt lat="48.69998" lon="1.8957">
        <ele>140</ele>
        <time>2023-12-20T12:29:59Z</time>
      </trkpt>
      <trkpt lat="48.69991" lon="1.89573">
        <ele>140</ele>
        <time>2023-12-20T12:30:00Z</time>
      </trkpt>
      <trkpt lat="48.69984" lon="1.89572">
        <ele>140</ele>
        <time>2023-12-20T12:30:01Z</time>
      </trkpt>
      <trkpt lat="48.69977" lon="1.8957">
        <ele>140.4</ele>
        <time>2023-12-20T12:30:02Z</time>
      </trkpt>
      <trkpt lat="48.6997" lon="1.89568">
        <ele>140.4</ele>
        <time>2023-12-20T12:30:03Z</time>
      </trkpt>
      <trkpt lat="48.69964" lon="1.89566">
        <ele>140.4</ele>
        <time>2023-12-20T12:30:04Z</time>
      </trkpt>
      <trkpt lat="48.69958" lon="1.89563">
        <ele>140.4</ele>
        <time>2023-12-20T12:30:05Z</time>
      </trkpt>
      <trkpt lat="48.69952" lon="1.8956">
        <ele>141.4</ele>
        <time>2023-12-20T12:30:06Z</time>
      </trkpt>
      <trkpt lat="48.69946" lon="1.89557">
        <ele>141.2</ele>
        <time>2023-12-20T12:30:07Z</time>
      </trkpt>
      <trkpt lat="48.69941" lon="1.89554">
        <ele>141.2</ele>
        <time>2023-12-20T12:30:08Z</time>
      </trkpt>
      <trkpt lat="48.69935" lon="1.89552">
        <ele>141.2</ele>
        <time>2023-12-20T12:30:09Z</time>
      </trkpt>
      <trkpt lat="48.69929" lon="1.89552">
        <ele>141.2</ele>
        <time>2023-12-20T12:30:10Z</time>
      </trkpt>
      <trkpt lat="48.69922" lon="1.89552">
        <ele>141.2</ele>
        <time>2023-12-20T12:30:11Z</time>
      </trkpt>
      <trkpt lat="48.69916" lon="1.89553">
        <ele>141.2</ele>
        <time>2023-12-20T12:30:12Z</time>
      </trkpt>
      <trkpt lat="48.6991" lon="1.89554">
        <ele>141.2</ele>
        <time>2023-12-20T12:30:13Z</time>
      </trkpt>
      <trkpt lat="48.69904" lon="1.89556">
        <ele>141.2</ele>
        <time>2023-12-20T12:30:14Z</time>
      </trkpt>
      <trkpt lat="48.69898" lon="1.89557">
        <ele>141.8</ele>
        <time>2023-12-20T12:30:15Z</time>
      </trkpt>
      <trkpt lat="48.69893" lon="1.89559">
        <ele>141.8</ele>
        <time>2023-12-20T12:30:16Z</time>
      </trkpt>
      <trkpt lat="48.69887" lon="1.89562">
        <ele>141.8</ele>
        <time>2023-12-20T12:30:17Z</time>
      </trkpt>
      <trkpt lat="48.69882" lon="1.89564">
        <ele>142.8</ele>
        <time>2023-12-20T12:30:18Z</time>
      </trkpt>
      <trkpt lat="48.69877" lon="1.89564">
        <ele>142.6</ele>
        <time>2023-12-20T12:30:19Z</time>
      </trkpt>
      <trkpt lat="48.69871" lon="1.89565">
        <ele>142.6</ele>
        <time>2023-12-20T12:30:20Z</time>
      </trkpt>
      <trkpt lat="48.69866" lon="1.89568">
        <ele>142.6</ele>
        <time>2023-12-20T12:30:21Z</time>
      </trkpt>
      <trkpt lat="48.6986" lon="1.89571">
        <ele>143</ele>
        <time>2023-12-20T12:30:22Z</time>
      </trkpt>
      <trkpt lat="48.69855" lon="1.89573">
        <ele>143</ele>
        <time>2023-12-20T12:30:23Z</time>
      </trkpt>
      <trkpt lat="48.69849" lon="1.89576">
        <ele>143</ele>
        <time>2023-12-20T12:30:24Z</time>
      </trkpt>
      <trkpt lat="48.69843" lon="1.89578">
        <ele>143</ele>
        <time>2023-12-20T12:30:25Z</time>
      </trkpt>
      <trkpt lat="48.69838" lon="1.89581">
        <ele>143</ele>
        <time>2023-12-20T12:30:26Z</time>
      </trkpt>
      <trkpt lat="48.69832" lon="1.89584">
        <ele>144.2</ele>
        <time>2023-12-20T12:30:27Z</time>
      </trkpt>
      <trkpt lat="48.69827" lon="1.89588">
        <ele>144.2</ele>
        <time>2023-12-20T12:30:28Z</time>
      </trkpt>
      <trkpt lat="48.69822" lon="1.89592">
        <ele>144.2</ele>
        <time>2023-12-20T12:30:29Z</time>
      </trkpt>
      <trkpt lat="48.69818" lon="1.89598">
        <ele>144.2</ele>
        <time>2023-12-20T12:30:30Z</time>
      </trkpt>
      <trkpt lat="48.69814" lon="1.89603">
        <ele>144</ele>
        <time>2023-12-20T12:30:31Z</time>
      </trkpt>
      <trkpt lat="48.6981" lon="1.89611">
        <ele>144</ele>
        <time>2023-12-20T12:30:32Z</time>
      </trkpt>
      <trkpt lat="48.69807" lon="1.89619">
        <ele>144</ele>
        <time>2023-12-20T12:30:33Z</time>
      </trkpt>
      <trkpt lat="48.69803" lon="1.89629">
        <ele>143</ele>
        <time>2023-12-20T12:30:34Z</time>
      </trkpt>
      <trkpt lat="48.69801" lon="1.89638">
        <ele>142.6</ele>
        <time>2023-12-20T12:30:35Z</time>
      </trkpt>
      <trkpt lat="48.69798" lon="1.89647">
        <ele>142.6</ele>
        <time>2023-12-20T12:30:36Z</time>
      </trkpt>
      <trkpt lat="48.69795" lon="1.89659">
        <ele>142.6</ele>
        <time>2023-12-20T12:30:37Z</time>
      </trkpt>
      <trkpt lat="48.69793" lon="1.8967">
        <ele>142.2</ele>
        <time>2023-12-20T12:30:38Z</time>
      </trkpt>
      <trkpt lat="48.69791" lon="1.89682">
        <ele>141.8</ele>
        <time>2023-12-20T12:30:39Z</time>
      </trkpt>
      <trkpt lat="48.69791" lon="1.89694">
        <ele>141.8</ele>
        <time>2023-12-20T12:30:40Z</time>
      </trkpt>
      <trkpt lat="48.69792" lon="1.89706">
        <ele>141.8</ele>
        <time>2023-12-20T12:30:41Z</time>
      </trkpt>
      <trkpt lat="48.69793" lon="1.89717">
        <ele>141.6</ele>
        <time>2023-12-20T12:30:42Z</time>
      </trkpt>
      <trkpt lat="48.69795" lon="1.89728">
        <ele>140.6</ele>
        <time>2023-12-20T12:30:43Z</time>
      </trkpt>
      <trkpt lat="48.69797" lon="1.89739">
        <ele>140.6</ele>
        <time>2023-12-20T12:30:44Z</time>
      </trkpt>
      <trkpt lat="48.698" lon="1.89751">
        <ele>140.6</ele>
        <time>2023-12-20T12:30:45Z</time>
      </trkpt>
      <trkpt lat="48.69802" lon="1.89761">
        <ele>140.6</ele>
        <time>2023-12-20T12:30:46Z</time>
      </trkpt>
      <trkpt lat="48.69805" lon="1.89772">
        <ele>140.4</ele>
        <time>2023-12-20T12:30:47Z</time>
      </trkpt>
      <trkpt lat="48.69808" lon="1.89783">
        <ele>140.4</ele>
        <time>2023-12-20T12:30:48Z</time>
      </trkpt>
      <trkpt lat="48.6981" lon="1.89794">
        <ele>140.4</ele>
        <time>2023-12-20T12:30:49Z</time>
      </trkpt>
      <trkpt lat="48.69813" lon="1.89806">
        <ele>140.4</ele>
        <time>2023-12-20T12:30:50Z</time>
      </trkpt>
      <trkpt lat="48.69815" lon="1.89818">
        <ele>139.8</ele>
        <time>2023-12-20T12:30:51Z</time>
      </trkpt>
      <trkpt lat="48.69818" lon="1.89829">
        <ele>139.8</ele>
        <time>2023-12-20T12:30:52Z</time>
      </trkpt>
      <trkpt lat="48.6982" lon="1.89841">
        <ele>139.8</ele>
        <time>2023-12-20T12:30:53Z</time>
      </trkpt>
      <trkpt lat="48.69822" lon="1.89852">
        <ele>139.8</ele>
        <time>2023-12-20T12:30:54Z</time>
      </trkpt>
      <trkpt lat="48.69824" lon="1.89864">
        <ele>139.4</ele>
        <time>2023-12-20T12:30:55Z</time>
      </trkpt>
      <trkpt lat="48.69826" lon="1.89876">
        <ele>139.4</ele>
        <time>2023-12-20T12:30:56Z</time>
      </trkpt>
      <trkpt lat="48.69828" lon="1.89888">
        <ele>139.4</ele>
        <time>2023-12-20T12:30:57Z</time>
      </trkpt>
      <trkpt lat="48.69829" lon="1.899">
        <ele>139.8</ele>
        <time>2023-12-20T12:30:58Z</time>
      </trkpt>
      <trkpt lat="48.69831" lon="1.89912">
        <ele>140</ele>
        <time>2023-12-20T12:30:59Z</time>
      </trkpt>
      <trkpt lat="48.69831" lon="1.89923">
        <ele>140</ele>
        <time>2023-12-20T12:31:00Z</time>
      </trkpt>
      <trkpt lat="48.69832" lon="1.89935">
        <ele>140</ele>
        <time>2023-12-20T12:31:01Z</time>
      </trkpt>
      <trkpt lat="48.69832" lon="1.89946">
        <ele>140</ele>
        <time>2023-12-20T12:31:02Z</time>
      </trkpt>
      <trkpt lat="48.69832" lon="1.89956">
        <ele>141.2</ele>
        <time>2023-12-20T12:31:03Z</time>
      </trkpt>
      <trkpt lat="48.69832" lon="1.89967">
        <ele>141.2</ele>
        <time>2023-12-20T12:31:04Z</time>
      </trkpt>
      <trkpt lat="48.69832" lon="1.89976">
        <ele>141.2</ele>
        <time>2023-12-20T12:31:05Z</time>
      </trkpt>
      <trkpt lat="48.69832" lon="1.89986">
        <ele>142.2</ele>
        <time>2023-12-20T12:31:06Z</time>
      </trkpt>
      <trkpt lat="48.69832" lon="1.89995">
        <ele>142.8</ele>
        <time>2023-12-20T12:31:07Z</time>
      </trkpt>
      <trkpt lat="48.69832" lon="1.90004">
        <ele>142.8</ele>
        <time>2023-12-20T12:31:08Z</time>
      </trkpt>
      <trkpt lat="48.69832" lon="1.90012">
        <ele>142.8</ele>
        <time>2023-12-20T12:31:09Z</time>
      </trkpt>
      <trkpt lat="48.69832" lon="1.9002">
        <ele>142.8</ele>
        <time>2023-12-20T12:31:10Z</time>
      </trkpt>
      <trkpt lat="48.69832" lon="1.90028">
        <ele>143.8</ele>
        <time>2023-12-20T12:31:11Z</time>
      </trkpt>
      <trkpt lat="48.69832" lon="1.90036">
        <ele>143.8</ele>
        <time>2023-12-20T12:31:12Z</time>
      </trkpt>
      <trkpt lat="48.69832" lon="1.90043">
        <ele>143.8</ele>
        <time>2023-12-20T12:31:13Z</time>
      </trkpt>
      <trkpt lat="48.69832" lon="1.90051">
        <ele>144.4</ele>
        <time>2023-12-20T12:31:14Z</time>
      </trkpt>
      <trkpt lat="48.69832" lon="1.90058">
        <ele>144.4</ele>
        <time>2023-12-20T12:31:15Z</time>
      </trkpt>
      <trkpt lat="48.69832" lon="1.90065">
        <ele>144.4</ele>
        <time>2023-12-20T12:31:16Z</time>
      </trkpt>
      <trkpt lat="48.69832" lon="1.90072">
        <ele>144.4</ele>
        <time>2023-12-20T12:31:17Z</time>
      </trkpt>
      <trkpt lat="48.69832" lon="1.90079">
        <ele>144.4</ele>
        <time>2023-12-20T12:31:18Z</time>
      </trkpt>
      <trkpt lat="48.69832" lon="1.90086">
        <ele>145.2</ele>
        <time>2023-12-20T12:31:19Z</time>
      </trkpt>
      <trkpt lat="48.69831" lon="1.90093">
        <ele>145.2</ele>
        <time>2023-12-20T12:31:20Z</time>
      </trkpt>
      <trkpt lat="48.69831" lon="1.90101">
        <ele>145.2</ele>
        <time>2023-12-20T12:31:21Z</time>
      </trkpt>
      <trkpt lat="48.69831" lon="1.90108">
        <ele>146.2</ele>
        <time>2023-12-20T12:31:22Z</time>
      </trkpt>
      <trkpt lat="48.69831" lon="1.90116">
        <ele>146.8</ele>
        <time>2023-12-20T12:31:23Z</time>
      </trkpt>
      <trkpt lat="48.69831" lon="1.90123">
        <ele>146.8</ele>
        <time>2023-12-20T12:31:24Z</time>
      </trkpt>
      <trkpt lat="48.69831" lon="1.9013">
        <ele>146.8</ele>
        <time>2023-12-20T12:31:25Z</time>
      </trkpt>
      <trkpt lat="48.6983" lon="1.90137">
        <ele>146.8</ele>
        <time>2023-12-20T12:31:26Z</time>
      </trkpt>
      <trkpt lat="48.6983" lon="1.90144">
        <ele>146.6</ele>
        <time>2023-12-20T12:31:27Z</time>
      </trkpt>
      <trkpt lat="48.6983" lon="1.90151">
        <ele>146.6</ele>
        <time>2023-12-20T12:31:28Z</time>
      </trkpt>
      <trkpt lat="48.69829" lon="1.90158">
        <ele>146.6</ele>
        <time>2023-12-20T12:31:29Z</time>
      </trkpt>
      <trkpt lat="48.69829" lon="1.90165">
        <ele>147.2</ele>
        <time>2023-12-20T12:31:30Z</time>
      </trkpt>
      <trkpt lat="48.69828" lon="1.90172">
        <ele>147</ele>
        <time>2023-12-20T12:31:31Z</time>
      </trkpt>
      <trkpt lat="48.69828" lon="1.90179">
        <ele>147</ele>
        <time>2023-12-20T12:31:32Z</time>
      </trkpt>
      <trkpt lat="48.69828" lon="1.90186">
        <ele>147</ele>
        <time>2023-12-20T12:31:33Z</time>
      </trkpt>
      <trkpt lat="48.69827" lon="1.90193">
        <ele>147</ele>
        <time>2023-12-20T12:31:34Z</time>
      </trkpt>
      <trkpt lat="48.69827" lon="1.90201">
        <ele>147.6</ele>
        <time>2023-12-20T12:31:35Z</time>
      </trkpt>
      <trkpt lat="48.69826" lon="1.90208">
        <ele>147.6</ele>
        <time>2023-12-20T12:31:36Z</time>
      </trkpt>
      <trkpt lat="48.69825" lon="1.90215">
        <ele>147.6</ele>
        <time>2023-12-20T12:31:37Z</time>
      </trkpt>
      <trkpt lat="48.69824" lon="1.90222">
        <ele>147.2</ele>
        <time>2023-12-20T12:31:38Z</time>
      </trkpt>
      <trkpt lat="48.69822" lon="1.90229">
        <ele>147.2</ele>
        <time>2023-12-20T12:31:39Z</time>
      </trkpt>
      <trkpt lat="48.6982" lon="1.90236">
        <ele>147.2</ele>
        <time>2023-12-20T12:31:40Z</time>
      </trkpt>
      <trkpt lat="48.69818" lon="1.90242">
        <ele>147.2</ele>
        <time>2023-12-20T12:31:41Z</time>
      </trkpt>
      <trkpt lat="48.69815" lon="1.90248">
        <ele>147.6</ele>
        <time>2023-12-20T12:31:42Z</time>
      </trkpt>
      <trkpt lat="48.69813" lon="1.90253">
        <ele>148</ele>
        <time>2023-12-20T12:31:43Z</time>
      </trkpt>
      <trkpt lat="48.6981" lon="1.90259">
        <ele>148</ele>
        <time>2023-12-20T12:31:44Z</time>
      </trkpt>
      <trkpt lat="48.69806" lon="1.90264">
        <ele>148</ele>
        <time>2023-12-20T12:31:45Z</time>
      </trkpt>
      <trkpt lat="48.69803" lon="1.90268">
        <ele>148</ele>
        <time>2023-12-20T12:31:46Z</time>
      </trkpt>
      <trkpt lat="48.698" lon="1.90274">
        <ele>148.2</ele>
        <time>2023-12-20T12:31:47Z</time>
      </trkpt>
      <trkpt lat="48.69797" lon="1.9028">
        <ele>148.2</ele>
        <time>2023-12-20T12:31:48Z</time>
      </trkpt>
      <trkpt lat="48.69794" lon="1.90284">
        <ele>148.2</ele>
        <time>2023-12-20T12:31:49Z</time>
      </trkpt>
      <trkpt lat="48.69792" lon="1.90289">
        <ele>148.2</ele>
        <time>2023-12-20T12:31:50Z</time>
      </trkpt>
      <trkpt lat="48.69789" lon="1.90292">
        <ele>147.2</ele>
        <time>2023-12-20T12:31:51Z</time>
      </trkpt>
      <trkpt lat="48.69785" lon="1.90297">
        <ele>147.2</ele>
        <time>2023-12-20T12:31:52Z</time>
      </trkpt>
      <trkpt lat="48.69783" lon="1.90303">
        <ele>147.2</ele>
        <time>2023-12-20T12:31:53Z</time>
      </trkpt>
      <trkpt lat="48.69779" lon="1.90307">
        <ele>146.2</ele>
        <time>2023-12-20T12:31:54Z</time>
      </trkpt>
      <trkpt lat="48.69776" lon="1.90315">
        <ele>145.4</ele>
        <time>2023-12-20T12:31:55Z</time>
      </trkpt>
      <trkpt lat="48.69772" lon="1.90322">
        <ele>145.4</ele>
        <time>2023-12-20T12:31:56Z</time>
      </trkpt>
      <trkpt lat="48.69768" lon="1.9033">
        <ele>145.4</ele>
        <time>2023-12-20T12:31:57Z</time>
      </trkpt>
      <trkpt lat="48.69765" lon="1.90338">
        <ele>144.6</ele>
        <time>2023-12-20T12:31:58Z</time>
      </trkpt>
      <trkpt lat="48.69761" lon="1.90347">
        <ele>144.2</ele>
        <time>2023-12-20T12:31:59Z</time>
      </trkpt>
      <trkpt lat="48.69757" lon="1.90356">
        <ele>144.2</ele>
        <time>2023-12-20T12:32:00Z</time>
      </trkpt>
      <trkpt lat="48.69754" lon="1.90365">
        <ele>144.2</ele>
        <time>2023-12-20T12:32:01Z</time>
      </trkpt>
      <trkpt lat="48.69751" lon="1.90375">
        <ele>144</ele>
        <time>2023-12-20T12:32:02Z</time>
      </trkpt>
      <trkpt lat="48.69747" lon="1.90385">
        <ele>143.2</ele>
        <time>2023-12-20T12:32:03Z</time>
      </trkpt>
      <trkpt lat="48.69744" lon="1.90393">
        <ele>143.2</ele>
        <time>2023-12-20T12:32:04Z</time>
      </trkpt>
      <trkpt lat="48.6974" lon="1.90403">
        <ele>143.2</ele>
        <time>2023-12-20T12:32:05Z</time>
      </trkpt>
      <trkpt lat="48.69736" lon="1.90412">
        <ele>143.8</ele>
        <time>2023-12-20T12:32:06Z</time>
      </trkpt>
      <trkpt lat="48.69733" lon="1.9042">
        <ele>143.4</ele>
        <time>2023-12-20T12:32:07Z</time>
      </trkpt>
      <trkpt lat="48.69728" lon="1.90429">
        <ele>143.4</ele>
        <time>2023-12-20T12:32:08Z</time>
      </trkpt>
      <trkpt lat="48.69723" lon="1.90436">
        <ele>143.4</ele>
        <time>2023-12-20T12:32:09Z</time>
      </trkpt>
      <trkpt lat="48.69717" lon="1.90444">
        <ele>143</ele>
        <time>2023-12-20T12:32:10Z</time>
      </trkpt>
      <trkpt lat="48.69711" lon="1.90451">
        <ele>142.6</ele>
        <time>2023-12-20T12:32:11Z</time>
      </trkpt>
      <trkpt lat="48.69705" lon="1.90458">
        <ele>142.6</ele>
        <time>2023-12-20T12:32:12Z</time>
      </trkpt>
      <trkpt lat="48.69698" lon="1.90465">
        <ele>142.6</ele>
        <time>2023-12-20T12:32:13Z</time>
      </trkpt>
      <trkpt lat="48.69692" lon="1.90473">
        <ele>141.6</ele>
        <time>2023-12-20T12:32:14Z</time>
      </trkpt>
      <trkpt lat="48.69685" lon="1.9048">
        <ele>140.4</ele>
        <time>2023-12-20T12:32:15Z</time>
      </trkpt>
      <trkpt lat="48.69678" lon="1.90488">
        <ele>140.4</ele>
        <time>2023-12-20T12:32:16Z</time>
      </trkpt>
      <trkpt lat="48.69671" lon="1.90495">
        <ele>140.4</ele>
        <time>2023-12-20T12:32:17Z</time>
      </trkpt>
      <trkpt lat="48.69664" lon="1.90501">
        <ele>139.4</ele>
        <time>2023-12-20T12:32:18Z</time>
      </trkpt>
      <trkpt lat="48.69654" lon="1.90512">
        <ele>138.4</ele>
        <time>2023-12-20T12:32:19Z</time>
      </trkpt>
      <trkpt lat="48.69651" lon="1.90516">
        <ele>138.4</ele>
        <time>2023-12-20T12:32:20Z</time>
      </trkpt>
      <trkpt lat="48.69647" lon="1.9052">
        <ele>138.4</ele>
        <time>2023-12-20T12:32:21Z</time>
      </trkpt>
      <trkpt lat="48.69644" lon="1.90524">
        <ele>137.4</ele>
        <time>2023-12-20T12:32:22Z</time>
      </trkpt>
      <trkpt lat="48.69644" lon="1.90524">
        <ele>135.8</ele>
        <time>2023-12-20T12:32:23Z</time>
      </trkpt>
      <trkpt lat="48.69619" lon="1.906">
        <ele>135.8</ele>
        <time>2023-12-20T12:32:24Z</time>
      </trkpt>
      <trkpt lat="48.69614" lon="1.90611">
        <ele>135.8</ele>
        <time>2023-12-20T12:32:25Z</time>
      </trkpt>
      <trkpt lat="48.69608" lon="1.90623">
        <ele>135.8</ele>
        <time>2023-12-20T12:32:26Z</time>
      </trkpt>
      <trkpt lat="48.69602" lon="1.90634">
        <ele>136.2</ele>
        <time>2023-12-20T12:32:27Z</time>
      </trkpt>
      <trkpt lat="48.69596" lon="1.90644">
        <ele>136.2</ele>
        <time>2023-12-20T12:32:28Z</time>
      </trkpt>
      <trkpt lat="48.6959" lon="1.90652">
        <ele>136.2</ele>
        <time>2023-12-20T12:32:29Z</time>
      </trkpt>
      <trkpt lat="48.69584" lon="1.90661">
        <ele>136.2</ele>
        <time>2023-12-20T12:32:30Z</time>
      </trkpt>
      <trkpt lat="48.69578" lon="1.9067">
        <ele>137.4</ele>
        <time>2023-12-20T12:32:31Z</time>
      </trkpt>
      <trkpt lat="48.69572" lon="1.90677">
        <ele>137.4</ele>
        <time>2023-12-20T12:32:32Z</time>
      </trkpt>
      <trkpt lat="48.69565" lon="1.90684">
        <ele>137.4</ele>
        <time>2023-12-20T12:32:33Z</time>
      </trkpt>
      <trkpt lat="48.69558" lon="1.9069">
        <ele>138.4</ele>
        <time>2023-12-20T12:32:34Z</time>
      </trkpt>
      <trkpt lat="48.69552" lon="1.90695">
        <ele>140.6</ele>
        <time>2023-12-20T12:32:35Z</time>
      </trkpt>
      <trkpt lat="48.69547" lon="1.90701">
        <ele>140.6</ele>
        <time>2023-12-20T12:32:36Z</time>
      </trkpt>
      <trkpt lat="48.69541" lon="1.90705">
        <ele>140.6</ele>
        <time>2023-12-20T12:32:37Z</time>
      </trkpt>
      <trkpt lat="48.69536" lon="1.90708">
        <ele>140.6</ele>
        <time>2023-12-20T12:32:38Z</time>
      </trkpt>
      <trkpt lat="48.69532" lon="1.90712">
        <ele>141.4</ele>
        <time>2023-12-20T12:32:39Z</time>
      </trkpt>
      <trkpt lat="48.69528" lon="1.90716">
        <ele>141.4</ele>
        <time>2023-12-20T12:32:40Z</time>
      </trkpt>
      <trkpt lat="48.69523" lon="1.9072">
        <ele>141.4</ele>
        <time>2023-12-20T12:32:41Z</time>
      </trkpt>
      <trkpt lat="48.69519" lon="1.90723">
        <ele>142.4</ele>
        <time>2023-12-20T12:32:42Z</time>
      </trkpt>
      <trkpt lat="48.69516" lon="1.90726">
        <ele>142.8</ele>
        <time>2023-12-20T12:32:43Z</time>
      </trkpt>
      <trkpt lat="48.69512" lon="1.90728">
        <ele>142.8</ele>
        <time>2023-12-20T12:32:44Z</time>
      </trkpt>
      <trkpt lat="48.69509" lon="1.90732">
        <ele>142.8</ele>
        <time>2023-12-20T12:32:45Z</time>
      </trkpt>
      <trkpt lat="48.69505" lon="1.90735">
        <ele>143.2</ele>
        <time>2023-12-20T12:32:46Z</time>
      </trkpt>
      <trkpt lat="48.69501" lon="1.90738">
        <ele>143.2</ele>
        <time>2023-12-20T12:32:47Z</time>
      </trkpt>
      <trkpt lat="48.69497" lon="1.90741">
        <ele>143.2</ele>
        <time>2023-12-20T12:32:48Z</time>
      </trkpt>
      <trkpt lat="48.69493" lon="1.90745">
        <ele>143.2</ele>
        <time>2023-12-20T12:32:49Z</time>
      </trkpt>
      <trkpt lat="48.69489" lon="1.90747">
        <ele>144</ele>
        <time>2023-12-20T12:32:50Z</time>
      </trkpt>
      <trkpt lat="48.69485" lon="1.90751">
        <ele>143.8</ele>
        <time>2023-12-20T12:32:51Z</time>
      </trkpt>
      <trkpt lat="48.6948" lon="1.90753">
        <ele>143.8</ele>
        <time>2023-12-20T12:32:52Z</time>
      </trkpt>
      <trkpt lat="48.69476" lon="1.90755">
        <ele>143.8</ele>
        <time>2023-12-20T12:32:53Z</time>
      </trkpt>
      <trkpt lat="48.69471" lon="1.90756">
        <ele>143.8</ele>
        <time>2023-12-20T12:32:54Z</time>
      </trkpt>
      <trkpt lat="48.69466" lon="1.90757">
        <ele>144.4</ele>
        <time>2023-12-20T12:32:55Z</time>
      </trkpt>
      <trkpt lat="48.69461" lon="1.90759">
        <ele>144.4</ele>
        <time>2023-12-20T12:32:56Z</time>
      </trkpt>
      <trkpt lat="48.69455" lon="1.90759">
        <ele>144.4</ele>
        <time>2023-12-20T12:32:57Z</time>
      </trkpt>
      <trkpt lat="48.6945" lon="1.90759">
        <ele>145.4</ele>
        <time>2023-12-20T12:32:58Z</time>
      </trkpt>
      <trkpt lat="48.69446" lon="1.9076">
        <ele>146.2</ele>
        <time>2023-12-20T12:32:59Z</time>
      </trkpt>
      <trkpt lat="48.69441" lon="1.9076">
        <ele>146.2</ele>
        <time>2023-12-20T12:33:00Z</time>
      </trkpt>
      <trkpt lat="48.69437" lon="1.90761">
        <ele>146.2</ele>
        <time>2023-12-20T12:33:01Z</time>
      </trkpt>
      <trkpt lat="48.69433" lon="1.90761">
        <ele>146.4</ele>
        <time>2023-12-20T12:33:02Z</time>
      </trkpt>
      <trkpt lat="48.69429" lon="1.90762">
        <ele>146.6</ele>
        <time>2023-12-20T12:33:03Z</time>
      </trkpt>
      <trkpt lat="48.69424" lon="1.90762">
        <ele>146.6</ele>
        <time>2023-12-20T12:33:04Z</time>
      </trkpt>
      <trkpt lat="48.69419" lon="1.90763">
        <ele>146.6</ele>
        <time>2023-12-20T12:33:05Z</time>
      </trkpt>
      <trkpt lat="48.69414" lon="1.90764">
        <ele>146.6</ele>
        <time>2023-12-20T12:33:06Z</time>
      </trkpt>
      <trkpt lat="48.69409" lon="1.90764">
        <ele>147.4</ele>
        <time>2023-12-20T12:33:07Z</time>
      </trkpt>
      <trkpt lat="48.69405" lon="1.90765">
        <ele>147.4</ele>
        <time>2023-12-20T12:33:08Z</time>
      </trkpt>
      <trkpt lat="48.69401" lon="1.90766">
        <ele>147.4</ele>
        <time>2023-12-20T12:33:09Z</time>
      </trkpt>
      <trkpt lat="48.69397" lon="1.90767">
        <ele>147</ele>
        <time>2023-12-20T12:33:10Z</time>
      </trkpt>
      <trkpt lat="48.69393" lon="1.90769">
        <ele>147</ele>
        <time>2023-12-20T12:33:11Z</time>
      </trkpt>
      <trkpt lat="48.69388" lon="1.90771">
        <ele>147</ele>
        <time>2023-12-20T12:33:12Z</time>
      </trkpt>
      <trkpt lat="48.69384" lon="1.90774">
        <ele>147</ele>
        <time>2023-12-20T12:33:13Z</time>
      </trkpt>
      <trkpt lat="48.6938" lon="1.90776">
        <ele>146.6</ele>
        <time>2023-12-20T12:33:14Z</time>
      </trkpt>
      <trkpt lat="48.69375" lon="1.90779">
        <ele>146.2</ele>
        <time>2023-12-20T12:33:15Z</time>
      </trkpt>
      <trkpt lat="48.6937" lon="1.90781">
        <ele>146.2</ele>
        <time>2023-12-20T12:33:16Z</time>
      </trkpt>
      <trkpt lat="48.69365" lon="1.90785">
        <ele>146.2</ele>
        <time>2023-12-20T12:33:17Z</time>
      </trkpt>
      <trkpt lat="48.6936" lon="1.90789">
        <ele>145.2</ele>
        <time>2023-12-20T12:33:18Z</time>
      </trkpt>
      <trkpt lat="48.69354" lon="1.90794">
        <ele>144.4</ele>
        <time>2023-12-20T12:33:19Z</time>
      </trkpt>
      <trkpt lat="48.69349" lon="1.90799">
        <ele>144.4</ele>
        <time>2023-12-20T12:33:20Z</time>
      </trkpt>
      <trkpt lat="48.69343" lon="1.90805">
        <ele>144.4</ele>
        <time>2023-12-20T12:33:21Z</time>
      </trkpt>
      <trkpt lat="48.69337" lon="1.90811">
        <ele>144.4</ele>
        <time>2023-12-20T12:33:22Z</time>
      </trkpt>
      <trkpt lat="48.69332" lon="1.90817">
        <ele>144.2</ele>
        <time>2023-12-20T12:33:23Z</time>
      </trkpt>
      <trkpt lat="48.69327" lon="1.90823">
        <ele>144.2</ele>
        <time>2023-12-20T12:33:24Z</time>
      </trkpt>
      <trkpt lat="48.69322" lon="1.9083">
        <ele>144.2</ele>
        <time>2023-12-20T12:33:25Z</time>
      </trkpt>
      <trkpt lat="48.69316" lon="1.90836">
        <ele>144.2</ele>
        <time>2023-12-20T12:33:26Z</time>
      </trkpt>
      <trkpt lat="48.69311" lon="1.90842">
        <ele>143.2</ele>
        <time>2023-12-20T12:33:27Z</time>
      </trkpt>
      <trkpt lat="48.69306" lon="1.90848">
        <ele>143.2</ele>
        <time>2023-12-20T12:33:28Z</time>
      </trkpt>
      <trkpt lat="48.693" lon="1.90854">
        <ele>143.2</ele>
        <time>2023-12-20T12:33:29Z</time>
      </trkpt>
      <trkpt lat="48.69295" lon="1.9086">
        <ele>143.2</ele>
        <time>2023-12-20T12:33:30Z</time>
      </trkpt>
      <trkpt lat="48.6929" lon="1.90867">
        <ele>143.6</ele>
        <time>2023-12-20T12:33:31Z</time>
      </trkpt>
      <trkpt lat="48.69285" lon="1.90873">
        <ele>143.6</ele>
        <time>2023-12-20T12:33:32Z</time>
      </trkpt>
      <trkpt lat="48.69279" lon="1.90878">
        <ele>143.6</ele>
        <time>2023-12-20T12:33:33Z</time>
      </trkpt>
      <trkpt lat="48.69274" lon="1.90884">
        <ele>143.2</ele>
        <time>2023-12-20T12:33:34Z</time>
      </trkpt>
      <trkpt lat="48.69269" lon="1.9089">
        <ele>142.4</ele>
        <time>2023-12-20T12:33:35Z</time>
      </trkpt>
      <trkpt lat="48.69263" lon="1.90897">
        <ele>142.4</ele>
        <time>2023-12-20T12:33:36Z</time>
      </trkpt>
      <trkpt lat="48.69258" lon="1.90903">
        <ele>142.4</ele>
        <time>2023-12-20T12:33:37Z</time>
      </trkpt>
      <trkpt lat="48.69252" lon="1.90909">
        <ele>142.4</ele>
        <time>2023-12-20T12:33:38Z</time>
      </trkpt>
      <trkpt lat="48.69246" lon="1.90916">
        <ele>142.2</ele>
        <time>2023-12-20T12:33:39Z</time>
      </trkpt>
      <trkpt lat="48.6924" lon="1.90923">
        <ele>142.2</ele>
        <time>2023-12-20T12:33:40Z</time>
      </trkpt>
      <trkpt lat="48.69234" lon="1.9093">
        <ele>142.2</ele>
        <time>2023-12-20T12:33:41Z</time>
      </trkpt>
      <trkpt lat="48.69228" lon="1.90937">
        <ele>141.2</ele>
        <time>2023-12-20T12:33:42Z</time>
      </trkpt>
      <trkpt lat="48.69222" lon="1.90944">
        <ele>140.6</ele>
        <time>2023-12-20T12:33:43Z</time>
      </trkpt>
      <trkpt lat="48.69216" lon="1.9095">
        <ele>140.6</ele>
        <time>2023-12-20T12:33:44Z</time>
      </trkpt>
      <trkpt lat="48.6921" lon="1.90957">
        <ele>140.6</ele>
        <time>2023-12-20T12:33:45Z</time>
      </trkpt>
      <trkpt lat="48.69204" lon="1.90964">
        <ele>139.6</ele>
        <time>2023-12-20T12:33:46Z</time>
      </trkpt>
      <trkpt lat="48.69197" lon="1.90972">
        <ele>139</ele>
        <time>2023-12-20T12:33:47Z</time>
      </trkpt>
      <trkpt lat="48.6919" lon="1.9098">
        <ele>139</ele>
        <time>2023-12-20T12:33:48Z</time>
      </trkpt>
      <trkpt lat="48.69183" lon="1.90987">
        <ele>139</ele>
        <time>2023-12-20T12:33:49Z</time>
      </trkpt>
      <trkpt lat="48.69176" lon="1.90995">
        <ele>138</ele>
        <time>2023-12-20T12:33:50Z</time>
      </trkpt>
      <trkpt lat="48.69169" lon="1.91002">
        <ele>135.4</ele>
        <time>2023-12-20T12:33:51Z</time>
      </trkpt>
      <trkpt lat="48.69162" lon="1.9101">
        <ele>135.4</ele>
        <time>2023-12-20T12:33:52Z</time>
      </trkpt>
      <trkpt lat="48.69154" lon="1.91018">
        <ele>135.4</ele>
        <time>2023-12-20T12:33:53Z</time>
      </trkpt>
      <trkpt lat="48.69146" lon="1.91026">
        <ele>134.4</ele>
        <time>2023-12-20T12:33:54Z</time>
      </trkpt>
      <trkpt lat="48.69139" lon="1.91035">
        <ele>132.8</ele>
        <time>2023-12-20T12:33:55Z</time>
      </trkpt>
      <trkpt lat="48.69132" lon="1.91043">
        <ele>132.8</ele>
        <time>2023-12-20T12:33:56Z</time>
      </trkpt>
      <trkpt lat="48.69125" lon="1.91054">
        <ele>132.8</ele>
        <time>2023-12-20T12:33:57Z</time>
      </trkpt>
      <trkpt lat="48.69118" lon="1.91065">
        <ele>131.8</ele>
        <time>2023-12-20T12:33:58Z</time>
      </trkpt>
      <trkpt lat="48.69113" lon="1.91076">
        <ele>129.6</ele>
        <time>2023-12-20T12:33:59Z</time>
      </trkpt>
      <trkpt lat="48.69107" lon="1.9109">
        <ele>129.6</ele>
        <time>2023-12-20T12:34:00Z</time>
      </trkpt>
      <trkpt lat="48.69102" lon="1.91104">
        <ele>129.6</ele>
        <time>2023-12-20T12:34:01Z</time>
      </trkpt>
      <trkpt lat="48.69097" lon="1.91118">
        <ele>128.6</ele>
        <time>2023-12-20T12:34:02Z</time>
      </trkpt>
      <trkpt lat="48.69091" lon="1.91133">
        <ele>128</ele>
        <time>2023-12-20T12:34:03Z</time>
      </trkpt>
      <trkpt lat="48.69086" lon="1.91146">
        <ele>128</ele>
        <time>2023-12-20T12:34:04Z</time>
      </trkpt>
      <trkpt lat="48.69079" lon="1.9116">
        <ele>128</ele>
        <time>2023-12-20T12:34:05Z</time>
      </trkpt>
      <trkpt lat="48.69072" lon="1.91172">
        <ele>128</ele>
        <time>2023-12-20T12:34:06Z</time>
      </trkpt>
      <trkpt lat="48.69066" lon="1.91182">
        <ele>127</ele>
        <time>2023-12-20T12:34:07Z</time>
      </trkpt>
      <trkpt lat="48.69059" lon="1.91192">
        <ele>127</ele>
        <time>2023-12-20T12:34:08Z</time>
      </trkpt>
      <trkpt lat="48.69052" lon="1.91201">
        <ele>127</ele>
        <time>2023-12-20T12:34:09Z</time>
      </trkpt>
      <trkpt lat="48.69046" lon="1.91207">
        <ele>127.6</ele>
        <time>2023-12-20T12:34:10Z</time>
      </trkpt>
      <trkpt lat="48.69039" lon="1.91218">
        <ele>128.2</ele>
        <time>2023-12-20T12:34:11Z</time>
      </trkpt>
      <trkpt lat="48.69033" lon="1.91227">
        <ele>128.2</ele>
        <time>2023-12-20T12:34:12Z</time>
      </trkpt>
      <trkpt lat="48.69027" lon="1.91237">
        <ele>128.2</ele>
        <time>2023-12-20T12:34:13Z</time>
      </trkpt>
      <trkpt lat="48.69021" lon="1.91246">
        <ele>128.2</ele>
        <time>2023-12-20T12:34:14Z</time>
      </trkpt>
      <trkpt lat="48.69016" lon="1.91256">
        <ele>128.6</ele>
        <time>2023-12-20T12:34:15Z</time>
      </trkpt>
      <trkpt lat="48.69011" lon="1.91266">
        <ele>128.6</ele>
        <time>2023-12-20T12:34:16Z</time>
      </trkpt>
      <trkpt lat="48.69007" lon="1.91277">
        <ele>128.6</ele>
        <time>2023-12-20T12:34:17Z</time>
      </trkpt>
      <trkpt lat="48.69003" lon="1.91287">
        <ele>129.6</ele>
        <time>2023-12-20T12:34:18Z</time>
      </trkpt>
      <trkpt lat="48.68999" lon="1.91297">
        <ele>130</ele>
        <time>2023-12-20T12:34:19Z</time>
      </trkpt>
      <trkpt lat="48.68996" lon="1.91307">
        <ele>130</ele>
        <time>2023-12-20T12:34:20Z</time>
      </trkpt>
      <trkpt lat="48.68993" lon="1.91318">
        <ele>130</ele>
        <time>2023-12-20T12:34:21Z</time>
      </trkpt>
      <trkpt lat="48.6899" lon="1.91328">
        <ele>130.6</ele>
        <time>2023-12-20T12:34:22Z</time>
      </trkpt>
      <trkpt lat="48.68989" lon="1.91338">
        <ele>131</ele>
        <time>2023-12-20T12:34:23Z</time>
      </trkpt>
      <trkpt lat="48.68987" lon="1.91348">
        <ele>131</ele>
        <time>2023-12-20T12:34:24Z</time>
      </trkpt>
      <trkpt lat="48.68985" lon="1.91357">
        <ele>131</ele>
        <time>2023-12-20T12:34:25Z</time>
      </trkpt>
      <trkpt lat="48.68983" lon="1.91368">
        <ele>131</ele>
        <time>2023-12-20T12:34:26Z</time>
      </trkpt>
      <trkpt lat="48.68981" lon="1.91377">
        <ele>131.2</ele>
        <time>2023-12-20T12:34:27Z</time>
      </trkpt>
      <trkpt lat="48.68979" lon="1.91387">
        <ele>131.2</ele>
        <time>2023-12-20T12:34:28Z</time>
      </trkpt>
      <trkpt lat="48.68978" lon="1.91396">
        <ele>131.2</ele>
        <time>2023-12-20T12:34:29Z</time>
      </trkpt>
      <trkpt lat="48.68977" lon="1.91405">
        <ele>132.2</ele>
        <time>2023-12-20T12:34:30Z</time>
      </trkpt>
      <trkpt lat="48.68976" lon="1.91413">
        <ele>132</ele>
        <time>2023-12-20T12:34:31Z</time>
      </trkpt>
      <trkpt lat="48.68974" lon="1.91421">
        <ele>132</ele>
        <time>2023-12-20T12:34:32Z</time>
      </trkpt>
      <trkpt lat="48.68973" lon="1.9143">
        <ele>132</ele>
        <time>2023-12-20T12:34:33Z</time>
      </trkpt>
      <trkpt lat="48.68972" lon="1.91438">
        <ele>132.4</ele>
        <time>2023-12-20T12:34:34Z</time>
      </trkpt>
      <trkpt lat="48.68971" lon="1.91445">
        <ele>133</ele>
        <time>2023-12-20T12:34:35Z</time>
      </trkpt>
      <trkpt lat="48.6897" lon="1.91453">
        <ele>133</ele>
        <time>2023-12-20T12:34:36Z</time>
      </trkpt>
      <trkpt lat="48.68968" lon="1.91461">
        <ele>133</ele>
        <time>2023-12-20T12:34:37Z</time>
      </trkpt>
      <trkpt lat="48.68967" lon="1.91469">
        <ele>132.4</ele>
        <time>2023-12-20T12:34:38Z</time>
      </trkpt>
      <trkpt lat="48.68966" lon="1.91476">
        <ele>132.2</ele>
        <time>2023-12-20T12:34:39Z</time>
      </trkpt>
      <trkpt lat="48.68965" lon="1.91484">
        <ele>132.2</ele>
        <time>2023-12-20T12:34:40Z</time>
      </trkpt>
      <trkpt lat="48.68964" lon="1.91493">
        <ele>132.2</ele>
        <time>2023-12-20T12:34:41Z</time>
      </trkpt>
      <trkpt lat="48.68962" lon="1.91505">
        <ele>132.2</ele>
        <time>2023-12-20T12:34:42Z</time>
      </trkpt>
      <trkpt lat="48.6896" lon="1.91515">
        <ele>131</ele>
        <time>2023-12-20T12:34:43Z</time>
      </trkpt>
      <trkpt lat="48.68959" lon="1.91526">
        <ele>131</ele>
        <time>2023-12-20T12:34:44Z</time>
      </trkpt>
      <trkpt lat="48.68957" lon="1.91537">
        <ele>131</ele>
        <time>2023-12-20T12:34:45Z</time>
      </trkpt>
      <trkpt lat="48.68956" lon="1.91548">
        <ele>130.6</ele>
        <time>2023-12-20T12:34:46Z</time>
      </trkpt>
      <trkpt lat="48.68954" lon="1.91559">
        <ele>131</ele>
        <time>2023-12-20T12:34:47Z</time>
      </trkpt>
      <trkpt lat="48.68953" lon="1.9157">
        <ele>131</ele>
        <time>2023-12-20T12:34:48Z</time>
      </trkpt>
      <trkpt lat="48.68951" lon="1.9158">
        <ele>131</ele>
        <time>2023-12-20T12:34:49Z</time>
      </trkpt>
      <trkpt lat="48.68949" lon="1.91591">
        <ele>130.4</ele>
        <time>2023-12-20T12:34:50Z</time>
      </trkpt>
      <trkpt lat="48.68948" lon="1.91601">
        <ele>130.6</ele>
        <time>2023-12-20T12:34:51Z</time>
      </trkpt>
      <trkpt lat="48.68946" lon="1.91611">
        <ele>130.6</ele>
        <time>2023-12-20T12:34:52Z</time>
      </trkpt>
      <trkpt lat="48.68945" lon="1.91621">
        <ele>130.6</ele>
        <time>2023-12-20T12:34:53Z</time>
      </trkpt>
      <trkpt lat="48.68943" lon="1.9163">
        <ele>130</ele>
        <time>2023-12-20T12:34:54Z</time>
      </trkpt>
      <trkpt lat="48.68942" lon="1.91641">
        <ele>129.8</ele>
        <time>2023-12-20T12:34:55Z</time>
      </trkpt>
      <trkpt lat="48.68941" lon="1.91651">
        <ele>129.8</ele>
        <time>2023-12-20T12:34:56Z</time>
      </trkpt>
      <trkpt lat="48.6894" lon="1.91661">
        <ele>129.8</ele>
        <time>2023-12-20T12:34:57Z</time>
      </trkpt>
      <trkpt lat="48.68939" lon="1.91671">
        <ele>129.8</ele>
        <time>2023-12-20T12:34:58Z</time>
      </trkpt>
      <trkpt lat="48.68939" lon="1.91682">
        <ele>129.6</ele>
        <time>2023-12-20T12:34:59Z</time>
      </trkpt>
      <trkpt lat="48.68939" lon="1.91692">
        <ele>129.6</ele>
        <time>2023-12-20T12:35:00Z</time>
      </trkpt>
      <trkpt lat="48.68938" lon="1.91703">
        <ele>129.6</ele>
        <time>2023-12-20T12:35:01Z</time>
      </trkpt>
      <trkpt lat="48.68938" lon="1.91713">
        <ele>130.4</ele>
        <time>2023-12-20T12:35:02Z</time>
      </trkpt>
      <trkpt lat="48.68936" lon="1.91723">
        <ele>130.2</ele>
        <time>2023-12-20T12:35:03Z</time>
      </trkpt>
      <trkpt lat="48.68934" lon="1.91734">
        <ele>130.2</ele>
        <time>2023-12-20T12:35:04Z</time>
      </trkpt>
      <trkpt lat="48.68931" lon="1.91742">
        <ele>130.2</ele>
        <time>2023-12-20T12:35:05Z</time>
      </trkpt>
      <trkpt lat="48.68927" lon="1.91749">
        <ele>130.2</ele>
        <time>2023-12-20T12:35:06Z</time>
      </trkpt>
      <trkpt lat="48.68923" lon="1.91755">
        <ele>130.4</ele>
        <time>2023-12-20T12:35:07Z</time>
      </trkpt>
      <trkpt lat="48.68918" lon="1.9176">
        <ele>130.4</ele>
        <time>2023-12-20T12:35:08Z</time>
      </trkpt>
      <trkpt lat="48.68914" lon="1.91763">
        <ele>130.4</ele>
        <time>2023-12-20T12:35:09Z</time>
      </trkpt>
      <trkpt lat="48.68908" lon="1.91767">
        <ele>131.4</ele>
        <time>2023-12-20T12:35:10Z</time>
      </trkpt>
      <trkpt lat="48.68903" lon="1.9177">
        <ele>131.4</ele>
        <time>2023-12-20T12:35:11Z</time>
      </trkpt>
      <trkpt lat="48.68899" lon="1.9177">
        <ele>131.4</ele>
        <time>2023-12-20T12:35:12Z</time>
      </trkpt>
      <trkpt lat="48.68893" lon="1.91775">
        <ele>131.4</ele>
        <time>2023-12-20T12:35:13Z</time>
      </trkpt>
      <trkpt lat="48.68889" lon="1.9178">
        <ele>132.4</ele>
        <time>2023-12-20T12:35:14Z</time>
      </trkpt>
      <trkpt lat="48.68884" lon="1.91784">
        <ele>132.6</ele>
        <time>2023-12-20T12:35:15Z</time>
      </trkpt>
      <trkpt lat="48.6888" lon="1.91789">
        <ele>132.6</ele>
        <time>2023-12-20T12:35:16Z</time>
      </trkpt>
      <trkpt lat="48.68876" lon="1.91792">
        <ele>132.6</ele>
        <time>2023-12-20T12:35:17Z</time>
      </trkpt>
      <trkpt lat="48.68873" lon="1.91795">
        <ele>133.4</ele>
        <time>2023-12-20T12:35:18Z</time>
      </trkpt>
      <trkpt lat="48.68869" lon="1.91799">
        <ele>133.8</ele>
        <time>2023-12-20T12:35:19Z</time>
      </trkpt>
      <trkpt lat="48.68866" lon="1.91803">
        <ele>133.8</ele>
        <time>2023-12-20T12:35:20Z</time>
      </trkpt>
      <trkpt lat="48.68863" lon="1.91808">
        <ele>133.8</ele>
        <time>2023-12-20T12:35:21Z</time>
      </trkpt>
      <trkpt lat="48.6886" lon="1.91811">
        <ele>134.6</ele>
        <time>2023-12-20T12:35:22Z</time>
      </trkpt>
      <trkpt lat="48.68857" lon="1.91814">
        <ele>135.4</ele>
        <time>2023-12-20T12:35:23Z</time>
      </trkpt>
      <trkpt lat="48.68855" lon="1.91817">
        <ele>135.4</ele>
        <time>2023-12-20T12:35:24Z</time>
      </trkpt>
      <trkpt lat="48.68852" lon="1.9182">
        <ele>135.4</ele>
        <time>2023-12-20T12:35:25Z</time>
      </trkpt>
      <trkpt lat="48.6885" lon="1.91824">
        <ele>135.4</ele>
        <time>2023-12-20T12:35:26Z</time>
      </trkpt>
      <trkpt lat="48.68847" lon="1.91827">
        <ele>135.4</ele>
        <time>2023-12-20T12:35:27Z</time>
      </trkpt>
      <trkpt lat="48.68844" lon="1.91831">
        <ele>135.4</ele>
        <time>2023-12-20T12:35:28Z</time>
      </trkpt>
      <trkpt lat="48.68841" lon="1.91835">
        <ele>135.4</ele>
        <time>2023-12-20T12:35:29Z</time>
      </trkpt>
      <trkpt lat="48.68838" lon="1.91837">
        <ele>136.4</ele>
        <time>2023-12-20T12:35:30Z</time>
      </trkpt>
      <trkpt lat="48.68835" lon="1.91843">
        <ele>137.6</ele>
        <time>2023-12-20T12:35:31Z</time>
      </trkpt>
      <trkpt lat="48.68832" lon="1.91848">
        <ele>137.6</ele>
        <time>2023-12-20T12:35:32Z</time>
      </trkpt>
      <trkpt lat="48.68829" lon="1.91852">
        <ele>137.6</ele>
        <time>2023-12-20T12:35:33Z</time>
      </trkpt>
      <trkpt lat="48.68826" lon="1.91856">
        <ele>138.6</ele>
        <time>2023-12-20T12:35:34Z</time>
      </trkpt>
      <trkpt lat="48.68824" lon="1.9186">
        <ele>139</ele>
        <time>2023-12-20T12:35:35Z</time>
      </trkpt>
      <trkpt lat="48.68821" lon="1.91863">
        <ele>139</ele>
        <time>2023-12-20T12:35:36Z</time>
      </trkpt>
      <trkpt lat="48.68819" lon="1.91866">
        <ele>139</ele>
        <time>2023-12-20T12:35:37Z</time>
      </trkpt>
      <trkpt lat="48.68817" lon="1.9187">
        <ele>139</ele>
        <time>2023-12-20T12:35:38Z</time>
      </trkpt>
      <trkpt lat="48.68815" lon="1.91873">
        <ele>139.6</ele>
        <time>2023-12-20T12:35:39Z</time>
      </trkpt>
      <trkpt lat="48.68812" lon="1.91876">
        <ele>139.6</ele>
        <time>2023-12-20T12:35:40Z</time>
      </trkpt>
      <trkpt lat="48.6881" lon="1.9188">
        <ele>139.6</ele>
        <time>2023-12-20T12:35:41Z</time>
      </trkpt>
      <trkpt lat="48.68808" lon="1.91884">
        <ele>140</ele>
        <time>2023-12-20T12:35:42Z</time>
      </trkpt>
      <trkpt lat="48.68806" lon="1.91889">
        <ele>140</ele>
        <time>2023-12-20T12:35:43Z</time>
      </trkpt>
      <trkpt lat="48.68803" lon="1.91894">
        <ele>140</ele>
        <time>2023-12-20T12:35:44Z</time>
      </trkpt>
      <trkpt lat="48.68801" lon="1.91898">
        <ele>140</ele>
        <time>2023-12-20T12:35:45Z</time>
      </trkpt>
      <trkpt lat="48.68798" lon="1.91903">
        <ele>139.8</ele>
        <time>2023-12-20T12:35:46Z</time>
      </trkpt>
      <trkpt lat="48.68796" lon="1.91907">
        <ele>139.8</ele>
        <time>2023-12-20T12:35:47Z</time>
      </trkpt>
      <trkpt lat="48.68795" lon="1.91909">
        <ele>139.8</ele>
        <time>2023-12-20T12:35:48Z</time>
      </trkpt>
      <trkpt lat="48.68792" lon="1.91913">
        <ele>139.8</ele>
        <time>2023-12-20T12:35:49Z</time>
      </trkpt>
      <trkpt lat="48.6879" lon="1.91917">
        <ele>139.4</ele>
        <time>2023-12-20T12:35:50Z</time>
      </trkpt>
      <trkpt lat="48.68787" lon="1.91921">
        <ele>139.4</ele>
        <time>2023-12-20T12:35:51Z</time>
      </trkpt>
      <trkpt lat="48.68784" lon="1.91927">
        <ele>139.4</ele>
        <time>2023-12-20T12:35:52Z</time>
      </trkpt>
      <trkpt lat="48.68781" lon="1.91935">
        <ele>139.4</ele>
        <time>2023-12-20T12:35:53Z</time>
      </trkpt>
      <trkpt lat="48.68778" lon="1.9194">
        <ele>138.6</ele>
        <time>2023-12-20T12:35:54Z</time>
      </trkpt>
      <trkpt lat="48.68775" lon="1.91946">
        <ele>138.8</ele>
        <time>2023-12-20T12:35:55Z</time>
      </trkpt>
      <trkpt lat="48.68772" lon="1.91952">
        <ele>138.8</ele>
        <time>2023-12-20T12:35:56Z</time>
      </trkpt>
      <trkpt lat="48.68769" lon="1.91959">
        <ele>138.8</ele>
        <time>2023-12-20T12:35:57Z</time>
      </trkpt>
      <trkpt lat="48.68765" lon="1.91967">
        <ele>137.8</ele>
        <time>2023-12-20T12:35:58Z</time>
      </trkpt>
      <trkpt lat="48.68762" lon="1.91973">
        <ele>137.6</ele>
        <time>2023-12-20T12:35:59Z</time>
      </trkpt>
      <trkpt lat="48.68759" lon="1.9198">
        <ele>137.6</ele>
        <time>2023-12-20T12:36:00Z</time>
      </trkpt>
      <trkpt lat="48.68755" lon="1.91985">
        <ele>137.6</ele>
        <time>2023-12-20T12:36:01Z</time>
      </trkpt>
      <trkpt lat="48.68752" lon="1.91992">
        <ele>137.6</ele>
        <time>2023-12-20T12:36:02Z</time>
      </trkpt>
      <trkpt lat="48.68748" lon="1.91998">
        <ele>137.8</ele>
        <time>2023-12-20T12:36:03Z</time>
      </trkpt>
      <trkpt lat="48.68745" lon="1.92006">
        <ele>137.8</ele>
        <time>2023-12-20T12:36:04Z</time>
      </trkpt>
      <trkpt lat="48.68741" lon="1.92013">
        <ele>137.8</ele>
        <time>2023-12-20T12:36:05Z</time>
      </trkpt>
      <trkpt lat="48.68737" lon="1.9202">
        <ele>138.8</ele>
        <time>2023-12-20T12:36:06Z</time>
      </trkpt>
      <trkpt lat="48.68733" lon="1.92027">
        <ele>139.2</ele>
        <time>2023-12-20T12:36:07Z</time>
      </trkpt>
      <trkpt lat="48.68729" lon="1.92036">
        <ele>139.2</ele>
        <time>2023-12-20T12:36:08Z</time>
      </trkpt>
      <trkpt lat="48.68725" lon="1.92044">
        <ele>139.2</ele>
        <time>2023-12-20T12:36:09Z</time>
      </trkpt>
      <trkpt lat="48.68722" lon="1.9205">
        <ele>139.2</ele>
        <time>2023-12-20T12:36:10Z</time>
      </trkpt>
      <trkpt lat="48.68718" lon="1.92055">
        <ele>139.4</ele>
        <time>2023-12-20T12:36:11Z</time>
      </trkpt>
      <trkpt lat="48.68715" lon="1.9206">
        <ele>139.4</ele>
        <time>2023-12-20T12:36:12Z</time>
      </trkpt>
      <trkpt lat="48.68711" lon="1.92066">
        <ele>139.4</ele>
        <time>2023-12-20T12:36:13Z</time>
      </trkpt>
      <trkpt lat="48.68708" lon="1.92071">
        <ele>139.4</ele>
        <time>2023-12-20T12:36:14Z</time>
      </trkpt>
      <trkpt lat="48.68704" lon="1.92076">
        <ele>138.6</ele>
        <time>2023-12-20T12:36:15Z</time>
      </trkpt>
      <trkpt lat="48.68701" lon="1.92082">
        <ele>138.6</ele>
        <time>2023-12-20T12:36:16Z</time>
      </trkpt>
      <trkpt lat="48.68697" lon="1.92088">
        <ele>138.6</ele>
        <time>2023-12-20T12:36:17Z</time>
      </trkpt>
      <trkpt lat="48.68693" lon="1.92094">
        <ele>137.8</ele>
        <time>2023-12-20T12:36:18Z</time>
      </trkpt>
      <trkpt lat="48.68688" lon="1.921">
        <ele>137.8</ele>
        <time>2023-12-20T12:36:19Z</time>
      </trkpt>
      <trkpt lat="48.68684" lon="1.92107">
        <ele>137.8</ele>
        <time>2023-12-20T12:36:20Z</time>
      </trkpt>
      <trkpt lat="48.6868" lon="1.92113">
        <ele>137.8</ele>
        <time>2023-12-20T12:36:21Z</time>
      </trkpt>
      <trkpt lat="48.68675" lon="1.9212">
        <ele>136.8</ele>
        <time>2023-12-20T12:36:22Z</time>
      </trkpt>
      <trkpt lat="48.68671" lon="1.92126">
        <ele>136</ele>
        <time>2023-12-20T12:36:23Z</time>
      </trkpt>
      <trkpt lat="48.68667" lon="1.92132">
        <ele>136</ele>
        <time>2023-12-20T12:36:24Z</time>
      </trkpt>
      <trkpt lat="48.68663" lon="1.92139">
        <ele>136</ele>
        <time>2023-12-20T12:36:25Z</time>
      </trkpt>
      <trkpt lat="48.68658" lon="1.92145">
        <ele>135</ele>
        <time>2023-12-20T12:36:26Z</time>
      </trkpt>
      <trkpt lat="48.68654" lon="1.92151">
        <ele>133.4</ele>
        <time>2023-12-20T12:36:27Z</time>
      </trkpt>
      <trkpt lat="48.68649" lon="1.92158">
        <ele>133.4</ele>
        <time>2023-12-20T12:36:28Z</time>
      </trkpt>
      <trkpt lat="48.68644" lon="1.92166">
        <ele>133.4</ele>
        <time>2023-12-20T12:36:29Z</time>
      </trkpt>
      <trkpt lat="48.68639" lon="1.92174">
        <ele>132.4</ele>
        <time>2023-12-20T12:36:30Z</time>
      </trkpt>
      <trkpt lat="48.68634" lon="1.92183">
        <ele>132</ele>
        <time>2023-12-20T12:36:31Z</time>
      </trkpt>
      <trkpt lat="48.68629" lon="1.92191">
        <ele>132</ele>
        <time>2023-12-20T12:36:32Z</time>
      </trkpt>
      <trkpt lat="48.68624" lon="1.922">
        <ele>132</ele>
        <time>2023-12-20T12:36:33Z</time>
      </trkpt>
      <trkpt lat="48.6862" lon="1.92208">
        <ele>132</ele>
        <time>2023-12-20T12:36:34Z</time>
      </trkpt>
      <trkpt lat="48.68616" lon="1.92219">
        <ele>132.4</ele>
        <time>2023-12-20T12:36:35Z</time>
      </trkpt>
      <trkpt lat="48.68611" lon="1.92229">
        <ele>132.4</ele>
        <time>2023-12-20T12:36:36Z</time>
      </trkpt>
      <trkpt lat="48.68608" lon="1.9224">
        <ele>132.4</ele>
        <time>2023-12-20T12:36:37Z</time>
      </trkpt>
      <trkpt lat="48.68604" lon="1.9225">
        <ele>132.2</ele>
        <time>2023-12-20T12:36:38Z</time>
      </trkpt>
      <trkpt lat="48.686" lon="1.9226">
        <ele>132.8</ele>
        <time>2023-12-20T12:36:39Z</time>
      </trkpt>
      <trkpt lat="48.68597" lon="1.9227">
        <ele>132.8</ele>
        <time>2023-12-20T12:36:40Z</time>
      </trkpt>
      <trkpt lat="48.68593" lon="1.9228">
        <ele>132.8</ele>
        <time>2023-12-20T12:36:41Z</time>
      </trkpt>
      <trkpt lat="48.6859" lon="1.9229">
        <ele>133.4</ele>
        <time>2023-12-20T12:36:42Z</time>
      </trkpt>
      <trkpt lat="48.68587" lon="1.92299">
        <ele>133.6</ele>
        <time>2023-12-20T12:36:43Z</time>
      </trkpt>
      <trkpt lat="48.68585" lon="1.92307">
        <ele>133.6</ele>
        <time>2023-12-20T12:36:44Z</time>
      </trkpt>
      <trkpt lat="48.68582" lon="1.92314">
        <ele>133.6</ele>
        <time>2023-12-20T12:36:45Z</time>
      </trkpt>
      <trkpt lat="48.6858" lon="1.92321">
        <ele>134.6</ele>
        <time>2023-12-20T12:36:46Z</time>
      </trkpt>
      <trkpt lat="48.68577" lon="1.9233">
        <ele>135.4</ele>
        <time>2023-12-20T12:36:47Z</time>
      </trkpt>
      <trkpt lat="48.68575" lon="1.92337">
        <ele>135.4</ele>
        <time>2023-12-20T12:36:48Z</time>
      </trkpt>
      <trkpt lat="48.68573" lon="1.92345">
        <ele>135.4</ele>
        <time>2023-12-20T12:36:49Z</time>
      </trkpt>
      <trkpt lat="48.68571" lon="1.92352">
        <ele>135.4</ele>
        <time>2023-12-20T12:36:50Z</time>
      </trkpt>
      <trkpt lat="48.68568" lon="1.92359">
        <ele>135.8</ele>
        <time>2023-12-20T12:36:51Z</time>
      </trkpt>
      <trkpt lat="48.68566" lon="1.92365">
        <ele>135.8</ele>
        <time>2023-12-20T12:36:52Z</time>
      </trkpt>
      <trkpt lat="48.68564" lon="1.92369">
        <ele>135.8</ele>
        <time>2023-12-20T12:36:53Z</time>
      </trkpt>
      <trkpt lat="48.68562" lon="1.92376">
        <ele>136.2</ele>
        <time>2023-12-20T12:36:54Z</time>
      </trkpt>
      <trkpt lat="48.6856" lon="1.92381">
        <ele>135.4</ele>
        <time>2023-12-20T12:36:55Z</time>
      </trkpt>
      <trkpt lat="48.68557" lon="1.92387">
        <ele>135.4</ele>
        <time>2023-12-20T12:36:56Z</time>
      </trkpt>
      <trkpt lat="48.68555" lon="1.92394">
        <ele>135.4</ele>
        <time>2023-12-20T12:36:57Z</time>
      </trkpt>
      <trkpt lat="48.68553" lon="1.92403">
        <ele>135.4</ele>
        <time>2023-12-20T12:36:58Z</time>
      </trkpt>
      <trkpt lat="48.6855" lon="1.92412">
        <ele>133.4</ele>
        <time>2023-12-20T12:36:59Z</time>
      </trkpt>
      <trkpt lat="48.68548" lon="1.92421">
        <ele>133.4</ele>
        <time>2023-12-20T12:37:00Z</time>
      </trkpt>
      <trkpt lat="48.68546" lon="1.9243">
        <ele>133.4</ele>
        <time>2023-12-20T12:37:01Z</time>
      </trkpt>
      <trkpt lat="48.68544" lon="1.92439">
        <ele>132.4</ele>
        <time>2023-12-20T12:37:02Z</time>
      </trkpt>
      <trkpt lat="48.68541" lon="1.9245">
        <ele>131.8</ele>
        <time>2023-12-20T12:37:03Z</time>
      </trkpt>
      <trkpt lat="48.68539" lon="1.9246">
        <ele>131.8</ele>
        <time>2023-12-20T12:37:04Z</time>
      </trkpt>
      <trkpt lat="48.68536" lon="1.9247">
        <ele>131.8</ele>
        <time>2023-12-20T12:37:05Z</time>
      </trkpt>
      <trkpt lat="48.68534" lon="1.92481">
        <ele>131.8</ele>
        <time>2023-12-20T12:37:06Z</time>
      </trkpt>
      <trkpt lat="48.68531" lon="1.92491">
        <ele>131.2</ele>
        <time>2023-12-20T12:37:07Z</time>
      </trkpt>
      <trkpt lat="48.68529" lon="1.92501">
        <ele>131.2</ele>
        <time>2023-12-20T12:37:08Z</time>
      </trkpt>
      <trkpt lat="48.68527" lon="1.92512">
        <ele>131.2</ele>
        <time>2023-12-20T12:37:09Z</time>
      </trkpt>
      <trkpt lat="48.68524" lon="1.92522">
        <ele>131.2</ele>
        <time>2023-12-20T12:37:10Z</time>
      </trkpt>
      <trkpt lat="48.68521" lon="1.92532">
        <ele>130.2</ele>
        <time>2023-12-20T12:37:11Z</time>
      </trkpt>
      <trkpt lat="48.68519" lon="1.92541">
        <ele>130.2</ele>
        <time>2023-12-20T12:37:12Z</time>
      </trkpt>
      <trkpt lat="48.68516" lon="1.92552">
        <ele>130.2</ele>
        <time>2023-12-20T12:37:13Z</time>
      </trkpt>
      <trkpt lat="48.68513" lon="1.92562">
        <ele>130.8</ele>
        <time>2023-12-20T12:37:14Z</time>
      </trkpt>
      <trkpt lat="48.6851" lon="1.92571">
        <ele>130.8</ele>
        <time>2023-12-20T12:37:15Z</time>
      </trkpt>
      <trkpt lat="48.68507" lon="1.9258">
        <ele>130.8</ele>
        <time>2023-12-20T12:37:16Z</time>
      </trkpt>
      <trkpt lat="48.68504" lon="1.92589">
        <ele>130.8</ele>
        <time>2023-12-20T12:37:17Z</time>
      </trkpt>
      <trkpt lat="48.68501" lon="1.92598">
        <ele>131</ele>
        <time>2023-12-20T12:37:18Z</time>
      </trkpt>
      <trkpt lat="48.68497" lon="1.92606">
        <ele>131.2</ele>
        <time>2023-12-20T12:37:19Z</time>
      </trkpt>
      <trkpt lat="48.68494" lon="1.92613">
        <ele>131.2</ele>
        <time>2023-12-20T12:37:20Z</time>
      </trkpt>
      <trkpt lat="48.6849" lon="1.9262">
        <ele>131.2</ele>
        <time>2023-12-20T12:37:21Z</time>
      </trkpt>
      <trkpt lat="48.68486" lon="1.92627">
        <ele>132</ele>
        <time>2023-12-20T12:37:22Z</time>
      </trkpt>
      <trkpt lat="48.68483" lon="1.92633">
        <ele>132.2</ele>
        <time>2023-12-20T12:37:23Z</time>
      </trkpt>
      <trkpt lat="48.68479" lon="1.92639">
        <ele>132.2</ele>
        <time>2023-12-20T12:37:24Z</time>
      </trkpt>
      <trkpt lat="48.68475" lon="1.92647">
        <ele>132.2</ele>
        <time>2023-12-20T12:37:25Z</time>
      </trkpt>
      <trkpt lat="48.68472" lon="1.92653">
        <ele>132.8</ele>
        <time>2023-12-20T12:37:26Z</time>
      </trkpt>
      <trkpt lat="48.68468" lon="1.92659">
        <ele>133</ele>
        <time>2023-12-20T12:37:27Z</time>
      </trkpt>
      <trkpt lat="48.68465" lon="1.92665">
        <ele>133</ele>
        <time>2023-12-20T12:37:28Z</time>
      </trkpt>
      <trkpt lat="48.68462" lon="1.92672">
        <ele>133</ele>
        <time>2023-12-20T12:37:29Z</time>
      </trkpt>
      <trkpt lat="48.68458" lon="1.92678">
        <ele>134</ele>
        <time>2023-12-20T12:37:30Z</time>
      </trkpt>
      <trkpt lat="48.68455" lon="1.92684">
        <ele>134</ele>
        <time>2023-12-20T12:37:31Z</time>
      </trkpt>
      <trkpt lat="48.68452" lon="1.9269">
        <ele>134</ele>
        <time>2023-12-20T12:37:32Z</time>
      </trkpt>
      <trkpt lat="48.68449" lon="1.92696">
        <ele>134</ele>
        <time>2023-12-20T12:37:33Z</time>
      </trkpt>
      <trkpt lat="48.68446" lon="1.92703">
        <ele>134.2</ele>
        <time>2023-12-20T12:37:34Z</time>
      </trkpt>
      <trkpt lat="48.68442" lon="1.9271">
        <ele>134.8</ele>
        <time>2023-12-20T12:37:35Z</time>
      </trkpt>
      <trkpt lat="48.68439" lon="1.92716">
        <ele>134.8</ele>
        <time>2023-12-20T12:37:36Z</time>
      </trkpt>
      <trkpt lat="48.68436" lon="1.92722">
        <ele>134.8</ele>
        <time>2023-12-20T12:37:37Z</time>
      </trkpt>
      <trkpt lat="48.68433" lon="1.92727">
        <ele>135.4</ele>
        <time>2023-12-20T12:37:38Z</time>
      </trkpt>
      <trkpt lat="48.6843" lon="1.92732">
        <ele>135.8</ele>
        <time>2023-12-20T12:37:39Z</time>
      </trkpt>
      <trkpt lat="48.68428" lon="1.92736">
        <ele>135.8</ele>
        <time>2023-12-20T12:37:40Z</time>
      </trkpt>
      <trkpt lat="48.68425" lon="1.92741">
        <ele>135.8</ele>
        <time>2023-12-20T12:37:41Z</time>
      </trkpt>
      <trkpt lat="48.68423" lon="1.92746">
        <ele>135.8</ele>
        <time>2023-12-20T12:37:42Z</time>
      </trkpt>
      <trkpt lat="48.6842" lon="1.92753">
        <ele>136.8</ele>
        <time>2023-12-20T12:37:43Z</time>
      </trkpt>
      <trkpt lat="48.68417" lon="1.92758">
        <ele>136.8</ele>
        <time>2023-12-20T12:37:44Z</time>
      </trkpt>
      <trkpt lat="48.68414" lon="1.92765">
        <ele>136.8</ele>
        <time>2023-12-20T12:37:45Z</time>
      </trkpt>
      <trkpt lat="48.68411" lon="1.92768">
        <ele>137.4</ele>
        <time>2023-12-20T12:37:46Z</time>
      </trkpt>
      <trkpt lat="48.68409" lon="1.92771">
        <ele>137.4</ele>
        <time>2023-12-20T12:37:47Z</time>
      </trkpt>
      <trkpt lat="48.68407" lon="1.92776">
        <ele>137.4</ele>
        <time>2023-12-20T12:37:48Z</time>
      </trkpt>
      <trkpt lat="48.68404" lon="1.92781">
        <ele>137.4</ele>
        <time>2023-12-20T12:37:49Z</time>
      </trkpt>
      <trkpt lat="48.68402" lon="1.92785">
        <ele>137.6</ele>
        <time>2023-12-20T12:37:50Z</time>
      </trkpt>
      <trkpt lat="48.68399" lon="1.92789">
        <ele>138.2</ele>
        <time>2023-12-20T12:37:51Z</time>
      </trkpt>
      <trkpt lat="48.68397" lon="1.92794">
        <ele>138.2</ele>
        <time>2023-12-20T12:37:52Z</time>
      </trkpt>
      <trkpt lat="48.68394" lon="1.92798">
        <ele>138.2</ele>
        <time>2023-12-20T12:37:53Z</time>
      </trkpt>
      <trkpt lat="48.68392" lon="1.92802">
        <ele>138.4</ele>
        <time>2023-12-20T12:37:54Z</time>
      </trkpt>
      <trkpt lat="48.6839" lon="1.92805">
        <ele>138.8</ele>
        <time>2023-12-20T12:37:55Z</time>
      </trkpt>
      <trkpt lat="48.68387" lon="1.92809">
        <ele>138.8</ele>
        <time>2023-12-20T12:37:56Z</time>
      </trkpt>
      <trkpt lat="48.68385" lon="1.92815">
        <ele>138.8</ele>
        <time>2023-12-20T12:37:57Z</time>
      </trkpt>
      <trkpt lat="48.68383" lon="1.92818">
        <ele>138.8</ele>
        <time>2023-12-20T12:37:58Z</time>
      </trkpt>
      <trkpt lat="48.68381" lon="1.92822">
        <ele>139.4</ele>
        <time>2023-12-20T12:37:59Z</time>
      </trkpt>
      <trkpt lat="48.68378" lon="1.92825">
        <ele>139.4</ele>
        <time>2023-12-20T12:38:00Z</time>
      </trkpt>
      <trkpt lat="48.68376" lon="1.9283">
        <ele>139.4</ele>
        <time>2023-12-20T12:38:01Z</time>
      </trkpt>
      <trkpt lat="48.68373" lon="1.92834">
        <ele>140.2</ele>
        <time>2023-12-20T12:38:02Z</time>
      </trkpt>
      <trkpt lat="48.68371" lon="1.92839">
        <ele>140.4</ele>
        <time>2023-12-20T12:38:03Z</time>
      </trkpt>
      <trkpt lat="48.68369" lon="1.92842">
        <ele>140.4</ele>
        <time>2023-12-20T12:38:04Z</time>
      </trkpt>
      <trkpt lat="48.68366" lon="1.92846">
        <ele>140.4</ele>
        <time>2023-12-20T12:38:05Z</time>
      </trkpt>
      <trkpt lat="48.68363" lon="1.92851">
        <ele>141.2</ele>
        <time>2023-12-20T12:38:06Z</time>
      </trkpt>
      <trkpt lat="48.68361" lon="1.92855">
        <ele>141.2</ele>
        <time>2023-12-20T12:38:07Z</time>
      </trkpt>
      <trkpt lat="48.68358" lon="1.92858">
        <ele>141.2</ele>
        <time>2023-12-20T12:38:08Z</time>
      </trkpt>
      <trkpt lat="48.68356" lon="1.92862">
        <ele>141.2</ele>
        <time>2023-12-20T12:38:09Z</time>
      </trkpt>
      <trkpt lat="48.68354" lon="1.92865">
        <ele>142</ele>
        <time>2023-12-20T12:38:10Z</time>
      </trkpt>
      <trkpt lat="48.68351" lon="1.92867">
        <ele>142.2</ele>
        <time>2023-12-20T12:38:11Z</time>
      </trkpt>
      <trkpt lat="48.68349" lon="1.92872">
        <ele>142.2</ele>
        <time>2023-12-20T12:38:12Z</time>
      </trkpt>
      <trkpt lat="48.68347" lon="1.92875">
        <ele>142.2</ele>
        <time>2023-12-20T12:38:13Z</time>
      </trkpt>
      <trkpt lat="48.68344" lon="1.92878">
        <ele>142.6</ele>
        <time>2023-12-20T12:38:14Z</time>
      </trkpt>
      <trkpt lat="48.68342" lon="1.92882">
        <ele>143</ele>
        <time>2023-12-20T12:38:15Z</time>
      </trkpt>
      <trkpt lat="48.6834" lon="1.92885">
        <ele>143</ele>
        <time>2023-12-20T12:38:16Z</time>
      </trkpt>
      <trkpt lat="48.68337" lon="1.92888">
        <ele>143</ele>
        <time>2023-12-20T12:38:17Z</time>
      </trkpt>
      <trkpt lat="48.68335" lon="1.92891">
        <ele>143</ele>
        <time>2023-12-20T12:38:18Z</time>
      </trkpt>
      <trkpt lat="48.68332" lon="1.92894">
        <ele>143.8</ele>
        <time>2023-12-20T12:38:19Z</time>
      </trkpt>
      <trkpt lat="48.6833" lon="1.92897">
        <ele>143.8</ele>
        <time>2023-12-20T12:38:20Z</time>
      </trkpt>
      <trkpt lat="48.68327" lon="1.929">
        <ele>143.8</ele>
        <time>2023-12-20T12:38:21Z</time>
      </trkpt>
      <trkpt lat="48.68325" lon="1.92904">
        <ele>144.6</ele>
        <time>2023-12-20T12:38:22Z</time>
      </trkpt>
      <trkpt lat="48.68323" lon="1.92906">
        <ele>144.6</ele>
        <time>2023-12-20T12:38:23Z</time>
      </trkpt>
      <trkpt lat="48.6832" lon="1.92908">
        <ele>144.6</ele>
        <time>2023-12-20T12:38:24Z</time>
      </trkpt>
      <trkpt lat="48.68318" lon="1.9291">
        <ele>144.6</ele>
        <time>2023-12-20T12:38:25Z</time>
      </trkpt>
      <trkpt lat="48.68316" lon="1.92914">
        <ele>145.4</ele>
        <time>2023-12-20T12:38:26Z</time>
      </trkpt>
      <trkpt lat="48.68314" lon="1.92917">
        <ele>145.8</ele>
        <time>2023-12-20T12:38:27Z</time>
      </trkpt>
      <trkpt lat="48.68312" lon="1.9292">
        <ele>145.8</ele>
        <time>2023-12-20T12:38:28Z</time>
      </trkpt>
      <trkpt lat="48.6831" lon="1.92923">
        <ele>145.8</ele>
        <time>2023-12-20T12:38:29Z</time>
      </trkpt>
      <trkpt lat="48.68308" lon="1.92927">
        <ele>146.4</ele>
        <time>2023-12-20T12:38:30Z</time>
      </trkpt>
      <trkpt lat="48.68307" lon="1.92931">
        <ele>146.6</ele>
        <time>2023-12-20T12:38:31Z</time>
      </trkpt>
      <trkpt lat="48.68305" lon="1.92934">
        <ele>146.6</ele>
        <time>2023-12-20T12:38:32Z</time>
      </trkpt>
      <trkpt lat="48.68303" lon="1.92936">
        <ele>146.6</ele>
        <time>2023-12-20T12:38:33Z</time>
      </trkpt>
      <trkpt lat="48.68301" lon="1.9294">
        <ele>147.6</ele>
        <time>2023-12-20T12:38:34Z</time>
      </trkpt>
      <trkpt lat="48.68299" lon="1.92943">
        <ele>147.6</ele>
        <time>2023-12-20T12:38:35Z</time>
      </trkpt>
      <trkpt lat="48.68297" lon="1.92944">
        <ele>147.6</ele>
        <time>2023-12-20T12:38:36Z</time>
      </trkpt>
      <trkpt lat="48.68295" lon="1.92947">
        <ele>147.6</ele>
        <time>2023-12-20T12:38:37Z</time>
      </trkpt>
      <trkpt lat="48.68294" lon="1.9295">
        <ele>148.4</ele>
        <time>2023-12-20T12:38:38Z</time>
      </trkpt>
      <trkpt lat="48.68291" lon="1.92952">
        <ele>148.8</ele>
        <time>2023-12-20T12:38:39Z</time>
      </trkpt>
      <trkpt lat="48.6829" lon="1.92954">
        <ele>148.8</ele>
        <time>2023-12-20T12:38:40Z</time>
      </trkpt>
      <trkpt lat="48.68288" lon="1.92957">
        <ele>148.8</ele>
        <time>2023-12-20T12:38:41Z</time>
      </trkpt>
      <trkpt lat="48.68286" lon="1.9296">
        <ele>148.8</ele>
        <time>2023-12-20T12:38:42Z</time>
      </trkpt>
      <trkpt lat="48.68283" lon="1.92965">
        <ele>149.2</ele>
        <time>2023-12-20T12:38:43Z</time>
      </trkpt>
      <trkpt lat="48.68281" lon="1.92968">
        <ele>149.2</ele>
        <time>2023-12-20T12:38:44Z</time>
      </trkpt>
      <trkpt lat="48.68279" lon="1.9297">
        <ele>149.2</ele>
        <time>2023-12-20T12:38:45Z</time>
      </trkpt>
      <trkpt lat="48.68277" lon="1.92972">
        <ele>149.2</ele>
        <time>2023-12-20T12:38:46Z</time>
      </trkpt>
      <trkpt lat="48.68275" lon="1.92975">
        <ele>150.2</ele>
        <time>2023-12-20T12:38:47Z</time>
      </trkpt>
      <trkpt lat="48.68274" lon="1.92976">
        <ele>150.2</ele>
        <time>2023-12-20T12:38:48Z</time>
      </trkpt>
      <trkpt lat="48.68272" lon="1.92979">
        <ele>150.2</ele>
        <time>2023-12-20T12:38:49Z</time>
      </trkpt>
      <trkpt lat="48.68269" lon="1.92983">
        <ele>150.2</ele>
        <time>2023-12-20T12:38:50Z</time>
      </trkpt>
      <trkpt lat="48.68267" lon="1.92985">
        <ele>151</ele>
        <time>2023-12-20T12:38:51Z</time>
      </trkpt>
      <trkpt lat="48.68265" lon="1.92988">
        <ele>151</ele>
        <time>2023-12-20T12:38:52Z</time>
      </trkpt>
      <trkpt lat="48.68263" lon="1.92991">
        <ele>151</ele>
        <time>2023-12-20T12:38:53Z</time>
      </trkpt>
      <trkpt lat="48.68261" lon="1.92994">
        <ele>151</ele>
        <time>2023-12-20T12:38:54Z</time>
      </trkpt>
      <trkpt lat="48.68258" lon="1.92998">
        <ele>151.8</ele>
        <time>2023-12-20T12:38:55Z</time>
      </trkpt>
      <trkpt lat="48.68256" lon="1.93">
        <ele>151.8</ele>
        <time>2023-12-20T12:38:56Z</time>
      </trkpt>
      <trkpt lat="48.68254" lon="1.93004">
        <ele>151.8</ele>
        <time>2023-12-20T12:38:57Z</time>
      </trkpt>
      <trkpt lat="48.68252" lon="1.93008">
        <ele>152.6</ele>
        <time>2023-12-20T12:38:58Z</time>
      </trkpt>
      <trkpt lat="48.68249" lon="1.93016">
        <ele>152.6</ele>
        <time>2023-12-20T12:38:59Z</time>
      </trkpt>
      <trkpt lat="48.68246" lon="1.93019">
        <ele>152.6</ele>
        <time>2023-12-20T12:39:00Z</time>
      </trkpt>
      <trkpt lat="48.68244" lon="1.93023">
        <ele>152.6</ele>
        <time>2023-12-20T12:39:01Z</time>
      </trkpt>
      <trkpt lat="48.68243" lon="1.93026">
        <ele>153.6</ele>
        <time>2023-12-20T12:39:02Z</time>
      </trkpt>
      <trkpt lat="48.68241" lon="1.9303">
        <ele>154.2</ele>
        <time>2023-12-20T12:39:03Z</time>
      </trkpt>
      <trkpt lat="48.6824" lon="1.93031">
        <ele>154.2</ele>
        <time>2023-12-20T12:39:04Z</time>
      </trkpt>
      <trkpt lat="48.68239" lon="1.93034">
        <ele>154.2</ele>
        <time>2023-12-20T12:39:05Z</time>
      </trkpt>
      <trkpt lat="48.68237" lon="1.93036">
        <ele>154.2</ele>
        <time>2023-12-20T12:39:06Z</time>
      </trkpt>
      <trkpt lat="48.68237" lon="1.93038">
        <ele>154.6</ele>
        <time>2023-12-20T12:39:07Z</time>
      </trkpt>
      <trkpt lat="48.68236" lon="1.93041">
        <ele>154.6</ele>
        <time>2023-12-20T12:39:08Z</time>
      </trkpt>
      <trkpt lat="48.68236" lon="1.93043">
        <ele>154.6</ele>
        <time>2023-12-20T12:39:09Z</time>
      </trkpt>
      <trkpt lat="48.68235" lon="1.93047">
        <ele>154.6</ele>
        <time>2023-12-20T12:39:10Z</time>
      </trkpt>
      <trkpt lat="48.68234" lon="1.93053">
        <ele>154.2</ele>
        <time>2023-12-20T12:39:11Z</time>
      </trkpt>
      <trkpt lat="48.68234" lon="1.93058">
        <ele>154.2</ele>
        <time>2023-12-20T12:39:12Z</time>
      </trkpt>
      <trkpt lat="48.68233" lon="1.93064">
        <ele>154.2</ele>
        <time>2023-12-20T12:39:13Z</time>
      </trkpt>
      <trkpt lat="48.68232" lon="1.9307">
        <ele>154.6</ele>
        <time>2023-12-20T12:39:14Z</time>
      </trkpt>
      <trkpt lat="48.68232" lon="1.93076">
        <ele>154.6</ele>
        <time>2023-12-20T12:39:15Z</time>
      </trkpt>
      <trkpt lat="48.68232" lon="1.93081">
        <ele>154.6</ele>
        <time>2023-12-20T12:39:16Z</time>
      </trkpt>
      <trkpt lat="48.68231" lon="1.93087">
        <ele>154.6</ele>
        <time>2023-12-20T12:39:17Z</time>
      </trkpt>
      <trkpt lat="48.68231" lon="1.93092">
        <ele>155.2</ele>
        <time>2023-12-20T12:39:18Z</time>
      </trkpt>
      <trkpt lat="48.68231" lon="1.93098">
        <ele>155.6</ele>
        <time>2023-12-20T12:39:19Z</time>
      </trkpt>
      <trkpt lat="48.68231" lon="1.93104">
        <ele>155.6</ele>
        <time>2023-12-20T12:39:20Z</time>
      </trkpt>
      <trkpt lat="48.68231" lon="1.93109">
        <ele>155.6</ele>
        <time>2023-12-20T12:39:21Z</time>
      </trkpt>
      <trkpt lat="48.68231" lon="1.93115">
        <ele>155.8</ele>
        <time>2023-12-20T12:39:22Z</time>
      </trkpt>
      <trkpt lat="48.68231" lon="1.93121">
        <ele>156.2</ele>
        <time>2023-12-20T12:39:23Z</time>
      </trkpt>
      <trkpt lat="48.68231" lon="1.93127">
        <ele>156.2</ele>
        <time>2023-12-20T12:39:24Z</time>
      </trkpt>
      <trkpt lat="48.6823" lon="1.93133">
        <ele>156.2</ele>
        <time>2023-12-20T12:39:25Z</time>
      </trkpt>
      <trkpt lat="48.6823" lon="1.93139">
        <ele>156.2</ele>
        <time>2023-12-20T12:39:26Z</time>
      </trkpt>
      <trkpt lat="48.6823" lon="1.93145">
        <ele>155.2</ele>
        <time>2023-12-20T12:39:27Z</time>
      </trkpt>
      <trkpt lat="48.68229" lon="1.93151">
        <ele>155.2</ele>
        <time>2023-12-20T12:39:28Z</time>
      </trkpt>
      <trkpt lat="48.68227" lon="1.93157">
        <ele>155.2</ele>
        <time>2023-12-20T12:39:29Z</time>
      </trkpt>
      <trkpt lat="48.68226" lon="1.93164">
        <ele>155.2</ele>
        <time>2023-12-20T12:39:30Z</time>
      </trkpt>
      <trkpt lat="48.68224" lon="1.93169">
        <ele>152.4</ele>
        <time>2023-12-20T12:39:31Z</time>
      </trkpt>
      <trkpt lat="48.68221" lon="1.93174">
        <ele>152.4</ele>
        <time>2023-12-20T12:39:32Z</time>
      </trkpt>
      <trkpt lat="48.68217" lon="1.93179">
        <ele>152.4</ele>
        <time>2023-12-20T12:39:33Z</time>
      </trkpt>
      <trkpt lat="48.68213" lon="1.93183">
        <ele>152.4</ele>
        <time>2023-12-20T12:39:34Z</time>
      </trkpt>
      <trkpt lat="48.68209" lon="1.93187">
        <ele>150.8</ele>
        <time>2023-12-20T12:39:35Z</time>
      </trkpt>
      <trkpt lat="48.68205" lon="1.93192">
        <ele>150.8</ele>
        <time>2023-12-20T12:39:36Z</time>
      </trkpt>
      <trkpt lat="48.68201" lon="1.93198">
        <ele>150.8</ele>
        <time>2023-12-20T12:39:37Z</time>
      </trkpt>
      <trkpt lat="48.68196" lon="1.93203">
        <ele>149.8</ele>
        <time>2023-12-20T12:39:38Z</time>
      </trkpt>
      <trkpt lat="48.68192" lon="1.93212">
        <ele>147.4</ele>
        <time>2023-12-20T12:39:39Z</time>
      </trkpt>
      <trkpt lat="48.68189" lon="1.93224">
        <ele>147.4</ele>
        <time>2023-12-20T12:39:40Z</time>
      </trkpt>
      <trkpt lat="48.68186" lon="1.93237">
        <ele>147.4</ele>
        <time>2023-12-20T12:39:41Z</time>
      </trkpt>
      <trkpt lat="48.68184" lon="1.9325">
        <ele>146.4</ele>
        <time>2023-12-20T12:39:42Z</time>
      </trkpt>
      <trkpt lat="48.68181" lon="1.93264">
        <ele>142.2</ele>
        <time>2023-12-20T12:39:43Z</time>
      </trkpt>
      <trkpt lat="48.68178" lon="1.93277">
        <ele>142.2</ele>
        <time>2023-12-20T12:39:44Z</time>
      </trkpt>
      <trkpt lat="48.68174" lon="1.93291">
        <ele>142.2</ele>
        <time>2023-12-20T12:39:45Z</time>
      </trkpt>
      <trkpt lat="48.68169" lon="1.93304">
        <ele>141.2</ele>
        <time>2023-12-20T12:39:46Z</time>
      </trkpt>
      <trkpt lat="48.68162" lon="1.93314">
        <ele>141</ele>
        <time>2023-12-20T12:39:47Z</time>
      </trkpt>
      <trkpt lat="48.68156" lon="1.93323">
        <ele>141</ele>
        <time>2023-12-20T12:39:48Z</time>
      </trkpt>
      <trkpt lat="48.6815" lon="1.9333">
        <ele>141</ele>
        <time>2023-12-20T12:39:49Z</time>
      </trkpt>
      <trkpt lat="48.68146" lon="1.93338">
        <ele>141</ele>
        <time>2023-12-20T12:39:50Z</time>
      </trkpt>
      <trkpt lat="48.68143" lon="1.93347">
        <ele>140.2</ele>
        <time>2023-12-20T12:39:51Z</time>
      </trkpt>
      <trkpt lat="48.6814" lon="1.93358">
        <ele>140.2</ele>
        <time>2023-12-20T12:39:52Z</time>
      </trkpt>
      <trkpt lat="48.68137" lon="1.9337">
        <ele>140.2</ele>
        <time>2023-12-20T12:39:53Z</time>
      </trkpt>
      <trkpt lat="48.68134" lon="1.93382">
        <ele>139.2</ele>
        <time>2023-12-20T12:39:54Z</time>
      </trkpt>
      <trkpt lat="48.68131" lon="1.93394">
        <ele>136.6</ele>
        <time>2023-12-20T12:39:55Z</time>
      </trkpt>
      <trkpt lat="48.68128" lon="1.93406">
        <ele>136.6</ele>
        <time>2023-12-20T12:39:56Z</time>
      </trkpt>
      <trkpt lat="48.68125" lon="1.93419">
        <ele>136.6</ele>
        <time>2023-12-20T12:39:57Z</time>
      </trkpt>
      <trkpt lat="48.68123" lon="1.93433">
        <ele>135.6</ele>
        <time>2023-12-20T12:39:58Z</time>
      </trkpt>
      <trkpt lat="48.6812" lon="1.93446">
        <ele>131.6</ele>
        <time>2023-12-20T12:39:59Z</time>
      </trkpt>
      <trkpt lat="48.68117" lon="1.93461">
        <ele>131.6</ele>
        <time>2023-12-20T12:40:00Z</time>
      </trkpt>
      <trkpt lat="48.68115" lon="1.93477">
        <ele>131.6</ele>
        <time>2023-12-20T12:40:01Z</time>
      </trkpt>
      <trkpt lat="48.68114" lon="1.93491">
        <ele>130.6</ele>
        <time>2023-12-20T12:40:02Z</time>
      </trkpt>
      <trkpt lat="48.68113" lon="1.93507">
        <ele>129.4</ele>
        <time>2023-12-20T12:40:03Z</time>
      </trkpt>
      <trkpt lat="48.68113" lon="1.93523">
        <ele>129.4</ele>
        <time>2023-12-20T12:40:04Z</time>
      </trkpt>
      <trkpt lat="48.68113" lon="1.9354">
        <ele>129.4</ele>
        <time>2023-12-20T12:40:05Z</time>
      </trkpt>
      <trkpt lat="48.68114" lon="1.93556">
        <ele>128.4</ele>
        <time>2023-12-20T12:40:06Z</time>
      </trkpt>
      <trkpt lat="48.68114" lon="1.93572">
        <ele>128.4</ele>
        <time>2023-12-20T12:40:07Z</time>
      </trkpt>
      <trkpt lat="48.68115" lon="1.93588">
        <ele>128.4</ele>
        <time>2023-12-20T12:40:08Z</time>
      </trkpt>
      <trkpt lat="48.68117" lon="1.93604">
        <ele>128.4</ele>
        <time>2023-12-20T12:40:09Z</time>
      </trkpt>
      <trkpt lat="48.68118" lon="1.93619">
        <ele>127.4</ele>
        <time>2023-12-20T12:40:10Z</time>
      </trkpt>
      <trkpt lat="48.6812" lon="1.93634">
        <ele>127</ele>
        <time>2023-12-20T12:40:11Z</time>
      </trkpt>
      <trkpt lat="48.68122" lon="1.9365">
        <ele>127</ele>
        <time>2023-12-20T12:40:12Z</time>
      </trkpt>
      <trkpt lat="48.68124" lon="1.93665">
        <ele>127</ele>
        <time>2023-12-20T12:40:13Z</time>
      </trkpt>
      <trkpt lat="48.68127" lon="1.93678">
        <ele>128</ele>
        <time>2023-12-20T12:40:14Z</time>
      </trkpt>
      <trkpt lat="48.68129" lon="1.93693">
        <ele>128.2</ele>
        <time>2023-12-20T12:40:15Z</time>
      </trkpt>
      <trkpt lat="48.68131" lon="1.93705">
        <ele>128.2</ele>
        <time>2023-12-20T12:40:16Z</time>
      </trkpt>
      <trkpt lat="48.68134" lon="1.93719">
        <ele>128.2</ele>
        <time>2023-12-20T12:40:17Z</time>
      </trkpt>
      <trkpt lat="48.68136" lon="1.93731">
        <ele>128.6</ele>
        <time>2023-12-20T12:40:18Z</time>
      </trkpt>
      <trkpt lat="48.68139" lon="1.93743">
        <ele>128.8</ele>
        <time>2023-12-20T12:40:19Z</time>
      </trkpt>
      <trkpt lat="48.68141" lon="1.93756">
        <ele>128.8</ele>
        <time>2023-12-20T12:40:20Z</time>
      </trkpt>
      <trkpt lat="48.68143" lon="1.93768">
        <ele>128.8</ele>
        <time>2023-12-20T12:40:21Z</time>
      </trkpt>
      <trkpt lat="48.68145" lon="1.93779">
        <ele>129.8</ele>
        <time>2023-12-20T12:40:22Z</time>
      </trkpt>
      <trkpt lat="48.68147" lon="1.9379">
        <ele>129.8</ele>
        <time>2023-12-20T12:40:23Z</time>
      </trkpt>
      <trkpt lat="48.6815" lon="1.93802">
        <ele>129.8</ele>
        <time>2023-12-20T12:40:24Z</time>
      </trkpt>
      <trkpt lat="48.68152" lon="1.93813">
        <ele>129.8</ele>
        <time>2023-12-20T12:40:25Z</time>
      </trkpt>
      <trkpt lat="48.68153" lon="1.93825">
        <ele>129.6</ele>
        <time>2023-12-20T12:40:26Z</time>
      </trkpt>
      <trkpt lat="48.68155" lon="1.93839">
        <ele>128.6</ele>
        <time>2023-12-20T12:40:27Z</time>
      </trkpt>
      <trkpt lat="48.68156" lon="1.93852">
        <ele>128.6</ele>
        <time>2023-12-20T12:40:28Z</time>
      </trkpt>
      <trkpt lat="48.68157" lon="1.93866">
        <ele>128.6</ele>
        <time>2023-12-20T12:40:29Z</time>
      </trkpt>
      <trkpt lat="48.68157" lon="1.9388">
        <ele>127.6</ele>
        <time>2023-12-20T12:40:30Z</time>
      </trkpt>
      <trkpt lat="48.68157" lon="1.93895">
        <ele>126</ele>
        <time>2023-12-20T12:40:31Z</time>
      </trkpt>
      <trkpt lat="48.68157" lon="1.9391">
        <ele>126</ele>
        <time>2023-12-20T12:40:32Z</time>
      </trkpt>
      <trkpt lat="48.68157" lon="1.93925">
        <ele>126</ele>
        <time>2023-12-20T12:40:33Z</time>
      </trkpt>
      <trkpt lat="48.68157" lon="1.93939">
        <ele>125</ele>
        <time>2023-12-20T12:40:34Z</time>
      </trkpt>
      <trkpt lat="48.68158" lon="1.93954">
        <ele>123.6</ele>
        <time>2023-12-20T12:40:35Z</time>
      </trkpt>
      <trkpt lat="48.68158" lon="1.93969">
        <ele>123.6</ele>
        <time>2023-12-20T12:40:36Z</time>
      </trkpt>
      <trkpt lat="48.68158" lon="1.93984">
        <ele>123.6</ele>
        <time>2023-12-20T12:40:37Z</time>
      </trkpt>
      <trkpt lat="48.68159" lon="1.93999">
        <ele>123.6</ele>
        <time>2023-12-20T12:40:38Z</time>
      </trkpt>
      <trkpt lat="48.68159" lon="1.94013">
        <ele>125.4</ele>
        <time>2023-12-20T12:40:39Z</time>
      </trkpt>
      <trkpt lat="48.6816" lon="1.94026">
        <ele>125.4</ele>
        <time>2023-12-20T12:40:40Z</time>
      </trkpt>
      <trkpt lat="48.6816" lon="1.9404">
        <ele>125.4</ele>
        <time>2023-12-20T12:40:41Z</time>
      </trkpt>
      <trkpt lat="48.6816" lon="1.94054">
        <ele>126.4</ele>
        <time>2023-12-20T12:40:42Z</time>
      </trkpt>
      <trkpt lat="48.68159" lon="1.94067">
        <ele>126.8</ele>
        <time>2023-12-20T12:40:43Z</time>
      </trkpt>
      <trkpt lat="48.68158" lon="1.94079">
        <ele>126.8</ele>
        <time>2023-12-20T12:40:44Z</time>
      </trkpt>
      <trkpt lat="48.68157" lon="1.94091">
        <ele>126.8</ele>
        <time>2023-12-20T12:40:45Z</time>
      </trkpt>
      <trkpt lat="48.68155" lon="1.94102">
        <ele>127.6</ele>
        <time>2023-12-20T12:40:46Z</time>
      </trkpt>
      <trkpt lat="48.68152" lon="1.94113">
        <ele>127.6</ele>
        <time>2023-12-20T12:40:47Z</time>
      </trkpt>
      <trkpt lat="48.6815" lon="1.94123">
        <ele>127.6</ele>
        <time>2023-12-20T12:40:48Z</time>
      </trkpt>
      <trkpt lat="48.68147" lon="1.94134">
        <ele>127.6</ele>
        <time>2023-12-20T12:40:49Z</time>
      </trkpt>
      <trkpt lat="48.68144" lon="1.94144">
        <ele>126.6</ele>
        <time>2023-12-20T12:40:50Z</time>
      </trkpt>
      <trkpt lat="48.68142" lon="1.94154">
        <ele>125.6</ele>
        <time>2023-12-20T12:40:51Z</time>
      </trkpt>
      <trkpt lat="48.68139" lon="1.94164">
        <ele>125.6</ele>
        <time>2023-12-20T12:40:52Z</time>
      </trkpt>
      <trkpt lat="48.68135" lon="1.94174">
        <ele>125.6</ele>
        <time>2023-12-20T12:40:53Z</time>
      </trkpt>
      <trkpt lat="48.68131" lon="1.94184">
        <ele>124.6</ele>
        <time>2023-12-20T12:40:54Z</time>
      </trkpt>
      <trkpt lat="48.68128" lon="1.94194">
        <ele>123.2</ele>
        <time>2023-12-20T12:40:55Z</time>
      </trkpt>
      <trkpt lat="48.68123" lon="1.94205">
        <ele>123.2</ele>
        <time>2023-12-20T12:40:56Z</time>
      </trkpt>
      <trkpt lat="48.68119" lon="1.94215">
        <ele>123.2</ele>
        <time>2023-12-20T12:40:57Z</time>
      </trkpt>
      <trkpt lat="48.68114" lon="1.94226">
        <ele>123.2</ele>
        <time>2023-12-20T12:40:58Z</time>
      </trkpt>
      <trkpt lat="48.68109" lon="1.94237">
        <ele>122.2</ele>
        <time>2023-12-20T12:40:59Z</time>
      </trkpt>
      <trkpt lat="48.68104" lon="1.94248">
        <ele>122.2</ele>
        <time>2023-12-20T12:41:00Z</time>
      </trkpt>
      <trkpt lat="48.68099" lon="1.94259">
        <ele>122.2</ele>
        <time>2023-12-20T12:41:01Z</time>
      </trkpt>
      <trkpt lat="48.68094" lon="1.94269">
        <ele>122.2</ele>
        <time>2023-12-20T12:41:02Z</time>
      </trkpt>
      <trkpt lat="48.68089" lon="1.94279">
        <ele>122.4</ele>
        <time>2023-12-20T12:41:03Z</time>
      </trkpt>
      <trkpt lat="48.68084" lon="1.94288">
        <ele>122.4</ele>
        <time>2023-12-20T12:41:04Z</time>
      </trkpt>
      <trkpt lat="48.68079" lon="1.94297">
        <ele>122.4</ele>
        <time>2023-12-20T12:41:05Z</time>
      </trkpt>
      <trkpt lat="48.68074" lon="1.94306">
        <ele>122.4</ele>
        <time>2023-12-20T12:41:06Z</time>
      </trkpt>
      <trkpt lat="48.68069" lon="1.94315">
        <ele>123.2</ele>
        <time>2023-12-20T12:41:07Z</time>
      </trkpt>
      <trkpt lat="48.68064" lon="1.94323">
        <ele>123.2</ele>
        <time>2023-12-20T12:41:08Z</time>
      </trkpt>
      <trkpt lat="48.68058" lon="1.94331">
        <ele>123.2</ele>
        <time>2023-12-20T12:41:09Z</time>
      </trkpt>
      <trkpt lat="48.68053" lon="1.94339">
        <ele>123.2</ele>
        <time>2023-12-20T12:41:10Z</time>
      </trkpt>
      <trkpt lat="48.68047" lon="1.94347">
        <ele>123</ele>
        <time>2023-12-20T12:41:11Z</time>
      </trkpt>
      <trkpt lat="48.68042" lon="1.94356">
        <ele>123</ele>
        <time>2023-12-20T12:41:12Z</time>
      </trkpt>
      <trkpt lat="48.68037" lon="1.94365">
        <ele>123</ele>
        <time>2023-12-20T12:41:13Z</time>
      </trkpt>
      <trkpt lat="48.68032" lon="1.94372">
        <ele>123</ele>
        <time>2023-12-20T12:41:14Z</time>
      </trkpt>
      <trkpt lat="48.68027" lon="1.94381">
        <ele>123.6</ele>
        <time>2023-12-20T12:41:15Z</time>
      </trkpt>
      <trkpt lat="48.68023" lon="1.94388">
        <ele>123.6</ele>
        <time>2023-12-20T12:41:16Z</time>
      </trkpt>
      <trkpt lat="48.68019" lon="1.94396">
        <ele>123.6</ele>
        <time>2023-12-20T12:41:17Z</time>
      </trkpt>
      <trkpt lat="48.68014" lon="1.94403">
        <ele>124</ele>
        <time>2023-12-20T12:41:18Z</time>
      </trkpt>
      <trkpt lat="48.6801" lon="1.94411">
        <ele>123.8</ele>
        <time>2023-12-20T12:41:19Z</time>
      </trkpt>
      <trkpt lat="48.68006" lon="1.94418">
        <ele>123.8</ele>
        <time>2023-12-20T12:41:20Z</time>
      </trkpt>
      <trkpt lat="48.68001" lon="1.94425">
        <ele>123.8</ele>
        <time>2023-12-20T12:41:21Z</time>
      </trkpt>
      <trkpt lat="48.67997" lon="1.94432">
        <ele>124.8</ele>
        <time>2023-12-20T12:41:22Z</time>
      </trkpt>
      <trkpt lat="48.67993" lon="1.94438">
        <ele>125.2</ele>
        <time>2023-12-20T12:41:23Z</time>
      </trkpt>
      <trkpt lat="48.67989" lon="1.94443">
        <ele>125.2</ele>
        <time>2023-12-20T12:41:24Z</time>
      </trkpt>
      <trkpt lat="48.67984" lon="1.94449">
        <ele>125.2</ele>
        <time>2023-12-20T12:41:25Z</time>
      </trkpt>
      <trkpt lat="48.67979" lon="1.94455">
        <ele>126.2</ele>
        <time>2023-12-20T12:41:26Z</time>
      </trkpt>
      <trkpt lat="48.67974" lon="1.9446">
        <ele>125.6</ele>
        <time>2023-12-20T12:41:27Z</time>
      </trkpt>
      <trkpt lat="48.6797" lon="1.94465">
        <ele>125.6</ele>
        <time>2023-12-20T12:41:28Z</time>
      </trkpt>
      <trkpt lat="48.67965" lon="1.94472">
        <ele>125.6</ele>
        <time>2023-12-20T12:41:29Z</time>
      </trkpt>
      <trkpt lat="48.6796" lon="1.94478">
        <ele>126.2</ele>
        <time>2023-12-20T12:41:30Z</time>
      </trkpt>
      <trkpt lat="48.67956" lon="1.94483">
        <ele>126.2</ele>
        <time>2023-12-20T12:41:31Z</time>
      </trkpt>
      <trkpt lat="48.67952" lon="1.94488">
        <ele>126.2</ele>
        <time>2023-12-20T12:41:32Z</time>
      </trkpt>
      <trkpt lat="48.67946" lon="1.94494">
        <ele>126.2</ele>
        <time>2023-12-20T12:41:33Z</time>
      </trkpt>
      <trkpt lat="48.67942" lon="1.94499">
        <ele>126.2</ele>
        <time>2023-12-20T12:41:34Z</time>
      </trkpt>
      <trkpt lat="48.67937" lon="1.94503">
        <ele>126.4</ele>
        <time>2023-12-20T12:41:35Z</time>
      </trkpt>
      <trkpt lat="48.67933" lon="1.9451">
        <ele>126.4</ele>
        <time>2023-12-20T12:41:36Z</time>
      </trkpt>
      <trkpt lat="48.67928" lon="1.94515">
        <ele>126.4</ele>
        <time>2023-12-20T12:41:37Z</time>
      </trkpt>
      <trkpt lat="48.67923" lon="1.94522">
        <ele>126.4</ele>
        <time>2023-12-20T12:41:38Z</time>
      </trkpt>
      <trkpt lat="48.67918" lon="1.94528">
        <ele>126.4</ele>
        <time>2023-12-20T12:41:39Z</time>
      </trkpt>
      <trkpt lat="48.67913" lon="1.94535">
        <ele>126.4</ele>
        <time>2023-12-20T12:41:40Z</time>
      </trkpt>
      <trkpt lat="48.67909" lon="1.94542">
        <ele>126.4</ele>
        <time>2023-12-20T12:41:41Z</time>
      </trkpt>
      <trkpt lat="48.67904" lon="1.94549">
        <ele>126.6</ele>
        <time>2023-12-20T12:41:42Z</time>
      </trkpt>
      <trkpt lat="48.67899" lon="1.94557">
        <ele>126.4</ele>
        <time>2023-12-20T12:41:43Z</time>
      </trkpt>
      <trkpt lat="48.67895" lon="1.94565">
        <ele>126.4</ele>
        <time>2023-12-20T12:41:44Z</time>
      </trkpt>
      <trkpt lat="48.6789" lon="1.94572">
        <ele>126.4</ele>
        <time>2023-12-20T12:41:45Z</time>
      </trkpt>
      <trkpt lat="48.67885" lon="1.9458">
        <ele>125.4</ele>
        <time>2023-12-20T12:41:46Z</time>
      </trkpt>
      <trkpt lat="48.67881" lon="1.94588">
        <ele>125</ele>
        <time>2023-12-20T12:41:47Z</time>
      </trkpt>
      <trkpt lat="48.67876" lon="1.94596">
        <ele>125</ele>
        <time>2023-12-20T12:41:48Z</time>
      </trkpt>
      <trkpt lat="48.67871" lon="1.94604">
        <ele>125</ele>
        <time>2023-12-20T12:41:49Z</time>
      </trkpt>
      <trkpt lat="48.67867" lon="1.94613">
        <ele>125</ele>
        <time>2023-12-20T12:41:50Z</time>
      </trkpt>
      <trkpt lat="48.67863" lon="1.94623">
        <ele>125.4</ele>
        <time>2023-12-20T12:41:51Z</time>
      </trkpt>
      <trkpt lat="48.67859" lon="1.94632">
        <ele>125.4</ele>
        <time>2023-12-20T12:41:52Z</time>
      </trkpt>
      <trkpt lat="48.67855" lon="1.94641">
        <ele>125.4</ele>
        <time>2023-12-20T12:41:53Z</time>
      </trkpt>
      <trkpt lat="48.67852" lon="1.9465">
        <ele>126</ele>
        <time>2023-12-20T12:41:54Z</time>
      </trkpt>
      <trkpt lat="48.67848" lon="1.94659">
        <ele>126.2</ele>
        <time>2023-12-20T12:41:55Z</time>
      </trkpt>
      <trkpt lat="48.67845" lon="1.94669">
        <ele>126.2</ele>
        <time>2023-12-20T12:41:56Z</time>
      </trkpt>
      <trkpt lat="48.67842" lon="1.94678">
        <ele>126.2</ele>
        <time>2023-12-20T12:41:57Z</time>
      </trkpt>
      <trkpt lat="48.67839" lon="1.94687">
        <ele>127</ele>
        <time>2023-12-20T12:41:58Z</time>
      </trkpt>
      <trkpt lat="48.67836" lon="1.94696">
        <ele>127.6</ele>
        <time>2023-12-20T12:41:59Z</time>
      </trkpt>
      <trkpt lat="48.67833" lon="1.94706">
        <ele>127.6</ele>
        <time>2023-12-20T12:42:00Z</time>
      </trkpt>
      <trkpt lat="48.6783" lon="1.94715">
        <ele>127.6</ele>
        <time>2023-12-20T12:42:01Z</time>
      </trkpt>
      <trkpt lat="48.67827" lon="1.94723">
        <ele>127.6</ele>
        <time>2023-12-20T12:42:02Z</time>
      </trkpt>
      <trkpt lat="48.67825" lon="1.94732">
        <ele>127.6</ele>
        <time>2023-12-20T12:42:03Z</time>
      </trkpt>
      <trkpt lat="48.67822" lon="1.94741">
        <ele>127.6</ele>
        <time>2023-12-20T12:42:04Z</time>
      </trkpt>
      <trkpt lat="48.67819" lon="1.9475">
        <ele>127.6</ele>
        <time>2023-12-20T12:42:05Z</time>
      </trkpt>
      <trkpt lat="48.67816" lon="1.9476">
        <ele>127.6</ele>
        <time>2023-12-20T12:42:06Z</time>
      </trkpt>
      <trkpt lat="48.67814" lon="1.94768">
        <ele>127.4</ele>
        <time>2023-12-20T12:42:07Z</time>
      </trkpt>
      <trkpt lat="48.67811" lon="1.94778">
        <ele>127.4</ele>
        <time>2023-12-20T12:42:08Z</time>
      </trkpt>
      <trkpt lat="48.67808" lon="1.94788">
        <ele>127.4</ele>
        <time>2023-12-20T12:42:09Z</time>
      </trkpt>
      <trkpt lat="48.67805" lon="1.94799">
        <ele>127.4</ele>
        <time>2023-12-20T12:42:10Z</time>
      </trkpt>
      <trkpt lat="48.67801" lon="1.94809">
        <ele>127</ele>
        <time>2023-12-20T12:42:11Z</time>
      </trkpt>
      <trkpt lat="48.67798" lon="1.94818">
        <ele>127</ele>
        <time>2023-12-20T12:42:12Z</time>
      </trkpt>
      <trkpt lat="48.67794" lon="1.94827">
        <ele>127</ele>
        <time>2023-12-20T12:42:13Z</time>
      </trkpt>
      <trkpt lat="48.6779" lon="1.94835">
        <ele>126.4</ele>
        <time>2023-12-20T12:42:14Z</time>
      </trkpt>
      <trkpt lat="48.67786" lon="1.94842">
        <ele>126.4</ele>
        <time>2023-12-20T12:42:15Z</time>
      </trkpt>
      <trkpt lat="48.67781" lon="1.9485">
        <ele>126.4</ele>
        <time>2023-12-20T12:42:16Z</time>
      </trkpt>
      <trkpt lat="48.67777" lon="1.94857">
        <ele>126.4</ele>
        <time>2023-12-20T12:42:17Z</time>
      </trkpt>
      <trkpt lat="48.67772" lon="1.94865">
        <ele>126.4</ele>
        <time>2023-12-20T12:42:18Z</time>
      </trkpt>
      <trkpt lat="48.67768" lon="1.94873">
        <ele>126.6</ele>
        <time>2023-12-20T12:42:19Z</time>
      </trkpt>
      <trkpt lat="48.67763" lon="1.94881">
        <ele>126.6</ele>
        <time>2023-12-20T12:42:20Z</time>
      </trkpt>
      <trkpt lat="48.67759" lon="1.94889">
        <ele>126.6</ele>
        <time>2023-12-20T12:42:21Z</time>
      </trkpt>
      <trkpt lat="48.67755" lon="1.94898">
        <ele>126.6</ele>
        <time>2023-12-20T12:42:22Z</time>
      </trkpt>
      <trkpt lat="48.67752" lon="1.94907">
        <ele>126.4</ele>
        <time>2023-12-20T12:42:23Z</time>
      </trkpt>
      <trkpt lat="48.67748" lon="1.94917">
        <ele>126.4</ele>
        <time>2023-12-20T12:42:24Z</time>
      </trkpt>
      <trkpt lat="48.67745" lon="1.94927">
        <ele>126.4</ele>
        <time>2023-12-20T12:42:25Z</time>
      </trkpt>
      <trkpt lat="48.67743" lon="1.94937">
        <ele>126.8</ele>
        <time>2023-12-20T12:42:26Z</time>
      </trkpt>
      <trkpt lat="48.67741" lon="1.94948">
        <ele>127</ele>
        <time>2023-12-20T12:42:27Z</time>
      </trkpt>
      <trkpt lat="48.67738" lon="1.9496">
        <ele>127</ele>
        <time>2023-12-20T12:42:28Z</time>
      </trkpt>
      <trkpt lat="48.67736" lon="1.94969">
        <ele>127</ele>
        <time>2023-12-20T12:42:29Z</time>
      </trkpt>
      <trkpt lat="48.67733" lon="1.94979">
        <ele>127</ele>
        <time>2023-12-20T12:42:30Z</time>
      </trkpt>
      <trkpt lat="48.67731" lon="1.94989">
        <ele>127.4</ele>
        <time>2023-12-20T12:42:31Z</time>
      </trkpt>
      <trkpt lat="48.67729" lon="1.95">
        <ele>127.4</ele>
        <time>2023-12-20T12:42:32Z</time>
      </trkpt>
      <trkpt lat="48.67726" lon="1.95009">
        <ele>127.4</ele>
        <time>2023-12-20T12:42:33Z</time>
      </trkpt>
      <trkpt lat="48.67724" lon="1.9502">
        <ele>127</ele>
        <time>2023-12-20T12:42:34Z</time>
      </trkpt>
      <trkpt lat="48.67721" lon="1.95031">
        <ele>127.6</ele>
        <time>2023-12-20T12:42:35Z</time>
      </trkpt>
      <trkpt lat="48.67719" lon="1.95042">
        <ele>127.6</ele>
        <time>2023-12-20T12:42:36Z</time>
      </trkpt>
      <trkpt lat="48.67716" lon="1.95053">
        <ele>127.6</ele>
        <time>2023-12-20T12:42:37Z</time>
      </trkpt>
      <trkpt lat="48.67714" lon="1.95064">
        <ele>127.6</ele>
        <time>2023-12-20T12:42:38Z</time>
      </trkpt>
      <trkpt lat="48.67712" lon="1.95074">
        <ele>127.6</ele>
        <time>2023-12-20T12:42:39Z</time>
      </trkpt>
      <trkpt lat="48.6771" lon="1.95085">
        <ele>127.6</ele>
        <time>2023-12-20T12:42:40Z</time>
      </trkpt>
      <trkpt lat="48.67708" lon="1.95096">
        <ele>127.6</ele>
        <time>2023-12-20T12:42:41Z</time>
      </trkpt>
      <trkpt lat="48.67707" lon="1.95107">
        <ele>128</ele>
        <time>2023-12-20T12:42:42Z</time>
      </trkpt>
      <trkpt lat="48.67705" lon="1.95118">
        <ele>127.8</ele>
        <time>2023-12-20T12:42:43Z</time>
      </trkpt>
      <trkpt lat="48.67705" lon="1.95128">
        <ele>127.8</ele>
        <time>2023-12-20T12:42:44Z</time>
      </trkpt>
      <trkpt lat="48.67704" lon="1.95139">
        <ele>127.8</ele>
        <time>2023-12-20T12:42:45Z</time>
      </trkpt>
      <trkpt lat="48.67703" lon="1.95149">
        <ele>127.8</ele>
        <time>2023-12-20T12:42:46Z</time>
      </trkpt>
      <trkpt lat="48.67702" lon="1.9516">
        <ele>128</ele>
        <time>2023-12-20T12:42:47Z</time>
      </trkpt>
      <trkpt lat="48.67701" lon="1.9517">
        <ele>128</ele>
        <time>2023-12-20T12:42:48Z</time>
      </trkpt>
      <trkpt lat="48.67699" lon="1.95181">
        <ele>128</ele>
        <time>2023-12-20T12:42:49Z</time>
      </trkpt>
      <trkpt lat="48.67696" lon="1.95191">
        <ele>128</ele>
        <time>2023-12-20T12:42:50Z</time>
      </trkpt>
      <trkpt lat="48.67693" lon="1.95201">
        <ele>127.2</ele>
        <time>2023-12-20T12:42:51Z</time>
      </trkpt>
      <trkpt lat="48.6769" lon="1.95211">
        <ele>127.2</ele>
        <time>2023-12-20T12:42:52Z</time>
      </trkpt>
      <trkpt lat="48.67686" lon="1.9522">
        <ele>127.2</ele>
        <time>2023-12-20T12:42:53Z</time>
      </trkpt>
      <trkpt lat="48.67681" lon="1.95229">
        <ele>126.2</ele>
        <time>2023-12-20T12:42:54Z</time>
      </trkpt>
      <trkpt lat="48.67677" lon="1.95238">
        <ele>125</ele>
        <time>2023-12-20T12:42:55Z</time>
      </trkpt>
      <trkpt lat="48.67673" lon="1.95248">
        <ele>125</ele>
        <time>2023-12-20T12:42:56Z</time>
      </trkpt>
      <trkpt lat="48.67669" lon="1.95257">
        <ele>125</ele>
        <time>2023-12-20T12:42:57Z</time>
      </trkpt>
      <trkpt lat="48.67664" lon="1.95265">
        <ele>125</ele>
        <time>2023-12-20T12:42:58Z</time>
      </trkpt>
      <trkpt lat="48.6766" lon="1.95275">
        <ele>125.4</ele>
        <time>2023-12-20T12:42:59Z</time>
      </trkpt>
      <trkpt lat="48.67657" lon="1.95284">
        <ele>125.4</ele>
        <time>2023-12-20T12:43:00Z</time>
      </trkpt>
      <trkpt lat="48.67653" lon="1.95294">
        <ele>125.4</ele>
        <time>2023-12-20T12:43:01Z</time>
      </trkpt>
      <trkpt lat="48.67649" lon="1.95305">
        <ele>124.4</ele>
        <time>2023-12-20T12:43:02Z</time>
      </trkpt>
      <trkpt lat="48.67646" lon="1.95316">
        <ele>123.4</ele>
        <time>2023-12-20T12:43:03Z</time>
      </trkpt>
      <trkpt lat="48.67644" lon="1.95326">
        <ele>123.4</ele>
        <time>2023-12-20T12:43:04Z</time>
      </trkpt>
      <trkpt lat="48.67642" lon="1.95337">
        <ele>123.4</ele>
        <time>2023-12-20T12:43:05Z</time>
      </trkpt>
      <trkpt lat="48.6764" lon="1.95347">
        <ele>124.4</ele>
        <time>2023-12-20T12:43:06Z</time>
      </trkpt>
      <trkpt lat="48.67639" lon="1.95357">
        <ele>124.6</ele>
        <time>2023-12-20T12:43:07Z</time>
      </trkpt>
      <trkpt lat="48.67638" lon="1.95367">
        <ele>124.6</ele>
        <time>2023-12-20T12:43:08Z</time>
      </trkpt>
      <trkpt lat="48.67637" lon="1.95377">
        <ele>124.6</ele>
        <time>2023-12-20T12:43:09Z</time>
      </trkpt>
      <trkpt lat="48.67636" lon="1.95386">
        <ele>125.6</ele>
        <time>2023-12-20T12:43:10Z</time>
      </trkpt>
      <trkpt lat="48.67635" lon="1.95395">
        <ele>126.6</ele>
        <time>2023-12-20T12:43:11Z</time>
      </trkpt>
      <trkpt lat="48.67634" lon="1.95404">
        <ele>126.6</ele>
        <time>2023-12-20T12:43:12Z</time>
      </trkpt>
      <trkpt lat="48.67633" lon="1.95413">
        <ele>126.6</ele>
        <time>2023-12-20T12:43:13Z</time>
      </trkpt>
      <trkpt lat="48.67632" lon="1.95422">
        <ele>127.6</ele>
        <time>2023-12-20T12:43:14Z</time>
      </trkpt>
      <trkpt lat="48.67631" lon="1.95429">
        <ele>128</ele>
        <time>2023-12-20T12:43:15Z</time>
      </trkpt>
      <trkpt lat="48.67629" lon="1.95436">
        <ele>128</ele>
        <time>2023-12-20T12:43:16Z</time>
      </trkpt>
      <trkpt lat="48.67628" lon="1.95443">
        <ele>128</ele>
        <time>2023-12-20T12:43:17Z</time>
      </trkpt>
      <trkpt lat="48.67625" lon="1.95449">
        <ele>128</ele>
        <time>2023-12-20T12:43:18Z</time>
      </trkpt>
      <trkpt lat="48.67623" lon="1.95454">
        <ele>128.4</ele>
        <time>2023-12-20T12:43:19Z</time>
      </trkpt>
      <trkpt lat="48.6762" lon="1.9546">
        <ele>128.4</ele>
        <time>2023-12-20T12:43:20Z</time>
      </trkpt>
      <trkpt lat="48.67617" lon="1.95466">
        <ele>128.4</ele>
        <time>2023-12-20T12:43:21Z</time>
      </trkpt>
      <trkpt lat="48.67613" lon="1.95472">
        <ele>128.4</ele>
        <time>2023-12-20T12:43:22Z</time>
      </trkpt>
      <trkpt lat="48.6761" lon="1.95477">
        <ele>128.4</ele>
        <time>2023-12-20T12:43:23Z</time>
      </trkpt>
      <trkpt lat="48.67606" lon="1.95482">
        <ele>128.8</ele>
        <time>2023-12-20T12:43:24Z</time>
      </trkpt>
      <trkpt lat="48.67602" lon="1.95486">
        <ele>128.8</ele>
        <time>2023-12-20T12:43:25Z</time>
      </trkpt>
      <trkpt lat="48.67599" lon="1.95491">
        <ele>128.8</ele>
        <time>2023-12-20T12:43:26Z</time>
      </trkpt>
      <trkpt lat="48.67594" lon="1.95495">
        <ele>128.4</ele>
        <time>2023-12-20T12:43:27Z</time>
      </trkpt>
      <trkpt lat="48.6759" lon="1.955">
        <ele>128.4</ele>
        <time>2023-12-20T12:43:28Z</time>
      </trkpt>
      <trkpt lat="48.67586" lon="1.95504">
        <ele>128.4</ele>
        <time>2023-12-20T12:43:29Z</time>
      </trkpt>
      <trkpt lat="48.67581" lon="1.95509">
        <ele>128</ele>
        <time>2023-12-20T12:43:30Z</time>
      </trkpt>
      <trkpt lat="48.67577" lon="1.95513">
        <ele>127.8</ele>
        <time>2023-12-20T12:43:31Z</time>
      </trkpt>
      <trkpt lat="48.67572" lon="1.95518">
        <ele>127.8</ele>
        <time>2023-12-20T12:43:32Z</time>
      </trkpt>
      <trkpt lat="48.67567" lon="1.95522">
        <ele>127.8</ele>
        <time>2023-12-20T12:43:33Z</time>
      </trkpt>
      <trkpt lat="48.67562" lon="1.95526">
        <ele>127</ele>
        <time>2023-12-20T12:43:34Z</time>
      </trkpt>
      <trkpt lat="48.67557" lon="1.95531">
        <ele>126.8</ele>
        <time>2023-12-20T12:43:35Z</time>
      </trkpt>
      <trkpt lat="48.67552" lon="1.95535">
        <ele>126.8</ele>
        <time>2023-12-20T12:43:36Z</time>
      </trkpt>
      <trkpt lat="48.67547" lon="1.95537">
        <ele>126.8</ele>
        <time>2023-12-20T12:43:37Z</time>
      </trkpt>
      <trkpt lat="48.67542" lon="1.95539">
        <ele>126.2</ele>
        <time>2023-12-20T12:43:38Z</time>
      </trkpt>
      <trkpt lat="48.67536" lon="1.95542">
        <ele>126</ele>
        <time>2023-12-20T12:43:39Z</time>
      </trkpt>
      <trkpt lat="48.67531" lon="1.95544">
        <ele>126</ele>
        <time>2023-12-20T12:43:40Z</time>
      </trkpt>
      <trkpt lat="48.67526" lon="1.95544">
        <ele>126</ele>
        <time>2023-12-20T12:43:41Z</time>
      </trkpt>
      <trkpt lat="48.6752" lon="1.95544">
        <ele>126</ele>
        <time>2023-12-20T12:43:42Z</time>
      </trkpt>
      <trkpt lat="48.67514" lon="1.95544">
        <ele>125.4</ele>
        <time>2023-12-20T12:43:43Z</time>
      </trkpt>
      <trkpt lat="48.67508" lon="1.95544">
        <ele>125.4</ele>
        <time>2023-12-20T12:43:44Z</time>
      </trkpt>
      <trkpt lat="48.67501" lon="1.95543">
        <ele>125.4</ele>
        <time>2023-12-20T12:43:45Z</time>
      </trkpt>
      <trkpt lat="48.67495" lon="1.95543">
        <ele>125.6</ele>
        <time>2023-12-20T12:43:46Z</time>
      </trkpt>
      <trkpt lat="48.6749" lon="1.95542">
        <ele>125.4</ele>
        <time>2023-12-20T12:43:47Z</time>
      </trkpt>
      <trkpt lat="48.67484" lon="1.95543">
        <ele>125.4</ele>
        <time>2023-12-20T12:43:48Z</time>
      </trkpt>
      <trkpt lat="48.67478" lon="1.95543">
        <ele>125.4</ele>
        <time>2023-12-20T12:43:49Z</time>
      </trkpt>
      <trkpt lat="48.67471" lon="1.95543">
        <ele>124.8</ele>
        <time>2023-12-20T12:43:50Z</time>
      </trkpt>
      <trkpt lat="48.67465" lon="1.95544">
        <ele>125</ele>
        <time>2023-12-20T12:43:51Z</time>
      </trkpt>
      <trkpt lat="48.67458" lon="1.95547">
        <ele>125</ele>
        <time>2023-12-20T12:43:52Z</time>
      </trkpt>
      <trkpt lat="48.67452" lon="1.95549">
        <ele>125</ele>
        <time>2023-12-20T12:43:53Z</time>
      </trkpt>
      <trkpt lat="48.67446" lon="1.95553">
        <ele>125</ele>
        <time>2023-12-20T12:43:54Z</time>
      </trkpt>
      <trkpt lat="48.67441" lon="1.95557">
        <ele>124.8</ele>
        <time>2023-12-20T12:43:55Z</time>
      </trkpt>
      <trkpt lat="48.67435" lon="1.95563">
        <ele>124.8</ele>
        <time>2023-12-20T12:43:56Z</time>
      </trkpt>
      <trkpt lat="48.67431" lon="1.95568">
        <ele>124.8</ele>
        <time>2023-12-20T12:43:57Z</time>
      </trkpt>
      <trkpt lat="48.67427" lon="1.95575">
        <ele>124.8</ele>
        <time>2023-12-20T12:43:58Z</time>
      </trkpt>
      <trkpt lat="48.67424" lon="1.95583">
        <ele>124.6</ele>
        <time>2023-12-20T12:43:59Z</time>
      </trkpt>
      <trkpt lat="48.67421" lon="1.95593">
        <ele>124.6</ele>
        <time>2023-12-20T12:44:00Z</time>
      </trkpt>
      <trkpt lat="48.6742" lon="1.95603">
        <ele>124.6</ele>
        <time>2023-12-20T12:44:01Z</time>
      </trkpt>
      <trkpt lat="48.67419" lon="1.95612">
        <ele>124.6</ele>
        <time>2023-12-20T12:44:02Z</time>
      </trkpt>
      <trkpt lat="48.6742" lon="1.95623">
        <ele>125</ele>
        <time>2023-12-20T12:44:03Z</time>
      </trkpt>
      <trkpt lat="48.6742" lon="1.95633">
        <ele>125</ele>
        <time>2023-12-20T12:44:04Z</time>
      </trkpt>
      <trkpt lat="48.67421" lon="1.95644">
        <ele>125</ele>
        <time>2023-12-20T12:44:05Z</time>
      </trkpt>
      <trkpt lat="48.67422" lon="1.95655">
        <ele>125.4</ele>
        <time>2023-12-20T12:44:06Z</time>
      </trkpt>
      <trkpt lat="48.67424" lon="1.95664">
        <ele>126</ele>
        <time>2023-12-20T12:44:07Z</time>
      </trkpt>
      <trkpt lat="48.67425" lon="1.95673">
        <ele>126</ele>
        <time>2023-12-20T12:44:08Z</time>
      </trkpt>
      <trkpt lat="48.67426" lon="1.95682">
        <ele>126</ele>
        <time>2023-12-20T12:44:09Z</time>
      </trkpt>
      <trkpt lat="48.67427" lon="1.95692">
        <ele>126.4</ele>
        <time>2023-12-20T12:44:10Z</time>
      </trkpt>
      <trkpt lat="48.67428" lon="1.95702">
        <ele>126.6</ele>
        <time>2023-12-20T12:44:11Z</time>
      </trkpt>
      <trkpt lat="48.67428" lon="1.95711">
        <ele>126.6</ele>
        <time>2023-12-20T12:44:12Z</time>
      </trkpt>
      <trkpt lat="48.67429" lon="1.95722">
        <ele>126.6</ele>
        <time>2023-12-20T12:44:13Z</time>
      </trkpt>
      <trkpt lat="48.6743" lon="1.95731">
        <ele>126.6</ele>
        <time>2023-12-20T12:44:14Z</time>
      </trkpt>
      <trkpt lat="48.67431" lon="1.9574">
        <ele>127</ele>
        <time>2023-12-20T12:44:15Z</time>
      </trkpt>
      <trkpt lat="48.67431" lon="1.9575">
        <ele>127</ele>
        <time>2023-12-20T12:44:16Z</time>
      </trkpt>
      <trkpt lat="48.67432" lon="1.95759">
        <ele>127</ele>
        <time>2023-12-20T12:44:17Z</time>
      </trkpt>
      <trkpt lat="48.67433" lon="1.95769">
        <ele>127.4</ele>
        <time>2023-12-20T12:44:18Z</time>
      </trkpt>
      <trkpt lat="48.67432" lon="1.9578">
        <ele>128.2</ele>
        <time>2023-12-20T12:44:19Z</time>
      </trkpt>
      <trkpt lat="48.67432" lon="1.95788">
        <ele>128.2</ele>
        <time>2023-12-20T12:44:20Z</time>
      </trkpt>
      <trkpt lat="48.67432" lon="1.95798">
        <ele>128.2</ele>
        <time>2023-12-20T12:44:21Z</time>
      </trkpt>
      <trkpt lat="48.67431" lon="1.95807">
        <ele>128.2</ele>
        <time>2023-12-20T12:44:22Z</time>
      </trkpt>
      <trkpt lat="48.67431" lon="1.95816">
        <ele>128.6</ele>
        <time>2023-12-20T12:44:23Z</time>
      </trkpt>
      <trkpt lat="48.67431" lon="1.95826">
        <ele>128.6</ele>
        <time>2023-12-20T12:44:24Z</time>
      </trkpt>
      <trkpt lat="48.6743" lon="1.95835">
        <ele>128.6</ele>
        <time>2023-12-20T12:44:25Z</time>
      </trkpt>
      <trkpt lat="48.6743" lon="1.95845">
        <ele>127.8</ele>
        <time>2023-12-20T12:44:26Z</time>
      </trkpt>
      <trkpt lat="48.6743" lon="1.95855">
        <ele>128</ele>
        <time>2023-12-20T12:44:27Z</time>
      </trkpt>
      <trkpt lat="48.67429" lon="1.95864">
        <ele>128</ele>
        <time>2023-12-20T12:44:28Z</time>
      </trkpt>
      <trkpt lat="48.67429" lon="1.95874">
        <ele>128</ele>
        <time>2023-12-20T12:44:29Z</time>
      </trkpt>
      <trkpt lat="48.67428" lon="1.95884">
        <ele>127</ele>
        <time>2023-12-20T12:44:30Z</time>
      </trkpt>
      <trkpt lat="48.67427" lon="1.95894">
        <ele>126.6</ele>
        <time>2023-12-20T12:44:31Z</time>
      </trkpt>
      <trkpt lat="48.67427" lon="1.95904">
        <ele>126.6</ele>
        <time>2023-12-20T12:44:32Z</time>
      </trkpt>
      <trkpt lat="48.67425" lon="1.95915">
        <ele>126.6</ele>
        <time>2023-12-20T12:44:33Z</time>
      </trkpt>
      <trkpt lat="48.67424" lon="1.95925">
        <ele>125.6</ele>
        <time>2023-12-20T12:44:34Z</time>
      </trkpt>
      <trkpt lat="48.67422" lon="1.95935">
        <ele>124.4</ele>
        <time>2023-12-20T12:44:35Z</time>
      </trkpt>
      <trkpt lat="48.6742" lon="1.95946">
        <ele>124.4</ele>
        <time>2023-12-20T12:44:36Z</time>
      </trkpt>
      <trkpt lat="48.67418" lon="1.95957">
        <ele>124.4</ele>
        <time>2023-12-20T12:44:37Z</time>
      </trkpt>
      <trkpt lat="48.67416" lon="1.95967">
        <ele>123.4</ele>
        <time>2023-12-20T12:44:38Z</time>
      </trkpt>
      <trkpt lat="48.67415" lon="1.95978">
        <ele>123.6</ele>
        <time>2023-12-20T12:44:39Z</time>
      </trkpt>
      <trkpt lat="48.67413" lon="1.95989">
        <ele>123.6</ele>
        <time>2023-12-20T12:44:40Z</time>
      </trkpt>
      <trkpt lat="48.67411" lon="1.95999">
        <ele>123.6</ele>
        <time>2023-12-20T12:44:41Z</time>
      </trkpt>
      <trkpt lat="48.67409" lon="1.96008">
        <ele>123.6</ele>
        <time>2023-12-20T12:44:42Z</time>
      </trkpt>
      <trkpt lat="48.67407" lon="1.96017">
        <ele>124.8</ele>
        <time>2023-12-20T12:44:43Z</time>
      </trkpt>
      <trkpt lat="48.67405" lon="1.96025">
        <ele>124.8</ele>
        <time>2023-12-20T12:44:44Z</time>
      </trkpt>
      <trkpt lat="48.67403" lon="1.96034">
        <ele>124.8</ele>
        <time>2023-12-20T12:44:45Z</time>
      </trkpt>
      <trkpt lat="48.67403" lon="1.96042">
        <ele>125.6</ele>
        <time>2023-12-20T12:44:46Z</time>
      </trkpt>
      <trkpt lat="48.67403" lon="1.96049">
        <ele>125.2</ele>
        <time>2023-12-20T12:44:47Z</time>
      </trkpt>
      <trkpt lat="48.67402" lon="1.96058">
        <ele>125.2</ele>
        <time>2023-12-20T12:44:48Z</time>
      </trkpt>
      <trkpt lat="48.67402" lon="1.96066">
        <ele>125.2</ele>
        <time>2023-12-20T12:44:49Z</time>
      </trkpt>
      <trkpt lat="48.67402" lon="1.96074">
        <ele>126.2</ele>
        <time>2023-12-20T12:44:50Z</time>
      </trkpt>
      <trkpt lat="48.67403" lon="1.96081">
        <ele>127</ele>
        <time>2023-12-20T12:44:51Z</time>
      </trkpt>
      <trkpt lat="48.67403" lon="1.96089">
        <ele>127</ele>
        <time>2023-12-20T12:44:52Z</time>
      </trkpt>
      <trkpt lat="48.67403" lon="1.96096">
        <ele>127</ele>
        <time>2023-12-20T12:44:53Z</time>
      </trkpt>
      <trkpt lat="48.67403" lon="1.96103">
        <ele>127</ele>
        <time>2023-12-20T12:44:54Z</time>
      </trkpt>
      <trkpt lat="48.67403" lon="1.9611">
        <ele>127.6</ele>
        <time>2023-12-20T12:44:55Z</time>
      </trkpt>
      <trkpt lat="48.67404" lon="1.96117">
        <ele>127.6</ele>
        <time>2023-12-20T12:44:56Z</time>
      </trkpt>
      <trkpt lat="48.67404" lon="1.96124">
        <ele>127.6</ele>
        <time>2023-12-20T12:44:57Z</time>
      </trkpt>
      <trkpt lat="48.67404" lon="1.9613">
        <ele>127.6</ele>
        <time>2023-12-20T12:44:58Z</time>
      </trkpt>
      <trkpt lat="48.67404" lon="1.96135">
        <ele>128.6</ele>
        <time>2023-12-20T12:44:59Z</time>
      </trkpt>
      <trkpt lat="48.67404" lon="1.96138">
        <ele>128.6</ele>
        <time>2023-12-20T12:45:00Z</time>
      </trkpt>
      <trkpt lat="48.67405" lon="1.96141">
        <ele>128.6</ele>
        <time>2023-12-20T12:45:01Z</time>
      </trkpt>
      <trkpt lat="48.67407" lon="1.96145">
        <ele>128</ele>
        <time>2023-12-20T12:45:02Z</time>
      </trkpt>
      <trkpt lat="48.67409" lon="1.9615">
        <ele>127.8</ele>
        <time>2023-12-20T12:45:03Z</time>
      </trkpt>
      <trkpt lat="48.67411" lon="1.96154">
        <ele>127.8</ele>
        <time>2023-12-20T12:45:04Z</time>
      </trkpt>
      <trkpt lat="48.67413" lon="1.96159">
        <ele>127.8</ele>
        <time>2023-12-20T12:45:05Z</time>
      </trkpt>
      <trkpt lat="48.67415" lon="1.96163">
        <ele>127.8</ele>
        <time>2023-12-20T12:45:06Z</time>
      </trkpt>
      <trkpt lat="48.67417" lon="1.96168">
        <ele>128.2</ele>
        <time>2023-12-20T12:45:07Z</time>
      </trkpt>
      <trkpt lat="48.6742" lon="1.96173">
        <ele>128.2</ele>
        <time>2023-12-20T12:45:08Z</time>
      </trkpt>
      <trkpt lat="48.67422" lon="1.96178">
        <ele>128.2</ele>
        <time>2023-12-20T12:45:09Z</time>
      </trkpt>
      <trkpt lat="48.67424" lon="1.96183">
        <ele>127.8</ele>
        <time>2023-12-20T12:45:10Z</time>
      </trkpt>
      <trkpt lat="48.67426" lon="1.96187">
        <ele>128</ele>
        <time>2023-12-20T12:45:11Z</time>
      </trkpt>
      <trkpt lat="48.67428" lon="1.96192">
        <ele>128</ele>
        <time>2023-12-20T12:45:12Z</time>
      </trkpt>
      <trkpt lat="48.6743" lon="1.96196">
        <ele>128</ele>
        <time>2023-12-20T12:45:13Z</time>
      </trkpt>
      <trkpt lat="48.67432" lon="1.962">
        <ele>128.6</ele>
        <time>2023-12-20T12:45:14Z</time>
      </trkpt>
      <trkpt lat="48.67434" lon="1.96203">
        <ele>129</ele>
        <time>2023-12-20T12:45:15Z</time>
      </trkpt>
      <trkpt lat="48.67436" lon="1.96206">
        <ele>129</ele>
        <time>2023-12-20T12:45:16Z</time>
      </trkpt>
      <trkpt lat="48.67438" lon="1.96209">
        <ele>129</ele>
        <time>2023-12-20T12:45:17Z</time>
      </trkpt>
      <trkpt lat="48.6744" lon="1.96213">
        <ele>129</ele>
        <time>2023-12-20T12:45:18Z</time>
      </trkpt>
      <trkpt lat="48.67441" lon="1.96217">
        <ele>129.2</ele>
        <time>2023-12-20T12:45:19Z</time>
      </trkpt>
      <trkpt lat="48.67443" lon="1.9622">
        <ele>129.2</ele>
        <time>2023-12-20T12:45:20Z</time>
      </trkpt>
      <trkpt lat="48.67445" lon="1.96222">
        <ele>129.2</ele>
        <time>2023-12-20T12:45:21Z</time>
      </trkpt>
      <trkpt lat="48.67446" lon="1.96225">
        <ele>130</ele>
        <time>2023-12-20T12:45:22Z</time>
      </trkpt>
      <trkpt lat="48.67448" lon="1.96228">
        <ele>130</ele>
        <time>2023-12-20T12:45:23Z</time>
      </trkpt>
      <trkpt lat="48.6745" lon="1.96231">
        <ele>130</ele>
        <time>2023-12-20T12:45:24Z</time>
      </trkpt>
      <trkpt lat="48.67451" lon="1.96234">
        <ele>130</ele>
        <time>2023-12-20T12:45:25Z</time>
      </trkpt>
      <trkpt lat="48.67453" lon="1.96238">
        <ele>130</ele>
        <time>2023-12-20T12:45:26Z</time>
      </trkpt>
      <trkpt lat="48.67456" lon="1.9624">
        <ele>131</ele>
        <time>2023-12-20T12:45:27Z</time>
      </trkpt>
      <trkpt lat="48.67458" lon="1.96243">
        <ele>131</ele>
        <time>2023-12-20T12:45:28Z</time>
      </trkpt>
      <trkpt lat="48.67461" lon="1.96245">
        <ele>131</ele>
        <time>2023-12-20T12:45:29Z</time>
      </trkpt>
      <trkpt lat="48.67463" lon="1.96247">
        <ele>131</ele>
        <time>2023-12-20T12:45:30Z</time>
      </trkpt>
      <trkpt lat="48.67466" lon="1.9625">
        <ele>131.4</ele>
        <time>2023-12-20T12:45:31Z</time>
      </trkpt>
      <trkpt lat="48.67468" lon="1.96252">
        <ele>131.4</ele>
        <time>2023-12-20T12:45:32Z</time>
      </trkpt>
      <trkpt lat="48.6747" lon="1.96254">
        <ele>131.4</ele>
        <time>2023-12-20T12:45:33Z</time>
      </trkpt>
      <trkpt lat="48.67472" lon="1.96257">
        <ele>131.4</ele>
        <time>2023-12-20T12:45:34Z</time>
      </trkpt>
      <trkpt lat="48.67475" lon="1.96259">
        <ele>132</ele>
        <time>2023-12-20T12:45:35Z</time>
      </trkpt>
      <trkpt lat="48.67477" lon="1.96262">
        <ele>132</ele>
        <time>2023-12-20T12:45:36Z</time>
      </trkpt>
      <trkpt lat="48.67479" lon="1.96265">
        <ele>132</ele>
        <time>2023-12-20T12:45:37Z</time>
      </trkpt>
      <trkpt lat="48.67482" lon="1.96268">
        <ele>132.4</ele>
        <time>2023-12-20T12:45:38Z</time>
      </trkpt>
      <trkpt lat="48.67484" lon="1.9627">
        <ele>132.6</ele>
        <time>2023-12-20T12:45:39Z</time>
      </trkpt>
      <trkpt lat="48.67486" lon="1.96271">
        <ele>132.6</ele>
        <time>2023-12-20T12:45:40Z</time>
      </trkpt>
      <trkpt lat="48.67488" lon="1.96274">
        <ele>132.6</ele>
        <time>2023-12-20T12:45:41Z</time>
      </trkpt>
      <trkpt lat="48.6749" lon="1.96276">
        <ele>133.2</ele>
        <time>2023-12-20T12:45:42Z</time>
      </trkpt>
      <trkpt lat="48.67493" lon="1.96279">
        <ele>133.4</ele>
        <time>2023-12-20T12:45:43Z</time>
      </trkpt>
      <trkpt lat="48.67495" lon="1.96281">
        <ele>133.4</ele>
        <time>2023-12-20T12:45:44Z</time>
      </trkpt>
      <trkpt lat="48.67497" lon="1.96284">
        <ele>133.4</ele>
        <time>2023-12-20T12:45:45Z</time>
      </trkpt>
      <trkpt lat="48.67499" lon="1.96286">
        <ele>134.2</ele>
        <time>2023-12-20T12:45:46Z</time>
      </trkpt>
      <trkpt lat="48.67501" lon="1.96288">
        <ele>133.8</ele>
        <time>2023-12-20T12:45:47Z</time>
      </trkpt>
      <trkpt lat="48.67504" lon="1.96292">
        <ele>133.8</ele>
        <time>2023-12-20T12:45:48Z</time>
      </trkpt>
      <trkpt lat="48.67506" lon="1.96294">
        <ele>133.8</ele>
        <time>2023-12-20T12:45:49Z</time>
      </trkpt>
      <trkpt lat="48.67508" lon="1.96296">
        <ele>134.4</ele>
        <time>2023-12-20T12:45:50Z</time>
      </trkpt>
      <trkpt lat="48.6751" lon="1.96298">
        <ele>135</ele>
        <time>2023-12-20T12:45:51Z</time>
      </trkpt>
      <trkpt lat="48.67512" lon="1.96301">
        <ele>135</ele>
        <time>2023-12-20T12:45:52Z</time>
      </trkpt>
      <trkpt lat="48.67514" lon="1.96305">
        <ele>135</ele>
        <time>2023-12-20T12:45:53Z</time>
      </trkpt>
      <trkpt lat="48.67517" lon="1.96308">
        <ele>135.8</ele>
        <time>2023-12-20T12:45:54Z</time>
      </trkpt>
      <trkpt lat="48.6752" lon="1.96311">
        <ele>136.2</ele>
        <time>2023-12-20T12:45:55Z</time>
      </trkpt>
      <trkpt lat="48.67522" lon="1.96313">
        <ele>136.2</ele>
        <time>2023-12-20T12:45:56Z</time>
      </trkpt>
      <trkpt lat="48.67524" lon="1.96316">
        <ele>136.2</ele>
        <time>2023-12-20T12:45:57Z</time>
      </trkpt>
      <trkpt lat="48.67526" lon="1.96319">
        <ele>136.2</ele>
        <time>2023-12-20T12:45:58Z</time>
      </trkpt>
      <trkpt lat="48.67529" lon="1.96323">
        <ele>136.8</ele>
        <time>2023-12-20T12:45:59Z</time>
      </trkpt>
      <trkpt lat="48.67531" lon="1.96328">
        <ele>136.8</ele>
        <time>2023-12-20T12:46:00Z</time>
      </trkpt>
      <trkpt lat="48.67532" lon="1.96332">
        <ele>136.8</ele>
        <time>2023-12-20T12:46:01Z</time>
      </trkpt>
      <trkpt lat="48.67534" lon="1.96336">
        <ele>136.8</ele>
        <time>2023-12-20T12:46:02Z</time>
      </trkpt>
      <trkpt lat="48.67535" lon="1.96341">
        <ele>137.4</ele>
        <time>2023-12-20T12:46:03Z</time>
      </trkpt>
      <trkpt lat="48.67537" lon="1.96346">
        <ele>137.4</ele>
        <time>2023-12-20T12:46:04Z</time>
      </trkpt>
      <trkpt lat="48.67538" lon="1.96351">
        <ele>137.4</ele>
        <time>2023-12-20T12:46:05Z</time>
      </trkpt>
      <trkpt lat="48.67538" lon="1.96356">
        <ele>137.8</ele>
        <time>2023-12-20T12:46:06Z</time>
      </trkpt>
      <trkpt lat="48.67539" lon="1.96361">
        <ele>138.2</ele>
        <time>2023-12-20T12:46:07Z</time>
      </trkpt>
      <trkpt lat="48.6754" lon="1.96367">
        <ele>138.2</ele>
        <time>2023-12-20T12:46:08Z</time>
      </trkpt>
      <trkpt lat="48.67541" lon="1.96371">
        <ele>138.2</ele>
        <time>2023-12-20T12:46:09Z</time>
      </trkpt>
      <trkpt lat="48.67541" lon="1.96375">
        <ele>138.6</ele>
        <time>2023-12-20T12:46:10Z</time>
      </trkpt>
      <trkpt lat="48.67542" lon="1.9638">
        <ele>139</ele>
        <time>2023-12-20T12:46:11Z</time>
      </trkpt>
      <trkpt lat="48.67542" lon="1.96384">
        <ele>139</ele>
        <time>2023-12-20T12:46:12Z</time>
      </trkpt>
      <trkpt lat="48.67542" lon="1.96389">
        <ele>139</ele>
        <time>2023-12-20T12:46:13Z</time>
      </trkpt>
      <trkpt lat="48.67542" lon="1.96394">
        <ele>139.8</ele>
        <time>2023-12-20T12:46:14Z</time>
      </trkpt>
      <trkpt lat="48.67542" lon="1.96399">
        <ele>140</ele>
        <time>2023-12-20T12:46:15Z</time>
      </trkpt>
      <trkpt lat="48.67542" lon="1.96404">
        <ele>140</ele>
        <time>2023-12-20T12:46:16Z</time>
      </trkpt>
      <trkpt lat="48.67542" lon="1.96409">
        <ele>140</ele>
        <time>2023-12-20T12:46:17Z</time>
      </trkpt>
      <trkpt lat="48.67543" lon="1.96413">
        <ele>140</ele>
        <time>2023-12-20T12:46:18Z</time>
      </trkpt>
      <trkpt lat="48.67543" lon="1.96417">
        <ele>140.4</ele>
        <time>2023-12-20T12:46:19Z</time>
      </trkpt>
      <trkpt lat="48.67542" lon="1.9642">
        <ele>140.4</ele>
        <time>2023-12-20T12:46:20Z</time>
      </trkpt>
      <trkpt lat="48.6754" lon="1.96423">
        <ele>140.4</ele>
        <time>2023-12-20T12:46:21Z</time>
      </trkpt>
      <trkpt lat="48.67539" lon="1.96427">
        <ele>141</ele>
        <time>2023-12-20T12:46:22Z</time>
      </trkpt>
      <trkpt lat="48.67538" lon="1.96431">
        <ele>141.2</ele>
        <time>2023-12-20T12:46:23Z</time>
      </trkpt>
      <trkpt lat="48.67538" lon="1.96435">
        <ele>141.2</ele>
        <time>2023-12-20T12:46:24Z</time>
      </trkpt>
      <trkpt lat="48.67537" lon="1.96438">
        <ele>141.2</ele>
        <time>2023-12-20T12:46:25Z</time>
      </trkpt>
      <trkpt lat="48.67535" lon="1.96442">
        <ele>141.6</ele>
        <time>2023-12-20T12:46:26Z</time>
      </trkpt>
      <trkpt lat="48.67535" lon="1.96447">
        <ele>141.8</ele>
        <time>2023-12-20T12:46:27Z</time>
      </trkpt>
      <trkpt lat="48.67533" lon="1.96451">
        <ele>141.8</ele>
        <time>2023-12-20T12:46:28Z</time>
      </trkpt>
      <trkpt lat="48.67533" lon="1.96455">
        <ele>141.8</ele>
        <time>2023-12-20T12:46:29Z</time>
      </trkpt>
      <trkpt lat="48.67532" lon="1.96457">
        <ele>142.2</ele>
        <time>2023-12-20T12:46:30Z</time>
      </trkpt>
      <trkpt lat="48.67531" lon="1.9646">
        <ele>142.4</ele>
        <time>2023-12-20T12:46:31Z</time>
      </trkpt>
      <trkpt lat="48.6753" lon="1.96464">
        <ele>142.4</ele>
        <time>2023-12-20T12:46:32Z</time>
      </trkpt>
      <trkpt lat="48.67529" lon="1.96465">
        <ele>142.4</ele>
        <time>2023-12-20T12:46:33Z</time>
      </trkpt>
      <trkpt lat="48.67529" lon="1.96467">
        <ele>143.2</ele>
        <time>2023-12-20T12:46:34Z</time>
      </trkpt>
      <trkpt lat="48.67528" lon="1.96471">
        <ele>143.4</ele>
        <time>2023-12-20T12:46:35Z</time>
      </trkpt>
      <trkpt lat="48.67527" lon="1.96475">
        <ele>143.4</ele>
        <time>2023-12-20T12:46:36Z</time>
      </trkpt>
      <trkpt lat="48.67526" lon="1.96479">
        <ele>143.4</ele>
        <time>2023-12-20T12:46:37Z</time>
      </trkpt>
      <trkpt lat="48.67525" lon="1.96482">
        <ele>143.4</ele>
        <time>2023-12-20T12:46:38Z</time>
      </trkpt>
      <trkpt lat="48.67523" lon="1.96485">
        <ele>144</ele>
        <time>2023-12-20T12:46:39Z</time>
      </trkpt>
      <trkpt lat="48.67521" lon="1.96488">
        <ele>144</ele>
        <time>2023-12-20T12:46:40Z</time>
      </trkpt>
      <trkpt lat="48.67519" lon="1.96491">
        <ele>144</ele>
        <time>2023-12-20T12:46:41Z</time>
      </trkpt>
      <trkpt lat="48.67517" lon="1.96495">
        <ele>144</ele>
        <time>2023-12-20T12:46:42Z</time>
      </trkpt>
      <trkpt lat="48.67515" lon="1.96497">
        <ele>144.4</ele>
        <time>2023-12-20T12:46:43Z</time>
      </trkpt>
      <trkpt lat="48.67513" lon="1.96501">
        <ele>144.4</ele>
        <time>2023-12-20T12:46:44Z</time>
      </trkpt>
      <trkpt lat="48.67511" lon="1.96502">
        <ele>144.4</ele>
        <time>2023-12-20T12:46:45Z</time>
      </trkpt>
      <trkpt lat="48.67509" lon="1.96503">
        <ele>145.2</ele>
        <time>2023-12-20T12:46:46Z</time>
      </trkpt>
      <trkpt lat="48.67506" lon="1.96506">
        <ele>145.2</ele>
        <time>2023-12-20T12:46:47Z</time>
      </trkpt>
      <trkpt lat="48.67503" lon="1.96508">
        <ele>145.2</ele>
        <time>2023-12-20T12:46:48Z</time>
      </trkpt>
      <trkpt lat="48.67501" lon="1.9651">
        <ele>145.2</ele>
        <time>2023-12-20T12:46:49Z</time>
      </trkpt>
      <trkpt lat="48.67498" lon="1.96511">
        <ele>145.8</ele>
        <time>2023-12-20T12:46:50Z</time>
      </trkpt>
      <trkpt lat="48.67495" lon="1.96513">
        <ele>145.8</ele>
        <time>2023-12-20T12:46:51Z</time>
      </trkpt>
      <trkpt lat="48.67492" lon="1.96515">
        <ele>145.8</ele>
        <time>2023-12-20T12:46:52Z</time>
      </trkpt>
      <trkpt lat="48.67489" lon="1.96518">
        <ele>145.8</ele>
        <time>2023-12-20T12:46:53Z</time>
      </trkpt>
      <trkpt lat="48.67486" lon="1.96522">
        <ele>146.2</ele>
        <time>2023-12-20T12:46:54Z</time>
      </trkpt>
      <trkpt lat="48.67483" lon="1.96524">
        <ele>146.6</ele>
        <time>2023-12-20T12:46:55Z</time>
      </trkpt>
      <trkpt lat="48.6748" lon="1.96527">
        <ele>146.6</ele>
        <time>2023-12-20T12:46:56Z</time>
      </trkpt>
      <trkpt lat="48.67477" lon="1.9653">
        <ele>146.6</ele>
        <time>2023-12-20T12:46:57Z</time>
      </trkpt>
      <trkpt lat="48.67475" lon="1.96534">
        <ele>146.6</ele>
        <time>2023-12-20T12:46:58Z</time>
      </trkpt>
      <trkpt lat="48.67473" lon="1.96536">
        <ele>147.2</ele>
        <time>2023-12-20T12:46:59Z</time>
      </trkpt>
      <trkpt lat="48.6747" lon="1.9654">
        <ele>147.2</ele>
        <time>2023-12-20T12:47:00Z</time>
      </trkpt>
      <trkpt lat="48.67468" lon="1.96543">
        <ele>147.2</ele>
        <time>2023-12-20T12:47:01Z</time>
      </trkpt>
      <trkpt lat="48.67465" lon="1.96549">
        <ele>147.8</ele>
        <time>2023-12-20T12:47:02Z</time>
      </trkpt>
      <trkpt lat="48.67462" lon="1.96553">
        <ele>147.8</ele>
        <time>2023-12-20T12:47:03Z</time>
      </trkpt>
      <trkpt lat="48.6746" lon="1.96557">
        <ele>147.8</ele>
        <time>2023-12-20T12:47:04Z</time>
      </trkpt>
      <trkpt lat="48.67458" lon="1.96563">
        <ele>147.8</ele>
        <time>2023-12-20T12:47:05Z</time>
      </trkpt>
      <trkpt lat="48.67456" lon="1.96567">
        <ele>147.8</ele>
        <time>2023-12-20T12:47:06Z</time>
      </trkpt>
      <trkpt lat="48.67454" lon="1.9657">
        <ele>148.4</ele>
        <time>2023-12-20T12:47:07Z</time>
      </trkpt>
      <trkpt lat="48.67452" lon="1.96574">
        <ele>148.4</ele>
        <time>2023-12-20T12:47:08Z</time>
      </trkpt>
      <trkpt lat="48.67449" lon="1.96577">
        <ele>148.4</ele>
        <time>2023-12-20T12:47:09Z</time>
      </trkpt>
      <trkpt lat="48.67447" lon="1.96581">
        <ele>148.8</ele>
        <time>2023-12-20T12:47:10Z</time>
      </trkpt>
      <trkpt lat="48.67444" lon="1.96585">
        <ele>149</ele>
        <time>2023-12-20T12:47:11Z</time>
      </trkpt>
      <trkpt lat="48.67442" lon="1.96588">
        <ele>149</ele>
        <time>2023-12-20T12:47:12Z</time>
      </trkpt>
      <trkpt lat="48.6744" lon="1.96591">
        <ele>149</ele>
        <time>2023-12-20T12:47:13Z</time>
      </trkpt>
      <trkpt lat="48.67437" lon="1.96595">
        <ele>149.8</ele>
        <time>2023-12-20T12:47:14Z</time>
      </trkpt>
      <trkpt lat="48.67434" lon="1.96598">
        <ele>149.8</ele>
        <time>2023-12-20T12:47:15Z</time>
      </trkpt>
      <trkpt lat="48.67432" lon="1.966">
        <ele>149.8</ele>
        <time>2023-12-20T12:47:16Z</time>
      </trkpt>
      <trkpt lat="48.67429" lon="1.96605">
        <ele>149.8</ele>
        <time>2023-12-20T12:47:17Z</time>
      </trkpt>
      <trkpt lat="48.67426" lon="1.96608">
        <ele>150.4</ele>
        <time>2023-12-20T12:47:18Z</time>
      </trkpt>
      <trkpt lat="48.67424" lon="1.96612">
        <ele>150.2</ele>
        <time>2023-12-20T12:47:19Z</time>
      </trkpt>
      <trkpt lat="48.67421" lon="1.96616">
        <ele>150.2</ele>
        <time>2023-12-20T12:47:20Z</time>
      </trkpt>
      <trkpt lat="48.67418" lon="1.9662">
        <ele>150.2</ele>
        <time>2023-12-20T12:47:21Z</time>
      </trkpt>
      <trkpt lat="48.67415" lon="1.96625">
        <ele>150.8</ele>
        <time>2023-12-20T12:47:22Z</time>
      </trkpt>
      <trkpt lat="48.67413" lon="1.9663">
        <ele>151</ele>
        <time>2023-12-20T12:47:23Z</time>
      </trkpt>
      <trkpt lat="48.6741" lon="1.96634">
        <ele>151</ele>
        <time>2023-12-20T12:47:24Z</time>
      </trkpt>
      <trkpt lat="48.67407" lon="1.96638">
        <ele>151</ele>
        <time>2023-12-20T12:47:25Z</time>
      </trkpt>
      <trkpt lat="48.67405" lon="1.96643">
        <ele>151.6</ele>
        <time>2023-12-20T12:47:26Z</time>
      </trkpt>
      <trkpt lat="48.67403" lon="1.96648">
        <ele>151.4</ele>
        <time>2023-12-20T12:47:27Z</time>
      </trkpt>
      <trkpt lat="48.67401" lon="1.96652">
        <ele>151.4</ele>
        <time>2023-12-20T12:47:28Z</time>
      </trkpt>
      <trkpt lat="48.67399" lon="1.96657">
        <ele>151.4</ele>
        <time>2023-12-20T12:47:29Z</time>
      </trkpt>
      <trkpt lat="48.67398" lon="1.96662">
        <ele>152.4</ele>
        <time>2023-12-20T12:47:30Z</time>
      </trkpt>
      <trkpt lat="48.67396" lon="1.96667">
        <ele>152.8</ele>
        <time>2023-12-20T12:47:31Z</time>
      </trkpt>
      <trkpt lat="48.67396" lon="1.96672">
        <ele>152.8</ele>
        <time>2023-12-20T12:47:32Z</time>
      </trkpt>
      <trkpt lat="48.67394" lon="1.96678">
        <ele>152.8</ele>
        <time>2023-12-20T12:47:33Z</time>
      </trkpt>
      <trkpt lat="48.67394" lon="1.96682">
        <ele>153.2</ele>
        <time>2023-12-20T12:47:34Z</time>
      </trkpt>
      <trkpt lat="48.67393" lon="1.96688">
        <ele>153.8</ele>
        <time>2023-12-20T12:47:35Z</time>
      </trkpt>
      <trkpt lat="48.67392" lon="1.96694">
        <ele>153.8</ele>
        <time>2023-12-20T12:47:36Z</time>
      </trkpt>
      <trkpt lat="48.67391" lon="1.967">
        <ele>153.8</ele>
        <time>2023-12-20T12:47:37Z</time>
      </trkpt>
      <trkpt lat="48.6739" lon="1.96705">
        <ele>154.2</ele>
        <time>2023-12-20T12:47:38Z</time>
      </trkpt>
      <trkpt lat="48.67389" lon="1.96711">
        <ele>154.4</ele>
        <time>2023-12-20T12:47:39Z</time>
      </trkpt>
      <trkpt lat="48.67389" lon="1.96716">
        <ele>154.4</ele>
        <time>2023-12-20T12:47:40Z</time>
      </trkpt>
      <trkpt lat="48.67388" lon="1.96723">
        <ele>154.4</ele>
        <time>2023-12-20T12:47:41Z</time>
      </trkpt>
      <trkpt lat="48.67387" lon="1.96728">
        <ele>154.6</ele>
        <time>2023-12-20T12:47:42Z</time>
      </trkpt>
      <trkpt lat="48.67387" lon="1.96734">
        <ele>154.6</ele>
        <time>2023-12-20T12:47:43Z</time>
      </trkpt>
      <trkpt lat="48.67386" lon="1.9674">
        <ele>154.6</ele>
        <time>2023-12-20T12:47:44Z</time>
      </trkpt>
      <trkpt lat="48.67385" lon="1.96746">
        <ele>154.6</ele>
        <time>2023-12-20T12:47:45Z</time>
      </trkpt>
      <trkpt lat="48.67384" lon="1.96752">
        <ele>155.2</ele>
        <time>2023-12-20T12:47:46Z</time>
      </trkpt>
      <trkpt lat="48.67384" lon="1.96757">
        <ele>155.2</ele>
        <time>2023-12-20T12:47:47Z</time>
      </trkpt>
      <trkpt lat="48.67383" lon="1.96763">
        <ele>155.2</ele>
        <time>2023-12-20T12:47:48Z</time>
      </trkpt>
      <trkpt lat="48.67383" lon="1.96769">
        <ele>155.2</ele>
        <time>2023-12-20T12:47:49Z</time>
      </trkpt>
      <trkpt lat="48.67382" lon="1.96776">
        <ele>156.2</ele>
        <time>2023-12-20T12:47:50Z</time>
      </trkpt>
      <trkpt lat="48.67382" lon="1.96781">
        <ele>156.2</ele>
        <time>2023-12-20T12:47:51Z</time>
      </trkpt>
      <trkpt lat="48.67381" lon="1.96788">
        <ele>156.2</ele>
        <time>2023-12-20T12:47:52Z</time>
      </trkpt>
      <trkpt lat="48.6738" lon="1.96793">
        <ele>156.2</ele>
        <time>2023-12-20T12:47:53Z</time>
      </trkpt>
      <trkpt lat="48.67379" lon="1.968">
        <ele>156.8</ele>
        <time>2023-12-20T12:47:54Z</time>
      </trkpt>
      <trkpt lat="48.67378" lon="1.96807">
        <ele>157</ele>
        <time>2023-12-20T12:47:55Z</time>
      </trkpt>
      <trkpt lat="48.67378" lon="1.96811">
        <ele>157</ele>
        <time>2023-12-20T12:47:56Z</time>
      </trkpt>
      <trkpt lat="48.67377" lon="1.96816">
        <ele>157</ele>
        <time>2023-12-20T12:47:57Z</time>
      </trkpt>
      <trkpt lat="48.67376" lon="1.96821">
        <ele>157.6</ele>
        <time>2023-12-20T12:47:58Z</time>
      </trkpt>
      <trkpt lat="48.67376" lon="1.96828">
        <ele>157.8</ele>
        <time>2023-12-20T12:47:59Z</time>
      </trkpt>
      <trkpt lat="48.67376" lon="1.96835">
        <ele>157.8</ele>
        <time>2023-12-20T12:48:00Z</time>
      </trkpt>
      <trkpt lat="48.67376" lon="1.9684">
        <ele>157.8</ele>
        <time>2023-12-20T12:48:01Z</time>
      </trkpt>
      <trkpt lat="48.67375" lon="1.96845">
        <ele>157.8</ele>
        <time>2023-12-20T12:48:02Z</time>
      </trkpt>
      <trkpt lat="48.67374" lon="1.96852">
        <ele>158.8</ele>
        <time>2023-12-20T12:48:03Z</time>
      </trkpt>
      <trkpt lat="48.67373" lon="1.96858">
        <ele>158.8</ele>
        <time>2023-12-20T12:48:04Z</time>
      </trkpt>
      <trkpt lat="48.67372" lon="1.96864">
        <ele>158.8</ele>
        <time>2023-12-20T12:48:05Z</time>
      </trkpt>
      <trkpt lat="48.67371" lon="1.9687">
        <ele>159.6</ele>
        <time>2023-12-20T12:48:06Z</time>
      </trkpt>
      <trkpt lat="48.67369" lon="1.96876">
        <ele>159.6</ele>
        <time>2023-12-20T12:48:07Z</time>
      </trkpt>
      <trkpt lat="48.67368" lon="1.96881">
        <ele>159.6</ele>
        <time>2023-12-20T12:48:08Z</time>
      </trkpt>
      <trkpt lat="48.67366" lon="1.96887">
        <ele>159.6</ele>
        <time>2023-12-20T12:48:09Z</time>
      </trkpt>
      <trkpt lat="48.67365" lon="1.96893">
        <ele>160</ele>
        <time>2023-12-20T12:48:10Z</time>
      </trkpt>
      <trkpt lat="48.67363" lon="1.96899">
        <ele>160.4</ele>
        <time>2023-12-20T12:48:11Z</time>
      </trkpt>
      <trkpt lat="48.67362" lon="1.96904">
        <ele>160.4</ele>
        <time>2023-12-20T12:48:12Z</time>
      </trkpt>
      <trkpt lat="48.6736" lon="1.9691">
        <ele>160.4</ele>
        <time>2023-12-20T12:48:13Z</time>
      </trkpt>
      <trkpt lat="48.67358" lon="1.96917">
        <ele>160.8</ele>
        <time>2023-12-20T12:48:14Z</time>
      </trkpt>
      <trkpt lat="48.67357" lon="1.96924">
        <ele>161.2</ele>
        <time>2023-12-20T12:48:15Z</time>
      </trkpt>
      <trkpt lat="48.67355" lon="1.96931">
        <ele>161.2</ele>
        <time>2023-12-20T12:48:16Z</time>
      </trkpt>
      <trkpt lat="48.67354" lon="1.96937">
        <ele>161.2</ele>
        <time>2023-12-20T12:48:17Z</time>
      </trkpt>
      <trkpt lat="48.67352" lon="1.96943">
        <ele>161.8</ele>
        <time>2023-12-20T12:48:18Z</time>
      </trkpt>
      <trkpt lat="48.67351" lon="1.96948">
        <ele>162</ele>
        <time>2023-12-20T12:48:19Z</time>
      </trkpt>
      <trkpt lat="48.67349" lon="1.96954">
        <ele>162</ele>
        <time>2023-12-20T12:48:20Z</time>
      </trkpt>
      <trkpt lat="48.67348" lon="1.9696">
        <ele>162</ele>
        <time>2023-12-20T12:48:21Z</time>
      </trkpt>
      <trkpt lat="48.67347" lon="1.96966">
        <ele>162</ele>
        <time>2023-12-20T12:48:22Z</time>
      </trkpt>
      <trkpt lat="48.67345" lon="1.96973">
        <ele>162.6</ele>
        <time>2023-12-20T12:48:23Z</time>
      </trkpt>
      <trkpt lat="48.67344" lon="1.9698">
        <ele>162.6</ele>
        <time>2023-12-20T12:48:24Z</time>
      </trkpt>
      <trkpt lat="48.67343" lon="1.96986">
        <ele>162.6</ele>
        <time>2023-12-20T12:48:25Z</time>
      </trkpt>
      <trkpt lat="48.67342" lon="1.96992">
        <ele>163.2</ele>
        <time>2023-12-20T12:48:26Z</time>
      </trkpt>
      <trkpt lat="48.67342" lon="1.96998">
        <ele>163.2</ele>
        <time>2023-12-20T12:48:27Z</time>
      </trkpt>
      <trkpt lat="48.67341" lon="1.97005">
        <ele>163.2</ele>
        <time>2023-12-20T12:48:28Z</time>
      </trkpt>
      <trkpt lat="48.6734" lon="1.97011">
        <ele>163.2</ele>
        <time>2023-12-20T12:48:29Z</time>
      </trkpt>
      <trkpt lat="48.67339" lon="1.97018">
        <ele>164.2</ele>
        <time>2023-12-20T12:48:30Z</time>
      </trkpt>
      <trkpt lat="48.67338" lon="1.97025">
        <ele>164</ele>
        <time>2023-12-20T12:48:31Z</time>
      </trkpt>
      <trkpt lat="48.67338" lon="1.97031">
        <ele>164</ele>
        <time>2023-12-20T12:48:32Z</time>
      </trkpt>
      <trkpt lat="48.67337" lon="1.97037">
        <ele>164</ele>
        <time>2023-12-20T12:48:33Z</time>
      </trkpt>
      <trkpt lat="48.67337" lon="1.97044">
        <ele>165</ele>
        <time>2023-12-20T12:48:34Z</time>
      </trkpt>
      <trkpt lat="48.67336" lon="1.97049">
        <ele>165.2</ele>
        <time>2023-12-20T12:48:35Z</time>
      </trkpt>
      <trkpt lat="48.67335" lon="1.97056">
        <ele>165.2</ele>
        <time>2023-12-20T12:48:36Z</time>
      </trkpt>
      <trkpt lat="48.67334" lon="1.97062">
        <ele>165.2</ele>
        <time>2023-12-20T12:48:37Z</time>
      </trkpt>
      <trkpt lat="48.67334" lon="1.97068">
        <ele>166</ele>
        <time>2023-12-20T12:48:38Z</time>
      </trkpt>
      <trkpt lat="48.67333" lon="1.97075">
        <ele>165.6</ele>
        <time>2023-12-20T12:48:39Z</time>
      </trkpt>
      <trkpt lat="48.67332" lon="1.97081">
        <ele>165.6</ele>
        <time>2023-12-20T12:48:40Z</time>
      </trkpt>
      <trkpt lat="48.67332" lon="1.97087">
        <ele>165.6</ele>
        <time>2023-12-20T12:48:41Z</time>
      </trkpt>
      <trkpt lat="48.67331" lon="1.97093">
        <ele>166.6</ele>
        <time>2023-12-20T12:48:42Z</time>
      </trkpt>
      <trkpt lat="48.6733" lon="1.97098">
        <ele>166.8</ele>
        <time>2023-12-20T12:48:43Z</time>
      </trkpt>
      <trkpt lat="48.67328" lon="1.97104">
        <ele>166.8</ele>
        <time>2023-12-20T12:48:44Z</time>
      </trkpt>
      <trkpt lat="48.67328" lon="1.97109">
        <ele>166.8</ele>
        <time>2023-12-20T12:48:45Z</time>
      </trkpt>
      <trkpt lat="48.67328" lon="1.97114">
        <ele>167</ele>
        <time>2023-12-20T12:48:46Z</time>
      </trkpt>
      <trkpt lat="48.67329" lon="1.9712">
        <ele>166.8</ele>
        <time>2023-12-20T12:48:47Z</time>
      </trkpt>
      <trkpt lat="48.6733" lon="1.97126">
        <ele>166.8</ele>
        <time>2023-12-20T12:48:48Z</time>
      </trkpt>
      <trkpt lat="48.67333" lon="1.97131">
        <ele>166.8</ele>
        <time>2023-12-20T12:48:49Z</time>
      </trkpt>
      <trkpt lat="48.67336" lon="1.97136">
        <ele>167.4</ele>
        <time>2023-12-20T12:48:50Z</time>
      </trkpt>
      <trkpt lat="48.67338" lon="1.97141">
        <ele>167.6</ele>
        <time>2023-12-20T12:48:51Z</time>
      </trkpt>
      <trkpt lat="48.67341" lon="1.97146">
        <ele>167.6</ele>
        <time>2023-12-20T12:48:52Z</time>
      </trkpt>
      <trkpt lat="48.67343" lon="1.9715">
        <ele>167.6</ele>
        <time>2023-12-20T12:48:53Z</time>
      </trkpt>
      <trkpt lat="48.67345" lon="1.97154">
        <ele>168.2</ele>
        <time>2023-12-20T12:48:54Z</time>
      </trkpt>
      <trkpt lat="48.67347" lon="1.97159">
        <ele>168.2</ele>
        <time>2023-12-20T12:48:55Z</time>
      </trkpt>
      <trkpt lat="48.6735" lon="1.97163">
        <ele>168.2</ele>
        <time>2023-12-20T12:48:56Z</time>
      </trkpt>
      <trkpt lat="48.67351" lon="1.97168">
        <ele>168.2</ele>
        <time>2023-12-20T12:48:57Z</time>
      </trkpt>
      <trkpt lat="48.67353" lon="1.97173">
        <ele>169</ele>
        <time>2023-12-20T12:48:58Z</time>
      </trkpt>
      <trkpt lat="48.67355" lon="1.97179">
        <ele>168.8</ele>
        <time>2023-12-20T12:48:59Z</time>
      </trkpt>
      <trkpt lat="48.67356" lon="1.97184">
        <ele>168.8</ele>
        <time>2023-12-20T12:49:00Z</time>
      </trkpt>
      <trkpt lat="48.67357" lon="1.97189">
        <ele>168.8</ele>
        <time>2023-12-20T12:49:01Z</time>
      </trkpt>
      <trkpt lat="48.67358" lon="1.97195">
        <ele>169.8</ele>
        <time>2023-12-20T12:49:02Z</time>
      </trkpt>
      <trkpt lat="48.6736" lon="1.972">
        <ele>170.2</ele>
        <time>2023-12-20T12:49:03Z</time>
      </trkpt>
      <trkpt lat="48.67361" lon="1.97206">
        <ele>170.2</ele>
        <time>2023-12-20T12:49:04Z</time>
      </trkpt>
      <trkpt lat="48.67362" lon="1.97211">
        <ele>170.2</ele>
        <time>2023-12-20T12:49:05Z</time>
      </trkpt>
      <trkpt lat="48.67363" lon="1.97217">
        <ele>170.6</ele>
        <time>2023-12-20T12:49:06Z</time>
      </trkpt>
      <trkpt lat="48.67363" lon="1.97223">
        <ele>170.6</ele>
        <time>2023-12-20T12:49:07Z</time>
      </trkpt>
      <trkpt lat="48.67363" lon="1.97229">
        <ele>170.6</ele>
        <time>2023-12-20T12:49:08Z</time>
      </trkpt>
      <trkpt lat="48.67364" lon="1.97234">
        <ele>170.6</ele>
        <time>2023-12-20T12:49:09Z</time>
      </trkpt>
      <trkpt lat="48.67363" lon="1.9724">
        <ele>171.6</ele>
        <time>2023-12-20T12:49:10Z</time>
      </trkpt>
      <trkpt lat="48.67363" lon="1.97246">
        <ele>172.2</ele>
        <time>2023-12-20T12:49:11Z</time>
      </trkpt>
      <trkpt lat="48.67362" lon="1.97252">
        <ele>172.2</ele>
        <time>2023-12-20T12:49:12Z</time>
      </trkpt>
      <trkpt lat="48.67361" lon="1.97259">
        <ele>172.2</ele>
        <time>2023-12-20T12:49:13Z</time>
      </trkpt>
      <trkpt lat="48.67361" lon="1.97265">
        <ele>172.2</ele>
        <time>2023-12-20T12:49:14Z</time>
      </trkpt>
      <trkpt lat="48.6736" lon="1.97271">
        <ele>172.6</ele>
        <time>2023-12-20T12:49:15Z</time>
      </trkpt>
      <trkpt lat="48.6736" lon="1.97277">
        <ele>172.6</ele>
        <time>2023-12-20T12:49:16Z</time>
      </trkpt>
      <trkpt lat="48.6736" lon="1.97283">
        <ele>172.6</ele>
        <time>2023-12-20T12:49:17Z</time>
      </trkpt>
      <trkpt lat="48.6736" lon="1.97288">
        <ele>173.2</ele>
        <time>2023-12-20T12:49:18Z</time>
      </trkpt>
      <trkpt lat="48.67359" lon="1.97294">
        <ele>173</ele>
        <time>2023-12-20T12:49:19Z</time>
      </trkpt>
      <trkpt lat="48.67358" lon="1.973">
        <ele>173</ele>
        <time>2023-12-20T12:49:20Z</time>
      </trkpt>
      <trkpt lat="48.67358" lon="1.97305">
        <ele>173</ele>
        <time>2023-12-20T12:49:21Z</time>
      </trkpt>
      <trkpt lat="48.67357" lon="1.9731">
        <ele>173.4</ele>
        <time>2023-12-20T12:49:22Z</time>
      </trkpt>
      <trkpt lat="48.67357" lon="1.97316">
        <ele>173.6</ele>
        <time>2023-12-20T12:49:23Z</time>
      </trkpt>
      <trkpt lat="48.67357" lon="1.9732">
        <ele>173.6</ele>
        <time>2023-12-20T12:49:24Z</time>
      </trkpt>
      <trkpt lat="48.67357" lon="1.97324">
        <ele>173.6</ele>
        <time>2023-12-20T12:49:25Z</time>
      </trkpt>
      <trkpt lat="48.67356" lon="1.97328">
        <ele>173.6</ele>
        <time>2023-12-20T12:49:26Z</time>
      </trkpt>
      <trkpt lat="48.67355" lon="1.97333">
        <ele>173.6</ele>
        <time>2023-12-20T12:49:27Z</time>
      </trkpt>
      <trkpt lat="48.67354" lon="1.97337">
        <ele>173.6</ele>
        <time>2023-12-20T12:49:28Z</time>
      </trkpt>
      <trkpt lat="48.67354" lon="1.97342">
        <ele>173.6</ele>
        <time>2023-12-20T12:49:29Z</time>
      </trkpt>
      <trkpt lat="48.67353" lon="1.97346">
        <ele>173</ele>
        <time>2023-12-20T12:49:30Z</time>
      </trkpt>
      <trkpt lat="48.67352" lon="1.97348">
        <ele>173.2</ele>
        <time>2023-12-20T12:49:31Z</time>
      </trkpt>
      <trkpt lat="48.67349" lon="1.97349">
        <ele>173.2</ele>
        <time>2023-12-20T12:49:32Z</time>
      </trkpt>
      <trkpt lat="48.67347" lon="1.97348">
        <ele>173.2</ele>
        <time>2023-12-20T12:49:33Z</time>
      </trkpt>
      <trkpt lat="48.67345" lon="1.97347">
        <ele>172.6</ele>
        <time>2023-12-20T12:49:34Z</time>
      </trkpt>
      <trkpt lat="48.67344" lon="1.97344">
        <ele>172.8</ele>
        <time>2023-12-20T12:49:35Z</time>
      </trkpt>
      <trkpt lat="48.67342" lon="1.97342">
        <ele>172.8</ele>
        <time>2023-12-20T12:49:36Z</time>
      </trkpt>
      <trkpt lat="48.67341" lon="1.97341">
        <ele>172.8</ele>
        <time>2023-12-20T12:49:37Z</time>
      </trkpt>
      <trkpt lat="48.6734" lon="1.97339">
        <ele>171.8</ele>
        <time>2023-12-20T12:49:38Z</time>
      </trkpt>
      <trkpt lat="48.67337" lon="1.97338">
        <ele>171.2</ele>
        <time>2023-12-20T12:49:39Z</time>
      </trkpt>
      <trkpt lat="48.67334" lon="1.97335">
        <ele>171.2</ele>
        <time>2023-12-20T12:49:40Z</time>
      </trkpt>
      <trkpt lat="48.67332" lon="1.97332">
        <ele>171.2</ele>
        <time>2023-12-20T12:49:41Z</time>
      </trkpt>
      <trkpt lat="48.67329" lon="1.97328">
        <ele>170.2</ele>
        <time>2023-12-20T12:49:42Z</time>
      </trkpt>
      <trkpt lat="48.67326" lon="1.97325">
        <ele>169.4</ele>
        <time>2023-12-20T12:49:43Z</time>
      </trkpt>
      <trkpt lat="48.67322" lon="1.9732">
        <ele>169.4</ele>
        <time>2023-12-20T12:49:44Z</time>
      </trkpt>
      <trkpt lat="48.67318" lon="1.97316">
        <ele>169.4</ele>
        <time>2023-12-20T12:49:45Z</time>
      </trkpt>
      <trkpt lat="48.67314" lon="1.97313">
        <ele>169.4</ele>
        <time>2023-12-20T12:49:46Z</time>
      </trkpt>
      <trkpt lat="48.67309" lon="1.9731">
        <ele>169.4</ele>
        <time>2023-12-20T12:49:47Z</time>
      </trkpt>
      <trkpt lat="48.67305" lon="1.97307">
        <ele>169.4</ele>
        <time>2023-12-20T12:49:48Z</time>
      </trkpt>
      <trkpt lat="48.673" lon="1.97304">
        <ele>169.4</ele>
        <time>2023-12-20T12:49:49Z</time>
      </trkpt>
      <trkpt lat="48.67295" lon="1.97301">
        <ele>169.4</ele>
        <time>2023-12-20T12:49:50Z</time>
      </trkpt>
      <trkpt lat="48.6729" lon="1.97299">
        <ele>167.6</ele>
        <time>2023-12-20T12:49:51Z</time>
      </trkpt>
      <trkpt lat="48.67284" lon="1.97297">
        <ele>167.6</ele>
        <time>2023-12-20T12:49:52Z</time>
      </trkpt>
      <trkpt lat="48.67279" lon="1.97296">
        <ele>167.6</ele>
        <time>2023-12-20T12:49:53Z</time>
      </trkpt>
      <trkpt lat="48.67274" lon="1.97294">
        <ele>168.6</ele>
        <time>2023-12-20T12:49:54Z</time>
      </trkpt>
      <trkpt lat="48.67269" lon="1.97292">
        <ele>168.4</ele>
        <time>2023-12-20T12:49:55Z</time>
      </trkpt>
      <trkpt lat="48.67265" lon="1.9729">
        <ele>168.4</ele>
        <time>2023-12-20T12:49:56Z</time>
      </trkpt>
      <trkpt lat="48.6726" lon="1.97288">
        <ele>168.4</ele>
        <time>2023-12-20T12:49:57Z</time>
      </trkpt>
      <trkpt lat="48.67256" lon="1.97287">
        <ele>167.6</ele>
        <time>2023-12-20T12:49:58Z</time>
      </trkpt>
      <trkpt lat="48.67252" lon="1.97285">
        <ele>168</ele>
        <time>2023-12-20T12:49:59Z</time>
      </trkpt>
      <trkpt lat="48.67248" lon="1.97283">
        <ele>168</ele>
        <time>2023-12-20T12:50:00Z</time>
      </trkpt>
      <trkpt lat="48.67243" lon="1.97281">
        <ele>168</ele>
        <time>2023-12-20T12:50:01Z</time>
      </trkpt>
      <trkpt lat="48.67239" lon="1.9728">
        <ele>169</ele>
        <time>2023-12-20T12:50:02Z</time>
      </trkpt>
      <trkpt lat="48.67235" lon="1.97278">
        <ele>169.8</ele>
        <time>2023-12-20T12:50:03Z</time>
      </trkpt>
      <trkpt lat="48.6723" lon="1.97275">
        <ele>169.8</ele>
        <time>2023-12-20T12:50:04Z</time>
      </trkpt>
      <trkpt lat="48.67226" lon="1.97273">
        <ele>169.8</ele>
        <time>2023-12-20T12:50:05Z</time>
      </trkpt>
      <trkpt lat="48.67222" lon="1.9727">
        <ele>169.8</ele>
        <time>2023-12-20T12:50:06Z</time>
      </trkpt>
      <trkpt lat="48.67218" lon="1.97266">
        <ele>170.4</ele>
        <time>2023-12-20T12:50:07Z</time>
      </trkpt>
      <trkpt lat="48.67214" lon="1.97263">
        <ele>170.4</ele>
        <time>2023-12-20T12:50:08Z</time>
      </trkpt>
      <trkpt lat="48.67209" lon="1.9726">
        <ele>170.4</ele>
        <time>2023-12-20T12:50:09Z</time>
      </trkpt>
      <trkpt lat="48.67205" lon="1.97257">
        <ele>170.2</ele>
        <time>2023-12-20T12:50:10Z</time>
      </trkpt>
      <trkpt lat="48.672" lon="1.97255">
        <ele>170</ele>
        <time>2023-12-20T12:50:11Z</time>
      </trkpt>
      <trkpt lat="48.67195" lon="1.97253">
        <ele>170</ele>
        <time>2023-12-20T12:50:12Z</time>
      </trkpt>
      <trkpt lat="48.67191" lon="1.9725">
        <ele>170</ele>
        <time>2023-12-20T12:50:13Z</time>
      </trkpt>
      <trkpt lat="48.67186" lon="1.97248">
        <ele>170</ele>
        <time>2023-12-20T12:50:14Z</time>
      </trkpt>
      <trkpt lat="48.67182" lon="1.97245">
        <ele>170.6</ele>
        <time>2023-12-20T12:50:15Z</time>
      </trkpt>
      <trkpt lat="48.67178" lon="1.97241">
        <ele>170.6</ele>
        <time>2023-12-20T12:50:16Z</time>
      </trkpt>
      <trkpt lat="48.67174" lon="1.97238">
        <ele>170.6</ele>
        <time>2023-12-20T12:50:17Z</time>
      </trkpt>
      <trkpt lat="48.67169" lon="1.97235">
        <ele>170.6</ele>
        <time>2023-12-20T12:50:18Z</time>
      </trkpt>
      <trkpt lat="48.67165" lon="1.97233">
        <ele>170.6</ele>
        <time>2023-12-20T12:50:19Z</time>
      </trkpt>
      <trkpt lat="48.6716" lon="1.97231">
        <ele>170.6</ele>
        <time>2023-12-20T12:50:20Z</time>
      </trkpt>
      <trkpt lat="48.67156" lon="1.97228">
        <ele>170.6</ele>
        <time>2023-12-20T12:50:21Z</time>
      </trkpt>
      <trkpt lat="48.67151" lon="1.97226">
        <ele>171.6</ele>
        <time>2023-12-20T12:50:22Z</time>
      </trkpt>
      <trkpt lat="48.67147" lon="1.97223">
        <ele>171.8</ele>
        <time>2023-12-20T12:50:23Z</time>
      </trkpt>
      <trkpt lat="48.67142" lon="1.97221">
        <ele>171.8</ele>
        <time>2023-12-20T12:50:24Z</time>
      </trkpt>
      <trkpt lat="48.67138" lon="1.97218">
        <ele>171.8</ele>
        <time>2023-12-20T12:50:25Z</time>
      </trkpt>
      <trkpt lat="48.67133" lon="1.97215">
        <ele>171.8</ele>
        <time>2023-12-20T12:50:26Z</time>
      </trkpt>
      <trkpt lat="48.67129" lon="1.97212">
        <ele>172.6</ele>
        <time>2023-12-20T12:50:27Z</time>
      </trkpt>
      <trkpt lat="48.67124" lon="1.97209">
        <ele>172.6</ele>
        <time>2023-12-20T12:50:28Z</time>
      </trkpt>
      <trkpt lat="48.6712" lon="1.97206">
        <ele>172.6</ele>
        <time>2023-12-20T12:50:29Z</time>
      </trkpt>
      <trkpt lat="48.67115" lon="1.97203">
        <ele>172.6</ele>
        <time>2023-12-20T12:50:30Z</time>
      </trkpt>
      <trkpt lat="48.6711" lon="1.972">
        <ele>172.8</ele>
        <time>2023-12-20T12:50:31Z</time>
      </trkpt>
      <trkpt lat="48.67105" lon="1.97198">
        <ele>172.8</ele>
        <time>2023-12-20T12:50:32Z</time>
      </trkpt>
      <trkpt lat="48.67101" lon="1.97195">
        <ele>172.8</ele>
        <time>2023-12-20T12:50:33Z</time>
      </trkpt>
      <trkpt lat="48.67096" lon="1.97192">
        <ele>173.2</ele>
        <time>2023-12-20T12:50:34Z</time>
      </trkpt>
      <trkpt lat="48.67092" lon="1.97189">
        <ele>173.2</ele>
        <time>2023-12-20T12:50:35Z</time>
      </trkpt>
      <trkpt lat="48.67087" lon="1.97186">
        <ele>173.2</ele>
        <time>2023-12-20T12:50:36Z</time>
      </trkpt>
      <trkpt lat="48.67082" lon="1.97183">
        <ele>173.2</ele>
        <time>2023-12-20T12:50:37Z</time>
      </trkpt>
      <trkpt lat="48.67078" lon="1.9718">
        <ele>172.6</ele>
        <time>2023-12-20T12:50:38Z</time>
      </trkpt>
      <trkpt lat="48.67073" lon="1.97177">
        <ele>172.4</ele>
        <time>2023-12-20T12:50:39Z</time>
      </trkpt>
      <trkpt lat="48.67069" lon="1.97173">
        <ele>172.4</ele>
        <time>2023-12-20T12:50:40Z</time>
      </trkpt>
      <trkpt lat="48.67065" lon="1.97171">
        <ele>172.4</ele>
        <time>2023-12-20T12:50:41Z</time>
      </trkpt>
      <trkpt lat="48.6706" lon="1.97168">
        <ele>172.6</ele>
        <time>2023-12-20T12:50:42Z</time>
      </trkpt>
      <trkpt lat="48.67056" lon="1.97165">
        <ele>172.8</ele>
        <time>2023-12-20T12:50:43Z</time>
      </trkpt>
      <trkpt lat="48.67052" lon="1.97163">
        <ele>172.8</ele>
        <time>2023-12-20T12:50:44Z</time>
      </trkpt>
      <trkpt lat="48.67048" lon="1.9716">
        <ele>172.8</ele>
        <time>2023-12-20T12:50:45Z</time>
      </trkpt>
      <trkpt lat="48.67044" lon="1.97157">
        <ele>173.8</ele>
        <time>2023-12-20T12:50:46Z</time>
      </trkpt>
      <trkpt lat="48.6704" lon="1.97154">
        <ele>174</ele>
        <time>2023-12-20T12:50:47Z</time>
      </trkpt>
      <trkpt lat="48.67036" lon="1.97151">
        <ele>174</ele>
        <time>2023-12-20T12:50:48Z</time>
      </trkpt>
      <trkpt lat="48.67032" lon="1.97149">
        <ele>174</ele>
        <time>2023-12-20T12:50:49Z</time>
      </trkpt>
      <trkpt lat="48.67027" lon="1.97146">
        <ele>174.8</ele>
        <time>2023-12-20T12:50:50Z</time>
      </trkpt>
      <trkpt lat="48.67023" lon="1.97143">
        <ele>175.2</ele>
        <time>2023-12-20T12:50:51Z</time>
      </trkpt>
      <trkpt lat="48.67019" lon="1.9714">
        <ele>175.2</ele>
        <time>2023-12-20T12:50:52Z</time>
      </trkpt>
      <trkpt lat="48.67014" lon="1.97137">
        <ele>175.2</ele>
        <time>2023-12-20T12:50:53Z</time>
      </trkpt>
      <trkpt lat="48.6701" lon="1.97134">
        <ele>175.8</ele>
        <time>2023-12-20T12:50:54Z</time>
      </trkpt>
      <trkpt lat="48.67006" lon="1.97131">
        <ele>176.2</ele>
        <time>2023-12-20T12:50:55Z</time>
      </trkpt>
      <trkpt lat="48.67001" lon="1.97128">
        <ele>176.2</ele>
        <time>2023-12-20T12:50:56Z</time>
      </trkpt>
      <trkpt lat="48.66997" lon="1.97125">
        <ele>176.2</ele>
        <time>2023-12-20T12:50:57Z</time>
      </trkpt>
      <trkpt lat="48.66993" lon="1.97122">
        <ele>176.2</ele>
        <time>2023-12-20T12:50:58Z</time>
      </trkpt>
      <trkpt lat="48.66988" lon="1.97119">
        <ele>176.6</ele>
        <time>2023-12-20T12:50:59Z</time>
      </trkpt>
      <trkpt lat="48.66984" lon="1.97117">
        <ele>176.6</ele>
        <time>2023-12-20T12:51:00Z</time>
      </trkpt>
      <trkpt lat="48.6698" lon="1.97114">
        <ele>176.6</ele>
        <time>2023-12-20T12:51:01Z</time>
      </trkpt>
      <trkpt lat="48.66976" lon="1.97111">
        <ele>177.6</ele>
        <time>2023-12-20T12:51:02Z</time>
      </trkpt>
      <trkpt lat="48.66972" lon="1.97108">
        <ele>177.4</ele>
        <time>2023-12-20T12:51:03Z</time>
      </trkpt>
      <trkpt lat="48.66967" lon="1.97105">
        <ele>177.4</ele>
        <time>2023-12-20T12:51:04Z</time>
      </trkpt>
      <trkpt lat="48.66963" lon="1.97102">
        <ele>177.4</ele>
        <time>2023-12-20T12:51:05Z</time>
      </trkpt>
      <trkpt lat="48.66958" lon="1.97099">
        <ele>177.4</ele>
        <time>2023-12-20T12:51:06Z</time>
      </trkpt>
      <trkpt lat="48.66954" lon="1.97096">
        <ele>177.6</ele>
        <time>2023-12-20T12:51:07Z</time>
      </trkpt>
      <trkpt lat="48.6695" lon="1.97093">
        <ele>177.6</ele>
        <time>2023-12-20T12:51:08Z</time>
      </trkpt>
      <trkpt lat="48.66945" lon="1.9709">
        <ele>177.6</ele>
        <time>2023-12-20T12:51:09Z</time>
      </trkpt>
      <trkpt lat="48.66941" lon="1.97086">
        <ele>178.2</ele>
        <time>2023-12-20T12:51:10Z</time>
      </trkpt>
      <trkpt lat="48.66936" lon="1.97083">
        <ele>179.2</ele>
        <time>2023-12-20T12:51:11Z</time>
      </trkpt>
      <trkpt lat="48.66932" lon="1.97081">
        <ele>179.2</ele>
        <time>2023-12-20T12:51:12Z</time>
      </trkpt>
      <trkpt lat="48.66928" lon="1.97078">
        <ele>179.2</ele>
        <time>2023-12-20T12:51:13Z</time>
      </trkpt>
      <trkpt lat="48.66924" lon="1.97075">
        <ele>179.2</ele>
        <time>2023-12-20T12:51:14Z</time>
      </trkpt>
      <trkpt lat="48.6692" lon="1.97073">
        <ele>178.8</ele>
        <time>2023-12-20T12:51:15Z</time>
      </trkpt>
      <trkpt lat="48.66916" lon="1.9707">
        <ele>178.8</ele>
        <time>2023-12-20T12:51:16Z</time>
      </trkpt>
      <trkpt lat="48.66912" lon="1.97067">
        <ele>178.8</ele>
        <time>2023-12-20T12:51:17Z</time>
      </trkpt>
      <trkpt lat="48.66908" lon="1.97065">
        <ele>178.8</ele>
        <time>2023-12-20T12:51:18Z</time>
      </trkpt>
      <trkpt lat="48.66904" lon="1.97062">
        <ele>179.2</ele>
        <time>2023-12-20T12:51:19Z</time>
      </trkpt>
      <trkpt lat="48.669" lon="1.9706">
        <ele>179.2</ele>
        <time>2023-12-20T12:51:20Z</time>
      </trkpt>
      <trkpt lat="48.66896" lon="1.97057">
        <ele>179.2</ele>
        <time>2023-12-20T12:51:21Z</time>
      </trkpt>
      <trkpt lat="48.66892" lon="1.97054">
        <ele>179.8</ele>
        <time>2023-12-20T12:51:22Z</time>
      </trkpt>
      <trkpt lat="48.66888" lon="1.97052">
        <ele>180.4</ele>
        <time>2023-12-20T12:51:23Z</time>
      </trkpt>
      <trkpt lat="48.66884" lon="1.9705">
        <ele>180.4</ele>
        <time>2023-12-20T12:51:24Z</time>
      </trkpt>
      <trkpt lat="48.66879" lon="1.97047">
        <ele>180.4</ele>
        <time>2023-12-20T12:51:25Z</time>
      </trkpt>
      <trkpt lat="48.66875" lon="1.97045">
        <ele>180.4</ele>
        <time>2023-12-20T12:51:26Z</time>
      </trkpt>
      <trkpt lat="48.66871" lon="1.97043">
        <ele>181</ele>
        <time>2023-12-20T12:51:27Z</time>
      </trkpt>
      <trkpt lat="48.66867" lon="1.97041">
        <ele>181</ele>
        <time>2023-12-20T12:51:28Z</time>
      </trkpt>
      <trkpt lat="48.66862" lon="1.9704">
        <ele>181</ele>
        <time>2023-12-20T12:51:29Z</time>
      </trkpt>
      <trkpt lat="48.66857" lon="1.97038">
        <ele>180.2</ele>
        <time>2023-12-20T12:51:30Z</time>
      </trkpt>
      <trkpt lat="48.66853" lon="1.97036">
        <ele>180.8</ele>
        <time>2023-12-20T12:51:31Z</time>
      </trkpt>
      <trkpt lat="48.66848" lon="1.97035">
        <ele>180.8</ele>
        <time>2023-12-20T12:51:32Z</time>
      </trkpt>
      <trkpt lat="48.66844" lon="1.97033">
        <ele>180.8</ele>
        <time>2023-12-20T12:51:33Z</time>
      </trkpt>
      <trkpt lat="48.6684" lon="1.97032">
        <ele>181.2</ele>
        <time>2023-12-20T12:51:34Z</time>
      </trkpt>
      <trkpt lat="48.66835" lon="1.97031">
        <ele>181.2</ele>
        <time>2023-12-20T12:51:35Z</time>
      </trkpt>
      <trkpt lat="48.6683" lon="1.97029">
        <ele>181.2</ele>
        <time>2023-12-20T12:51:36Z</time>
      </trkpt>
      <trkpt lat="48.66826" lon="1.97028">
        <ele>181.2</ele>
        <time>2023-12-20T12:51:37Z</time>
      </trkpt>
      <trkpt lat="48.66821" lon="1.97026">
        <ele>181</ele>
        <time>2023-12-20T12:51:38Z</time>
      </trkpt>
      <trkpt lat="48.66816" lon="1.97025">
        <ele>180.8</ele>
        <time>2023-12-20T12:51:39Z</time>
      </trkpt>
      <trkpt lat="48.66811" lon="1.97024">
        <ele>180.8</ele>
        <time>2023-12-20T12:51:40Z</time>
      </trkpt>
      <trkpt lat="48.66806" lon="1.97022">
        <ele>180.8</ele>
        <time>2023-12-20T12:51:41Z</time>
      </trkpt>
      <trkpt lat="48.66801" lon="1.9702">
        <ele>180.8</ele>
        <time>2023-12-20T12:51:42Z</time>
      </trkpt>
      <trkpt lat="48.66796" lon="1.97019">
        <ele>181</ele>
        <time>2023-12-20T12:51:43Z</time>
      </trkpt>
      <trkpt lat="48.66791" lon="1.97018">
        <ele>181</ele>
        <time>2023-12-20T12:51:44Z</time>
      </trkpt>
      <trkpt lat="48.66786" lon="1.97016">
        <ele>181</ele>
        <time>2023-12-20T12:51:45Z</time>
      </trkpt>
      <trkpt lat="48.66781" lon="1.97015">
        <ele>180.6</ele>
        <time>2023-12-20T12:51:46Z</time>
      </trkpt>
      <trkpt lat="48.66775" lon="1.97014">
        <ele>180.8</ele>
        <time>2023-12-20T12:51:47Z</time>
      </trkpt>
      <trkpt lat="48.6677" lon="1.97013">
        <ele>180.8</ele>
        <time>2023-12-20T12:51:48Z</time>
      </trkpt>
      <trkpt lat="48.66765" lon="1.97011">
        <ele>180.8</ele>
        <time>2023-12-20T12:51:49Z</time>
      </trkpt>
      <trkpt lat="48.66759" lon="1.9701">
        <ele>180.8</ele>
        <time>2023-12-20T12:51:50Z</time>
      </trkpt>
      <trkpt lat="48.66754" lon="1.97008">
        <ele>180.8</ele>
        <time>2023-12-20T12:51:51Z</time>
      </trkpt>
      <trkpt lat="48.66748" lon="1.97007">
        <ele>180.8</ele>
        <time>2023-12-20T12:51:52Z</time>
      </trkpt>
      <trkpt lat="48.66743" lon="1.97005">
        <ele>180.8</ele>
        <time>2023-12-20T12:51:53Z</time>
      </trkpt>
      <trkpt lat="48.66737" lon="1.97004">
        <ele>179.8</ele>
        <time>2023-12-20T12:51:54Z</time>
      </trkpt>
      <trkpt lat="48.66731" lon="1.97002">
        <ele>179.8</ele>
        <time>2023-12-20T12:51:55Z</time>
      </trkpt>
      <trkpt lat="48.66726" lon="1.97">
        <ele>179.8</ele>
        <time>2023-12-20T12:51:56Z</time>
      </trkpt>
      <trkpt lat="48.6672" lon="1.96998">
        <ele>179.8</ele>
        <time>2023-12-20T12:51:57Z</time>
      </trkpt>
      <trkpt lat="48.66714" lon="1.96995">
        <ele>179.8</ele>
        <time>2023-12-20T12:51:58Z</time>
      </trkpt>
      <trkpt lat="48.66709" lon="1.96992">
        <ele>179.2</ele>
        <time>2023-12-20T12:51:59Z</time>
      </trkpt>
      <trkpt lat="48.66703" lon="1.96988">
        <ele>179.2</ele>
        <time>2023-12-20T12:52:00Z</time>
      </trkpt>
      <trkpt lat="48.66697" lon="1.96985">
        <ele>179.2</ele>
        <time>2023-12-20T12:52:01Z</time>
      </trkpt>
      <trkpt lat="48.66692" lon="1.96981">
        <ele>179.2</ele>
        <time>2023-12-20T12:52:02Z</time>
      </trkpt>
      <trkpt lat="48.66687" lon="1.96976">
        <ele>179.4</ele>
        <time>2023-12-20T12:52:03Z</time>
      </trkpt>
      <trkpt lat="48.66681" lon="1.96972">
        <ele>179.4</ele>
        <time>2023-12-20T12:52:04Z</time>
      </trkpt>
      <trkpt lat="48.66676" lon="1.96967">
        <ele>179.4</ele>
        <time>2023-12-20T12:52:05Z</time>
      </trkpt>
      <trkpt lat="48.66671" lon="1.96963">
        <ele>179.4</ele>
        <time>2023-12-20T12:52:06Z</time>
      </trkpt>
      <trkpt lat="48.66666" lon="1.96958">
        <ele>179.2</ele>
        <time>2023-12-20T12:52:07Z</time>
      </trkpt>
      <trkpt lat="48.66661" lon="1.96954">
        <ele>179.2</ele>
        <time>2023-12-20T12:52:08Z</time>
      </trkpt>
      <trkpt lat="48.66656" lon="1.96949">
        <ele>179.2</ele>
        <time>2023-12-20T12:52:09Z</time>
      </trkpt>
      <trkpt lat="48.66651" lon="1.96945">
        <ele>179.2</ele>
        <time>2023-12-20T12:52:10Z</time>
      </trkpt>
      <trkpt lat="48.66646" lon="1.96941">
        <ele>179.8</ele>
        <time>2023-12-20T12:52:11Z</time>
      </trkpt>
      <trkpt lat="48.66641" lon="1.96936">
        <ele>179.8</ele>
        <time>2023-12-20T12:52:12Z</time>
      </trkpt>
      <trkpt lat="48.66636" lon="1.96932">
        <ele>179.8</ele>
        <time>2023-12-20T12:52:13Z</time>
      </trkpt>
      <trkpt lat="48.66631" lon="1.96927">
        <ele>179.8</ele>
        <time>2023-12-20T12:52:14Z</time>
      </trkpt>
      <trkpt lat="48.66626" lon="1.96922">
        <ele>179.8</ele>
        <time>2023-12-20T12:52:15Z</time>
      </trkpt>
      <trkpt lat="48.6662" lon="1.96918">
        <ele>179.8</ele>
        <time>2023-12-20T12:52:16Z</time>
      </trkpt>
      <trkpt lat="48.66615" lon="1.96913">
        <ele>179.8</ele>
        <time>2023-12-20T12:52:17Z</time>
      </trkpt>
      <trkpt lat="48.6661" lon="1.96908">
        <ele>180.2</ele>
        <time>2023-12-20T12:52:18Z</time>
      </trkpt>
      <trkpt lat="48.66605" lon="1.96903">
        <ele>180.2</ele>
        <time>2023-12-20T12:52:19Z</time>
      </trkpt>
      <trkpt lat="48.666" lon="1.96899">
        <ele>180.2</ele>
        <time>2023-12-20T12:52:20Z</time>
      </trkpt>
      <trkpt lat="48.66594" lon="1.96894">
        <ele>180.2</ele>
        <time>2023-12-20T12:52:21Z</time>
      </trkpt>
      <trkpt lat="48.66589" lon="1.96889">
        <ele>179.2</ele>
        <time>2023-12-20T12:52:22Z</time>
      </trkpt>
      <trkpt lat="48.66583" lon="1.96884">
        <ele>179</ele>
        <time>2023-12-20T12:52:23Z</time>
      </trkpt>
      <trkpt lat="48.66578" lon="1.96878">
        <ele>179</ele>
        <time>2023-12-20T12:52:24Z</time>
      </trkpt>
      <trkpt lat="48.66572" lon="1.96873">
        <ele>179</ele>
        <time>2023-12-20T12:52:25Z</time>
      </trkpt>
      <trkpt lat="48.66566" lon="1.96868">
        <ele>178</ele>
        <time>2023-12-20T12:52:26Z</time>
      </trkpt>
      <trkpt lat="48.66561" lon="1.96863">
        <ele>178.2</ele>
        <time>2023-12-20T12:52:27Z</time>
      </trkpt>
      <trkpt lat="48.66555" lon="1.96858">
        <ele>178.2</ele>
        <time>2023-12-20T12:52:28Z</time>
      </trkpt>
      <trkpt lat="48.6655" lon="1.96854">
        <ele>178.2</ele>
        <time>2023-12-20T12:52:29Z</time>
      </trkpt>
      <trkpt lat="48.66544" lon="1.96849">
        <ele>178.8</ele>
        <time>2023-12-20T12:52:30Z</time>
      </trkpt>
      <trkpt lat="48.66539" lon="1.96844">
        <ele>179.2</ele>
        <time>2023-12-20T12:52:31Z</time>
      </trkpt>
      <trkpt lat="48.66534" lon="1.9684">
        <ele>179.2</ele>
        <time>2023-12-20T12:52:32Z</time>
      </trkpt>
      <trkpt lat="48.66528" lon="1.96835">
        <ele>179.2</ele>
        <time>2023-12-20T12:52:33Z</time>
      </trkpt>
      <trkpt lat="48.66523" lon="1.9683">
        <ele>178.8</ele>
        <time>2023-12-20T12:52:34Z</time>
      </trkpt>
      <trkpt lat="48.66518" lon="1.96826">
        <ele>178.6</ele>
        <time>2023-12-20T12:52:35Z</time>
      </trkpt>
      <trkpt lat="48.66512" lon="1.96821">
        <ele>178.6</ele>
        <time>2023-12-20T12:52:36Z</time>
      </trkpt>
      <trkpt lat="48.66507" lon="1.96817">
        <ele>178.6</ele>
        <time>2023-12-20T12:52:37Z</time>
      </trkpt>
      <trkpt lat="48.66501" lon="1.96812">
        <ele>178.6</ele>
        <time>2023-12-20T12:52:38Z</time>
      </trkpt>
      <trkpt lat="48.66496" lon="1.96807">
        <ele>178.2</ele>
        <time>2023-12-20T12:52:39Z</time>
      </trkpt>
      <trkpt lat="48.66491" lon="1.96803">
        <ele>178.2</ele>
        <time>2023-12-20T12:52:40Z</time>
      </trkpt>
      <trkpt lat="48.66485" lon="1.96799">
        <ele>178.2</ele>
        <time>2023-12-20T12:52:41Z</time>
      </trkpt>
      <trkpt lat="48.6648" lon="1.96794">
        <ele>179</ele>
        <time>2023-12-20T12:52:42Z</time>
      </trkpt>
      <trkpt lat="48.66474" lon="1.96789">
        <ele>178.8</ele>
        <time>2023-12-20T12:52:43Z</time>
      </trkpt>
      <trkpt lat="48.66469" lon="1.96784">
        <ele>178.8</ele>
        <time>2023-12-20T12:52:44Z</time>
      </trkpt>
      <trkpt lat="48.66464" lon="1.9678">
        <ele>178.8</ele>
        <time>2023-12-20T12:52:45Z</time>
      </trkpt>
      <trkpt lat="48.66458" lon="1.96775">
        <ele>177.8</ele>
        <time>2023-12-20T12:52:46Z</time>
      </trkpt>
      <trkpt lat="48.66452" lon="1.9677">
        <ele>178.2</ele>
        <time>2023-12-20T12:52:47Z</time>
      </trkpt>
      <trkpt lat="48.66447" lon="1.96765">
        <ele>178.2</ele>
        <time>2023-12-20T12:52:48Z</time>
      </trkpt>
      <trkpt lat="48.66441" lon="1.96761">
        <ele>178.2</ele>
        <time>2023-12-20T12:52:49Z</time>
      </trkpt>
      <trkpt lat="48.66436" lon="1.96756">
        <ele>178</ele>
        <time>2023-12-20T12:52:50Z</time>
      </trkpt>
      <trkpt lat="48.6643" lon="1.96751">
        <ele>178.4</ele>
        <time>2023-12-20T12:52:51Z</time>
      </trkpt>
      <trkpt lat="48.66424" lon="1.96746">
        <ele>178.4</ele>
        <time>2023-12-20T12:52:52Z</time>
      </trkpt>
      <trkpt lat="48.66418" lon="1.96741">
        <ele>178.4</ele>
        <time>2023-12-20T12:52:53Z</time>
      </trkpt>
      <trkpt lat="48.66413" lon="1.96736">
        <ele>178.4</ele>
        <time>2023-12-20T12:52:54Z</time>
      </trkpt>
      <trkpt lat="48.66407" lon="1.96731">
        <ele>178.6</ele>
        <time>2023-12-20T12:52:55Z</time>
      </trkpt>
      <trkpt lat="48.66401" lon="1.96726">
        <ele>178.6</ele>
        <time>2023-12-20T12:52:56Z</time>
      </trkpt>
      <trkpt lat="48.66396" lon="1.96722">
        <ele>178.6</ele>
        <time>2023-12-20T12:52:57Z</time>
      </trkpt>
      <trkpt lat="48.6639" lon="1.96717">
        <ele>178.6</ele>
        <time>2023-12-20T12:52:58Z</time>
      </trkpt>
      <trkpt lat="48.66385" lon="1.96712">
        <ele>178.6</ele>
        <time>2023-12-20T12:52:59Z</time>
      </trkpt>
      <trkpt lat="48.66379" lon="1.96707">
        <ele>178.6</ele>
        <time>2023-12-20T12:53:00Z</time>
      </trkpt>
      <trkpt lat="48.66373" lon="1.96702">
        <ele>178.6</ele>
        <time>2023-12-20T12:53:01Z</time>
      </trkpt>
      <trkpt lat="48.66368" lon="1.96697">
        <ele>177.6</ele>
        <time>2023-12-20T12:53:02Z</time>
      </trkpt>
      <trkpt lat="48.66362" lon="1.96692">
        <ele>177.6</ele>
        <time>2023-12-20T12:53:03Z</time>
      </trkpt>
      <trkpt lat="48.66356" lon="1.96687">
        <ele>177.6</ele>
        <time>2023-12-20T12:53:04Z</time>
      </trkpt>
      <trkpt lat="48.6635" lon="1.96682">
        <ele>177.6</ele>
        <time>2023-12-20T12:53:05Z</time>
      </trkpt>
      <trkpt lat="48.66344" lon="1.96677">
        <ele>177</ele>
        <time>2023-12-20T12:53:06Z</time>
      </trkpt>
      <trkpt lat="48.66338" lon="1.96672">
        <ele>176.2</ele>
        <time>2023-12-20T12:53:07Z</time>
      </trkpt>
      <trkpt lat="48.66332" lon="1.96667">
        <ele>176.2</ele>
        <time>2023-12-20T12:53:08Z</time>
      </trkpt>
      <trkpt lat="48.66326" lon="1.96662">
        <ele>176.2</ele>
        <time>2023-12-20T12:53:09Z</time>
      </trkpt>
      <trkpt lat="48.6632" lon="1.96657">
        <ele>176.2</ele>
        <time>2023-12-20T12:53:10Z</time>
      </trkpt>
      <trkpt lat="48.66314" lon="1.96652">
        <ele>175.8</ele>
        <time>2023-12-20T12:53:11Z</time>
      </trkpt>
      <trkpt lat="48.66308" lon="1.96647">
        <ele>175.8</ele>
        <time>2023-12-20T12:53:12Z</time>
      </trkpt>
      <trkpt lat="48.66302" lon="1.96642">
        <ele>175.8</ele>
        <time>2023-12-20T12:53:13Z</time>
      </trkpt>
      <trkpt lat="48.66296" lon="1.96637">
        <ele>176.2</ele>
        <time>2023-12-20T12:53:14Z</time>
      </trkpt>
      <trkpt lat="48.6629" lon="1.96632">
        <ele>176.6</ele>
        <time>2023-12-20T12:53:15Z</time>
      </trkpt>
      <trkpt lat="48.66284" lon="1.96627">
        <ele>176.6</ele>
        <time>2023-12-20T12:53:16Z</time>
      </trkpt>
      <trkpt lat="48.66278" lon="1.96623">
        <ele>176.6</ele>
        <time>2023-12-20T12:53:17Z</time>
      </trkpt>
      <trkpt lat="48.66272" lon="1.96618">
        <ele>176.6</ele>
        <time>2023-12-20T12:53:18Z</time>
      </trkpt>
      <trkpt lat="48.66267" lon="1.96614">
        <ele>177.2</ele>
        <time>2023-12-20T12:53:19Z</time>
      </trkpt>
      <trkpt lat="48.66261" lon="1.96611">
        <ele>177.2</ele>
        <time>2023-12-20T12:53:20Z</time>
      </trkpt>
      <trkpt lat="48.66256" lon="1.96608">
        <ele>177.2</ele>
        <time>2023-12-20T12:53:21Z</time>
      </trkpt>
      <trkpt lat="48.66251" lon="1.96605">
        <ele>177.6</ele>
        <time>2023-12-20T12:53:22Z</time>
      </trkpt>
      <trkpt lat="48.66245" lon="1.96601">
        <ele>177.2</ele>
        <time>2023-12-20T12:53:23Z</time>
      </trkpt>
      <trkpt lat="48.6624" lon="1.96599">
        <ele>177.2</ele>
        <time>2023-12-20T12:53:24Z</time>
      </trkpt>
      <trkpt lat="48.66235" lon="1.96596">
        <ele>177.2</ele>
        <time>2023-12-20T12:53:25Z</time>
      </trkpt>
      <trkpt lat="48.66229" lon="1.96594">
        <ele>176.6</ele>
        <time>2023-12-20T12:53:26Z</time>
      </trkpt>
      <trkpt lat="48.66223" lon="1.96591">
        <ele>175.8</ele>
        <time>2023-12-20T12:53:27Z</time>
      </trkpt>
      <trkpt lat="48.66217" lon="1.96588">
        <ele>175.8</ele>
        <time>2023-12-20T12:53:28Z</time>
      </trkpt>
      <trkpt lat="48.66211" lon="1.96586">
        <ele>175.8</ele>
        <time>2023-12-20T12:53:29Z</time>
      </trkpt>
      <trkpt lat="48.66205" lon="1.96583">
        <ele>176.6</ele>
        <time>2023-12-20T12:53:30Z</time>
      </trkpt>
      <trkpt lat="48.66199" lon="1.96581">
        <ele>176.4</ele>
        <time>2023-12-20T12:53:31Z</time>
      </trkpt>
      <trkpt lat="48.66193" lon="1.96578">
        <ele>176.4</ele>
        <time>2023-12-20T12:53:32Z</time>
      </trkpt>
      <trkpt lat="48.66187" lon="1.96577">
        <ele>176.4</ele>
        <time>2023-12-20T12:53:33Z</time>
      </trkpt>
      <trkpt lat="48.66182" lon="1.96575">
        <ele>176.4</ele>
        <time>2023-12-20T12:53:34Z</time>
      </trkpt>
      <trkpt lat="48.66176" lon="1.96573">
        <ele>176.2</ele>
        <time>2023-12-20T12:53:35Z</time>
      </trkpt>
      <trkpt lat="48.6617" lon="1.96572">
        <ele>176.2</ele>
        <time>2023-12-20T12:53:36Z</time>
      </trkpt>
      <trkpt lat="48.66164" lon="1.9657">
        <ele>176.2</ele>
        <time>2023-12-20T12:53:37Z</time>
      </trkpt>
      <trkpt lat="48.66158" lon="1.96568">
        <ele>176.2</ele>
        <time>2023-12-20T12:53:38Z</time>
      </trkpt>
      <trkpt lat="48.66152" lon="1.96566">
        <ele>176.8</ele>
        <time>2023-12-20T12:53:39Z</time>
      </trkpt>
      <trkpt lat="48.66146" lon="1.96564">
        <ele>176.8</ele>
        <time>2023-12-20T12:53:40Z</time>
      </trkpt>
      <trkpt lat="48.6614" lon="1.96563">
        <ele>176.8</ele>
        <time>2023-12-20T12:53:41Z</time>
      </trkpt>
      <trkpt lat="48.66135" lon="1.96561">
        <ele>176.8</ele>
        <time>2023-12-20T12:53:42Z</time>
      </trkpt>
      <trkpt lat="48.66129" lon="1.9656">
        <ele>176.8</ele>
        <time>2023-12-20T12:53:43Z</time>
      </trkpt>
      <trkpt lat="48.66124" lon="1.96558">
        <ele>176.8</ele>
        <time>2023-12-20T12:53:44Z</time>
      </trkpt>
      <trkpt lat="48.66119" lon="1.96557">
        <ele>176.8</ele>
        <time>2023-12-20T12:53:45Z</time>
      </trkpt>
      <trkpt lat="48.66113" lon="1.96555">
        <ele>176.8</ele>
        <time>2023-12-20T12:53:46Z</time>
      </trkpt>
      <trkpt lat="48.66107" lon="1.96553">
        <ele>177</ele>
        <time>2023-12-20T12:53:47Z</time>
      </trkpt>
      <trkpt lat="48.66102" lon="1.96552">
        <ele>177</ele>
        <time>2023-12-20T12:53:48Z</time>
      </trkpt>
      <trkpt lat="48.66096" lon="1.96551">
        <ele>177</ele>
        <time>2023-12-20T12:53:49Z</time>
      </trkpt>
      <trkpt lat="48.66091" lon="1.96549">
        <ele>177</ele>
        <time>2023-12-20T12:53:50Z</time>
      </trkpt>
      <trkpt lat="48.66086" lon="1.96547">
        <ele>176.8</ele>
        <time>2023-12-20T12:53:51Z</time>
      </trkpt>
      <trkpt lat="48.66081" lon="1.96546">
        <ele>176.8</ele>
        <time>2023-12-20T12:53:52Z</time>
      </trkpt>
      <trkpt lat="48.66075" lon="1.96544">
        <ele>176.8</ele>
        <time>2023-12-20T12:53:53Z</time>
      </trkpt>
      <trkpt lat="48.66071" lon="1.96543">
        <ele>177.8</ele>
        <time>2023-12-20T12:53:54Z</time>
      </trkpt>
      <trkpt lat="48.66066" lon="1.96541">
        <ele>178.6</ele>
        <time>2023-12-20T12:53:55Z</time>
      </trkpt>
      <trkpt lat="48.66062" lon="1.96539">
        <ele>178.6</ele>
        <time>2023-12-20T12:53:56Z</time>
      </trkpt>
      <trkpt lat="48.66057" lon="1.96538">
        <ele>178.6</ele>
        <time>2023-12-20T12:53:57Z</time>
      </trkpt>
      <trkpt lat="48.66052" lon="1.96537">
        <ele>178.6</ele>
        <time>2023-12-20T12:53:58Z</time>
      </trkpt>
      <trkpt lat="48.66048" lon="1.96536">
        <ele>178.2</ele>
        <time>2023-12-20T12:53:59Z</time>
      </trkpt>
      <trkpt lat="48.66043" lon="1.96535">
        <ele>178.2</ele>
        <time>2023-12-20T12:54:00Z</time>
      </trkpt>
      <trkpt lat="48.66039" lon="1.96533">
        <ele>178.2</ele>
        <time>2023-12-20T12:54:01Z</time>
      </trkpt>
      <trkpt lat="48.66035" lon="1.96533">
        <ele>178.2</ele>
        <time>2023-12-20T12:54:02Z</time>
      </trkpt>
      <trkpt lat="48.66031" lon="1.96531">
        <ele>179</ele>
        <time>2023-12-20T12:54:03Z</time>
      </trkpt>
      <trkpt lat="48.66026" lon="1.9653">
        <ele>179</ele>
        <time>2023-12-20T12:54:04Z</time>
      </trkpt>
      <trkpt lat="48.66021" lon="1.96529">
        <ele>179</ele>
        <time>2023-12-20T12:54:05Z</time>
      </trkpt>
      <trkpt lat="48.66016" lon="1.96528">
        <ele>178</ele>
        <time>2023-12-20T12:54:06Z</time>
      </trkpt>
      <trkpt lat="48.6601" lon="1.96527">
        <ele>178.2</ele>
        <time>2023-12-20T12:54:07Z</time>
      </trkpt>
      <trkpt lat="48.66005" lon="1.96526">
        <ele>178.2</ele>
        <time>2023-12-20T12:54:08Z</time>
      </trkpt>
      <trkpt lat="48.65999" lon="1.96525">
        <ele>178.2</ele>
        <time>2023-12-20T12:54:09Z</time>
      </trkpt>
      <trkpt lat="48.65993" lon="1.96524">
        <ele>178.2</ele>
        <time>2023-12-20T12:54:10Z</time>
      </trkpt>
      <trkpt lat="48.65987" lon="1.96523">
        <ele>180</ele>
        <time>2023-12-20T12:54:11Z</time>
      </trkpt>
      <trkpt lat="48.65982" lon="1.96523">
        <ele>180</ele>
        <time>2023-12-20T12:54:12Z</time>
      </trkpt>
      <trkpt lat="48.65977" lon="1.96522">
        <ele>180</ele>
        <time>2023-12-20T12:54:13Z</time>
      </trkpt>
      <trkpt lat="48.65972" lon="1.96521">
        <ele>179.6</ele>
        <time>2023-12-20T12:54:14Z</time>
      </trkpt>
      <trkpt lat="48.65967" lon="1.96521">
        <ele>179.6</ele>
        <time>2023-12-20T12:54:15Z</time>
      </trkpt>
      <trkpt lat="48.65962" lon="1.9652">
        <ele>179.6</ele>
        <time>2023-12-20T12:54:16Z</time>
      </trkpt>
      <trkpt lat="48.65957" lon="1.96519">
        <ele>179.6</ele>
        <time>2023-12-20T12:54:17Z</time>
      </trkpt>
      <trkpt lat="48.65952" lon="1.96519">
        <ele>179.8</ele>
        <time>2023-12-20T12:54:18Z</time>
      </trkpt>
      <trkpt lat="48.65947" lon="1.96518">
        <ele>179.6</ele>
        <time>2023-12-20T12:54:19Z</time>
      </trkpt>
      <trkpt lat="48.65941" lon="1.96517">
        <ele>179.6</ele>
        <time>2023-12-20T12:54:20Z</time>
      </trkpt>
      <trkpt lat="48.65936" lon="1.96516">
        <ele>179.6</ele>
        <time>2023-12-20T12:54:21Z</time>
      </trkpt>
      <trkpt lat="48.6593" lon="1.96515">
        <ele>179.6</ele>
        <time>2023-12-20T12:54:22Z</time>
      </trkpt>
      <trkpt lat="48.65925" lon="1.96515">
        <ele>179.2</ele>
        <time>2023-12-20T12:54:23Z</time>
      </trkpt>
      <trkpt lat="48.65919" lon="1.96514">
        <ele>179.2</ele>
        <time>2023-12-20T12:54:24Z</time>
      </trkpt>
      <trkpt lat="48.65913" lon="1.96513">
        <ele>179.2</ele>
        <time>2023-12-20T12:54:25Z</time>
      </trkpt>
      <trkpt lat="48.65908" lon="1.96512">
        <ele>180</ele>
        <time>2023-12-20T12:54:26Z</time>
      </trkpt>
      <trkpt lat="48.65902" lon="1.96512">
        <ele>180.2</ele>
        <time>2023-12-20T12:54:27Z</time>
      </trkpt>
      <trkpt lat="48.65897" lon="1.96511">
        <ele>180.2</ele>
        <time>2023-12-20T12:54:28Z</time>
      </trkpt>
      <trkpt lat="48.65891" lon="1.9651">
        <ele>180.2</ele>
        <time>2023-12-20T12:54:29Z</time>
      </trkpt>
      <trkpt lat="48.65886" lon="1.9651">
        <ele>180.2</ele>
        <time>2023-12-20T12:54:30Z</time>
      </trkpt>
      <trkpt lat="48.6588" lon="1.96509">
        <ele>180.2</ele>
        <time>2023-12-20T12:54:31Z</time>
      </trkpt>
      <trkpt lat="48.65875" lon="1.96508">
        <ele>180.2</ele>
        <time>2023-12-20T12:54:32Z</time>
      </trkpt>
      <trkpt lat="48.6587" lon="1.96507">
        <ele>180.2</ele>
        <time>2023-12-20T12:54:33Z</time>
      </trkpt>
      <trkpt lat="48.65864" lon="1.96507">
        <ele>180.2</ele>
        <time>2023-12-20T12:54:34Z</time>
      </trkpt>
      <trkpt lat="48.65859" lon="1.96506">
        <ele>180.8</ele>
        <time>2023-12-20T12:54:35Z</time>
      </trkpt>
      <trkpt lat="48.65853" lon="1.96505">
        <ele>180.8</ele>
        <time>2023-12-20T12:54:36Z</time>
      </trkpt>
      <trkpt lat="48.65848" lon="1.96504">
        <ele>180.8</ele>
        <time>2023-12-20T12:54:37Z</time>
      </trkpt>
      <trkpt lat="48.65842" lon="1.96503">
        <ele>181.6</ele>
        <time>2023-12-20T12:54:38Z</time>
      </trkpt>
      <trkpt lat="48.65837" lon="1.96503">
        <ele>180.8</ele>
        <time>2023-12-20T12:54:39Z</time>
      </trkpt>
      <trkpt lat="48.65831" lon="1.96502">
        <ele>180.8</ele>
        <time>2023-12-20T12:54:40Z</time>
      </trkpt>
      <trkpt lat="48.65826" lon="1.965">
        <ele>180.8</ele>
        <time>2023-12-20T12:54:41Z</time>
      </trkpt>
      <trkpt lat="48.6582" lon="1.96499">
        <ele>180.4</ele>
        <time>2023-12-20T12:54:42Z</time>
      </trkpt>
      <trkpt lat="48.65814" lon="1.96497">
        <ele>180.2</ele>
        <time>2023-12-20T12:54:43Z</time>
      </trkpt>
      <trkpt lat="48.65809" lon="1.96496">
        <ele>180.2</ele>
        <time>2023-12-20T12:54:44Z</time>
      </trkpt>
      <trkpt lat="48.65804" lon="1.96493">
        <ele>180.2</ele>
        <time>2023-12-20T12:54:45Z</time>
      </trkpt>
      <trkpt lat="48.65798" lon="1.96491">
        <ele>181.2</ele>
        <time>2023-12-20T12:54:46Z</time>
      </trkpt>
      <trkpt lat="48.65793" lon="1.96489">
        <ele>181.4</ele>
        <time>2023-12-20T12:54:47Z</time>
      </trkpt>
      <trkpt lat="48.65788" lon="1.96485">
        <ele>181.4</ele>
        <time>2023-12-20T12:54:48Z</time>
      </trkpt>
      <trkpt lat="48.65783" lon="1.96483">
        <ele>181.4</ele>
        <time>2023-12-20T12:54:49Z</time>
      </trkpt>
      <trkpt lat="48.65778" lon="1.9648">
        <ele>181.2</ele>
        <time>2023-12-20T12:54:50Z</time>
      </trkpt>
      <trkpt lat="48.65773" lon="1.96477">
        <ele>180.8</ele>
        <time>2023-12-20T12:54:51Z</time>
      </trkpt>
      <trkpt lat="48.65768" lon="1.96473">
        <ele>180.8</ele>
        <time>2023-12-20T12:54:52Z</time>
      </trkpt>
      <trkpt lat="48.65762" lon="1.9647">
        <ele>180.8</ele>
        <time>2023-12-20T12:54:53Z</time>
      </trkpt>
      <trkpt lat="48.65757" lon="1.96467">
        <ele>180.2</ele>
        <time>2023-12-20T12:54:54Z</time>
      </trkpt>
      <trkpt lat="48.65751" lon="1.96465">
        <ele>180.8</ele>
        <time>2023-12-20T12:54:55Z</time>
      </trkpt>
      <trkpt lat="48.65746" lon="1.96462">
        <ele>180.8</ele>
        <time>2023-12-20T12:54:56Z</time>
      </trkpt>
      <trkpt lat="48.6574" lon="1.9646">
        <ele>180.8</ele>
        <time>2023-12-20T12:54:57Z</time>
      </trkpt>
      <trkpt lat="48.65735" lon="1.96458">
        <ele>180.8</ele>
        <time>2023-12-20T12:54:58Z</time>
      </trkpt>
      <trkpt lat="48.65729" lon="1.96457">
        <ele>181.6</ele>
        <time>2023-12-20T12:54:59Z</time>
      </trkpt>
      <trkpt lat="48.65724" lon="1.96456">
        <ele>181.6</ele>
        <time>2023-12-20T12:55:00Z</time>
      </trkpt>
      <trkpt lat="48.65718" lon="1.96455">
        <ele>181.6</ele>
        <time>2023-12-20T12:55:01Z</time>
      </trkpt>
      <trkpt lat="48.65712" lon="1.96455">
        <ele>181.6</ele>
        <time>2023-12-20T12:55:02Z</time>
      </trkpt>
      <trkpt lat="48.65706" lon="1.96456">
        <ele>181.2</ele>
        <time>2023-12-20T12:55:03Z</time>
      </trkpt>
      <trkpt lat="48.65701" lon="1.96456">
        <ele>181.2</ele>
        <time>2023-12-20T12:55:04Z</time>
      </trkpt>
      <trkpt lat="48.65695" lon="1.96457">
        <ele>181.2</ele>
        <time>2023-12-20T12:55:05Z</time>
      </trkpt>
      <trkpt lat="48.65689" lon="1.96458">
        <ele>182</ele>
        <time>2023-12-20T12:55:06Z</time>
      </trkpt>
      <trkpt lat="48.65683" lon="1.9646">
        <ele>182</ele>
        <time>2023-12-20T12:55:07Z</time>
      </trkpt>
      <trkpt lat="48.65677" lon="1.96461">
        <ele>182</ele>
        <time>2023-12-20T12:55:08Z</time>
      </trkpt>
      <trkpt lat="48.65671" lon="1.96462">
        <ele>182</ele>
        <time>2023-12-20T12:55:09Z</time>
      </trkpt>
      <trkpt lat="48.65666" lon="1.96464">
        <ele>182</ele>
        <time>2023-12-20T12:55:10Z</time>
      </trkpt>
      <trkpt lat="48.6566" lon="1.96465">
        <ele>181.2</ele>
        <time>2023-12-20T12:55:11Z</time>
      </trkpt>
      <trkpt lat="48.65654" lon="1.96467">
        <ele>181.2</ele>
        <time>2023-12-20T12:55:12Z</time>
      </trkpt>
      <trkpt lat="48.65648" lon="1.96468">
        <ele>181.2</ele>
        <time>2023-12-20T12:55:13Z</time>
      </trkpt>
      <trkpt lat="48.65643" lon="1.9647">
        <ele>181.2</ele>
        <time>2023-12-20T12:55:14Z</time>
      </trkpt>
      <trkpt lat="48.65637" lon="1.96471">
        <ele>181.2</ele>
        <time>2023-12-20T12:55:15Z</time>
      </trkpt>
      <trkpt lat="48.65631" lon="1.96473">
        <ele>181.2</ele>
        <time>2023-12-20T12:55:16Z</time>
      </trkpt>
      <trkpt lat="48.65624" lon="1.96474">
        <ele>181.2</ele>
        <time>2023-12-20T12:55:17Z</time>
      </trkpt>
      <trkpt lat="48.65618" lon="1.96476">
        <ele>180.8</ele>
        <time>2023-12-20T12:55:18Z</time>
      </trkpt>
      <trkpt lat="48.65612" lon="1.96477">
        <ele>180.4</ele>
        <time>2023-12-20T12:55:19Z</time>
      </trkpt>
      <trkpt lat="48.65605" lon="1.96479">
        <ele>180.4</ele>
        <time>2023-12-20T12:55:20Z</time>
      </trkpt>
      <trkpt lat="48.65599" lon="1.96481">
        <ele>180.4</ele>
        <time>2023-12-20T12:55:21Z</time>
      </trkpt>
      <trkpt lat="48.65592" lon="1.96483">
        <ele>180.4</ele>
        <time>2023-12-20T12:55:22Z</time>
      </trkpt>
      <trkpt lat="48.65585" lon="1.96484">
        <ele>180.4</ele>
        <time>2023-12-20T12:55:23Z</time>
      </trkpt>
      <trkpt lat="48.65578" lon="1.96486">
        <ele>180.4</ele>
        <time>2023-12-20T12:55:24Z</time>
      </trkpt>
      <trkpt lat="48.65572" lon="1.96488">
        <ele>180.4</ele>
        <time>2023-12-20T12:55:25Z</time>
      </trkpt>
      <trkpt lat="48.65565" lon="1.9649">
        <ele>180</ele>
        <time>2023-12-20T12:55:26Z</time>
      </trkpt>
      <trkpt lat="48.65558" lon="1.96492">
        <ele>179.4</ele>
        <time>2023-12-20T12:55:27Z</time>
      </trkpt>
      <trkpt lat="48.65551" lon="1.96493">
        <ele>179.4</ele>
        <time>2023-12-20T12:55:28Z</time>
      </trkpt>
      <trkpt lat="48.65544" lon="1.96495">
        <ele>179.4</ele>
        <time>2023-12-20T12:55:29Z</time>
      </trkpt>
      <trkpt lat="48.65537" lon="1.96497">
        <ele>179.4</ele>
        <time>2023-12-20T12:55:30Z</time>
      </trkpt>
      <trkpt lat="48.6553" lon="1.96499">
        <ele>179.4</ele>
        <time>2023-12-20T12:55:31Z</time>
      </trkpt>
      <trkpt lat="48.65523" lon="1.965">
        <ele>179.4</ele>
        <time>2023-12-20T12:55:32Z</time>
      </trkpt>
      <trkpt lat="48.65516" lon="1.96501">
        <ele>179.4</ele>
        <time>2023-12-20T12:55:33Z</time>
      </trkpt>
      <trkpt lat="48.65509" lon="1.96502">
        <ele>179.2</ele>
        <time>2023-12-20T12:55:34Z</time>
      </trkpt>
      <trkpt lat="48.65503" lon="1.96502">
        <ele>179</ele>
        <time>2023-12-20T12:55:35Z</time>
      </trkpt>
      <trkpt lat="48.65496" lon="1.96502">
        <ele>179</ele>
        <time>2023-12-20T12:55:36Z</time>
      </trkpt>
      <trkpt lat="48.65489" lon="1.96501">
        <ele>179</ele>
        <time>2023-12-20T12:55:37Z</time>
      </trkpt>
      <trkpt lat="48.65482" lon="1.965">
        <ele>179</ele>
        <time>2023-12-20T12:55:38Z</time>
      </trkpt>
      <trkpt lat="48.65476" lon="1.96498">
        <ele>178.6</ele>
        <time>2023-12-20T12:55:39Z</time>
      </trkpt>
      <trkpt lat="48.65469" lon="1.96496">
        <ele>178.6</ele>
        <time>2023-12-20T12:55:40Z</time>
      </trkpt>
      <trkpt lat="48.65463" lon="1.96494">
        <ele>178.6</ele>
        <time>2023-12-20T12:55:41Z</time>
      </trkpt>
      <trkpt lat="48.65456" lon="1.96491">
        <ele>178.6</ele>
        <time>2023-12-20T12:55:42Z</time>
      </trkpt>
      <trkpt lat="48.6545" lon="1.96488">
        <ele>178.4</ele>
        <time>2023-12-20T12:55:43Z</time>
      </trkpt>
      <trkpt lat="48.65443" lon="1.96484">
        <ele>178.4</ele>
        <time>2023-12-20T12:55:44Z</time>
      </trkpt>
      <trkpt lat="48.65437" lon="1.96481">
        <ele>178.4</ele>
        <time>2023-12-20T12:55:45Z</time>
      </trkpt>
      <trkpt lat="48.6543" lon="1.96477">
        <ele>178.4</ele>
        <time>2023-12-20T12:55:46Z</time>
      </trkpt>
      <trkpt lat="48.65424" lon="1.96473">
        <ele>178.4</ele>
        <time>2023-12-20T12:55:47Z</time>
      </trkpt>
      <trkpt lat="48.65418" lon="1.96469">
        <ele>178.4</ele>
        <time>2023-12-20T12:55:48Z</time>
      </trkpt>
      <trkpt lat="48.65411" lon="1.96465">
        <ele>178.4</ele>
        <time>2023-12-20T12:55:49Z</time>
      </trkpt>
      <trkpt lat="48.65405" lon="1.96461">
        <ele>178.4</ele>
        <time>2023-12-20T12:55:50Z</time>
      </trkpt>
      <trkpt lat="48.65398" lon="1.96457">
        <ele>177.4</ele>
        <time>2023-12-20T12:55:51Z</time>
      </trkpt>
      <trkpt lat="48.65391" lon="1.96453">
        <ele>177.4</ele>
        <time>2023-12-20T12:55:52Z</time>
      </trkpt>
      <trkpt lat="48.65385" lon="1.9645">
        <ele>177.4</ele>
        <time>2023-12-20T12:55:53Z</time>
      </trkpt>
      <trkpt lat="48.65378" lon="1.96445">
        <ele>177.4</ele>
        <time>2023-12-20T12:55:54Z</time>
      </trkpt>
      <trkpt lat="48.65371" lon="1.96441">
        <ele>177</ele>
        <time>2023-12-20T12:55:55Z</time>
      </trkpt>
      <trkpt lat="48.65364" lon="1.96437">
        <ele>177</ele>
        <time>2023-12-20T12:55:56Z</time>
      </trkpt>
      <trkpt lat="48.65357" lon="1.96434">
        <ele>177</ele>
        <time>2023-12-20T12:55:57Z</time>
      </trkpt>
      <trkpt lat="48.6535" lon="1.9643">
        <ele>177</ele>
        <time>2023-12-20T12:55:58Z</time>
      </trkpt>
      <trkpt lat="48.65343" lon="1.96426">
        <ele>176.6</ele>
        <time>2023-12-20T12:55:59Z</time>
      </trkpt>
      <trkpt lat="48.65336" lon="1.96423">
        <ele>176.6</ele>
        <time>2023-12-20T12:56:00Z</time>
      </trkpt>
      <trkpt lat="48.65328" lon="1.9642">
        <ele>176.6</ele>
        <time>2023-12-20T12:56:01Z</time>
      </trkpt>
      <trkpt lat="48.65321" lon="1.96418">
        <ele>176.8</ele>
        <time>2023-12-20T12:56:02Z</time>
      </trkpt>
      <trkpt lat="48.65314" lon="1.96417">
        <ele>177.2</ele>
        <time>2023-12-20T12:56:03Z</time>
      </trkpt>
      <trkpt lat="48.65307" lon="1.96417">
        <ele>177.2</ele>
        <time>2023-12-20T12:56:04Z</time>
      </trkpt>
      <trkpt lat="48.65299" lon="1.96417">
        <ele>177.2</ele>
        <time>2023-12-20T12:56:05Z</time>
      </trkpt>
      <trkpt lat="48.65292" lon="1.96417">
        <ele>177.2</ele>
        <time>2023-12-20T12:56:06Z</time>
      </trkpt>
      <trkpt lat="48.65285" lon="1.96418">
        <ele>177.4</ele>
        <time>2023-12-20T12:56:07Z</time>
      </trkpt>
      <trkpt lat="48.65278" lon="1.96419">
        <ele>177.4</ele>
        <time>2023-12-20T12:56:08Z</time>
      </trkpt>
      <trkpt lat="48.65271" lon="1.96422">
        <ele>177.4</ele>
        <time>2023-12-20T12:56:09Z</time>
      </trkpt>
      <trkpt lat="48.65264" lon="1.96424">
        <ele>177.4</ele>
        <time>2023-12-20T12:56:10Z</time>
      </trkpt>
      <trkpt lat="48.65257" lon="1.96428">
        <ele>178</ele>
        <time>2023-12-20T12:56:11Z</time>
      </trkpt>
      <trkpt lat="48.6525" lon="1.96432">
        <ele>178</ele>
        <time>2023-12-20T12:56:12Z</time>
      </trkpt>
      <trkpt lat="48.65243" lon="1.96436">
        <ele>178</ele>
        <time>2023-12-20T12:56:13Z</time>
      </trkpt>
      <trkpt lat="48.65237" lon="1.96441">
        <ele>178.2</ele>
        <time>2023-12-20T12:56:14Z</time>
      </trkpt>
      <trkpt lat="48.6523" lon="1.96445">
        <ele>178.2</ele>
        <time>2023-12-20T12:56:15Z</time>
      </trkpt>
      <trkpt lat="48.65224" lon="1.9645">
        <ele>178.2</ele>
        <time>2023-12-20T12:56:16Z</time>
      </trkpt>
      <trkpt lat="48.65217" lon="1.96455">
        <ele>178.2</ele>
        <time>2023-12-20T12:56:17Z</time>
      </trkpt>
      <trkpt lat="48.65211" lon="1.9646">
        <ele>178.2</ele>
        <time>2023-12-20T12:56:18Z</time>
      </trkpt>
      <trkpt lat="48.65204" lon="1.96464">
        <ele>178</ele>
        <time>2023-12-20T12:56:19Z</time>
      </trkpt>
      <trkpt lat="48.65198" lon="1.96469">
        <ele>178</ele>
        <time>2023-12-20T12:56:20Z</time>
      </trkpt>
      <trkpt lat="48.65192" lon="1.96474">
        <ele>178</ele>
        <time>2023-12-20T12:56:21Z</time>
      </trkpt>
      <trkpt lat="48.65186" lon="1.96478">
        <ele>178.8</ele>
        <time>2023-12-20T12:56:22Z</time>
      </trkpt>
      <trkpt lat="48.6518" lon="1.96483">
        <ele>178.8</ele>
        <time>2023-12-20T12:56:23Z</time>
      </trkpt>
      <trkpt lat="48.65174" lon="1.96487">
        <ele>178.8</ele>
        <time>2023-12-20T12:56:24Z</time>
      </trkpt>
      <trkpt lat="48.65168" lon="1.96492">
        <ele>178.8</ele>
        <time>2023-12-20T12:56:25Z</time>
      </trkpt>
      <trkpt lat="48.65162" lon="1.96496">
        <ele>179.4</ele>
        <time>2023-12-20T12:56:26Z</time>
      </trkpt>
      <trkpt lat="48.65156" lon="1.96501">
        <ele>179.2</ele>
        <time>2023-12-20T12:56:27Z</time>
      </trkpt>
      <trkpt lat="48.6515" lon="1.96505">
        <ele>179.2</ele>
        <time>2023-12-20T12:56:28Z</time>
      </trkpt>
      <trkpt lat="48.65144" lon="1.9651">
        <ele>179.2</ele>
        <time>2023-12-20T12:56:29Z</time>
      </trkpt>
      <trkpt lat="48.65138" lon="1.96514">
        <ele>179.2</ele>
        <time>2023-12-20T12:56:30Z</time>
      </trkpt>
      <trkpt lat="48.65133" lon="1.96519">
        <ele>179.2</ele>
        <time>2023-12-20T12:56:31Z</time>
      </trkpt>
      <trkpt lat="48.65127" lon="1.96523">
        <ele>179.2</ele>
        <time>2023-12-20T12:56:32Z</time>
      </trkpt>
      <trkpt lat="48.65121" lon="1.96528">
        <ele>179.2</ele>
        <time>2023-12-20T12:56:33Z</time>
      </trkpt>
      <trkpt lat="48.65115" lon="1.96532">
        <ele>179.2</ele>
        <time>2023-12-20T12:56:34Z</time>
      </trkpt>
      <trkpt lat="48.65109" lon="1.96536">
        <ele>179.2</ele>
        <time>2023-12-20T12:56:35Z</time>
      </trkpt>
      <trkpt lat="48.65103" lon="1.96541">
        <ele>179.2</ele>
        <time>2023-12-20T12:56:36Z</time>
      </trkpt>
      <trkpt lat="48.65097" lon="1.96545">
        <ele>179.2</ele>
        <time>2023-12-20T12:56:37Z</time>
      </trkpt>
      <trkpt lat="48.65091" lon="1.96548">
        <ele>180</ele>
        <time>2023-12-20T12:56:38Z</time>
      </trkpt>
      <trkpt lat="48.65085" lon="1.96552">
        <ele>180.4</ele>
        <time>2023-12-20T12:56:39Z</time>
      </trkpt>
      <trkpt lat="48.65079" lon="1.96556">
        <ele>180.4</ele>
        <time>2023-12-20T12:56:40Z</time>
      </trkpt>
      <trkpt lat="48.65072" lon="1.96559">
        <ele>180.4</ele>
        <time>2023-12-20T12:56:41Z</time>
      </trkpt>
      <trkpt lat="48.65066" lon="1.96562">
        <ele>180</ele>
        <time>2023-12-20T12:56:42Z</time>
      </trkpt>
      <trkpt lat="48.65059" lon="1.96565">
        <ele>179</ele>
        <time>2023-12-20T12:56:43Z</time>
      </trkpt>
      <trkpt lat="48.65053" lon="1.96568">
        <ele>179</ele>
        <time>2023-12-20T12:56:44Z</time>
      </trkpt>
      <trkpt lat="48.65046" lon="1.9657">
        <ele>179</ele>
        <time>2023-12-20T12:56:45Z</time>
      </trkpt>
      <trkpt lat="48.65039" lon="1.96572">
        <ele>180</ele>
        <time>2023-12-20T12:56:46Z</time>
      </trkpt>
      <trkpt lat="48.65032" lon="1.96574">
        <ele>179</ele>
        <time>2023-12-20T12:56:47Z</time>
      </trkpt>
      <trkpt lat="48.65025" lon="1.96576">
        <ele>179</ele>
        <time>2023-12-20T12:56:48Z</time>
      </trkpt>
      <trkpt lat="48.65018" lon="1.96577">
        <ele>179</ele>
        <time>2023-12-20T12:56:49Z</time>
      </trkpt>
      <trkpt lat="48.65011" lon="1.96579">
        <ele>179.4</ele>
        <time>2023-12-20T12:56:50Z</time>
      </trkpt>
      <trkpt lat="48.65004" lon="1.96581">
        <ele>179.8</ele>
        <time>2023-12-20T12:56:51Z</time>
      </trkpt>
      <trkpt lat="48.64997" lon="1.96582">
        <ele>179.8</ele>
        <time>2023-12-20T12:56:52Z</time>
      </trkpt>
      <trkpt lat="48.64991" lon="1.96583">
        <ele>179.8</ele>
        <time>2023-12-20T12:56:53Z</time>
      </trkpt>
      <trkpt lat="48.64984" lon="1.96585">
        <ele>179.8</ele>
        <time>2023-12-20T12:56:54Z</time>
      </trkpt>
      <trkpt lat="48.64978" lon="1.96586">
        <ele>179.8</ele>
        <time>2023-12-20T12:56:55Z</time>
      </trkpt>
      <trkpt lat="48.64971" lon="1.96587">
        <ele>179.8</ele>
        <time>2023-12-20T12:56:56Z</time>
      </trkpt>
      <trkpt lat="48.64964" lon="1.96589">
        <ele>179.8</ele>
        <time>2023-12-20T12:56:57Z</time>
      </trkpt>
      <trkpt lat="48.64958" lon="1.9659">
        <ele>180.2</ele>
        <time>2023-12-20T12:56:58Z</time>
      </trkpt>
      <trkpt lat="48.64951" lon="1.96592">
        <ele>180.2</ele>
        <time>2023-12-20T12:56:59Z</time>
      </trkpt>
      <trkpt lat="48.64945" lon="1.96593">
        <ele>180.2</ele>
        <time>2023-12-20T12:57:00Z</time>
      </trkpt>
      <trkpt lat="48.64938" lon="1.96594">
        <ele>180.2</ele>
        <time>2023-12-20T12:57:01Z</time>
      </trkpt>
      <trkpt lat="48.64932" lon="1.96596">
        <ele>180</ele>
        <time>2023-12-20T12:57:02Z</time>
      </trkpt>
      <trkpt lat="48.64925" lon="1.96597">
        <ele>180.2</ele>
        <time>2023-12-20T12:57:03Z</time>
      </trkpt>
      <trkpt lat="48.64919" lon="1.96598">
        <ele>180.2</ele>
        <time>2023-12-20T12:57:04Z</time>
      </trkpt>
      <trkpt lat="48.64912" lon="1.966">
        <ele>180.2</ele>
        <time>2023-12-20T12:57:05Z</time>
      </trkpt>
      <trkpt lat="48.64906" lon="1.96601">
        <ele>180.2</ele>
        <time>2023-12-20T12:57:06Z</time>
      </trkpt>
      <trkpt lat="48.649" lon="1.96602">
        <ele>180</ele>
        <time>2023-12-20T12:57:07Z</time>
      </trkpt>
      <trkpt lat="48.64894" lon="1.96604">
        <ele>180</ele>
        <time>2023-12-20T12:57:08Z</time>
      </trkpt>
      <trkpt lat="48.64888" lon="1.96606">
        <ele>180</ele>
        <time>2023-12-20T12:57:09Z</time>
      </trkpt>
      <trkpt lat="48.64881" lon="1.96607">
        <ele>181</ele>
        <time>2023-12-20T12:57:10Z</time>
      </trkpt>
      <trkpt lat="48.64875" lon="1.96609">
        <ele>181.2</ele>
        <time>2023-12-20T12:57:11Z</time>
      </trkpt>
      <trkpt lat="48.64869" lon="1.96611">
        <ele>181.2</ele>
        <time>2023-12-20T12:57:12Z</time>
      </trkpt>
      <trkpt lat="48.64863" lon="1.96613">
        <ele>181.2</ele>
        <time>2023-12-20T12:57:13Z</time>
      </trkpt>
      <trkpt lat="48.64857" lon="1.96616">
        <ele>181.2</ele>
        <time>2023-12-20T12:57:14Z</time>
      </trkpt>
      <trkpt lat="48.64851" lon="1.96618">
        <ele>181</ele>
        <time>2023-12-20T12:57:15Z</time>
      </trkpt>
      <trkpt lat="48.64844" lon="1.9662">
        <ele>181</ele>
        <time>2023-12-20T12:57:16Z</time>
      </trkpt>
      <trkpt lat="48.64838" lon="1.96623">
        <ele>181</ele>
        <time>2023-12-20T12:57:17Z</time>
      </trkpt>
      <trkpt lat="48.64832" lon="1.96626">
        <ele>181</ele>
        <time>2023-12-20T12:57:18Z</time>
      </trkpt>
      <trkpt lat="48.64826" lon="1.96629">
        <ele>180.6</ele>
        <time>2023-12-20T12:57:19Z</time>
      </trkpt>
      <trkpt lat="48.64819" lon="1.96632">
        <ele>180.6</ele>
        <time>2023-12-20T12:57:20Z</time>
      </trkpt>
      <trkpt lat="48.64813" lon="1.96635">
        <ele>180.6</ele>
        <time>2023-12-20T12:57:21Z</time>
      </trkpt>
      <trkpt lat="48.64806" lon="1.96637">
        <ele>179.6</ele>
        <time>2023-12-20T12:57:22Z</time>
      </trkpt>
      <trkpt lat="48.64799" lon="1.9664">
        <ele>178.8</ele>
        <time>2023-12-20T12:57:23Z</time>
      </trkpt>
      <trkpt lat="48.64792" lon="1.96644">
        <ele>178.8</ele>
        <time>2023-12-20T12:57:24Z</time>
      </trkpt>
      <trkpt lat="48.64785" lon="1.96647">
        <ele>178.8</ele>
        <time>2023-12-20T12:57:25Z</time>
      </trkpt>
      <trkpt lat="48.64779" lon="1.9665">
        <ele>178.8</ele>
        <time>2023-12-20T12:57:26Z</time>
      </trkpt>
      <trkpt lat="48.64772" lon="1.96653">
        <ele>179</ele>
        <time>2023-12-20T12:57:27Z</time>
      </trkpt>
      <trkpt lat="48.64764" lon="1.96655">
        <ele>179</ele>
        <time>2023-12-20T12:57:28Z</time>
      </trkpt>
      <trkpt lat="48.64757" lon="1.96658">
        <ele>179</ele>
        <time>2023-12-20T12:57:29Z</time>
      </trkpt>
      <trkpt lat="48.6475" lon="1.96659">
        <ele>178.2</ele>
        <time>2023-12-20T12:57:30Z</time>
      </trkpt>
      <trkpt lat="48.64743" lon="1.9666">
        <ele>178.2</ele>
        <time>2023-12-20T12:57:31Z</time>
      </trkpt>
      <trkpt lat="48.64735" lon="1.96661">
        <ele>178.2</ele>
        <time>2023-12-20T12:57:32Z</time>
      </trkpt>
      <trkpt lat="48.64728" lon="1.96662">
        <ele>178.2</ele>
        <time>2023-12-20T12:57:33Z</time>
      </trkpt>
      <trkpt lat="48.64721" lon="1.96662">
        <ele>177.8</ele>
        <time>2023-12-20T12:57:34Z</time>
      </trkpt>
      <trkpt lat="48.64714" lon="1.96663">
        <ele>178</ele>
        <time>2023-12-20T12:57:35Z</time>
      </trkpt>
      <trkpt lat="48.64706" lon="1.96663">
        <ele>178</ele>
        <time>2023-12-20T12:57:36Z</time>
      </trkpt>
      <trkpt lat="48.64699" lon="1.96664">
        <ele>178</ele>
        <time>2023-12-20T12:57:37Z</time>
      </trkpt>
      <trkpt lat="48.64692" lon="1.96665">
        <ele>178</ele>
        <time>2023-12-20T12:57:38Z</time>
      </trkpt>
      <trkpt lat="48.64685" lon="1.96666">
        <ele>178.2</ele>
        <time>2023-12-20T12:57:39Z</time>
      </trkpt>
      <trkpt lat="48.64678" lon="1.96668">
        <ele>178.2</ele>
        <time>2023-12-20T12:57:40Z</time>
      </trkpt>
      <trkpt lat="48.64671" lon="1.9667">
        <ele>178.2</ele>
        <time>2023-12-20T12:57:41Z</time>
      </trkpt>
      <trkpt lat="48.64664" lon="1.96673">
        <ele>177.2</ele>
        <time>2023-12-20T12:57:42Z</time>
      </trkpt>
      <trkpt lat="48.64657" lon="1.96676">
        <ele>176</ele>
        <time>2023-12-20T12:57:43Z</time>
      </trkpt>
      <trkpt lat="48.6465" lon="1.96681">
        <ele>176</ele>
        <time>2023-12-20T12:57:44Z</time>
      </trkpt>
      <trkpt lat="48.64644" lon="1.96686">
        <ele>176</ele>
        <time>2023-12-20T12:57:45Z</time>
      </trkpt>
      <trkpt lat="48.64638" lon="1.96691">
        <ele>176.2</ele>
        <time>2023-12-20T12:57:46Z</time>
      </trkpt>
      <trkpt lat="48.64632" lon="1.96697">
        <ele>176.6</ele>
        <time>2023-12-20T12:57:47Z</time>
      </trkpt>
      <trkpt lat="48.64626" lon="1.96704">
        <ele>176.6</ele>
        <time>2023-12-20T12:57:48Z</time>
      </trkpt>
      <trkpt lat="48.64621" lon="1.9671">
        <ele>176.6</ele>
        <time>2023-12-20T12:57:49Z</time>
      </trkpt>
      <trkpt lat="48.64616" lon="1.96716">
        <ele>177.2</ele>
        <time>2023-12-20T12:57:50Z</time>
      </trkpt>
      <trkpt lat="48.64612" lon="1.96723">
        <ele>178.4</ele>
        <time>2023-12-20T12:57:51Z</time>
      </trkpt>
      <trkpt lat="48.64607" lon="1.96729">
        <ele>178.4</ele>
        <time>2023-12-20T12:57:52Z</time>
      </trkpt>
      <trkpt lat="48.64603" lon="1.96735">
        <ele>178.4</ele>
        <time>2023-12-20T12:57:53Z</time>
      </trkpt>
      <trkpt lat="48.64599" lon="1.96739">
        <ele>179.2</ele>
        <time>2023-12-20T12:57:54Z</time>
      </trkpt>
      <trkpt lat="48.64595" lon="1.96742">
        <ele>178.8</ele>
        <time>2023-12-20T12:57:55Z</time>
      </trkpt>
      <trkpt lat="48.64591" lon="1.96743">
        <ele>178.8</ele>
        <time>2023-12-20T12:57:56Z</time>
      </trkpt>
      <trkpt lat="48.64587" lon="1.96743">
        <ele>178.8</ele>
        <time>2023-12-20T12:57:57Z</time>
      </trkpt>
      <trkpt lat="48.64583" lon="1.96742">
        <ele>178.6</ele>
        <time>2023-12-20T12:57:58Z</time>
      </trkpt>
      <trkpt lat="48.64579" lon="1.96741">
        <ele>178.8</ele>
        <time>2023-12-20T12:57:59Z</time>
      </trkpt>
      <trkpt lat="48.64576" lon="1.96739">
        <ele>178.8</ele>
        <time>2023-12-20T12:58:00Z</time>
      </trkpt>
      <trkpt lat="48.64573" lon="1.96736">
        <ele>178.8</ele>
        <time>2023-12-20T12:58:01Z</time>
      </trkpt>
      <trkpt lat="48.6457" lon="1.96733">
        <ele>179.2</ele>
        <time>2023-12-20T12:58:02Z</time>
      </trkpt>
      <trkpt lat="48.64568" lon="1.96731">
        <ele>178.6</ele>
        <time>2023-12-20T12:58:03Z</time>
      </trkpt>
      <trkpt lat="48.64565" lon="1.9673">
        <ele>178.6</ele>
        <time>2023-12-20T12:58:04Z</time>
      </trkpt>
      <trkpt lat="48.64562" lon="1.96727">
        <ele>178.6</ele>
        <time>2023-12-20T12:58:05Z</time>
      </trkpt>
      <trkpt lat="48.64559" lon="1.96723">
        <ele>178.6</ele>
        <time>2023-12-20T12:58:06Z</time>
      </trkpt>
      <trkpt lat="48.64556" lon="1.9672">
        <ele>178.2</ele>
        <time>2023-12-20T12:58:07Z</time>
      </trkpt>
      <trkpt lat="48.64552" lon="1.96717">
        <ele>178.2</ele>
        <time>2023-12-20T12:58:08Z</time>
      </trkpt>
      <trkpt lat="48.64549" lon="1.96713">
        <ele>178.2</ele>
        <time>2023-12-20T12:58:09Z</time>
      </trkpt>
      <trkpt lat="48.64545" lon="1.96709">
        <ele>178.4</ele>
        <time>2023-12-20T12:58:10Z</time>
      </trkpt>
      <trkpt lat="48.64542" lon="1.96706">
        <ele>178.8</ele>
        <time>2023-12-20T12:58:11Z</time>
      </trkpt>
      <trkpt lat="48.64537" lon="1.96702">
        <ele>178.8</ele>
        <time>2023-12-20T12:58:12Z</time>
      </trkpt>
      <trkpt lat="48.64533" lon="1.96698">
        <ele>178.8</ele>
        <time>2023-12-20T12:58:13Z</time>
      </trkpt>
      <trkpt lat="48.64528" lon="1.96695">
        <ele>178.2</ele>
        <time>2023-12-20T12:58:14Z</time>
      </trkpt>
      <trkpt lat="48.64524" lon="1.96691">
        <ele>178.2</ele>
        <time>2023-12-20T12:58:15Z</time>
      </trkpt>
      <trkpt lat="48.64519" lon="1.96687">
        <ele>178.2</ele>
        <time>2023-12-20T12:58:16Z</time>
      </trkpt>
      <trkpt lat="48.64513" lon="1.96684">
        <ele>178.2</ele>
        <time>2023-12-20T12:58:17Z</time>
      </trkpt>
      <trkpt lat="48.64507" lon="1.96681">
        <ele>177.2</ele>
        <time>2023-12-20T12:58:18Z</time>
      </trkpt>
      <trkpt lat="48.64502" lon="1.96679">
        <ele>178.4</ele>
        <time>2023-12-20T12:58:19Z</time>
      </trkpt>
      <trkpt lat="48.64497" lon="1.96677">
        <ele>178.4</ele>
        <time>2023-12-20T12:58:20Z</time>
      </trkpt>
      <trkpt lat="48.64492" lon="1.96675">
        <ele>178.4</ele>
        <time>2023-12-20T12:58:21Z</time>
      </trkpt>
      <trkpt lat="48.64486" lon="1.96674">
        <ele>177.8</ele>
        <time>2023-12-20T12:58:22Z</time>
      </trkpt>
      <trkpt lat="48.64481" lon="1.96674">
        <ele>178</ele>
        <time>2023-12-20T12:58:23Z</time>
      </trkpt>
      <trkpt lat="48.64476" lon="1.96674">
        <ele>178</ele>
        <time>2023-12-20T12:58:24Z</time>
      </trkpt>
      <trkpt lat="48.64471" lon="1.96673">
        <ele>178</ele>
        <time>2023-12-20T12:58:25Z</time>
      </trkpt>
      <trkpt lat="48.64465" lon="1.96673">
        <ele>179</ele>
        <time>2023-12-20T12:58:26Z</time>
      </trkpt>
      <trkpt lat="48.6446" lon="1.96673">
        <ele>179.2</ele>
        <time>2023-12-20T12:58:27Z</time>
      </trkpt>
      <trkpt lat="48.64454" lon="1.96674">
        <ele>179.2</ele>
        <time>2023-12-20T12:58:28Z</time>
      </trkpt>
      <trkpt lat="48.64448" lon="1.96674">
        <ele>179.2</ele>
        <time>2023-12-20T12:58:29Z</time>
      </trkpt>
      <trkpt lat="48.64443" lon="1.96673">
        <ele>179.8</ele>
        <time>2023-12-20T12:58:30Z</time>
      </trkpt>
      <trkpt lat="48.64437" lon="1.96673">
        <ele>179.8</ele>
        <time>2023-12-20T12:58:31Z</time>
      </trkpt>
      <trkpt lat="48.64431" lon="1.96673">
        <ele>179.8</ele>
        <time>2023-12-20T12:58:32Z</time>
      </trkpt>
      <trkpt lat="48.64426" lon="1.96673">
        <ele>179.8</ele>
        <time>2023-12-20T12:58:33Z</time>
      </trkpt>
      <trkpt lat="48.6442" lon="1.96673">
        <ele>179.8</ele>
        <time>2023-12-20T12:58:34Z</time>
      </trkpt>
      <trkpt lat="48.64414" lon="1.96673">
        <ele>179.2</ele>
        <time>2023-12-20T12:58:35Z</time>
      </trkpt>
      <trkpt lat="48.64409" lon="1.96673">
        <ele>179.2</ele>
        <time>2023-12-20T12:58:36Z</time>
      </trkpt>
      <trkpt lat="48.64403" lon="1.96673">
        <ele>179.2</ele>
        <time>2023-12-20T12:58:37Z</time>
      </trkpt>
      <trkpt lat="48.64398" lon="1.96673">
        <ele>179.2</ele>
        <time>2023-12-20T12:58:38Z</time>
      </trkpt>
      <trkpt lat="48.64392" lon="1.96673">
        <ele>177.8</ele>
        <time>2023-12-20T12:58:39Z</time>
      </trkpt>
      <trkpt lat="48.64386" lon="1.96672">
        <ele>177.8</ele>
        <time>2023-12-20T12:58:40Z</time>
      </trkpt>
      <trkpt lat="48.64381" lon="1.96671">
        <ele>177.8</ele>
        <time>2023-12-20T12:58:41Z</time>
      </trkpt>
      <trkpt lat="48.64374" lon="1.96671">
        <ele>178.6</ele>
        <time>2023-12-20T12:58:42Z</time>
      </trkpt>
      <trkpt lat="48.64369" lon="1.96669">
        <ele>177.8</ele>
        <time>2023-12-20T12:58:43Z</time>
      </trkpt>
      <trkpt lat="48.64363" lon="1.96668">
        <ele>177.8</ele>
        <time>2023-12-20T12:58:44Z</time>
      </trkpt>
      <trkpt lat="48.64357" lon="1.96666">
        <ele>177.8</ele>
        <time>2023-12-20T12:58:45Z</time>
      </trkpt>
      <trkpt lat="48.64351" lon="1.96664">
        <ele>178.8</ele>
        <time>2023-12-20T12:58:46Z</time>
      </trkpt>
      <trkpt lat="48.64346" lon="1.96662">
        <ele>178</ele>
        <time>2023-12-20T12:58:47Z</time>
      </trkpt>
      <trkpt lat="48.6434" lon="1.9666">
        <ele>178</ele>
        <time>2023-12-20T12:58:48Z</time>
      </trkpt>
      <trkpt lat="48.64334" lon="1.96657">
        <ele>178</ele>
        <time>2023-12-20T12:58:49Z</time>
      </trkpt>
      <trkpt lat="48.64329" lon="1.96655">
        <ele>178.6</ele>
        <time>2023-12-20T12:58:50Z</time>
      </trkpt>
      <trkpt lat="48.64323" lon="1.96653">
        <ele>179.2</ele>
        <time>2023-12-20T12:58:51Z</time>
      </trkpt>
      <trkpt lat="48.64318" lon="1.96651">
        <ele>179.2</ele>
        <time>2023-12-20T12:58:52Z</time>
      </trkpt>
      <trkpt lat="48.64313" lon="1.96649">
        <ele>179.2</ele>
        <time>2023-12-20T12:58:53Z</time>
      </trkpt>
      <trkpt lat="48.64307" lon="1.96648">
        <ele>179.2</ele>
        <time>2023-12-20T12:58:54Z</time>
      </trkpt>
      <trkpt lat="48.64303" lon="1.96646">
        <ele>179.8</ele>
        <time>2023-12-20T12:58:55Z</time>
      </trkpt>
      <trkpt lat="48.64298" lon="1.96644">
        <ele>179.8</ele>
        <time>2023-12-20T12:58:56Z</time>
      </trkpt>
      <trkpt lat="48.64293" lon="1.96643">
        <ele>179.8</ele>
        <time>2023-12-20T12:58:57Z</time>
      </trkpt>
      <trkpt lat="48.64289" lon="1.96641">
        <ele>180.4</ele>
        <time>2023-12-20T12:58:58Z</time>
      </trkpt>
      <trkpt lat="48.64284" lon="1.9664">
        <ele>180.2</ele>
        <time>2023-12-20T12:58:59Z</time>
      </trkpt>
      <trkpt lat="48.6428" lon="1.96639">
        <ele>180.2</ele>
        <time>2023-12-20T12:59:00Z</time>
      </trkpt>
      <trkpt lat="48.64276" lon="1.96637">
        <ele>180.2</ele>
        <time>2023-12-20T12:59:01Z</time>
      </trkpt>
      <trkpt lat="48.64272" lon="1.96635">
        <ele>179.8</ele>
        <time>2023-12-20T12:59:02Z</time>
      </trkpt>
      <trkpt lat="48.64268" lon="1.96633">
        <ele>180.2</ele>
        <time>2023-12-20T12:59:03Z</time>
      </trkpt>
      <trkpt lat="48.64264" lon="1.96631">
        <ele>180.2</ele>
        <time>2023-12-20T12:59:04Z</time>
      </trkpt>
      <trkpt lat="48.64261" lon="1.96631">
        <ele>180.2</ele>
        <time>2023-12-20T12:59:05Z</time>
      </trkpt>
      <trkpt lat="48.64257" lon="1.96631">
        <ele>181.2</ele>
        <time>2023-12-20T12:59:06Z</time>
      </trkpt>
      <trkpt lat="48.64254" lon="1.96632">
        <ele>180.6</ele>
        <time>2023-12-20T12:59:07Z</time>
      </trkpt>
      <trkpt lat="48.6425" lon="1.96636">
        <ele>180.6</ele>
        <time>2023-12-20T12:59:08Z</time>
      </trkpt>
      <trkpt lat="48.64248" lon="1.9664">
        <ele>180.6</ele>
        <time>2023-12-20T12:59:09Z</time>
      </trkpt>
      <trkpt lat="48.64245" lon="1.96646">
        <ele>181.2</ele>
        <time>2023-12-20T12:59:10Z</time>
      </trkpt>
      <trkpt lat="48.64242" lon="1.96652">
        <ele>180.2</ele>
        <time>2023-12-20T12:59:11Z</time>
      </trkpt>
      <trkpt lat="48.64238" lon="1.96658">
        <ele>180.2</ele>
        <time>2023-12-20T12:59:12Z</time>
      </trkpt>
      <trkpt lat="48.64236" lon="1.96664">
        <ele>180.2</ele>
        <time>2023-12-20T12:59:13Z</time>
      </trkpt>
      <trkpt lat="48.64233" lon="1.9667">
        <ele>180.8</ele>
        <time>2023-12-20T12:59:14Z</time>
      </trkpt>
      <trkpt lat="48.64231" lon="1.96677">
        <ele>180.8</ele>
        <time>2023-12-20T12:59:15Z</time>
      </trkpt>
      <trkpt lat="48.64228" lon="1.96684">
        <ele>180.8</ele>
        <time>2023-12-20T12:59:16Z</time>
      </trkpt>
      <trkpt lat="48.64226" lon="1.96691">
        <ele>180.8</ele>
        <time>2023-12-20T12:59:17Z</time>
      </trkpt>
      <trkpt lat="48.64223" lon="1.96698">
        <ele>180</ele>
        <time>2023-12-20T12:59:18Z</time>
      </trkpt>
      <trkpt lat="48.6422" lon="1.96705">
        <ele>179.8</ele>
        <time>2023-12-20T12:59:19Z</time>
      </trkpt>
      <trkpt lat="48.64217" lon="1.96712">
        <ele>179.8</ele>
        <time>2023-12-20T12:59:20Z</time>
      </trkpt>
      <trkpt lat="48.64214" lon="1.9672">
        <ele>179.8</ele>
        <time>2023-12-20T12:59:21Z</time>
      </trkpt>
      <trkpt lat="48.6421" lon="1.96727">
        <ele>179.8</ele>
        <time>2023-12-20T12:59:22Z</time>
      </trkpt>
      <trkpt lat="48.64207" lon="1.96735">
        <ele>179.2</ele>
        <time>2023-12-20T12:59:23Z</time>
      </trkpt>
      <trkpt lat="48.64204" lon="1.96742">
        <ele>179.2</ele>
        <time>2023-12-20T12:59:24Z</time>
      </trkpt>
      <trkpt lat="48.642" lon="1.9675">
        <ele>179.2</ele>
        <time>2023-12-20T12:59:25Z</time>
      </trkpt>
      <trkpt lat="48.64196" lon="1.96757">
        <ele>179</ele>
        <time>2023-12-20T12:59:26Z</time>
      </trkpt>
      <trkpt lat="48.64191" lon="1.96764">
        <ele>179</ele>
        <time>2023-12-20T12:59:27Z</time>
      </trkpt>
      <trkpt lat="48.64187" lon="1.96771">
        <ele>179</ele>
        <time>2023-12-20T12:59:28Z</time>
      </trkpt>
      <trkpt lat="48.64183" lon="1.96777">
        <ele>179</ele>
        <time>2023-12-20T12:59:29Z</time>
      </trkpt>
      <trkpt lat="48.64179" lon="1.96782">
        <ele>179</ele>
        <time>2023-12-20T12:59:30Z</time>
      </trkpt>
      <trkpt lat="48.64175" lon="1.96788">
        <ele>180</ele>
        <time>2023-12-20T12:59:31Z</time>
      </trkpt>
      <trkpt lat="48.64171" lon="1.96794">
        <ele>180</ele>
        <time>2023-12-20T12:59:32Z</time>
      </trkpt>
      <trkpt lat="48.64167" lon="1.96799">
        <ele>180</ele>
        <time>2023-12-20T12:59:33Z</time>
      </trkpt>
      <trkpt lat="48.64164" lon="1.96805">
        <ele>179</ele>
        <time>2023-12-20T12:59:34Z</time>
      </trkpt>
      <trkpt lat="48.6416" lon="1.96811">
        <ele>178.8</ele>
        <time>2023-12-20T12:59:35Z</time>
      </trkpt>
      <trkpt lat="48.64157" lon="1.96817">
        <ele>178.8</ele>
        <time>2023-12-20T12:59:36Z</time>
      </trkpt>
      <trkpt lat="48.64154" lon="1.96822">
        <ele>178.8</ele>
        <time>2023-12-20T12:59:37Z</time>
      </trkpt>
      <trkpt lat="48.6415" lon="1.96829">
        <ele>178.8</ele>
        <time>2023-12-20T12:59:38Z</time>
      </trkpt>
      <trkpt lat="48.64146" lon="1.96836">
        <ele>178</ele>
        <time>2023-12-20T12:59:39Z</time>
      </trkpt>
      <trkpt lat="48.64142" lon="1.96842">
        <ele>178</ele>
        <time>2023-12-20T12:59:40Z</time>
      </trkpt>
      <trkpt lat="48.64137" lon="1.96846">
        <ele>178</ele>
        <time>2023-12-20T12:59:41Z</time>
      </trkpt>
      <trkpt lat="48.64132" lon="1.9685">
        <ele>177</ele>
        <time>2023-12-20T12:59:42Z</time>
      </trkpt>
      <trkpt lat="48.64127" lon="1.96853">
        <ele>177</ele>
        <time>2023-12-20T12:59:43Z</time>
      </trkpt>
      <trkpt lat="48.64121" lon="1.96854">
        <ele>177</ele>
        <time>2023-12-20T12:59:44Z</time>
      </trkpt>
      <trkpt lat="48.64115" lon="1.96856">
        <ele>177</ele>
        <time>2023-12-20T12:59:45Z</time>
      </trkpt>
      <trkpt lat="48.64108" lon="1.96857">
        <ele>177</ele>
        <time>2023-12-20T12:59:46Z</time>
      </trkpt>
      <trkpt lat="48.64102" lon="1.96857">
        <ele>178</ele>
        <time>2023-12-20T12:59:47Z</time>
      </trkpt>
      <trkpt lat="48.64096" lon="1.96858">
        <ele>178</ele>
        <time>2023-12-20T12:59:48Z</time>
      </trkpt>
      <trkpt lat="48.6409" lon="1.96859">
        <ele>178</ele>
        <time>2023-12-20T12:59:49Z</time>
      </trkpt>
      <trkpt lat="48.64084" lon="1.96859">
        <ele>177.2</ele>
        <time>2023-12-20T12:59:50Z</time>
      </trkpt>
      <trkpt lat="48.64078" lon="1.96859">
        <ele>177.2</ele>
        <time>2023-12-20T12:59:51Z</time>
      </trkpt>
      <trkpt lat="48.64073" lon="1.96859">
        <ele>177.2</ele>
        <time>2023-12-20T12:59:52Z</time>
      </trkpt>
      <trkpt lat="48.64067" lon="1.96859">
        <ele>177.2</ele>
        <time>2023-12-20T12:59:53Z</time>
      </trkpt>
      <trkpt lat="48.64062" lon="1.9686">
        <ele>177.4</ele>
        <time>2023-12-20T12:59:54Z</time>
      </trkpt>
      <trkpt lat="48.64056" lon="1.96861">
        <ele>177.2</ele>
        <time>2023-12-20T12:59:55Z</time>
      </trkpt>
      <trkpt lat="48.64051" lon="1.96862">
        <ele>177.2</ele>
        <time>2023-12-20T12:59:56Z</time>
      </trkpt>
      <trkpt lat="48.64045" lon="1.96863">
        <ele>177.2</ele>
        <time>2023-12-20T12:59:57Z</time>
      </trkpt>
      <trkpt lat="48.6404" lon="1.96864">
        <ele>177.6</ele>
        <time>2023-12-20T12:59:58Z</time>
      </trkpt>
      <trkpt lat="48.64034" lon="1.96866">
        <ele>177</ele>
        <time>2023-12-20T12:59:59Z</time>
      </trkpt>
      <trkpt lat="48.64028" lon="1.96867">
        <ele>177</ele>
        <time>2023-12-20T13:00:00Z</time>
      </trkpt>
      <trkpt lat="48.64022" lon="1.96869">
        <ele>177</ele>
        <time>2023-12-20T13:00:01Z</time>
      </trkpt>
      <trkpt lat="48.64016" lon="1.96871">
        <ele>177</ele>
        <time>2023-12-20T13:00:02Z</time>
      </trkpt>
      <trkpt lat="48.6401" lon="1.96874">
        <ele>177.2</ele>
        <time>2023-12-20T13:00:03Z</time>
      </trkpt>
      <trkpt lat="48.64004" lon="1.96877">
        <ele>177.2</ele>
        <time>2023-12-20T13:00:04Z</time>
      </trkpt>
      <trkpt lat="48.63998" lon="1.9688">
        <ele>177.2</ele>
        <time>2023-12-20T13:00:05Z</time>
      </trkpt>
      <trkpt lat="48.63992" lon="1.96883">
        <ele>177.2</ele>
        <time>2023-12-20T13:00:06Z</time>
      </trkpt>
      <trkpt lat="48.63986" lon="1.96887">
        <ele>177.6</ele>
        <time>2023-12-20T13:00:07Z</time>
      </trkpt>
      <trkpt lat="48.6398" lon="1.96891">
        <ele>177.6</ele>
        <time>2023-12-20T13:00:08Z</time>
      </trkpt>
      <trkpt lat="48.63974" lon="1.96894">
        <ele>177.6</ele>
        <time>2023-12-20T13:00:09Z</time>
      </trkpt>
      <trkpt lat="48.63968" lon="1.96898">
        <ele>177</ele>
        <time>2023-12-20T13:00:10Z</time>
      </trkpt>
      <trkpt lat="48.63962" lon="1.96901">
        <ele>177</ele>
        <time>2023-12-20T13:00:11Z</time>
      </trkpt>
      <trkpt lat="48.63957" lon="1.96904">
        <ele>177</ele>
        <time>2023-12-20T13:00:12Z</time>
      </trkpt>
      <trkpt lat="48.63951" lon="1.96906">
        <ele>177</ele>
        <time>2023-12-20T13:00:13Z</time>
      </trkpt>
      <trkpt lat="48.63946" lon="1.96909">
        <ele>177</ele>
        <time>2023-12-20T13:00:14Z</time>
      </trkpt>
      <trkpt lat="48.63941" lon="1.96911">
        <ele>177</ele>
        <time>2023-12-20T13:00:15Z</time>
      </trkpt>
      <trkpt lat="48.63935" lon="1.96914">
        <ele>177</ele>
        <time>2023-12-20T13:00:16Z</time>
      </trkpt>
      <trkpt lat="48.6393" lon="1.96918">
        <ele>177</ele>
        <time>2023-12-20T13:00:17Z</time>
      </trkpt>
      <trkpt lat="48.63925" lon="1.96921">
        <ele>177</ele>
        <time>2023-12-20T13:00:18Z</time>
      </trkpt>
      <trkpt lat="48.6392" lon="1.96924">
        <ele>176.8</ele>
        <time>2023-12-20T13:00:19Z</time>
      </trkpt>
      <trkpt lat="48.63916" lon="1.96927">
        <ele>176.8</ele>
        <time>2023-12-20T13:00:20Z</time>
      </trkpt>
      <trkpt lat="48.6391" lon="1.9693">
        <ele>176.8</ele>
        <time>2023-12-20T13:00:21Z</time>
      </trkpt>
      <trkpt lat="48.63904" lon="1.96933">
        <ele>176.8</ele>
        <time>2023-12-20T13:00:22Z</time>
      </trkpt>
      <trkpt lat="48.63899" lon="1.96936">
        <ele>177.2</ele>
        <time>2023-12-20T13:00:23Z</time>
      </trkpt>
      <trkpt lat="48.63893" lon="1.9694">
        <ele>177.2</ele>
        <time>2023-12-20T13:00:24Z</time>
      </trkpt>
      <trkpt lat="48.63888" lon="1.96943">
        <ele>177.2</ele>
        <time>2023-12-20T13:00:25Z</time>
      </trkpt>
      <trkpt lat="48.63883" lon="1.96946">
        <ele>177.2</ele>
        <time>2023-12-20T13:00:26Z</time>
      </trkpt>
      <trkpt lat="48.63877" lon="1.9695">
        <ele>176.4</ele>
        <time>2023-12-20T13:00:27Z</time>
      </trkpt>
      <trkpt lat="48.63872" lon="1.96953">
        <ele>176.4</ele>
        <time>2023-12-20T13:00:28Z</time>
      </trkpt>
      <trkpt lat="48.63867" lon="1.96957">
        <ele>176.4</ele>
        <time>2023-12-20T13:00:29Z</time>
      </trkpt>
      <trkpt lat="48.63861" lon="1.96961">
        <ele>175.6</ele>
        <time>2023-12-20T13:00:30Z</time>
      </trkpt>
      <trkpt lat="48.63856" lon="1.96965">
        <ele>175.8</ele>
        <time>2023-12-20T13:00:31Z</time>
      </trkpt>
      <trkpt lat="48.63851" lon="1.9697">
        <ele>175.8</ele>
        <time>2023-12-20T13:00:32Z</time>
      </trkpt>
      <trkpt lat="48.63846" lon="1.96974">
        <ele>175.8</ele>
        <time>2023-12-20T13:00:33Z</time>
      </trkpt>
      <trkpt lat="48.63842" lon="1.96979">
        <ele>175.8</ele>
        <time>2023-12-20T13:00:34Z</time>
      </trkpt>
      <trkpt lat="48.63838" lon="1.96984">
        <ele>175.8</ele>
        <time>2023-12-20T13:00:35Z</time>
      </trkpt>
      <trkpt lat="48.63834" lon="1.96989">
        <ele>175.8</ele>
        <time>2023-12-20T13:00:36Z</time>
      </trkpt>
      <trkpt lat="48.63831" lon="1.96994">
        <ele>175.8</ele>
        <time>2023-12-20T13:00:37Z</time>
      </trkpt>
      <trkpt lat="48.63827" lon="1.96998">
        <ele>176</ele>
        <time>2023-12-20T13:00:38Z</time>
      </trkpt>
      <trkpt lat="48.63824" lon="1.97004">
        <ele>176.2</ele>
        <time>2023-12-20T13:00:39Z</time>
      </trkpt>
      <trkpt lat="48.63821" lon="1.97011">
        <ele>176.2</ele>
        <time>2023-12-20T13:00:40Z</time>
      </trkpt>
      <trkpt lat="48.63819" lon="1.97018">
        <ele>176.2</ele>
        <time>2023-12-20T13:00:41Z</time>
      </trkpt>
      <trkpt lat="48.63817" lon="1.97024">
        <ele>176.2</ele>
        <time>2023-12-20T13:00:42Z</time>
      </trkpt>
      <trkpt lat="48.63814" lon="1.97031">
        <ele>176.2</ele>
        <time>2023-12-20T13:00:43Z</time>
      </trkpt>
      <trkpt lat="48.63812" lon="1.97038">
        <ele>176.2</ele>
        <time>2023-12-20T13:00:44Z</time>
      </trkpt>
      <trkpt lat="48.6381" lon="1.97045">
        <ele>176.2</ele>
        <time>2023-12-20T13:00:45Z</time>
      </trkpt>
      <trkpt lat="48.63808" lon="1.97052">
        <ele>175.8</ele>
        <time>2023-12-20T13:00:46Z</time>
      </trkpt>
      <trkpt lat="48.63807" lon="1.9706">
        <ele>175.6</ele>
        <time>2023-12-20T13:00:47Z</time>
      </trkpt>
      <trkpt lat="48.63806" lon="1.97067">
        <ele>175.6</ele>
        <time>2023-12-20T13:00:48Z</time>
      </trkpt>
      <trkpt lat="48.63804" lon="1.97075">
        <ele>175.6</ele>
        <time>2023-12-20T13:00:49Z</time>
      </trkpt>
      <trkpt lat="48.63803" lon="1.97083">
        <ele>174.6</ele>
        <time>2023-12-20T13:00:50Z</time>
      </trkpt>
      <trkpt lat="48.63801" lon="1.97092">
        <ele>173.8</ele>
        <time>2023-12-20T13:00:51Z</time>
      </trkpt>
      <trkpt lat="48.638" lon="1.971">
        <ele>173.8</ele>
        <time>2023-12-20T13:00:52Z</time>
      </trkpt>
      <trkpt lat="48.63799" lon="1.97109">
        <ele>173.8</ele>
        <time>2023-12-20T13:00:53Z</time>
      </trkpt>
      <trkpt lat="48.63797" lon="1.97119">
        <ele>172.8</ele>
        <time>2023-12-20T13:00:54Z</time>
      </trkpt>
      <trkpt lat="48.63796" lon="1.97129">
        <ele>171</ele>
        <time>2023-12-20T13:00:55Z</time>
      </trkpt>
      <trkpt lat="48.63795" lon="1.9714">
        <ele>171</ele>
        <time>2023-12-20T13:00:56Z</time>
      </trkpt>
      <trkpt lat="48.63793" lon="1.9715">
        <ele>171</ele>
        <time>2023-12-20T13:00:57Z</time>
      </trkpt>
      <trkpt lat="48.63791" lon="1.97162">
        <ele>170</ele>
        <time>2023-12-20T13:00:58Z</time>
      </trkpt>
      <trkpt lat="48.63789" lon="1.97173">
        <ele>167.2</ele>
        <time>2023-12-20T13:00:59Z</time>
      </trkpt>
      <trkpt lat="48.63787" lon="1.97185">
        <ele>167.2</ele>
        <time>2023-12-20T13:01:00Z</time>
      </trkpt>
      <trkpt lat="48.63785" lon="1.97198">
        <ele>167.2</ele>
        <time>2023-12-20T13:01:01Z</time>
      </trkpt>
      <trkpt lat="48.63783" lon="1.97211">
        <ele>166.2</ele>
        <time>2023-12-20T13:01:02Z</time>
      </trkpt>
      <trkpt lat="48.63781" lon="1.97225">
        <ele>161.6</ele>
        <time>2023-12-20T13:01:03Z</time>
      </trkpt>
      <trkpt lat="48.63778" lon="1.9724">
        <ele>161.6</ele>
        <time>2023-12-20T13:01:04Z</time>
      </trkpt>
      <trkpt lat="48.63775" lon="1.97255">
        <ele>161.6</ele>
        <time>2023-12-20T13:01:05Z</time>
      </trkpt>
      <trkpt lat="48.63773" lon="1.97271">
        <ele>160.6</ele>
        <time>2023-12-20T13:01:06Z</time>
      </trkpt>
      <trkpt lat="48.6377" lon="1.97287">
        <ele>155.4</ele>
        <time>2023-12-20T13:01:07Z</time>
      </trkpt>
      <trkpt lat="48.63767" lon="1.97303">
        <ele>155.4</ele>
        <time>2023-12-20T13:01:08Z</time>
      </trkpt>
      <trkpt lat="48.63764" lon="1.9732">
        <ele>155.4</ele>
        <time>2023-12-20T13:01:09Z</time>
      </trkpt>
      <trkpt lat="48.6376" lon="1.97338">
        <ele>154.4</ele>
        <time>2023-12-20T13:01:10Z</time>
      </trkpt>
      <trkpt lat="48.63756" lon="1.97355">
        <ele>151.2</ele>
        <time>2023-12-20T13:01:11Z</time>
      </trkpt>
      <trkpt lat="48.63752" lon="1.97372">
        <ele>151.2</ele>
        <time>2023-12-20T13:01:12Z</time>
      </trkpt>
      <trkpt lat="48.63747" lon="1.9739">
        <ele>151.2</ele>
        <time>2023-12-20T13:01:13Z</time>
      </trkpt>
      <trkpt lat="48.63742" lon="1.97408">
        <ele>150.2</ele>
        <time>2023-12-20T13:01:14Z</time>
      </trkpt>
      <trkpt lat="48.63737" lon="1.97426">
        <ele>145.6</ele>
        <time>2023-12-20T13:01:15Z</time>
      </trkpt>
      <trkpt lat="48.63731" lon="1.97444">
        <ele>145.6</ele>
        <time>2023-12-20T13:01:16Z</time>
      </trkpt>
      <trkpt lat="48.63725" lon="1.97462">
        <ele>145.6</ele>
        <time>2023-12-20T13:01:17Z</time>
      </trkpt>
      <trkpt lat="48.63719" lon="1.97479">
        <ele>144.6</ele>
        <time>2023-12-20T13:01:18Z</time>
      </trkpt>
      <trkpt lat="48.63712" lon="1.97497">
        <ele>140.4</ele>
        <time>2023-12-20T13:01:19Z</time>
      </trkpt>
      <trkpt lat="48.63705" lon="1.97514">
        <ele>140.4</ele>
        <time>2023-12-20T13:01:20Z</time>
      </trkpt>
      <trkpt lat="48.63699" lon="1.97531">
        <ele>140.4</ele>
        <time>2023-12-20T13:01:21Z</time>
      </trkpt>
      <trkpt lat="48.63692" lon="1.97548">
        <ele>140.4</ele>
        <time>2023-12-20T13:01:22Z</time>
      </trkpt>
      <trkpt lat="48.63684" lon="1.97566">
        <ele>143</ele>
        <time>2023-12-20T13:01:23Z</time>
      </trkpt>
      <trkpt lat="48.63677" lon="1.97583">
        <ele>143</ele>
        <time>2023-12-20T13:01:24Z</time>
      </trkpt>
      <trkpt lat="48.63669" lon="1.976">
        <ele>143</ele>
        <time>2023-12-20T13:01:25Z</time>
      </trkpt>
      <trkpt lat="48.63662" lon="1.97617">
        <ele>142</ele>
        <time>2023-12-20T13:01:26Z</time>
      </trkpt>
      <trkpt lat="48.63654" lon="1.97632">
        <ele>137.6</ele>
        <time>2023-12-20T13:01:27Z</time>
      </trkpt>
      <trkpt lat="48.63645" lon="1.97647">
        <ele>137.6</ele>
        <time>2023-12-20T13:01:28Z</time>
      </trkpt>
      <trkpt lat="48.63635" lon="1.97661">
        <ele>137.6</ele>
        <time>2023-12-20T13:01:29Z</time>
      </trkpt>
      <trkpt lat="48.63625" lon="1.97673">
        <ele>137.6</ele>
        <time>2023-12-20T13:01:30Z</time>
      </trkpt>
      <trkpt lat="48.63615" lon="1.97686">
        <ele>128.2</ele>
        <time>2023-12-20T13:01:31Z</time>
      </trkpt>
      <trkpt lat="48.63606" lon="1.97699">
        <ele>128.2</ele>
        <time>2023-12-20T13:01:32Z</time>
      </trkpt>
      <trkpt lat="48.63597" lon="1.97713">
        <ele>128.2</ele>
        <time>2023-12-20T13:01:33Z</time>
      </trkpt>
      <trkpt lat="48.6359" lon="1.97729">
        <ele>129.2</ele>
        <time>2023-12-20T13:01:34Z</time>
      </trkpt>
      <trkpt lat="48.63584" lon="1.97746">
        <ele>127.8</ele>
        <time>2023-12-20T13:01:35Z</time>
      </trkpt>
      <trkpt lat="48.63577" lon="1.97763">
        <ele>127.8</ele>
        <time>2023-12-20T13:01:36Z</time>
      </trkpt>
      <trkpt lat="48.63571" lon="1.9778">
        <ele>127.8</ele>
        <time>2023-12-20T13:01:37Z</time>
      </trkpt>
      <trkpt lat="48.63564" lon="1.97796">
        <ele>127.8</ele>
        <time>2023-12-20T13:01:38Z</time>
      </trkpt>
      <trkpt lat="48.63556" lon="1.97811">
        <ele>124.8</ele>
        <time>2023-12-20T13:01:39Z</time>
      </trkpt>
      <trkpt lat="48.63548" lon="1.97826">
        <ele>124.8</ele>
        <time>2023-12-20T13:01:40Z</time>
      </trkpt>
      <trkpt lat="48.63539" lon="1.97839">
        <ele>124.8</ele>
        <time>2023-12-20T13:01:41Z</time>
      </trkpt>
      <trkpt lat="48.6353" lon="1.97852">
        <ele>125.8</ele>
        <time>2023-12-20T13:01:42Z</time>
      </trkpt>
      <trkpt lat="48.6352" lon="1.97864">
        <ele>128</ele>
        <time>2023-12-20T13:01:43Z</time>
      </trkpt>
      <trkpt lat="48.63511" lon="1.97876">
        <ele>128</ele>
        <time>2023-12-20T13:01:44Z</time>
      </trkpt>
      <trkpt lat="48.63501" lon="1.97888">
        <ele>128</ele>
        <time>2023-12-20T13:01:45Z</time>
      </trkpt>
      <trkpt lat="48.63491" lon="1.97899">
        <ele>127</ele>
        <time>2023-12-20T13:01:46Z</time>
      </trkpt>
      <trkpt lat="48.63482" lon="1.97911">
        <ele>121.6</ele>
        <time>2023-12-20T13:01:47Z</time>
      </trkpt>
      <trkpt lat="48.63472" lon="1.97922">
        <ele>121.6</ele>
        <time>2023-12-20T13:01:48Z</time>
      </trkpt>
      <trkpt lat="48.63463" lon="1.97933">
        <ele>121.6</ele>
        <time>2023-12-20T13:01:49Z</time>
      </trkpt>
      <trkpt lat="48.63454" lon="1.97943">
        <ele>121.6</ele>
        <time>2023-12-20T13:01:50Z</time>
      </trkpt>
      <trkpt lat="48.63445" lon="1.97954">
        <ele>121.8</ele>
        <time>2023-12-20T13:01:51Z</time>
      </trkpt>
      <trkpt lat="48.63436" lon="1.97966">
        <ele>121.8</ele>
        <time>2023-12-20T13:01:52Z</time>
      </trkpt>
      <trkpt lat="48.63429" lon="1.97978">
        <ele>121.8</ele>
        <time>2023-12-20T13:01:53Z</time>
      </trkpt>
      <trkpt lat="48.63423" lon="1.97991">
        <ele>121.8</ele>
        <time>2023-12-20T13:01:54Z</time>
      </trkpt>
      <trkpt lat="48.63418" lon="1.98005">
        <ele>122.4</ele>
        <time>2023-12-20T13:01:55Z</time>
      </trkpt>
      <trkpt lat="48.63414" lon="1.98019">
        <ele>122.4</ele>
        <time>2023-12-20T13:01:56Z</time>
      </trkpt>
      <trkpt lat="48.63411" lon="1.98034">
        <ele>122.4</ele>
        <time>2023-12-20T13:01:57Z</time>
      </trkpt>
      <trkpt lat="48.63407" lon="1.98048">
        <ele>122.2</ele>
        <time>2023-12-20T13:01:58Z</time>
      </trkpt>
      <trkpt lat="48.63404" lon="1.98061">
        <ele>122.4</ele>
        <time>2023-12-20T13:01:59Z</time>
      </trkpt>
      <trkpt lat="48.634" lon="1.98074">
        <ele>122.4</ele>
        <time>2023-12-20T13:02:00Z</time>
      </trkpt>
      <trkpt lat="48.63396" lon="1.98086">
        <ele>122.4</ele>
        <time>2023-12-20T13:02:01Z</time>
      </trkpt>
      <trkpt lat="48.63392" lon="1.98097">
        <ele>122.4</ele>
        <time>2023-12-20T13:02:02Z</time>
      </trkpt>
      <trkpt lat="48.63388" lon="1.98108">
        <ele>123</ele>
        <time>2023-12-20T13:02:03Z</time>
      </trkpt>
      <trkpt lat="48.63384" lon="1.98118">
        <ele>123</ele>
        <time>2023-12-20T13:02:04Z</time>
      </trkpt>
      <trkpt lat="48.6338" lon="1.98127">
        <ele>123</ele>
        <time>2023-12-20T13:02:05Z</time>
      </trkpt>
      <trkpt lat="48.63376" lon="1.98135">
        <ele>124</ele>
        <time>2023-12-20T13:02:06Z</time>
      </trkpt>
      <trkpt lat="48.63372" lon="1.98143">
        <ele>125.4</ele>
        <time>2023-12-20T13:02:07Z</time>
      </trkpt>
      <trkpt lat="48.63369" lon="1.98149">
        <ele>125.4</ele>
        <time>2023-12-20T13:02:08Z</time>
      </trkpt>
      <trkpt lat="48.63366" lon="1.98154">
        <ele>125.4</ele>
        <time>2023-12-20T13:02:09Z</time>
      </trkpt>
      <trkpt lat="48.63362" lon="1.98158">
        <ele>126.4</ele>
        <time>2023-12-20T13:02:10Z</time>
      </trkpt>
      <trkpt lat="48.6336" lon="1.98161">
        <ele>127.8</ele>
        <time>2023-12-20T13:02:11Z</time>
      </trkpt>
      <trkpt lat="48.63357" lon="1.98165">
        <ele>127.8</ele>
        <time>2023-12-20T13:02:12Z</time>
      </trkpt>
      <trkpt lat="48.63354" lon="1.98169">
        <ele>127.8</ele>
        <time>2023-12-20T13:02:13Z</time>
      </trkpt>
      <trkpt lat="48.63352" lon="1.98172">
        <ele>127.8</ele>
        <time>2023-12-20T13:02:14Z</time>
      </trkpt>
      <trkpt lat="48.63349" lon="1.98177">
        <ele>128.6</ele>
        <time>2023-12-20T13:02:15Z</time>
      </trkpt>
      <trkpt lat="48.63347" lon="1.9818">
        <ele>128.6</ele>
        <time>2023-12-20T13:02:16Z</time>
      </trkpt>
      <trkpt lat="48.63344" lon="1.98184">
        <ele>128.6</ele>
        <time>2023-12-20T13:02:17Z</time>
      </trkpt>
      <trkpt lat="48.63342" lon="1.98189">
        <ele>128.6</ele>
        <time>2023-12-20T13:02:18Z</time>
      </trkpt>
      <trkpt lat="48.63339" lon="1.98193">
        <ele>128.6</ele>
        <time>2023-12-20T13:02:19Z</time>
      </trkpt>
      <trkpt lat="48.63337" lon="1.98198">
        <ele>128.6</ele>
        <time>2023-12-20T13:02:20Z</time>
      </trkpt>
      <trkpt lat="48.63334" lon="1.98205">
        <ele>128.6</ele>
        <time>2023-12-20T13:02:21Z</time>
      </trkpt>
      <trkpt lat="48.63332" lon="1.98209">
        <ele>129.2</ele>
        <time>2023-12-20T13:02:22Z</time>
      </trkpt>
      <trkpt lat="48.6333" lon="1.98215">
        <ele>128.8</ele>
        <time>2023-12-20T13:02:23Z</time>
      </trkpt>
      <trkpt lat="48.63328" lon="1.98222">
        <ele>128.8</ele>
        <time>2023-12-20T13:02:24Z</time>
      </trkpt>
      <trkpt lat="48.63326" lon="1.98227">
        <ele>128.8</ele>
        <time>2023-12-20T13:02:25Z</time>
      </trkpt>
      <trkpt lat="48.63325" lon="1.98232">
        <ele>128.8</ele>
        <time>2023-12-20T13:02:26Z</time>
      </trkpt>
      <trkpt lat="48.63323" lon="1.9824">
        <ele>128.6</ele>
        <time>2023-12-20T13:02:27Z</time>
      </trkpt>
      <trkpt lat="48.63321" lon="1.98246">
        <ele>128.6</ele>
        <time>2023-12-20T13:02:28Z</time>
      </trkpt>
      <trkpt lat="48.63319" lon="1.98253">
        <ele>128.6</ele>
        <time>2023-12-20T13:02:29Z</time>
      </trkpt>
      <trkpt lat="48.63319" lon="1.98259">
        <ele>128.6</ele>
        <time>2023-12-20T13:02:30Z</time>
      </trkpt>
      <trkpt lat="48.63318" lon="1.98265">
        <ele>128.4</ele>
        <time>2023-12-20T13:02:31Z</time>
      </trkpt>
      <trkpt lat="48.63316" lon="1.98273">
        <ele>128.4</ele>
        <time>2023-12-20T13:02:32Z</time>
      </trkpt>
      <trkpt lat="48.63316" lon="1.98278">
        <ele>128.4</ele>
        <time>2023-12-20T13:02:33Z</time>
      </trkpt>
      <trkpt lat="48.63314" lon="1.98287">
        <ele>128.4</ele>
        <time>2023-12-20T13:02:34Z</time>
      </trkpt>
      <trkpt lat="48.63313" lon="1.98295">
        <ele>128</ele>
        <time>2023-12-20T13:02:35Z</time>
      </trkpt>
      <trkpt lat="48.63312" lon="1.98303">
        <ele>128</ele>
        <time>2023-12-20T13:02:36Z</time>
      </trkpt>
      <trkpt lat="48.63312" lon="1.98312">
        <ele>128</ele>
        <time>2023-12-20T13:02:37Z</time>
      </trkpt>
      <trkpt lat="48.63311" lon="1.9832">
        <ele>128</ele>
        <time>2023-12-20T13:02:38Z</time>
      </trkpt>
      <trkpt lat="48.6331" lon="1.98329">
        <ele>127</ele>
        <time>2023-12-20T13:02:39Z</time>
      </trkpt>
      <trkpt lat="48.63309" lon="1.98338">
        <ele>127</ele>
        <time>2023-12-20T13:02:40Z</time>
      </trkpt>
      <trkpt lat="48.63309" lon="1.98347">
        <ele>127</ele>
        <time>2023-12-20T13:02:41Z</time>
      </trkpt>
      <trkpt lat="48.63307" lon="1.98357">
        <ele>127</ele>
        <time>2023-12-20T13:02:42Z</time>
      </trkpt>
      <trkpt lat="48.63307" lon="1.98367">
        <ele>127</ele>
        <time>2023-12-20T13:02:43Z</time>
      </trkpt>
      <trkpt lat="48.63306" lon="1.98376">
        <ele>127</ele>
        <time>2023-12-20T13:02:44Z</time>
      </trkpt>
      <trkpt lat="48.63306" lon="1.98386">
        <ele>127</ele>
        <time>2023-12-20T13:02:45Z</time>
      </trkpt>
      <trkpt lat="48.63305" lon="1.98395">
        <ele>126.8</ele>
        <time>2023-12-20T13:02:46Z</time>
      </trkpt>
      <trkpt lat="48.63305" lon="1.98403">
        <ele>126.4</ele>
        <time>2023-12-20T13:02:47Z</time>
      </trkpt>
      <trkpt lat="48.63304" lon="1.98412">
        <ele>126.4</ele>
        <time>2023-12-20T13:02:48Z</time>
      </trkpt>
      <trkpt lat="48.63304" lon="1.98423">
        <ele>126.4</ele>
        <time>2023-12-20T13:02:49Z</time>
      </trkpt>
      <trkpt lat="48.63304" lon="1.98432">
        <ele>125.8</ele>
        <time>2023-12-20T13:02:50Z</time>
      </trkpt>
      <trkpt lat="48.63304" lon="1.98441">
        <ele>125.2</ele>
        <time>2023-12-20T13:02:51Z</time>
      </trkpt>
      <trkpt lat="48.63303" lon="1.98452">
        <ele>125.2</ele>
        <time>2023-12-20T13:02:52Z</time>
      </trkpt>
      <trkpt lat="48.63302" lon="1.98461">
        <ele>125.2</ele>
        <time>2023-12-20T13:02:53Z</time>
      </trkpt>
      <trkpt lat="48.63301" lon="1.98471">
        <ele>125.2</ele>
        <time>2023-12-20T13:02:54Z</time>
      </trkpt>
      <trkpt lat="48.63301" lon="1.98482">
        <ele>124.4</ele>
        <time>2023-12-20T13:02:55Z</time>
      </trkpt>
      <trkpt lat="48.633" lon="1.98492">
        <ele>124.4</ele>
        <time>2023-12-20T13:02:56Z</time>
      </trkpt>
      <trkpt lat="48.633" lon="1.98503">
        <ele>124.4</ele>
        <time>2023-12-20T13:02:57Z</time>
      </trkpt>
      <trkpt lat="48.633" lon="1.98513">
        <ele>123.6</ele>
        <time>2023-12-20T13:02:58Z</time>
      </trkpt>
      <trkpt lat="48.63299" lon="1.98524">
        <ele>123.2</ele>
        <time>2023-12-20T13:02:59Z</time>
      </trkpt>
      <trkpt lat="48.63299" lon="1.98535">
        <ele>123.2</ele>
        <time>2023-12-20T13:03:00Z</time>
      </trkpt>
      <trkpt lat="48.63299" lon="1.98546">
        <ele>123.2</ele>
        <time>2023-12-20T13:03:01Z</time>
      </trkpt>
      <trkpt lat="48.63298" lon="1.98557">
        <ele>123.4</ele>
        <time>2023-12-20T13:03:02Z</time>
      </trkpt>
      <trkpt lat="48.63298" lon="1.98567">
        <ele>123</ele>
        <time>2023-12-20T13:03:03Z</time>
      </trkpt>
      <trkpt lat="48.63298" lon="1.98577">
        <ele>123</ele>
        <time>2023-12-20T13:03:04Z</time>
      </trkpt>
      <trkpt lat="48.63298" lon="1.98588">
        <ele>123</ele>
        <time>2023-12-20T13:03:05Z</time>
      </trkpt>
      <trkpt lat="48.63298" lon="1.98599">
        <ele>123</ele>
        <time>2023-12-20T13:03:06Z</time>
      </trkpt>
      <trkpt lat="48.63298" lon="1.9861">
        <ele>123.6</ele>
        <time>2023-12-20T13:03:07Z</time>
      </trkpt>
      <trkpt lat="48.63298" lon="1.98622">
        <ele>123.6</ele>
        <time>2023-12-20T13:03:08Z</time>
      </trkpt>
      <trkpt lat="48.63298" lon="1.98633">
        <ele>123.6</ele>
        <time>2023-12-20T13:03:09Z</time>
      </trkpt>
      <trkpt lat="48.63298" lon="1.98644">
        <ele>124.4</ele>
        <time>2023-12-20T13:03:10Z</time>
      </trkpt>
      <trkpt lat="48.63298" lon="1.98654">
        <ele>124.8</ele>
        <time>2023-12-20T13:03:11Z</time>
      </trkpt>
      <trkpt lat="48.63298" lon="1.98663">
        <ele>124.8</ele>
        <time>2023-12-20T13:03:12Z</time>
      </trkpt>
      <trkpt lat="48.63297" lon="1.98671">
        <ele>124.8</ele>
        <time>2023-12-20T13:03:13Z</time>
      </trkpt>
      <trkpt lat="48.63297" lon="1.98679">
        <ele>124.8</ele>
        <time>2023-12-20T13:03:14Z</time>
      </trkpt>
      <trkpt lat="48.63297" lon="1.98689">
        <ele>125.4</ele>
        <time>2023-12-20T13:03:15Z</time>
      </trkpt>
      <trkpt lat="48.63297" lon="1.98697">
        <ele>125.4</ele>
        <time>2023-12-20T13:03:16Z</time>
      </trkpt>
      <trkpt lat="48.63296" lon="1.98708">
        <ele>125.4</ele>
        <time>2023-12-20T13:03:17Z</time>
      </trkpt>
      <trkpt lat="48.63295" lon="1.98717">
        <ele>125.4</ele>
        <time>2023-12-20T13:03:18Z</time>
      </trkpt>
      <trkpt lat="48.63293" lon="1.98725">
        <ele>125.4</ele>
        <time>2023-12-20T13:03:19Z</time>
      </trkpt>
      <trkpt lat="48.63291" lon="1.98734">
        <ele>125.4</ele>
        <time>2023-12-20T13:03:20Z</time>
      </trkpt>
      <trkpt lat="48.63289" lon="1.98741">
        <ele>125.4</ele>
        <time>2023-12-20T13:03:21Z</time>
      </trkpt>
      <trkpt lat="48.63288" lon="1.98749">
        <ele>125.4</ele>
        <time>2023-12-20T13:03:22Z</time>
      </trkpt>
      <trkpt lat="48.63286" lon="1.98755">
        <ele>126</ele>
        <time>2023-12-20T13:03:23Z</time>
      </trkpt>
      <trkpt lat="48.63285" lon="1.98761">
        <ele>126</ele>
        <time>2023-12-20T13:03:24Z</time>
      </trkpt>
      <trkpt lat="48.63283" lon="1.98769">
        <ele>126</ele>
        <time>2023-12-20T13:03:25Z</time>
      </trkpt>
      <trkpt lat="48.63281" lon="1.98777">
        <ele>126</ele>
        <time>2023-12-20T13:03:26Z</time>
      </trkpt>
      <trkpt lat="48.6328" lon="1.98784">
        <ele>125.4</ele>
        <time>2023-12-20T13:03:27Z</time>
      </trkpt>
      <trkpt lat="48.63278" lon="1.98791">
        <ele>125.4</ele>
        <time>2023-12-20T13:03:28Z</time>
      </trkpt>
      <trkpt lat="48.63276" lon="1.98798">
        <ele>125.4</ele>
        <time>2023-12-20T13:03:29Z</time>
      </trkpt>
      <trkpt lat="48.63275" lon="1.98805">
        <ele>124.4</ele>
        <time>2023-12-20T13:03:30Z</time>
      </trkpt>
      <trkpt lat="48.63273" lon="1.98814">
        <ele>124.2</ele>
        <time>2023-12-20T13:03:31Z</time>
      </trkpt>
      <trkpt lat="48.63271" lon="1.98822">
        <ele>124.2</ele>
        <time>2023-12-20T13:03:32Z</time>
      </trkpt>
      <trkpt lat="48.63268" lon="1.98831">
        <ele>124.2</ele>
        <time>2023-12-20T13:03:33Z</time>
      </trkpt>
      <trkpt lat="48.63266" lon="1.9884">
        <ele>123.4</ele>
        <time>2023-12-20T13:03:34Z</time>
      </trkpt>
      <trkpt lat="48.63264" lon="1.98849">
        <ele>123.4</ele>
        <time>2023-12-20T13:03:35Z</time>
      </trkpt>
      <trkpt lat="48.63262" lon="1.98858">
        <ele>123.4</ele>
        <time>2023-12-20T13:03:36Z</time>
      </trkpt>
      <trkpt lat="48.6326" lon="1.98867">
        <ele>123.4</ele>
        <time>2023-12-20T13:03:37Z</time>
      </trkpt>
      <trkpt lat="48.63258" lon="1.98878">
        <ele>122.4</ele>
        <time>2023-12-20T13:03:38Z</time>
      </trkpt>
      <trkpt lat="48.63256" lon="1.98888">
        <ele>121.2</ele>
        <time>2023-12-20T13:03:39Z</time>
      </trkpt>
      <trkpt lat="48.63254" lon="1.98898">
        <ele>121.2</ele>
        <time>2023-12-20T13:03:40Z</time>
      </trkpt>
      <trkpt lat="48.63252" lon="1.98908">
        <ele>121.2</ele>
        <time>2023-12-20T13:03:41Z</time>
      </trkpt>
      <trkpt lat="48.63249" lon="1.98918">
        <ele>121.2</ele>
        <time>2023-12-20T13:03:42Z</time>
      </trkpt>
      <trkpt lat="48.63247" lon="1.98928">
        <ele>120.8</ele>
        <time>2023-12-20T13:03:43Z</time>
      </trkpt>
      <trkpt lat="48.63244" lon="1.98938">
        <ele>120.8</ele>
        <time>2023-12-20T13:03:44Z</time>
      </trkpt>
      <trkpt lat="48.63241" lon="1.98947">
        <ele>120.8</ele>
        <time>2023-12-20T13:03:45Z</time>
      </trkpt>
      <trkpt lat="48.63237" lon="1.98954">
        <ele>120</ele>
        <time>2023-12-20T13:03:46Z</time>
      </trkpt>
      <trkpt lat="48.63233" lon="1.98962">
        <ele>120</ele>
        <time>2023-12-20T13:03:47Z</time>
      </trkpt>
      <trkpt lat="48.63228" lon="1.98969">
        <ele>120</ele>
        <time>2023-12-20T13:03:48Z</time>
      </trkpt>
      <trkpt lat="48.63223" lon="1.98975">
        <ele>120</ele>
        <time>2023-12-20T13:03:49Z</time>
      </trkpt>
      <trkpt lat="48.63218" lon="1.98982">
        <ele>120</ele>
        <time>2023-12-20T13:03:50Z</time>
      </trkpt>
      <trkpt lat="48.63213" lon="1.98987">
        <ele>119.6</ele>
        <time>2023-12-20T13:03:51Z</time>
      </trkpt>
      <trkpt lat="48.63207" lon="1.98991">
        <ele>119.6</ele>
        <time>2023-12-20T13:03:52Z</time>
      </trkpt>
      <trkpt lat="48.63201" lon="1.98995">
        <ele>119.6</ele>
        <time>2023-12-20T13:03:53Z</time>
      </trkpt>
      <trkpt lat="48.63196" lon="1.98996">
        <ele>119.2</ele>
        <time>2023-12-20T13:03:54Z</time>
      </trkpt>
      <trkpt lat="48.63189" lon="1.98997">
        <ele>118.8</ele>
        <time>2023-12-20T13:03:55Z</time>
      </trkpt>
      <trkpt lat="48.63184" lon="1.98998">
        <ele>118.8</ele>
        <time>2023-12-20T13:03:56Z</time>
      </trkpt>
      <trkpt lat="48.63177" lon="1.98998">
        <ele>118.8</ele>
        <time>2023-12-20T13:03:57Z</time>
      </trkpt>
      <trkpt lat="48.63171" lon="1.98998">
        <ele>118</ele>
        <time>2023-12-20T13:03:58Z</time>
      </trkpt>
      <trkpt lat="48.63166" lon="1.98995">
        <ele>116.6</ele>
        <time>2023-12-20T13:03:59Z</time>
      </trkpt>
      <trkpt lat="48.6316" lon="1.98994">
        <ele>116.6</ele>
        <time>2023-12-20T13:04:00Z</time>
      </trkpt>
      <trkpt lat="48.63154" lon="1.98992">
        <ele>116.6</ele>
        <time>2023-12-20T13:04:01Z</time>
      </trkpt>
      <trkpt lat="48.63148" lon="1.9899">
        <ele>115.6</ele>
        <time>2023-12-20T13:04:02Z</time>
      </trkpt>
      <trkpt lat="48.63141" lon="1.98987">
        <ele>114.2</ele>
        <time>2023-12-20T13:04:03Z</time>
      </trkpt>
      <trkpt lat="48.63134" lon="1.98984">
        <ele>114.2</ele>
        <time>2023-12-20T13:04:04Z</time>
      </trkpt>
      <trkpt lat="48.63126" lon="1.98983">
        <ele>114.2</ele>
        <time>2023-12-20T13:04:05Z</time>
      </trkpt>
      <trkpt lat="48.63118" lon="1.98981">
        <ele>114.2</ele>
        <time>2023-12-20T13:04:06Z</time>
      </trkpt>
      <trkpt lat="48.6311" lon="1.98979">
        <ele>113.4</ele>
        <time>2023-12-20T13:04:07Z</time>
      </trkpt>
      <trkpt lat="48.63101" lon="1.98977">
        <ele>113.4</ele>
        <time>2023-12-20T13:04:08Z</time>
      </trkpt>
      <trkpt lat="48.63093" lon="1.98974">
        <ele>113.4</ele>
        <time>2023-12-20T13:04:09Z</time>
      </trkpt>
      <trkpt lat="48.63085" lon="1.98971">
        <ele>113.4</ele>
        <time>2023-12-20T13:04:10Z</time>
      </trkpt>
      <trkpt lat="48.63077" lon="1.98967">
        <ele>113</ele>
        <time>2023-12-20T13:04:11Z</time>
      </trkpt>
      <trkpt lat="48.63068" lon="1.98965">
        <ele>113</ele>
        <time>2023-12-20T13:04:12Z</time>
      </trkpt>
      <trkpt lat="48.63062" lon="1.98962">
        <ele>113</ele>
        <time>2023-12-20T13:04:13Z</time>
      </trkpt>
      <trkpt lat="48.63055" lon="1.98959">
        <ele>114</ele>
        <time>2023-12-20T13:04:14Z</time>
      </trkpt>
      <trkpt lat="48.63048" lon="1.98956">
        <ele>113.8</ele>
        <time>2023-12-20T13:04:15Z</time>
      </trkpt>
      <trkpt lat="48.63043" lon="1.98953">
        <ele>113.8</ele>
        <time>2023-12-20T13:04:16Z</time>
      </trkpt>
      <trkpt lat="48.63036" lon="1.98951">
        <ele>113.8</ele>
        <time>2023-12-20T13:04:17Z</time>
      </trkpt>
      <trkpt lat="48.63029" lon="1.98949">
        <ele>114.8</ele>
        <time>2023-12-20T13:04:18Z</time>
      </trkpt>
      <trkpt lat="48.63023" lon="1.98947">
        <ele>114.8</ele>
        <time>2023-12-20T13:04:19Z</time>
      </trkpt>
      <trkpt lat="48.63018" lon="1.98945">
        <ele>114.8</ele>
        <time>2023-12-20T13:04:20Z</time>
      </trkpt>
      <trkpt lat="48.63011" lon="1.98941">
        <ele>114.8</ele>
        <time>2023-12-20T13:04:21Z</time>
      </trkpt>
      <trkpt lat="48.63005" lon="1.98938">
        <ele>115.6</ele>
        <time>2023-12-20T13:04:22Z</time>
      </trkpt>
      <trkpt lat="48.63" lon="1.98935">
        <ele>115.4</ele>
        <time>2023-12-20T13:04:23Z</time>
      </trkpt>
      <trkpt lat="48.62995" lon="1.98931">
        <ele>115.4</ele>
        <time>2023-12-20T13:04:24Z</time>
      </trkpt>
      <trkpt lat="48.62989" lon="1.98928">
        <ele>115.4</ele>
        <time>2023-12-20T13:04:25Z</time>
      </trkpt>
      <trkpt lat="48.62984" lon="1.98923">
        <ele>115.4</ele>
        <time>2023-12-20T13:04:26Z</time>
      </trkpt>
      <trkpt lat="48.62979" lon="1.98919">
        <ele>114.8</ele>
        <time>2023-12-20T13:04:27Z</time>
      </trkpt>
      <trkpt lat="48.62974" lon="1.98914">
        <ele>114.8</ele>
        <time>2023-12-20T13:04:28Z</time>
      </trkpt>
      <trkpt lat="48.6297" lon="1.98909">
        <ele>114.8</ele>
        <time>2023-12-20T13:04:29Z</time>
      </trkpt>
      <trkpt lat="48.62965" lon="1.98904">
        <ele>114.8</ele>
        <time>2023-12-20T13:04:30Z</time>
      </trkpt>
      <trkpt lat="48.6296" lon="1.98899">
        <ele>115</ele>
        <time>2023-12-20T13:04:31Z</time>
      </trkpt>
      <trkpt lat="48.62956" lon="1.98894">
        <ele>115</ele>
        <time>2023-12-20T13:04:32Z</time>
      </trkpt>
      <trkpt lat="48.62951" lon="1.98889">
        <ele>115</ele>
        <time>2023-12-20T13:04:33Z</time>
      </trkpt>
      <trkpt lat="48.62947" lon="1.98884">
        <ele>114.4</ele>
        <time>2023-12-20T13:04:34Z</time>
      </trkpt>
      <trkpt lat="48.62942" lon="1.9888">
        <ele>114.8</ele>
        <time>2023-12-20T13:04:35Z</time>
      </trkpt>
      <trkpt lat="48.62937" lon="1.98875">
        <ele>114.8</ele>
        <time>2023-12-20T13:04:36Z</time>
      </trkpt>
      <trkpt lat="48.62932" lon="1.9887">
        <ele>114.8</ele>
        <time>2023-12-20T13:04:37Z</time>
      </trkpt>
      <trkpt lat="48.62926" lon="1.98866">
        <ele>114.8</ele>
        <time>2023-12-20T13:04:38Z</time>
      </trkpt>
      <trkpt lat="48.62921" lon="1.98862">
        <ele>115</ele>
        <time>2023-12-20T13:04:39Z</time>
      </trkpt>
      <trkpt lat="48.62916" lon="1.98859">
        <ele>115</ele>
        <time>2023-12-20T13:04:40Z</time>
      </trkpt>
      <trkpt lat="48.62911" lon="1.98856">
        <ele>115</ele>
        <time>2023-12-20T13:04:41Z</time>
      </trkpt>
      <trkpt lat="48.62906" lon="1.98852">
        <ele>114.4</ele>
        <time>2023-12-20T13:04:42Z</time>
      </trkpt>
      <trkpt lat="48.62901" lon="1.98849">
        <ele>114.4</ele>
        <time>2023-12-20T13:04:43Z</time>
      </trkpt>
      <trkpt lat="48.62895" lon="1.98846">
        <ele>114.4</ele>
        <time>2023-12-20T13:04:44Z</time>
      </trkpt>
      <trkpt lat="48.6289" lon="1.98843">
        <ele>114.4</ele>
        <time>2023-12-20T13:04:45Z</time>
      </trkpt>
      <trkpt lat="48.62885" lon="1.9884">
        <ele>114.4</ele>
        <time>2023-12-20T13:04:46Z</time>
      </trkpt>
      <trkpt lat="48.6288" lon="1.98837">
        <ele>115.4</ele>
        <time>2023-12-20T13:04:47Z</time>
      </trkpt>
      <trkpt lat="48.62875" lon="1.98834">
        <ele>115.4</ele>
        <time>2023-12-20T13:04:48Z</time>
      </trkpt>
      <trkpt lat="48.62871" lon="1.98831">
        <ele>115.4</ele>
        <time>2023-12-20T13:04:49Z</time>
      </trkpt>
      <trkpt lat="48.62866" lon="1.98828">
        <ele>115</ele>
        <time>2023-12-20T13:04:50Z</time>
      </trkpt>
      <trkpt lat="48.62863" lon="1.98825">
        <ele>115.6</ele>
        <time>2023-12-20T13:04:51Z</time>
      </trkpt>
      <trkpt lat="48.62859" lon="1.98822">
        <ele>115.6</ele>
        <time>2023-12-20T13:04:52Z</time>
      </trkpt>
      <trkpt lat="48.62856" lon="1.9882">
        <ele>115.6</ele>
        <time>2023-12-20T13:04:53Z</time>
      </trkpt>
      <trkpt lat="48.62852" lon="1.98818">
        <ele>115.6</ele>
        <time>2023-12-20T13:04:54Z</time>
      </trkpt>
      <trkpt lat="48.62849" lon="1.98816">
        <ele>116.6</ele>
        <time>2023-12-20T13:04:55Z</time>
      </trkpt>
      <trkpt lat="48.62846" lon="1.98813">
        <ele>116.6</ele>
        <time>2023-12-20T13:04:56Z</time>
      </trkpt>
      <trkpt lat="48.62843" lon="1.98812">
        <ele>116.6</ele>
        <time>2023-12-20T13:04:57Z</time>
      </trkpt>
      <trkpt lat="48.6284" lon="1.9881">
        <ele>116</ele>
        <time>2023-12-20T13:04:58Z</time>
      </trkpt>
      <trkpt lat="48.62838" lon="1.98808">
        <ele>116.2</ele>
        <time>2023-12-20T13:04:59Z</time>
      </trkpt>
      <trkpt lat="48.62835" lon="1.98806">
        <ele>116.2</ele>
        <time>2023-12-20T13:05:00Z</time>
      </trkpt>
      <trkpt lat="48.62833" lon="1.98804">
        <ele>116.2</ele>
        <time>2023-12-20T13:05:01Z</time>
      </trkpt>
      <trkpt lat="48.62831" lon="1.98803">
        <ele>117</ele>
        <time>2023-12-20T13:05:02Z</time>
      </trkpt>
      <trkpt lat="48.62828" lon="1.98802">
        <ele>116.8</ele>
        <time>2023-12-20T13:05:03Z</time>
      </trkpt>
      <trkpt lat="48.62826" lon="1.98801">
        <ele>116.8</ele>
        <time>2023-12-20T13:05:04Z</time>
      </trkpt>
      <trkpt lat="48.62823" lon="1.988">
        <ele>116.8</ele>
        <time>2023-12-20T13:05:05Z</time>
      </trkpt>
      <trkpt lat="48.62821" lon="1.98798">
        <ele>116.8</ele>
        <time>2023-12-20T13:05:06Z</time>
      </trkpt>
      <trkpt lat="48.6282" lon="1.98795">
        <ele>117</ele>
        <time>2023-12-20T13:05:07Z</time>
      </trkpt>
      <trkpt lat="48.62818" lon="1.98792">
        <ele>117</ele>
        <time>2023-12-20T13:05:08Z</time>
      </trkpt>
      <trkpt lat="48.62815" lon="1.98789">
        <ele>117</ele>
        <time>2023-12-20T13:05:09Z</time>
      </trkpt>
      <trkpt lat="48.62811" lon="1.98787">
        <ele>117.8</ele>
        <time>2023-12-20T13:05:10Z</time>
      </trkpt>
      <trkpt lat="48.62807" lon="1.98785">
        <ele>118.2</ele>
        <time>2023-12-20T13:05:11Z</time>
      </trkpt>
      <trkpt lat="48.62805" lon="1.98782">
        <ele>118.2</ele>
        <time>2023-12-20T13:05:12Z</time>
      </trkpt>
      <trkpt lat="48.62804" lon="1.98782">
        <ele>118.2</ele>
        <time>2023-12-20T13:05:13Z</time>
      </trkpt>
      <trkpt lat="48.62797" lon="1.98779">
        <ele>117.8</ele>
        <time>2023-12-20T13:08:07Z</time>
      </trkpt>
      <trkpt lat="48.62792" lon="1.98776">
        <ele>117.8</ele>
        <time>2023-12-20T13:08:08Z</time>
      </trkpt>
      <trkpt lat="48.62791" lon="1.98775">
        <ele>117.8</ele>
        <time>2023-12-20T13:08:09Z</time>
      </trkpt>
      <trkpt lat="48.6279" lon="1.98774">
        <ele>117.8</ele>
        <time>2023-12-20T13:08:10Z</time>
      </trkpt>
      <trkpt lat="48.62788" lon="1.98773">
        <ele>117.6</ele>
        <time>2023-12-20T13:08:11Z</time>
      </trkpt>
      <trkpt lat="48.62787" lon="1.98771">
        <ele>117.6</ele>
        <time>2023-12-20T13:08:12Z</time>
      </trkpt>
      <trkpt lat="48.62785" lon="1.98769">
        <ele>117.6</ele>
        <time>2023-12-20T13:08:13Z</time>
      </trkpt>
      <trkpt lat="48.62782" lon="1.98768">
        <ele>117.6</ele>
        <time>2023-12-20T13:08:14Z</time>
      </trkpt>
      <trkpt lat="48.6278" lon="1.98767">
        <ele>117.6</ele>
        <time>2023-12-20T13:08:15Z</time>
      </trkpt>
      <trkpt lat="48.62777" lon="1.98765">
        <ele>117.6</ele>
        <time>2023-12-20T13:08:16Z</time>
      </trkpt>
      <trkpt lat="48.62773" lon="1.98763">
        <ele>117.6</ele>
        <time>2023-12-20T13:08:17Z</time>
      </trkpt>
      <trkpt lat="48.62769" lon="1.9876">
        <ele>117.6</ele>
        <time>2023-12-20T13:08:18Z</time>
      </trkpt>
      <trkpt lat="48.62765" lon="1.98758">
        <ele>117.2</ele>
        <time>2023-12-20T13:08:19Z</time>
      </trkpt>
      <trkpt lat="48.62761" lon="1.98756">
        <ele>117.2</ele>
        <time>2023-12-20T13:08:20Z</time>
      </trkpt>
      <trkpt lat="48.62757" lon="1.98755">
        <ele>117.2</ele>
        <time>2023-12-20T13:08:21Z</time>
      </trkpt>
      <trkpt lat="48.62752" lon="1.98755">
        <ele>117.4</ele>
        <time>2023-12-20T13:08:22Z</time>
      </trkpt>
      <trkpt lat="48.62747" lon="1.98756">
        <ele>117</ele>
        <time>2023-12-20T13:08:23Z</time>
      </trkpt>
      <trkpt lat="48.62743" lon="1.98757">
        <ele>117</ele>
        <time>2023-12-20T13:08:24Z</time>
      </trkpt>
      <trkpt lat="48.62738" lon="1.98759">
        <ele>117</ele>
        <time>2023-12-20T13:08:25Z</time>
      </trkpt>
      <trkpt lat="48.62733" lon="1.98761">
        <ele>117</ele>
        <time>2023-12-20T13:08:26Z</time>
      </trkpt>
      <trkpt lat="48.62729" lon="1.98763">
        <ele>117.2</ele>
        <time>2023-12-20T13:08:27Z</time>
      </trkpt>
      <trkpt lat="48.62724" lon="1.98765">
        <ele>117.2</ele>
        <time>2023-12-20T13:08:28Z</time>
      </trkpt>
      <trkpt lat="48.62719" lon="1.98768">
        <ele>117.2</ele>
        <time>2023-12-20T13:08:29Z</time>
      </trkpt>
      <trkpt lat="48.62713" lon="1.9877">
        <ele>116.4</ele>
        <time>2023-12-20T13:08:30Z</time>
      </trkpt>
      <trkpt lat="48.62708" lon="1.98772">
        <ele>116.2</ele>
        <time>2023-12-20T13:08:31Z</time>
      </trkpt>
      <trkpt lat="48.62703" lon="1.98774">
        <ele>116.2</ele>
        <time>2023-12-20T13:08:32Z</time>
      </trkpt>
      <trkpt lat="48.62698" lon="1.98777">
        <ele>116.2</ele>
        <time>2023-12-20T13:08:33Z</time>
      </trkpt>
      <trkpt lat="48.62692" lon="1.98779">
        <ele>116.2</ele>
        <time>2023-12-20T13:08:34Z</time>
      </trkpt>
      <trkpt lat="48.62687" lon="1.98782">
        <ele>115.8</ele>
        <time>2023-12-20T13:08:35Z</time>
      </trkpt>
      <trkpt lat="48.62682" lon="1.98784">
        <ele>115.8</ele>
        <time>2023-12-20T13:08:36Z</time>
      </trkpt>
      <trkpt lat="48.62676" lon="1.98787">
        <ele>115.8</ele>
        <time>2023-12-20T13:08:37Z</time>
      </trkpt>
      <trkpt lat="48.6267" lon="1.98789">
        <ele>115.8</ele>
        <time>2023-12-20T13:08:38Z</time>
      </trkpt>
      <trkpt lat="48.62665" lon="1.98791">
        <ele>115.8</ele>
        <time>2023-12-20T13:08:39Z</time>
      </trkpt>
      <trkpt lat="48.62659" lon="1.98793">
        <ele>115.8</ele>
        <time>2023-12-20T13:08:40Z</time>
      </trkpt>
      <trkpt lat="48.62653" lon="1.98796">
        <ele>115.8</ele>
        <time>2023-12-20T13:08:41Z</time>
      </trkpt>
      <trkpt lat="48.62647" lon="1.98799">
        <ele>115</ele>
        <time>2023-12-20T13:08:42Z</time>
      </trkpt>
      <trkpt lat="48.62641" lon="1.98802">
        <ele>114.4</ele>
        <time>2023-12-20T13:08:43Z</time>
      </trkpt>
      <trkpt lat="48.62635" lon="1.98805">
        <ele>114.4</ele>
        <time>2023-12-20T13:08:44Z</time>
      </trkpt>
      <trkpt lat="48.62629" lon="1.98808">
        <ele>114.4</ele>
        <time>2023-12-20T13:08:45Z</time>
      </trkpt>
      <trkpt lat="48.62624" lon="1.98811">
        <ele>114.4</ele>
        <time>2023-12-20T13:08:46Z</time>
      </trkpt>
      <trkpt lat="48.62618" lon="1.98814">
        <ele>114.8</ele>
        <time>2023-12-20T13:08:47Z</time>
      </trkpt>
      <trkpt lat="48.62612" lon="1.98818">
        <ele>114.8</ele>
        <time>2023-12-20T13:08:48Z</time>
      </trkpt>
      <trkpt lat="48.62606" lon="1.98822">
        <ele>114.8</ele>
        <time>2023-12-20T13:08:49Z</time>
      </trkpt>
      <trkpt lat="48.62601" lon="1.98826">
        <ele>114.2</ele>
        <time>2023-12-20T13:08:50Z</time>
      </trkpt>
      <trkpt lat="48.62595" lon="1.98829">
        <ele>114.4</ele>
        <time>2023-12-20T13:08:51Z</time>
      </trkpt>
      <trkpt lat="48.62589" lon="1.98832">
        <ele>114.4</ele>
        <time>2023-12-20T13:08:52Z</time>
      </trkpt>
      <trkpt lat="48.62584" lon="1.98836">
        <ele>114.4</ele>
        <time>2023-12-20T13:08:53Z</time>
      </trkpt>
      <trkpt lat="48.62578" lon="1.9884">
        <ele>113.6</ele>
        <time>2023-12-20T13:08:54Z</time>
      </trkpt>
      <trkpt lat="48.62573" lon="1.98843">
        <ele>114</ele>
        <time>2023-12-20T13:08:55Z</time>
      </trkpt>
      <trkpt lat="48.62568" lon="1.98847">
        <ele>114</ele>
        <time>2023-12-20T13:08:56Z</time>
      </trkpt>
      <trkpt lat="48.62562" lon="1.9885">
        <ele>114</ele>
        <time>2023-12-20T13:08:57Z</time>
      </trkpt>
      <trkpt lat="48.62557" lon="1.98853">
        <ele>113</ele>
        <time>2023-12-20T13:08:58Z</time>
      </trkpt>
      <trkpt lat="48.62551" lon="1.98856">
        <ele>112.4</ele>
        <time>2023-12-20T13:08:59Z</time>
      </trkpt>
      <trkpt lat="48.62546" lon="1.9886">
        <ele>112.4</ele>
        <time>2023-12-20T13:09:00Z</time>
      </trkpt>
      <trkpt lat="48.6254" lon="1.98864">
        <ele>112.4</ele>
        <time>2023-12-20T13:09:01Z</time>
      </trkpt>
      <trkpt lat="48.62534" lon="1.98868">
        <ele>112.4</ele>
        <time>2023-12-20T13:09:02Z</time>
      </trkpt>
      <trkpt lat="48.62529" lon="1.98872">
        <ele>112.4</ele>
        <time>2023-12-20T13:09:03Z</time>
      </trkpt>
      <trkpt lat="48.62523" lon="1.98875">
        <ele>112.4</ele>
        <time>2023-12-20T13:09:04Z</time>
      </trkpt>
      <trkpt lat="48.62517" lon="1.9888">
        <ele>112.4</ele>
        <time>2023-12-20T13:09:05Z</time>
      </trkpt>
      <trkpt lat="48.62512" lon="1.98884">
        <ele>112.4</ele>
        <time>2023-12-20T13:09:06Z</time>
      </trkpt>
      <trkpt lat="48.62506" lon="1.98889">
        <ele>111.4</ele>
        <time>2023-12-20T13:09:07Z</time>
      </trkpt>
      <trkpt lat="48.625" lon="1.98892">
        <ele>111.4</ele>
        <time>2023-12-20T13:09:08Z</time>
      </trkpt>
      <trkpt lat="48.62494" lon="1.98897">
        <ele>111.4</ele>
        <time>2023-12-20T13:09:09Z</time>
      </trkpt>
      <trkpt lat="48.62488" lon="1.98901">
        <ele>112.2</ele>
        <time>2023-12-20T13:09:10Z</time>
      </trkpt>
      <trkpt lat="48.62483" lon="1.98905">
        <ele>112.4</ele>
        <time>2023-12-20T13:09:11Z</time>
      </trkpt>
      <trkpt lat="48.62477" lon="1.9891">
        <ele>112.4</ele>
        <time>2023-12-20T13:09:12Z</time>
      </trkpt>
      <trkpt lat="48.62472" lon="1.98916">
        <ele>112.4</ele>
        <time>2023-12-20T13:09:13Z</time>
      </trkpt>
      <trkpt lat="48.62466" lon="1.9892">
        <ele>112.2</ele>
        <time>2023-12-20T13:09:14Z</time>
      </trkpt>
      <trkpt lat="48.6246" lon="1.98925">
        <ele>112</ele>
        <time>2023-12-20T13:09:15Z</time>
      </trkpt>
      <trkpt lat="48.62454" lon="1.98929">
        <ele>112</ele>
        <time>2023-12-20T13:09:16Z</time>
      </trkpt>
      <trkpt lat="48.62448" lon="1.98933">
        <ele>112</ele>
        <time>2023-12-20T13:09:17Z</time>
      </trkpt>
      <trkpt lat="48.62442" lon="1.98937">
        <ele>111.4</ele>
        <time>2023-12-20T13:09:18Z</time>
      </trkpt>
      <trkpt lat="48.62437" lon="1.98942">
        <ele>111.4</ele>
        <time>2023-12-20T13:09:19Z</time>
      </trkpt>
      <trkpt lat="48.62431" lon="1.98946">
        <ele>111.4</ele>
        <time>2023-12-20T13:09:20Z</time>
      </trkpt>
      <trkpt lat="48.62425" lon="1.98951">
        <ele>111.4</ele>
        <time>2023-12-20T13:09:21Z</time>
      </trkpt>
      <trkpt lat="48.62419" lon="1.98957">
        <ele>111</ele>
        <time>2023-12-20T13:09:22Z</time>
      </trkpt>
      <trkpt lat="48.62413" lon="1.98962">
        <ele>111</ele>
        <time>2023-12-20T13:09:23Z</time>
      </trkpt>
      <trkpt lat="48.62407" lon="1.98967">
        <ele>111</ele>
        <time>2023-12-20T13:09:24Z</time>
      </trkpt>
      <trkpt lat="48.62401" lon="1.98972">
        <ele>111</ele>
        <time>2023-12-20T13:09:25Z</time>
      </trkpt>
      <trkpt lat="48.62395" lon="1.98977">
        <ele>110.6</ele>
        <time>2023-12-20T13:09:26Z</time>
      </trkpt>
      <trkpt lat="48.62388" lon="1.98983">
        <ele>110.2</ele>
        <time>2023-12-20T13:09:27Z</time>
      </trkpt>
      <trkpt lat="48.62382" lon="1.98988">
        <ele>110.2</ele>
        <time>2023-12-20T13:09:28Z</time>
      </trkpt>
      <trkpt lat="48.62376" lon="1.98992">
        <ele>110.2</ele>
        <time>2023-12-20T13:09:29Z</time>
      </trkpt>
      <trkpt lat="48.62369" lon="1.98996">
        <ele>110.2</ele>
        <time>2023-12-20T13:09:30Z</time>
      </trkpt>
      <trkpt lat="48.62363" lon="1.99001">
        <ele>108.8</ele>
        <time>2023-12-20T13:09:31Z</time>
      </trkpt>
      <trkpt lat="48.62357" lon="1.99006">
        <ele>108.8</ele>
        <time>2023-12-20T13:09:32Z</time>
      </trkpt>
      <trkpt lat="48.62351" lon="1.99011">
        <ele>108.8</ele>
        <time>2023-12-20T13:09:33Z</time>
      </trkpt>
      <trkpt lat="48.62346" lon="1.99018">
        <ele>108.8</ele>
        <time>2023-12-20T13:09:34Z</time>
      </trkpt>
      <trkpt lat="48.62341" lon="1.99024">
        <ele>108.8</ele>
        <time>2023-12-20T13:09:35Z</time>
      </trkpt>
      <trkpt lat="48.62336" lon="1.99031">
        <ele>108.8</ele>
        <time>2023-12-20T13:09:36Z</time>
      </trkpt>
      <trkpt lat="48.62332" lon="1.99038">
        <ele>108.8</ele>
        <time>2023-12-20T13:09:37Z</time>
      </trkpt>
      <trkpt lat="48.62327" lon="1.99045">
        <ele>108.8</ele>
        <time>2023-12-20T13:09:38Z</time>
      </trkpt>
      <trkpt lat="48.62322" lon="1.99053">
        <ele>107.8</ele>
        <time>2023-12-20T13:09:39Z</time>
      </trkpt>
      <trkpt lat="48.62317" lon="1.9906">
        <ele>107.8</ele>
        <time>2023-12-20T13:09:40Z</time>
      </trkpt>
      <trkpt lat="48.62312" lon="1.99068">
        <ele>107.8</ele>
        <time>2023-12-20T13:09:41Z</time>
      </trkpt>
      <trkpt lat="48.62306" lon="1.99075">
        <ele>107.8</ele>
        <time>2023-12-20T13:09:42Z</time>
      </trkpt>
      <trkpt lat="48.623" lon="1.99082">
        <ele>107.6</ele>
        <time>2023-12-20T13:09:43Z</time>
      </trkpt>
      <trkpt lat="48.62295" lon="1.99089">
        <ele>107.6</ele>
        <time>2023-12-20T13:09:44Z</time>
      </trkpt>
      <trkpt lat="48.62289" lon="1.99095">
        <ele>107.6</ele>
        <time>2023-12-20T13:09:45Z</time>
      </trkpt>
      <trkpt lat="48.62283" lon="1.99102">
        <ele>107.6</ele>
        <time>2023-12-20T13:09:46Z</time>
      </trkpt>
      <trkpt lat="48.62277" lon="1.99109">
        <ele>107.8</ele>
        <time>2023-12-20T13:09:47Z</time>
      </trkpt>
      <trkpt lat="48.62272" lon="1.99115">
        <ele>107.8</ele>
        <time>2023-12-20T13:09:48Z</time>
      </trkpt>
      <trkpt lat="48.62266" lon="1.99121">
        <ele>107.8</ele>
        <time>2023-12-20T13:09:49Z</time>
      </trkpt>
      <trkpt lat="48.6226" lon="1.99128">
        <ele>107.8</ele>
        <time>2023-12-20T13:09:50Z</time>
      </trkpt>
      <trkpt lat="48.62254" lon="1.99134">
        <ele>108.2</ele>
        <time>2023-12-20T13:09:51Z</time>
      </trkpt>
      <trkpt lat="48.62248" lon="1.9914">
        <ele>108.2</ele>
        <time>2023-12-20T13:09:52Z</time>
      </trkpt>
      <trkpt lat="48.62243" lon="1.99147">
        <ele>108.2</ele>
        <time>2023-12-20T13:09:53Z</time>
      </trkpt>
      <trkpt lat="48.62237" lon="1.99153">
        <ele>107.2</ele>
        <time>2023-12-20T13:09:54Z</time>
      </trkpt>
      <trkpt lat="48.62231" lon="1.9916">
        <ele>106.8</ele>
        <time>2023-12-20T13:09:55Z</time>
      </trkpt>
      <trkpt lat="48.62226" lon="1.99166">
        <ele>106.8</ele>
        <time>2023-12-20T13:09:56Z</time>
      </trkpt>
      <trkpt lat="48.6222" lon="1.99172">
        <ele>106.8</ele>
        <time>2023-12-20T13:09:57Z</time>
      </trkpt>
      <trkpt lat="48.62215" lon="1.99178">
        <ele>106.8</ele>
        <time>2023-12-20T13:09:58Z</time>
      </trkpt>
      <trkpt lat="48.6221" lon="1.99184">
        <ele>108.6</ele>
        <time>2023-12-20T13:09:59Z</time>
      </trkpt>
      <trkpt lat="48.62205" lon="1.9919">
        <ele>108.6</ele>
        <time>2023-12-20T13:10:00Z</time>
      </trkpt>
      <trkpt lat="48.622" lon="1.99195">
        <ele>108.6</ele>
        <time>2023-12-20T13:10:01Z</time>
      </trkpt>
      <trkpt lat="48.62196" lon="1.992">
        <ele>108.6</ele>
        <time>2023-12-20T13:10:02Z</time>
      </trkpt>
      <trkpt lat="48.62193" lon="1.99206">
        <ele>108.8</ele>
        <time>2023-12-20T13:10:03Z</time>
      </trkpt>
      <trkpt lat="48.62191" lon="1.99212">
        <ele>108.8</ele>
        <time>2023-12-20T13:10:04Z</time>
      </trkpt>
      <trkpt lat="48.6219" lon="1.9922">
        <ele>108.8</ele>
        <time>2023-12-20T13:10:05Z</time>
      </trkpt>
      <trkpt lat="48.6219" lon="1.99228">
        <ele>108.8</ele>
        <time>2023-12-20T13:10:06Z</time>
      </trkpt>
      <trkpt lat="48.62191" lon="1.99236">
        <ele>109</ele>
        <time>2023-12-20T13:10:07Z</time>
      </trkpt>
      <trkpt lat="48.62192" lon="1.99244">
        <ele>109</ele>
        <time>2023-12-20T13:10:08Z</time>
      </trkpt>
      <trkpt lat="48.62193" lon="1.99252">
        <ele>109</ele>
        <time>2023-12-20T13:10:09Z</time>
      </trkpt>
      <trkpt lat="48.62195" lon="1.99259">
        <ele>109</ele>
        <time>2023-12-20T13:10:10Z</time>
      </trkpt>
      <trkpt lat="48.62196" lon="1.99267">
        <ele>109.2</ele>
        <time>2023-12-20T13:10:11Z</time>
      </trkpt>
      <trkpt lat="48.62198" lon="1.99275">
        <ele>109.2</ele>
        <time>2023-12-20T13:10:12Z</time>
      </trkpt>
      <trkpt lat="48.62199" lon="1.99283">
        <ele>109.2</ele>
        <time>2023-12-20T13:10:13Z</time>
      </trkpt>
      <trkpt lat="48.62201" lon="1.99291">
        <ele>109.2</ele>
        <time>2023-12-20T13:10:14Z</time>
      </trkpt>
      <trkpt lat="48.62203" lon="1.99299">
        <ele>109.4</ele>
        <time>2023-12-20T13:10:15Z</time>
      </trkpt>
      <trkpt lat="48.62204" lon="1.99307">
        <ele>109.4</ele>
        <time>2023-12-20T13:10:16Z</time>
      </trkpt>
      <trkpt lat="48.62206" lon="1.99315">
        <ele>109.4</ele>
        <time>2023-12-20T13:10:17Z</time>
      </trkpt>
      <trkpt lat="48.62207" lon="1.99323">
        <ele>109.4</ele>
        <time>2023-12-20T13:10:18Z</time>
      </trkpt>
      <trkpt lat="48.62207" lon="1.9933">
        <ele>110.2</ele>
        <time>2023-12-20T13:10:19Z</time>
      </trkpt>
      <trkpt lat="48.62208" lon="1.99336">
        <ele>110.2</ele>
        <time>2023-12-20T13:10:20Z</time>
      </trkpt>
      <trkpt lat="48.62208" lon="1.99342">
        <ele>110.2</ele>
        <time>2023-12-20T13:10:21Z</time>
      </trkpt>
      <trkpt lat="48.62209" lon="1.99348">
        <ele>110.2</ele>
        <time>2023-12-20T13:10:22Z</time>
      </trkpt>
      <trkpt lat="48.62209" lon="1.99355">
        <ele>110</ele>
        <time>2023-12-20T13:10:23Z</time>
      </trkpt>
      <trkpt lat="48.6221" lon="1.99362">
        <ele>110</ele>
        <time>2023-12-20T13:10:24Z</time>
      </trkpt>
      <trkpt lat="48.6221" lon="1.99369">
        <ele>110</ele>
        <time>2023-12-20T13:10:25Z</time>
      </trkpt>
      <trkpt lat="48.62211" lon="1.99377">
        <ele>110.6</ele>
        <time>2023-12-20T13:10:26Z</time>
      </trkpt>
      <trkpt lat="48.62211" lon="1.99384">
        <ele>110.6</ele>
        <time>2023-12-20T13:10:27Z</time>
      </trkpt>
      <trkpt lat="48.62212" lon="1.99392">
        <ele>110.6</ele>
        <time>2023-12-20T13:10:28Z</time>
      </trkpt>
      <trkpt lat="48.62212" lon="1.994">
        <ele>110.6</ele>
        <time>2023-12-20T13:10:29Z</time>
      </trkpt>
      <trkpt lat="48.62213" lon="1.99408">
        <ele>110.6</ele>
        <time>2023-12-20T13:10:30Z</time>
      </trkpt>
      <trkpt lat="48.62213" lon="1.99415">
        <ele>111</ele>
        <time>2023-12-20T13:10:31Z</time>
      </trkpt>
      <trkpt lat="48.62213" lon="1.99423">
        <ele>111</ele>
        <time>2023-12-20T13:10:32Z</time>
      </trkpt>
      <trkpt lat="48.62214" lon="1.99431">
        <ele>111</ele>
        <time>2023-12-20T13:10:33Z</time>
      </trkpt>
      <trkpt lat="48.62214" lon="1.99439">
        <ele>111.4</ele>
        <time>2023-12-20T13:10:34Z</time>
      </trkpt>
      <trkpt lat="48.62214" lon="1.99446">
        <ele>111.6</ele>
        <time>2023-12-20T13:10:35Z</time>
      </trkpt>
      <trkpt lat="48.62214" lon="1.99454">
        <ele>111.6</ele>
        <time>2023-12-20T13:10:36Z</time>
      </trkpt>
      <trkpt lat="48.62214" lon="1.99462">
        <ele>111.6</ele>
        <time>2023-12-20T13:10:37Z</time>
      </trkpt>
      <trkpt lat="48.62214" lon="1.9947">
        <ele>111.6</ele>
        <time>2023-12-20T13:10:38Z</time>
      </trkpt>
      <trkpt lat="48.62214" lon="1.99477">
        <ele>112.8</ele>
        <time>2023-12-20T13:10:39Z</time>
      </trkpt>
      <trkpt lat="48.62214" lon="1.99485">
        <ele>112.8</ele>
        <time>2023-12-20T13:10:40Z</time>
      </trkpt>
      <trkpt lat="48.62214" lon="1.99492">
        <ele>112.8</ele>
        <time>2023-12-20T13:10:41Z</time>
      </trkpt>
      <trkpt lat="48.62214" lon="1.995">
        <ele>113.2</ele>
        <time>2023-12-20T13:10:42Z</time>
      </trkpt>
      <trkpt lat="48.62215" lon="1.99507">
        <ele>114</ele>
        <time>2023-12-20T13:10:43Z</time>
      </trkpt>
      <trkpt lat="48.62215" lon="1.99514">
        <ele>114</ele>
        <time>2023-12-20T13:10:44Z</time>
      </trkpt>
      <trkpt lat="48.62215" lon="1.99522">
        <ele>114</ele>
        <time>2023-12-20T13:10:45Z</time>
      </trkpt>
      <trkpt lat="48.62215" lon="1.99529">
        <ele>114.2</ele>
        <time>2023-12-20T13:10:46Z</time>
      </trkpt>
      <trkpt lat="48.62215" lon="1.99537">
        <ele>114.6</ele>
        <time>2023-12-20T13:10:47Z</time>
      </trkpt>
      <trkpt lat="48.62215" lon="1.99544">
        <ele>114.6</ele>
        <time>2023-12-20T13:10:48Z</time>
      </trkpt>
      <trkpt lat="48.62215" lon="1.99552">
        <ele>114.6</ele>
        <time>2023-12-20T13:10:49Z</time>
      </trkpt>
      <trkpt lat="48.62215" lon="1.9956">
        <ele>114.6</ele>
        <time>2023-12-20T13:10:50Z</time>
      </trkpt>
      <trkpt lat="48.62214" lon="1.99568">
        <ele>116.4</ele>
        <time>2023-12-20T13:10:51Z</time>
      </trkpt>
      <trkpt lat="48.62214" lon="1.99575">
        <ele>116.4</ele>
        <time>2023-12-20T13:10:52Z</time>
      </trkpt>
      <trkpt lat="48.62214" lon="1.99582">
        <ele>116.4</ele>
        <time>2023-12-20T13:10:53Z</time>
      </trkpt>
      <trkpt lat="48.62214" lon="1.99589">
        <ele>116.4</ele>
        <time>2023-12-20T13:10:54Z</time>
      </trkpt>
      <trkpt lat="48.62214" lon="1.99595">
        <ele>117.8</ele>
        <time>2023-12-20T13:10:55Z</time>
      </trkpt>
      <trkpt lat="48.62213" lon="1.99599">
        <ele>117.8</ele>
        <time>2023-12-20T13:10:56Z</time>
      </trkpt>
      <trkpt lat="48.62212" lon="1.99604">
        <ele>117.8</ele>
        <time>2023-12-20T13:10:57Z</time>
      </trkpt>
      <trkpt lat="48.62212" lon="1.9961">
        <ele>117.6</ele>
        <time>2023-12-20T13:10:58Z</time>
      </trkpt>
      <trkpt lat="48.62211" lon="1.99616">
        <ele>118.2</ele>
        <time>2023-12-20T13:10:59Z</time>
      </trkpt>
      <trkpt lat="48.6221" lon="1.99622">
        <ele>118.2</ele>
        <time>2023-12-20T13:11:00Z</time>
      </trkpt>
      <trkpt lat="48.62209" lon="1.99628">
        <ele>118.2</ele>
        <time>2023-12-20T13:11:01Z</time>
      </trkpt>
      <trkpt lat="48.62209" lon="1.99634">
        <ele>118</ele>
        <time>2023-12-20T13:11:02Z</time>
      </trkpt>
      <trkpt lat="48.62209" lon="1.9964">
        <ele>117.8</ele>
        <time>2023-12-20T13:11:03Z</time>
      </trkpt>
      <trkpt lat="48.62209" lon="1.99647">
        <ele>117.8</ele>
        <time>2023-12-20T13:11:04Z</time>
      </trkpt>
      <trkpt lat="48.62208" lon="1.99653">
        <ele>117.8</ele>
        <time>2023-12-20T13:11:05Z</time>
      </trkpt>
      <trkpt lat="48.62208" lon="1.99659">
        <ele>118.8</ele>
        <time>2023-12-20T13:11:06Z</time>
      </trkpt>
      <trkpt lat="48.62207" lon="1.99665">
        <ele>119.8</ele>
        <time>2023-12-20T13:11:07Z</time>
      </trkpt>
      <trkpt lat="48.62207" lon="1.9967">
        <ele>119.8</ele>
        <time>2023-12-20T13:11:08Z</time>
      </trkpt>
      <trkpt lat="48.62207" lon="1.99676">
        <ele>119.8</ele>
        <time>2023-12-20T13:11:09Z</time>
      </trkpt>
      <trkpt lat="48.62207" lon="1.99682">
        <ele>119.8</ele>
        <time>2023-12-20T13:11:10Z</time>
      </trkpt>
      <trkpt lat="48.62207" lon="1.99688">
        <ele>120</ele>
        <time>2023-12-20T13:11:11Z</time>
      </trkpt>
      <trkpt lat="48.62206" lon="1.99694">
        <ele>120</ele>
        <time>2023-12-20T13:11:12Z</time>
      </trkpt>
      <trkpt lat="48.62206" lon="1.997">
        <ele>120</ele>
        <time>2023-12-20T13:11:13Z</time>
      </trkpt>
      <trkpt lat="48.62206" lon="1.99706">
        <ele>120</ele>
        <time>2023-12-20T13:11:14Z</time>
      </trkpt>
      <trkpt lat="48.62206" lon="1.99712">
        <ele>119.8</ele>
        <time>2023-12-20T13:11:15Z</time>
      </trkpt>
      <trkpt lat="48.62205" lon="1.99719">
        <ele>119.8</ele>
        <time>2023-12-20T13:11:16Z</time>
      </trkpt>
      <trkpt lat="48.62205" lon="1.99725">
        <ele>119.8</ele>
        <time>2023-12-20T13:11:17Z</time>
      </trkpt>
      <trkpt lat="48.62204" lon="1.99732">
        <ele>120.2</ele>
        <time>2023-12-20T13:11:18Z</time>
      </trkpt>
      <trkpt lat="48.62203" lon="1.99738">
        <ele>120.2</ele>
        <time>2023-12-20T13:11:19Z</time>
      </trkpt>
      <trkpt lat="48.62202" lon="1.99744">
        <ele>120.2</ele>
        <time>2023-12-20T13:11:20Z</time>
      </trkpt>
      <trkpt lat="48.622" lon="1.9975">
        <ele>120.2</ele>
        <time>2023-12-20T13:11:21Z</time>
      </trkpt>
      <trkpt lat="48.62197" lon="1.99755">
        <ele>120.2</ele>
        <time>2023-12-20T13:11:22Z</time>
      </trkpt>
      <trkpt lat="48.62195" lon="1.9976">
        <ele>120.6</ele>
        <time>2023-12-20T13:11:23Z</time>
      </trkpt>
      <trkpt lat="48.62192" lon="1.99765">
        <ele>120.6</ele>
        <time>2023-12-20T13:11:24Z</time>
      </trkpt>
      <trkpt lat="48.62189" lon="1.9977">
        <ele>120.6</ele>
        <time>2023-12-20T13:11:25Z</time>
      </trkpt>
      <trkpt lat="48.62186" lon="1.99776">
        <ele>119.8</ele>
        <time>2023-12-20T13:11:26Z</time>
      </trkpt>
      <trkpt lat="48.62183" lon="1.99781">
        <ele>119.6</ele>
        <time>2023-12-20T13:11:27Z</time>
      </trkpt>
      <trkpt lat="48.62179" lon="1.99786">
        <ele>119.6</ele>
        <time>2023-12-20T13:11:28Z</time>
      </trkpt>
      <trkpt lat="48.62176" lon="1.99791">
        <ele>119.6</ele>
        <time>2023-12-20T13:11:29Z</time>
      </trkpt>
      <trkpt lat="48.62172" lon="1.99796">
        <ele>118.8</ele>
        <time>2023-12-20T13:11:30Z</time>
      </trkpt>
      <trkpt lat="48.6217" lon="1.998">
        <ele>118.8</ele>
        <time>2023-12-20T13:11:31Z</time>
      </trkpt>
      <trkpt lat="48.62166" lon="1.99804">
        <ele>118.8</ele>
        <time>2023-12-20T13:11:32Z</time>
      </trkpt>
      <trkpt lat="48.62163" lon="1.99808">
        <ele>118.8</ele>
        <time>2023-12-20T13:11:33Z</time>
      </trkpt>
      <trkpt lat="48.62159" lon="1.99811">
        <ele>118.8</ele>
        <time>2023-12-20T13:11:34Z</time>
      </trkpt>
      <trkpt lat="48.62155" lon="1.99815">
        <ele>118.2</ele>
        <time>2023-12-20T13:11:35Z</time>
      </trkpt>
      <trkpt lat="48.62151" lon="1.99819">
        <ele>118.2</ele>
        <time>2023-12-20T13:11:36Z</time>
      </trkpt>
      <trkpt lat="48.62146" lon="1.99822">
        <ele>118.2</ele>
        <time>2023-12-20T13:11:37Z</time>
      </trkpt>
      <trkpt lat="48.62142" lon="1.99827">
        <ele>118.2</ele>
        <time>2023-12-20T13:11:38Z</time>
      </trkpt>
      <trkpt lat="48.62137" lon="1.99831">
        <ele>117.4</ele>
        <time>2023-12-20T13:11:39Z</time>
      </trkpt>
      <trkpt lat="48.62131" lon="1.99835">
        <ele>117.4</ele>
        <time>2023-12-20T13:11:40Z</time>
      </trkpt>
      <trkpt lat="48.62126" lon="1.99839">
        <ele>117.4</ele>
        <time>2023-12-20T13:11:41Z</time>
      </trkpt>
      <trkpt lat="48.62121" lon="1.99844">
        <ele>116.4</ele>
        <time>2023-12-20T13:11:42Z</time>
      </trkpt>
      <trkpt lat="48.62115" lon="1.99849">
        <ele>116</ele>
        <time>2023-12-20T13:11:43Z</time>
      </trkpt>
      <trkpt lat="48.62109" lon="1.99853">
        <ele>116</ele>
        <time>2023-12-20T13:11:44Z</time>
      </trkpt>
      <trkpt lat="48.62103" lon="1.99857">
        <ele>116</ele>
        <time>2023-12-20T13:11:45Z</time>
      </trkpt>
      <trkpt lat="48.62097" lon="1.99862">
        <ele>115.8</ele>
        <time>2023-12-20T13:11:46Z</time>
      </trkpt>
      <trkpt lat="48.62091" lon="1.99866">
        <ele>115.6</ele>
        <time>2023-12-20T13:11:47Z</time>
      </trkpt>
      <trkpt lat="48.62085" lon="1.9987">
        <ele>115.6</ele>
        <time>2023-12-20T13:11:48Z</time>
      </trkpt>
      <trkpt lat="48.62079" lon="1.99875">
        <ele>115.6</ele>
        <time>2023-12-20T13:11:49Z</time>
      </trkpt>
      <trkpt lat="48.62073" lon="1.99879">
        <ele>114.6</ele>
        <time>2023-12-20T13:11:50Z</time>
      </trkpt>
      <trkpt lat="48.62067" lon="1.99883">
        <ele>114.4</ele>
        <time>2023-12-20T13:11:51Z</time>
      </trkpt>
      <trkpt lat="48.6206" lon="1.99888">
        <ele>114.4</ele>
        <time>2023-12-20T13:11:52Z</time>
      </trkpt>
      <trkpt lat="48.62054" lon="1.99892">
        <ele>114.4</ele>
        <time>2023-12-20T13:11:53Z</time>
      </trkpt>
      <trkpt lat="48.62047" lon="1.99896">
        <ele>113.6</ele>
        <time>2023-12-20T13:11:54Z</time>
      </trkpt>
      <trkpt lat="48.62041" lon="1.99901">
        <ele>113.6</ele>
        <time>2023-12-20T13:11:55Z</time>
      </trkpt>
      <trkpt lat="48.62034" lon="1.99905">
        <ele>113.6</ele>
        <time>2023-12-20T13:11:56Z</time>
      </trkpt>
      <trkpt lat="48.62028" lon="1.9991">
        <ele>113.6</ele>
        <time>2023-12-20T13:11:57Z</time>
      </trkpt>
      <trkpt lat="48.62022" lon="1.99914">
        <ele>113.6</ele>
        <time>2023-12-20T13:11:58Z</time>
      </trkpt>
      <trkpt lat="48.62015" lon="1.99917">
        <ele>113.4</ele>
        <time>2023-12-20T13:11:59Z</time>
      </trkpt>
      <trkpt lat="48.62009" lon="1.99919">
        <ele>113.4</ele>
        <time>2023-12-20T13:12:00Z</time>
      </trkpt>
      <trkpt lat="48.62003" lon="1.99921">
        <ele>113.4</ele>
        <time>2023-12-20T13:12:01Z</time>
      </trkpt>
      <trkpt lat="48.61996" lon="1.99922">
        <ele>113.4</ele>
        <time>2023-12-20T13:12:02Z</time>
      </trkpt>
      <trkpt lat="48.61989" lon="1.99922">
        <ele>113.6</ele>
        <time>2023-12-20T13:12:03Z</time>
      </trkpt>
      <trkpt lat="48.61983" lon="1.99922">
        <ele>113.6</ele>
        <time>2023-12-20T13:12:04Z</time>
      </trkpt>
      <trkpt lat="48.61977" lon="1.99921">
        <ele>113.6</ele>
        <time>2023-12-20T13:12:05Z</time>
      </trkpt>
      <trkpt lat="48.6197" lon="1.99921">
        <ele>113.6</ele>
        <time>2023-12-20T13:12:06Z</time>
      </trkpt>
      <trkpt lat="48.61964" lon="1.99921">
        <ele>113.4</ele>
        <time>2023-12-20T13:12:07Z</time>
      </trkpt>
      <trkpt lat="48.61957" lon="1.99921">
        <ele>113.4</ele>
        <time>2023-12-20T13:12:08Z</time>
      </trkpt>
      <trkpt lat="48.6195" lon="1.99921">
        <ele>113.4</ele>
        <time>2023-12-20T13:12:09Z</time>
      </trkpt>
      <trkpt lat="48.61944" lon="1.99921">
        <ele>114</ele>
        <time>2023-12-20T13:12:10Z</time>
      </trkpt>
      <trkpt lat="48.61938" lon="1.99921">
        <ele>114.2</ele>
        <time>2023-12-20T13:12:11Z</time>
      </trkpt>
      <trkpt lat="48.61931" lon="1.99921">
        <ele>114.2</ele>
        <time>2023-12-20T13:12:12Z</time>
      </trkpt>
      <trkpt lat="48.61925" lon="1.99921">
        <ele>114.2</ele>
        <time>2023-12-20T13:12:13Z</time>
      </trkpt>
      <trkpt lat="48.61919" lon="1.99921">
        <ele>114.2</ele>
        <time>2023-12-20T13:12:14Z</time>
      </trkpt>
      <trkpt lat="48.61913" lon="1.99921">
        <ele>114.2</ele>
        <time>2023-12-20T13:12:15Z</time>
      </trkpt>
      <trkpt lat="48.61907" lon="1.99921">
        <ele>114.2</ele>
        <time>2023-12-20T13:12:16Z</time>
      </trkpt>
      <trkpt lat="48.61901" lon="1.99921">
        <ele>114.2</ele>
        <time>2023-12-20T13:12:17Z</time>
      </trkpt>
      <trkpt lat="48.61895" lon="1.99921">
        <ele>114.2</ele>
        <time>2023-12-20T13:12:18Z</time>
      </trkpt>
      <trkpt lat="48.61889" lon="1.99922">
        <ele>114</ele>
        <time>2023-12-20T13:12:19Z</time>
      </trkpt>
      <trkpt lat="48.61883" lon="1.99922">
        <ele>114</ele>
        <time>2023-12-20T13:12:20Z</time>
      </trkpt>
      <trkpt lat="48.61877" lon="1.99923">
        <ele>114</ele>
        <time>2023-12-20T13:12:21Z</time>
      </trkpt>
      <trkpt lat="48.61871" lon="1.99923">
        <ele>114</ele>
        <time>2023-12-20T13:12:22Z</time>
      </trkpt>
      <trkpt lat="48.61866" lon="1.99924">
        <ele>114.8</ele>
        <time>2023-12-20T13:12:23Z</time>
      </trkpt>
      <trkpt lat="48.6186" lon="1.99925">
        <ele>114.8</ele>
        <time>2023-12-20T13:12:24Z</time>
      </trkpt>
      <trkpt lat="48.61855" lon="1.99926">
        <ele>114.8</ele>
        <time>2023-12-20T13:12:25Z</time>
      </trkpt>
      <trkpt lat="48.61849" lon="1.99926">
        <ele>115.4</ele>
        <time>2023-12-20T13:12:26Z</time>
      </trkpt>
      <trkpt lat="48.61844" lon="1.99926">
        <ele>115.8</ele>
        <time>2023-12-20T13:12:27Z</time>
      </trkpt>
      <trkpt lat="48.61838" lon="1.99927">
        <ele>115.8</ele>
        <time>2023-12-20T13:12:28Z</time>
      </trkpt>
      <trkpt lat="48.61833" lon="1.99927">
        <ele>115.8</ele>
        <time>2023-12-20T13:12:29Z</time>
      </trkpt>
      <trkpt lat="48.61827" lon="1.99927">
        <ele>115.4</ele>
        <time>2023-12-20T13:12:30Z</time>
      </trkpt>
      <trkpt lat="48.61822" lon="1.99928">
        <ele>115.4</ele>
        <time>2023-12-20T13:12:31Z</time>
      </trkpt>
      <trkpt lat="48.61817" lon="1.99928">
        <ele>115.4</ele>
        <time>2023-12-20T13:12:32Z</time>
      </trkpt>
      <trkpt lat="48.61811" lon="1.99928">
        <ele>115.4</ele>
        <time>2023-12-20T13:12:33Z</time>
      </trkpt>
      <trkpt lat="48.61806" lon="1.99928">
        <ele>115.4</ele>
        <time>2023-12-20T13:12:34Z</time>
      </trkpt>
      <trkpt lat="48.618" lon="1.99927">
        <ele>115.4</ele>
        <time>2023-12-20T13:12:35Z</time>
      </trkpt>
      <trkpt lat="48.61794" lon="1.99927">
        <ele>115.4</ele>
        <time>2023-12-20T13:12:36Z</time>
      </trkpt>
      <trkpt lat="48.61789" lon="1.99926">
        <ele>115.4</ele>
        <time>2023-12-20T13:12:37Z</time>
      </trkpt>
      <trkpt lat="48.61783" lon="1.99926">
        <ele>115.4</ele>
        <time>2023-12-20T13:12:38Z</time>
      </trkpt>
      <trkpt lat="48.61777" lon="1.99925">
        <ele>116</ele>
        <time>2023-12-20T13:12:39Z</time>
      </trkpt>
      <trkpt lat="48.61772" lon="1.99925">
        <ele>116</ele>
        <time>2023-12-20T13:12:40Z</time>
      </trkpt>
      <trkpt lat="48.61766" lon="1.99924">
        <ele>116</ele>
        <time>2023-12-20T13:12:41Z</time>
      </trkpt>
      <trkpt lat="48.6176" lon="1.99924">
        <ele>117</ele>
        <time>2023-12-20T13:12:42Z</time>
      </trkpt>
      <trkpt lat="48.61755" lon="1.99923">
        <ele>117.6</ele>
        <time>2023-12-20T13:12:43Z</time>
      </trkpt>
      <trkpt lat="48.61749" lon="1.99923">
        <ele>117.6</ele>
        <time>2023-12-20T13:12:44Z</time>
      </trkpt>
      <trkpt lat="48.61743" lon="1.99922">
        <ele>117.6</ele>
        <time>2023-12-20T13:12:45Z</time>
      </trkpt>
      <trkpt lat="48.61737" lon="1.99922">
        <ele>117.2</ele>
        <time>2023-12-20T13:12:46Z</time>
      </trkpt>
      <trkpt lat="48.61731" lon="1.99921">
        <ele>117.2</ele>
        <time>2023-12-20T13:12:47Z</time>
      </trkpt>
      <trkpt lat="48.61725" lon="1.99921">
        <ele>117.2</ele>
        <time>2023-12-20T13:12:48Z</time>
      </trkpt>
      <trkpt lat="48.6172" lon="1.99921">
        <ele>117.2</ele>
        <time>2023-12-20T13:12:49Z</time>
      </trkpt>
      <trkpt lat="48.61714" lon="1.9992">
        <ele>117.4</ele>
        <time>2023-12-20T13:12:50Z</time>
      </trkpt>
      <trkpt lat="48.61708" lon="1.99919">
        <ele>117.2</ele>
        <time>2023-12-20T13:12:51Z</time>
      </trkpt>
      <trkpt lat="48.61702" lon="1.99919">
        <ele>117.2</ele>
        <time>2023-12-20T13:12:52Z</time>
      </trkpt>
      <trkpt lat="48.61696" lon="1.99919">
        <ele>117.2</ele>
        <time>2023-12-20T13:12:53Z</time>
      </trkpt>
      <trkpt lat="48.6169" lon="1.99918">
        <ele>118.2</ele>
        <time>2023-12-20T13:12:54Z</time>
      </trkpt>
      <trkpt lat="48.61685" lon="1.99918">
        <ele>118.6</ele>
        <time>2023-12-20T13:12:55Z</time>
      </trkpt>
      <trkpt lat="48.61679" lon="1.99918">
        <ele>118.6</ele>
        <time>2023-12-20T13:12:56Z</time>
      </trkpt>
      <trkpt lat="48.61673" lon="1.99918">
        <ele>118.6</ele>
        <time>2023-12-20T13:12:57Z</time>
      </trkpt>
      <trkpt lat="48.61667" lon="1.99917">
        <ele>118</ele>
        <time>2023-12-20T13:12:58Z</time>
      </trkpt>
      <trkpt lat="48.61661" lon="1.99918">
        <ele>118.4</ele>
        <time>2023-12-20T13:12:59Z</time>
      </trkpt>
      <trkpt lat="48.61655" lon="1.99919">
        <ele>118.4</ele>
        <time>2023-12-20T13:13:00Z</time>
      </trkpt>
      <trkpt lat="48.6165" lon="1.99919">
        <ele>118.4</ele>
        <time>2023-12-20T13:13:01Z</time>
      </trkpt>
      <trkpt lat="48.61644" lon="1.99918">
        <ele>118.4</ele>
        <time>2023-12-20T13:13:02Z</time>
      </trkpt>
      <trkpt lat="48.61638" lon="1.99918">
        <ele>118.8</ele>
        <time>2023-12-20T13:13:03Z</time>
      </trkpt>
      <trkpt lat="48.61632" lon="1.99917">
        <ele>118.8</ele>
        <time>2023-12-20T13:13:04Z</time>
      </trkpt>
      <trkpt lat="48.61627" lon="1.99917">
        <ele>118.8</ele>
        <time>2023-12-20T13:13:05Z</time>
      </trkpt>
      <trkpt lat="48.61621" lon="1.99916">
        <ele>119.4</ele>
        <time>2023-12-20T13:13:06Z</time>
      </trkpt>
      <trkpt lat="48.61616" lon="1.99916">
        <ele>119.8</ele>
        <time>2023-12-20T13:13:07Z</time>
      </trkpt>
      <trkpt lat="48.61611" lon="1.99916">
        <ele>119.8</ele>
        <time>2023-12-20T13:13:08Z</time>
      </trkpt>
      <trkpt lat="48.61605" lon="1.99915">
        <ele>119.8</ele>
        <time>2023-12-20T13:13:09Z</time>
      </trkpt>
      <trkpt lat="48.616" lon="1.99915">
        <ele>119.6</ele>
        <time>2023-12-20T13:13:10Z</time>
      </trkpt>
      <trkpt lat="48.61594" lon="1.99915">
        <ele>119.6</ele>
        <time>2023-12-20T13:13:11Z</time>
      </trkpt>
      <trkpt lat="48.61588" lon="1.99915">
        <ele>119.6</ele>
        <time>2023-12-20T13:13:12Z</time>
      </trkpt>
      <trkpt lat="48.61583" lon="1.99915">
        <ele>119.6</ele>
        <time>2023-12-20T13:13:13Z</time>
      </trkpt>
      <trkpt lat="48.61577" lon="1.99914">
        <ele>119.6</ele>
        <time>2023-12-20T13:13:14Z</time>
      </trkpt>
      <trkpt lat="48.61572" lon="1.99914">
        <ele>120.4</ele>
        <time>2023-12-20T13:13:15Z</time>
      </trkpt>
      <trkpt lat="48.61567" lon="1.99914">
        <ele>120.4</ele>
        <time>2023-12-20T13:13:16Z</time>
      </trkpt>
      <trkpt lat="48.61562" lon="1.99914">
        <ele>120.4</ele>
        <time>2023-12-20T13:13:17Z</time>
      </trkpt>
      <trkpt lat="48.61558" lon="1.99913">
        <ele>121</ele>
        <time>2023-12-20T13:13:18Z</time>
      </trkpt>
      <trkpt lat="48.61553" lon="1.99912">
        <ele>120.8</ele>
        <time>2023-12-20T13:13:19Z</time>
      </trkpt>
      <trkpt lat="48.61548" lon="1.99912">
        <ele>120.8</ele>
        <time>2023-12-20T13:13:20Z</time>
      </trkpt>
      <trkpt lat="48.61543" lon="1.99911">
        <ele>120.8</ele>
        <time>2023-12-20T13:13:21Z</time>
      </trkpt>
      <trkpt lat="48.61538" lon="1.99911">
        <ele>121.4</ele>
        <time>2023-12-20T13:13:22Z</time>
      </trkpt>
      <trkpt lat="48.61533" lon="1.99911">
        <ele>121.6</ele>
        <time>2023-12-20T13:13:23Z</time>
      </trkpt>
      <trkpt lat="48.61528" lon="1.9991">
        <ele>121.6</ele>
        <time>2023-12-20T13:13:24Z</time>
      </trkpt>
      <trkpt lat="48.61523" lon="1.99909">
        <ele>121.6</ele>
        <time>2023-12-20T13:13:25Z</time>
      </trkpt>
      <trkpt lat="48.61518" lon="1.99909">
        <ele>122.4</ele>
        <time>2023-12-20T13:13:26Z</time>
      </trkpt>
      <trkpt lat="48.61513" lon="1.99908">
        <ele>122.8</ele>
        <time>2023-12-20T13:13:27Z</time>
      </trkpt>
      <trkpt lat="48.61509" lon="1.99908">
        <ele>122.8</ele>
        <time>2023-12-20T13:13:28Z</time>
      </trkpt>
      <trkpt lat="48.61505" lon="1.99907">
        <ele>122.8</ele>
        <time>2023-12-20T13:13:29Z</time>
      </trkpt>
      <trkpt lat="48.615" lon="1.99907">
        <ele>123.8</ele>
        <time>2023-12-20T13:13:30Z</time>
      </trkpt>
      <trkpt lat="48.61496" lon="1.99907">
        <ele>124.2</ele>
        <time>2023-12-20T13:13:31Z</time>
      </trkpt>
      <trkpt lat="48.61492" lon="1.99905">
        <ele>124.2</ele>
        <time>2023-12-20T13:13:32Z</time>
      </trkpt>
      <trkpt lat="48.61488" lon="1.99904">
        <ele>124.2</ele>
        <time>2023-12-20T13:13:33Z</time>
      </trkpt>
      <trkpt lat="48.61484" lon="1.99903">
        <ele>124.8</ele>
        <time>2023-12-20T13:13:34Z</time>
      </trkpt>
      <trkpt lat="48.6148" lon="1.99902">
        <ele>125</ele>
        <time>2023-12-20T13:13:35Z</time>
      </trkpt>
      <trkpt lat="48.61476" lon="1.99901">
        <ele>125</ele>
        <time>2023-12-20T13:13:36Z</time>
      </trkpt>
      <trkpt lat="48.61472" lon="1.999">
        <ele>125</ele>
        <time>2023-12-20T13:13:37Z</time>
      </trkpt>
      <trkpt lat="48.61468" lon="1.99899">
        <ele>126</ele>
        <time>2023-12-20T13:13:38Z</time>
      </trkpt>
      <trkpt lat="48.61465" lon="1.99897">
        <ele>126.4</ele>
        <time>2023-12-20T13:13:39Z</time>
      </trkpt>
      <trkpt lat="48.61461" lon="1.99896">
        <ele>126.4</ele>
        <time>2023-12-20T13:13:40Z</time>
      </trkpt>
      <trkpt lat="48.61458" lon="1.99895">
        <ele>126.4</ele>
        <time>2023-12-20T13:13:41Z</time>
      </trkpt>
      <trkpt lat="48.61454" lon="1.99894">
        <ele>126.4</ele>
        <time>2023-12-20T13:13:42Z</time>
      </trkpt>
      <trkpt lat="48.61451" lon="1.99892">
        <ele>127</ele>
        <time>2023-12-20T13:13:43Z</time>
      </trkpt>
      <trkpt lat="48.61447" lon="1.99891">
        <ele>127</ele>
        <time>2023-12-20T13:13:44Z</time>
      </trkpt>
      <trkpt lat="48.61443" lon="1.9989">
        <ele>127</ele>
        <time>2023-12-20T13:13:45Z</time>
      </trkpt>
      <trkpt lat="48.61439" lon="1.99888">
        <ele>128</ele>
        <time>2023-12-20T13:13:46Z</time>
      </trkpt>
      <trkpt lat="48.61436" lon="1.99887">
        <ele>128.6</ele>
        <time>2023-12-20T13:13:47Z</time>
      </trkpt>
      <trkpt lat="48.61431" lon="1.99885">
        <ele>128.6</ele>
        <time>2023-12-20T13:13:48Z</time>
      </trkpt>
      <trkpt lat="48.61428" lon="1.99883">
        <ele>128.6</ele>
        <time>2023-12-20T13:13:49Z</time>
      </trkpt>
      <trkpt lat="48.61425" lon="1.99882">
        <ele>129</ele>
        <time>2023-12-20T13:13:50Z</time>
      </trkpt>
      <trkpt lat="48.61421" lon="1.99881">
        <ele>129.4</ele>
        <time>2023-12-20T13:13:51Z</time>
      </trkpt>
      <trkpt lat="48.61418" lon="1.99879">
        <ele>129.4</ele>
        <time>2023-12-20T13:13:52Z</time>
      </trkpt>
      <trkpt lat="48.61415" lon="1.99878">
        <ele>129.4</ele>
        <time>2023-12-20T13:13:53Z</time>
      </trkpt>
      <trkpt lat="48.61413" lon="1.99877">
        <ele>129.4</ele>
        <time>2023-12-20T13:13:54Z</time>
      </trkpt>
      <trkpt lat="48.6141" lon="1.99876">
        <ele>129.4</ele>
        <time>2023-12-20T13:13:55Z</time>
      </trkpt>
      <trkpt lat="48.61407" lon="1.99874">
        <ele>129.4</ele>
        <time>2023-12-20T13:13:56Z</time>
      </trkpt>
      <trkpt lat="48.61404" lon="1.99873">
        <ele>129.4</ele>
        <time>2023-12-20T13:13:57Z</time>
      </trkpt>
      <trkpt lat="48.61401" lon="1.99872">
        <ele>129.8</ele>
        <time>2023-12-20T13:13:58Z</time>
      </trkpt>
      <trkpt lat="48.61397" lon="1.99871">
        <ele>129.8</ele>
        <time>2023-12-20T13:13:59Z</time>
      </trkpt>
      <trkpt lat="48.61393" lon="1.99869">
        <ele>129.8</ele>
        <time>2023-12-20T13:14:00Z</time>
      </trkpt>
      <trkpt lat="48.61389" lon="1.99869">
        <ele>129.8</ele>
        <time>2023-12-20T13:14:01Z</time>
      </trkpt>
      <trkpt lat="48.61386" lon="1.99868">
        <ele>130.4</ele>
        <time>2023-12-20T13:14:02Z</time>
      </trkpt>
      <trkpt lat="48.61383" lon="1.99867">
        <ele>130.2</ele>
        <time>2023-12-20T13:14:03Z</time>
      </trkpt>
      <trkpt lat="48.6138" lon="1.99867">
        <ele>130.2</ele>
        <time>2023-12-20T13:14:04Z</time>
      </trkpt>
      <trkpt lat="48.61378" lon="1.99867">
        <ele>130.2</ele>
        <time>2023-12-20T13:14:05Z</time>
      </trkpt>
      <trkpt lat="48.61375" lon="1.99866">
        <ele>130.2</ele>
        <time>2023-12-20T13:14:06Z</time>
      </trkpt>
      <trkpt lat="48.61373" lon="1.99865">
        <ele>130.4</ele>
        <time>2023-12-20T13:14:07Z</time>
      </trkpt>
      <trkpt lat="48.6137" lon="1.99865">
        <ele>130.4</ele>
        <time>2023-12-20T13:14:08Z</time>
      </trkpt>
      <trkpt lat="48.61368" lon="1.99865">
        <ele>130.4</ele>
        <time>2023-12-20T13:14:09Z</time>
      </trkpt>
      <trkpt lat="48.61366" lon="1.99864">
        <ele>130.6</ele>
        <time>2023-12-20T13:14:10Z</time>
      </trkpt>
      <trkpt lat="48.61364" lon="1.99864">
        <ele>130.2</ele>
        <time>2023-12-20T13:14:11Z</time>
      </trkpt>
      <trkpt lat="48.61362" lon="1.99864">
        <ele>130.2</ele>
        <time>2023-12-20T13:14:12Z</time>
      </trkpt>
      <trkpt lat="48.6136" lon="1.99864">
        <ele>130.2</ele>
        <time>2023-12-20T13:14:13Z</time>
      </trkpt>
      <trkpt lat="48.61358" lon="1.99864">
        <ele>130.2</ele>
        <time>2023-12-20T13:14:14Z</time>
      </trkpt>
      <trkpt lat="48.61354" lon="1.99864">
        <ele>130</ele>
        <time>2023-12-20T13:14:15Z</time>
      </trkpt>
      <trkpt lat="48.61351" lon="1.99863">
        <ele>130</ele>
        <time>2023-12-20T13:14:16Z</time>
      </trkpt>
      <trkpt lat="48.61348" lon="1.99861">
        <ele>130</ele>
        <time>2023-12-20T13:14:17Z</time>
      </trkpt>
      <trkpt lat="48.61344" lon="1.99859">
        <ele>130</ele>
        <time>2023-12-20T13:14:18Z</time>
      </trkpt>
      <trkpt lat="48.61339" lon="1.99857">
        <ele>129.8</ele>
        <time>2023-12-20T13:14:19Z</time>
      </trkpt>
      <trkpt lat="48.61334" lon="1.99856">
        <ele>129.8</ele>
        <time>2023-12-20T13:14:20Z</time>
      </trkpt>
      <trkpt lat="48.6133" lon="1.99855">
        <ele>129.8</ele>
        <time>2023-12-20T13:14:21Z</time>
      </trkpt>
      <trkpt lat="48.61325" lon="1.99854">
        <ele>129.6</ele>
        <time>2023-12-20T13:14:22Z</time>
      </trkpt>
      <trkpt lat="48.6132" lon="1.99853">
        <ele>129.6</ele>
        <time>2023-12-20T13:14:23Z</time>
      </trkpt>
      <trkpt lat="48.61316" lon="1.99852">
        <ele>129.6</ele>
        <time>2023-12-20T13:14:24Z</time>
      </trkpt>
      <trkpt lat="48.61311" lon="1.99852">
        <ele>129.6</ele>
        <time>2023-12-20T13:14:25Z</time>
      </trkpt>
      <trkpt lat="48.61307" lon="1.9985">
        <ele>128.6</ele>
        <time>2023-12-20T13:14:26Z</time>
      </trkpt>
      <trkpt lat="48.61303" lon="1.99849">
        <ele>128</ele>
        <time>2023-12-20T13:14:27Z</time>
      </trkpt>
      <trkpt lat="48.61298" lon="1.99848">
        <ele>128</ele>
        <time>2023-12-20T13:14:28Z</time>
      </trkpt>
      <trkpt lat="48.61293" lon="1.99847">
        <ele>128</ele>
        <time>2023-12-20T13:14:29Z</time>
      </trkpt>
      <trkpt lat="48.61288" lon="1.99846">
        <ele>128</ele>
        <time>2023-12-20T13:14:30Z</time>
      </trkpt>
      <trkpt lat="48.61284" lon="1.99844">
        <ele>128.6</ele>
        <time>2023-12-20T13:14:31Z</time>
      </trkpt>
      <trkpt lat="48.6128" lon="1.99843">
        <ele>128.6</ele>
        <time>2023-12-20T13:14:32Z</time>
      </trkpt>
      <trkpt lat="48.61278" lon="1.99843">
        <ele>128.6</ele>
        <time>2023-12-20T13:14:33Z</time>
      </trkpt>
      <trkpt lat="48.61276" lon="1.99842">
        <ele>129</ele>
        <time>2023-12-20T13:14:34Z</time>
      </trkpt>
      <trkpt lat="48.61274" lon="1.99842">
        <ele>129</ele>
        <time>2023-12-20T13:14:35Z</time>
      </trkpt>
      <trkpt lat="48.61256" lon="1.99847">
        <ele>127.6</ele>
        <time>2023-12-20T13:16:42Z</time>
      </trkpt>
      <trkpt lat="48.61255" lon="1.99846">
        <ele>127.2</ele>
        <time>2023-12-20T13:16:43Z</time>
      </trkpt>
      <trkpt lat="48.61254" lon="1.99844">
        <ele>127.2</ele>
        <time>2023-12-20T13:16:44Z</time>
      </trkpt>
      <trkpt lat="48.61252" lon="1.99842">
        <ele>127.2</ele>
        <time>2023-12-20T13:16:45Z</time>
      </trkpt>
      <trkpt lat="48.61251" lon="1.9984">
        <ele>127.2</ele>
        <time>2023-12-20T13:16:46Z</time>
      </trkpt>
      <trkpt lat="48.6125" lon="1.99838">
        <ele>126.4</ele>
        <time>2023-12-20T13:16:47Z</time>
      </trkpt>
      <trkpt lat="48.61247" lon="1.99835">
        <ele>126.4</ele>
        <time>2023-12-20T13:16:48Z</time>
      </trkpt>
      <trkpt lat="48.61244" lon="1.99831">
        <ele>126.4</ele>
        <time>2023-12-20T13:16:49Z</time>
      </trkpt>
      <trkpt lat="48.61241" lon="1.99827">
        <ele>126.4</ele>
        <time>2023-12-20T13:16:50Z</time>
      </trkpt>
      <trkpt lat="48.61237" lon="1.99823">
        <ele>125.4</ele>
        <time>2023-12-20T13:16:51Z</time>
      </trkpt>
      <trkpt lat="48.61233" lon="1.99819">
        <ele>125.4</ele>
        <time>2023-12-20T13:16:52Z</time>
      </trkpt>
      <trkpt lat="48.61228" lon="1.99815">
        <ele>125.4</ele>
        <time>2023-12-20T13:16:53Z</time>
      </trkpt>
      <trkpt lat="48.61222" lon="1.99811">
        <ele>125.4</ele>
        <time>2023-12-20T13:16:54Z</time>
      </trkpt>
      <trkpt lat="48.61218" lon="1.99807">
        <ele>125.8</ele>
        <time>2023-12-20T13:16:55Z</time>
      </trkpt>
      <trkpt lat="48.61213" lon="1.99802">
        <ele>125.8</ele>
        <time>2023-12-20T13:16:56Z</time>
      </trkpt>
      <trkpt lat="48.61208" lon="1.99798">
        <ele>125.8</ele>
        <time>2023-12-20T13:16:57Z</time>
      </trkpt>
      <trkpt lat="48.61203" lon="1.99793">
        <ele>125.4</ele>
        <time>2023-12-20T13:16:58Z</time>
      </trkpt>
      <trkpt lat="48.61198" lon="1.99788">
        <ele>125</ele>
        <time>2023-12-20T13:16:59Z</time>
      </trkpt>
      <trkpt lat="48.61193" lon="1.99784">
        <ele>125</ele>
        <time>2023-12-20T13:17:00Z</time>
      </trkpt>
      <trkpt lat="48.61188" lon="1.9978">
        <ele>125</ele>
        <time>2023-12-20T13:17:01Z</time>
      </trkpt>
      <trkpt lat="48.61183" lon="1.99776">
        <ele>125</ele>
        <time>2023-12-20T13:17:02Z</time>
      </trkpt>
      <trkpt lat="48.61178" lon="1.99773">
        <ele>124.6</ele>
        <time>2023-12-20T13:17:03Z</time>
      </trkpt>
      <trkpt lat="48.61172" lon="1.99769">
        <ele>124.6</ele>
        <time>2023-12-20T13:17:04Z</time>
      </trkpt>
      <trkpt lat="48.61166" lon="1.99766">
        <ele>124.6</ele>
        <time>2023-12-20T13:17:05Z</time>
      </trkpt>
      <trkpt lat="48.61161" lon="1.99764">
        <ele>124.6</ele>
        <time>2023-12-20T13:17:06Z</time>
      </trkpt>
      <trkpt lat="48.61156" lon="1.9976">
        <ele>125.6</ele>
        <time>2023-12-20T13:17:07Z</time>
      </trkpt>
      <trkpt lat="48.61151" lon="1.99757">
        <ele>125.6</ele>
        <time>2023-12-20T13:17:08Z</time>
      </trkpt>
      <trkpt lat="48.61146" lon="1.99755">
        <ele>125.6</ele>
        <time>2023-12-20T13:17:09Z</time>
      </trkpt>
      <trkpt lat="48.61141" lon="1.99752">
        <ele>126.6</ele>
        <time>2023-12-20T13:17:10Z</time>
      </trkpt>
      <trkpt lat="48.61135" lon="1.9975">
        <ele>127</ele>
        <time>2023-12-20T13:17:11Z</time>
      </trkpt>
      <trkpt lat="48.61129" lon="1.99749">
        <ele>127</ele>
        <time>2023-12-20T13:17:12Z</time>
      </trkpt>
      <trkpt lat="48.61123" lon="1.99747">
        <ele>127</ele>
        <time>2023-12-20T13:17:13Z</time>
      </trkpt>
      <trkpt lat="48.61117" lon="1.99746">
        <ele>127</ele>
        <time>2023-12-20T13:17:14Z</time>
      </trkpt>
      <trkpt lat="48.6111" lon="1.99744">
        <ele>126.4</ele>
        <time>2023-12-20T13:17:15Z</time>
      </trkpt>
      <trkpt lat="48.61105" lon="1.99743">
        <ele>126.4</ele>
        <time>2023-12-20T13:17:16Z</time>
      </trkpt>
      <trkpt lat="48.61099" lon="1.99741">
        <ele>126.4</ele>
        <time>2023-12-20T13:17:17Z</time>
      </trkpt>
      <trkpt lat="48.61092" lon="1.99741">
        <ele>127.2</ele>
        <time>2023-12-20T13:17:18Z</time>
      </trkpt>
      <trkpt lat="48.61086" lon="1.99739">
        <ele>127</ele>
        <time>2023-12-20T13:17:19Z</time>
      </trkpt>
      <trkpt lat="48.6108" lon="1.99739">
        <ele>127</ele>
        <time>2023-12-20T13:17:20Z</time>
      </trkpt>
      <trkpt lat="48.61073" lon="1.99738">
        <ele>127</ele>
        <time>2023-12-20T13:17:21Z</time>
      </trkpt>
      <trkpt lat="48.61066" lon="1.99737">
        <ele>126.8</ele>
        <time>2023-12-20T13:17:22Z</time>
      </trkpt>
      <trkpt lat="48.6106" lon="1.99738">
        <ele>126.6</ele>
        <time>2023-12-20T13:17:23Z</time>
      </trkpt>
      <trkpt lat="48.61053" lon="1.99738">
        <ele>126.6</ele>
        <time>2023-12-20T13:17:24Z</time>
      </trkpt>
      <trkpt lat="48.61047" lon="1.99736">
        <ele>126.6</ele>
        <time>2023-12-20T13:17:25Z</time>
      </trkpt>
      <trkpt lat="48.6104" lon="1.99736">
        <ele>126.4</ele>
        <time>2023-12-20T13:17:26Z</time>
      </trkpt>
      <trkpt lat="48.61033" lon="1.99736">
        <ele>126</ele>
        <time>2023-12-20T13:17:27Z</time>
      </trkpt>
      <trkpt lat="48.61026" lon="1.99736">
        <ele>126</ele>
        <time>2023-12-20T13:17:28Z</time>
      </trkpt>
      <trkpt lat="48.61019" lon="1.99735">
        <ele>126</ele>
        <time>2023-12-20T13:17:29Z</time>
      </trkpt>
      <trkpt lat="48.61012" lon="1.99734">
        <ele>125</ele>
        <time>2023-12-20T13:17:30Z</time>
      </trkpt>
      <trkpt lat="48.61006" lon="1.99734">
        <ele>123.8</ele>
        <time>2023-12-20T13:17:31Z</time>
      </trkpt>
      <trkpt lat="48.60999" lon="1.99734">
        <ele>123.8</ele>
        <time>2023-12-20T13:17:32Z</time>
      </trkpt>
      <trkpt lat="48.60992" lon="1.99734">
        <ele>123.8</ele>
        <time>2023-12-20T13:17:33Z</time>
      </trkpt>
      <trkpt lat="48.60985" lon="1.99733">
        <ele>123.8</ele>
        <time>2023-12-20T13:17:34Z</time>
      </trkpt>
      <trkpt lat="48.60978" lon="1.99732">
        <ele>122.6</ele>
        <time>2023-12-20T13:17:35Z</time>
      </trkpt>
      <trkpt lat="48.60971" lon="1.99732">
        <ele>122.6</ele>
        <time>2023-12-20T13:17:36Z</time>
      </trkpt>
      <trkpt lat="48.60964" lon="1.99731">
        <ele>122.6</ele>
        <time>2023-12-20T13:17:37Z</time>
      </trkpt>
      <trkpt lat="48.60957" lon="1.9973">
        <ele>123.6</ele>
        <time>2023-12-20T13:17:38Z</time>
      </trkpt>
      <trkpt lat="48.6095" lon="1.99729">
        <ele>123.8</ele>
        <time>2023-12-20T13:17:39Z</time>
      </trkpt>
      <trkpt lat="48.60943" lon="1.99727">
        <ele>123.8</ele>
        <time>2023-12-20T13:17:40Z</time>
      </trkpt>
      <trkpt lat="48.60936" lon="1.99725">
        <ele>123.8</ele>
        <time>2023-12-20T13:17:41Z</time>
      </trkpt>
      <trkpt lat="48.60928" lon="1.99725">
        <ele>123.2</ele>
        <time>2023-12-20T13:17:42Z</time>
      </trkpt>
      <trkpt lat="48.6092" lon="1.99723">
        <ele>121.4</ele>
        <time>2023-12-20T13:17:43Z</time>
      </trkpt>
      <trkpt lat="48.60912" lon="1.99723">
        <ele>121.4</ele>
        <time>2023-12-20T13:17:44Z</time>
      </trkpt>
      <trkpt lat="48.60904" lon="1.99722">
        <ele>121.4</ele>
        <time>2023-12-20T13:17:45Z</time>
      </trkpt>
      <trkpt lat="48.60896" lon="1.9972">
        <ele>121.4</ele>
        <time>2023-12-20T13:17:46Z</time>
      </trkpt>
      <trkpt lat="48.60888" lon="1.99718">
        <ele>121.2</ele>
        <time>2023-12-20T13:17:47Z</time>
      </trkpt>
      <trkpt lat="48.6088" lon="1.99716">
        <ele>121.2</ele>
        <time>2023-12-20T13:17:48Z</time>
      </trkpt>
      <trkpt lat="48.60872" lon="1.99714">
        <ele>121.2</ele>
        <time>2023-12-20T13:17:49Z</time>
      </trkpt>
      <trkpt lat="48.60864" lon="1.99713">
        <ele>120.2</ele>
        <time>2023-12-20T13:17:50Z</time>
      </trkpt>
      <trkpt lat="48.60857" lon="1.99711">
        <ele>120.2</ele>
        <time>2023-12-20T13:17:51Z</time>
      </trkpt>
      <trkpt lat="48.60849" lon="1.99709">
        <ele>120.2</ele>
        <time>2023-12-20T13:17:52Z</time>
      </trkpt>
      <trkpt lat="48.60842" lon="1.99706">
        <ele>120.2</ele>
        <time>2023-12-20T13:17:53Z</time>
      </trkpt>
      <trkpt lat="48.60834" lon="1.99704">
        <ele>121.2</ele>
        <time>2023-12-20T13:17:54Z</time>
      </trkpt>
      <trkpt lat="48.60827" lon="1.99702">
        <ele>120.2</ele>
        <time>2023-12-20T13:17:55Z</time>
      </trkpt>
      <trkpt lat="48.60819" lon="1.997">
        <ele>120.2</ele>
        <time>2023-12-20T13:17:56Z</time>
      </trkpt>
      <trkpt lat="48.60812" lon="1.99697">
        <ele>120.2</ele>
        <time>2023-12-20T13:17:57Z</time>
      </trkpt>
      <trkpt lat="48.60804" lon="1.99695">
        <ele>119.2</ele>
        <time>2023-12-20T13:17:58Z</time>
      </trkpt>
      <trkpt lat="48.60795" lon="1.99693">
        <ele>119.4</ele>
        <time>2023-12-20T13:17:59Z</time>
      </trkpt>
      <trkpt lat="48.60787" lon="1.9969">
        <ele>119.4</ele>
        <time>2023-12-20T13:18:00Z</time>
      </trkpt>
      <trkpt lat="48.6078" lon="1.99687">
        <ele>119.4</ele>
        <time>2023-12-20T13:18:01Z</time>
      </trkpt>
      <trkpt lat="48.60772" lon="1.99684">
        <ele>119.4</ele>
        <time>2023-12-20T13:18:02Z</time>
      </trkpt>
      <trkpt lat="48.60764" lon="1.99681">
        <ele>119.8</ele>
        <time>2023-12-20T13:18:03Z</time>
      </trkpt>
      <trkpt lat="48.60756" lon="1.99678">
        <ele>119.8</ele>
        <time>2023-12-20T13:18:04Z</time>
      </trkpt>
      <trkpt lat="48.60748" lon="1.99674">
        <ele>119.8</ele>
        <time>2023-12-20T13:18:05Z</time>
      </trkpt>
      <trkpt lat="48.6074" lon="1.99672">
        <ele>119</ele>
        <time>2023-12-20T13:18:06Z</time>
      </trkpt>
      <trkpt lat="48.60733" lon="1.99668">
        <ele>119</ele>
        <time>2023-12-20T13:18:07Z</time>
      </trkpt>
      <trkpt lat="48.60725" lon="1.99664">
        <ele>119</ele>
        <time>2023-12-20T13:18:08Z</time>
      </trkpt>
      <trkpt lat="48.60718" lon="1.99661">
        <ele>119</ele>
        <time>2023-12-20T13:18:09Z</time>
      </trkpt>
      <trkpt lat="48.6071" lon="1.99658">
        <ele>118</ele>
        <time>2023-12-20T13:18:10Z</time>
      </trkpt>
      <trkpt lat="48.60703" lon="1.99655">
        <ele>118.2</ele>
        <time>2023-12-20T13:18:11Z</time>
      </trkpt>
      <trkpt lat="48.60695" lon="1.99651">
        <ele>118.2</ele>
        <time>2023-12-20T13:18:12Z</time>
      </trkpt>
      <trkpt lat="48.60687" lon="1.99648">
        <ele>118.2</ele>
        <time>2023-12-20T13:18:13Z</time>
      </trkpt>
      <trkpt lat="48.6068" lon="1.99645">
        <ele>117.2</ele>
        <time>2023-12-20T13:18:14Z</time>
      </trkpt>
      <trkpt lat="48.60672" lon="1.99642">
        <ele>116</ele>
        <time>2023-12-20T13:18:15Z</time>
      </trkpt>
      <trkpt lat="48.60664" lon="1.99639">
        <ele>116</ele>
        <time>2023-12-20T13:18:16Z</time>
      </trkpt>
      <trkpt lat="48.60656" lon="1.99636">
        <ele>116</ele>
        <time>2023-12-20T13:18:17Z</time>
      </trkpt>
      <trkpt lat="48.60648" lon="1.99633">
        <ele>117</ele>
        <time>2023-12-20T13:18:18Z</time>
      </trkpt>
      <trkpt lat="48.6064" lon="1.99631">
        <ele>115.6</ele>
        <time>2023-12-20T13:18:19Z</time>
      </trkpt>
      <trkpt lat="48.60632" lon="1.99628">
        <ele>115.6</ele>
        <time>2023-12-20T13:18:20Z</time>
      </trkpt>
      <trkpt lat="48.60624" lon="1.99627">
        <ele>115.6</ele>
        <time>2023-12-20T13:18:21Z</time>
      </trkpt>
      <trkpt lat="48.60617" lon="1.99625">
        <ele>114.6</ele>
        <time>2023-12-20T13:18:22Z</time>
      </trkpt>
      <trkpt lat="48.60609" lon="1.99623">
        <ele>114.8</ele>
        <time>2023-12-20T13:18:23Z</time>
      </trkpt>
      <trkpt lat="48.60601" lon="1.99623">
        <ele>114.8</ele>
        <time>2023-12-20T13:18:24Z</time>
      </trkpt>
      <trkpt lat="48.60593" lon="1.99622">
        <ele>114.8</ele>
        <time>2023-12-20T13:18:25Z</time>
      </trkpt>
      <trkpt lat="48.60586" lon="1.99621">
        <ele>114.8</ele>
        <time>2023-12-20T13:18:26Z</time>
      </trkpt>
      <trkpt lat="48.60578" lon="1.99621">
        <ele>113</ele>
        <time>2023-12-20T13:18:27Z</time>
      </trkpt>
      <trkpt lat="48.6057" lon="1.99621">
        <ele>113</ele>
        <time>2023-12-20T13:18:28Z</time>
      </trkpt>
      <trkpt lat="48.60562" lon="1.9962">
        <ele>113</ele>
        <time>2023-12-20T13:18:29Z</time>
      </trkpt>
      <trkpt lat="48.60554" lon="1.9962">
        <ele>113</ele>
        <time>2023-12-20T13:18:30Z</time>
      </trkpt>
      <trkpt lat="48.60545" lon="1.99619">
        <ele>111.4</ele>
        <time>2023-12-20T13:18:31Z</time>
      </trkpt>
      <trkpt lat="48.60536" lon="1.99621">
        <ele>111.4</ele>
        <time>2023-12-20T13:18:32Z</time>
      </trkpt>
      <trkpt lat="48.60527" lon="1.99622">
        <ele>111.4</ele>
        <time>2023-12-20T13:18:33Z</time>
      </trkpt>
      <trkpt lat="48.60516" lon="1.99623">
        <ele>110.4</ele>
        <time>2023-12-20T13:18:34Z</time>
      </trkpt>
      <trkpt lat="48.60507" lon="1.99623">
        <ele>109.2</ele>
        <time>2023-12-20T13:18:35Z</time>
      </trkpt>
      <trkpt lat="48.60498" lon="1.99624">
        <ele>109.2</ele>
        <time>2023-12-20T13:18:36Z</time>
      </trkpt>
      <trkpt lat="48.60488" lon="1.99626">
        <ele>109.2</ele>
        <time>2023-12-20T13:18:37Z</time>
      </trkpt>
      <trkpt lat="48.60478" lon="1.99625">
        <ele>109.2</ele>
        <time>2023-12-20T13:18:38Z</time>
      </trkpt>
      <trkpt lat="48.60467" lon="1.99625">
        <ele>107.2</ele>
        <time>2023-12-20T13:18:39Z</time>
      </trkpt>
      <trkpt lat="48.60457" lon="1.99624">
        <ele>107.2</ele>
        <time>2023-12-20T13:18:40Z</time>
      </trkpt>
      <trkpt lat="48.60447" lon="1.99622">
        <ele>107.2</ele>
        <time>2023-12-20T13:18:41Z</time>
      </trkpt>
      <trkpt lat="48.60436" lon="1.99619">
        <ele>107.2</ele>
        <time>2023-12-20T13:18:42Z</time>
      </trkpt>
      <trkpt lat="48.60426" lon="1.99614">
        <ele>105</ele>
        <time>2023-12-20T13:18:43Z</time>
      </trkpt>
      <trkpt lat="48.60417" lon="1.99608">
        <ele>105</ele>
        <time>2023-12-20T13:18:44Z</time>
      </trkpt>
      <trkpt lat="48.60407" lon="1.99601">
        <ele>105</ele>
        <time>2023-12-20T13:18:45Z</time>
      </trkpt>
      <trkpt lat="48.60397" lon="1.99595">
        <ele>104</ele>
        <time>2023-12-20T13:18:46Z</time>
      </trkpt>
      <trkpt lat="48.60387" lon="1.99586">
        <ele>103.2</ele>
        <time>2023-12-20T13:18:47Z</time>
      </trkpt>
      <trkpt lat="48.60378" lon="1.99578">
        <ele>103.2</ele>
        <time>2023-12-20T13:18:48Z</time>
      </trkpt>
      <trkpt lat="48.60369" lon="1.9957">
        <ele>103.2</ele>
        <time>2023-12-20T13:18:49Z</time>
      </trkpt>
      <trkpt lat="48.6036" lon="1.99562">
        <ele>102.2</ele>
        <time>2023-12-20T13:18:50Z</time>
      </trkpt>
      <trkpt lat="48.60352" lon="1.99552">
        <ele>100.2</ele>
        <time>2023-12-20T13:18:51Z</time>
      </trkpt>
      <trkpt lat="48.60345" lon="1.99543">
        <ele>100.2</ele>
        <time>2023-12-20T13:18:52Z</time>
      </trkpt>
      <trkpt lat="48.60336" lon="1.99534">
        <ele>100.2</ele>
        <time>2023-12-20T13:18:53Z</time>
      </trkpt>
      <trkpt lat="48.60328" lon="1.99526">
        <ele>100.2</ele>
        <time>2023-12-20T13:18:54Z</time>
      </trkpt>
      <trkpt lat="48.6032" lon="1.99518">
        <ele>99.8</ele>
        <time>2023-12-20T13:18:55Z</time>
      </trkpt>
      <trkpt lat="48.60312" lon="1.9951">
        <ele>99.8</ele>
        <time>2023-12-20T13:18:56Z</time>
      </trkpt>
      <trkpt lat="48.60304" lon="1.99504">
        <ele>99.8</ele>
        <time>2023-12-20T13:18:57Z</time>
      </trkpt>
      <trkpt lat="48.60297" lon="1.99495">
        <ele>99.8</ele>
        <time>2023-12-20T13:18:58Z</time>
      </trkpt>
      <trkpt lat="48.6029" lon="1.99487">
        <ele>100.4</ele>
        <time>2023-12-20T13:18:59Z</time>
      </trkpt>
      <trkpt lat="48.60283" lon="1.99479">
        <ele>100.4</ele>
        <time>2023-12-20T13:19:00Z</time>
      </trkpt>
      <trkpt lat="48.60276" lon="1.99471">
        <ele>100.4</ele>
        <time>2023-12-20T13:19:01Z</time>
      </trkpt>
      <trkpt lat="48.60268" lon="1.99463">
        <ele>100.4</ele>
        <time>2023-12-20T13:19:02Z</time>
      </trkpt>
      <trkpt lat="48.60261" lon="1.99455">
        <ele>100.4</ele>
        <time>2023-12-20T13:19:03Z</time>
      </trkpt>
      <trkpt lat="48.60254" lon="1.99447">
        <ele>100.4</ele>
        <time>2023-12-20T13:19:04Z</time>
      </trkpt>
      <trkpt lat="48.60247" lon="1.9944">
        <ele>100.4</ele>
        <time>2023-12-20T13:19:05Z</time>
      </trkpt>
      <trkpt lat="48.6024" lon="1.99433">
        <ele>100.4</ele>
        <time>2023-12-20T13:19:06Z</time>
      </trkpt>
      <trkpt lat="48.60234" lon="1.99427">
        <ele>98.8</ele>
        <time>2023-12-20T13:19:07Z</time>
      </trkpt>
      <trkpt lat="48.60227" lon="1.99422">
        <ele>98.8</ele>
        <time>2023-12-20T13:19:08Z</time>
      </trkpt>
      <trkpt lat="48.6022" lon="1.99416">
        <ele>98.8</ele>
        <time>2023-12-20T13:19:09Z</time>
      </trkpt>
      <trkpt lat="48.60213" lon="1.99411">
        <ele>99.8</ele>
        <time>2023-12-20T13:19:10Z</time>
      </trkpt>
      <trkpt lat="48.60206" lon="1.99406">
        <ele>101.2</ele>
        <time>2023-12-20T13:19:11Z</time>
      </trkpt>
      <trkpt lat="48.60199" lon="1.99401">
        <ele>101.2</ele>
        <time>2023-12-20T13:19:12Z</time>
      </trkpt>
      <trkpt lat="48.60193" lon="1.99397">
        <ele>101.2</ele>
        <time>2023-12-20T13:19:13Z</time>
      </trkpt>
      <trkpt lat="48.60186" lon="1.99393">
        <ele>101.8</ele>
        <time>2023-12-20T13:19:14Z</time>
      </trkpt>
      <trkpt lat="48.60179" lon="1.9939">
        <ele>101.8</ele>
        <time>2023-12-20T13:19:15Z</time>
      </trkpt>
      <trkpt lat="48.60172" lon="1.99387">
        <ele>101.8</ele>
        <time>2023-12-20T13:19:16Z</time>
      </trkpt>
      <trkpt lat="48.60166" lon="1.99384">
        <ele>101.8</ele>
        <time>2023-12-20T13:19:17Z</time>
      </trkpt>
      <trkpt lat="48.60159" lon="1.99381">
        <ele>102.8</ele>
        <time>2023-12-20T13:19:18Z</time>
      </trkpt>
      <trkpt lat="48.60152" lon="1.9938">
        <ele>102.2</ele>
        <time>2023-12-20T13:19:19Z</time>
      </trkpt>
      <trkpt lat="48.60146" lon="1.99378">
        <ele>102.2</ele>
        <time>2023-12-20T13:19:20Z</time>
      </trkpt>
      <trkpt lat="48.60139" lon="1.99376">
        <ele>102.2</ele>
        <time>2023-12-20T13:19:21Z</time>
      </trkpt>
      <trkpt lat="48.60133" lon="1.99375">
        <ele>102.2</ele>
        <time>2023-12-20T13:19:22Z</time>
      </trkpt>
      <trkpt lat="48.60127" lon="1.99374">
        <ele>102.4</ele>
        <time>2023-12-20T13:19:23Z</time>
      </trkpt>
      <trkpt lat="48.60121" lon="1.99373">
        <ele>102.4</ele>
        <time>2023-12-20T13:19:24Z</time>
      </trkpt>
      <trkpt lat="48.60114" lon="1.99373">
        <ele>102.4</ele>
        <time>2023-12-20T13:19:25Z</time>
      </trkpt>
      <trkpt lat="48.60108" lon="1.99372">
        <ele>103.4</ele>
        <time>2023-12-20T13:19:26Z</time>
      </trkpt>
      <trkpt lat="48.60103" lon="1.99371">
        <ele>104.4</ele>
        <time>2023-12-20T13:19:27Z</time>
      </trkpt>
      <trkpt lat="48.60097" lon="1.9937">
        <ele>104.4</ele>
        <time>2023-12-20T13:19:28Z</time>
      </trkpt>
      <trkpt lat="48.60091" lon="1.99369">
        <ele>104.4</ele>
        <time>2023-12-20T13:19:29Z</time>
      </trkpt>
      <trkpt lat="48.60085" lon="1.99368">
        <ele>104.4</ele>
        <time>2023-12-20T13:19:30Z</time>
      </trkpt>
      <trkpt lat="48.6008" lon="1.99367">
        <ele>105</ele>
        <time>2023-12-20T13:19:31Z</time>
      </trkpt>
      <trkpt lat="48.60074" lon="1.99367">
        <ele>105</ele>
        <time>2023-12-20T13:19:32Z</time>
      </trkpt>
      <trkpt lat="48.60068" lon="1.99366">
        <ele>105</ele>
        <time>2023-12-20T13:19:33Z</time>
      </trkpt>
      <trkpt lat="48.60063" lon="1.99366">
        <ele>104.6</ele>
        <time>2023-12-20T13:19:34Z</time>
      </trkpt>
      <trkpt lat="48.60057" lon="1.99365">
        <ele>104.8</ele>
        <time>2023-12-20T13:19:35Z</time>
      </trkpt>
      <trkpt lat="48.60052" lon="1.99364">
        <ele>104.8</ele>
        <time>2023-12-20T13:19:36Z</time>
      </trkpt>
      <trkpt lat="48.60047" lon="1.99363">
        <ele>104.8</ele>
        <time>2023-12-20T13:19:37Z</time>
      </trkpt>
      <trkpt lat="48.60041" lon="1.99362">
        <ele>104.8</ele>
        <time>2023-12-20T13:19:38Z</time>
      </trkpt>
      <trkpt lat="48.60036" lon="1.99362">
        <ele>106</ele>
        <time>2023-12-20T13:19:39Z</time>
      </trkpt>
      <trkpt lat="48.60031" lon="1.99361">
        <ele>106</ele>
        <time>2023-12-20T13:19:40Z</time>
      </trkpt>
      <trkpt lat="48.60026" lon="1.9936">
        <ele>106</ele>
        <time>2023-12-20T13:19:41Z</time>
      </trkpt>
      <trkpt lat="48.60021" lon="1.9936">
        <ele>106.2</ele>
        <time>2023-12-20T13:19:42Z</time>
      </trkpt>
      <trkpt lat="48.60016" lon="1.99359">
        <ele>107</ele>
        <time>2023-12-20T13:19:43Z</time>
      </trkpt>
      <trkpt lat="48.6001" lon="1.99358">
        <ele>107</ele>
        <time>2023-12-20T13:19:44Z</time>
      </trkpt>
      <trkpt lat="48.60005" lon="1.99357">
        <ele>107</ele>
        <time>2023-12-20T13:19:45Z</time>
      </trkpt>
      <trkpt lat="48.6" lon="1.99356">
        <ele>107</ele>
        <time>2023-12-20T13:19:46Z</time>
      </trkpt>
      <trkpt lat="48.59995" lon="1.99356">
        <ele>107.2</ele>
        <time>2023-12-20T13:19:47Z</time>
      </trkpt>
      <trkpt lat="48.5999" lon="1.99355">
        <ele>107.2</ele>
        <time>2023-12-20T13:19:48Z</time>
      </trkpt>
      <trkpt lat="48.59985" lon="1.99354">
        <ele>107.2</ele>
        <time>2023-12-20T13:19:49Z</time>
      </trkpt>
      <trkpt lat="48.5998" lon="1.99354">
        <ele>107.2</ele>
        <time>2023-12-20T13:19:50Z</time>
      </trkpt>
      <trkpt lat="48.59976" lon="1.99353">
        <ele>107.6</ele>
        <time>2023-12-20T13:19:51Z</time>
      </trkpt>
      <trkpt lat="48.59971" lon="1.99353">
        <ele>107.6</ele>
        <time>2023-12-20T13:19:52Z</time>
      </trkpt>
      <trkpt lat="48.59966" lon="1.99352">
        <ele>107.6</ele>
        <time>2023-12-20T13:19:53Z</time>
      </trkpt>
      <trkpt lat="48.59961" lon="1.99351">
        <ele>108</ele>
        <time>2023-12-20T13:19:54Z</time>
      </trkpt>
      <trkpt lat="48.59956" lon="1.99351">
        <ele>108</ele>
        <time>2023-12-20T13:19:55Z</time>
      </trkpt>
      <trkpt lat="48.59952" lon="1.9935">
        <ele>108</ele>
        <time>2023-12-20T13:19:56Z</time>
      </trkpt>
      <trkpt lat="48.59947" lon="1.99349">
        <ele>108</ele>
        <time>2023-12-20T13:19:57Z</time>
      </trkpt>
      <trkpt lat="48.59942" lon="1.99349">
        <ele>108</ele>
        <time>2023-12-20T13:19:58Z</time>
      </trkpt>
      <trkpt lat="48.59937" lon="1.99348">
        <ele>108.8</ele>
        <time>2023-12-20T13:19:59Z</time>
      </trkpt>
      <trkpt lat="48.59932" lon="1.99347">
        <ele>108.8</ele>
        <time>2023-12-20T13:20:00Z</time>
      </trkpt>
      <trkpt lat="48.59928" lon="1.99346">
        <ele>108.8</ele>
        <time>2023-12-20T13:20:01Z</time>
      </trkpt>
      <trkpt lat="48.59923" lon="1.99346">
        <ele>108.8</ele>
        <time>2023-12-20T13:20:02Z</time>
      </trkpt>
      <trkpt lat="48.59919" lon="1.99345">
        <ele>109</ele>
        <time>2023-12-20T13:20:03Z</time>
      </trkpt>
      <trkpt lat="48.59915" lon="1.99344">
        <ele>109</ele>
        <time>2023-12-20T13:20:04Z</time>
      </trkpt>
      <trkpt lat="48.5991" lon="1.99344">
        <ele>109</ele>
        <time>2023-12-20T13:20:05Z</time>
      </trkpt>
      <trkpt lat="48.59906" lon="1.99343">
        <ele>109</ele>
        <time>2023-12-20T13:20:06Z</time>
      </trkpt>
      <trkpt lat="48.59902" lon="1.99343">
        <ele>109.8</ele>
        <time>2023-12-20T13:20:07Z</time>
      </trkpt>
      <trkpt lat="48.59899" lon="1.99342">
        <ele>109.8</ele>
        <time>2023-12-20T13:20:08Z</time>
      </trkpt>
      <trkpt lat="48.59895" lon="1.99342">
        <ele>109.8</ele>
        <time>2023-12-20T13:20:09Z</time>
      </trkpt>
      <trkpt lat="48.59892" lon="1.99341">
        <ele>110.8</ele>
        <time>2023-12-20T13:20:10Z</time>
      </trkpt>
      <trkpt lat="48.59888" lon="1.99341">
        <ele>111.2</ele>
        <time>2023-12-20T13:20:11Z</time>
      </trkpt>
      <trkpt lat="48.59885" lon="1.9934">
        <ele>111.2</ele>
        <time>2023-12-20T13:20:12Z</time>
      </trkpt>
      <trkpt lat="48.59881" lon="1.9934">
        <ele>111.2</ele>
        <time>2023-12-20T13:20:13Z</time>
      </trkpt>
      <trkpt lat="48.59877" lon="1.9934">
        <ele>111.6</ele>
        <time>2023-12-20T13:20:14Z</time>
      </trkpt>
      <trkpt lat="48.59874" lon="1.99339">
        <ele>111.6</ele>
        <time>2023-12-20T13:20:15Z</time>
      </trkpt>
      <trkpt lat="48.5987" lon="1.99339">
        <ele>111.6</ele>
        <time>2023-12-20T13:20:16Z</time>
      </trkpt>
      <trkpt lat="48.59867" lon="1.99338">
        <ele>111.6</ele>
        <time>2023-12-20T13:20:17Z</time>
      </trkpt>
      <trkpt lat="48.59863" lon="1.99338">
        <ele>112</ele>
        <time>2023-12-20T13:20:18Z</time>
      </trkpt>
      <trkpt lat="48.5986" lon="1.99337">
        <ele>113</ele>
        <time>2023-12-20T13:20:19Z</time>
      </trkpt>
      <trkpt lat="48.59856" lon="1.99337">
        <ele>113</ele>
        <time>2023-12-20T13:20:20Z</time>
      </trkpt>
      <trkpt lat="48.59853" lon="1.99337">
        <ele>113</ele>
        <time>2023-12-20T13:20:21Z</time>
      </trkpt>
      <trkpt lat="48.5985" lon="1.99336">
        <ele>114</ele>
        <time>2023-12-20T13:20:22Z</time>
      </trkpt>
      <trkpt lat="48.59846" lon="1.99335">
        <ele>113.4</ele>
        <time>2023-12-20T13:20:23Z</time>
      </trkpt>
      <trkpt lat="48.59843" lon="1.99335">
        <ele>113.4</ele>
        <time>2023-12-20T13:20:24Z</time>
      </trkpt>
      <trkpt lat="48.59839" lon="1.99334">
        <ele>113.4</ele>
        <time>2023-12-20T13:20:25Z</time>
      </trkpt>
      <trkpt lat="48.59836" lon="1.99334">
        <ele>114.4</ele>
        <time>2023-12-20T13:20:26Z</time>
      </trkpt>
      <trkpt lat="48.59833" lon="1.99335">
        <ele>114.8</ele>
        <time>2023-12-20T13:20:27Z</time>
      </trkpt>
      <trkpt lat="48.5983" lon="1.99334">
        <ele>114.8</ele>
        <time>2023-12-20T13:20:28Z</time>
      </trkpt>
      <trkpt lat="48.59828" lon="1.99333">
        <ele>114.8</ele>
        <time>2023-12-20T13:20:29Z</time>
      </trkpt>
      <trkpt lat="48.59825" lon="1.99333">
        <ele>115.2</ele>
        <time>2023-12-20T13:20:30Z</time>
      </trkpt>
      <trkpt lat="48.59823" lon="1.99332">
        <ele>115.4</ele>
        <time>2023-12-20T13:20:31Z</time>
      </trkpt>
      <trkpt lat="48.59818" lon="1.99333">
        <ele>115.4</ele>
        <time>2023-12-20T13:20:32Z</time>
      </trkpt>
      <trkpt lat="48.59815" lon="1.99332">
        <ele>115.4</ele>
        <time>2023-12-20T13:20:33Z</time>
      </trkpt>
      <trkpt lat="48.59812" lon="1.99332">
        <ele>116</ele>
        <time>2023-12-20T13:20:34Z</time>
      </trkpt>
      <trkpt lat="48.59808" lon="1.99332">
        <ele>116.4</ele>
        <time>2023-12-20T13:20:35Z</time>
      </trkpt>
      <trkpt lat="48.59806" lon="1.99331">
        <ele>116.4</ele>
        <time>2023-12-20T13:20:36Z</time>
      </trkpt>
      <trkpt lat="48.59802" lon="1.99331">
        <ele>116.4</ele>
        <time>2023-12-20T13:20:37Z</time>
      </trkpt>
      <trkpt lat="48.59799" lon="1.99331">
        <ele>116.4</ele>
        <time>2023-12-20T13:20:38Z</time>
      </trkpt>
      <trkpt lat="48.59796" lon="1.99331">
        <ele>116.8</ele>
        <time>2023-12-20T13:20:39Z</time>
      </trkpt>
      <trkpt lat="48.59792" lon="1.99331">
        <ele>116.8</ele>
        <time>2023-12-20T13:20:40Z</time>
      </trkpt>
      <trkpt lat="48.59789" lon="1.9933">
        <ele>116.8</ele>
        <time>2023-12-20T13:20:41Z</time>
      </trkpt>
      <trkpt lat="48.59785" lon="1.99329">
        <ele>117</ele>
        <time>2023-12-20T13:20:42Z</time>
      </trkpt>
      <trkpt lat="48.59782" lon="1.99329">
        <ele>118</ele>
        <time>2023-12-20T13:20:43Z</time>
      </trkpt>
      <trkpt lat="48.59778" lon="1.99329">
        <ele>118</ele>
        <time>2023-12-20T13:20:44Z</time>
      </trkpt>
      <trkpt lat="48.59775" lon="1.99328">
        <ele>118</ele>
        <time>2023-12-20T13:20:45Z</time>
      </trkpt>
      <trkpt lat="48.59771" lon="1.99328">
        <ele>118</ele>
        <time>2023-12-20T13:20:46Z</time>
      </trkpt>
      <trkpt lat="48.59768" lon="1.99327">
        <ele>118.4</ele>
        <time>2023-12-20T13:20:47Z</time>
      </trkpt>
      <trkpt lat="48.59764" lon="1.99327">
        <ele>118.4</ele>
        <time>2023-12-20T13:20:48Z</time>
      </trkpt>
      <trkpt lat="48.59762" lon="1.99326">
        <ele>118.4</ele>
        <time>2023-12-20T13:20:49Z</time>
      </trkpt>
      <trkpt lat="48.59758" lon="1.99326">
        <ele>118.8</ele>
        <time>2023-12-20T13:20:50Z</time>
      </trkpt>
      <trkpt lat="48.59755" lon="1.99326">
        <ele>118.8</ele>
        <time>2023-12-20T13:20:51Z</time>
      </trkpt>
      <trkpt lat="48.59752" lon="1.99326">
        <ele>118.8</ele>
        <time>2023-12-20T13:20:52Z</time>
      </trkpt>
      <trkpt lat="48.59749" lon="1.99326">
        <ele>118.8</ele>
        <time>2023-12-20T13:20:53Z</time>
      </trkpt>
      <trkpt lat="48.59745" lon="1.99325">
        <ele>119.8</ele>
        <time>2023-12-20T13:20:54Z</time>
      </trkpt>
      <trkpt lat="48.59741" lon="1.99325">
        <ele>120.2</ele>
        <time>2023-12-20T13:20:55Z</time>
      </trkpt>
      <trkpt lat="48.59738" lon="1.99325">
        <ele>120.2</ele>
        <time>2023-12-20T13:20:56Z</time>
      </trkpt>
      <trkpt lat="48.59735" lon="1.99324">
        <ele>120.2</ele>
        <time>2023-12-20T13:20:57Z</time>
      </trkpt>
      <trkpt lat="48.59732" lon="1.99324">
        <ele>120.2</ele>
        <time>2023-12-20T13:20:58Z</time>
      </trkpt>
      <trkpt lat="48.59728" lon="1.99324">
        <ele>120.8</ele>
        <time>2023-12-20T13:20:59Z</time>
      </trkpt>
      <trkpt lat="48.59725" lon="1.99324">
        <ele>120.8</ele>
        <time>2023-12-20T13:21:00Z</time>
      </trkpt>
      <trkpt lat="48.59722" lon="1.99324">
        <ele>120.8</ele>
        <time>2023-12-20T13:21:01Z</time>
      </trkpt>
      <trkpt lat="48.59718" lon="1.99324">
        <ele>120.8</ele>
        <time>2023-12-20T13:21:02Z</time>
      </trkpt>
      <trkpt lat="48.59715" lon="1.99325">
        <ele>120.8</ele>
        <time>2023-12-20T13:21:03Z</time>
      </trkpt>
      <trkpt lat="48.59711" lon="1.99325">
        <ele>120.8</ele>
        <time>2023-12-20T13:21:04Z</time>
      </trkpt>
      <trkpt lat="48.59708" lon="1.99325">
        <ele>120.8</ele>
        <time>2023-12-20T13:21:05Z</time>
      </trkpt>
      <trkpt lat="48.59704" lon="1.99325">
        <ele>120.8</ele>
        <time>2023-12-20T13:21:06Z</time>
      </trkpt>
      <trkpt lat="48.59701" lon="1.99325">
        <ele>121</ele>
        <time>2023-12-20T13:21:07Z</time>
      </trkpt>
      <trkpt lat="48.59697" lon="1.99326">
        <ele>121</ele>
        <time>2023-12-20T13:21:08Z</time>
      </trkpt>
      <trkpt lat="48.59693" lon="1.99326">
        <ele>121</ele>
        <time>2023-12-20T13:21:09Z</time>
      </trkpt>
      <trkpt lat="48.5969" lon="1.99327">
        <ele>121.2</ele>
        <time>2023-12-20T13:21:10Z</time>
      </trkpt>
      <trkpt lat="48.59687" lon="1.99328">
        <ele>121.8</ele>
        <time>2023-12-20T13:21:11Z</time>
      </trkpt>
      <trkpt lat="48.59684" lon="1.99328">
        <ele>121.8</ele>
        <time>2023-12-20T13:21:12Z</time>
      </trkpt>
      <trkpt lat="48.5968" lon="1.99328">
        <ele>121.8</ele>
        <time>2023-12-20T13:21:13Z</time>
      </trkpt>
      <trkpt lat="48.59676" lon="1.99328">
        <ele>121.8</ele>
        <time>2023-12-20T13:21:14Z</time>
      </trkpt>
      <trkpt lat="48.59673" lon="1.99329">
        <ele>122</ele>
        <time>2023-12-20T13:21:15Z</time>
      </trkpt>
      <trkpt lat="48.59669" lon="1.99329">
        <ele>122</ele>
        <time>2023-12-20T13:21:16Z</time>
      </trkpt>
      <trkpt lat="48.59666" lon="1.9933">
        <ele>122</ele>
        <time>2023-12-20T13:21:17Z</time>
      </trkpt>
      <trkpt lat="48.59663" lon="1.99331">
        <ele>122.2</ele>
        <time>2023-12-20T13:21:18Z</time>
      </trkpt>
      <trkpt lat="48.59659" lon="1.99332">
        <ele>123</ele>
        <time>2023-12-20T13:21:19Z</time>
      </trkpt>
      <trkpt lat="48.59655" lon="1.99332">
        <ele>123</ele>
        <time>2023-12-20T13:21:20Z</time>
      </trkpt>
      <trkpt lat="48.59651" lon="1.99333">
        <ele>123</ele>
        <time>2023-12-20T13:21:21Z</time>
      </trkpt>
      <trkpt lat="48.59647" lon="1.99334">
        <ele>123</ele>
        <time>2023-12-20T13:21:22Z</time>
      </trkpt>
      <trkpt lat="48.59643" lon="1.99335">
        <ele>122.8</ele>
        <time>2023-12-20T13:21:23Z</time>
      </trkpt>
      <trkpt lat="48.59639" lon="1.99335">
        <ele>122.8</ele>
        <time>2023-12-20T13:21:24Z</time>
      </trkpt>
      <trkpt lat="48.59634" lon="1.99336">
        <ele>122.8</ele>
        <time>2023-12-20T13:21:25Z</time>
      </trkpt>
      <trkpt lat="48.5963" lon="1.99337">
        <ele>122.8</ele>
        <time>2023-12-20T13:21:26Z</time>
      </trkpt>
      <trkpt lat="48.59626" lon="1.99338">
        <ele>122.8</ele>
        <time>2023-12-20T13:21:27Z</time>
      </trkpt>
      <trkpt lat="48.59622" lon="1.99339">
        <ele>122.8</ele>
        <time>2023-12-20T13:21:28Z</time>
      </trkpt>
      <trkpt lat="48.59618" lon="1.99339">
        <ele>122.8</ele>
        <time>2023-12-20T13:21:29Z</time>
      </trkpt>
      <trkpt lat="48.59613" lon="1.9934">
        <ele>122.8</ele>
        <time>2023-12-20T13:21:30Z</time>
      </trkpt>
      <trkpt lat="48.59609" lon="1.99341">
        <ele>123</ele>
        <time>2023-12-20T13:21:31Z</time>
      </trkpt>
      <trkpt lat="48.59605" lon="1.99341">
        <ele>123</ele>
        <time>2023-12-20T13:21:32Z</time>
      </trkpt>
      <trkpt lat="48.596" lon="1.99341">
        <ele>123</ele>
        <time>2023-12-20T13:21:33Z</time>
      </trkpt>
      <trkpt lat="48.59596" lon="1.99341">
        <ele>123</ele>
        <time>2023-12-20T13:21:34Z</time>
      </trkpt>
      <trkpt lat="48.59591" lon="1.99341">
        <ele>124</ele>
        <time>2023-12-20T13:21:35Z</time>
      </trkpt>
      <trkpt lat="48.59586" lon="1.9934">
        <ele>124</ele>
        <time>2023-12-20T13:21:36Z</time>
      </trkpt>
      <trkpt lat="48.59582" lon="1.9934">
        <ele>124</ele>
        <time>2023-12-20T13:21:37Z</time>
      </trkpt>
      <trkpt lat="48.59577" lon="1.99339">
        <ele>124</ele>
        <time>2023-12-20T13:21:38Z</time>
      </trkpt>
      <trkpt lat="48.59573" lon="1.99338">
        <ele>123.4</ele>
        <time>2023-12-20T13:21:39Z</time>
      </trkpt>
      <trkpt lat="48.59568" lon="1.99337">
        <ele>123.4</ele>
        <time>2023-12-20T13:21:40Z</time>
      </trkpt>
      <trkpt lat="48.59564" lon="1.99336">
        <ele>123.4</ele>
        <time>2023-12-20T13:21:41Z</time>
      </trkpt>
      <trkpt lat="48.5956" lon="1.99335">
        <ele>123.4</ele>
        <time>2023-12-20T13:21:42Z</time>
      </trkpt>
      <trkpt lat="48.59556" lon="1.99333">
        <ele>124.4</ele>
        <time>2023-12-20T13:21:43Z</time>
      </trkpt>
      <trkpt lat="48.59552" lon="1.99331">
        <ele>124.4</ele>
        <time>2023-12-20T13:21:44Z</time>
      </trkpt>
      <trkpt lat="48.59548" lon="1.99328">
        <ele>124.4</ele>
        <time>2023-12-20T13:21:45Z</time>
      </trkpt>
      <trkpt lat="48.59544" lon="1.99325">
        <ele>124.4</ele>
        <time>2023-12-20T13:21:46Z</time>
      </trkpt>
      <trkpt lat="48.5954" lon="1.99323">
        <ele>124.8</ele>
        <time>2023-12-20T13:21:47Z</time>
      </trkpt>
      <trkpt lat="48.59536" lon="1.9932">
        <ele>124.8</ele>
        <time>2023-12-20T13:21:48Z</time>
      </trkpt>
      <trkpt lat="48.59532" lon="1.99318">
        <ele>124.8</ele>
        <time>2023-12-20T13:21:49Z</time>
      </trkpt>
      <trkpt lat="48.59528" lon="1.99315">
        <ele>125.4</ele>
        <time>2023-12-20T13:21:50Z</time>
      </trkpt>
      <trkpt lat="48.59525" lon="1.99313">
        <ele>125</ele>
        <time>2023-12-20T13:21:51Z</time>
      </trkpt>
      <trkpt lat="48.59521" lon="1.9931">
        <ele>125</ele>
        <time>2023-12-20T13:21:52Z</time>
      </trkpt>
      <trkpt lat="48.59518" lon="1.99307">
        <ele>125</ele>
        <time>2023-12-20T13:21:53Z</time>
      </trkpt>
      <trkpt lat="48.59514" lon="1.99305">
        <ele>125</ele>
        <time>2023-12-20T13:21:54Z</time>
      </trkpt>
      <trkpt lat="48.5951" lon="1.99302">
        <ele>125</ele>
        <time>2023-12-20T13:21:55Z</time>
      </trkpt>
      <trkpt lat="48.59507" lon="1.99301">
        <ele>125</ele>
        <time>2023-12-20T13:21:56Z</time>
      </trkpt>
      <trkpt lat="48.59503" lon="1.99298">
        <ele>125</ele>
        <time>2023-12-20T13:21:57Z</time>
      </trkpt>
      <trkpt lat="48.59499" lon="1.99295">
        <ele>125.2</ele>
        <time>2023-12-20T13:21:58Z</time>
      </trkpt>
      <trkpt lat="48.59496" lon="1.99293">
        <ele>125.6</ele>
        <time>2023-12-20T13:21:59Z</time>
      </trkpt>
      <trkpt lat="48.59492" lon="1.9929">
        <ele>125.6</ele>
        <time>2023-12-20T13:22:00Z</time>
      </trkpt>
      <trkpt lat="48.5949" lon="1.99287">
        <ele>125.6</ele>
        <time>2023-12-20T13:22:01Z</time>
      </trkpt>
      <trkpt lat="48.59487" lon="1.99285">
        <ele>126</ele>
        <time>2023-12-20T13:22:02Z</time>
      </trkpt>
      <trkpt lat="48.59484" lon="1.99283">
        <ele>125.6</ele>
        <time>2023-12-20T13:22:03Z</time>
      </trkpt>
      <trkpt lat="48.59482" lon="1.99281">
        <ele>125.6</ele>
        <time>2023-12-20T13:22:04Z</time>
      </trkpt>
      <trkpt lat="48.59479" lon="1.9928">
        <ele>125.6</ele>
        <time>2023-12-20T13:22:05Z</time>
      </trkpt>
      <trkpt lat="48.59476" lon="1.99278">
        <ele>125.6</ele>
        <time>2023-12-20T13:22:06Z</time>
      </trkpt>
      <trkpt lat="48.59473" lon="1.99275">
        <ele>125.8</ele>
        <time>2023-12-20T13:22:07Z</time>
      </trkpt>
      <trkpt lat="48.59469" lon="1.99273">
        <ele>125.8</ele>
        <time>2023-12-20T13:22:08Z</time>
      </trkpt>
      <trkpt lat="48.59466" lon="1.99271">
        <ele>125.8</ele>
        <time>2023-12-20T13:22:09Z</time>
      </trkpt>
      <trkpt lat="48.59462" lon="1.9927">
        <ele>125.8</ele>
        <time>2023-12-20T13:22:10Z</time>
      </trkpt>
      <trkpt lat="48.59458" lon="1.99269">
        <ele>125.6</ele>
        <time>2023-12-20T13:22:11Z</time>
      </trkpt>
      <trkpt lat="48.59454" lon="1.99267">
        <ele>125.6</ele>
        <time>2023-12-20T13:22:12Z</time>
      </trkpt>
      <trkpt lat="48.59451" lon="1.99265">
        <ele>125.6</ele>
        <time>2023-12-20T13:22:13Z</time>
      </trkpt>
      <trkpt lat="48.59447" lon="1.99262">
        <ele>125.6</ele>
        <time>2023-12-20T13:22:14Z</time>
      </trkpt>
      <trkpt lat="48.59443" lon="1.9926">
        <ele>125.4</ele>
        <time>2023-12-20T13:22:15Z</time>
      </trkpt>
      <trkpt lat="48.59439" lon="1.99258">
        <ele>125.4</ele>
        <time>2023-12-20T13:22:16Z</time>
      </trkpt>
      <trkpt lat="48.59435" lon="1.99256">
        <ele>125.4</ele>
        <time>2023-12-20T13:22:17Z</time>
      </trkpt>
      <trkpt lat="48.59431" lon="1.99255">
        <ele>125.6</ele>
        <time>2023-12-20T13:22:18Z</time>
      </trkpt>
      <trkpt lat="48.59427" lon="1.99254">
        <ele>126</ele>
        <time>2023-12-20T13:22:19Z</time>
      </trkpt>
      <trkpt lat="48.59425" lon="1.99253">
        <ele>126</ele>
        <time>2023-12-20T13:22:20Z</time>
      </trkpt>
      <trkpt lat="48.59422" lon="1.99252">
        <ele>126</ele>
        <time>2023-12-20T13:22:21Z</time>
      </trkpt>
      <trkpt lat="48.59421" lon="1.99252">
        <ele>126.4</ele>
        <time>2023-12-20T13:22:22Z</time>
      </trkpt>
      <trkpt lat="48.594" lon="1.99252">
        <ele>128</ele>
        <time>2023-12-20T13:24:58Z</time>
      </trkpt>
      <trkpt lat="48.59398" lon="1.99252">
        <ele>128</ele>
        <time>2023-12-20T13:24:59Z</time>
      </trkpt>
      <trkpt lat="48.59396" lon="1.99251">
        <ele>128</ele>
        <time>2023-12-20T13:25:00Z</time>
      </trkpt>
      <trkpt lat="48.59393" lon="1.99251">
        <ele>128</ele>
        <time>2023-12-20T13:25:01Z</time>
      </trkpt>
      <trkpt lat="48.5939" lon="1.9925">
        <ele>128</ele>
        <time>2023-12-20T13:25:02Z</time>
      </trkpt>
      <trkpt lat="48.59387" lon="1.99248">
        <ele>127.4</ele>
        <time>2023-12-20T13:25:03Z</time>
      </trkpt>
      <trkpt lat="48.59383" lon="1.99247">
        <ele>127.4</ele>
        <time>2023-12-20T13:25:04Z</time>
      </trkpt>
      <trkpt lat="48.59379" lon="1.99244">
        <ele>127.4</ele>
        <time>2023-12-20T13:25:05Z</time>
      </trkpt>
      <trkpt lat="48.59374" lon="1.99242">
        <ele>127.4</ele>
        <time>2023-12-20T13:25:06Z</time>
      </trkpt>
      <trkpt lat="48.5937" lon="1.9924">
        <ele>128.6</ele>
        <time>2023-12-20T13:25:07Z</time>
      </trkpt>
      <trkpt lat="48.59366" lon="1.99238">
        <ele>128.6</ele>
        <time>2023-12-20T13:25:08Z</time>
      </trkpt>
      <trkpt lat="48.59364" lon="1.99236">
        <ele>128.6</ele>
        <time>2023-12-20T13:25:09Z</time>
      </trkpt>
      <trkpt lat="48.59362" lon="1.99235">
        <ele>128.6</ele>
        <time>2023-12-20T13:25:10Z</time>
      </trkpt>
      <trkpt lat="48.5936" lon="1.99234">
        <ele>128.2</ele>
        <time>2023-12-20T13:25:11Z</time>
      </trkpt>
      <trkpt lat="48.59357" lon="1.99234">
        <ele>128.2</ele>
        <time>2023-12-20T13:25:12Z</time>
      </trkpt>
      <trkpt lat="48.59354" lon="1.99233">
        <ele>128.2</ele>
        <time>2023-12-20T13:25:13Z</time>
      </trkpt>
      <trkpt lat="48.59351" lon="1.99231">
        <ele>127.6</ele>
        <time>2023-12-20T13:25:14Z</time>
      </trkpt>
      <trkpt lat="48.59346" lon="1.9923">
        <ele>127.6</ele>
        <time>2023-12-20T13:25:15Z</time>
      </trkpt>
      <trkpt lat="48.59342" lon="1.99229">
        <ele>127.6</ele>
        <time>2023-12-20T13:25:16Z</time>
      </trkpt>
      <trkpt lat="48.59338" lon="1.99227">
        <ele>127.6</ele>
        <time>2023-12-20T13:25:17Z</time>
      </trkpt>
      <trkpt lat="48.59334" lon="1.99225">
        <ele>128.4</ele>
        <time>2023-12-20T13:25:18Z</time>
      </trkpt>
      <trkpt lat="48.5933" lon="1.99223">
        <ele>129</ele>
        <time>2023-12-20T13:25:19Z</time>
      </trkpt>
      <trkpt lat="48.59328" lon="1.99222">
        <ele>129</ele>
        <time>2023-12-20T13:25:20Z</time>
      </trkpt>
      <trkpt lat="48.59326" lon="1.99222">
        <ele>129</ele>
        <time>2023-12-20T13:25:21Z</time>
      </trkpt>
      <trkpt lat="48.59326" lon="1.99222">
        <ele>129.2</ele>
        <time>2023-12-20T13:25:26Z</time>
      </trkpt>
      <trkpt lat="48.59324" lon="1.99222">
        <ele>129</ele>
        <time>2023-12-20T13:25:27Z</time>
      </trkpt>
      <trkpt lat="48.59322" lon="1.99222">
        <ele>129</ele>
        <time>2023-12-20T13:25:28Z</time>
      </trkpt>
      <trkpt lat="48.5932" lon="1.99222">
        <ele>129</ele>
        <time>2023-12-20T13:25:29Z</time>
      </trkpt>
      <trkpt lat="48.59317" lon="1.99222">
        <ele>129</ele>
        <time>2023-12-20T13:25:30Z</time>
      </trkpt>
      <trkpt lat="48.59315" lon="1.99221">
        <ele>128.4</ele>
        <time>2023-12-20T13:25:31Z</time>
      </trkpt>
      <trkpt lat="48.59312" lon="1.9922">
        <ele>128.4</ele>
        <time>2023-12-20T13:25:32Z</time>
      </trkpt>
      <trkpt lat="48.59309" lon="1.9922">
        <ele>128.4</ele>
        <time>2023-12-20T13:25:33Z</time>
      </trkpt>
      <trkpt lat="48.59306" lon="1.99219">
        <ele>128.4</ele>
        <time>2023-12-20T13:25:34Z</time>
      </trkpt>
      <trkpt lat="48.59303" lon="1.99218">
        <ele>128.6</ele>
        <time>2023-12-20T13:25:35Z</time>
      </trkpt>
      <trkpt lat="48.593" lon="1.99217">
        <ele>128.6</ele>
        <time>2023-12-20T13:25:36Z</time>
      </trkpt>
      <trkpt lat="48.59297" lon="1.99216">
        <ele>128.6</ele>
        <time>2023-12-20T13:25:37Z</time>
      </trkpt>
      <trkpt lat="48.59293" lon="1.99216">
        <ele>128.6</ele>
        <time>2023-12-20T13:25:38Z</time>
      </trkpt>
      <trkpt lat="48.5929" lon="1.99215">
        <ele>129.4</ele>
        <time>2023-12-20T13:25:39Z</time>
      </trkpt>
      <trkpt lat="48.59287" lon="1.99214">
        <ele>129.4</ele>
        <time>2023-12-20T13:25:40Z</time>
      </trkpt>
      <trkpt lat="48.59284" lon="1.99213">
        <ele>129.4</ele>
        <time>2023-12-20T13:25:41Z</time>
      </trkpt>
      <trkpt lat="48.59282" lon="1.99214">
        <ele>128.8</ele>
        <time>2023-12-20T13:25:42Z</time>
      </trkpt>
      <trkpt lat="48.5928" lon="1.99213">
        <ele>129</ele>
        <time>2023-12-20T13:25:43Z</time>
      </trkpt>
      <trkpt lat="48.59278" lon="1.99213">
        <ele>129</ele>
        <time>2023-12-20T13:25:44Z</time>
      </trkpt>
      <trkpt lat="48.59275" lon="1.99212">
        <ele>129</ele>
        <time>2023-12-20T13:25:45Z</time>
      </trkpt>
      <trkpt lat="48.59273" lon="1.99211">
        <ele>129</ele>
        <time>2023-12-20T13:25:46Z</time>
      </trkpt>
      <trkpt lat="48.59272" lon="1.99211">
        <ele>129.2</ele>
        <time>2023-12-20T13:25:47Z</time>
      </trkpt>
      <trkpt lat="48.59271" lon="1.99211">
        <ele>129.2</ele>
        <time>2023-12-20T13:25:48Z</time>
      </trkpt>
      <trkpt lat="48.5926" lon="1.99219">
        <ele>128.6</ele>
        <time>2023-12-20T13:26:21Z</time>
      </trkpt>
      <trkpt lat="48.59259" lon="1.99218">
        <ele>128.8</ele>
        <time>2023-12-20T13:26:22Z</time>
      </trkpt>
      <trkpt lat="48.59257" lon="1.99218">
        <ele>128.4</ele>
        <time>2023-12-20T13:26:23Z</time>
      </trkpt>
      <trkpt lat="48.59255" lon="1.99216">
        <ele>128.4</ele>
        <time>2023-12-20T13:26:24Z</time>
      </trkpt>
      <trkpt lat="48.59252" lon="1.99214">
        <ele>128.4</ele>
        <time>2023-12-20T13:26:25Z</time>
      </trkpt>
      <trkpt lat="48.59249" lon="1.99212">
        <ele>128.4</ele>
        <time>2023-12-20T13:26:26Z</time>
      </trkpt>
      <trkpt lat="48.59247" lon="1.9921">
        <ele>128.2</ele>
        <time>2023-12-20T13:26:27Z</time>
      </trkpt>
      <trkpt lat="48.59244" lon="1.99209">
        <ele>128.2</ele>
        <time>2023-12-20T13:26:28Z</time>
      </trkpt>
      <trkpt lat="48.59242" lon="1.99209">
        <ele>128.2</ele>
        <time>2023-12-20T13:26:29Z</time>
      </trkpt>
      <trkpt lat="48.59239" lon="1.99208">
        <ele>128.2</ele>
        <time>2023-12-20T13:26:30Z</time>
      </trkpt>
      <trkpt lat="48.59237" lon="1.99207">
        <ele>128.2</ele>
        <time>2023-12-20T13:26:31Z</time>
      </trkpt>
      <trkpt lat="48.59236" lon="1.99207">
        <ele>128.2</ele>
        <time>2023-12-20T13:26:32Z</time>
      </trkpt>
      <trkpt lat="48.59236" lon="1.99206">
        <ele>128.2</ele>
        <time>2023-12-20T13:26:41Z</time>
      </trkpt>
      <trkpt lat="48.59234" lon="1.99206">
        <ele>128</ele>
        <time>2023-12-20T13:26:42Z</time>
      </trkpt>
      <trkpt lat="48.59231" lon="1.99204">
        <ele>127.8</ele>
        <time>2023-12-20T13:26:43Z</time>
      </trkpt>
      <trkpt lat="48.59229" lon="1.99203">
        <ele>127.8</ele>
        <time>2023-12-20T13:26:44Z</time>
      </trkpt>
      <trkpt lat="48.59226" lon="1.99203">
        <ele>127.8</ele>
        <time>2023-12-20T13:26:45Z</time>
      </trkpt>
      <trkpt lat="48.59223" lon="1.99201">
        <ele>126.8</ele>
        <time>2023-12-20T13:26:46Z</time>
      </trkpt>
      <trkpt lat="48.5922" lon="1.992">
        <ele>126.2</ele>
        <time>2023-12-20T13:26:47Z</time>
      </trkpt>
      <trkpt lat="48.59216" lon="1.99198">
        <ele>126.2</ele>
        <time>2023-12-20T13:26:48Z</time>
      </trkpt>
      <trkpt lat="48.59212" lon="1.99195">
        <ele>126.2</ele>
        <time>2023-12-20T13:26:49Z</time>
      </trkpt>
      <trkpt lat="48.59207" lon="1.99193">
        <ele>125.2</ele>
        <time>2023-12-20T13:26:50Z</time>
      </trkpt>
      <trkpt lat="48.59202" lon="1.9919">
        <ele>124</ele>
        <time>2023-12-20T13:26:51Z</time>
      </trkpt>
      <trkpt lat="48.59196" lon="1.99187">
        <ele>124</ele>
        <time>2023-12-20T13:26:52Z</time>
      </trkpt>
      <trkpt lat="48.5919" lon="1.99184">
        <ele>124</ele>
        <time>2023-12-20T13:26:53Z</time>
      </trkpt>
      <trkpt lat="48.59184" lon="1.99181">
        <ele>123</ele>
        <time>2023-12-20T13:26:54Z</time>
      </trkpt>
      <trkpt lat="48.59178" lon="1.99178">
        <ele>122.8</ele>
        <time>2023-12-20T13:26:55Z</time>
      </trkpt>
      <trkpt lat="48.59172" lon="1.99175">
        <ele>122.8</ele>
        <time>2023-12-20T13:26:56Z</time>
      </trkpt>
      <trkpt lat="48.59165" lon="1.99171">
        <ele>122.8</ele>
        <time>2023-12-20T13:26:57Z</time>
      </trkpt>
      <trkpt lat="48.59158" lon="1.99168">
        <ele>121.8</ele>
        <time>2023-12-20T13:26:58Z</time>
      </trkpt>
      <trkpt lat="48.59152" lon="1.99164">
        <ele>121.6</ele>
        <time>2023-12-20T13:26:59Z</time>
      </trkpt>
      <trkpt lat="48.59145" lon="1.9916">
        <ele>121.6</ele>
        <time>2023-12-20T13:27:00Z</time>
      </trkpt>
      <trkpt lat="48.59138" lon="1.99156">
        <ele>121.6</ele>
        <time>2023-12-20T13:27:01Z</time>
      </trkpt>
      <trkpt lat="48.59131" lon="1.99152">
        <ele>120.8</ele>
        <time>2023-12-20T13:27:02Z</time>
      </trkpt>
      <trkpt lat="48.59123" lon="1.99147">
        <ele>120.6</ele>
        <time>2023-12-20T13:27:03Z</time>
      </trkpt>
      <trkpt lat="48.59116" lon="1.99143">
        <ele>120.6</ele>
        <time>2023-12-20T13:27:04Z</time>
      </trkpt>
      <trkpt lat="48.59108" lon="1.99139">
        <ele>120.6</ele>
        <time>2023-12-20T13:27:05Z</time>
      </trkpt>
      <trkpt lat="48.59101" lon="1.99134">
        <ele>119.6</ele>
        <time>2023-12-20T13:27:06Z</time>
      </trkpt>
      <trkpt lat="48.59094" lon="1.99129">
        <ele>118.8</ele>
        <time>2023-12-20T13:27:07Z</time>
      </trkpt>
      <trkpt lat="48.59086" lon="1.99124">
        <ele>118.8</ele>
        <time>2023-12-20T13:27:08Z</time>
      </trkpt>
      <trkpt lat="48.59078" lon="1.99119">
        <ele>118.8</ele>
        <time>2023-12-20T13:27:09Z</time>
      </trkpt>
      <trkpt lat="48.59071" lon="1.99114">
        <ele>118.2</ele>
        <time>2023-12-20T13:27:10Z</time>
      </trkpt>
      <trkpt lat="48.59063" lon="1.99109">
        <ele>117.2</ele>
        <time>2023-12-20T13:27:11Z</time>
      </trkpt>
      <trkpt lat="48.59055" lon="1.99105">
        <ele>117.2</ele>
        <time>2023-12-20T13:27:12Z</time>
      </trkpt>
      <trkpt lat="48.59047" lon="1.991">
        <ele>117.2</ele>
        <time>2023-12-20T13:27:13Z</time>
      </trkpt>
      <trkpt lat="48.59038" lon="1.99095">
        <ele>117.2</ele>
        <time>2023-12-20T13:27:14Z</time>
      </trkpt>
      <trkpt lat="48.5903" lon="1.9909">
        <ele>116.8</ele>
        <time>2023-12-20T13:27:15Z</time>
      </trkpt>
      <trkpt lat="48.59022" lon="1.99085">
        <ele>116.8</ele>
        <time>2023-12-20T13:27:16Z</time>
      </trkpt>
      <trkpt lat="48.59015" lon="1.9908">
        <ele>116.8</ele>
        <time>2023-12-20T13:27:17Z</time>
      </trkpt>
      <trkpt lat="48.59007" lon="1.99075">
        <ele>116.4</ele>
        <time>2023-12-20T13:27:18Z</time>
      </trkpt>
      <trkpt lat="48.58999" lon="1.9907">
        <ele>115.8</ele>
        <time>2023-12-20T13:27:19Z</time>
      </trkpt>
      <trkpt lat="48.58991" lon="1.99064">
        <ele>115.8</ele>
        <time>2023-12-20T13:27:20Z</time>
      </trkpt>
      <trkpt lat="48.58983" lon="1.99059">
        <ele>115.8</ele>
        <time>2023-12-20T13:27:21Z</time>
      </trkpt>
      <trkpt lat="48.58975" lon="1.99055">
        <ele>115.8</ele>
        <time>2023-12-20T13:27:22Z</time>
      </trkpt>
      <trkpt lat="48.58967" lon="1.9905">
        <ele>115.8</ele>
        <time>2023-12-20T13:27:23Z</time>
      </trkpt>
      <trkpt lat="48.58958" lon="1.99045">
        <ele>115.8</ele>
        <time>2023-12-20T13:27:24Z</time>
      </trkpt>
      <trkpt lat="48.58951" lon="1.9904">
        <ele>115.8</ele>
        <time>2023-12-20T13:27:25Z</time>
      </trkpt>
      <trkpt lat="48.58943" lon="1.99036">
        <ele>115.8</ele>
        <time>2023-12-20T13:27:26Z</time>
      </trkpt>
      <trkpt lat="48.58935" lon="1.99031">
        <ele>115.8</ele>
        <time>2023-12-20T13:27:27Z</time>
      </trkpt>
      <trkpt lat="48.58928" lon="1.99026">
        <ele>115.8</ele>
        <time>2023-12-20T13:27:28Z</time>
      </trkpt>
      <trkpt lat="48.5892" lon="1.99021">
        <ele>115.8</ele>
        <time>2023-12-20T13:27:29Z</time>
      </trkpt>
      <trkpt lat="48.58913" lon="1.99017">
        <ele>116.8</ele>
        <time>2023-12-20T13:27:30Z</time>
      </trkpt>
      <trkpt lat="48.58906" lon="1.99012">
        <ele>116.8</ele>
        <time>2023-12-20T13:27:31Z</time>
      </trkpt>
      <trkpt lat="48.58899" lon="1.99008">
        <ele>116.8</ele>
        <time>2023-12-20T13:27:32Z</time>
      </trkpt>
      <trkpt lat="48.58892" lon="1.99004">
        <ele>116.8</ele>
        <time>2023-12-20T13:27:33Z</time>
      </trkpt>
      <trkpt lat="48.58886" lon="1.98999">
        <ele>117.4</ele>
        <time>2023-12-20T13:27:34Z</time>
      </trkpt>
      <trkpt lat="48.5888" lon="1.98995">
        <ele>117.2</ele>
        <time>2023-12-20T13:27:35Z</time>
      </trkpt>
      <trkpt lat="48.58874" lon="1.98991">
        <ele>117.2</ele>
        <time>2023-12-20T13:27:36Z</time>
      </trkpt>
      <trkpt lat="48.58868" lon="1.98988">
        <ele>117.2</ele>
        <time>2023-12-20T13:27:37Z</time>
      </trkpt>
      <trkpt lat="48.58861" lon="1.98985">
        <ele>118.2</ele>
        <time>2023-12-20T13:27:38Z</time>
      </trkpt>
      <trkpt lat="48.58855" lon="1.98981">
        <ele>118.2</ele>
        <time>2023-12-20T13:27:39Z</time>
      </trkpt>
      <trkpt lat="48.58849" lon="1.98978">
        <ele>118.2</ele>
        <time>2023-12-20T13:27:40Z</time>
      </trkpt>
      <trkpt lat="48.58843" lon="1.98974">
        <ele>118.2</ele>
        <time>2023-12-20T13:27:41Z</time>
      </trkpt>
      <trkpt lat="48.58838" lon="1.98971">
        <ele>119.2</ele>
        <time>2023-12-20T13:27:42Z</time>
      </trkpt>
      <trkpt lat="48.58832" lon="1.98968">
        <ele>119.2</ele>
        <time>2023-12-20T13:27:43Z</time>
      </trkpt>
      <trkpt lat="48.58826" lon="1.98965">
        <ele>119.2</ele>
        <time>2023-12-20T13:27:44Z</time>
      </trkpt>
      <trkpt lat="48.5882" lon="1.98961">
        <ele>119.2</ele>
        <time>2023-12-20T13:27:45Z</time>
      </trkpt>
      <trkpt lat="48.58815" lon="1.98958">
        <ele>119.2</ele>
        <time>2023-12-20T13:27:46Z</time>
      </trkpt>
      <trkpt lat="48.5881" lon="1.98954">
        <ele>118.8</ele>
        <time>2023-12-20T13:27:47Z</time>
      </trkpt>
      <trkpt lat="48.58805" lon="1.9895">
        <ele>118.8</ele>
        <time>2023-12-20T13:27:48Z</time>
      </trkpt>
      <trkpt lat="48.58799" lon="1.98947">
        <ele>118.8</ele>
        <time>2023-12-20T13:27:49Z</time>
      </trkpt>
      <trkpt lat="48.58794" lon="1.98944">
        <ele>119.8</ele>
        <time>2023-12-20T13:27:50Z</time>
      </trkpt>
      <trkpt lat="48.58788" lon="1.98941">
        <ele>120.8</ele>
        <time>2023-12-20T13:27:51Z</time>
      </trkpt>
      <trkpt lat="48.58782" lon="1.98939">
        <ele>120.8</ele>
        <time>2023-12-20T13:27:52Z</time>
      </trkpt>
      <trkpt lat="48.58777" lon="1.98936">
        <ele>120.8</ele>
        <time>2023-12-20T13:27:53Z</time>
      </trkpt>
      <trkpt lat="48.58773" lon="1.98932">
        <ele>121.8</ele>
        <time>2023-12-20T13:27:54Z</time>
      </trkpt>
      <trkpt lat="48.5877" lon="1.98925">
        <ele>121.4</ele>
        <time>2023-12-20T13:27:55Z</time>
      </trkpt>
      <trkpt lat="48.5877" lon="1.98919">
        <ele>121.4</ele>
        <time>2023-12-20T13:27:56Z</time>
      </trkpt>
      <trkpt lat="48.58771" lon="1.98912">
        <ele>121.4</ele>
        <time>2023-12-20T13:27:57Z</time>
      </trkpt>
      <trkpt lat="48.58773" lon="1.98906">
        <ele>121.4</ele>
        <time>2023-12-20T13:27:58Z</time>
      </trkpt>
      <trkpt lat="48.58775" lon="1.98899">
        <ele>121</ele>
        <time>2023-12-20T13:27:59Z</time>
      </trkpt>
      <trkpt lat="48.58777" lon="1.98892">
        <ele>121</ele>
        <time>2023-12-20T13:28:00Z</time>
      </trkpt>
      <trkpt lat="48.58779" lon="1.98884">
        <ele>121</ele>
        <time>2023-12-20T13:28:01Z</time>
      </trkpt>
      <trkpt lat="48.58781" lon="1.98876">
        <ele>120</ele>
        <time>2023-12-20T13:28:02Z</time>
      </trkpt>
      <trkpt lat="48.58784" lon="1.98868">
        <ele>118.2</ele>
        <time>2023-12-20T13:28:03Z</time>
      </trkpt>
      <trkpt lat="48.58785" lon="1.98859">
        <ele>118.2</ele>
        <time>2023-12-20T13:28:04Z</time>
      </trkpt>
      <trkpt lat="48.58785" lon="1.9885">
        <ele>118.2</ele>
        <time>2023-12-20T13:28:05Z</time>
      </trkpt>
      <trkpt lat="48.58783" lon="1.98841">
        <ele>118.2</ele>
        <time>2023-12-20T13:28:06Z</time>
      </trkpt>
      <trkpt lat="48.58779" lon="1.98834">
        <ele>118</ele>
        <time>2023-12-20T13:28:07Z</time>
      </trkpt>
      <trkpt lat="48.58773" lon="1.98829">
        <ele>118</ele>
        <time>2023-12-20T13:28:08Z</time>
      </trkpt>
      <trkpt lat="48.58767" lon="1.98827">
        <ele>118</ele>
        <time>2023-12-20T13:28:09Z</time>
      </trkpt>
      <trkpt lat="48.58761" lon="1.98825">
        <ele>118</ele>
        <time>2023-12-20T13:28:10Z</time>
      </trkpt>
      <trkpt lat="48.58755" lon="1.98823">
        <ele>118.4</ele>
        <time>2023-12-20T13:28:11Z</time>
      </trkpt>
      <trkpt lat="48.58749" lon="1.98821">
        <ele>118.4</ele>
        <time>2023-12-20T13:28:12Z</time>
      </trkpt>
      <trkpt lat="48.58743" lon="1.98819">
        <ele>118.4</ele>
        <time>2023-12-20T13:28:13Z</time>
      </trkpt>
      <trkpt lat="48.58737" lon="1.98816">
        <ele>118.4</ele>
        <time>2023-12-20T13:28:14Z</time>
      </trkpt>
      <trkpt lat="48.58731" lon="1.98814">
        <ele>118.2</ele>
        <time>2023-12-20T13:28:15Z</time>
      </trkpt>
      <trkpt lat="48.58725" lon="1.98811">
        <ele>118.2</ele>
        <time>2023-12-20T13:28:16Z</time>
      </trkpt>
      <trkpt lat="48.58719" lon="1.98808">
        <ele>118.2</ele>
        <time>2023-12-20T13:28:17Z</time>
      </trkpt>
      <trkpt lat="48.58713" lon="1.98805">
        <ele>118.2</ele>
        <time>2023-12-20T13:28:18Z</time>
      </trkpt>
      <trkpt lat="48.58708" lon="1.98802">
        <ele>118.2</ele>
        <time>2023-12-20T13:28:19Z</time>
      </trkpt>
      <trkpt lat="48.58702" lon="1.98798">
        <ele>118.2</ele>
        <time>2023-12-20T13:28:20Z</time>
      </trkpt>
      <trkpt lat="48.58696" lon="1.98794">
        <ele>118.2</ele>
        <time>2023-12-20T13:28:21Z</time>
      </trkpt>
      <trkpt lat="48.58689" lon="1.98791">
        <ele>117.4</ele>
        <time>2023-12-20T13:28:22Z</time>
      </trkpt>
      <trkpt lat="48.58683" lon="1.98788">
        <ele>117.4</ele>
        <time>2023-12-20T13:28:23Z</time>
      </trkpt>
      <trkpt lat="48.58677" lon="1.98785">
        <ele>117.4</ele>
        <time>2023-12-20T13:28:24Z</time>
      </trkpt>
      <trkpt lat="48.58672" lon="1.98782">
        <ele>117.4</ele>
        <time>2023-12-20T13:28:25Z</time>
      </trkpt>
      <trkpt lat="48.58666" lon="1.98778">
        <ele>117.4</ele>
        <time>2023-12-20T13:28:26Z</time>
      </trkpt>
      <trkpt lat="48.5866" lon="1.98774">
        <ele>115.8</ele>
        <time>2023-12-20T13:28:27Z</time>
      </trkpt>
      <trkpt lat="48.58655" lon="1.98771">
        <ele>115.8</ele>
        <time>2023-12-20T13:28:28Z</time>
      </trkpt>
      <trkpt lat="48.5865" lon="1.98767">
        <ele>115.8</ele>
        <time>2023-12-20T13:28:29Z</time>
      </trkpt>
      <trkpt lat="48.58644" lon="1.98764">
        <ele>115.8</ele>
        <time>2023-12-20T13:28:30Z</time>
      </trkpt>
      <trkpt lat="48.58639" lon="1.98761">
        <ele>116.4</ele>
        <time>2023-12-20T13:28:31Z</time>
      </trkpt>
      <trkpt lat="48.58634" lon="1.98758">
        <ele>116.4</ele>
        <time>2023-12-20T13:28:32Z</time>
      </trkpt>
      <trkpt lat="48.58628" lon="1.98755">
        <ele>116.4</ele>
        <time>2023-12-20T13:28:33Z</time>
      </trkpt>
      <trkpt lat="48.58623" lon="1.98752">
        <ele>115.4</ele>
        <time>2023-12-20T13:28:34Z</time>
      </trkpt>
      <trkpt lat="48.58617" lon="1.9875">
        <ele>115.4</ele>
        <time>2023-12-20T13:28:35Z</time>
      </trkpt>
      <trkpt lat="48.5861" lon="1.98747">
        <ele>115.4</ele>
        <time>2023-12-20T13:28:36Z</time>
      </trkpt>
      <trkpt lat="48.58604" lon="1.98744">
        <ele>115.4</ele>
        <time>2023-12-20T13:28:37Z</time>
      </trkpt>
      <trkpt lat="48.58598" lon="1.9874">
        <ele>115.4</ele>
        <time>2023-12-20T13:28:38Z</time>
      </trkpt>
      <trkpt lat="48.58591" lon="1.98736">
        <ele>114.6</ele>
        <time>2023-12-20T13:28:39Z</time>
      </trkpt>
      <trkpt lat="48.58585" lon="1.98732">
        <ele>114.6</ele>
        <time>2023-12-20T13:28:40Z</time>
      </trkpt>
      <trkpt lat="48.58579" lon="1.98727">
        <ele>114.6</ele>
        <time>2023-12-20T13:28:41Z</time>
      </trkpt>
      <trkpt lat="48.58572" lon="1.98721">
        <ele>114.4</ele>
        <time>2023-12-20T13:28:42Z</time>
      </trkpt>
      <trkpt lat="48.58567" lon="1.98714">
        <ele>113.4</ele>
        <time>2023-12-20T13:28:43Z</time>
      </trkpt>
      <trkpt lat="48.58562" lon="1.98706">
        <ele>113.4</ele>
        <time>2023-12-20T13:28:44Z</time>
      </trkpt>
      <trkpt lat="48.58558" lon="1.98696">
        <ele>113.4</ele>
        <time>2023-12-20T13:28:45Z</time>
      </trkpt>
      <trkpt lat="48.58555" lon="1.98685">
        <ele>112.4</ele>
        <time>2023-12-20T13:28:46Z</time>
      </trkpt>
      <trkpt lat="48.58553" lon="1.98674">
        <ele>112.2</ele>
        <time>2023-12-20T13:28:47Z</time>
      </trkpt>
      <trkpt lat="48.58552" lon="1.98663">
        <ele>112.2</ele>
        <time>2023-12-20T13:28:48Z</time>
      </trkpt>
      <trkpt lat="48.5855" lon="1.98651">
        <ele>112.2</ele>
        <time>2023-12-20T13:28:49Z</time>
      </trkpt>
      <trkpt lat="48.58549" lon="1.98639">
        <ele>111.8</ele>
        <time>2023-12-20T13:28:50Z</time>
      </trkpt>
      <trkpt lat="48.58548" lon="1.98628">
        <ele>112</ele>
        <time>2023-12-20T13:28:51Z</time>
      </trkpt>
      <trkpt lat="48.58546" lon="1.98616">
        <ele>112</ele>
        <time>2023-12-20T13:28:52Z</time>
      </trkpt>
      <trkpt lat="48.58545" lon="1.98604">
        <ele>112</ele>
        <time>2023-12-20T13:28:53Z</time>
      </trkpt>
      <trkpt lat="48.58544" lon="1.98593">
        <ele>112</ele>
        <time>2023-12-20T13:28:54Z</time>
      </trkpt>
      <trkpt lat="48.58542" lon="1.98581">
        <ele>111.8</ele>
        <time>2023-12-20T13:28:55Z</time>
      </trkpt>
      <trkpt lat="48.5854" lon="1.9857">
        <ele>111.8</ele>
        <time>2023-12-20T13:28:56Z</time>
      </trkpt>
      <trkpt lat="48.58538" lon="1.98559">
        <ele>111.8</ele>
        <time>2023-12-20T13:28:57Z</time>
      </trkpt>
      <trkpt lat="48.58537" lon="1.98548">
        <ele>111.8</ele>
        <time>2023-12-20T13:28:58Z</time>
      </trkpt>
      <trkpt lat="48.58535" lon="1.98538">
        <ele>112.2</ele>
        <time>2023-12-20T13:28:59Z</time>
      </trkpt>
      <trkpt lat="48.58533" lon="1.98527">
        <ele>112.2</ele>
        <time>2023-12-20T13:29:00Z</time>
      </trkpt>
      <trkpt lat="48.58531" lon="1.98518">
        <ele>112.2</ele>
        <time>2023-12-20T13:29:01Z</time>
      </trkpt>
      <trkpt lat="48.5853" lon="1.98509">
        <ele>113</ele>
        <time>2023-12-20T13:29:02Z</time>
      </trkpt>
      <trkpt lat="48.58529" lon="1.98499">
        <ele>113.4</ele>
        <time>2023-12-20T13:29:03Z</time>
      </trkpt>
      <trkpt lat="48.58527" lon="1.9849">
        <ele>113.4</ele>
        <time>2023-12-20T13:29:04Z</time>
      </trkpt>
      <trkpt lat="48.58526" lon="1.98481">
        <ele>113.4</ele>
        <time>2023-12-20T13:29:05Z</time>
      </trkpt>
      <trkpt lat="48.58525" lon="1.98471">
        <ele>113.4</ele>
        <time>2023-12-20T13:29:06Z</time>
      </trkpt>
      <trkpt lat="48.58524" lon="1.98462">
        <ele>113.6</ele>
        <time>2023-12-20T13:29:07Z</time>
      </trkpt>
      <trkpt lat="48.58523" lon="1.98453">
        <ele>113.6</ele>
        <time>2023-12-20T13:29:08Z</time>
      </trkpt>
      <trkpt lat="48.58521" lon="1.98444">
        <ele>113.6</ele>
        <time>2023-12-20T13:29:09Z</time>
      </trkpt>
      <trkpt lat="48.5852" lon="1.98435">
        <ele>113.6</ele>
        <time>2023-12-20T13:29:10Z</time>
      </trkpt>
      <trkpt lat="48.5852" lon="1.98427">
        <ele>114</ele>
        <time>2023-12-20T13:29:11Z</time>
      </trkpt>
      <trkpt lat="48.58519" lon="1.98418">
        <ele>114</ele>
        <time>2023-12-20T13:29:12Z</time>
      </trkpt>
      <trkpt lat="48.58518" lon="1.9841">
        <ele>114</ele>
        <time>2023-12-20T13:29:13Z</time>
      </trkpt>
      <trkpt lat="48.58517" lon="1.98402">
        <ele>115</ele>
        <time>2023-12-20T13:29:14Z</time>
      </trkpt>
      <trkpt lat="48.58517" lon="1.98394">
        <ele>115.8</ele>
        <time>2023-12-20T13:29:15Z</time>
      </trkpt>
      <trkpt lat="48.58516" lon="1.98387">
        <ele>115.8</ele>
        <time>2023-12-20T13:29:16Z</time>
      </trkpt>
      <trkpt lat="48.58515" lon="1.98381">
        <ele>115.8</ele>
        <time>2023-12-20T13:29:17Z</time>
      </trkpt>
      <trkpt lat="48.58513" lon="1.98376">
        <ele>116.8</ele>
        <time>2023-12-20T13:29:18Z</time>
      </trkpt>
      <trkpt lat="48.5851" lon="1.98373">
        <ele>116.2</ele>
        <time>2023-12-20T13:29:19Z</time>
      </trkpt>
      <trkpt lat="48.58506" lon="1.98372">
        <ele>116.2</ele>
        <time>2023-12-20T13:29:20Z</time>
      </trkpt>
      <trkpt lat="48.58502" lon="1.98372">
        <ele>116.2</ele>
        <time>2023-12-20T13:29:21Z</time>
      </trkpt>
      <trkpt lat="48.58497" lon="1.98374">
        <ele>116.2</ele>
        <time>2023-12-20T13:29:22Z</time>
      </trkpt>
      <trkpt lat="48.58492" lon="1.98376">
        <ele>116</ele>
        <time>2023-12-20T13:29:23Z</time>
      </trkpt>
      <trkpt lat="48.58486" lon="1.98379">
        <ele>116</ele>
        <time>2023-12-20T13:29:24Z</time>
      </trkpt>
      <trkpt lat="48.5848" lon="1.98381">
        <ele>116</ele>
        <time>2023-12-20T13:29:25Z</time>
      </trkpt>
      <trkpt lat="48.58475" lon="1.98382">
        <ele>115.8</ele>
        <time>2023-12-20T13:29:26Z</time>
      </trkpt>
      <trkpt lat="48.58469" lon="1.98384">
        <ele>115</ele>
        <time>2023-12-20T13:29:27Z</time>
      </trkpt>
      <trkpt lat="48.58463" lon="1.98386">
        <ele>115</ele>
        <time>2023-12-20T13:29:28Z</time>
      </trkpt>
      <trkpt lat="48.58457" lon="1.98388">
        <ele>115</ele>
        <time>2023-12-20T13:29:29Z</time>
      </trkpt>
      <trkpt lat="48.5845" lon="1.9839">
        <ele>114.8</ele>
        <time>2023-12-20T13:29:30Z</time>
      </trkpt>
      <trkpt lat="48.58444" lon="1.98392">
        <ele>114.8</ele>
        <time>2023-12-20T13:29:31Z</time>
      </trkpt>
      <trkpt lat="48.58438" lon="1.98394">
        <ele>114.8</ele>
        <time>2023-12-20T13:29:32Z</time>
      </trkpt>
      <trkpt lat="48.58431" lon="1.98396">
        <ele>114.8</ele>
        <time>2023-12-20T13:29:33Z</time>
      </trkpt>
      <trkpt lat="48.58425" lon="1.98399">
        <ele>113.8</ele>
        <time>2023-12-20T13:29:34Z</time>
      </trkpt>
      <trkpt lat="48.58418" lon="1.98401">
        <ele>114</ele>
        <time>2023-12-20T13:29:35Z</time>
      </trkpt>
      <trkpt lat="48.58412" lon="1.98403">
        <ele>114</ele>
        <time>2023-12-20T13:29:36Z</time>
      </trkpt>
      <trkpt lat="48.58405" lon="1.98405">
        <ele>114</ele>
        <time>2023-12-20T13:29:37Z</time>
      </trkpt>
      <trkpt lat="48.58399" lon="1.98408">
        <ele>114.4</ele>
        <time>2023-12-20T13:29:38Z</time>
      </trkpt>
      <trkpt lat="48.58392" lon="1.9841">
        <ele>113.6</ele>
        <time>2023-12-20T13:29:39Z</time>
      </trkpt>
      <trkpt lat="48.58385" lon="1.98412">
        <ele>113.6</ele>
        <time>2023-12-20T13:29:40Z</time>
      </trkpt>
      <trkpt lat="48.58378" lon="1.98414">
        <ele>113.6</ele>
        <time>2023-12-20T13:29:41Z</time>
      </trkpt>
      <trkpt lat="48.58371" lon="1.98417">
        <ele>113</ele>
        <time>2023-12-20T13:29:42Z</time>
      </trkpt>
      <trkpt lat="48.58365" lon="1.98419">
        <ele>113.8</ele>
        <time>2023-12-20T13:29:43Z</time>
      </trkpt>
      <trkpt lat="48.58358" lon="1.98421">
        <ele>113.8</ele>
        <time>2023-12-20T13:29:44Z</time>
      </trkpt>
      <trkpt lat="48.58351" lon="1.98424">
        <ele>113.8</ele>
        <time>2023-12-20T13:29:45Z</time>
      </trkpt>
      <trkpt lat="48.58344" lon="1.98427">
        <ele>113.8</ele>
        <time>2023-12-20T13:29:46Z</time>
      </trkpt>
      <trkpt lat="48.58337" lon="1.98429">
        <ele>113.6</ele>
        <time>2023-12-20T13:29:47Z</time>
      </trkpt>
      <trkpt lat="48.58331" lon="1.98431">
        <ele>113.6</ele>
        <time>2023-12-20T13:29:48Z</time>
      </trkpt>
      <trkpt lat="48.58324" lon="1.98433">
        <ele>113.6</ele>
        <time>2023-12-20T13:29:49Z</time>
      </trkpt>
      <trkpt lat="48.58318" lon="1.98436">
        <ele>114.6</ele>
        <time>2023-12-20T13:29:50Z</time>
      </trkpt>
      <trkpt lat="48.58312" lon="1.98437">
        <ele>115</ele>
        <time>2023-12-20T13:29:51Z</time>
      </trkpt>
      <trkpt lat="48.58307" lon="1.98439">
        <ele>115</ele>
        <time>2023-12-20T13:29:52Z</time>
      </trkpt>
      <trkpt lat="48.58302" lon="1.98441">
        <ele>115</ele>
        <time>2023-12-20T13:29:53Z</time>
      </trkpt>
      <trkpt lat="48.58299" lon="1.98443">
        <ele>115.4</ele>
        <time>2023-12-20T13:29:54Z</time>
      </trkpt>
      <trkpt lat="48.58298" lon="1.98449">
        <ele>115</ele>
        <time>2023-12-20T13:29:55Z</time>
      </trkpt>
      <trkpt lat="48.58298" lon="1.98454">
        <ele>115</ele>
        <time>2023-12-20T13:29:56Z</time>
      </trkpt>
      <trkpt lat="48.583" lon="1.9846">
        <ele>115</ele>
        <time>2023-12-20T13:29:57Z</time>
      </trkpt>
      <trkpt lat="48.58302" lon="1.98466">
        <ele>115</ele>
        <time>2023-12-20T13:29:58Z</time>
      </trkpt>
      <trkpt lat="48.58303" lon="1.98472">
        <ele>114.6</ele>
        <time>2023-12-20T13:29:59Z</time>
      </trkpt>
      <trkpt lat="48.58305" lon="1.98478">
        <ele>114.6</ele>
        <time>2023-12-20T13:30:00Z</time>
      </trkpt>
      <trkpt lat="48.58307" lon="1.98485">
        <ele>114.6</ele>
        <time>2023-12-20T13:30:01Z</time>
      </trkpt>
      <trkpt lat="48.58308" lon="1.98493">
        <ele>114.2</ele>
        <time>2023-12-20T13:30:02Z</time>
      </trkpt>
      <trkpt lat="48.5831" lon="1.98501">
        <ele>114</ele>
        <time>2023-12-20T13:30:03Z</time>
      </trkpt>
      <trkpt lat="48.58312" lon="1.98509">
        <ele>114</ele>
        <time>2023-12-20T13:30:04Z</time>
      </trkpt>
      <trkpt lat="48.58314" lon="1.98517">
        <ele>114</ele>
        <time>2023-12-20T13:30:05Z</time>
      </trkpt>
      <trkpt lat="48.58317" lon="1.98526">
        <ele>113.6</ele>
        <time>2023-12-20T13:30:06Z</time>
      </trkpt>
      <trkpt lat="48.58319" lon="1.98535">
        <ele>113.4</ele>
        <time>2023-12-20T13:30:07Z</time>
      </trkpt>
      <trkpt lat="48.58321" lon="1.98544">
        <ele>113.4</ele>
        <time>2023-12-20T13:30:08Z</time>
      </trkpt>
      <trkpt lat="48.58324" lon="1.98553">
        <ele>113.4</ele>
        <time>2023-12-20T13:30:09Z</time>
      </trkpt>
      <trkpt lat="48.58326" lon="1.98562">
        <ele>113.4</ele>
        <time>2023-12-20T13:30:10Z</time>
      </trkpt>
      <trkpt lat="48.58329" lon="1.98571">
        <ele>113</ele>
        <time>2023-12-20T13:30:11Z</time>
      </trkpt>
      <trkpt lat="48.58331" lon="1.9858">
        <ele>113</ele>
        <time>2023-12-20T13:30:12Z</time>
      </trkpt>
      <trkpt lat="48.58334" lon="1.98589">
        <ele>113</ele>
        <time>2023-12-20T13:30:13Z</time>
      </trkpt>
      <trkpt lat="48.58337" lon="1.98598">
        <ele>113.6</ele>
        <time>2023-12-20T13:30:14Z</time>
      </trkpt>
      <trkpt lat="48.58339" lon="1.98607">
        <ele>113.4</ele>
        <time>2023-12-20T13:30:15Z</time>
      </trkpt>
      <trkpt lat="48.58342" lon="1.98616">
        <ele>113.4</ele>
        <time>2023-12-20T13:30:16Z</time>
      </trkpt>
      <trkpt lat="48.58344" lon="1.98625">
        <ele>113.4</ele>
        <time>2023-12-20T13:30:17Z</time>
      </trkpt>
      <trkpt lat="48.58346" lon="1.98635">
        <ele>113.8</ele>
        <time>2023-12-20T13:30:18Z</time>
      </trkpt>
      <trkpt lat="48.58349" lon="1.98644">
        <ele>113.8</ele>
        <time>2023-12-20T13:30:19Z</time>
      </trkpt>
      <trkpt lat="48.58352" lon="1.98653">
        <ele>113.8</ele>
        <time>2023-12-20T13:30:20Z</time>
      </trkpt>
      <trkpt lat="48.58354" lon="1.98662">
        <ele>113.8</ele>
        <time>2023-12-20T13:30:21Z</time>
      </trkpt>
      <trkpt lat="48.58357" lon="1.98671">
        <ele>113.8</ele>
        <time>2023-12-20T13:30:22Z</time>
      </trkpt>
      <trkpt lat="48.58359" lon="1.98681">
        <ele>113.8</ele>
        <time>2023-12-20T13:30:23Z</time>
      </trkpt>
      <trkpt lat="48.58362" lon="1.9869">
        <ele>113.8</ele>
        <time>2023-12-20T13:30:24Z</time>
      </trkpt>
      <trkpt lat="48.58364" lon="1.98699">
        <ele>113.8</ele>
        <time>2023-12-20T13:30:25Z</time>
      </trkpt>
      <trkpt lat="48.58367" lon="1.98708">
        <ele>113.8</ele>
        <time>2023-12-20T13:30:26Z</time>
      </trkpt>
      <trkpt lat="48.58369" lon="1.98718">
        <ele>114</ele>
        <time>2023-12-20T13:30:27Z</time>
      </trkpt>
      <trkpt lat="48.58371" lon="1.98727">
        <ele>114</ele>
        <time>2023-12-20T13:30:28Z</time>
      </trkpt>
      <trkpt lat="48.58373" lon="1.98736">
        <ele>114</ele>
        <time>2023-12-20T13:30:29Z</time>
      </trkpt>
      <trkpt lat="48.58376" lon="1.98745">
        <ele>114</ele>
        <time>2023-12-20T13:30:30Z</time>
      </trkpt>
      <trkpt lat="48.58379" lon="1.98752">
        <ele>114.2</ele>
        <time>2023-12-20T13:30:31Z</time>
      </trkpt>
      <trkpt lat="48.58382" lon="1.9876">
        <ele>114.2</ele>
        <time>2023-12-20T13:30:32Z</time>
      </trkpt>
      <trkpt lat="48.58384" lon="1.98768">
        <ele>114.2</ele>
        <time>2023-12-20T13:30:33Z</time>
      </trkpt>
      <trkpt lat="48.58386" lon="1.98776">
        <ele>114.2</ele>
        <time>2023-12-20T13:30:34Z</time>
      </trkpt>
      <trkpt lat="48.58385" lon="1.98784">
        <ele>115</ele>
        <time>2023-12-20T13:30:35Z</time>
      </trkpt>
      <trkpt lat="48.58382" lon="1.98791">
        <ele>115</ele>
        <time>2023-12-20T13:30:36Z</time>
      </trkpt>
      <trkpt lat="48.58378" lon="1.98795">
        <ele>115</ele>
        <time>2023-12-20T13:30:37Z</time>
      </trkpt>
      <trkpt lat="48.58373" lon="1.98799">
        <ele>114.4</ele>
        <time>2023-12-20T13:30:38Z</time>
      </trkpt>
      <trkpt lat="48.58367" lon="1.98803">
        <ele>113.6</ele>
        <time>2023-12-20T13:30:39Z</time>
      </trkpt>
      <trkpt lat="48.58362" lon="1.98806">
        <ele>113.6</ele>
        <time>2023-12-20T13:30:40Z</time>
      </trkpt>
      <trkpt lat="48.58356" lon="1.9881">
        <ele>113.6</ele>
        <time>2023-12-20T13:30:41Z</time>
      </trkpt>
      <trkpt lat="48.5835" lon="1.98814">
        <ele>113.6</ele>
        <time>2023-12-20T13:30:42Z</time>
      </trkpt>
      <trkpt lat="48.58344" lon="1.98818">
        <ele>112.8</ele>
        <time>2023-12-20T13:30:43Z</time>
      </trkpt>
      <trkpt lat="48.58338" lon="1.98822">
        <ele>112.8</ele>
        <time>2023-12-20T13:30:44Z</time>
      </trkpt>
      <trkpt lat="48.58331" lon="1.98826">
        <ele>112.8</ele>
        <time>2023-12-20T13:30:45Z</time>
      </trkpt>
      <trkpt lat="48.58325" lon="1.9883">
        <ele>112.8</ele>
        <time>2023-12-20T13:30:46Z</time>
      </trkpt>
      <trkpt lat="48.58319" lon="1.98835">
        <ele>113</ele>
        <time>2023-12-20T13:30:47Z</time>
      </trkpt>
      <trkpt lat="48.58312" lon="1.98839">
        <ele>113</ele>
        <time>2023-12-20T13:30:48Z</time>
      </trkpt>
      <trkpt lat="48.58306" lon="1.98843">
        <ele>113</ele>
        <time>2023-12-20T13:30:49Z</time>
      </trkpt>
      <trkpt lat="48.58299" lon="1.98847">
        <ele>112.6</ele>
        <time>2023-12-20T13:30:50Z</time>
      </trkpt>
      <trkpt lat="48.58293" lon="1.98852">
        <ele>113</ele>
        <time>2023-12-20T13:30:51Z</time>
      </trkpt>
      <trkpt lat="48.58287" lon="1.98856">
        <ele>113</ele>
        <time>2023-12-20T13:30:52Z</time>
      </trkpt>
      <trkpt lat="48.58281" lon="1.9886">
        <ele>113</ele>
        <time>2023-12-20T13:30:53Z</time>
      </trkpt>
      <trkpt lat="48.58274" lon="1.98864">
        <ele>112.8</ele>
        <time>2023-12-20T13:30:54Z</time>
      </trkpt>
      <trkpt lat="48.58268" lon="1.98868">
        <ele>113</ele>
        <time>2023-12-20T13:30:55Z</time>
      </trkpt>
      <trkpt lat="48.58262" lon="1.98872">
        <ele>113</ele>
        <time>2023-12-20T13:30:56Z</time>
      </trkpt>
      <trkpt lat="48.58255" lon="1.98877">
        <ele>113</ele>
        <time>2023-12-20T13:30:57Z</time>
      </trkpt>
      <trkpt lat="48.58249" lon="1.98881">
        <ele>112.4</ele>
        <time>2023-12-20T13:30:58Z</time>
      </trkpt>
      <trkpt lat="48.58243" lon="1.98885">
        <ele>112.4</ele>
        <time>2023-12-20T13:30:59Z</time>
      </trkpt>
      <trkpt lat="48.58237" lon="1.98889">
        <ele>112.4</ele>
        <time>2023-12-20T13:31:00Z</time>
      </trkpt>
      <trkpt lat="48.5823" lon="1.98892">
        <ele>112.4</ele>
        <time>2023-12-20T13:31:01Z</time>
      </trkpt>
      <trkpt lat="48.58224" lon="1.98896">
        <ele>113.4</ele>
        <time>2023-12-20T13:31:02Z</time>
      </trkpt>
      <trkpt lat="48.58218" lon="1.989">
        <ele>113.4</ele>
        <time>2023-12-20T13:31:03Z</time>
      </trkpt>
      <trkpt lat="48.58212" lon="1.98904">
        <ele>113.4</ele>
        <time>2023-12-20T13:31:04Z</time>
      </trkpt>
      <trkpt lat="48.58206" lon="1.98907">
        <ele>113.4</ele>
        <time>2023-12-20T13:31:05Z</time>
      </trkpt>
      <trkpt lat="48.582" lon="1.98911">
        <ele>113</ele>
        <time>2023-12-20T13:31:06Z</time>
      </trkpt>
      <trkpt lat="48.58194" lon="1.98916">
        <ele>113.2</ele>
        <time>2023-12-20T13:31:07Z</time>
      </trkpt>
      <trkpt lat="48.58188" lon="1.9892">
        <ele>113.2</ele>
        <time>2023-12-20T13:31:08Z</time>
      </trkpt>
      <trkpt lat="48.58182" lon="1.98924">
        <ele>113.2</ele>
        <time>2023-12-20T13:31:09Z</time>
      </trkpt>
      <trkpt lat="48.58176" lon="1.98928">
        <ele>113.8</ele>
        <time>2023-12-20T13:31:10Z</time>
      </trkpt>
      <trkpt lat="48.5817" lon="1.98932">
        <ele>113.8</ele>
        <time>2023-12-20T13:31:11Z</time>
      </trkpt>
      <trkpt lat="48.58164" lon="1.98936">
        <ele>113.8</ele>
        <time>2023-12-20T13:31:12Z</time>
      </trkpt>
      <trkpt lat="48.58159" lon="1.98939">
        <ele>113.8</ele>
        <time>2023-12-20T13:31:13Z</time>
      </trkpt>
      <trkpt lat="48.58153" lon="1.98942">
        <ele>114</ele>
        <time>2023-12-20T13:31:14Z</time>
      </trkpt>
      <trkpt lat="48.58147" lon="1.98946">
        <ele>113.8</ele>
        <time>2023-12-20T13:31:15Z</time>
      </trkpt>
      <trkpt lat="48.58142" lon="1.98949">
        <ele>113.8</ele>
        <time>2023-12-20T13:31:16Z</time>
      </trkpt>
      <trkpt lat="48.58136" lon="1.98953">
        <ele>113.8</ele>
        <time>2023-12-20T13:31:17Z</time>
      </trkpt>
      <trkpt lat="48.58131" lon="1.98957">
        <ele>113.8</ele>
        <time>2023-12-20T13:31:18Z</time>
      </trkpt>
      <trkpt lat="48.58126" lon="1.98961">
        <ele>114.2</ele>
        <time>2023-12-20T13:31:19Z</time>
      </trkpt>
      <trkpt lat="48.5812" lon="1.98965">
        <ele>114.2</ele>
        <time>2023-12-20T13:31:20Z</time>
      </trkpt>
      <trkpt lat="48.58115" lon="1.98969">
        <ele>114.2</ele>
        <time>2023-12-20T13:31:21Z</time>
      </trkpt>
      <trkpt lat="48.58109" lon="1.98972">
        <ele>114.2</ele>
        <time>2023-12-20T13:31:22Z</time>
      </trkpt>
      <trkpt lat="48.58104" lon="1.98976">
        <ele>114</ele>
        <time>2023-12-20T13:31:23Z</time>
      </trkpt>
      <trkpt lat="48.58098" lon="1.98979">
        <ele>114</ele>
        <time>2023-12-20T13:31:24Z</time>
      </trkpt>
      <trkpt lat="48.58093" lon="1.98982">
        <ele>114</ele>
        <time>2023-12-20T13:31:25Z</time>
      </trkpt>
      <trkpt lat="48.58088" lon="1.98985">
        <ele>114</ele>
        <time>2023-12-20T13:31:26Z</time>
      </trkpt>
      <trkpt lat="48.58082" lon="1.98989">
        <ele>114</ele>
        <time>2023-12-20T13:31:27Z</time>
      </trkpt>
      <trkpt lat="48.58077" lon="1.98992">
        <ele>114</ele>
        <time>2023-12-20T13:31:28Z</time>
      </trkpt>
      <trkpt lat="48.58072" lon="1.98996">
        <ele>114</ele>
        <time>2023-12-20T13:31:29Z</time>
      </trkpt>
      <trkpt lat="48.58066" lon="1.98999">
        <ele>114</ele>
        <time>2023-12-20T13:31:30Z</time>
      </trkpt>
      <trkpt lat="48.58061" lon="1.99003">
        <ele>114.4</ele>
        <time>2023-12-20T13:31:31Z</time>
      </trkpt>
      <trkpt lat="48.58056" lon="1.99006">
        <ele>114.4</ele>
        <time>2023-12-20T13:31:32Z</time>
      </trkpt>
      <trkpt lat="48.5805" lon="1.9901">
        <ele>114.4</ele>
        <time>2023-12-20T13:31:33Z</time>
      </trkpt>
      <trkpt lat="48.58045" lon="1.99013">
        <ele>114.4</ele>
        <time>2023-12-20T13:31:34Z</time>
      </trkpt>
      <trkpt lat="48.5804" lon="1.99017">
        <ele>115</ele>
        <time>2023-12-20T13:31:35Z</time>
      </trkpt>
      <trkpt lat="48.58035" lon="1.99021">
        <ele>115</ele>
        <time>2023-12-20T13:31:36Z</time>
      </trkpt>
      <trkpt lat="48.5803" lon="1.99024">
        <ele>115</ele>
        <time>2023-12-20T13:31:37Z</time>
      </trkpt>
      <trkpt lat="48.58025" lon="1.99027">
        <ele>115</ele>
        <time>2023-12-20T13:31:38Z</time>
      </trkpt>
      <trkpt lat="48.58019" lon="1.9903">
        <ele>114.8</ele>
        <time>2023-12-20T13:31:39Z</time>
      </trkpt>
      <trkpt lat="48.58014" lon="1.99034">
        <ele>114.8</ele>
        <time>2023-12-20T13:31:40Z</time>
      </trkpt>
      <trkpt lat="48.58009" lon="1.99037">
        <ele>114.8</ele>
        <time>2023-12-20T13:31:41Z</time>
      </trkpt>
      <trkpt lat="48.58004" lon="1.9904">
        <ele>114.8</ele>
        <time>2023-12-20T13:31:42Z</time>
      </trkpt>
      <trkpt lat="48.58" lon="1.99043">
        <ele>115.8</ele>
        <time>2023-12-20T13:31:43Z</time>
      </trkpt>
      <trkpt lat="48.57996" lon="1.99047">
        <ele>115.8</ele>
        <time>2023-12-20T13:31:44Z</time>
      </trkpt>
      <trkpt lat="48.57992" lon="1.99049">
        <ele>115.8</ele>
        <time>2023-12-20T13:31:45Z</time>
      </trkpt>
      <trkpt lat="48.57987" lon="1.99052">
        <ele>115.8</ele>
        <time>2023-12-20T13:31:46Z</time>
      </trkpt>
      <trkpt lat="48.57983" lon="1.99055">
        <ele>115.4</ele>
        <time>2023-12-20T13:31:47Z</time>
      </trkpt>
      <trkpt lat="48.57979" lon="1.99058">
        <ele>115.4</ele>
        <time>2023-12-20T13:31:48Z</time>
      </trkpt>
      <trkpt lat="48.57974" lon="1.99061">
        <ele>115.4</ele>
        <time>2023-12-20T13:31:49Z</time>
      </trkpt>
      <trkpt lat="48.5797" lon="1.99064">
        <ele>114.8</ele>
        <time>2023-12-20T13:31:50Z</time>
      </trkpt>
      <trkpt lat="48.57965" lon="1.99067">
        <ele>114.6</ele>
        <time>2023-12-20T13:31:51Z</time>
      </trkpt>
      <trkpt lat="48.57961" lon="1.99071">
        <ele>114.6</ele>
        <time>2023-12-20T13:31:52Z</time>
      </trkpt>
      <trkpt lat="48.57956" lon="1.99074">
        <ele>114.6</ele>
        <time>2023-12-20T13:31:53Z</time>
      </trkpt>
      <trkpt lat="48.57952" lon="1.99077">
        <ele>114.6</ele>
        <time>2023-12-20T13:31:54Z</time>
      </trkpt>
      <trkpt lat="48.57947" lon="1.9908">
        <ele>114</ele>
        <time>2023-12-20T13:31:55Z</time>
      </trkpt>
      <trkpt lat="48.57942" lon="1.99083">
        <ele>114</ele>
        <time>2023-12-20T13:31:56Z</time>
      </trkpt>
      <trkpt lat="48.57938" lon="1.99086">
        <ele>114</ele>
        <time>2023-12-20T13:31:57Z</time>
      </trkpt>
      <trkpt lat="48.57933" lon="1.99089">
        <ele>114</ele>
        <time>2023-12-20T13:31:58Z</time>
      </trkpt>
      <trkpt lat="48.57928" lon="1.99092">
        <ele>113.8</ele>
        <time>2023-12-20T13:31:59Z</time>
      </trkpt>
      <trkpt lat="48.57923" lon="1.99095">
        <ele>113.8</ele>
        <time>2023-12-20T13:32:00Z</time>
      </trkpt>
      <trkpt lat="48.57919" lon="1.99097">
        <ele>113.8</ele>
        <time>2023-12-20T13:32:01Z</time>
      </trkpt>
      <trkpt lat="48.57915" lon="1.99098">
        <ele>114.6</ele>
        <time>2023-12-20T13:32:02Z</time>
      </trkpt>
      <trkpt lat="48.57914" lon="1.99099">
        <ele>114.8</ele>
        <time>2023-12-20T13:32:03Z</time>
      </trkpt>
      <trkpt lat="48.57914" lon="1.991">
        <ele>113.8</ele>
        <time>2023-12-20T13:32:24Z</time>
      </trkpt>
      <trkpt lat="48.57913" lon="1.99101">
        <ele>113.8</ele>
        <time>2023-12-20T13:32:25Z</time>
      </trkpt>
      <trkpt lat="48.57911" lon="1.99103">
        <ele>113.8</ele>
        <time>2023-12-20T13:32:26Z</time>
      </trkpt>
      <trkpt lat="48.57909" lon="1.99105">
        <ele>113.6</ele>
        <time>2023-12-20T13:32:27Z</time>
      </trkpt>
      <trkpt lat="48.57906" lon="1.99107">
        <ele>113.6</ele>
        <time>2023-12-20T13:32:28Z</time>
      </trkpt>
      <trkpt lat="48.57903" lon="1.99108">
        <ele>113.6</ele>
        <time>2023-12-20T13:32:29Z</time>
      </trkpt>
      <trkpt lat="48.579" lon="1.9911">
        <ele>113.6</ele>
        <time>2023-12-20T13:32:30Z</time>
      </trkpt>
      <trkpt lat="48.57896" lon="1.99112">
        <ele>112.2</ele>
        <time>2023-12-20T13:32:31Z</time>
      </trkpt>
      <trkpt lat="48.57892" lon="1.99115">
        <ele>112.2</ele>
        <time>2023-12-20T13:32:32Z</time>
      </trkpt>
      <trkpt lat="48.57888" lon="1.99118">
        <ele>112.2</ele>
        <time>2023-12-20T13:32:33Z</time>
      </trkpt>
      <trkpt lat="48.57883" lon="1.99121">
        <ele>111.8</ele>
        <time>2023-12-20T13:32:34Z</time>
      </trkpt>
      <trkpt lat="48.57879" lon="1.99125">
        <ele>111.2</ele>
        <time>2023-12-20T13:32:35Z</time>
      </trkpt>
      <trkpt lat="48.57875" lon="1.99128">
        <ele>111.2</ele>
        <time>2023-12-20T13:32:36Z</time>
      </trkpt>
      <trkpt lat="48.57871" lon="1.99132">
        <ele>111.2</ele>
        <time>2023-12-20T13:32:37Z</time>
      </trkpt>
      <trkpt lat="48.57867" lon="1.99136">
        <ele>111.2</ele>
        <time>2023-12-20T13:32:38Z</time>
      </trkpt>
      <trkpt lat="48.57865" lon="1.99142">
        <ele>110.2</ele>
        <time>2023-12-20T13:32:39Z</time>
      </trkpt>
      <trkpt lat="48.57863" lon="1.9915">
        <ele>110.2</ele>
        <time>2023-12-20T13:32:40Z</time>
      </trkpt>
      <trkpt lat="48.57862" lon="1.99159">
        <ele>110.2</ele>
        <time>2023-12-20T13:32:41Z</time>
      </trkpt>
      <trkpt lat="48.57863" lon="1.99168">
        <ele>110.2</ele>
        <time>2023-12-20T13:32:42Z</time>
      </trkpt>
      <trkpt lat="48.57863" lon="1.99178">
        <ele>110.4</ele>
        <time>2023-12-20T13:32:43Z</time>
      </trkpt>
      <trkpt lat="48.57863" lon="1.99187">
        <ele>110.4</ele>
        <time>2023-12-20T13:32:44Z</time>
      </trkpt>
      <trkpt lat="48.57862" lon="1.99196">
        <ele>110.4</ele>
        <time>2023-12-20T13:32:45Z</time>
      </trkpt>
      <trkpt lat="48.57862" lon="1.99205">
        <ele>110.4</ele>
        <time>2023-12-20T13:32:46Z</time>
      </trkpt>
      <trkpt lat="48.57862" lon="1.99215">
        <ele>111</ele>
        <time>2023-12-20T13:32:47Z</time>
      </trkpt>
      <trkpt lat="48.57862" lon="1.99224">
        <ele>111</ele>
        <time>2023-12-20T13:32:48Z</time>
      </trkpt>
      <trkpt lat="48.57861" lon="1.99234">
        <ele>111</ele>
        <time>2023-12-20T13:32:49Z</time>
      </trkpt>
      <trkpt lat="48.57861" lon="1.99243">
        <ele>111</ele>
        <time>2023-12-20T13:32:50Z</time>
      </trkpt>
      <trkpt lat="48.5786" lon="1.99253">
        <ele>111.2</ele>
        <time>2023-12-20T13:32:51Z</time>
      </trkpt>
      <trkpt lat="48.57859" lon="1.99262">
        <ele>111.2</ele>
        <time>2023-12-20T13:32:52Z</time>
      </trkpt>
      <trkpt lat="48.57859" lon="1.99272">
        <ele>111.2</ele>
        <time>2023-12-20T13:32:53Z</time>
      </trkpt>
      <trkpt lat="48.57858" lon="1.99281">
        <ele>111.4</ele>
        <time>2023-12-20T13:32:54Z</time>
      </trkpt>
      <trkpt lat="48.57858" lon="1.99291">
        <ele>111.4</ele>
        <time>2023-12-20T13:32:55Z</time>
      </trkpt>
      <trkpt lat="48.57857" lon="1.99301">
        <ele>111.4</ele>
        <time>2023-12-20T13:32:56Z</time>
      </trkpt>
      <trkpt lat="48.57857" lon="1.9931">
        <ele>111.4</ele>
        <time>2023-12-20T13:32:57Z</time>
      </trkpt>
      <trkpt lat="48.57857" lon="1.9932">
        <ele>110.8</ele>
        <time>2023-12-20T13:32:58Z</time>
      </trkpt>
      <trkpt lat="48.57856" lon="1.9933">
        <ele>111</ele>
        <time>2023-12-20T13:32:59Z</time>
      </trkpt>
      <trkpt lat="48.57856" lon="1.9934">
        <ele>111</ele>
        <time>2023-12-20T13:33:00Z</time>
      </trkpt>
      <trkpt lat="48.57856" lon="1.9935">
        <ele>111</ele>
        <time>2023-12-20T13:33:01Z</time>
      </trkpt>
      <trkpt lat="48.57856" lon="1.9936">
        <ele>112</ele>
        <time>2023-12-20T13:33:02Z</time>
      </trkpt>
      <trkpt lat="48.57855" lon="1.99369">
        <ele>112.8</ele>
        <time>2023-12-20T13:33:03Z</time>
      </trkpt>
      <trkpt lat="48.57854" lon="1.99376">
        <ele>112.8</ele>
        <time>2023-12-20T13:33:04Z</time>
      </trkpt>
      <trkpt lat="48.57853" lon="1.99381">
        <ele>112.8</ele>
        <time>2023-12-20T13:33:05Z</time>
      </trkpt>
      <trkpt lat="48.57853" lon="1.99383">
        <ele>112.6</ele>
        <time>2023-12-20T13:33:06Z</time>
      </trkpt>
      <trkpt lat="48.57853" lon="1.99383">
        <ele>112.4</ele>
        <time>2023-12-20T13:34:39Z</time>
      </trkpt>
      <trkpt lat="48.57852" lon="1.99387">
        <ele>112.4</ele>
        <time>2023-12-20T13:34:40Z</time>
      </trkpt>
      <trkpt lat="48.57852" lon="1.99391">
        <ele>112.4</ele>
        <time>2023-12-20T13:34:41Z</time>
      </trkpt>
      <trkpt lat="48.57852" lon="1.99395">
        <ele>112.2</ele>
        <time>2023-12-20T13:34:42Z</time>
      </trkpt>
      <trkpt lat="48.57852" lon="1.994">
        <ele>111.8</ele>
        <time>2023-12-20T13:34:43Z</time>
      </trkpt>
      <trkpt lat="48.57852" lon="1.99406">
        <ele>111.8</ele>
        <time>2023-12-20T13:34:44Z</time>
      </trkpt>
      <trkpt lat="48.57852" lon="1.99413">
        <ele>111.8</ele>
        <time>2023-12-20T13:34:45Z</time>
      </trkpt>
      <trkpt lat="48.57852" lon="1.99421">
        <ele>110.8</ele>
        <time>2023-12-20T13:34:46Z</time>
      </trkpt>
      <trkpt lat="48.57852" lon="1.99431">
        <ele>110.4</ele>
        <time>2023-12-20T13:34:47Z</time>
      </trkpt>
      <trkpt lat="48.57852" lon="1.9944">
        <ele>110.4</ele>
        <time>2023-12-20T13:34:48Z</time>
      </trkpt>
      <trkpt lat="48.57852" lon="1.9945">
        <ele>110.4</ele>
        <time>2023-12-20T13:34:49Z</time>
      </trkpt>
      <trkpt lat="48.57852" lon="1.9946">
        <ele>110.4</ele>
        <time>2023-12-20T13:34:50Z</time>
      </trkpt>
      <trkpt lat="48.57852" lon="1.9947">
        <ele>110.2</ele>
        <time>2023-12-20T13:34:51Z</time>
      </trkpt>
      <trkpt lat="48.57852" lon="1.99481">
        <ele>110.2</ele>
        <time>2023-12-20T13:34:52Z</time>
      </trkpt>
      <trkpt lat="48.57851" lon="1.99492">
        <ele>110.2</ele>
        <time>2023-12-20T13:34:53Z</time>
      </trkpt>
      <trkpt lat="48.57851" lon="1.99503">
        <ele>109.6</ele>
        <time>2023-12-20T13:34:54Z</time>
      </trkpt>
      <trkpt lat="48.57851" lon="1.99514">
        <ele>109</ele>
        <time>2023-12-20T13:34:55Z</time>
      </trkpt>
      <trkpt lat="48.5785" lon="1.99525">
        <ele>109</ele>
        <time>2023-12-20T13:34:56Z</time>
      </trkpt>
      <trkpt lat="48.5785" lon="1.99536">
        <ele>109</ele>
        <time>2023-12-20T13:34:57Z</time>
      </trkpt>
      <trkpt lat="48.5785" lon="1.99548">
        <ele>109</ele>
        <time>2023-12-20T13:34:58Z</time>
      </trkpt>
      <trkpt lat="48.5785" lon="1.99559">
        <ele>109</ele>
        <time>2023-12-20T13:34:59Z</time>
      </trkpt>
      <trkpt lat="48.5785" lon="1.99571">
        <ele>109</ele>
        <time>2023-12-20T13:35:00Z</time>
      </trkpt>
      <trkpt lat="48.57849" lon="1.99583">
        <ele>109</ele>
        <time>2023-12-20T13:35:01Z</time>
      </trkpt>
      <trkpt lat="48.57849" lon="1.99595">
        <ele>108</ele>
        <time>2023-12-20T13:35:02Z</time>
      </trkpt>
      <trkpt lat="48.57849" lon="1.99608">
        <ele>107</ele>
        <time>2023-12-20T13:35:03Z</time>
      </trkpt>
      <trkpt lat="48.57849" lon="1.9962">
        <ele>107</ele>
        <time>2023-12-20T13:35:04Z</time>
      </trkpt>
      <trkpt lat="48.57849" lon="1.99633">
        <ele>107</ele>
        <time>2023-12-20T13:35:05Z</time>
      </trkpt>
      <trkpt lat="48.57849" lon="1.99645">
        <ele>107.4</ele>
        <time>2023-12-20T13:35:06Z</time>
      </trkpt>
      <trkpt lat="48.57849" lon="1.99658">
        <ele>107.2</ele>
        <time>2023-12-20T13:35:07Z</time>
      </trkpt>
      <trkpt lat="48.5785" lon="1.99671">
        <ele>107.2</ele>
        <time>2023-12-20T13:35:08Z</time>
      </trkpt>
      <trkpt lat="48.57851" lon="1.99684">
        <ele>107.2</ele>
        <time>2023-12-20T13:35:09Z</time>
      </trkpt>
      <trkpt lat="48.57852" lon="1.99698">
        <ele>106.2</ele>
        <time>2023-12-20T13:35:10Z</time>
      </trkpt>
      <trkpt lat="48.57853" lon="1.99711">
        <ele>105.8</ele>
        <time>2023-12-20T13:35:11Z</time>
      </trkpt>
      <trkpt lat="48.57854" lon="1.99724">
        <ele>105.8</ele>
        <time>2023-12-20T13:35:12Z</time>
      </trkpt>
      <trkpt lat="48.57856" lon="1.99738">
        <ele>105.8</ele>
        <time>2023-12-20T13:35:13Z</time>
      </trkpt>
      <trkpt lat="48.57858" lon="1.99751">
        <ele>104.8</ele>
        <time>2023-12-20T13:35:14Z</time>
      </trkpt>
      <trkpt lat="48.5786" lon="1.99764">
        <ele>103.4</ele>
        <time>2023-12-20T13:35:15Z</time>
      </trkpt>
      <trkpt lat="48.57862" lon="1.99778">
        <ele>103.4</ele>
        <time>2023-12-20T13:35:16Z</time>
      </trkpt>
      <trkpt lat="48.57865" lon="1.99791">
        <ele>103.4</ele>
        <time>2023-12-20T13:35:17Z</time>
      </trkpt>
      <trkpt lat="48.57868" lon="1.99805">
        <ele>103.4</ele>
        <time>2023-12-20T13:35:18Z</time>
      </trkpt>
      <trkpt lat="48.57871" lon="1.99818">
        <ele>102.2</ele>
        <time>2023-12-20T13:35:19Z</time>
      </trkpt>
      <trkpt lat="48.57874" lon="1.9983">
        <ele>102.2</ele>
        <time>2023-12-20T13:35:20Z</time>
      </trkpt>
      <trkpt lat="48.57878" lon="1.99842">
        <ele>102.2</ele>
        <time>2023-12-20T13:35:21Z</time>
      </trkpt>
      <trkpt lat="48.57881" lon="1.99853">
        <ele>102.8</ele>
        <time>2023-12-20T13:35:22Z</time>
      </trkpt>
      <trkpt lat="48.57884" lon="1.99864">
        <ele>102.4</ele>
        <time>2023-12-20T13:35:23Z</time>
      </trkpt>
      <trkpt lat="48.57887" lon="1.99874">
        <ele>102.4</ele>
        <time>2023-12-20T13:35:24Z</time>
      </trkpt>
      <trkpt lat="48.57891" lon="1.99885">
        <ele>102.4</ele>
        <time>2023-12-20T13:35:25Z</time>
      </trkpt>
      <trkpt lat="48.57894" lon="1.99896">
        <ele>102.8</ele>
        <time>2023-12-20T13:35:26Z</time>
      </trkpt>
      <trkpt lat="48.57896" lon="1.99907">
        <ele>102.8</ele>
        <time>2023-12-20T13:35:27Z</time>
      </trkpt>
      <trkpt lat="48.57898" lon="1.99918">
        <ele>102.8</ele>
        <time>2023-12-20T13:35:28Z</time>
      </trkpt>
      <trkpt lat="48.57902" lon="1.99929">
        <ele>102.8</ele>
        <time>2023-12-20T13:35:29Z</time>
      </trkpt>
      <trkpt lat="48.57905" lon="1.9994">
        <ele>103.6</ele>
        <time>2023-12-20T13:35:30Z</time>
      </trkpt>
      <trkpt lat="48.57908" lon="1.9995">
        <ele>104.8</ele>
        <time>2023-12-20T13:35:31Z</time>
      </trkpt>
      <trkpt lat="48.57911" lon="1.9996">
        <ele>104.8</ele>
        <time>2023-12-20T13:35:32Z</time>
      </trkpt>
      <trkpt lat="48.57914" lon="1.9997">
        <ele>104.8</ele>
        <time>2023-12-20T13:35:33Z</time>
      </trkpt>
      <trkpt lat="48.57916" lon="1.99979">
        <ele>104.8</ele>
        <time>2023-12-20T13:35:34Z</time>
      </trkpt>
      <trkpt lat="48.5792" lon="1.99988">
        <ele>105.8</ele>
        <time>2023-12-20T13:35:35Z</time>
      </trkpt>
      <trkpt lat="48.57922" lon="1.99996">
        <ele>105.8</ele>
        <time>2023-12-20T13:35:36Z</time>
      </trkpt>
      <trkpt lat="48.57924" lon="2.00005">
        <ele>105.8</ele>
        <time>2023-12-20T13:35:37Z</time>
      </trkpt>
      <trkpt lat="48.57926" lon="2.00013">
        <ele>106.8</ele>
        <time>2023-12-20T13:35:38Z</time>
      </trkpt>
      <trkpt lat="48.57928" lon="2.0002">
        <ele>107.4</ele>
        <time>2023-12-20T13:35:39Z</time>
      </trkpt>
      <trkpt lat="48.5793" lon="2.00027">
        <ele>107.4</ele>
        <time>2023-12-20T13:35:40Z</time>
      </trkpt>
      <trkpt lat="48.57932" lon="2.00034">
        <ele>107.4</ele>
        <time>2023-12-20T13:35:41Z</time>
      </trkpt>
      <trkpt lat="48.57935" lon="2.00041">
        <ele>108.4</ele>
        <time>2023-12-20T13:35:42Z</time>
      </trkpt>
      <trkpt lat="48.57937" lon="2.00048">
        <ele>108.8</ele>
        <time>2023-12-20T13:35:43Z</time>
      </trkpt>
      <trkpt lat="48.5794" lon="2.00054">
        <ele>108.8</ele>
        <time>2023-12-20T13:35:44Z</time>
      </trkpt>
      <trkpt lat="48.57943" lon="2.0006">
        <ele>108.8</ele>
        <time>2023-12-20T13:35:45Z</time>
      </trkpt>
      <trkpt lat="48.57945" lon="2.00065">
        <ele>109.2</ele>
        <time>2023-12-20T13:35:46Z</time>
      </trkpt>
      <trkpt lat="48.57948" lon="2.00071">
        <ele>109.6</ele>
        <time>2023-12-20T13:35:47Z</time>
      </trkpt>
      <trkpt lat="48.57951" lon="2.00076">
        <ele>109.6</ele>
        <time>2023-12-20T13:35:48Z</time>
      </trkpt>
      <trkpt lat="48.57954" lon="2.00082">
        <ele>109.6</ele>
        <time>2023-12-20T13:35:49Z</time>
      </trkpt>
      <trkpt lat="48.57957" lon="2.00087">
        <ele>110.6</ele>
        <time>2023-12-20T13:35:50Z</time>
      </trkpt>
      <trkpt lat="48.57961" lon="2.00092">
        <ele>111</ele>
        <time>2023-12-20T13:35:51Z</time>
      </trkpt>
      <trkpt lat="48.57964" lon="2.00098">
        <ele>111</ele>
        <time>2023-12-20T13:35:52Z</time>
      </trkpt>
      <trkpt lat="48.57967" lon="2.00103">
        <ele>111</ele>
        <time>2023-12-20T13:35:53Z</time>
      </trkpt>
      <trkpt lat="48.5797" lon="2.00108">
        <ele>111</ele>
        <time>2023-12-20T13:35:54Z</time>
      </trkpt>
      <trkpt lat="48.57972" lon="2.00113">
        <ele>111.8</ele>
        <time>2023-12-20T13:35:55Z</time>
      </trkpt>
      <trkpt lat="48.57975" lon="2.00117">
        <ele>111.8</ele>
        <time>2023-12-20T13:35:56Z</time>
      </trkpt>
      <trkpt lat="48.57977" lon="2.00122">
        <ele>111.8</ele>
        <time>2023-12-20T13:35:57Z</time>
      </trkpt>
      <trkpt lat="48.5798" lon="2.00127">
        <ele>111.8</ele>
        <time>2023-12-20T13:35:58Z</time>
      </trkpt>
      <trkpt lat="48.57983" lon="2.00132">
        <ele>113</ele>
        <time>2023-12-20T13:35:59Z</time>
      </trkpt>
      <trkpt lat="48.57986" lon="2.00137">
        <ele>113</ele>
        <time>2023-12-20T13:36:00Z</time>
      </trkpt>
      <trkpt lat="48.57989" lon="2.00142">
        <ele>113</ele>
        <time>2023-12-20T13:36:01Z</time>
      </trkpt>
      <trkpt lat="48.57991" lon="2.00147">
        <ele>113.4</ele>
        <time>2023-12-20T13:36:02Z</time>
      </trkpt>
      <trkpt lat="48.57994" lon="2.00152">
        <ele>113</ele>
        <time>2023-12-20T13:36:03Z</time>
      </trkpt>
      <trkpt lat="48.57996" lon="2.00156">
        <ele>113</ele>
        <time>2023-12-20T13:36:04Z</time>
      </trkpt>
      <trkpt lat="48.57999" lon="2.00161">
        <ele>113</ele>
        <time>2023-12-20T13:36:05Z</time>
      </trkpt>
      <trkpt lat="48.58001" lon="2.00166">
        <ele>114</ele>
        <time>2023-12-20T13:36:06Z</time>
      </trkpt>
      <trkpt lat="48.58003" lon="2.0017">
        <ele>114.4</ele>
        <time>2023-12-20T13:36:07Z</time>
      </trkpt>
      <trkpt lat="48.58006" lon="2.00174">
        <ele>114.4</ele>
        <time>2023-12-20T13:36:08Z</time>
      </trkpt>
      <trkpt lat="48.58008" lon="2.00178">
        <ele>114.4</ele>
        <time>2023-12-20T13:36:09Z</time>
      </trkpt>
      <trkpt lat="48.58011" lon="2.00182">
        <ele>115</ele>
        <time>2023-12-20T13:36:10Z</time>
      </trkpt>
      <trkpt lat="48.58014" lon="2.00187">
        <ele>115.6</ele>
        <time>2023-12-20T13:36:11Z</time>
      </trkpt>
      <trkpt lat="48.58016" lon="2.00191">
        <ele>115.6</ele>
        <time>2023-12-20T13:36:12Z</time>
      </trkpt>
      <trkpt lat="48.58018" lon="2.00196">
        <ele>115.6</ele>
        <time>2023-12-20T13:36:13Z</time>
      </trkpt>
      <trkpt lat="48.58021" lon="2.002">
        <ele>116.4</ele>
        <time>2023-12-20T13:36:14Z</time>
      </trkpt>
      <trkpt lat="48.58023" lon="2.00205">
        <ele>116.4</ele>
        <time>2023-12-20T13:36:15Z</time>
      </trkpt>
      <trkpt lat="48.58025" lon="2.00209">
        <ele>116.4</ele>
        <time>2023-12-20T13:36:16Z</time>
      </trkpt>
      <trkpt lat="48.58027" lon="2.00213">
        <ele>116.4</ele>
        <time>2023-12-20T13:36:17Z</time>
      </trkpt>
      <trkpt lat="48.58029" lon="2.00217">
        <ele>117.2</ele>
        <time>2023-12-20T13:36:18Z</time>
      </trkpt>
      <trkpt lat="48.58032" lon="2.00221">
        <ele>117.6</ele>
        <time>2023-12-20T13:36:19Z</time>
      </trkpt>
      <trkpt lat="48.58035" lon="2.00225">
        <ele>117.6</ele>
        <time>2023-12-20T13:36:20Z</time>
      </trkpt>
      <trkpt lat="48.58037" lon="2.00229">
        <ele>117.6</ele>
        <time>2023-12-20T13:36:21Z</time>
      </trkpt>
      <trkpt lat="48.58038" lon="2.00234">
        <ele>118.2</ele>
        <time>2023-12-20T13:36:22Z</time>
      </trkpt>
      <trkpt lat="48.58039" lon="2.00238">
        <ele>118.6</ele>
        <time>2023-12-20T13:36:23Z</time>
      </trkpt>
      <trkpt lat="48.58041" lon="2.00242">
        <ele>118.6</ele>
        <time>2023-12-20T13:36:24Z</time>
      </trkpt>
      <trkpt lat="48.58044" lon="2.00247">
        <ele>118.6</ele>
        <time>2023-12-20T13:36:25Z</time>
      </trkpt>
      <trkpt lat="48.58047" lon="2.00252">
        <ele>118.6</ele>
        <time>2023-12-20T13:36:26Z</time>
      </trkpt>
      <trkpt lat="48.58049" lon="2.00256">
        <ele>119.4</ele>
        <time>2023-12-20T13:36:27Z</time>
      </trkpt>
      <trkpt lat="48.58051" lon="2.00261">
        <ele>119.4</ele>
        <time>2023-12-20T13:36:28Z</time>
      </trkpt>
      <trkpt lat="48.58052" lon="2.00266">
        <ele>119.4</ele>
        <time>2023-12-20T13:36:29Z</time>
      </trkpt>
      <trkpt lat="48.58055" lon="2.0027">
        <ele>119.6</ele>
        <time>2023-12-20T13:36:30Z</time>
      </trkpt>
      <trkpt lat="48.58056" lon="2.00274">
        <ele>119.8</ele>
        <time>2023-12-20T13:36:31Z</time>
      </trkpt>
      <trkpt lat="48.58058" lon="2.00279">
        <ele>119.8</ele>
        <time>2023-12-20T13:36:32Z</time>
      </trkpt>
      <trkpt lat="48.58061" lon="2.00284">
        <ele>119.8</ele>
        <time>2023-12-20T13:36:33Z</time>
      </trkpt>
      <trkpt lat="48.58063" lon="2.00289">
        <ele>120</ele>
        <time>2023-12-20T13:36:34Z</time>
      </trkpt>
      <trkpt lat="48.58066" lon="2.00293">
        <ele>120.8</ele>
        <time>2023-12-20T13:36:35Z</time>
      </trkpt>
      <trkpt lat="48.58066" lon="2.00297">
        <ele>120.8</ele>
        <time>2023-12-20T13:36:36Z</time>
      </trkpt>
      <trkpt lat="48.58069" lon="2.00302">
        <ele>120.8</ele>
        <time>2023-12-20T13:36:37Z</time>
      </trkpt>
      <trkpt lat="48.58071" lon="2.00306">
        <ele>121.8</ele>
        <time>2023-12-20T13:36:38Z</time>
      </trkpt>
      <trkpt lat="48.58074" lon="2.00311">
        <ele>121.6</ele>
        <time>2023-12-20T13:36:39Z</time>
      </trkpt>
      <trkpt lat="48.58078" lon="2.00316">
        <ele>121.6</ele>
        <time>2023-12-20T13:36:40Z</time>
      </trkpt>
      <trkpt lat="48.58081" lon="2.00321">
        <ele>121.6</ele>
        <time>2023-12-20T13:36:41Z</time>
      </trkpt>
      <trkpt lat="48.58084" lon="2.00326">
        <ele>121.6</ele>
        <time>2023-12-20T13:36:42Z</time>
      </trkpt>
      <trkpt lat="48.58087" lon="2.0033">
        <ele>121.6</ele>
        <time>2023-12-20T13:36:43Z</time>
      </trkpt>
      <trkpt lat="48.5809" lon="2.00335">
        <ele>121.6</ele>
        <time>2023-12-20T13:36:44Z</time>
      </trkpt>
      <trkpt lat="48.58093" lon="2.0034">
        <ele>121.6</ele>
        <time>2023-12-20T13:36:45Z</time>
      </trkpt>
      <trkpt lat="48.58098" lon="2.00344">
        <ele>121.6</ele>
        <time>2023-12-20T13:36:46Z</time>
      </trkpt>
      <trkpt lat="48.58102" lon="2.00349">
        <ele>121.6</ele>
        <time>2023-12-20T13:36:47Z</time>
      </trkpt>
      <trkpt lat="48.58106" lon="2.00354">
        <ele>121.6</ele>
        <time>2023-12-20T13:36:48Z</time>
      </trkpt>
      <trkpt lat="48.5811" lon="2.00359">
        <ele>121.6</ele>
        <time>2023-12-20T13:36:49Z</time>
      </trkpt>
      <trkpt lat="48.58113" lon="2.00364">
        <ele>121.6</ele>
        <time>2023-12-20T13:36:50Z</time>
      </trkpt>
      <trkpt lat="48.58119" lon="2.00369">
        <ele>120.4</ele>
        <time>2023-12-20T13:36:51Z</time>
      </trkpt>
      <trkpt lat="48.58123" lon="2.00375">
        <ele>120.4</ele>
        <time>2023-12-20T13:36:52Z</time>
      </trkpt>
      <trkpt lat="48.58128" lon="2.0038">
        <ele>120.4</ele>
        <time>2023-12-20T13:36:53Z</time>
      </trkpt>
      <trkpt lat="48.58132" lon="2.00386">
        <ele>119.4</ele>
        <time>2023-12-20T13:36:54Z</time>
      </trkpt>
      <trkpt lat="48.58138" lon="2.00392">
        <ele>118.6</ele>
        <time>2023-12-20T13:36:55Z</time>
      </trkpt>
      <trkpt lat="48.58143" lon="2.00399">
        <ele>118.6</ele>
        <time>2023-12-20T13:36:56Z</time>
      </trkpt>
      <trkpt lat="48.58148" lon="2.00405">
        <ele>118.6</ele>
        <time>2023-12-20T13:36:57Z</time>
      </trkpt>
      <trkpt lat="48.58154" lon="2.00411">
        <ele>118.6</ele>
        <time>2023-12-20T13:36:58Z</time>
      </trkpt>
      <trkpt lat="48.5816" lon="2.00418">
        <ele>117.8</ele>
        <time>2023-12-20T13:36:59Z</time>
      </trkpt>
      <trkpt lat="48.58165" lon="2.00425">
        <ele>117.8</ele>
        <time>2023-12-20T13:37:00Z</time>
      </trkpt>
      <trkpt lat="48.58171" lon="2.00432">
        <ele>117.8</ele>
        <time>2023-12-20T13:37:01Z</time>
      </trkpt>
      <trkpt lat="48.58176" lon="2.0044">
        <ele>116.8</ele>
        <time>2023-12-20T13:37:02Z</time>
      </trkpt>
      <trkpt lat="48.58182" lon="2.00448">
        <ele>116.4</ele>
        <time>2023-12-20T13:37:03Z</time>
      </trkpt>
      <trkpt lat="48.58188" lon="2.00454">
        <ele>116.4</ele>
        <time>2023-12-20T13:37:04Z</time>
      </trkpt>
      <trkpt lat="48.58194" lon="2.00461">
        <ele>116.4</ele>
        <time>2023-12-20T13:37:05Z</time>
      </trkpt>
      <trkpt lat="48.582" lon="2.00469">
        <ele>116.4</ele>
        <time>2023-12-20T13:37:06Z</time>
      </trkpt>
      <trkpt lat="48.58205" lon="2.00477">
        <ele>115.6</ele>
        <time>2023-12-20T13:37:07Z</time>
      </trkpt>
      <trkpt lat="48.58209" lon="2.00485">
        <ele>115.6</ele>
        <time>2023-12-20T13:37:08Z</time>
      </trkpt>
      <trkpt lat="48.58215" lon="2.00493">
        <ele>115.6</ele>
        <time>2023-12-20T13:37:09Z</time>
      </trkpt>
      <trkpt lat="48.58219" lon="2.00501">
        <ele>114.6</ele>
        <time>2023-12-20T13:37:10Z</time>
      </trkpt>
      <trkpt lat="48.58225" lon="2.00508">
        <ele>115</ele>
        <time>2023-12-20T13:37:11Z</time>
      </trkpt>
      <trkpt lat="48.5823" lon="2.00516">
        <ele>115</ele>
        <time>2023-12-20T13:37:12Z</time>
      </trkpt>
      <trkpt lat="48.58234" lon="2.00524">
        <ele>115</ele>
        <time>2023-12-20T13:37:13Z</time>
      </trkpt>
      <trkpt lat="48.58241" lon="2.00532">
        <ele>114.2</ele>
        <time>2023-12-20T13:37:14Z</time>
      </trkpt>
      <trkpt lat="48.58248" lon="2.00541">
        <ele>113.6</ele>
        <time>2023-12-20T13:37:15Z</time>
      </trkpt>
      <trkpt lat="48.58253" lon="2.00549">
        <ele>113.6</ele>
        <time>2023-12-20T13:37:16Z</time>
      </trkpt>
      <trkpt lat="48.58259" lon="2.00557">
        <ele>113.6</ele>
        <time>2023-12-20T13:37:17Z</time>
      </trkpt>
      <trkpt lat="48.58266" lon="2.00565">
        <ele>113.6</ele>
        <time>2023-12-20T13:37:18Z</time>
      </trkpt>
      <trkpt lat="48.58271" lon="2.00574">
        <ele>113.2</ele>
        <time>2023-12-20T13:37:19Z</time>
      </trkpt>
      <trkpt lat="48.58277" lon="2.00581">
        <ele>113.2</ele>
        <time>2023-12-20T13:37:20Z</time>
      </trkpt>
      <trkpt lat="48.58283" lon="2.00589">
        <ele>113.2</ele>
        <time>2023-12-20T13:37:21Z</time>
      </trkpt>
      <trkpt lat="48.58289" lon="2.00597">
        <ele>113.2</ele>
        <time>2023-12-20T13:37:22Z</time>
      </trkpt>
      <trkpt lat="48.58295" lon="2.00606">
        <ele>112.8</ele>
        <time>2023-12-20T13:37:23Z</time>
      </trkpt>
      <trkpt lat="48.583" lon="2.00615">
        <ele>112.8</ele>
        <time>2023-12-20T13:37:24Z</time>
      </trkpt>
      <trkpt lat="48.58306" lon="2.00623">
        <ele>112.8</ele>
        <time>2023-12-20T13:37:25Z</time>
      </trkpt>
      <trkpt lat="48.58311" lon="2.00631">
        <ele>112.8</ele>
        <time>2023-12-20T13:37:26Z</time>
      </trkpt>
      <trkpt lat="48.58317" lon="2.00639">
        <ele>112.8</ele>
        <time>2023-12-20T13:37:27Z</time>
      </trkpt>
      <trkpt lat="48.58322" lon="2.00647">
        <ele>112.8</ele>
        <time>2023-12-20T13:37:28Z</time>
      </trkpt>
      <trkpt lat="48.58327" lon="2.00656">
        <ele>112.8</ele>
        <time>2023-12-20T13:37:29Z</time>
      </trkpt>
      <trkpt lat="48.58333" lon="2.00664">
        <ele>112.4</ele>
        <time>2023-12-20T13:37:30Z</time>
      </trkpt>
      <trkpt lat="48.58337" lon="2.00672">
        <ele>111.8</ele>
        <time>2023-12-20T13:37:31Z</time>
      </trkpt>
      <trkpt lat="48.58343" lon="2.0068">
        <ele>111.8</ele>
        <time>2023-12-20T13:37:32Z</time>
      </trkpt>
      <trkpt lat="48.58347" lon="2.00689">
        <ele>111.8</ele>
        <time>2023-12-20T13:37:33Z</time>
      </trkpt>
      <trkpt lat="48.58353" lon="2.00698">
        <ele>111.4</ele>
        <time>2023-12-20T13:37:34Z</time>
      </trkpt>
      <trkpt lat="48.58358" lon="2.00707">
        <ele>111.4</ele>
        <time>2023-12-20T13:37:35Z</time>
      </trkpt>
      <trkpt lat="48.58362" lon="2.00717">
        <ele>111.4</ele>
        <time>2023-12-20T13:37:36Z</time>
      </trkpt>
      <trkpt lat="48.58367" lon="2.00726">
        <ele>111.4</ele>
        <time>2023-12-20T13:37:37Z</time>
      </trkpt>
      <trkpt lat="48.58372" lon="2.00735">
        <ele>111.2</ele>
        <time>2023-12-20T13:37:38Z</time>
      </trkpt>
      <trkpt lat="48.58376" lon="2.00745">
        <ele>110.6</ele>
        <time>2023-12-20T13:37:39Z</time>
      </trkpt>
      <trkpt lat="48.58381" lon="2.00753">
        <ele>110.6</ele>
        <time>2023-12-20T13:37:40Z</time>
      </trkpt>
      <trkpt lat="48.58386" lon="2.00763">
        <ele>110.6</ele>
        <time>2023-12-20T13:37:41Z</time>
      </trkpt>
      <trkpt lat="48.5839" lon="2.00773">
        <ele>110.6</ele>
        <time>2023-12-20T13:37:42Z</time>
      </trkpt>
      <trkpt lat="48.58394" lon="2.00781">
        <ele>110.8</ele>
        <time>2023-12-20T13:37:43Z</time>
      </trkpt>
      <trkpt lat="48.58399" lon="2.0079">
        <ele>110.8</ele>
        <time>2023-12-20T13:37:44Z</time>
      </trkpt>
      <trkpt lat="48.58406" lon="2.00799">
        <ele>110.8</ele>
        <time>2023-12-20T13:37:45Z</time>
      </trkpt>
      <trkpt lat="48.58411" lon="2.00808">
        <ele>109.8</ele>
        <time>2023-12-20T13:37:46Z</time>
      </trkpt>
      <trkpt lat="48.58417" lon="2.00817">
        <ele>109.6</ele>
        <time>2023-12-20T13:37:47Z</time>
      </trkpt>
      <trkpt lat="48.58422" lon="2.00826">
        <ele>109.6</ele>
        <time>2023-12-20T13:37:48Z</time>
      </trkpt>
      <trkpt lat="48.58428" lon="2.00834">
        <ele>109.6</ele>
        <time>2023-12-20T13:37:49Z</time>
      </trkpt>
      <trkpt lat="48.58435" lon="2.00842">
        <ele>109.2</ele>
        <time>2023-12-20T13:37:50Z</time>
      </trkpt>
      <trkpt lat="48.5844" lon="2.0085">
        <ele>108.4</ele>
        <time>2023-12-20T13:37:51Z</time>
      </trkpt>
      <trkpt lat="48.58446" lon="2.00858">
        <ele>108.4</ele>
        <time>2023-12-20T13:37:52Z</time>
      </trkpt>
      <trkpt lat="48.58451" lon="2.00866">
        <ele>108.4</ele>
        <time>2023-12-20T13:37:53Z</time>
      </trkpt>
      <trkpt lat="48.58458" lon="2.00874">
        <ele>108.4</ele>
        <time>2023-12-20T13:37:54Z</time>
      </trkpt>
      <trkpt lat="48.58465" lon="2.00882">
        <ele>107.8</ele>
        <time>2023-12-20T13:37:55Z</time>
      </trkpt>
      <trkpt lat="48.58471" lon="2.00889">
        <ele>107.8</ele>
        <time>2023-12-20T13:37:56Z</time>
      </trkpt>
      <trkpt lat="48.58479" lon="2.00897">
        <ele>107.8</ele>
        <time>2023-12-20T13:37:57Z</time>
      </trkpt>
      <trkpt lat="48.58485" lon="2.00905">
        <ele>106.8</ele>
        <time>2023-12-20T13:37:58Z</time>
      </trkpt>
      <trkpt lat="48.58492" lon="2.00913">
        <ele>106.6</ele>
        <time>2023-12-20T13:37:59Z</time>
      </trkpt>
      <trkpt lat="48.585" lon="2.0092">
        <ele>106.6</ele>
        <time>2023-12-20T13:38:00Z</time>
      </trkpt>
      <trkpt lat="48.58506" lon="2.00927">
        <ele>106.6</ele>
        <time>2023-12-20T13:38:01Z</time>
      </trkpt>
      <trkpt lat="48.58512" lon="2.00935">
        <ele>106.6</ele>
        <time>2023-12-20T13:38:02Z</time>
      </trkpt>
      <trkpt lat="48.58519" lon="2.00944">
        <ele>105.6</ele>
        <time>2023-12-20T13:38:03Z</time>
      </trkpt>
      <trkpt lat="48.58526" lon="2.00952">
        <ele>105.6</ele>
        <time>2023-12-20T13:38:04Z</time>
      </trkpt>
      <trkpt lat="48.58533" lon="2.0096">
        <ele>105.6</ele>
        <time>2023-12-20T13:38:05Z</time>
      </trkpt>
      <trkpt lat="48.58539" lon="2.00968">
        <ele>104.6</ele>
        <time>2023-12-20T13:38:06Z</time>
      </trkpt>
      <trkpt lat="48.58546" lon="2.00975">
        <ele>105</ele>
        <time>2023-12-20T13:38:07Z</time>
      </trkpt>
      <trkpt lat="48.58553" lon="2.00982">
        <ele>105</ele>
        <time>2023-12-20T13:38:08Z</time>
      </trkpt>
      <trkpt lat="48.58558" lon="2.0099">
        <ele>105</ele>
        <time>2023-12-20T13:38:09Z</time>
      </trkpt>
      <trkpt lat="48.58564" lon="2.00998">
        <ele>104.2</ele>
        <time>2023-12-20T13:38:10Z</time>
      </trkpt>
      <trkpt lat="48.58572" lon="2.01007">
        <ele>103.4</ele>
        <time>2023-12-20T13:38:11Z</time>
      </trkpt>
      <trkpt lat="48.5858" lon="2.01015">
        <ele>103.4</ele>
        <time>2023-12-20T13:38:12Z</time>
      </trkpt>
      <trkpt lat="48.58587" lon="2.01023">
        <ele>103.4</ele>
        <time>2023-12-20T13:38:13Z</time>
      </trkpt>
      <trkpt lat="48.58595" lon="2.01031">
        <ele>102.4</ele>
        <time>2023-12-20T13:38:14Z</time>
      </trkpt>
      <trkpt lat="48.58603" lon="2.01039">
        <ele>102.2</ele>
        <time>2023-12-20T13:38:15Z</time>
      </trkpt>
      <trkpt lat="48.58611" lon="2.01046">
        <ele>102.2</ele>
        <time>2023-12-20T13:38:16Z</time>
      </trkpt>
      <trkpt lat="48.58618" lon="2.01054">
        <ele>102.2</ele>
        <time>2023-12-20T13:38:17Z</time>
      </trkpt>
      <trkpt lat="48.58625" lon="2.01063">
        <ele>101.2</ele>
        <time>2023-12-20T13:38:18Z</time>
      </trkpt>
      <trkpt lat="48.58632" lon="2.01071">
        <ele>100.8</ele>
        <time>2023-12-20T13:38:19Z</time>
      </trkpt>
      <trkpt lat="48.5864" lon="2.0108">
        <ele>100.8</ele>
        <time>2023-12-20T13:38:20Z</time>
      </trkpt>
      <trkpt lat="48.58648" lon="2.01088">
        <ele>100.8</ele>
        <time>2023-12-20T13:38:21Z</time>
      </trkpt>
      <trkpt lat="48.58655" lon="2.01095">
        <ele>100.8</ele>
        <time>2023-12-20T13:38:22Z</time>
      </trkpt>
      <trkpt lat="48.58662" lon="2.01103">
        <ele>100.6</ele>
        <time>2023-12-20T13:38:23Z</time>
      </trkpt>
      <trkpt lat="48.58668" lon="2.0111">
        <ele>100.6</ele>
        <time>2023-12-20T13:38:24Z</time>
      </trkpt>
      <trkpt lat="48.58674" lon="2.01117">
        <ele>100.6</ele>
        <time>2023-12-20T13:38:25Z</time>
      </trkpt>
      <trkpt lat="48.58681" lon="2.01125">
        <ele>100.6</ele>
        <time>2023-12-20T13:38:26Z</time>
      </trkpt>
      <trkpt lat="48.58689" lon="2.01132">
        <ele>99.2</ele>
        <time>2023-12-20T13:38:27Z</time>
      </trkpt>
      <trkpt lat="48.587" lon="2.0114">
        <ele>99.2</ele>
        <time>2023-12-20T13:38:28Z</time>
      </trkpt>
      <trkpt lat="48.58709" lon="2.01148">
        <ele>99.2</ele>
        <time>2023-12-20T13:38:29Z</time>
      </trkpt>
      <trkpt lat="48.58718" lon="2.01155">
        <ele>98.4</ele>
        <time>2023-12-20T13:38:30Z</time>
      </trkpt>
      <trkpt lat="48.58728" lon="2.01162">
        <ele>98.2</ele>
        <time>2023-12-20T13:38:31Z</time>
      </trkpt>
      <trkpt lat="48.58736" lon="2.01169">
        <ele>98.2</ele>
        <time>2023-12-20T13:38:32Z</time>
      </trkpt>
      <trkpt lat="48.58745" lon="2.01175">
        <ele>98.2</ele>
        <time>2023-12-20T13:38:33Z</time>
      </trkpt>
      <trkpt lat="48.58753" lon="2.01182">
        <ele>99</ele>
        <time>2023-12-20T13:38:34Z</time>
      </trkpt>
      <trkpt lat="48.58762" lon="2.01188">
        <ele>99.4</ele>
        <time>2023-12-20T13:38:35Z</time>
      </trkpt>
      <trkpt lat="48.5877" lon="2.01194">
        <ele>99.4</ele>
        <time>2023-12-20T13:38:36Z</time>
      </trkpt>
      <trkpt lat="48.58778" lon="2.01201">
        <ele>99.4</ele>
        <time>2023-12-20T13:38:37Z</time>
      </trkpt>
      <trkpt lat="48.58787" lon="2.01207">
        <ele>98.4</ele>
        <time>2023-12-20T13:38:38Z</time>
      </trkpt>
      <trkpt lat="48.58795" lon="2.01213">
        <ele>97</ele>
        <time>2023-12-20T13:38:39Z</time>
      </trkpt>
      <trkpt lat="48.58803" lon="2.01219">
        <ele>97</ele>
        <time>2023-12-20T13:38:40Z</time>
      </trkpt>
      <trkpt lat="48.58812" lon="2.01225">
        <ele>97</ele>
        <time>2023-12-20T13:38:41Z</time>
      </trkpt>
      <trkpt lat="48.5882" lon="2.01231">
        <ele>97</ele>
        <time>2023-12-20T13:38:42Z</time>
      </trkpt>
      <trkpt lat="48.58828" lon="2.01237">
        <ele>97.4</ele>
        <time>2023-12-20T13:38:43Z</time>
      </trkpt>
      <trkpt lat="48.58836" lon="2.01243">
        <ele>97.4</ele>
        <time>2023-12-20T13:38:44Z</time>
      </trkpt>
      <trkpt lat="48.58844" lon="2.01249">
        <ele>97.4</ele>
        <time>2023-12-20T13:38:45Z</time>
      </trkpt>
      <trkpt lat="48.58852" lon="2.01255">
        <ele>97.4</ele>
        <time>2023-12-20T13:38:46Z</time>
      </trkpt>
      <trkpt lat="48.5886" lon="2.01262">
        <ele>96.8</ele>
        <time>2023-12-20T13:38:47Z</time>
      </trkpt>
      <trkpt lat="48.58868" lon="2.01268">
        <ele>96.8</ele>
        <time>2023-12-20T13:38:48Z</time>
      </trkpt>
      <trkpt lat="48.58876" lon="2.01274">
        <ele>96.8</ele>
        <time>2023-12-20T13:38:49Z</time>
      </trkpt>
      <trkpt lat="48.58884" lon="2.0128">
        <ele>96.8</ele>
        <time>2023-12-20T13:38:50Z</time>
      </trkpt>
      <trkpt lat="48.58893" lon="2.01286">
        <ele>96</ele>
        <time>2023-12-20T13:38:51Z</time>
      </trkpt>
      <trkpt lat="48.58901" lon="2.01292">
        <ele>96</ele>
        <time>2023-12-20T13:38:52Z</time>
      </trkpt>
      <trkpt lat="48.58909" lon="2.01298">
        <ele>96</ele>
        <time>2023-12-20T13:38:53Z</time>
      </trkpt>
      <trkpt lat="48.58917" lon="2.01304">
        <ele>96</ele>
        <time>2023-12-20T13:38:54Z</time>
      </trkpt>
      <trkpt lat="48.58925" lon="2.0131">
        <ele>94.6</ele>
        <time>2023-12-20T13:38:55Z</time>
      </trkpt>
      <trkpt lat="48.58934" lon="2.01317">
        <ele>94.6</ele>
        <time>2023-12-20T13:38:56Z</time>
      </trkpt>
      <trkpt lat="48.58942" lon="2.01323">
        <ele>94.6</ele>
        <time>2023-12-20T13:38:57Z</time>
      </trkpt>
      <trkpt lat="48.5895" lon="2.01328">
        <ele>94.6</ele>
        <time>2023-12-20T13:38:58Z</time>
      </trkpt>
      <trkpt lat="48.58958" lon="2.01334">
        <ele>92.8</ele>
        <time>2023-12-20T13:38:59Z</time>
      </trkpt>
      <trkpt lat="48.58966" lon="2.0134">
        <ele>92.8</ele>
        <time>2023-12-20T13:39:00Z</time>
      </trkpt>
      <trkpt lat="48.58975" lon="2.01347">
        <ele>92.8</ele>
        <time>2023-12-20T13:39:01Z</time>
      </trkpt>
      <trkpt lat="48.58983" lon="2.01353">
        <ele>92.8</ele>
        <time>2023-12-20T13:39:02Z</time>
      </trkpt>
      <trkpt lat="48.5899" lon="2.0136">
        <ele>93.4</ele>
        <time>2023-12-20T13:39:03Z</time>
      </trkpt>
      <trkpt lat="48.58996" lon="2.0137">
        <ele>93.4</ele>
        <time>2023-12-20T13:39:04Z</time>
      </trkpt>
      <trkpt lat="48.59001" lon="2.01381">
        <ele>93.4</ele>
        <time>2023-12-20T13:39:05Z</time>
      </trkpt>
      <trkpt lat="48.59004" lon="2.01393">
        <ele>93.4</ele>
        <time>2023-12-20T13:39:06Z</time>
      </trkpt>
      <trkpt lat="48.59006" lon="2.01405">
        <ele>93.2</ele>
        <time>2023-12-20T13:39:07Z</time>
      </trkpt>
      <trkpt lat="48.59008" lon="2.01417">
        <ele>93.2</ele>
        <time>2023-12-20T13:39:08Z</time>
      </trkpt>
      <trkpt lat="48.59009" lon="2.01428">
        <ele>93.2</ele>
        <time>2023-12-20T13:39:09Z</time>
      </trkpt>
      <trkpt lat="48.59011" lon="2.0144">
        <ele>94.2</ele>
        <time>2023-12-20T13:39:10Z</time>
      </trkpt>
      <trkpt lat="48.59011" lon="2.01451">
        <ele>96.2</ele>
        <time>2023-12-20T13:39:11Z</time>
      </trkpt>
      <trkpt lat="48.59013" lon="2.01462">
        <ele>96.2</ele>
        <time>2023-12-20T13:39:12Z</time>
      </trkpt>
      <trkpt lat="48.59015" lon="2.01471">
        <ele>96.2</ele>
        <time>2023-12-20T13:39:13Z</time>
      </trkpt>
      <trkpt lat="48.59017" lon="2.01481">
        <ele>97.2</ele>
        <time>2023-12-20T13:39:14Z</time>
      </trkpt>
      <trkpt lat="48.59019" lon="2.01489">
        <ele>98</ele>
        <time>2023-12-20T13:39:15Z</time>
      </trkpt>
      <trkpt lat="48.59021" lon="2.01497">
        <ele>98</ele>
        <time>2023-12-20T13:39:16Z</time>
      </trkpt>
      <trkpt lat="48.59023" lon="2.01505">
        <ele>98</ele>
        <time>2023-12-20T13:39:17Z</time>
      </trkpt>
      <trkpt lat="48.59025" lon="2.01511">
        <ele>99</ele>
        <time>2023-12-20T13:39:18Z</time>
      </trkpt>
      <trkpt lat="48.59027" lon="2.01518">
        <ele>99.8</ele>
        <time>2023-12-20T13:39:19Z</time>
      </trkpt>
      <trkpt lat="48.5903" lon="2.01524">
        <ele>99.8</ele>
        <time>2023-12-20T13:39:20Z</time>
      </trkpt>
      <trkpt lat="48.59032" lon="2.01529">
        <ele>99.8</ele>
        <time>2023-12-20T13:39:21Z</time>
      </trkpt>
      <trkpt lat="48.59034" lon="2.01536">
        <ele>100.8</ele>
        <time>2023-12-20T13:39:22Z</time>
      </trkpt>
      <trkpt lat="48.59033" lon="2.01541">
        <ele>100.6</ele>
        <time>2023-12-20T13:39:23Z</time>
      </trkpt>
      <trkpt lat="48.5903" lon="2.01542">
        <ele>100.6</ele>
        <time>2023-12-20T13:39:24Z</time>
      </trkpt>
      <trkpt lat="48.59027" lon="2.01541">
        <ele>100.6</ele>
        <time>2023-12-20T13:39:25Z</time>
      </trkpt>
      <trkpt lat="48.59023" lon="2.01539">
        <ele>100.6</ele>
        <time>2023-12-20T13:39:26Z</time>
      </trkpt>
      <trkpt lat="48.59019" lon="2.01536">
        <ele>100.6</ele>
        <time>2023-12-20T13:39:27Z</time>
      </trkpt>
      <trkpt lat="48.59014" lon="2.01536">
        <ele>100.6</ele>
        <time>2023-12-20T13:39:28Z</time>
      </trkpt>
      <trkpt lat="48.59009" lon="2.01536">
        <ele>100.6</ele>
        <time>2023-12-20T13:39:29Z</time>
      </trkpt>
      <trkpt lat="48.59004" lon="2.01537">
        <ele>100.6</ele>
        <time>2023-12-20T13:39:30Z</time>
      </trkpt>
      <trkpt lat="48.58999" lon="2.01538">
        <ele>99.8</ele>
        <time>2023-12-20T13:39:31Z</time>
      </trkpt>
      <trkpt lat="48.58993" lon="2.01541">
        <ele>99.8</ele>
        <time>2023-12-20T13:39:32Z</time>
      </trkpt>
      <trkpt lat="48.58988" lon="2.01544">
        <ele>99.8</ele>
        <time>2023-12-20T13:39:33Z</time>
      </trkpt>
      <trkpt lat="48.58982" lon="2.01546">
        <ele>99.6</ele>
        <time>2023-12-20T13:39:34Z</time>
      </trkpt>
      <trkpt lat="48.58977" lon="2.01549">
        <ele>99.8</ele>
        <time>2023-12-20T13:39:35Z</time>
      </trkpt>
      <trkpt lat="48.58971" lon="2.01552">
        <ele>99.8</ele>
        <time>2023-12-20T13:39:36Z</time>
      </trkpt>
      <trkpt lat="48.58965" lon="2.01555">
        <ele>99.8</ele>
        <time>2023-12-20T13:39:37Z</time>
      </trkpt>
      <trkpt lat="48.5896" lon="2.01558">
        <ele>98.8</ele>
        <time>2023-12-20T13:39:38Z</time>
      </trkpt>
      <trkpt lat="48.58954" lon="2.01561">
        <ele>98.8</ele>
        <time>2023-12-20T13:39:39Z</time>
      </trkpt>
      <trkpt lat="48.58948" lon="2.01564">
        <ele>98.8</ele>
        <time>2023-12-20T13:39:40Z</time>
      </trkpt>
      <trkpt lat="48.58942" lon="2.01567">
        <ele>98.8</ele>
        <time>2023-12-20T13:39:41Z</time>
      </trkpt>
      <trkpt lat="48.58936" lon="2.0157">
        <ele>98.8</ele>
        <time>2023-12-20T13:39:42Z</time>
      </trkpt>
      <trkpt lat="48.5893" lon="2.01573">
        <ele>99.4</ele>
        <time>2023-12-20T13:39:43Z</time>
      </trkpt>
      <trkpt lat="48.58924" lon="2.01576">
        <ele>99.4</ele>
        <time>2023-12-20T13:39:44Z</time>
      </trkpt>
      <trkpt lat="48.58918" lon="2.01579">
        <ele>99.4</ele>
        <time>2023-12-20T13:39:45Z</time>
      </trkpt>
      <trkpt lat="48.58912" lon="2.01582">
        <ele>99.2</ele>
        <time>2023-12-20T13:39:46Z</time>
      </trkpt>
      <trkpt lat="48.58906" lon="2.01586">
        <ele>99.6</ele>
        <time>2023-12-20T13:39:47Z</time>
      </trkpt>
      <trkpt lat="48.58899" lon="2.01589">
        <ele>99.6</ele>
        <time>2023-12-20T13:39:48Z</time>
      </trkpt>
      <trkpt lat="48.58893" lon="2.01592">
        <ele>99.6</ele>
        <time>2023-12-20T13:39:49Z</time>
      </trkpt>
      <trkpt lat="48.58887" lon="2.01596">
        <ele>98.8</ele>
        <time>2023-12-20T13:39:50Z</time>
      </trkpt>
      <trkpt lat="48.58881" lon="2.01599">
        <ele>98.8</ele>
        <time>2023-12-20T13:39:51Z</time>
      </trkpt>
      <trkpt lat="48.58875" lon="2.01603">
        <ele>98.8</ele>
        <time>2023-12-20T13:39:52Z</time>
      </trkpt>
      <trkpt lat="48.58869" lon="2.01606">
        <ele>98.8</ele>
        <time>2023-12-20T13:39:53Z</time>
      </trkpt>
      <trkpt lat="48.58863" lon="2.01609">
        <ele>98.8</ele>
        <time>2023-12-20T13:39:54Z</time>
      </trkpt>
      <trkpt lat="48.58857" lon="2.01612">
        <ele>99.8</ele>
        <time>2023-12-20T13:39:55Z</time>
      </trkpt>
      <trkpt lat="48.58851" lon="2.01616">
        <ele>99.8</ele>
        <time>2023-12-20T13:39:56Z</time>
      </trkpt>
      <trkpt lat="48.58845" lon="2.01619">
        <ele>99.8</ele>
        <time>2023-12-20T13:39:57Z</time>
      </trkpt>
      <trkpt lat="48.58839" lon="2.01622">
        <ele>99.8</ele>
        <time>2023-12-20T13:39:58Z</time>
      </trkpt>
      <trkpt lat="48.58833" lon="2.01625">
        <ele>99.8</ele>
        <time>2023-12-20T13:39:59Z</time>
      </trkpt>
      <trkpt lat="48.58827" lon="2.01628">
        <ele>99.8</ele>
        <time>2023-12-20T13:40:00Z</time>
      </trkpt>
      <trkpt lat="48.58821" lon="2.01631">
        <ele>99.8</ele>
        <time>2023-12-20T13:40:01Z</time>
      </trkpt>
      <trkpt lat="48.58815" lon="2.01634">
        <ele>98.8</ele>
        <time>2023-12-20T13:40:02Z</time>
      </trkpt>
      <trkpt lat="48.58809" lon="2.01637">
        <ele>99</ele>
        <time>2023-12-20T13:40:03Z</time>
      </trkpt>
      <trkpt lat="48.58802" lon="2.0164">
        <ele>99</ele>
        <time>2023-12-20T13:40:04Z</time>
      </trkpt>
      <trkpt lat="48.58796" lon="2.01643">
        <ele>99</ele>
        <time>2023-12-20T13:40:05Z</time>
      </trkpt>
      <trkpt lat="48.5879" lon="2.01647">
        <ele>98.4</ele>
        <time>2023-12-20T13:40:06Z</time>
      </trkpt>
      <trkpt lat="48.58783" lon="2.0165">
        <ele>98.2</ele>
        <time>2023-12-20T13:40:07Z</time>
      </trkpt>
      <trkpt lat="48.58777" lon="2.01654">
        <ele>98.2</ele>
        <time>2023-12-20T13:40:08Z</time>
      </trkpt>
      <trkpt lat="48.5877" lon="2.01657">
        <ele>98.2</ele>
        <time>2023-12-20T13:40:09Z</time>
      </trkpt>
      <trkpt lat="48.58764" lon="2.01661">
        <ele>97.6</ele>
        <time>2023-12-20T13:40:10Z</time>
      </trkpt>
      <trkpt lat="48.58757" lon="2.01665">
        <ele>97.4</ele>
        <time>2023-12-20T13:40:11Z</time>
      </trkpt>
      <trkpt lat="48.58751" lon="2.01669">
        <ele>97.4</ele>
        <time>2023-12-20T13:40:12Z</time>
      </trkpt>
      <trkpt lat="48.58744" lon="2.01673">
        <ele>97.4</ele>
        <time>2023-12-20T13:40:13Z</time>
      </trkpt>
      <trkpt lat="48.58738" lon="2.01677">
        <ele>97.4</ele>
        <time>2023-12-20T13:40:14Z</time>
      </trkpt>
      <trkpt lat="48.58731" lon="2.01681">
        <ele>97.6</ele>
        <time>2023-12-20T13:40:15Z</time>
      </trkpt>
      <trkpt lat="48.58724" lon="2.01684">
        <ele>97.6</ele>
        <time>2023-12-20T13:40:16Z</time>
      </trkpt>
      <trkpt lat="48.58717" lon="2.01688">
        <ele>97.6</ele>
        <time>2023-12-20T13:40:17Z</time>
      </trkpt>
      <trkpt lat="48.5871" lon="2.01692">
        <ele>97.4</ele>
        <time>2023-12-20T13:40:18Z</time>
      </trkpt>
      <trkpt lat="48.58703" lon="2.01695">
        <ele>96.6</ele>
        <time>2023-12-20T13:40:19Z</time>
      </trkpt>
      <trkpt lat="48.58697" lon="2.01699">
        <ele>96.6</ele>
        <time>2023-12-20T13:40:20Z</time>
      </trkpt>
      <trkpt lat="48.5869" lon="2.01702">
        <ele>96.6</ele>
        <time>2023-12-20T13:40:21Z</time>
      </trkpt>
      <trkpt lat="48.58683" lon="2.01705">
        <ele>97.2</ele>
        <time>2023-12-20T13:40:22Z</time>
      </trkpt>
      <trkpt lat="48.58676" lon="2.01709">
        <ele>97</ele>
        <time>2023-12-20T13:40:23Z</time>
      </trkpt>
      <trkpt lat="48.58669" lon="2.01712">
        <ele>97</ele>
        <time>2023-12-20T13:40:24Z</time>
      </trkpt>
      <trkpt lat="48.58662" lon="2.01715">
        <ele>97</ele>
        <time>2023-12-20T13:40:25Z</time>
      </trkpt>
      <trkpt lat="48.58655" lon="2.01718">
        <ele>97</ele>
        <time>2023-12-20T13:40:26Z</time>
      </trkpt>
      <trkpt lat="48.58648" lon="2.01722">
        <ele>96.2</ele>
        <time>2023-12-20T13:40:27Z</time>
      </trkpt>
      <trkpt lat="48.58641" lon="2.01725">
        <ele>96.2</ele>
        <time>2023-12-20T13:40:28Z</time>
      </trkpt>
      <trkpt lat="48.58634" lon="2.01729">
        <ele>96.2</ele>
        <time>2023-12-20T13:40:29Z</time>
      </trkpt>
      <trkpt lat="48.58627" lon="2.01733">
        <ele>96.2</ele>
        <time>2023-12-20T13:40:30Z</time>
      </trkpt>
      <trkpt lat="48.5862" lon="2.01738">
        <ele>96.2</ele>
        <time>2023-12-20T13:40:31Z</time>
      </trkpt>
      <trkpt lat="48.58613" lon="2.01743">
        <ele>96.2</ele>
        <time>2023-12-20T13:40:32Z</time>
      </trkpt>
      <trkpt lat="48.58607" lon="2.01748">
        <ele>96.2</ele>
        <time>2023-12-20T13:40:33Z</time>
      </trkpt>
      <trkpt lat="48.586" lon="2.01754">
        <ele>96.2</ele>
        <time>2023-12-20T13:40:34Z</time>
      </trkpt>
      <trkpt lat="48.58594" lon="2.0176">
        <ele>96</ele>
        <time>2023-12-20T13:40:35Z</time>
      </trkpt>
      <trkpt lat="48.58588" lon="2.01766">
        <ele>96</ele>
        <time>2023-12-20T13:40:36Z</time>
      </trkpt>
      <trkpt lat="48.58581" lon="2.01772">
        <ele>96</ele>
        <time>2023-12-20T13:40:37Z</time>
      </trkpt>
      <trkpt lat="48.58575" lon="2.01778">
        <ele>95</ele>
        <time>2023-12-20T13:40:38Z</time>
      </trkpt>
      <trkpt lat="48.58568" lon="2.01784">
        <ele>95.2</ele>
        <time>2023-12-20T13:40:39Z</time>
      </trkpt>
      <trkpt lat="48.58562" lon="2.01791">
        <ele>95.2</ele>
        <time>2023-12-20T13:40:40Z</time>
      </trkpt>
      <trkpt lat="48.58555" lon="2.01797">
        <ele>95.2</ele>
        <time>2023-12-20T13:40:41Z</time>
      </trkpt>
      <trkpt lat="48.58549" lon="2.01803">
        <ele>95.2</ele>
        <time>2023-12-20T13:40:42Z</time>
      </trkpt>
      <trkpt lat="48.58542" lon="2.01809">
        <ele>95</ele>
        <time>2023-12-20T13:40:43Z</time>
      </trkpt>
      <trkpt lat="48.58536" lon="2.01815">
        <ele>95</ele>
        <time>2023-12-20T13:40:44Z</time>
      </trkpt>
      <trkpt lat="48.5853" lon="2.01822">
        <ele>95</ele>
        <time>2023-12-20T13:40:45Z</time>
      </trkpt>
      <trkpt lat="48.58523" lon="2.01828">
        <ele>94</ele>
        <time>2023-12-20T13:40:46Z</time>
      </trkpt>
      <trkpt lat="48.58517" lon="2.01834">
        <ele>94</ele>
        <time>2023-12-20T13:40:47Z</time>
      </trkpt>
      <trkpt lat="48.58511" lon="2.0184">
        <ele>94</ele>
        <time>2023-12-20T13:40:48Z</time>
      </trkpt>
      <trkpt lat="48.58504" lon="2.01846">
        <ele>94</ele>
        <time>2023-12-20T13:40:49Z</time>
      </trkpt>
      <trkpt lat="48.58498" lon="2.01853">
        <ele>95</ele>
        <time>2023-12-20T13:40:50Z</time>
      </trkpt>
      <trkpt lat="48.58492" lon="2.01859">
        <ele>94.8</ele>
        <time>2023-12-20T13:40:51Z</time>
      </trkpt>
      <trkpt lat="48.58485" lon="2.01865">
        <ele>94.8</ele>
        <time>2023-12-20T13:40:52Z</time>
      </trkpt>
      <trkpt lat="48.58479" lon="2.01872">
        <ele>94.8</ele>
        <time>2023-12-20T13:40:53Z</time>
      </trkpt>
      <trkpt lat="48.58473" lon="2.01878">
        <ele>93.8</ele>
        <time>2023-12-20T13:40:54Z</time>
      </trkpt>
      <trkpt lat="48.58466" lon="2.01885">
        <ele>93</ele>
        <time>2023-12-20T13:40:55Z</time>
      </trkpt>
      <trkpt lat="48.5846" lon="2.01891">
        <ele>93</ele>
        <time>2023-12-20T13:40:56Z</time>
      </trkpt>
      <trkpt lat="48.58453" lon="2.01897">
        <ele>93</ele>
        <time>2023-12-20T13:40:57Z</time>
      </trkpt>
      <trkpt lat="48.58446" lon="2.01904">
        <ele>93.8</ele>
        <time>2023-12-20T13:40:58Z</time>
      </trkpt>
      <trkpt lat="48.5844" lon="2.0191">
        <ele>93.2</ele>
        <time>2023-12-20T13:40:59Z</time>
      </trkpt>
      <trkpt lat="48.58433" lon="2.01917">
        <ele>93.2</ele>
        <time>2023-12-20T13:41:00Z</time>
      </trkpt>
      <trkpt lat="48.58426" lon="2.01923">
        <ele>93.2</ele>
        <time>2023-12-20T13:41:01Z</time>
      </trkpt>
      <trkpt lat="48.58419" lon="2.01929">
        <ele>93.2</ele>
        <time>2023-12-20T13:41:02Z</time>
      </trkpt>
      <trkpt lat="48.58412" lon="2.01936">
        <ele>92.4</ele>
        <time>2023-12-20T13:41:03Z</time>
      </trkpt>
      <trkpt lat="48.58406" lon="2.01942">
        <ele>92.4</ele>
        <time>2023-12-20T13:41:04Z</time>
      </trkpt>
      <trkpt lat="48.58399" lon="2.01948">
        <ele>92.4</ele>
        <time>2023-12-20T13:41:05Z</time>
      </trkpt>
      <trkpt lat="48.58396" lon="2.01956">
        <ele>92.4</ele>
        <time>2023-12-20T13:41:06Z</time>
      </trkpt>
      <trkpt lat="48.58393" lon="2.01963">
        <ele>92.4</ele>
        <time>2023-12-20T13:41:07Z</time>
      </trkpt>
      <trkpt lat="48.58389" lon="2.0197">
        <ele>92.4</ele>
        <time>2023-12-20T13:41:08Z</time>
      </trkpt>
      <trkpt lat="48.58387" lon="2.01971">
        <ele>92.4</ele>
        <time>2023-12-20T13:41:09Z</time>
      </trkpt>
      <trkpt lat="48.58383" lon="2.01975">
        <ele>92.4</ele>
        <time>2023-12-20T13:41:10Z</time>
      </trkpt>
      <trkpt lat="48.58383" lon="2.01975">
        <ele>92.2</ele>
        <time>2023-12-20T13:41:11Z</time>
      </trkpt>
      <trkpt lat="48.58366" lon="2.01989">
        <ele>92.2</ele>
        <time>2023-12-20T13:41:12Z</time>
      </trkpt>
      <trkpt lat="48.5836" lon="2.01996">
        <ele>92.2</ele>
        <time>2023-12-20T13:41:13Z</time>
      </trkpt>
      <trkpt lat="48.58352" lon="2.02004">
        <ele>92.2</ele>
        <time>2023-12-20T13:41:14Z</time>
      </trkpt>
      <trkpt lat="48.58347" lon="2.02013">
        <ele>92</ele>
        <time>2023-12-20T13:41:15Z</time>
      </trkpt>
      <trkpt lat="48.58341" lon="2.02018">
        <ele>92</ele>
        <time>2023-12-20T13:41:16Z</time>
      </trkpt>
      <trkpt lat="48.58335" lon="2.02024">
        <ele>92</ele>
        <time>2023-12-20T13:41:17Z</time>
      </trkpt>
      <trkpt lat="48.58328" lon="2.02031">
        <ele>92.8</ele>
        <time>2023-12-20T13:41:18Z</time>
      </trkpt>
      <trkpt lat="48.58321" lon="2.02038">
        <ele>92.8</ele>
        <time>2023-12-20T13:41:19Z</time>
      </trkpt>
      <trkpt lat="48.58315" lon="2.02046">
        <ele>92.8</ele>
        <time>2023-12-20T13:41:20Z</time>
      </trkpt>
      <trkpt lat="48.5831" lon="2.02051">
        <ele>92.8</ele>
        <time>2023-12-20T13:41:21Z</time>
      </trkpt>
      <trkpt lat="48.58305" lon="2.02056">
        <ele>92.8</ele>
        <time>2023-12-20T13:41:22Z</time>
      </trkpt>
      <trkpt lat="48.58299" lon="2.02061">
        <ele>93.2</ele>
        <time>2023-12-20T13:41:23Z</time>
      </trkpt>
      <trkpt lat="48.58295" lon="2.02067">
        <ele>93.2</ele>
        <time>2023-12-20T13:41:24Z</time>
      </trkpt>
      <trkpt lat="48.5829" lon="2.02073">
        <ele>93.2</ele>
        <time>2023-12-20T13:41:25Z</time>
      </trkpt>
      <trkpt lat="48.58285" lon="2.02079">
        <ele>93.2</ele>
        <time>2023-12-20T13:41:26Z</time>
      </trkpt>
      <trkpt lat="48.5828" lon="2.02086">
        <ele>93.6</ele>
        <time>2023-12-20T13:41:27Z</time>
      </trkpt>
      <trkpt lat="48.58275" lon="2.02092">
        <ele>93.6</ele>
        <time>2023-12-20T13:41:28Z</time>
      </trkpt>
      <trkpt lat="48.5827" lon="2.02099">
        <ele>93.6</ele>
        <time>2023-12-20T13:41:29Z</time>
      </trkpt>
      <trkpt lat="48.58265" lon="2.02106">
        <ele>93.6</ele>
        <time>2023-12-20T13:41:30Z</time>
      </trkpt>
      <trkpt lat="48.58259" lon="2.02111">
        <ele>93.4</ele>
        <time>2023-12-20T13:41:31Z</time>
      </trkpt>
      <trkpt lat="48.58254" lon="2.02118">
        <ele>93.4</ele>
        <time>2023-12-20T13:41:32Z</time>
      </trkpt>
      <trkpt lat="48.58249" lon="2.02125">
        <ele>93.4</ele>
        <time>2023-12-20T13:41:33Z</time>
      </trkpt>
      <trkpt lat="48.58244" lon="2.02131">
        <ele>93.6</ele>
        <time>2023-12-20T13:41:34Z</time>
      </trkpt>
      <trkpt lat="48.58239" lon="2.02136">
        <ele>94.2</ele>
        <time>2023-12-20T13:41:35Z</time>
      </trkpt>
      <trkpt lat="48.58236" lon="2.0214">
        <ele>94.2</ele>
        <time>2023-12-20T13:41:36Z</time>
      </trkpt>
      <trkpt lat="48.58234" lon="2.02143">
        <ele>94.2</ele>
        <time>2023-12-20T13:41:37Z</time>
      </trkpt>
      <trkpt lat="48.5823" lon="2.02145">
        <ele>94.2</ele>
        <time>2023-12-20T13:41:38Z</time>
      </trkpt>
      <trkpt lat="48.58226" lon="2.02149">
        <ele>94.2</ele>
        <time>2023-12-20T13:41:39Z</time>
      </trkpt>
      <trkpt lat="48.58221" lon="2.02153">
        <ele>94.2</ele>
        <time>2023-12-20T13:41:40Z</time>
      </trkpt>
      <trkpt lat="48.58216" lon="2.02159">
        <ele>94.2</ele>
        <time>2023-12-20T13:41:41Z</time>
      </trkpt>
      <trkpt lat="48.58211" lon="2.02166">
        <ele>94.2</ele>
        <time>2023-12-20T13:41:42Z</time>
      </trkpt>
      <trkpt lat="48.58205" lon="2.02173">
        <ele>94.2</ele>
        <time>2023-12-20T13:41:43Z</time>
      </trkpt>
      <trkpt lat="48.582" lon="2.0218">
        <ele>94.2</ele>
        <time>2023-12-20T13:41:44Z</time>
      </trkpt>
      <trkpt lat="48.58194" lon="2.02187">
        <ele>94.2</ele>
        <time>2023-12-20T13:41:45Z</time>
      </trkpt>
      <trkpt lat="48.58189" lon="2.02194">
        <ele>94.2</ele>
        <time>2023-12-20T13:41:46Z</time>
      </trkpt>
      <trkpt lat="48.58184" lon="2.022">
        <ele>94.6</ele>
        <time>2023-12-20T13:41:47Z</time>
      </trkpt>
      <trkpt lat="48.58179" lon="2.02207">
        <ele>94.6</ele>
        <time>2023-12-20T13:41:48Z</time>
      </trkpt>
      <trkpt lat="48.58174" lon="2.02214">
        <ele>94.6</ele>
        <time>2023-12-20T13:41:49Z</time>
      </trkpt>
      <trkpt lat="48.58168" lon="2.0222">
        <ele>94.6</ele>
        <time>2023-12-20T13:41:50Z</time>
      </trkpt>
      <trkpt lat="48.58163" lon="2.02227">
        <ele>94.8</ele>
        <time>2023-12-20T13:41:51Z</time>
      </trkpt>
      <trkpt lat="48.58158" lon="2.02234">
        <ele>94.8</ele>
        <time>2023-12-20T13:41:52Z</time>
      </trkpt>
      <trkpt lat="48.58152" lon="2.0224">
        <ele>94.8</ele>
        <time>2023-12-20T13:41:53Z</time>
      </trkpt>
      <trkpt lat="48.58146" lon="2.02247">
        <ele>94.8</ele>
        <time>2023-12-20T13:41:54Z</time>
      </trkpt>
      <trkpt lat="48.58141" lon="2.02253">
        <ele>95.2</ele>
        <time>2023-12-20T13:41:55Z</time>
      </trkpt>
      <trkpt lat="48.58136" lon="2.0226">
        <ele>95.2</ele>
        <time>2023-12-20T13:41:56Z</time>
      </trkpt>
      <trkpt lat="48.5813" lon="2.02266">
        <ele>95.2</ele>
        <time>2023-12-20T13:41:57Z</time>
      </trkpt>
      <trkpt lat="48.58125" lon="2.02273">
        <ele>95</ele>
        <time>2023-12-20T13:41:58Z</time>
      </trkpt>
      <trkpt lat="48.58119" lon="2.02279">
        <ele>95.4</ele>
        <time>2023-12-20T13:41:59Z</time>
      </trkpt>
      <trkpt lat="48.58114" lon="2.02286">
        <ele>95.4</ele>
        <time>2023-12-20T13:42:00Z</time>
      </trkpt>
      <trkpt lat="48.58108" lon="2.02292">
        <ele>95.4</ele>
        <time>2023-12-20T13:42:01Z</time>
      </trkpt>
      <trkpt lat="48.58103" lon="2.02298">
        <ele>95.4</ele>
        <time>2023-12-20T13:42:02Z</time>
      </trkpt>
      <trkpt lat="48.58098" lon="2.02305">
        <ele>95</ele>
        <time>2023-12-20T13:42:03Z</time>
      </trkpt>
      <trkpt lat="48.58092" lon="2.02311">
        <ele>95</ele>
        <time>2023-12-20T13:42:04Z</time>
      </trkpt>
      <trkpt lat="48.58087" lon="2.02317">
        <ele>95</ele>
        <time>2023-12-20T13:42:05Z</time>
      </trkpt>
      <trkpt lat="48.58081" lon="2.02323">
        <ele>95.4</ele>
        <time>2023-12-20T13:42:06Z</time>
      </trkpt>
      <trkpt lat="48.58075" lon="2.02329">
        <ele>95.8</ele>
        <time>2023-12-20T13:42:07Z</time>
      </trkpt>
      <trkpt lat="48.58069" lon="2.02334">
        <ele>95.8</ele>
        <time>2023-12-20T13:42:08Z</time>
      </trkpt>
      <trkpt lat="48.58062" lon="2.0234">
        <ele>95.8</ele>
        <time>2023-12-20T13:42:09Z</time>
      </trkpt>
      <trkpt lat="48.58056" lon="2.02345">
        <ele>96.2</ele>
        <time>2023-12-20T13:42:10Z</time>
      </trkpt>
      <trkpt lat="48.58049" lon="2.02351">
        <ele>96</ele>
        <time>2023-12-20T13:42:11Z</time>
      </trkpt>
      <trkpt lat="48.58042" lon="2.02356">
        <ele>96</ele>
        <time>2023-12-20T13:42:12Z</time>
      </trkpt>
      <trkpt lat="48.58036" lon="2.02361">
        <ele>96</ele>
        <time>2023-12-20T13:42:13Z</time>
      </trkpt>
      <trkpt lat="48.58029" lon="2.02367">
        <ele>96</ele>
        <time>2023-12-20T13:42:14Z</time>
      </trkpt>
      <trkpt lat="48.58023" lon="2.02373">
        <ele>96.4</ele>
        <time>2023-12-20T13:42:15Z</time>
      </trkpt>
      <trkpt lat="48.58016" lon="2.02378">
        <ele>96.4</ele>
        <time>2023-12-20T13:42:16Z</time>
      </trkpt>
      <trkpt lat="48.5801" lon="2.02384">
        <ele>96.4</ele>
        <time>2023-12-20T13:42:17Z</time>
      </trkpt>
      <trkpt lat="48.58003" lon="2.0239">
        <ele>96.8</ele>
        <time>2023-12-20T13:42:18Z</time>
      </trkpt>
      <trkpt lat="48.57997" lon="2.02395">
        <ele>96.8</ele>
        <time>2023-12-20T13:42:19Z</time>
      </trkpt>
      <trkpt lat="48.57992" lon="2.02401">
        <ele>96.8</ele>
        <time>2023-12-20T13:42:20Z</time>
      </trkpt>
      <trkpt lat="48.57986" lon="2.02406">
        <ele>96.8</ele>
        <time>2023-12-20T13:42:21Z</time>
      </trkpt>
      <trkpt lat="48.57981" lon="2.0241">
        <ele>97.8</ele>
        <time>2023-12-20T13:42:22Z</time>
      </trkpt>
      <trkpt lat="48.57975" lon="2.02415">
        <ele>98.4</ele>
        <time>2023-12-20T13:42:23Z</time>
      </trkpt>
      <trkpt lat="48.5797" lon="2.0242">
        <ele>98.4</ele>
        <time>2023-12-20T13:42:24Z</time>
      </trkpt>
      <trkpt lat="48.57965" lon="2.02425">
        <ele>98.4</ele>
        <time>2023-12-20T13:42:25Z</time>
      </trkpt>
      <trkpt lat="48.5796" lon="2.0243">
        <ele>98.4</ele>
        <time>2023-12-20T13:42:26Z</time>
      </trkpt>
      <trkpt lat="48.57955" lon="2.02435">
        <ele>98.2</ele>
        <time>2023-12-20T13:42:27Z</time>
      </trkpt>
      <trkpt lat="48.57949" lon="2.0244">
        <ele>98.2</ele>
        <time>2023-12-20T13:42:28Z</time>
      </trkpt>
      <trkpt lat="48.57944" lon="2.02445">
        <ele>98.2</ele>
        <time>2023-12-20T13:42:29Z</time>
      </trkpt>
      <trkpt lat="48.57939" lon="2.0245">
        <ele>97.4</ele>
        <time>2023-12-20T13:42:30Z</time>
      </trkpt>
      <trkpt lat="48.57933" lon="2.02455">
        <ele>97.2</ele>
        <time>2023-12-20T13:42:31Z</time>
      </trkpt>
      <trkpt lat="48.57928" lon="2.0246">
        <ele>97.2</ele>
        <time>2023-12-20T13:42:32Z</time>
      </trkpt>
      <trkpt lat="48.57922" lon="2.02465">
        <ele>97.2</ele>
        <time>2023-12-20T13:42:33Z</time>
      </trkpt>
      <trkpt lat="48.57917" lon="2.0247">
        <ele>97.2</ele>
        <time>2023-12-20T13:42:34Z</time>
      </trkpt>
      <trkpt lat="48.57911" lon="2.02475">
        <ele>96.8</ele>
        <time>2023-12-20T13:42:35Z</time>
      </trkpt>
      <trkpt lat="48.57905" lon="2.0248">
        <ele>96.8</ele>
        <time>2023-12-20T13:42:36Z</time>
      </trkpt>
      <trkpt lat="48.57899" lon="2.02485">
        <ele>96.8</ele>
        <time>2023-12-20T13:42:37Z</time>
      </trkpt>
      <trkpt lat="48.57894" lon="2.0249">
        <ele>96.2</ele>
        <time>2023-12-20T13:42:38Z</time>
      </trkpt>
      <trkpt lat="48.57888" lon="2.02496">
        <ele>96.2</ele>
        <time>2023-12-20T13:42:39Z</time>
      </trkpt>
      <trkpt lat="48.57882" lon="2.02501">
        <ele>96.2</ele>
        <time>2023-12-20T13:42:40Z</time>
      </trkpt>
      <trkpt lat="48.57876" lon="2.02506">
        <ele>96.2</ele>
        <time>2023-12-20T13:42:41Z</time>
      </trkpt>
      <trkpt lat="48.5787" lon="2.02511">
        <ele>96.2</ele>
        <time>2023-12-20T13:42:42Z</time>
      </trkpt>
      <trkpt lat="48.57864" lon="2.02517">
        <ele>95.4</ele>
        <time>2023-12-20T13:42:43Z</time>
      </trkpt>
      <trkpt lat="48.57858" lon="2.02522">
        <ele>95.4</ele>
        <time>2023-12-20T13:42:44Z</time>
      </trkpt>
      <trkpt lat="48.57852" lon="2.02528">
        <ele>95.4</ele>
        <time>2023-12-20T13:42:45Z</time>
      </trkpt>
      <trkpt lat="48.57846" lon="2.02533">
        <ele>95.4</ele>
        <time>2023-12-20T13:42:46Z</time>
      </trkpt>
      <trkpt lat="48.5784" lon="2.02538">
        <ele>94.6</ele>
        <time>2023-12-20T13:42:47Z</time>
      </trkpt>
      <trkpt lat="48.57834" lon="2.02544">
        <ele>94.6</ele>
        <time>2023-12-20T13:42:48Z</time>
      </trkpt>
      <trkpt lat="48.57828" lon="2.02549">
        <ele>94.6</ele>
        <time>2023-12-20T13:42:49Z</time>
      </trkpt>
      <trkpt lat="48.57822" lon="2.02554">
        <ele>94.8</ele>
        <time>2023-12-20T13:42:50Z</time>
      </trkpt>
      <trkpt lat="48.57815" lon="2.0256">
        <ele>94.6</ele>
        <time>2023-12-20T13:42:51Z</time>
      </trkpt>
      <trkpt lat="48.57809" lon="2.02565">
        <ele>94.6</ele>
        <time>2023-12-20T13:42:52Z</time>
      </trkpt>
      <trkpt lat="48.57803" lon="2.02571">
        <ele>94.6</ele>
        <time>2023-12-20T13:42:53Z</time>
      </trkpt>
      <trkpt lat="48.57797" lon="2.02577">
        <ele>94.6</ele>
        <time>2023-12-20T13:42:54Z</time>
      </trkpt>
      <trkpt lat="48.57791" lon="2.02582">
        <ele>94.4</ele>
        <time>2023-12-20T13:42:55Z</time>
      </trkpt>
      <trkpt lat="48.57785" lon="2.02588">
        <ele>94.4</ele>
        <time>2023-12-20T13:42:56Z</time>
      </trkpt>
      <trkpt lat="48.57779" lon="2.02594">
        <ele>94.4</ele>
        <time>2023-12-20T13:42:57Z</time>
      </trkpt>
      <trkpt lat="48.57773" lon="2.02599">
        <ele>94.4</ele>
        <time>2023-12-20T13:42:58Z</time>
      </trkpt>
      <trkpt lat="48.57767" lon="2.02605">
        <ele>94.2</ele>
        <time>2023-12-20T13:42:59Z</time>
      </trkpt>
      <trkpt lat="48.5776" lon="2.0261">
        <ele>94.2</ele>
        <time>2023-12-20T13:43:00Z</time>
      </trkpt>
      <trkpt lat="48.57754" lon="2.02615">
        <ele>94.2</ele>
        <time>2023-12-20T13:43:01Z</time>
      </trkpt>
      <trkpt lat="48.57748" lon="2.02621">
        <ele>94</ele>
        <time>2023-12-20T13:43:02Z</time>
      </trkpt>
      <trkpt lat="48.57742" lon="2.02626">
        <ele>93.2</ele>
        <time>2023-12-20T13:43:03Z</time>
      </trkpt>
      <trkpt lat="48.57735" lon="2.02632">
        <ele>93.2</ele>
        <time>2023-12-20T13:43:04Z</time>
      </trkpt>
      <trkpt lat="48.57729" lon="2.02638">
        <ele>93.2</ele>
        <time>2023-12-20T13:43:05Z</time>
      </trkpt>
      <trkpt lat="48.57723" lon="2.02644">
        <ele>93.2</ele>
        <time>2023-12-20T13:43:06Z</time>
      </trkpt>
      <trkpt lat="48.57716" lon="2.0265">
        <ele>92.6</ele>
        <time>2023-12-20T13:43:07Z</time>
      </trkpt>
      <trkpt lat="48.5771" lon="2.02655">
        <ele>92.6</ele>
        <time>2023-12-20T13:43:08Z</time>
      </trkpt>
      <trkpt lat="48.57703" lon="2.02661">
        <ele>92.6</ele>
        <time>2023-12-20T13:43:09Z</time>
      </trkpt>
      <trkpt lat="48.57697" lon="2.02667">
        <ele>92.6</ele>
        <time>2023-12-20T13:43:10Z</time>
      </trkpt>
      <trkpt lat="48.5769" lon="2.02673">
        <ele>93.2</ele>
        <time>2023-12-20T13:43:11Z</time>
      </trkpt>
      <trkpt lat="48.57684" lon="2.02679">
        <ele>93.2</ele>
        <time>2023-12-20T13:43:12Z</time>
      </trkpt>
      <trkpt lat="48.57678" lon="2.02686">
        <ele>93.2</ele>
        <time>2023-12-20T13:43:13Z</time>
      </trkpt>
      <trkpt lat="48.57672" lon="2.02693">
        <ele>93</ele>
        <time>2023-12-20T13:43:14Z</time>
      </trkpt>
      <trkpt lat="48.57666" lon="2.027">
        <ele>93.2</ele>
        <time>2023-12-20T13:43:15Z</time>
      </trkpt>
      <trkpt lat="48.57661" lon="2.02707">
        <ele>93.2</ele>
        <time>2023-12-20T13:43:16Z</time>
      </trkpt>
      <trkpt lat="48.57655" lon="2.02714">
        <ele>93.2</ele>
        <time>2023-12-20T13:43:17Z</time>
      </trkpt>
      <trkpt lat="48.5765" lon="2.02722">
        <ele>92.2</ele>
        <time>2023-12-20T13:43:18Z</time>
      </trkpt>
      <trkpt lat="48.57644" lon="2.02729">
        <ele>92.2</ele>
        <time>2023-12-20T13:43:19Z</time>
      </trkpt>
      <trkpt lat="48.57638" lon="2.02736">
        <ele>92.2</ele>
        <time>2023-12-20T13:43:20Z</time>
      </trkpt>
      <trkpt lat="48.57633" lon="2.02743">
        <ele>92.2</ele>
        <time>2023-12-20T13:43:21Z</time>
      </trkpt>
      <trkpt lat="48.57627" lon="2.02749">
        <ele>92.2</ele>
        <time>2023-12-20T13:43:22Z</time>
      </trkpt>
      <trkpt lat="48.57621" lon="2.02754">
        <ele>91.8</ele>
        <time>2023-12-20T13:43:23Z</time>
      </trkpt>
      <trkpt lat="48.57614" lon="2.0276">
        <ele>91.8</ele>
        <time>2023-12-20T13:43:24Z</time>
      </trkpt>
      <trkpt lat="48.57608" lon="2.02765">
        <ele>91.8</ele>
        <time>2023-12-20T13:43:25Z</time>
      </trkpt>
      <trkpt lat="48.57602" lon="2.0277">
        <ele>91.2</ele>
        <time>2023-12-20T13:43:26Z</time>
      </trkpt>
      <trkpt lat="48.57595" lon="2.02776">
        <ele>91.2</ele>
        <time>2023-12-20T13:43:27Z</time>
      </trkpt>
      <trkpt lat="48.57589" lon="2.02781">
        <ele>91.2</ele>
        <time>2023-12-20T13:43:28Z</time>
      </trkpt>
      <trkpt lat="48.57582" lon="2.02787">
        <ele>91.2</ele>
        <time>2023-12-20T13:43:29Z</time>
      </trkpt>
      <trkpt lat="48.57576" lon="2.02792">
        <ele>90.8</ele>
        <time>2023-12-20T13:43:30Z</time>
      </trkpt>
      <trkpt lat="48.5757" lon="2.02797">
        <ele>90.6</ele>
        <time>2023-12-20T13:43:31Z</time>
      </trkpt>
      <trkpt lat="48.57563" lon="2.02802">
        <ele>90.6</ele>
        <time>2023-12-20T13:43:32Z</time>
      </trkpt>
      <trkpt lat="48.57556" lon="2.02807">
        <ele>90.6</ele>
        <time>2023-12-20T13:43:33Z</time>
      </trkpt>
      <trkpt lat="48.5755" lon="2.02813">
        <ele>89.8</ele>
        <time>2023-12-20T13:43:34Z</time>
      </trkpt>
      <trkpt lat="48.57543" lon="2.02818">
        <ele>90</ele>
        <time>2023-12-20T13:43:35Z</time>
      </trkpt>
      <trkpt lat="48.57537" lon="2.02823">
        <ele>90</ele>
        <time>2023-12-20T13:43:36Z</time>
      </trkpt>
      <trkpt lat="48.5753" lon="2.02829">
        <ele>90</ele>
        <time>2023-12-20T13:43:37Z</time>
      </trkpt>
      <trkpt lat="48.57524" lon="2.02834">
        <ele>90</ele>
        <time>2023-12-20T13:43:38Z</time>
      </trkpt>
      <trkpt lat="48.57517" lon="2.02839">
        <ele>89.8</ele>
        <time>2023-12-20T13:43:39Z</time>
      </trkpt>
      <trkpt lat="48.57511" lon="2.02844">
        <ele>89.8</ele>
        <time>2023-12-20T13:43:40Z</time>
      </trkpt>
      <trkpt lat="48.57504" lon="2.02849">
        <ele>89.8</ele>
        <time>2023-12-20T13:43:41Z</time>
      </trkpt>
      <trkpt lat="48.57498" lon="2.02854">
        <ele>89.8</ele>
        <time>2023-12-20T13:43:42Z</time>
      </trkpt>
      <trkpt lat="48.57492" lon="2.02859">
        <ele>90.8</ele>
        <time>2023-12-20T13:43:43Z</time>
      </trkpt>
      <trkpt lat="48.57487" lon="2.02864">
        <ele>90.8</ele>
        <time>2023-12-20T13:43:44Z</time>
      </trkpt>
      <trkpt lat="48.57481" lon="2.02868">
        <ele>90.8</ele>
        <time>2023-12-20T13:43:45Z</time>
      </trkpt>
      <trkpt lat="48.57475" lon="2.02873">
        <ele>89.8</ele>
        <time>2023-12-20T13:43:46Z</time>
      </trkpt>
      <trkpt lat="48.57469" lon="2.02877">
        <ele>90.4</ele>
        <time>2023-12-20T13:43:47Z</time>
      </trkpt>
      <trkpt lat="48.57463" lon="2.02883">
        <ele>90.4</ele>
        <time>2023-12-20T13:43:48Z</time>
      </trkpt>
      <trkpt lat="48.57457" lon="2.02888">
        <ele>90.4</ele>
        <time>2023-12-20T13:43:49Z</time>
      </trkpt>
      <trkpt lat="48.57451" lon="2.02894">
        <ele>89.4</ele>
        <time>2023-12-20T13:43:50Z</time>
      </trkpt>
      <trkpt lat="48.57444" lon="2.02899">
        <ele>88.8</ele>
        <time>2023-12-20T13:43:51Z</time>
      </trkpt>
      <trkpt lat="48.57437" lon="2.02904">
        <ele>88.8</ele>
        <time>2023-12-20T13:43:52Z</time>
      </trkpt>
      <trkpt lat="48.57431" lon="2.02908">
        <ele>88.8</ele>
        <time>2023-12-20T13:43:53Z</time>
      </trkpt>
      <trkpt lat="48.57424" lon="2.02913">
        <ele>89.2</ele>
        <time>2023-12-20T13:43:54Z</time>
      </trkpt>
      <trkpt lat="48.57419" lon="2.02918">
        <ele>89.2</ele>
        <time>2023-12-20T13:43:55Z</time>
      </trkpt>
      <trkpt lat="48.57413" lon="2.02923">
        <ele>89.2</ele>
        <time>2023-12-20T13:43:56Z</time>
      </trkpt>
      <trkpt lat="48.57408" lon="2.02928">
        <ele>89.2</ele>
        <time>2023-12-20T13:43:57Z</time>
      </trkpt>
      <trkpt lat="48.57402" lon="2.02934">
        <ele>89.2</ele>
        <time>2023-12-20T13:43:58Z</time>
      </trkpt>
      <trkpt lat="48.57396" lon="2.0294">
        <ele>90.2</ele>
        <time>2023-12-20T13:43:59Z</time>
      </trkpt>
      <trkpt lat="48.57391" lon="2.02947">
        <ele>90.2</ele>
        <time>2023-12-20T13:44:00Z</time>
      </trkpt>
      <trkpt lat="48.57387" lon="2.02954">
        <ele>90.2</ele>
        <time>2023-12-20T13:44:01Z</time>
      </trkpt>
      <trkpt lat="48.57382" lon="2.02961">
        <ele>90.2</ele>
        <time>2023-12-20T13:44:02Z</time>
      </trkpt>
      <trkpt lat="48.57378" lon="2.02969">
        <ele>90</ele>
        <time>2023-12-20T13:44:03Z</time>
      </trkpt>
      <trkpt lat="48.57374" lon="2.02976">
        <ele>90</ele>
        <time>2023-12-20T13:44:04Z</time>
      </trkpt>
      <trkpt lat="48.5737" lon="2.02983">
        <ele>90</ele>
        <time>2023-12-20T13:44:05Z</time>
      </trkpt>
      <trkpt lat="48.57365" lon="2.0299">
        <ele>90</ele>
        <time>2023-12-20T13:44:06Z</time>
      </trkpt>
      <trkpt lat="48.57361" lon="2.02998">
        <ele>91</ele>
        <time>2023-12-20T13:44:07Z</time>
      </trkpt>
      <trkpt lat="48.57358" lon="2.03005">
        <ele>91</ele>
        <time>2023-12-20T13:44:08Z</time>
      </trkpt>
      <trkpt lat="48.57354" lon="2.03012">
        <ele>91</ele>
        <time>2023-12-20T13:44:09Z</time>
      </trkpt>
      <trkpt lat="48.57351" lon="2.03018">
        <ele>91.6</ele>
        <time>2023-12-20T13:44:10Z</time>
      </trkpt>
      <trkpt lat="48.57347" lon="2.03025">
        <ele>91.8</ele>
        <time>2023-12-20T13:44:11Z</time>
      </trkpt>
      <trkpt lat="48.57345" lon="2.03032">
        <ele>91.8</ele>
        <time>2023-12-20T13:44:12Z</time>
      </trkpt>
      <trkpt lat="48.57342" lon="2.03039">
        <ele>91.8</ele>
        <time>2023-12-20T13:44:13Z</time>
      </trkpt>
      <trkpt lat="48.57338" lon="2.03045">
        <ele>92.6</ele>
        <time>2023-12-20T13:44:14Z</time>
      </trkpt>
      <trkpt lat="48.57335" lon="2.03052">
        <ele>93.4</ele>
        <time>2023-12-20T13:44:15Z</time>
      </trkpt>
      <trkpt lat="48.57332" lon="2.03058">
        <ele>93.4</ele>
        <time>2023-12-20T13:44:16Z</time>
      </trkpt>
      <trkpt lat="48.57329" lon="2.03064">
        <ele>93.4</ele>
        <time>2023-12-20T13:44:17Z</time>
      </trkpt>
      <trkpt lat="48.57326" lon="2.03069">
        <ele>93.4</ele>
        <time>2023-12-20T13:44:18Z</time>
      </trkpt>
      <trkpt lat="48.57322" lon="2.03075">
        <ele>94.4</ele>
        <time>2023-12-20T13:44:19Z</time>
      </trkpt>
      <trkpt lat="48.57319" lon="2.0308">
        <ele>94.4</ele>
        <time>2023-12-20T13:44:20Z</time>
      </trkpt>
      <trkpt lat="48.57316" lon="2.03086">
        <ele>94.4</ele>
        <time>2023-12-20T13:44:21Z</time>
      </trkpt>
      <trkpt lat="48.57313" lon="2.03091">
        <ele>94.4</ele>
        <time>2023-12-20T13:44:22Z</time>
      </trkpt>
      <trkpt lat="48.5731" lon="2.03096">
        <ele>94.6</ele>
        <time>2023-12-20T13:44:23Z</time>
      </trkpt>
      <trkpt lat="48.57307" lon="2.03102">
        <ele>94.6</ele>
        <time>2023-12-20T13:44:24Z</time>
      </trkpt>
      <trkpt lat="48.57304" lon="2.03108">
        <ele>94.6</ele>
        <time>2023-12-20T13:44:25Z</time>
      </trkpt>
      <trkpt lat="48.57301" lon="2.03114">
        <ele>94.6</ele>
        <time>2023-12-20T13:44:26Z</time>
      </trkpt>
      <trkpt lat="48.57299" lon="2.03119">
        <ele>95.2</ele>
        <time>2023-12-20T13:44:27Z</time>
      </trkpt>
      <trkpt lat="48.57295" lon="2.03125">
        <ele>95.2</ele>
        <time>2023-12-20T13:44:28Z</time>
      </trkpt>
      <trkpt lat="48.57292" lon="2.03131">
        <ele>95.2</ele>
        <time>2023-12-20T13:44:29Z</time>
      </trkpt>
      <trkpt lat="48.57289" lon="2.03136">
        <ele>96</ele>
        <time>2023-12-20T13:44:30Z</time>
      </trkpt>
      <trkpt lat="48.57286" lon="2.03142">
        <ele>96.8</ele>
        <time>2023-12-20T13:44:31Z</time>
      </trkpt>
      <trkpt lat="48.57282" lon="2.03148">
        <ele>96.8</ele>
        <time>2023-12-20T13:44:32Z</time>
      </trkpt>
      <trkpt lat="48.57278" lon="2.03153">
        <ele>96.8</ele>
        <time>2023-12-20T13:44:33Z</time>
      </trkpt>
      <trkpt lat="48.57274" lon="2.03158">
        <ele>96.8</ele>
        <time>2023-12-20T13:44:34Z</time>
      </trkpt>
      <trkpt lat="48.5727" lon="2.03163">
        <ele>96.4</ele>
        <time>2023-12-20T13:44:35Z</time>
      </trkpt>
      <trkpt lat="48.57266" lon="2.03168">
        <ele>96.4</ele>
        <time>2023-12-20T13:44:36Z</time>
      </trkpt>
      <trkpt lat="48.57262" lon="2.03173">
        <ele>96.4</ele>
        <time>2023-12-20T13:44:37Z</time>
      </trkpt>
      <trkpt lat="48.57258" lon="2.03178">
        <ele>96.4</ele>
        <time>2023-12-20T13:44:38Z</time>
      </trkpt>
      <trkpt lat="48.57254" lon="2.03184">
        <ele>96.6</ele>
        <time>2023-12-20T13:44:39Z</time>
      </trkpt>
      <trkpt lat="48.5725" lon="2.03189">
        <ele>96.6</ele>
        <time>2023-12-20T13:44:40Z</time>
      </trkpt>
      <trkpt lat="48.57245" lon="2.03193">
        <ele>96.6</ele>
        <time>2023-12-20T13:44:41Z</time>
      </trkpt>
      <trkpt lat="48.57241" lon="2.03198">
        <ele>96.6</ele>
        <time>2023-12-20T13:44:42Z</time>
      </trkpt>
      <trkpt lat="48.57236" lon="2.03202">
        <ele>96.2</ele>
        <time>2023-12-20T13:44:43Z</time>
      </trkpt>
      <trkpt lat="48.57231" lon="2.03207">
        <ele>96.2</ele>
        <time>2023-12-20T13:44:44Z</time>
      </trkpt>
      <trkpt lat="48.57227" lon="2.03213">
        <ele>96.2</ele>
        <time>2023-12-20T13:44:45Z</time>
      </trkpt>
      <trkpt lat="48.57223" lon="2.03217">
        <ele>96.2</ele>
        <time>2023-12-20T13:44:46Z</time>
      </trkpt>
      <trkpt lat="48.57218" lon="2.03221">
        <ele>96.4</ele>
        <time>2023-12-20T13:44:47Z</time>
      </trkpt>
      <trkpt lat="48.57213" lon="2.03225">
        <ele>96.4</ele>
        <time>2023-12-20T13:44:48Z</time>
      </trkpt>
      <trkpt lat="48.57208" lon="2.03229">
        <ele>96.4</ele>
        <time>2023-12-20T13:44:49Z</time>
      </trkpt>
      <trkpt lat="48.57203" lon="2.03233">
        <ele>96.6</ele>
        <time>2023-12-20T13:44:50Z</time>
      </trkpt>
      <trkpt lat="48.57198" lon="2.03238">
        <ele>96</ele>
        <time>2023-12-20T13:44:51Z</time>
      </trkpt>
      <trkpt lat="48.57193" lon="2.03243">
        <ele>96</ele>
        <time>2023-12-20T13:44:52Z</time>
      </trkpt>
      <trkpt lat="48.57188" lon="2.03247">
        <ele>96</ele>
        <time>2023-12-20T13:44:53Z</time>
      </trkpt>
      <trkpt lat="48.57183" lon="2.03252">
        <ele>96</ele>
        <time>2023-12-20T13:44:54Z</time>
      </trkpt>
      <trkpt lat="48.57178" lon="2.03257">
        <ele>96.4</ele>
        <time>2023-12-20T13:44:55Z</time>
      </trkpt>
      <trkpt lat="48.57172" lon="2.03261">
        <ele>96.4</ele>
        <time>2023-12-20T13:44:56Z</time>
      </trkpt>
      <trkpt lat="48.57167" lon="2.03265">
        <ele>96.4</ele>
        <time>2023-12-20T13:44:57Z</time>
      </trkpt>
      <trkpt lat="48.57161" lon="2.03269">
        <ele>96.6</ele>
        <time>2023-12-20T13:44:58Z</time>
      </trkpt>
      <trkpt lat="48.57156" lon="2.03274">
        <ele>97</ele>
        <time>2023-12-20T13:44:59Z</time>
      </trkpt>
      <trkpt lat="48.57151" lon="2.03279">
        <ele>97</ele>
        <time>2023-12-20T13:45:00Z</time>
      </trkpt>
      <trkpt lat="48.57146" lon="2.03284">
        <ele>97</ele>
        <time>2023-12-20T13:45:01Z</time>
      </trkpt>
      <trkpt lat="48.57141" lon="2.03289">
        <ele>96</ele>
        <time>2023-12-20T13:45:02Z</time>
      </trkpt>
      <trkpt lat="48.57136" lon="2.03294">
        <ele>96.6</ele>
        <time>2023-12-20T13:45:03Z</time>
      </trkpt>
      <trkpt lat="48.57131" lon="2.03299">
        <ele>96.6</ele>
        <time>2023-12-20T13:45:04Z</time>
      </trkpt>
      <trkpt lat="48.57126" lon="2.03304">
        <ele>96.6</ele>
        <time>2023-12-20T13:45:05Z</time>
      </trkpt>
      <trkpt lat="48.57121" lon="2.03309">
        <ele>96</ele>
        <time>2023-12-20T13:45:06Z</time>
      </trkpt>
      <trkpt lat="48.57116" lon="2.03313">
        <ele>96.6</ele>
        <time>2023-12-20T13:45:07Z</time>
      </trkpt>
      <trkpt lat="48.5711" lon="2.03318">
        <ele>96.6</ele>
        <time>2023-12-20T13:45:08Z</time>
      </trkpt>
      <trkpt lat="48.57105" lon="2.03322">
        <ele>96.6</ele>
        <time>2023-12-20T13:45:09Z</time>
      </trkpt>
      <trkpt lat="48.571" lon="2.03327">
        <ele>96.6</ele>
        <time>2023-12-20T13:45:10Z</time>
      </trkpt>
      <trkpt lat="48.57095" lon="2.03331">
        <ele>96</ele>
        <time>2023-12-20T13:45:11Z</time>
      </trkpt>
      <trkpt lat="48.5709" lon="2.03335">
        <ele>96</ele>
        <time>2023-12-20T13:45:12Z</time>
      </trkpt>
      <trkpt lat="48.57085" lon="2.03339">
        <ele>96</ele>
        <time>2023-12-20T13:45:13Z</time>
      </trkpt>
      <trkpt lat="48.5708" lon="2.03343">
        <ele>96</ele>
        <time>2023-12-20T13:45:14Z</time>
      </trkpt>
      <trkpt lat="48.57076" lon="2.03347">
        <ele>96.4</ele>
        <time>2023-12-20T13:45:15Z</time>
      </trkpt>
      <trkpt lat="48.5707" lon="2.0335">
        <ele>96.4</ele>
        <time>2023-12-20T13:45:16Z</time>
      </trkpt>
      <trkpt lat="48.57065" lon="2.03354">
        <ele>96.4</ele>
        <time>2023-12-20T13:45:17Z</time>
      </trkpt>
      <trkpt lat="48.5706" lon="2.03357">
        <ele>96.4</ele>
        <time>2023-12-20T13:45:18Z</time>
      </trkpt>
      <trkpt lat="48.57055" lon="2.03361">
        <ele>95.6</ele>
        <time>2023-12-20T13:45:19Z</time>
      </trkpt>
      <trkpt lat="48.5705" lon="2.03364">
        <ele>95.6</ele>
        <time>2023-12-20T13:45:20Z</time>
      </trkpt>
      <trkpt lat="48.57044" lon="2.03367">
        <ele>95.6</ele>
        <time>2023-12-20T13:45:21Z</time>
      </trkpt>
      <trkpt lat="48.57039" lon="2.03371">
        <ele>94.6</ele>
        <time>2023-12-20T13:45:22Z</time>
      </trkpt>
      <trkpt lat="48.57033" lon="2.03374">
        <ele>94</ele>
        <time>2023-12-20T13:45:23Z</time>
      </trkpt>
      <trkpt lat="48.57027" lon="2.03378">
        <ele>94</ele>
        <time>2023-12-20T13:45:24Z</time>
      </trkpt>
      <trkpt lat="48.57022" lon="2.03382">
        <ele>94</ele>
        <time>2023-12-20T13:45:25Z</time>
      </trkpt>
      <trkpt lat="48.57017" lon="2.03384">
        <ele>94</ele>
        <time>2023-12-20T13:45:26Z</time>
      </trkpt>
      <trkpt lat="48.57013" lon="2.03386">
        <ele>95.4</ele>
        <time>2023-12-20T13:45:27Z</time>
      </trkpt>
      <trkpt lat="48.5701" lon="2.03388">
        <ele>95.4</ele>
        <time>2023-12-20T13:45:28Z</time>
      </trkpt>
      <trkpt lat="48.57007" lon="2.03388">
        <ele>95.4</ele>
        <time>2023-12-20T13:45:29Z</time>
      </trkpt>
      <trkpt lat="48.57005" lon="2.03388">
        <ele>95.4</ele>
        <time>2023-12-20T13:45:30Z</time>
      </trkpt>
      <trkpt lat="48.57004" lon="2.03389">
        <ele>95.6</ele>
        <time>2023-12-20T13:45:31Z</time>
      </trkpt>
      <trkpt lat="48.57002" lon="2.03389">
        <ele>95.6</ele>
        <time>2023-12-20T13:45:32Z</time>
      </trkpt>
      <trkpt lat="48.57001" lon="2.03389">
        <ele>95.6</ele>
        <time>2023-12-20T13:45:33Z</time>
      </trkpt>
      <trkpt lat="48.56999" lon="2.03389">
        <ele>95.6</ele>
        <time>2023-12-20T13:45:34Z</time>
      </trkpt>
      <trkpt lat="48.56996" lon="2.03391">
        <ele>95</ele>
        <time>2023-12-20T13:45:35Z</time>
      </trkpt>
      <trkpt lat="48.56993" lon="2.03392">
        <ele>95</ele>
        <time>2023-12-20T13:45:36Z</time>
      </trkpt>
      <trkpt lat="48.5699" lon="2.03394">
        <ele>95</ele>
        <time>2023-12-20T13:45:37Z</time>
      </trkpt>
      <trkpt lat="48.56987" lon="2.03398">
        <ele>95</ele>
        <time>2023-12-20T13:45:38Z</time>
      </trkpt>
      <trkpt lat="48.56984" lon="2.03402">
        <ele>93.4</ele>
        <time>2023-12-20T13:45:39Z</time>
      </trkpt>
      <trkpt lat="48.5698" lon="2.03406">
        <ele>93.4</ele>
        <time>2023-12-20T13:45:40Z</time>
      </trkpt>
      <trkpt lat="48.56976" lon="2.03409">
        <ele>93.4</ele>
        <time>2023-12-20T13:45:41Z</time>
      </trkpt>
      <trkpt lat="48.56971" lon="2.03413">
        <ele>92.4</ele>
        <time>2023-12-20T13:45:42Z</time>
      </trkpt>
      <trkpt lat="48.56966" lon="2.03416">
        <ele>91.6</ele>
        <time>2023-12-20T13:45:43Z</time>
      </trkpt>
      <trkpt lat="48.5696" lon="2.0342">
        <ele>91.6</ele>
        <time>2023-12-20T13:45:44Z</time>
      </trkpt>
      <trkpt lat="48.56954" lon="2.03424">
        <ele>91.6</ele>
        <time>2023-12-20T13:45:45Z</time>
      </trkpt>
      <trkpt lat="48.56948" lon="2.03428">
        <ele>91.6</ele>
        <time>2023-12-20T13:45:46Z</time>
      </trkpt>
      <trkpt lat="48.56943" lon="2.03431">
        <ele>89</ele>
        <time>2023-12-20T13:45:47Z</time>
      </trkpt>
      <trkpt lat="48.56937" lon="2.03435">
        <ele>89</ele>
        <time>2023-12-20T13:45:48Z</time>
      </trkpt>
      <trkpt lat="48.5693" lon="2.03437">
        <ele>89</ele>
        <time>2023-12-20T13:45:49Z</time>
      </trkpt>
      <trkpt lat="48.56924" lon="2.03438">
        <ele>89</ele>
        <time>2023-12-20T13:45:50Z</time>
      </trkpt>
      <trkpt lat="48.56917" lon="2.03442">
        <ele>89.2</ele>
        <time>2023-12-20T13:45:51Z</time>
      </trkpt>
      <trkpt lat="48.56911" lon="2.03446">
        <ele>89.2</ele>
        <time>2023-12-20T13:45:52Z</time>
      </trkpt>
      <trkpt lat="48.56907" lon="2.03453">
        <ele>89.2</ele>
        <time>2023-12-20T13:45:53Z</time>
      </trkpt>
      <trkpt lat="48.56904" lon="2.03462">
        <ele>90.2</ele>
        <time>2023-12-20T13:45:54Z</time>
      </trkpt>
      <trkpt lat="48.56901" lon="2.03471">
        <ele>91.6</ele>
        <time>2023-12-20T13:45:55Z</time>
      </trkpt>
      <trkpt lat="48.56898" lon="2.0348">
        <ele>91.6</ele>
        <time>2023-12-20T13:45:56Z</time>
      </trkpt>
      <trkpt lat="48.56897" lon="2.03489">
        <ele>91.6</ele>
        <time>2023-12-20T13:45:57Z</time>
      </trkpt>
      <trkpt lat="48.56894" lon="2.03498">
        <ele>91</ele>
        <time>2023-12-20T13:45:58Z</time>
      </trkpt>
      <trkpt lat="48.56891" lon="2.03506">
        <ele>91.8</ele>
        <time>2023-12-20T13:45:59Z</time>
      </trkpt>
      <trkpt lat="48.56887" lon="2.03513">
        <ele>91.8</ele>
        <time>2023-12-20T13:46:00Z</time>
      </trkpt>
      <trkpt lat="48.56883" lon="2.0352">
        <ele>91.8</ele>
        <time>2023-12-20T13:46:01Z</time>
      </trkpt>
      <trkpt lat="48.56879" lon="2.03527">
        <ele>90.8</ele>
        <time>2023-12-20T13:46:02Z</time>
      </trkpt>
      <trkpt lat="48.56874" lon="2.03533">
        <ele>89.2</ele>
        <time>2023-12-20T13:46:03Z</time>
      </trkpt>
      <trkpt lat="48.56869" lon="2.03539">
        <ele>89.2</ele>
        <time>2023-12-20T13:46:04Z</time>
      </trkpt>
      <trkpt lat="48.56864" lon="2.03546">
        <ele>89.2</ele>
        <time>2023-12-20T13:46:05Z</time>
      </trkpt>
      <trkpt lat="48.56859" lon="2.03553">
        <ele>89.2</ele>
        <time>2023-12-20T13:46:06Z</time>
      </trkpt>
      <trkpt lat="48.56852" lon="2.03559">
        <ele>88.6</ele>
        <time>2023-12-20T13:46:07Z</time>
      </trkpt>
      <trkpt lat="48.56846" lon="2.03565">
        <ele>88.6</ele>
        <time>2023-12-20T13:46:08Z</time>
      </trkpt>
      <trkpt lat="48.5684" lon="2.03572">
        <ele>88.6</ele>
        <time>2023-12-20T13:46:09Z</time>
      </trkpt>
      <trkpt lat="48.56834" lon="2.03578">
        <ele>87.8</ele>
        <time>2023-12-20T13:46:10Z</time>
      </trkpt>
      <trkpt lat="48.56827" lon="2.03584">
        <ele>87.4</ele>
        <time>2023-12-20T13:46:11Z</time>
      </trkpt>
      <trkpt lat="48.56821" lon="2.03592">
        <ele>87.4</ele>
        <time>2023-12-20T13:46:12Z</time>
      </trkpt>
      <trkpt lat="48.56816" lon="2.036">
        <ele>87.4</ele>
        <time>2023-12-20T13:46:13Z</time>
      </trkpt>
      <trkpt lat="48.56811" lon="2.03609">
        <ele>87.4</ele>
        <time>2023-12-20T13:46:14Z</time>
      </trkpt>
      <trkpt lat="48.56806" lon="2.03618">
        <ele>87</ele>
        <time>2023-12-20T13:46:15Z</time>
      </trkpt>
      <trkpt lat="48.56801" lon="2.03627">
        <ele>87</ele>
        <time>2023-12-20T13:46:16Z</time>
      </trkpt>
      <trkpt lat="48.56797" lon="2.03636">
        <ele>87</ele>
        <time>2023-12-20T13:46:17Z</time>
      </trkpt>
      <trkpt lat="48.56793" lon="2.03645">
        <ele>87</ele>
        <time>2023-12-20T13:46:18Z</time>
      </trkpt>
      <trkpt lat="48.56789" lon="2.03655">
        <ele>86.8</ele>
        <time>2023-12-20T13:46:19Z</time>
      </trkpt>
      <trkpt lat="48.56786" lon="2.03664">
        <ele>86.8</ele>
        <time>2023-12-20T13:46:20Z</time>
      </trkpt>
      <trkpt lat="48.56782" lon="2.03674">
        <ele>86.8</ele>
        <time>2023-12-20T13:46:21Z</time>
      </trkpt>
      <trkpt lat="48.56779" lon="2.03684">
        <ele>86.8</ele>
        <time>2023-12-20T13:46:22Z</time>
      </trkpt>
      <trkpt lat="48.56776" lon="2.03693">
        <ele>87.6</ele>
        <time>2023-12-20T13:46:23Z</time>
      </trkpt>
      <trkpt lat="48.56773" lon="2.03701">
        <ele>87.6</ele>
        <time>2023-12-20T13:46:24Z</time>
      </trkpt>
      <trkpt lat="48.56769" lon="2.0371">
        <ele>87.6</ele>
        <time>2023-12-20T13:46:25Z</time>
      </trkpt>
      <trkpt lat="48.56765" lon="2.0372">
        <ele>87.8</ele>
        <time>2023-12-20T13:46:26Z</time>
      </trkpt>
      <trkpt lat="48.56763" lon="2.03728">
        <ele>87.6</ele>
        <time>2023-12-20T13:46:27Z</time>
      </trkpt>
      <trkpt lat="48.56762" lon="2.03736">
        <ele>87.6</ele>
        <time>2023-12-20T13:46:28Z</time>
      </trkpt>
      <trkpt lat="48.56762" lon="2.03747">
        <ele>87.6</ele>
        <time>2023-12-20T13:46:29Z</time>
      </trkpt>
      <trkpt lat="48.56762" lon="2.03757">
        <ele>87.4</ele>
        <time>2023-12-20T13:46:30Z</time>
      </trkpt>
      <trkpt lat="48.56763" lon="2.03768">
        <ele>87</ele>
        <time>2023-12-20T13:46:31Z</time>
      </trkpt>
      <trkpt lat="48.56765" lon="2.03779">
        <ele>87</ele>
        <time>2023-12-20T13:46:32Z</time>
      </trkpt>
      <trkpt lat="48.56767" lon="2.03789">
        <ele>87</ele>
        <time>2023-12-20T13:46:33Z</time>
      </trkpt>
      <trkpt lat="48.5677" lon="2.038">
        <ele>87</ele>
        <time>2023-12-20T13:46:34Z</time>
      </trkpt>
      <trkpt lat="48.56773" lon="2.0381">
        <ele>87.2</ele>
        <time>2023-12-20T13:46:35Z</time>
      </trkpt>
      <trkpt lat="48.56776" lon="2.03821">
        <ele>87.2</ele>
        <time>2023-12-20T13:46:36Z</time>
      </trkpt>
      <trkpt lat="48.56779" lon="2.03833">
        <ele>87.2</ele>
        <time>2023-12-20T13:46:37Z</time>
      </trkpt>
      <trkpt lat="48.56782" lon="2.03844">
        <ele>86.8</ele>
        <time>2023-12-20T13:46:38Z</time>
      </trkpt>
      <trkpt lat="48.56785" lon="2.03856">
        <ele>87.4</ele>
        <time>2023-12-20T13:46:39Z</time>
      </trkpt>
      <trkpt lat="48.56787" lon="2.03867">
        <ele>87.4</ele>
        <time>2023-12-20T13:46:40Z</time>
      </trkpt>
      <trkpt lat="48.5679" lon="2.03878">
        <ele>87.4</ele>
        <time>2023-12-20T13:46:41Z</time>
      </trkpt>
      <trkpt lat="48.56791" lon="2.03889">
        <ele>86.6</ele>
        <time>2023-12-20T13:46:42Z</time>
      </trkpt>
      <trkpt lat="48.56793" lon="2.03899">
        <ele>86.8</ele>
        <time>2023-12-20T13:46:43Z</time>
      </trkpt>
      <trkpt lat="48.56794" lon="2.0391">
        <ele>86.8</ele>
        <time>2023-12-20T13:46:44Z</time>
      </trkpt>
      <trkpt lat="48.56795" lon="2.03919">
        <ele>86.8</ele>
        <time>2023-12-20T13:46:45Z</time>
      </trkpt>
      <trkpt lat="48.56796" lon="2.03928">
        <ele>87</ele>
        <time>2023-12-20T13:46:46Z</time>
      </trkpt>
      <trkpt lat="48.56796" lon="2.03939">
        <ele>87.4</ele>
        <time>2023-12-20T13:46:47Z</time>
      </trkpt>
      <trkpt lat="48.56795" lon="2.03948">
        <ele>87.4</ele>
        <time>2023-12-20T13:46:48Z</time>
      </trkpt>
      <trkpt lat="48.56792" lon="2.03955">
        <ele>87.4</ele>
        <time>2023-12-20T13:46:49Z</time>
      </trkpt>
      <trkpt lat="48.56789" lon="2.0396">
        <ele>88.4</ele>
        <time>2023-12-20T13:46:50Z</time>
      </trkpt>
      <trkpt lat="48.56787" lon="2.03964">
        <ele>90</ele>
        <time>2023-12-20T13:46:51Z</time>
      </trkpt>
      <trkpt lat="48.56785" lon="2.03968">
        <ele>90</ele>
        <time>2023-12-20T13:46:52Z</time>
      </trkpt>
      <trkpt lat="48.56782" lon="2.03971">
        <ele>90</ele>
        <time>2023-12-20T13:46:53Z</time>
      </trkpt>
      <trkpt lat="48.56779" lon="2.03972">
        <ele>90</ele>
        <time>2023-12-20T13:46:54Z</time>
      </trkpt>
      <trkpt lat="48.56776" lon="2.03973">
        <ele>89.4</ele>
        <time>2023-12-20T13:46:55Z</time>
      </trkpt>
      <trkpt lat="48.56773" lon="2.03973">
        <ele>89.4</ele>
        <time>2023-12-20T13:46:56Z</time>
      </trkpt>
      <trkpt lat="48.5677" lon="2.03973">
        <ele>89.4</ele>
        <time>2023-12-20T13:46:57Z</time>
      </trkpt>
      <trkpt lat="48.56767" lon="2.03971">
        <ele>88.4</ele>
        <time>2023-12-20T13:46:58Z</time>
      </trkpt>
      <trkpt lat="48.56764" lon="2.03969">
        <ele>88.8</ele>
        <time>2023-12-20T13:46:59Z</time>
      </trkpt>
      <trkpt lat="48.5676" lon="2.03966">
        <ele>88.8</ele>
        <time>2023-12-20T13:47:00Z</time>
      </trkpt>
      <trkpt lat="48.56757" lon="2.03963">
        <ele>88.8</ele>
        <time>2023-12-20T13:47:01Z</time>
      </trkpt>
      <trkpt lat="48.56753" lon="2.03962">
        <ele>87.8</ele>
        <time>2023-12-20T13:47:02Z</time>
      </trkpt>
      <trkpt lat="48.5675" lon="2.03958">
        <ele>86.8</ele>
        <time>2023-12-20T13:47:03Z</time>
      </trkpt>
      <trkpt lat="48.56745" lon="2.03955">
        <ele>86.8</ele>
        <time>2023-12-20T13:47:04Z</time>
      </trkpt>
      <trkpt lat="48.56738" lon="2.03952">
        <ele>86.8</ele>
        <time>2023-12-20T13:47:05Z</time>
      </trkpt>
      <trkpt lat="48.56732" lon="2.03951">
        <ele>86.8</ele>
        <time>2023-12-20T13:47:06Z</time>
      </trkpt>
      <trkpt lat="48.56726" lon="2.03948">
        <ele>87.6</ele>
        <time>2023-12-20T13:47:07Z</time>
      </trkpt>
      <trkpt lat="48.5672" lon="2.03944">
        <ele>87.6</ele>
        <time>2023-12-20T13:47:08Z</time>
      </trkpt>
      <trkpt lat="48.56715" lon="2.03942">
        <ele>87.6</ele>
        <time>2023-12-20T13:47:09Z</time>
      </trkpt>
      <trkpt lat="48.56709" lon="2.0394">
        <ele>87.6</ele>
        <time>2023-12-20T13:47:10Z</time>
      </trkpt>
      <trkpt lat="48.56704" lon="2.03938">
        <ele>88</ele>
        <time>2023-12-20T13:47:11Z</time>
      </trkpt>
      <trkpt lat="48.567" lon="2.03935">
        <ele>88</ele>
        <time>2023-12-20T13:47:12Z</time>
      </trkpt>
      <trkpt lat="48.56695" lon="2.03933">
        <ele>88</ele>
        <time>2023-12-20T13:47:13Z</time>
      </trkpt>
      <trkpt lat="48.56689" lon="2.03931">
        <ele>88</ele>
        <time>2023-12-20T13:47:14Z</time>
      </trkpt>
      <trkpt lat="48.56683" lon="2.0393">
        <ele>88.4</ele>
        <time>2023-12-20T13:47:15Z</time>
      </trkpt>
      <trkpt lat="48.56676" lon="2.03928">
        <ele>88.4</ele>
        <time>2023-12-20T13:47:16Z</time>
      </trkpt>
      <trkpt lat="48.56669" lon="2.03926">
        <ele>88.4</ele>
        <time>2023-12-20T13:47:17Z</time>
      </trkpt>
      <trkpt lat="48.56663" lon="2.03924">
        <ele>88.4</ele>
        <time>2023-12-20T13:47:18Z</time>
      </trkpt>
      <trkpt lat="48.56657" lon="2.03921">
        <ele>88.4</ele>
        <time>2023-12-20T13:47:19Z</time>
      </trkpt>
      <trkpt lat="48.56651" lon="2.03919">
        <ele>88.4</ele>
        <time>2023-12-20T13:47:20Z</time>
      </trkpt>
      <trkpt lat="48.56645" lon="2.03917">
        <ele>88.4</ele>
        <time>2023-12-20T13:47:21Z</time>
      </trkpt>
      <trkpt lat="48.56639" lon="2.03916">
        <ele>88.4</ele>
        <time>2023-12-20T13:47:22Z</time>
      </trkpt>
      <trkpt lat="48.56632" lon="2.03914">
        <ele>88.6</ele>
        <time>2023-12-20T13:47:23Z</time>
      </trkpt>
      <trkpt lat="48.56625" lon="2.03912">
        <ele>88.6</ele>
        <time>2023-12-20T13:47:24Z</time>
      </trkpt>
      <trkpt lat="48.56619" lon="2.0391">
        <ele>88.6</ele>
        <time>2023-12-20T13:47:25Z</time>
      </trkpt>
      <trkpt lat="48.56612" lon="2.03909">
        <ele>88.6</ele>
        <time>2023-12-20T13:47:26Z</time>
      </trkpt>
      <trkpt lat="48.56605" lon="2.03908">
        <ele>88.4</ele>
        <time>2023-12-20T13:47:27Z</time>
      </trkpt>
      <trkpt lat="48.56599" lon="2.03906">
        <ele>88.4</ele>
        <time>2023-12-20T13:47:28Z</time>
      </trkpt>
      <trkpt lat="48.56592" lon="2.03905">
        <ele>88.4</ele>
        <time>2023-12-20T13:47:29Z</time>
      </trkpt>
      <trkpt lat="48.56586" lon="2.03904">
        <ele>89.4</ele>
        <time>2023-12-20T13:47:30Z</time>
      </trkpt>
      <trkpt lat="48.5658" lon="2.03904">
        <ele>89.6</ele>
        <time>2023-12-20T13:47:31Z</time>
      </trkpt>
      <trkpt lat="48.56575" lon="2.03903">
        <ele>89.6</ele>
        <time>2023-12-20T13:47:32Z</time>
      </trkpt>
      <trkpt lat="48.5657" lon="2.03902">
        <ele>89.6</ele>
        <time>2023-12-20T13:47:33Z</time>
      </trkpt>
      <trkpt lat="48.56566" lon="2.03902">
        <ele>90.6</ele>
        <time>2023-12-20T13:47:34Z</time>
      </trkpt>
      <trkpt lat="48.56564" lon="2.03903">
        <ele>91.6</ele>
        <time>2023-12-20T13:47:35Z</time>
      </trkpt>
      <trkpt lat="48.56562" lon="2.03906">
        <ele>91.6</ele>
        <time>2023-12-20T13:47:36Z</time>
      </trkpt>
      <trkpt lat="48.5656" lon="2.03908">
        <ele>91.6</ele>
        <time>2023-12-20T13:47:37Z</time>
      </trkpt>
      <trkpt lat="48.56558" lon="2.03909">
        <ele>90.6</ele>
        <time>2023-12-20T13:47:38Z</time>
      </trkpt>
      <trkpt lat="48.56555" lon="2.03908">
        <ele>91</ele>
        <time>2023-12-20T13:47:39Z</time>
      </trkpt>
      <trkpt lat="48.56552" lon="2.03905">
        <ele>91</ele>
        <time>2023-12-20T13:47:40Z</time>
      </trkpt>
      <trkpt lat="48.56549" lon="2.03902">
        <ele>91</ele>
        <time>2023-12-20T13:47:41Z</time>
      </trkpt>
      <trkpt lat="48.56545" lon="2.03898">
        <ele>90.8</ele>
        <time>2023-12-20T13:47:42Z</time>
      </trkpt>
      <trkpt lat="48.56542" lon="2.03895">
        <ele>92</ele>
        <time>2023-12-20T13:47:43Z</time>
      </trkpt>
      <trkpt lat="48.56539" lon="2.03892">
        <ele>92</ele>
        <time>2023-12-20T13:47:44Z</time>
      </trkpt>
      <trkpt lat="48.56537" lon="2.0389">
        <ele>92</ele>
        <time>2023-12-20T13:47:45Z</time>
      </trkpt>
      <trkpt lat="48.56535" lon="2.0389">
        <ele>91.2</ele>
        <time>2023-12-20T13:47:46Z</time>
      </trkpt>
      <trkpt lat="48.56532" lon="2.03892">
        <ele>91.2</ele>
        <time>2023-12-20T13:47:47Z</time>
      </trkpt>
      <trkpt lat="48.5653" lon="2.03895">
        <ele>91.2</ele>
        <time>2023-12-20T13:47:48Z</time>
      </trkpt>
      <trkpt lat="48.56527" lon="2.03898">
        <ele>91.2</ele>
        <time>2023-12-20T13:47:49Z</time>
      </trkpt>
      <trkpt lat="48.56524" lon="2.03903">
        <ele>91</ele>
        <time>2023-12-20T13:47:50Z</time>
      </trkpt>
      <trkpt lat="48.5652" lon="2.03909">
        <ele>91</ele>
        <time>2023-12-20T13:47:51Z</time>
      </trkpt>
      <trkpt lat="48.56516" lon="2.03915">
        <ele>91</ele>
        <time>2023-12-20T13:47:52Z</time>
      </trkpt>
      <trkpt lat="48.56513" lon="2.03921">
        <ele>91</ele>
        <time>2023-12-20T13:47:53Z</time>
      </trkpt>
      <trkpt lat="48.5651" lon="2.03928">
        <ele>91</ele>
        <time>2023-12-20T13:47:54Z</time>
      </trkpt>
      <trkpt lat="48.56506" lon="2.03936">
        <ele>90.4</ele>
        <time>2023-12-20T13:47:55Z</time>
      </trkpt>
      <trkpt lat="48.56503" lon="2.03944">
        <ele>90.4</ele>
        <time>2023-12-20T13:47:56Z</time>
      </trkpt>
      <trkpt lat="48.565" lon="2.03951">
        <ele>90.4</ele>
        <time>2023-12-20T13:47:57Z</time>
      </trkpt>
      <trkpt lat="48.56497" lon="2.03959">
        <ele>91.4</ele>
        <time>2023-12-20T13:47:58Z</time>
      </trkpt>
      <trkpt lat="48.56494" lon="2.03968">
        <ele>90.6</ele>
        <time>2023-12-20T13:47:59Z</time>
      </trkpt>
      <trkpt lat="48.56492" lon="2.03977">
        <ele>90.6</ele>
        <time>2023-12-20T13:48:00Z</time>
      </trkpt>
      <trkpt lat="48.56489" lon="2.03985">
        <ele>90.6</ele>
        <time>2023-12-20T13:48:01Z</time>
      </trkpt>
      <trkpt lat="48.56487" lon="2.03994">
        <ele>91.6</ele>
        <time>2023-12-20T13:48:02Z</time>
      </trkpt>
      <trkpt lat="48.56484" lon="2.04002">
        <ele>91.6</ele>
        <time>2023-12-20T13:48:03Z</time>
      </trkpt>
      <trkpt lat="48.56482" lon="2.0401">
        <ele>91.6</ele>
        <time>2023-12-20T13:48:04Z</time>
      </trkpt>
      <trkpt lat="48.56479" lon="2.04018">
        <ele>91.6</ele>
        <time>2023-12-20T13:48:05Z</time>
      </trkpt>
      <trkpt lat="48.56477" lon="2.04027">
        <ele>91.6</ele>
        <time>2023-12-20T13:48:06Z</time>
      </trkpt>
      <trkpt lat="48.56474" lon="2.04034">
        <ele>92.4</ele>
        <time>2023-12-20T13:48:07Z</time>
      </trkpt>
      <trkpt lat="48.56472" lon="2.04042">
        <ele>92.4</ele>
        <time>2023-12-20T13:48:08Z</time>
      </trkpt>
      <trkpt lat="48.5647" lon="2.0405">
        <ele>92.4</ele>
        <time>2023-12-20T13:48:09Z</time>
      </trkpt>
      <trkpt lat="48.56468" lon="2.04057">
        <ele>93.4</ele>
        <time>2023-12-20T13:48:10Z</time>
      </trkpt>
      <trkpt lat="48.56466" lon="2.04064">
        <ele>93.6</ele>
        <time>2023-12-20T13:48:11Z</time>
      </trkpt>
      <trkpt lat="48.56464" lon="2.04071">
        <ele>93.6</ele>
        <time>2023-12-20T13:48:12Z</time>
      </trkpt>
      <trkpt lat="48.56462" lon="2.04077">
        <ele>93.6</ele>
        <time>2023-12-20T13:48:13Z</time>
      </trkpt>
      <trkpt lat="48.5646" lon="2.04084">
        <ele>94.6</ele>
        <time>2023-12-20T13:48:14Z</time>
      </trkpt>
      <trkpt lat="48.56458" lon="2.0409">
        <ele>95.2</ele>
        <time>2023-12-20T13:48:15Z</time>
      </trkpt>
      <trkpt lat="48.56457" lon="2.04097">
        <ele>95.2</ele>
        <time>2023-12-20T13:48:16Z</time>
      </trkpt>
      <trkpt lat="48.56455" lon="2.04103">
        <ele>95.2</ele>
        <time>2023-12-20T13:48:17Z</time>
      </trkpt>
      <trkpt lat="48.56453" lon="2.0411">
        <ele>95.2</ele>
        <time>2023-12-20T13:48:18Z</time>
      </trkpt>
      <trkpt lat="48.56452" lon="2.04117">
        <ele>95.8</ele>
        <time>2023-12-20T13:48:19Z</time>
      </trkpt>
      <trkpt lat="48.5645" lon="2.04123">
        <ele>95.8</ele>
        <time>2023-12-20T13:48:20Z</time>
      </trkpt>
      <trkpt lat="48.56449" lon="2.0413">
        <ele>95.8</ele>
        <time>2023-12-20T13:48:21Z</time>
      </trkpt>
      <trkpt lat="48.56447" lon="2.04137">
        <ele>96.6</ele>
        <time>2023-12-20T13:48:22Z</time>
      </trkpt>
      <trkpt lat="48.56445" lon="2.04143">
        <ele>96.6</ele>
        <time>2023-12-20T13:48:23Z</time>
      </trkpt>
      <trkpt lat="48.56444" lon="2.0415">
        <ele>96.6</ele>
        <time>2023-12-20T13:48:24Z</time>
      </trkpt>
      <trkpt lat="48.56442" lon="2.04157">
        <ele>96.6</ele>
        <time>2023-12-20T13:48:25Z</time>
      </trkpt>
      <trkpt lat="48.56441" lon="2.04163">
        <ele>97</ele>
        <time>2023-12-20T13:48:26Z</time>
      </trkpt>
      <trkpt lat="48.56439" lon="2.0417">
        <ele>97.6</ele>
        <time>2023-12-20T13:48:27Z</time>
      </trkpt>
      <trkpt lat="48.56438" lon="2.04177">
        <ele>97.6</ele>
        <time>2023-12-20T13:48:28Z</time>
      </trkpt>
      <trkpt lat="48.56436" lon="2.04183">
        <ele>97.6</ele>
        <time>2023-12-20T13:48:29Z</time>
      </trkpt>
      <trkpt lat="48.56434" lon="2.0419">
        <ele>97.8</ele>
        <time>2023-12-20T13:48:30Z</time>
      </trkpt>
      <trkpt lat="48.56433" lon="2.04197">
        <ele>97.8</ele>
        <time>2023-12-20T13:48:31Z</time>
      </trkpt>
      <trkpt lat="48.56431" lon="2.04203">
        <ele>97.8</ele>
        <time>2023-12-20T13:48:32Z</time>
      </trkpt>
      <trkpt lat="48.5643" lon="2.0421">
        <ele>97.8</ele>
        <time>2023-12-20T13:48:33Z</time>
      </trkpt>
      <trkpt lat="48.56428" lon="2.04217">
        <ele>98.8</ele>
        <time>2023-12-20T13:48:34Z</time>
      </trkpt>
      <trkpt lat="48.56427" lon="2.04224">
        <ele>99.2</ele>
        <time>2023-12-20T13:48:35Z</time>
      </trkpt>
      <trkpt lat="48.56425" lon="2.04231">
        <ele>99.2</ele>
        <time>2023-12-20T13:48:36Z</time>
      </trkpt>
      <trkpt lat="48.56424" lon="2.04237">
        <ele>99.2</ele>
        <time>2023-12-20T13:48:37Z</time>
      </trkpt>
      <trkpt lat="48.56422" lon="2.04244">
        <ele>99</ele>
        <time>2023-12-20T13:48:38Z</time>
      </trkpt>
      <trkpt lat="48.56421" lon="2.04251">
        <ele>99.4</ele>
        <time>2023-12-20T13:48:39Z</time>
      </trkpt>
      <trkpt lat="48.56419" lon="2.04258">
        <ele>99.4</ele>
        <time>2023-12-20T13:48:40Z</time>
      </trkpt>
      <trkpt lat="48.56418" lon="2.04266">
        <ele>99.4</ele>
        <time>2023-12-20T13:48:41Z</time>
      </trkpt>
      <trkpt lat="48.56416" lon="2.04273">
        <ele>99.4</ele>
        <time>2023-12-20T13:48:42Z</time>
      </trkpt>
      <trkpt lat="48.56415" lon="2.04281">
        <ele>100</ele>
        <time>2023-12-20T13:48:43Z</time>
      </trkpt>
      <trkpt lat="48.56414" lon="2.04288">
        <ele>100</ele>
        <time>2023-12-20T13:48:44Z</time>
      </trkpt>
      <trkpt lat="48.56412" lon="2.04296">
        <ele>100</ele>
        <time>2023-12-20T13:48:45Z</time>
      </trkpt>
      <trkpt lat="48.56411" lon="2.04304">
        <ele>99.4</ele>
        <time>2023-12-20T13:48:46Z</time>
      </trkpt>
      <trkpt lat="48.5641" lon="2.04312">
        <ele>100.2</ele>
        <time>2023-12-20T13:48:47Z</time>
      </trkpt>
      <trkpt lat="48.56409" lon="2.0432">
        <ele>100.2</ele>
        <time>2023-12-20T13:48:48Z</time>
      </trkpt>
      <trkpt lat="48.56408" lon="2.04329">
        <ele>100.2</ele>
        <time>2023-12-20T13:48:49Z</time>
      </trkpt>
      <trkpt lat="48.56408" lon="2.04337">
        <ele>99.2</ele>
        <time>2023-12-20T13:48:50Z</time>
      </trkpt>
      <trkpt lat="48.56407" lon="2.04346">
        <ele>99</ele>
        <time>2023-12-20T13:48:51Z</time>
      </trkpt>
      <trkpt lat="48.56406" lon="2.04355">
        <ele>99</ele>
        <time>2023-12-20T13:48:52Z</time>
      </trkpt>
      <trkpt lat="48.56405" lon="2.04365">
        <ele>99</ele>
        <time>2023-12-20T13:48:53Z</time>
      </trkpt>
      <trkpt lat="48.56404" lon="2.04374">
        <ele>99</ele>
        <time>2023-12-20T13:48:54Z</time>
      </trkpt>
      <trkpt lat="48.56403" lon="2.04384">
        <ele>97.8</ele>
        <time>2023-12-20T13:48:55Z</time>
      </trkpt>
      <trkpt lat="48.56402" lon="2.04394">
        <ele>97.8</ele>
        <time>2023-12-20T13:48:56Z</time>
      </trkpt>
      <trkpt lat="48.56401" lon="2.04404">
        <ele>97.8</ele>
        <time>2023-12-20T13:48:57Z</time>
      </trkpt>
      <trkpt lat="48.56401" lon="2.04414">
        <ele>97.4</ele>
        <time>2023-12-20T13:48:58Z</time>
      </trkpt>
      <trkpt lat="48.564" lon="2.04425">
        <ele>97.2</ele>
        <time>2023-12-20T13:48:59Z</time>
      </trkpt>
      <trkpt lat="48.56399" lon="2.04436">
        <ele>97.2</ele>
        <time>2023-12-20T13:49:00Z</time>
      </trkpt>
      <trkpt lat="48.56398" lon="2.04446">
        <ele>97.2</ele>
        <time>2023-12-20T13:49:01Z</time>
      </trkpt>
      <trkpt lat="48.56397" lon="2.04457">
        <ele>96.2</ele>
        <time>2023-12-20T13:49:02Z</time>
      </trkpt>
      <trkpt lat="48.56396" lon="2.04468">
        <ele>96.4</ele>
        <time>2023-12-20T13:49:03Z</time>
      </trkpt>
      <trkpt lat="48.56395" lon="2.0448">
        <ele>96.4</ele>
        <time>2023-12-20T13:49:04Z</time>
      </trkpt>
      <trkpt lat="48.56394" lon="2.04491">
        <ele>96.4</ele>
        <time>2023-12-20T13:49:05Z</time>
      </trkpt>
      <trkpt lat="48.56393" lon="2.04503">
        <ele>95.4</ele>
        <time>2023-12-20T13:49:06Z</time>
      </trkpt>
      <trkpt lat="48.56392" lon="2.04515">
        <ele>94.6</ele>
        <time>2023-12-20T13:49:07Z</time>
      </trkpt>
      <trkpt lat="48.56391" lon="2.04527">
        <ele>94.6</ele>
        <time>2023-12-20T13:49:08Z</time>
      </trkpt>
      <trkpt lat="48.5639" lon="2.04539">
        <ele>94.6</ele>
        <time>2023-12-20T13:49:09Z</time>
      </trkpt>
      <trkpt lat="48.56389" lon="2.04552">
        <ele>94.6</ele>
        <time>2023-12-20T13:49:10Z</time>
      </trkpt>
      <trkpt lat="48.56388" lon="2.04564">
        <ele>93.6</ele>
        <time>2023-12-20T13:49:11Z</time>
      </trkpt>
      <trkpt lat="48.56387" lon="2.04576">
        <ele>93.6</ele>
        <time>2023-12-20T13:49:12Z</time>
      </trkpt>
      <trkpt lat="48.56386" lon="2.04589">
        <ele>93.6</ele>
        <time>2023-12-20T13:49:13Z</time>
      </trkpt>
      <trkpt lat="48.56385" lon="2.04601">
        <ele>93.6</ele>
        <time>2023-12-20T13:49:14Z</time>
      </trkpt>
      <trkpt lat="48.56384" lon="2.04614">
        <ele>93.4</ele>
        <time>2023-12-20T13:49:15Z</time>
      </trkpt>
      <trkpt lat="48.56383" lon="2.04627">
        <ele>93.4</ele>
        <time>2023-12-20T13:49:16Z</time>
      </trkpt>
      <trkpt lat="48.56383" lon="2.0464">
        <ele>93.4</ele>
        <time>2023-12-20T13:49:17Z</time>
      </trkpt>
      <trkpt lat="48.56382" lon="2.04653">
        <ele>92.4</ele>
        <time>2023-12-20T13:49:18Z</time>
      </trkpt>
      <trkpt lat="48.56381" lon="2.04665">
        <ele>91.6</ele>
        <time>2023-12-20T13:49:19Z</time>
      </trkpt>
      <trkpt lat="48.56379" lon="2.04678">
        <ele>91.6</ele>
        <time>2023-12-20T13:49:20Z</time>
      </trkpt>
      <trkpt lat="48.56378" lon="2.04691">
        <ele>91.6</ele>
        <time>2023-12-20T13:49:21Z</time>
      </trkpt>
      <trkpt lat="48.56376" lon="2.04703">
        <ele>92</ele>
        <time>2023-12-20T13:49:22Z</time>
      </trkpt>
      <trkpt lat="48.56375" lon="2.04716">
        <ele>91.8</ele>
        <time>2023-12-20T13:49:23Z</time>
      </trkpt>
      <trkpt lat="48.56374" lon="2.04728">
        <ele>91.8</ele>
        <time>2023-12-20T13:49:24Z</time>
      </trkpt>
      <trkpt lat="48.56373" lon="2.04741">
        <ele>91.8</ele>
        <time>2023-12-20T13:49:25Z</time>
      </trkpt>
      <trkpt lat="48.56372" lon="2.04753">
        <ele>91.8</ele>
        <time>2023-12-20T13:49:26Z</time>
      </trkpt>
      <trkpt lat="48.56371" lon="2.04765">
        <ele>92.2</ele>
        <time>2023-12-20T13:49:27Z</time>
      </trkpt>
      <trkpt lat="48.5637" lon="2.04777">
        <ele>92.2</ele>
        <time>2023-12-20T13:49:28Z</time>
      </trkpt>
      <trkpt lat="48.56369" lon="2.04789">
        <ele>92.2</ele>
        <time>2023-12-20T13:49:29Z</time>
      </trkpt>
      <trkpt lat="48.56368" lon="2.048">
        <ele>93.2</ele>
        <time>2023-12-20T13:49:30Z</time>
      </trkpt>
      <trkpt lat="48.56368" lon="2.04811">
        <ele>93.4</ele>
        <time>2023-12-20T13:49:31Z</time>
      </trkpt>
      <trkpt lat="48.56367" lon="2.04822">
        <ele>93.4</ele>
        <time>2023-12-20T13:49:32Z</time>
      </trkpt>
      <trkpt lat="48.56366" lon="2.04832">
        <ele>93.4</ele>
        <time>2023-12-20T13:49:33Z</time>
      </trkpt>
      <trkpt lat="48.56365" lon="2.04843">
        <ele>93.4</ele>
        <time>2023-12-20T13:49:34Z</time>
      </trkpt>
      <trkpt lat="48.56365" lon="2.04853">
        <ele>93.6</ele>
        <time>2023-12-20T13:49:35Z</time>
      </trkpt>
      <trkpt lat="48.56364" lon="2.04863">
        <ele>93.6</ele>
        <time>2023-12-20T13:49:36Z</time>
      </trkpt>
      <trkpt lat="48.56363" lon="2.04874">
        <ele>93.6</ele>
        <time>2023-12-20T13:49:37Z</time>
      </trkpt>
      <trkpt lat="48.56362" lon="2.04884">
        <ele>93.6</ele>
        <time>2023-12-20T13:49:38Z</time>
      </trkpt>
      <trkpt lat="48.56362" lon="2.04894">
        <ele>93.8</ele>
        <time>2023-12-20T13:49:39Z</time>
      </trkpt>
      <trkpt lat="48.56361" lon="2.04905">
        <ele>93.8</ele>
        <time>2023-12-20T13:49:40Z</time>
      </trkpt>
      <trkpt lat="48.5636" lon="2.04915">
        <ele>93.8</ele>
        <time>2023-12-20T13:49:41Z</time>
      </trkpt>
      <trkpt lat="48.56359" lon="2.04925">
        <ele>93.8</ele>
        <time>2023-12-20T13:49:42Z</time>
      </trkpt>
      <trkpt lat="48.56359" lon="2.04936">
        <ele>93.6</ele>
        <time>2023-12-20T13:49:43Z</time>
      </trkpt>
      <trkpt lat="48.56358" lon="2.04946">
        <ele>93.6</ele>
        <time>2023-12-20T13:49:44Z</time>
      </trkpt>
      <trkpt lat="48.56357" lon="2.04956">
        <ele>93.6</ele>
        <time>2023-12-20T13:49:45Z</time>
      </trkpt>
      <trkpt lat="48.56356" lon="2.04966">
        <ele>93.6</ele>
        <time>2023-12-20T13:49:46Z</time>
      </trkpt>
      <trkpt lat="48.56355" lon="2.04977">
        <ele>94.6</ele>
        <time>2023-12-20T13:49:47Z</time>
      </trkpt>
      <trkpt lat="48.56354" lon="2.04987">
        <ele>94.6</ele>
        <time>2023-12-20T13:49:48Z</time>
      </trkpt>
      <trkpt lat="48.56353" lon="2.04996">
        <ele>94.6</ele>
        <time>2023-12-20T13:49:49Z</time>
      </trkpt>
      <trkpt lat="48.56351" lon="2.05005">
        <ele>94.6</ele>
        <time>2023-12-20T13:49:50Z</time>
      </trkpt>
      <trkpt lat="48.56351" lon="2.05014">
        <ele>94.6</ele>
        <time>2023-12-20T13:49:51Z</time>
      </trkpt>
      <trkpt lat="48.56349" lon="2.05024">
        <ele>94.6</ele>
        <time>2023-12-20T13:49:52Z</time>
      </trkpt>
      <trkpt lat="48.56348" lon="2.05034">
        <ele>94.6</ele>
        <time>2023-12-20T13:49:53Z</time>
      </trkpt>
      <trkpt lat="48.56347" lon="2.05044">
        <ele>94.6</ele>
        <time>2023-12-20T13:49:54Z</time>
      </trkpt>
      <trkpt lat="48.56345" lon="2.05053">
        <ele>95</ele>
        <time>2023-12-20T13:49:55Z</time>
      </trkpt>
      <trkpt lat="48.56344" lon="2.05063">
        <ele>95</ele>
        <time>2023-12-20T13:49:56Z</time>
      </trkpt>
      <trkpt lat="48.56344" lon="2.05072">
        <ele>95</ele>
        <time>2023-12-20T13:49:57Z</time>
      </trkpt>
      <trkpt lat="48.56343" lon="2.05082">
        <ele>95</ele>
        <time>2023-12-20T13:49:58Z</time>
      </trkpt>
      <trkpt lat="48.56342" lon="2.05091">
        <ele>94</ele>
        <time>2023-12-20T13:49:59Z</time>
      </trkpt>
      <trkpt lat="48.56342" lon="2.05101">
        <ele>94</ele>
        <time>2023-12-20T13:50:00Z</time>
      </trkpt>
      <trkpt lat="48.56341" lon="2.05111">
        <ele>94</ele>
        <time>2023-12-20T13:50:01Z</time>
      </trkpt>
      <trkpt lat="48.56341" lon="2.05121">
        <ele>94.4</ele>
        <time>2023-12-20T13:50:02Z</time>
      </trkpt>
      <trkpt lat="48.56341" lon="2.05131">
        <ele>94.2</ele>
        <time>2023-12-20T13:50:03Z</time>
      </trkpt>
      <trkpt lat="48.56342" lon="2.05142">
        <ele>94.2</ele>
        <time>2023-12-20T13:50:04Z</time>
      </trkpt>
      <trkpt lat="48.56343" lon="2.05153">
        <ele>94.2</ele>
        <time>2023-12-20T13:50:05Z</time>
      </trkpt>
      <trkpt lat="48.56344" lon="2.05163">
        <ele>94.2</ele>
        <time>2023-12-20T13:50:06Z</time>
      </trkpt>
      <trkpt lat="48.56345" lon="2.05174">
        <ele>93.6</ele>
        <time>2023-12-20T13:50:07Z</time>
      </trkpt>
      <trkpt lat="48.56347" lon="2.05185">
        <ele>93.6</ele>
        <time>2023-12-20T13:50:08Z</time>
      </trkpt>
      <trkpt lat="48.56348" lon="2.05196">
        <ele>93.6</ele>
        <time>2023-12-20T13:50:09Z</time>
      </trkpt>
      <trkpt lat="48.56349" lon="2.05207">
        <ele>92.6</ele>
        <time>2023-12-20T13:50:10Z</time>
      </trkpt>
      <trkpt lat="48.56351" lon="2.05219">
        <ele>92.2</ele>
        <time>2023-12-20T13:50:11Z</time>
      </trkpt>
      <trkpt lat="48.56353" lon="2.0523">
        <ele>92.2</ele>
        <time>2023-12-20T13:50:12Z</time>
      </trkpt>
      <trkpt lat="48.56354" lon="2.05242">
        <ele>92.2</ele>
        <time>2023-12-20T13:50:13Z</time>
      </trkpt>
      <trkpt lat="48.56354" lon="2.05254">
        <ele>91.2</ele>
        <time>2023-12-20T13:50:14Z</time>
      </trkpt>
      <trkpt lat="48.56356" lon="2.05267">
        <ele>90.2</ele>
        <time>2023-12-20T13:50:15Z</time>
      </trkpt>
      <trkpt lat="48.56358" lon="2.0528">
        <ele>90.2</ele>
        <time>2023-12-20T13:50:16Z</time>
      </trkpt>
      <trkpt lat="48.5636" lon="2.05293">
        <ele>90.2</ele>
        <time>2023-12-20T13:50:17Z</time>
      </trkpt>
      <trkpt lat="48.56363" lon="2.05306">
        <ele>89.4</ele>
        <time>2023-12-20T13:50:18Z</time>
      </trkpt>
      <trkpt lat="48.56366" lon="2.0532">
        <ele>89.2</ele>
        <time>2023-12-20T13:50:19Z</time>
      </trkpt>
      <trkpt lat="48.56368" lon="2.05333">
        <ele>89.2</ele>
        <time>2023-12-20T13:50:20Z</time>
      </trkpt>
      <trkpt lat="48.56371" lon="2.05346">
        <ele>89.2</ele>
        <time>2023-12-20T13:50:21Z</time>
      </trkpt>
      <trkpt lat="48.56373" lon="2.0536">
        <ele>88.6</ele>
        <time>2023-12-20T13:50:22Z</time>
      </trkpt>
      <trkpt lat="48.56376" lon="2.05373">
        <ele>89.2</ele>
        <time>2023-12-20T13:50:23Z</time>
      </trkpt>
      <trkpt lat="48.56378" lon="2.05386">
        <ele>89.2</ele>
        <time>2023-12-20T13:50:24Z</time>
      </trkpt>
      <trkpt lat="48.56381" lon="2.05399">
        <ele>89.2</ele>
        <time>2023-12-20T13:50:25Z</time>
      </trkpt>
      <trkpt lat="48.56383" lon="2.05412">
        <ele>90.2</ele>
        <time>2023-12-20T13:50:26Z</time>
      </trkpt>
      <trkpt lat="48.56386" lon="2.05424">
        <ele>90.2</ele>
        <time>2023-12-20T13:50:27Z</time>
      </trkpt>
      <trkpt lat="48.56389" lon="2.05437">
        <ele>90.2</ele>
        <time>2023-12-20T13:50:28Z</time>
      </trkpt>
      <trkpt lat="48.56392" lon="2.05449">
        <ele>90.2</ele>
        <time>2023-12-20T13:50:29Z</time>
      </trkpt>
      <trkpt lat="48.56395" lon="2.05461">
        <ele>90.2</ele>
        <time>2023-12-20T13:50:30Z</time>
      </trkpt>
      <trkpt lat="48.56398" lon="2.05473">
        <ele>90.2</ele>
        <time>2023-12-20T13:50:31Z</time>
      </trkpt>
      <trkpt lat="48.56401" lon="2.05485">
        <ele>90.2</ele>
        <time>2023-12-20T13:50:32Z</time>
      </trkpt>
      <trkpt lat="48.56404" lon="2.05497">
        <ele>90.2</ele>
        <time>2023-12-20T13:50:33Z</time>
      </trkpt>
      <trkpt lat="48.56408" lon="2.05509">
        <ele>90.2</ele>
        <time>2023-12-20T13:50:34Z</time>
      </trkpt>
      <trkpt lat="48.56412" lon="2.05521">
        <ele>89.2</ele>
        <time>2023-12-20T13:50:35Z</time>
      </trkpt>
      <trkpt lat="48.56415" lon="2.05532">
        <ele>89.2</ele>
        <time>2023-12-20T13:50:36Z</time>
      </trkpt>
      <trkpt lat="48.56419" lon="2.05544">
        <ele>89.2</ele>
        <time>2023-12-20T13:50:37Z</time>
      </trkpt>
      <trkpt lat="48.56423" lon="2.05555">
        <ele>89.2</ele>
        <time>2023-12-20T13:50:38Z</time>
      </trkpt>
      <trkpt lat="48.56427" lon="2.05566">
        <ele>88.4</ele>
        <time>2023-12-20T13:50:39Z</time>
      </trkpt>
      <trkpt lat="48.56431" lon="2.05578">
        <ele>88.4</ele>
        <time>2023-12-20T13:50:40Z</time>
      </trkpt>
      <trkpt lat="48.56436" lon="2.05589">
        <ele>88.4</ele>
        <time>2023-12-20T13:50:41Z</time>
      </trkpt>
      <trkpt lat="48.5644" lon="2.05602">
        <ele>88.4</ele>
        <time>2023-12-20T13:50:42Z</time>
      </trkpt>
      <trkpt lat="48.56443" lon="2.05614">
        <ele>87.2</ele>
        <time>2023-12-20T13:50:43Z</time>
      </trkpt>
      <trkpt lat="48.56447" lon="2.05626">
        <ele>87.2</ele>
        <time>2023-12-20T13:50:44Z</time>
      </trkpt>
      <trkpt lat="48.56452" lon="2.05638">
        <ele>87.2</ele>
        <time>2023-12-20T13:50:45Z</time>
      </trkpt>
      <trkpt lat="48.56457" lon="2.0565">
        <ele>86.4</ele>
        <time>2023-12-20T13:50:46Z</time>
      </trkpt>
      <trkpt lat="48.56462" lon="2.05662">
        <ele>86</ele>
        <time>2023-12-20T13:50:47Z</time>
      </trkpt>
      <trkpt lat="48.56466" lon="2.05675">
        <ele>86</ele>
        <time>2023-12-20T13:50:48Z</time>
      </trkpt>
      <trkpt lat="48.56471" lon="2.05687">
        <ele>86</ele>
        <time>2023-12-20T13:50:49Z</time>
      </trkpt>
      <trkpt lat="48.56476" lon="2.05699">
        <ele>86</ele>
        <time>2023-12-20T13:50:50Z</time>
      </trkpt>
      <trkpt lat="48.5648" lon="2.05711">
        <ele>85</ele>
        <time>2023-12-20T13:50:51Z</time>
      </trkpt>
      <trkpt lat="48.56485" lon="2.05724">
        <ele>85</ele>
        <time>2023-12-20T13:50:52Z</time>
      </trkpt>
      <trkpt lat="48.5649" lon="2.05736">
        <ele>85</ele>
        <time>2023-12-20T13:50:53Z</time>
      </trkpt>
      <trkpt lat="48.56494" lon="2.05748">
        <ele>84.4</ele>
        <time>2023-12-20T13:50:54Z</time>
      </trkpt>
      <trkpt lat="48.56499" lon="2.05761">
        <ele>84.4</ele>
        <time>2023-12-20T13:50:55Z</time>
      </trkpt>
      <trkpt lat="48.56504" lon="2.05773">
        <ele>84.4</ele>
        <time>2023-12-20T13:50:56Z</time>
      </trkpt>
      <trkpt lat="48.56508" lon="2.05785">
        <ele>84.4</ele>
        <time>2023-12-20T13:50:57Z</time>
      </trkpt>
      <trkpt lat="48.56512" lon="2.05798">
        <ele>84.4</ele>
        <time>2023-12-20T13:50:58Z</time>
      </trkpt>
      <trkpt lat="48.56515" lon="2.0581">
        <ele>83.8</ele>
        <time>2023-12-20T13:50:59Z</time>
      </trkpt>
      <trkpt lat="48.56517" lon="2.05823">
        <ele>83.8</ele>
        <time>2023-12-20T13:51:00Z</time>
      </trkpt>
      <trkpt lat="48.56519" lon="2.05836">
        <ele>83.8</ele>
        <time>2023-12-20T13:51:01Z</time>
      </trkpt>
      <trkpt lat="48.56519" lon="2.05849">
        <ele>83.8</ele>
        <time>2023-12-20T13:51:02Z</time>
      </trkpt>
      <trkpt lat="48.5652" lon="2.05862">
        <ele>83.8</ele>
        <time>2023-12-20T13:51:03Z</time>
      </trkpt>
      <trkpt lat="48.56521" lon="2.05874">
        <ele>83.8</ele>
        <time>2023-12-20T13:51:04Z</time>
      </trkpt>
      <trkpt lat="48.56521" lon="2.05887">
        <ele>83.8</ele>
        <time>2023-12-20T13:51:05Z</time>
      </trkpt>
      <trkpt lat="48.56521" lon="2.05901">
        <ele>83.8</ele>
        <time>2023-12-20T13:51:06Z</time>
      </trkpt>
      <trkpt lat="48.56522" lon="2.05914">
        <ele>83.6</ele>
        <time>2023-12-20T13:51:07Z</time>
      </trkpt>
      <trkpt lat="48.56524" lon="2.05927">
        <ele>83.6</ele>
        <time>2023-12-20T13:51:08Z</time>
      </trkpt>
      <trkpt lat="48.56527" lon="2.0594">
        <ele>83.6</ele>
        <time>2023-12-20T13:51:09Z</time>
      </trkpt>
      <trkpt lat="48.56529" lon="2.05953">
        <ele>83.4</ele>
        <time>2023-12-20T13:51:10Z</time>
      </trkpt>
      <trkpt lat="48.56531" lon="2.05965">
        <ele>83.4</ele>
        <time>2023-12-20T13:51:11Z</time>
      </trkpt>
      <trkpt lat="48.56533" lon="2.05978">
        <ele>83.4</ele>
        <time>2023-12-20T13:51:12Z</time>
      </trkpt>
      <trkpt lat="48.56536" lon="2.05991">
        <ele>83.4</ele>
        <time>2023-12-20T13:51:13Z</time>
      </trkpt>
      <trkpt lat="48.56539" lon="2.06004">
        <ele>83.4</ele>
        <time>2023-12-20T13:51:14Z</time>
      </trkpt>
      <trkpt lat="48.56542" lon="2.06017">
        <ele>83.2</ele>
        <time>2023-12-20T13:51:15Z</time>
      </trkpt>
      <trkpt lat="48.56544" lon="2.06029">
        <ele>83.2</ele>
        <time>2023-12-20T13:51:16Z</time>
      </trkpt>
      <trkpt lat="48.56546" lon="2.06042">
        <ele>83.2</ele>
        <time>2023-12-20T13:51:17Z</time>
      </trkpt>
      <trkpt lat="48.56547" lon="2.06053">
        <ele>83.6</ele>
        <time>2023-12-20T13:51:18Z</time>
      </trkpt>
      <trkpt lat="48.56547" lon="2.06065">
        <ele>84.6</ele>
        <time>2023-12-20T13:51:19Z</time>
      </trkpt>
      <trkpt lat="48.56547" lon="2.06076">
        <ele>84.6</ele>
        <time>2023-12-20T13:51:20Z</time>
      </trkpt>
      <trkpt lat="48.56547" lon="2.06087">
        <ele>84.6</ele>
        <time>2023-12-20T13:51:21Z</time>
      </trkpt>
      <trkpt lat="48.56547" lon="2.06098">
        <ele>84.6</ele>
        <time>2023-12-20T13:51:22Z</time>
      </trkpt>
      <trkpt lat="48.56547" lon="2.06107">
        <ele>85</ele>
        <time>2023-12-20T13:51:23Z</time>
      </trkpt>
      <trkpt lat="48.56547" lon="2.06118">
        <ele>85</ele>
        <time>2023-12-20T13:51:24Z</time>
      </trkpt>
      <trkpt lat="48.56546" lon="2.06128">
        <ele>85</ele>
        <time>2023-12-20T13:51:25Z</time>
      </trkpt>
      <trkpt lat="48.56546" lon="2.06139">
        <ele>85</ele>
        <time>2023-12-20T13:51:26Z</time>
      </trkpt>
      <trkpt lat="48.56546" lon="2.06149">
        <ele>85.8</ele>
        <time>2023-12-20T13:51:27Z</time>
      </trkpt>
      <trkpt lat="48.56547" lon="2.06159">
        <ele>85.8</ele>
        <time>2023-12-20T13:51:28Z</time>
      </trkpt>
      <trkpt lat="48.56547" lon="2.06168">
        <ele>85.8</ele>
        <time>2023-12-20T13:51:29Z</time>
      </trkpt>
      <trkpt lat="48.56547" lon="2.06177">
        <ele>85.8</ele>
        <time>2023-12-20T13:51:30Z</time>
      </trkpt>
      <trkpt lat="48.56547" lon="2.06187">
        <ele>85.4</ele>
        <time>2023-12-20T13:51:31Z</time>
      </trkpt>
      <trkpt lat="48.56545" lon="2.06197">
        <ele>85.4</ele>
        <time>2023-12-20T13:51:32Z</time>
      </trkpt>
      <trkpt lat="48.56544" lon="2.06208">
        <ele>85.4</ele>
        <time>2023-12-20T13:51:33Z</time>
      </trkpt>
      <trkpt lat="48.56542" lon="2.06218">
        <ele>86.2</ele>
        <time>2023-12-20T13:51:34Z</time>
      </trkpt>
      <trkpt lat="48.5654" lon="2.06229">
        <ele>86</ele>
        <time>2023-12-20T13:51:35Z</time>
      </trkpt>
      <trkpt lat="48.56538" lon="2.06239">
        <ele>86</ele>
        <time>2023-12-20T13:51:36Z</time>
      </trkpt>
      <trkpt lat="48.56536" lon="2.0625">
        <ele>86</ele>
        <time>2023-12-20T13:51:37Z</time>
      </trkpt>
      <trkpt lat="48.56534" lon="2.06261">
        <ele>85</ele>
        <time>2023-12-20T13:51:38Z</time>
      </trkpt>
      <trkpt lat="48.56532" lon="2.06272">
        <ele>85</ele>
        <time>2023-12-20T13:51:39Z</time>
      </trkpt>
      <trkpt lat="48.56531" lon="2.06284">
        <ele>85</ele>
        <time>2023-12-20T13:51:40Z</time>
      </trkpt>
      <trkpt lat="48.5653" lon="2.06295">
        <ele>85</ele>
        <time>2023-12-20T13:51:41Z</time>
      </trkpt>
      <trkpt lat="48.5653" lon="2.06307">
        <ele>84.2</ele>
        <time>2023-12-20T13:51:42Z</time>
      </trkpt>
      <trkpt lat="48.5653" lon="2.06318">
        <ele>84.6</ele>
        <time>2023-12-20T13:51:43Z</time>
      </trkpt>
      <trkpt lat="48.56531" lon="2.0633">
        <ele>84.6</ele>
        <time>2023-12-20T13:51:44Z</time>
      </trkpt>
      <trkpt lat="48.56533" lon="2.06342">
        <ele>84.6</ele>
        <time>2023-12-20T13:51:45Z</time>
      </trkpt>
      <trkpt lat="48.56535" lon="2.06353">
        <ele>84.6</ele>
        <time>2023-12-20T13:51:46Z</time>
      </trkpt>
      <trkpt lat="48.56537" lon="2.06365">
        <ele>83.4</ele>
        <time>2023-12-20T13:51:47Z</time>
      </trkpt>
      <trkpt lat="48.56539" lon="2.06377">
        <ele>83.4</ele>
        <time>2023-12-20T13:51:48Z</time>
      </trkpt>
      <trkpt lat="48.56542" lon="2.06388">
        <ele>83.4</ele>
        <time>2023-12-20T13:51:49Z</time>
      </trkpt>
      <trkpt lat="48.56544" lon="2.06399">
        <ele>84.4</ele>
        <time>2023-12-20T13:51:50Z</time>
      </trkpt>
      <trkpt lat="48.56546" lon="2.06411">
        <ele>84</ele>
        <time>2023-12-20T13:51:51Z</time>
      </trkpt>
      <trkpt lat="48.56549" lon="2.06422">
        <ele>84</ele>
        <time>2023-12-20T13:51:52Z</time>
      </trkpt>
      <trkpt lat="48.56551" lon="2.06432">
        <ele>84</ele>
        <time>2023-12-20T13:51:53Z</time>
      </trkpt>
      <trkpt lat="48.56553" lon="2.06443">
        <ele>84.6</ele>
        <time>2023-12-20T13:51:54Z</time>
      </trkpt>
      <trkpt lat="48.56556" lon="2.06453">
        <ele>84.4</ele>
        <time>2023-12-20T13:51:55Z</time>
      </trkpt>
      <trkpt lat="48.56558" lon="2.06463">
        <ele>84.4</ele>
        <time>2023-12-20T13:51:56Z</time>
      </trkpt>
      <trkpt lat="48.5656" lon="2.06474">
        <ele>84.4</ele>
        <time>2023-12-20T13:51:57Z</time>
      </trkpt>
      <trkpt lat="48.56562" lon="2.06485">
        <ele>84.6</ele>
        <time>2023-12-20T13:51:58Z</time>
      </trkpt>
      <trkpt lat="48.56564" lon="2.06496">
        <ele>84.6</ele>
        <time>2023-12-20T13:51:59Z</time>
      </trkpt>
      <trkpt lat="48.56566" lon="2.06507">
        <ele>84.6</ele>
        <time>2023-12-20T13:52:00Z</time>
      </trkpt>
      <trkpt lat="48.56569" lon="2.06518">
        <ele>84.6</ele>
        <time>2023-12-20T13:52:01Z</time>
      </trkpt>
      <trkpt lat="48.56571" lon="2.06529">
        <ele>84.6</ele>
        <time>2023-12-20T13:52:02Z</time>
      </trkpt>
      <trkpt lat="48.56573" lon="2.0654">
        <ele>84</ele>
        <time>2023-12-20T13:52:03Z</time>
      </trkpt>
      <trkpt lat="48.56576" lon="2.06551">
        <ele>84</ele>
        <time>2023-12-20T13:52:04Z</time>
      </trkpt>
      <trkpt lat="48.56578" lon="2.06563">
        <ele>84</ele>
        <time>2023-12-20T13:52:05Z</time>
      </trkpt>
      <trkpt lat="48.56579" lon="2.06574">
        <ele>84</ele>
        <time>2023-12-20T13:52:06Z</time>
      </trkpt>
      <trkpt lat="48.5658" lon="2.06585">
        <ele>84.6</ele>
        <time>2023-12-20T13:52:07Z</time>
      </trkpt>
      <trkpt lat="48.56582" lon="2.06596">
        <ele>84.6</ele>
        <time>2023-12-20T13:52:08Z</time>
      </trkpt>
      <trkpt lat="48.56583" lon="2.06607">
        <ele>84.6</ele>
        <time>2023-12-20T13:52:09Z</time>
      </trkpt>
      <trkpt lat="48.56584" lon="2.06619">
        <ele>84</ele>
        <time>2023-12-20T13:52:10Z</time>
      </trkpt>
      <trkpt lat="48.56586" lon="2.0663">
        <ele>84.4</ele>
        <time>2023-12-20T13:52:11Z</time>
      </trkpt>
      <trkpt lat="48.56588" lon="2.06642">
        <ele>84.4</ele>
        <time>2023-12-20T13:52:12Z</time>
      </trkpt>
      <trkpt lat="48.56589" lon="2.06653">
        <ele>84.4</ele>
        <time>2023-12-20T13:52:13Z</time>
      </trkpt>
      <trkpt lat="48.56591" lon="2.06665">
        <ele>83.4</ele>
        <time>2023-12-20T13:52:14Z</time>
      </trkpt>
      <trkpt lat="48.56592" lon="2.06677">
        <ele>84</ele>
        <time>2023-12-20T13:52:15Z</time>
      </trkpt>
      <trkpt lat="48.56594" lon="2.06689">
        <ele>84</ele>
        <time>2023-12-20T13:52:16Z</time>
      </trkpt>
      <trkpt lat="48.56595" lon="2.067">
        <ele>84</ele>
        <time>2023-12-20T13:52:17Z</time>
      </trkpt>
      <trkpt lat="48.56597" lon="2.06712">
        <ele>84</ele>
        <time>2023-12-20T13:52:18Z</time>
      </trkpt>
      <trkpt lat="48.56599" lon="2.06724">
        <ele>83</ele>
        <time>2023-12-20T13:52:19Z</time>
      </trkpt>
      <trkpt lat="48.56601" lon="2.06736">
        <ele>83</ele>
        <time>2023-12-20T13:52:20Z</time>
      </trkpt>
      <trkpt lat="48.56603" lon="2.06748">
        <ele>83</ele>
        <time>2023-12-20T13:52:21Z</time>
      </trkpt>
      <trkpt lat="48.56606" lon="2.06759">
        <ele>83</ele>
        <time>2023-12-20T13:52:22Z</time>
      </trkpt>
      <trkpt lat="48.56608" lon="2.06771">
        <ele>83.2</ele>
        <time>2023-12-20T13:52:23Z</time>
      </trkpt>
      <trkpt lat="48.5661" lon="2.06783">
        <ele>83.2</ele>
        <time>2023-12-20T13:52:24Z</time>
      </trkpt>
      <trkpt lat="48.56613" lon="2.06794">
        <ele>83.2</ele>
        <time>2023-12-20T13:52:25Z</time>
      </trkpt>
      <trkpt lat="48.56615" lon="2.06806">
        <ele>83.2</ele>
        <time>2023-12-20T13:52:26Z</time>
      </trkpt>
      <trkpt lat="48.56618" lon="2.06818">
        <ele>83.4</ele>
        <time>2023-12-20T13:52:27Z</time>
      </trkpt>
      <trkpt lat="48.5662" lon="2.06829">
        <ele>83.4</ele>
        <time>2023-12-20T13:52:28Z</time>
      </trkpt>
      <trkpt lat="48.56622" lon="2.06841">
        <ele>83.4</ele>
        <time>2023-12-20T13:52:29Z</time>
      </trkpt>
      <trkpt lat="48.56624" lon="2.06852">
        <ele>83.6</ele>
        <time>2023-12-20T13:52:30Z</time>
      </trkpt>
      <trkpt lat="48.56626" lon="2.06863">
        <ele>84.2</ele>
        <time>2023-12-20T13:52:31Z</time>
      </trkpt>
      <trkpt lat="48.56627" lon="2.06874">
        <ele>84.2</ele>
        <time>2023-12-20T13:52:32Z</time>
      </trkpt>
      <trkpt lat="48.56629" lon="2.06885">
        <ele>84.2</ele>
        <time>2023-12-20T13:52:33Z</time>
      </trkpt>
      <trkpt lat="48.5663" lon="2.06895">
        <ele>84.2</ele>
        <time>2023-12-20T13:52:34Z</time>
      </trkpt>
      <trkpt lat="48.56633" lon="2.06903">
        <ele>84</ele>
        <time>2023-12-20T13:52:35Z</time>
      </trkpt>
      <trkpt lat="48.56637" lon="2.06909">
        <ele>84</ele>
        <time>2023-12-20T13:52:36Z</time>
      </trkpt>
      <trkpt lat="48.56643" lon="2.06912">
        <ele>84</ele>
        <time>2023-12-20T13:52:37Z</time>
      </trkpt>
      <trkpt lat="48.56649" lon="2.06914">
        <ele>83</ele>
        <time>2023-12-20T13:52:38Z</time>
      </trkpt>
      <trkpt lat="48.56655" lon="2.06914">
        <ele>82.4</ele>
        <time>2023-12-20T13:52:39Z</time>
      </trkpt>
      <trkpt lat="48.56662" lon="2.06916">
        <ele>82.4</ele>
        <time>2023-12-20T13:52:40Z</time>
      </trkpt>
      <trkpt lat="48.56669" lon="2.06918">
        <ele>82.4</ele>
        <time>2023-12-20T13:52:41Z</time>
      </trkpt>
      <trkpt lat="48.56675" lon="2.06921">
        <ele>81.4</ele>
        <time>2023-12-20T13:52:42Z</time>
      </trkpt>
      <trkpt lat="48.56682" lon="2.06924">
        <ele>81.6</ele>
        <time>2023-12-20T13:52:43Z</time>
      </trkpt>
      <trkpt lat="48.56687" lon="2.0693">
        <ele>81.6</ele>
        <time>2023-12-20T13:52:44Z</time>
      </trkpt>
      <trkpt lat="48.56692" lon="2.06937">
        <ele>81.6</ele>
        <time>2023-12-20T13:52:45Z</time>
      </trkpt>
      <trkpt lat="48.56696" lon="2.06945">
        <ele>81.8</ele>
        <time>2023-12-20T13:52:46Z</time>
      </trkpt>
      <trkpt lat="48.56699" lon="2.06954">
        <ele>81.6</ele>
        <time>2023-12-20T13:52:47Z</time>
      </trkpt>
      <trkpt lat="48.56701" lon="2.06962">
        <ele>81.6</ele>
        <time>2023-12-20T13:52:48Z</time>
      </trkpt>
      <trkpt lat="48.56705" lon="2.06969">
        <ele>81.6</ele>
        <time>2023-12-20T13:52:49Z</time>
      </trkpt>
      <trkpt lat="48.5671" lon="2.06975">
        <ele>81.6</ele>
        <time>2023-12-20T13:52:50Z</time>
      </trkpt>
      <trkpt lat="48.56717" lon="2.06977">
        <ele>80.2</ele>
        <time>2023-12-20T13:52:51Z</time>
      </trkpt>
      <trkpt lat="48.56723" lon="2.06977">
        <ele>80.2</ele>
        <time>2023-12-20T13:52:52Z</time>
      </trkpt>
      <trkpt lat="48.56729" lon="2.06977">
        <ele>80.2</ele>
        <time>2023-12-20T13:52:53Z</time>
      </trkpt>
      <trkpt lat="48.56736" lon="2.06977">
        <ele>81.2</ele>
        <time>2023-12-20T13:52:54Z</time>
      </trkpt>
      <trkpt lat="48.56743" lon="2.06977">
        <ele>80.6</ele>
        <time>2023-12-20T13:52:55Z</time>
      </trkpt>
      <trkpt lat="48.56749" lon="2.06977">
        <ele>80.6</ele>
        <time>2023-12-20T13:52:56Z</time>
      </trkpt>
      <trkpt lat="48.56755" lon="2.06979">
        <ele>80.6</ele>
        <time>2023-12-20T13:52:57Z</time>
      </trkpt>
      <trkpt lat="48.56761" lon="2.0698">
        <ele>81.2</ele>
        <time>2023-12-20T13:52:58Z</time>
      </trkpt>
      <trkpt lat="48.56767" lon="2.06982">
        <ele>80.6</ele>
        <time>2023-12-20T13:52:59Z</time>
      </trkpt>
      <trkpt lat="48.56773" lon="2.06984">
        <ele>80.6</ele>
        <time>2023-12-20T13:53:00Z</time>
      </trkpt>
      <trkpt lat="48.56779" lon="2.06984">
        <ele>80.6</ele>
        <time>2023-12-20T13:53:01Z</time>
      </trkpt>
      <trkpt lat="48.56784" lon="2.06983">
        <ele>80.6</ele>
        <time>2023-12-20T13:53:02Z</time>
      </trkpt>
      <trkpt lat="48.56789" lon="2.06979">
        <ele>80.6</ele>
        <time>2023-12-20T13:53:03Z</time>
      </trkpt>
      <trkpt lat="48.56794" lon="2.06974">
        <ele>80.6</ele>
        <time>2023-12-20T13:53:04Z</time>
      </trkpt>
      <trkpt lat="48.56797" lon="2.06967">
        <ele>80.6</ele>
        <time>2023-12-20T13:53:05Z</time>
      </trkpt>
      <trkpt lat="48.56801" lon="2.0696">
        <ele>81.4</ele>
        <time>2023-12-20T13:53:06Z</time>
      </trkpt>
      <trkpt lat="48.56805" lon="2.06952">
        <ele>81.4</ele>
        <time>2023-12-20T13:53:07Z</time>
      </trkpt>
      <trkpt lat="48.56808" lon="2.06945">
        <ele>81.4</ele>
        <time>2023-12-20T13:53:08Z</time>
      </trkpt>
      <trkpt lat="48.56812" lon="2.06938">
        <ele>81.4</ele>
        <time>2023-12-20T13:53:09Z</time>
      </trkpt>
      <trkpt lat="48.56815" lon="2.0693">
        <ele>81.4</ele>
        <time>2023-12-20T13:53:10Z</time>
      </trkpt>
      <trkpt lat="48.56819" lon="2.06923">
        <ele>83.4</ele>
        <time>2023-12-20T13:53:11Z</time>
      </trkpt>
      <trkpt lat="48.56823" lon="2.06916">
        <ele>83.4</ele>
        <time>2023-12-20T13:53:12Z</time>
      </trkpt>
      <trkpt lat="48.56826" lon="2.0691">
        <ele>83.4</ele>
        <time>2023-12-20T13:53:13Z</time>
      </trkpt>
      <trkpt lat="48.56829" lon="2.06904">
        <ele>82.4</ele>
        <time>2023-12-20T13:53:14Z</time>
      </trkpt>
      <trkpt lat="48.56833" lon="2.06897">
        <ele>81.4</ele>
        <time>2023-12-20T13:53:15Z</time>
      </trkpt>
      <trkpt lat="48.56837" lon="2.06891">
        <ele>81.4</ele>
        <time>2023-12-20T13:53:16Z</time>
      </trkpt>
      <trkpt lat="48.56841" lon="2.06884">
        <ele>81.4</ele>
        <time>2023-12-20T13:53:17Z</time>
      </trkpt>
      <trkpt lat="48.56846" lon="2.06878">
        <ele>80.8</ele>
        <time>2023-12-20T13:53:18Z</time>
      </trkpt>
      <trkpt lat="48.56851" lon="2.06872">
        <ele>81</ele>
        <time>2023-12-20T13:53:19Z</time>
      </trkpt>
      <trkpt lat="48.56856" lon="2.06866">
        <ele>81</ele>
        <time>2023-12-20T13:53:20Z</time>
      </trkpt>
      <trkpt lat="48.56862" lon="2.0686">
        <ele>81</ele>
        <time>2023-12-20T13:53:21Z</time>
      </trkpt>
      <trkpt lat="48.56867" lon="2.06854">
        <ele>81</ele>
        <time>2023-12-20T13:53:22Z</time>
      </trkpt>
      <trkpt lat="48.56872" lon="2.06848">
        <ele>81.4</ele>
        <time>2023-12-20T13:53:23Z</time>
      </trkpt>
      <trkpt lat="48.56877" lon="2.06843">
        <ele>81.4</ele>
        <time>2023-12-20T13:53:24Z</time>
      </trkpt>
      <trkpt lat="48.56882" lon="2.06838">
        <ele>81.4</ele>
        <time>2023-12-20T13:53:25Z</time>
      </trkpt>
      <trkpt lat="48.56887" lon="2.06833">
        <ele>81.4</ele>
        <time>2023-12-20T13:53:26Z</time>
      </trkpt>
      <trkpt lat="48.56892" lon="2.06829">
        <ele>83.6</ele>
        <time>2023-12-20T13:53:27Z</time>
      </trkpt>
      <trkpt lat="48.56897" lon="2.06825">
        <ele>83.6</ele>
        <time>2023-12-20T13:53:28Z</time>
      </trkpt>
      <trkpt lat="48.56902" lon="2.06822">
        <ele>83.6</ele>
        <time>2023-12-20T13:53:29Z</time>
      </trkpt>
      <trkpt lat="48.56906" lon="2.06819">
        <ele>83.6</ele>
        <time>2023-12-20T13:53:30Z</time>
      </trkpt>
      <trkpt lat="48.56911" lon="2.06816">
        <ele>84.6</ele>
        <time>2023-12-20T13:53:31Z</time>
      </trkpt>
      <trkpt lat="48.56915" lon="2.06814">
        <ele>84.6</ele>
        <time>2023-12-20T13:53:32Z</time>
      </trkpt>
      <trkpt lat="48.56919" lon="2.06812">
        <ele>84.6</ele>
        <time>2023-12-20T13:53:33Z</time>
      </trkpt>
      <trkpt lat="48.56922" lon="2.0681">
        <ele>84.6</ele>
        <time>2023-12-20T13:53:34Z</time>
      </trkpt>
      <trkpt lat="48.56925" lon="2.06811">
        <ele>85.4</ele>
        <time>2023-12-20T13:53:35Z</time>
      </trkpt>
      <trkpt lat="48.56928" lon="2.06814">
        <ele>85.4</ele>
        <time>2023-12-20T13:53:36Z</time>
      </trkpt>
      <trkpt lat="48.5693" lon="2.06818">
        <ele>85.4</ele>
        <time>2023-12-20T13:53:37Z</time>
      </trkpt>
      <trkpt lat="48.56932" lon="2.06823">
        <ele>85.4</ele>
        <time>2023-12-20T13:53:38Z</time>
      </trkpt>
      <trkpt lat="48.56933" lon="2.0683">
        <ele>85.4</ele>
        <time>2023-12-20T13:53:39Z</time>
      </trkpt>
      <trkpt lat="48.56935" lon="2.06836">
        <ele>85.4</ele>
        <time>2023-12-20T13:53:40Z</time>
      </trkpt>
      <trkpt lat="48.56936" lon="2.06843">
        <ele>85.4</ele>
        <time>2023-12-20T13:53:41Z</time>
      </trkpt>
      <trkpt lat="48.56938" lon="2.06851">
        <ele>85.4</ele>
        <time>2023-12-20T13:53:42Z</time>
      </trkpt>
      <trkpt lat="48.56939" lon="2.0686">
        <ele>84.8</ele>
        <time>2023-12-20T13:53:43Z</time>
      </trkpt>
      <trkpt lat="48.56941" lon="2.06868">
        <ele>84.8</ele>
        <time>2023-12-20T13:53:44Z</time>
      </trkpt>
      <trkpt lat="48.56942" lon="2.06877">
        <ele>84.8</ele>
        <time>2023-12-20T13:53:45Z</time>
      </trkpt>
      <trkpt lat="48.56943" lon="2.06886">
        <ele>84.8</ele>
        <time>2023-12-20T13:53:46Z</time>
      </trkpt>
      <trkpt lat="48.56944" lon="2.06895">
        <ele>84.4</ele>
        <time>2023-12-20T13:53:47Z</time>
      </trkpt>
      <trkpt lat="48.56946" lon="2.06904">
        <ele>84.4</ele>
        <time>2023-12-20T13:53:48Z</time>
      </trkpt>
      <trkpt lat="48.56946" lon="2.06914">
        <ele>84.4</ele>
        <time>2023-12-20T13:53:49Z</time>
      </trkpt>
      <trkpt lat="48.56946" lon="2.06923">
        <ele>84.4</ele>
        <time>2023-12-20T13:53:50Z</time>
      </trkpt>
      <trkpt lat="48.56946" lon="2.06933">
        <ele>85.8</ele>
        <time>2023-12-20T13:53:51Z</time>
      </trkpt>
      <trkpt lat="48.56946" lon="2.06942">
        <ele>85.8</ele>
        <time>2023-12-20T13:53:52Z</time>
      </trkpt>
      <trkpt lat="48.56947" lon="2.06952">
        <ele>85.8</ele>
        <time>2023-12-20T13:53:53Z</time>
      </trkpt>
      <trkpt lat="48.56947" lon="2.06961">
        <ele>84.8</ele>
        <time>2023-12-20T13:53:54Z</time>
      </trkpt>
      <trkpt lat="48.56948" lon="2.06971">
        <ele>83.6</ele>
        <time>2023-12-20T13:53:55Z</time>
      </trkpt>
      <trkpt lat="48.56948" lon="2.06981">
        <ele>83.6</ele>
        <time>2023-12-20T13:53:56Z</time>
      </trkpt>
      <trkpt lat="48.56949" lon="2.06991">
        <ele>83.6</ele>
        <time>2023-12-20T13:53:57Z</time>
      </trkpt>
      <trkpt lat="48.5695" lon="2.07001">
        <ele>84.6</ele>
        <time>2023-12-20T13:53:58Z</time>
      </trkpt>
      <trkpt lat="48.56951" lon="2.07011">
        <ele>84.4</ele>
        <time>2023-12-20T13:53:59Z</time>
      </trkpt>
      <trkpt lat="48.56952" lon="2.07021">
        <ele>84.4</ele>
        <time>2023-12-20T13:54:00Z</time>
      </trkpt>
      <trkpt lat="48.56954" lon="2.07031">
        <ele>84.4</ele>
        <time>2023-12-20T13:54:01Z</time>
      </trkpt>
      <trkpt lat="48.56956" lon="2.07041">
        <ele>84.4</ele>
        <time>2023-12-20T13:54:02Z</time>
      </trkpt>
      <trkpt lat="48.56958" lon="2.07051">
        <ele>84.2</ele>
        <time>2023-12-20T13:54:03Z</time>
      </trkpt>
      <trkpt lat="48.56961" lon="2.0706">
        <ele>84.2</ele>
        <time>2023-12-20T13:54:04Z</time>
      </trkpt>
      <trkpt lat="48.56964" lon="2.0707">
        <ele>84.2</ele>
        <time>2023-12-20T13:54:05Z</time>
      </trkpt>
      <trkpt lat="48.56967" lon="2.07078">
        <ele>85</ele>
        <time>2023-12-20T13:54:06Z</time>
      </trkpt>
      <trkpt lat="48.5697" lon="2.07087">
        <ele>85.8</ele>
        <time>2023-12-20T13:54:07Z</time>
      </trkpt>
      <trkpt lat="48.56973" lon="2.07095">
        <ele>85.8</ele>
        <time>2023-12-20T13:54:08Z</time>
      </trkpt>
      <trkpt lat="48.56977" lon="2.07102">
        <ele>85.8</ele>
        <time>2023-12-20T13:54:09Z</time>
      </trkpt>
      <trkpt lat="48.5698" lon="2.07109">
        <ele>85</ele>
        <time>2023-12-20T13:54:10Z</time>
      </trkpt>
      <trkpt lat="48.56984" lon="2.07116">
        <ele>85.4</ele>
        <time>2023-12-20T13:54:11Z</time>
      </trkpt>
      <trkpt lat="48.56988" lon="2.07123">
        <ele>85.4</ele>
        <time>2023-12-20T13:54:12Z</time>
      </trkpt>
      <trkpt lat="48.56992" lon="2.0713">
        <ele>85.4</ele>
        <time>2023-12-20T13:54:13Z</time>
      </trkpt>
      <trkpt lat="48.56996" lon="2.07137">
        <ele>85.4</ele>
        <time>2023-12-20T13:54:14Z</time>
      </trkpt>
      <trkpt lat="48.57" lon="2.07143">
        <ele>85.8</ele>
        <time>2023-12-20T13:54:15Z</time>
      </trkpt>
      <trkpt lat="48.57004" lon="2.0715">
        <ele>85.8</ele>
        <time>2023-12-20T13:54:16Z</time>
      </trkpt>
      <trkpt lat="48.57008" lon="2.07156">
        <ele>85.8</ele>
        <time>2023-12-20T13:54:17Z</time>
      </trkpt>
      <trkpt lat="48.57011" lon="2.07163">
        <ele>86.4</ele>
        <time>2023-12-20T13:54:18Z</time>
      </trkpt>
      <trkpt lat="48.57015" lon="2.0717">
        <ele>86.2</ele>
        <time>2023-12-20T13:54:19Z</time>
      </trkpt>
      <trkpt lat="48.57019" lon="2.07177">
        <ele>86.2</ele>
        <time>2023-12-20T13:54:20Z</time>
      </trkpt>
      <trkpt lat="48.57022" lon="2.07185">
        <ele>86.2</ele>
        <time>2023-12-20T13:54:21Z</time>
      </trkpt>
      <trkpt lat="48.57025" lon="2.07192">
        <ele>86.2</ele>
        <time>2023-12-20T13:54:22Z</time>
      </trkpt>
      <trkpt lat="48.57028" lon="2.072">
        <ele>86.2</ele>
        <time>2023-12-20T13:54:23Z</time>
      </trkpt>
      <trkpt lat="48.57031" lon="2.07208">
        <ele>86.2</ele>
        <time>2023-12-20T13:54:24Z</time>
      </trkpt>
      <trkpt lat="48.57035" lon="2.07216">
        <ele>86.2</ele>
        <time>2023-12-20T13:54:25Z</time>
      </trkpt>
      <trkpt lat="48.57037" lon="2.07225">
        <ele>86</ele>
        <time>2023-12-20T13:54:26Z</time>
      </trkpt>
      <trkpt lat="48.5704" lon="2.07233">
        <ele>86</ele>
        <time>2023-12-20T13:54:27Z</time>
      </trkpt>
      <trkpt lat="48.57043" lon="2.07242">
        <ele>86</ele>
        <time>2023-12-20T13:54:28Z</time>
      </trkpt>
      <trkpt lat="48.57046" lon="2.07251">
        <ele>86</ele>
        <time>2023-12-20T13:54:29Z</time>
      </trkpt>
      <trkpt lat="48.57049" lon="2.0726">
        <ele>85.8</ele>
        <time>2023-12-20T13:54:30Z</time>
      </trkpt>
      <trkpt lat="48.57051" lon="2.07269">
        <ele>86</ele>
        <time>2023-12-20T13:54:31Z</time>
      </trkpt>
      <trkpt lat="48.57054" lon="2.07278">
        <ele>86</ele>
        <time>2023-12-20T13:54:32Z</time>
      </trkpt>
      <trkpt lat="48.57057" lon="2.07287">
        <ele>86</ele>
        <time>2023-12-20T13:54:33Z</time>
      </trkpt>
      <trkpt lat="48.5706" lon="2.07297">
        <ele>85</ele>
        <time>2023-12-20T13:54:34Z</time>
      </trkpt>
      <trkpt lat="48.57063" lon="2.07307">
        <ele>84.2</ele>
        <time>2023-12-20T13:54:35Z</time>
      </trkpt>
      <trkpt lat="48.57065" lon="2.07317">
        <ele>84.2</ele>
        <time>2023-12-20T13:54:36Z</time>
      </trkpt>
      <trkpt lat="48.57068" lon="2.07327">
        <ele>84.2</ele>
        <time>2023-12-20T13:54:37Z</time>
      </trkpt>
      <trkpt lat="48.57071" lon="2.07337">
        <ele>84.2</ele>
        <time>2023-12-20T13:54:38Z</time>
      </trkpt>
      <trkpt lat="48.57074" lon="2.07348">
        <ele>83.8</ele>
        <time>2023-12-20T13:54:39Z</time>
      </trkpt>
      <trkpt lat="48.57078" lon="2.07358">
        <ele>83.8</ele>
        <time>2023-12-20T13:54:40Z</time>
      </trkpt>
      <trkpt lat="48.57081" lon="2.07369">
        <ele>83.8</ele>
        <time>2023-12-20T13:54:41Z</time>
      </trkpt>
      <trkpt lat="48.57084" lon="2.07379">
        <ele>83.8</ele>
        <time>2023-12-20T13:54:42Z</time>
      </trkpt>
      <trkpt lat="48.57088" lon="2.0739">
        <ele>82.6</ele>
        <time>2023-12-20T13:54:43Z</time>
      </trkpt>
      <trkpt lat="48.57091" lon="2.07401">
        <ele>82.6</ele>
        <time>2023-12-20T13:54:44Z</time>
      </trkpt>
      <trkpt lat="48.57095" lon="2.07412">
        <ele>82.6</ele>
        <time>2023-12-20T13:54:45Z</time>
      </trkpt>
      <trkpt lat="48.57098" lon="2.07423">
        <ele>82.6</ele>
        <time>2023-12-20T13:54:46Z</time>
      </trkpt>
      <trkpt lat="48.57102" lon="2.07434">
        <ele>82.6</ele>
        <time>2023-12-20T13:54:47Z</time>
      </trkpt>
      <trkpt lat="48.57105" lon="2.07445">
        <ele>82.6</ele>
        <time>2023-12-20T13:54:48Z</time>
      </trkpt>
      <trkpt lat="48.57109" lon="2.07456">
        <ele>82.6</ele>
        <time>2023-12-20T13:54:49Z</time>
      </trkpt>
      <trkpt lat="48.57112" lon="2.07467">
        <ele>82.6</ele>
        <time>2023-12-20T13:54:50Z</time>
      </trkpt>
      <trkpt lat="48.57116" lon="2.07478">
        <ele>82.8</ele>
        <time>2023-12-20T13:54:51Z</time>
      </trkpt>
      <trkpt lat="48.57119" lon="2.07489">
        <ele>82.8</ele>
        <time>2023-12-20T13:54:52Z</time>
      </trkpt>
      <trkpt lat="48.57123" lon="2.075">
        <ele>82.8</ele>
        <time>2023-12-20T13:54:53Z</time>
      </trkpt>
      <trkpt lat="48.57127" lon="2.07511">
        <ele>81.8</ele>
        <time>2023-12-20T13:54:54Z</time>
      </trkpt>
      <trkpt lat="48.57131" lon="2.07522">
        <ele>81.2</ele>
        <time>2023-12-20T13:54:55Z</time>
      </trkpt>
      <trkpt lat="48.57134" lon="2.07534">
        <ele>81.2</ele>
        <time>2023-12-20T13:54:56Z</time>
      </trkpt>
      <trkpt lat="48.57138" lon="2.07545">
        <ele>81.2</ele>
        <time>2023-12-20T13:54:57Z</time>
      </trkpt>
      <trkpt lat="48.57142" lon="2.07556">
        <ele>82.2</ele>
        <time>2023-12-20T13:54:58Z</time>
      </trkpt>
      <trkpt lat="48.57145" lon="2.07567">
        <ele>82.2</ele>
        <time>2023-12-20T13:54:59Z</time>
      </trkpt>
      <trkpt lat="48.57148" lon="2.07579">
        <ele>82.2</ele>
        <time>2023-12-20T13:55:00Z</time>
      </trkpt>
      <trkpt lat="48.57152" lon="2.0759">
        <ele>82.2</ele>
        <time>2023-12-20T13:55:01Z</time>
      </trkpt>
      <trkpt lat="48.57155" lon="2.07602">
        <ele>82.2</ele>
        <time>2023-12-20T13:55:02Z</time>
      </trkpt>
      <trkpt lat="48.57159" lon="2.07614">
        <ele>82.2</ele>
        <time>2023-12-20T13:55:03Z</time>
      </trkpt>
      <trkpt lat="48.57161" lon="2.07626">
        <ele>82.2</ele>
        <time>2023-12-20T13:55:04Z</time>
      </trkpt>
      <trkpt lat="48.57164" lon="2.07638">
        <ele>82.2</ele>
        <time>2023-12-20T13:55:05Z</time>
      </trkpt>
      <trkpt lat="48.57166" lon="2.0765">
        <ele>82.2</ele>
        <time>2023-12-20T13:55:06Z</time>
      </trkpt>
      <trkpt lat="48.57168" lon="2.07663">
        <ele>82</ele>
        <time>2023-12-20T13:55:07Z</time>
      </trkpt>
      <trkpt lat="48.5717" lon="2.07675">
        <ele>82</ele>
        <time>2023-12-20T13:55:08Z</time>
      </trkpt>
      <trkpt lat="48.57172" lon="2.07687">
        <ele>82</ele>
        <time>2023-12-20T13:55:09Z</time>
      </trkpt>
      <trkpt lat="48.57174" lon="2.077">
        <ele>82.2</ele>
        <time>2023-12-20T13:55:10Z</time>
      </trkpt>
      <trkpt lat="48.57175" lon="2.07712">
        <ele>82</ele>
        <time>2023-12-20T13:55:11Z</time>
      </trkpt>
      <trkpt lat="48.57177" lon="2.07724">
        <ele>82</ele>
        <time>2023-12-20T13:55:12Z</time>
      </trkpt>
      <trkpt lat="48.57178" lon="2.07736">
        <ele>82</ele>
        <time>2023-12-20T13:55:13Z</time>
      </trkpt>
      <trkpt lat="48.5718" lon="2.07748">
        <ele>82.2</ele>
        <time>2023-12-20T13:55:14Z</time>
      </trkpt>
      <trkpt lat="48.57183" lon="2.0776">
        <ele>82.4</ele>
        <time>2023-12-20T13:55:15Z</time>
      </trkpt>
      <trkpt lat="48.57185" lon="2.07771">
        <ele>82.4</ele>
        <time>2023-12-20T13:55:16Z</time>
      </trkpt>
      <trkpt lat="48.57188" lon="2.07782">
        <ele>82.4</ele>
        <time>2023-12-20T13:55:17Z</time>
      </trkpt>
      <trkpt lat="48.57191" lon="2.07793">
        <ele>82.4</ele>
        <time>2023-12-20T13:55:18Z</time>
      </trkpt>
      <trkpt lat="48.57194" lon="2.07803">
        <ele>83.4</ele>
        <time>2023-12-20T13:55:19Z</time>
      </trkpt>
      <trkpt lat="48.57198" lon="2.07814">
        <ele>83.4</ele>
        <time>2023-12-20T13:55:20Z</time>
      </trkpt>
      <trkpt lat="48.57202" lon="2.07824">
        <ele>83.4</ele>
        <time>2023-12-20T13:55:21Z</time>
      </trkpt>
      <trkpt lat="48.57205" lon="2.07835">
        <ele>82.6</ele>
        <time>2023-12-20T13:55:22Z</time>
      </trkpt>
      <trkpt lat="48.57209" lon="2.07846">
        <ele>83</ele>
        <time>2023-12-20T13:55:23Z</time>
      </trkpt>
      <trkpt lat="48.57213" lon="2.07857">
        <ele>83</ele>
        <time>2023-12-20T13:55:24Z</time>
      </trkpt>
      <trkpt lat="48.57217" lon="2.07868">
        <ele>83</ele>
        <time>2023-12-20T13:55:25Z</time>
      </trkpt>
      <trkpt lat="48.5722" lon="2.07879">
        <ele>83</ele>
        <time>2023-12-20T13:55:26Z</time>
      </trkpt>
      <trkpt lat="48.57224" lon="2.07891">
        <ele>83.6</ele>
        <time>2023-12-20T13:55:27Z</time>
      </trkpt>
      <trkpt lat="48.57227" lon="2.07902">
        <ele>83.6</ele>
        <time>2023-12-20T13:55:28Z</time>
      </trkpt>
      <trkpt lat="48.5723" lon="2.07914">
        <ele>83.6</ele>
        <time>2023-12-20T13:55:29Z</time>
      </trkpt>
      <trkpt lat="48.57232" lon="2.07926">
        <ele>84.6</ele>
        <time>2023-12-20T13:55:30Z</time>
      </trkpt>
      <trkpt lat="48.57234" lon="2.07937">
        <ele>84.4</ele>
        <time>2023-12-20T13:55:31Z</time>
      </trkpt>
      <trkpt lat="48.57235" lon="2.07949">
        <ele>84.4</ele>
        <time>2023-12-20T13:55:32Z</time>
      </trkpt>
      <trkpt lat="48.57236" lon="2.07961">
        <ele>84.4</ele>
        <time>2023-12-20T13:55:33Z</time>
      </trkpt>
      <trkpt lat="48.57237" lon="2.07972">
        <ele>85.4</ele>
        <time>2023-12-20T13:55:34Z</time>
      </trkpt>
      <trkpt lat="48.57238" lon="2.07982">
        <ele>86.4</ele>
        <time>2023-12-20T13:55:35Z</time>
      </trkpt>
      <trkpt lat="48.57239" lon="2.07992">
        <ele>86.4</ele>
        <time>2023-12-20T13:55:36Z</time>
      </trkpt>
      <trkpt lat="48.5724" lon="2.08002">
        <ele>86.4</ele>
        <time>2023-12-20T13:55:37Z</time>
      </trkpt>
      <trkpt lat="48.57241" lon="2.08012">
        <ele>86.8</ele>
        <time>2023-12-20T13:55:38Z</time>
      </trkpt>
      <trkpt lat="48.57242" lon="2.08022">
        <ele>86.2</ele>
        <time>2023-12-20T13:55:39Z</time>
      </trkpt>
      <trkpt lat="48.57243" lon="2.08032">
        <ele>86.2</ele>
        <time>2023-12-20T13:55:40Z</time>
      </trkpt>
      <trkpt lat="48.57244" lon="2.08042">
        <ele>86.2</ele>
        <time>2023-12-20T13:55:41Z</time>
      </trkpt>
      <trkpt lat="48.57245" lon="2.08053">
        <ele>86.2</ele>
        <time>2023-12-20T13:55:42Z</time>
      </trkpt>
      <trkpt lat="48.57247" lon="2.08063">
        <ele>86.2</ele>
        <time>2023-12-20T13:55:43Z</time>
      </trkpt>
      <trkpt lat="48.57248" lon="2.08073">
        <ele>86.2</ele>
        <time>2023-12-20T13:55:44Z</time>
      </trkpt>
      <trkpt lat="48.5725" lon="2.08084">
        <ele>86.2</ele>
        <time>2023-12-20T13:55:45Z</time>
      </trkpt>
      <trkpt lat="48.57252" lon="2.08094">
        <ele>86.2</ele>
        <time>2023-12-20T13:55:46Z</time>
      </trkpt>
      <trkpt lat="48.57254" lon="2.08104">
        <ele>86.4</ele>
        <time>2023-12-20T13:55:47Z</time>
      </trkpt>
      <trkpt lat="48.57257" lon="2.08114">
        <ele>86.4</ele>
        <time>2023-12-20T13:55:48Z</time>
      </trkpt>
      <trkpt lat="48.57259" lon="2.08124">
        <ele>86.4</ele>
        <time>2023-12-20T13:55:49Z</time>
      </trkpt>
      <trkpt lat="48.57262" lon="2.08134">
        <ele>85.4</ele>
        <time>2023-12-20T13:55:50Z</time>
      </trkpt>
      <trkpt lat="48.57265" lon="2.08144">
        <ele>85.2</ele>
        <time>2023-12-20T13:55:51Z</time>
      </trkpt>
      <trkpt lat="48.57268" lon="2.08154">
        <ele>85.2</ele>
        <time>2023-12-20T13:55:52Z</time>
      </trkpt>
      <trkpt lat="48.57272" lon="2.08164">
        <ele>85.2</ele>
        <time>2023-12-20T13:55:53Z</time>
      </trkpt>
      <trkpt lat="48.57275" lon="2.08174">
        <ele>85.2</ele>
        <time>2023-12-20T13:55:54Z</time>
      </trkpt>
      <trkpt lat="48.57279" lon="2.08184">
        <ele>85</ele>
        <time>2023-12-20T13:55:55Z</time>
      </trkpt>
      <trkpt lat="48.57282" lon="2.08194">
        <ele>85</ele>
        <time>2023-12-20T13:55:56Z</time>
      </trkpt>
      <trkpt lat="48.57285" lon="2.08204">
        <ele>85</ele>
        <time>2023-12-20T13:55:57Z</time>
      </trkpt>
      <trkpt lat="48.57288" lon="2.08214">
        <ele>86</ele>
        <time>2023-12-20T13:55:58Z</time>
      </trkpt>
      <trkpt lat="48.57291" lon="2.08224">
        <ele>86.4</ele>
        <time>2023-12-20T13:55:59Z</time>
      </trkpt>
      <trkpt lat="48.57294" lon="2.08233">
        <ele>86.4</ele>
        <time>2023-12-20T13:56:00Z</time>
      </trkpt>
      <trkpt lat="48.57297" lon="2.08243">
        <ele>86.4</ele>
        <time>2023-12-20T13:56:01Z</time>
      </trkpt>
      <trkpt lat="48.573" lon="2.08252">
        <ele>86.4</ele>
        <time>2023-12-20T13:56:02Z</time>
      </trkpt>
      <trkpt lat="48.57302" lon="2.08261">
        <ele>85.4</ele>
        <time>2023-12-20T13:56:03Z</time>
      </trkpt>
      <trkpt lat="48.57305" lon="2.0827">
        <ele>85.4</ele>
        <time>2023-12-20T13:56:04Z</time>
      </trkpt>
      <trkpt lat="48.57307" lon="2.0828">
        <ele>85.4</ele>
        <time>2023-12-20T13:56:05Z</time>
      </trkpt>
      <trkpt lat="48.57311" lon="2.08289">
        <ele>84.4</ele>
        <time>2023-12-20T13:56:06Z</time>
      </trkpt>
      <trkpt lat="48.57315" lon="2.08298">
        <ele>84.4</ele>
        <time>2023-12-20T13:56:07Z</time>
      </trkpt>
      <trkpt lat="48.57319" lon="2.08307">
        <ele>84.4</ele>
        <time>2023-12-20T13:56:08Z</time>
      </trkpt>
      <trkpt lat="48.57323" lon="2.08317">
        <ele>84.4</ele>
        <time>2023-12-20T13:56:09Z</time>
      </trkpt>
      <trkpt lat="48.57327" lon="2.08326">
        <ele>83.4</ele>
        <time>2023-12-20T13:56:10Z</time>
      </trkpt>
      <trkpt lat="48.57331" lon="2.08336">
        <ele>82.6</ele>
        <time>2023-12-20T13:56:11Z</time>
      </trkpt>
      <trkpt lat="48.57335" lon="2.08346">
        <ele>82.6</ele>
        <time>2023-12-20T13:56:12Z</time>
      </trkpt>
      <trkpt lat="48.5734" lon="2.08356">
        <ele>82.6</ele>
        <time>2023-12-20T13:56:13Z</time>
      </trkpt>
      <trkpt lat="48.57344" lon="2.08367">
        <ele>81.6</ele>
        <time>2023-12-20T13:56:14Z</time>
      </trkpt>
      <trkpt lat="48.57348" lon="2.08378">
        <ele>81.6</ele>
        <time>2023-12-20T13:56:15Z</time>
      </trkpt>
      <trkpt lat="48.57352" lon="2.08389">
        <ele>81.6</ele>
        <time>2023-12-20T13:56:16Z</time>
      </trkpt>
      <trkpt lat="48.57356" lon="2.08401">
        <ele>81.6</ele>
        <time>2023-12-20T13:56:17Z</time>
      </trkpt>
      <trkpt lat="48.5736" lon="2.08413">
        <ele>81.6</ele>
        <time>2023-12-20T13:56:18Z</time>
      </trkpt>
      <trkpt lat="48.57363" lon="2.08425">
        <ele>82</ele>
        <time>2023-12-20T13:56:19Z</time>
      </trkpt>
      <trkpt lat="48.57366" lon="2.08437">
        <ele>82</ele>
        <time>2023-12-20T13:56:20Z</time>
      </trkpt>
      <trkpt lat="48.57369" lon="2.08448">
        <ele>82</ele>
        <time>2023-12-20T13:56:21Z</time>
      </trkpt>
      <trkpt lat="48.57372" lon="2.08459">
        <ele>82</ele>
        <time>2023-12-20T13:56:22Z</time>
      </trkpt>
      <trkpt lat="48.57374" lon="2.0847">
        <ele>84</ele>
        <time>2023-12-20T13:56:23Z</time>
      </trkpt>
      <trkpt lat="48.57377" lon="2.0848">
        <ele>84</ele>
        <time>2023-12-20T13:56:24Z</time>
      </trkpt>
      <trkpt lat="48.57379" lon="2.08489">
        <ele>84</ele>
        <time>2023-12-20T13:56:25Z</time>
      </trkpt>
      <trkpt lat="48.57382" lon="2.08498">
        <ele>84.6</ele>
        <time>2023-12-20T13:56:26Z</time>
      </trkpt>
      <trkpt lat="48.57385" lon="2.08507">
        <ele>85.2</ele>
        <time>2023-12-20T13:56:27Z</time>
      </trkpt>
      <trkpt lat="48.57387" lon="2.08516">
        <ele>85.2</ele>
        <time>2023-12-20T13:56:28Z</time>
      </trkpt>
      <trkpt lat="48.5739" lon="2.08525">
        <ele>85.2</ele>
        <time>2023-12-20T13:56:29Z</time>
      </trkpt>
      <trkpt lat="48.57392" lon="2.08534">
        <ele>85.2</ele>
        <time>2023-12-20T13:56:30Z</time>
      </trkpt>
      <trkpt lat="48.57394" lon="2.08544">
        <ele>84</ele>
        <time>2023-12-20T13:56:31Z</time>
      </trkpt>
      <trkpt lat="48.57397" lon="2.08553">
        <ele>84</ele>
        <time>2023-12-20T13:56:32Z</time>
      </trkpt>
      <trkpt lat="48.57399" lon="2.08563">
        <ele>84</ele>
        <time>2023-12-20T13:56:33Z</time>
      </trkpt>
      <trkpt lat="48.57402" lon="2.08573">
        <ele>84.6</ele>
        <time>2023-12-20T13:56:34Z</time>
      </trkpt>
      <trkpt lat="48.57404" lon="2.08583">
        <ele>84</ele>
        <time>2023-12-20T13:56:35Z</time>
      </trkpt>
      <trkpt lat="48.57406" lon="2.08593">
        <ele>84</ele>
        <time>2023-12-20T13:56:36Z</time>
      </trkpt>
      <trkpt lat="48.57407" lon="2.08603">
        <ele>84</ele>
        <time>2023-12-20T13:56:37Z</time>
      </trkpt>
      <trkpt lat="48.57409" lon="2.08613">
        <ele>83.6</ele>
        <time>2023-12-20T13:56:38Z</time>
      </trkpt>
      <trkpt lat="48.57409" lon="2.08623">
        <ele>83.8</ele>
        <time>2023-12-20T13:56:39Z</time>
      </trkpt>
      <trkpt lat="48.57409" lon="2.08632">
        <ele>83.8</ele>
        <time>2023-12-20T13:56:40Z</time>
      </trkpt>
      <trkpt lat="48.5741" lon="2.08642">
        <ele>83.8</ele>
        <time>2023-12-20T13:56:41Z</time>
      </trkpt>
      <trkpt lat="48.5741" lon="2.0865">
        <ele>84</ele>
        <time>2023-12-20T13:56:42Z</time>
      </trkpt>
      <trkpt lat="48.5741" lon="2.0866">
        <ele>84.6</ele>
        <time>2023-12-20T13:56:43Z</time>
      </trkpt>
      <trkpt lat="48.5741" lon="2.08669">
        <ele>84.6</ele>
        <time>2023-12-20T13:56:44Z</time>
      </trkpt>
      <trkpt lat="48.57408" lon="2.08678">
        <ele>84.6</ele>
        <time>2023-12-20T13:56:45Z</time>
      </trkpt>
      <trkpt lat="48.57409" lon="2.08687">
        <ele>83.6</ele>
        <time>2023-12-20T13:56:46Z</time>
      </trkpt>
      <trkpt lat="48.57409" lon="2.08697">
        <ele>84</ele>
        <time>2023-12-20T13:56:47Z</time>
      </trkpt>
      <trkpt lat="48.5741" lon="2.08706">
        <ele>84</ele>
        <time>2023-12-20T13:56:48Z</time>
      </trkpt>
      <trkpt lat="48.57412" lon="2.08716">
        <ele>84</ele>
        <time>2023-12-20T13:56:49Z</time>
      </trkpt>
      <trkpt lat="48.57413" lon="2.08726">
        <ele>83</ele>
        <time>2023-12-20T13:56:50Z</time>
      </trkpt>
      <trkpt lat="48.57414" lon="2.08737">
        <ele>82.6</ele>
        <time>2023-12-20T13:56:51Z</time>
      </trkpt>
      <trkpt lat="48.57415" lon="2.08746">
        <ele>82.6</ele>
        <time>2023-12-20T13:56:52Z</time>
      </trkpt>
      <trkpt lat="48.57417" lon="2.08756">
        <ele>82.6</ele>
        <time>2023-12-20T13:56:53Z</time>
      </trkpt>
      <trkpt lat="48.57418" lon="2.08766">
        <ele>82.6</ele>
        <time>2023-12-20T13:56:54Z</time>
      </trkpt>
      <trkpt lat="48.5742" lon="2.08777">
        <ele>82.4</ele>
        <time>2023-12-20T13:56:55Z</time>
      </trkpt>
      <trkpt lat="48.57422" lon="2.08788">
        <ele>82.4</ele>
        <time>2023-12-20T13:56:56Z</time>
      </trkpt>
      <trkpt lat="48.57425" lon="2.08799">
        <ele>82.4</ele>
        <time>2023-12-20T13:56:57Z</time>
      </trkpt>
      <trkpt lat="48.57426" lon="2.08811">
        <ele>82.4</ele>
        <time>2023-12-20T13:56:58Z</time>
      </trkpt>
      <trkpt lat="48.57428" lon="2.08823">
        <ele>82.8</ele>
        <time>2023-12-20T13:56:59Z</time>
      </trkpt>
      <trkpt lat="48.5743" lon="2.08835">
        <ele>82.8</ele>
        <time>2023-12-20T13:57:00Z</time>
      </trkpt>
      <trkpt lat="48.57432" lon="2.08847">
        <ele>82.8</ele>
        <time>2023-12-20T13:57:01Z</time>
      </trkpt>
      <trkpt lat="48.57434" lon="2.08858">
        <ele>82.8</ele>
        <time>2023-12-20T13:57:02Z</time>
      </trkpt>
      <trkpt lat="48.57435" lon="2.0887">
        <ele>83</ele>
        <time>2023-12-20T13:57:03Z</time>
      </trkpt>
      <trkpt lat="48.57437" lon="2.08882">
        <ele>83</ele>
        <time>2023-12-20T13:57:04Z</time>
      </trkpt>
      <trkpt lat="48.57439" lon="2.08895">
        <ele>83</ele>
        <time>2023-12-20T13:57:05Z</time>
      </trkpt>
      <trkpt lat="48.5744" lon="2.08907">
        <ele>82</ele>
        <time>2023-12-20T13:57:06Z</time>
      </trkpt>
      <trkpt lat="48.57442" lon="2.08919">
        <ele>81.6</ele>
        <time>2023-12-20T13:57:07Z</time>
      </trkpt>
      <trkpt lat="48.57444" lon="2.08931">
        <ele>81.6</ele>
        <time>2023-12-20T13:57:08Z</time>
      </trkpt>
      <trkpt lat="48.57446" lon="2.08943">
        <ele>81.6</ele>
        <time>2023-12-20T13:57:09Z</time>
      </trkpt>
      <trkpt lat="48.57447" lon="2.08955">
        <ele>81.6</ele>
        <time>2023-12-20T13:57:10Z</time>
      </trkpt>
      <trkpt lat="48.57449" lon="2.08968">
        <ele>81.2</ele>
        <time>2023-12-20T13:57:11Z</time>
      </trkpt>
      <trkpt lat="48.57451" lon="2.0898">
        <ele>81.2</ele>
        <time>2023-12-20T13:57:12Z</time>
      </trkpt>
      <trkpt lat="48.57452" lon="2.08993">
        <ele>81.2</ele>
        <time>2023-12-20T13:57:13Z</time>
      </trkpt>
      <trkpt lat="48.57454" lon="2.09005">
        <ele>81.2</ele>
        <time>2023-12-20T13:57:14Z</time>
      </trkpt>
      <trkpt lat="48.57456" lon="2.09018">
        <ele>80.2</ele>
        <time>2023-12-20T13:57:15Z</time>
      </trkpt>
      <trkpt lat="48.57457" lon="2.0903">
        <ele>80.2</ele>
        <time>2023-12-20T13:57:16Z</time>
      </trkpt>
      <trkpt lat="48.57459" lon="2.09043">
        <ele>80.2</ele>
        <time>2023-12-20T13:57:17Z</time>
      </trkpt>
      <trkpt lat="48.57461" lon="2.09055">
        <ele>80.2</ele>
        <time>2023-12-20T13:57:18Z</time>
      </trkpt>
      <trkpt lat="48.57462" lon="2.09067">
        <ele>80.4</ele>
        <time>2023-12-20T13:57:19Z</time>
      </trkpt>
      <trkpt lat="48.57463" lon="2.09079">
        <ele>80.4</ele>
        <time>2023-12-20T13:57:20Z</time>
      </trkpt>
      <trkpt lat="48.57464" lon="2.09091">
        <ele>80.4</ele>
        <time>2023-12-20T13:57:21Z</time>
      </trkpt>
      <trkpt lat="48.57465" lon="2.09103">
        <ele>80.2</ele>
        <time>2023-12-20T13:57:22Z</time>
      </trkpt>
      <trkpt lat="48.57465" lon="2.09115">
        <ele>80.2</ele>
        <time>2023-12-20T13:57:23Z</time>
      </trkpt>
      <trkpt lat="48.57465" lon="2.09127">
        <ele>80.2</ele>
        <time>2023-12-20T13:57:24Z</time>
      </trkpt>
      <trkpt lat="48.57465" lon="2.09139">
        <ele>80.2</ele>
        <time>2023-12-20T13:57:25Z</time>
      </trkpt>
      <trkpt lat="48.57466" lon="2.0915">
        <ele>80.2</ele>
        <time>2023-12-20T13:57:26Z</time>
      </trkpt>
      <trkpt lat="48.57466" lon="2.09162">
        <ele>80.8</ele>
        <time>2023-12-20T13:57:27Z</time>
      </trkpt>
      <trkpt lat="48.57467" lon="2.09173">
        <ele>80.8</ele>
        <time>2023-12-20T13:57:28Z</time>
      </trkpt>
      <trkpt lat="48.57467" lon="2.09184">
        <ele>80.8</ele>
        <time>2023-12-20T13:57:29Z</time>
      </trkpt>
      <trkpt lat="48.57467" lon="2.09195">
        <ele>80.8</ele>
        <time>2023-12-20T13:57:30Z</time>
      </trkpt>
      <trkpt lat="48.57468" lon="2.09205">
        <ele>80.4</ele>
        <time>2023-12-20T13:57:31Z</time>
      </trkpt>
      <trkpt lat="48.57469" lon="2.09215">
        <ele>80.4</ele>
        <time>2023-12-20T13:57:32Z</time>
      </trkpt>
      <trkpt lat="48.5747" lon="2.09225">
        <ele>80.4</ele>
        <time>2023-12-20T13:57:33Z</time>
      </trkpt>
      <trkpt lat="48.5747" lon="2.09235">
        <ele>80.6</ele>
        <time>2023-12-20T13:57:34Z</time>
      </trkpt>
      <trkpt lat="48.5747" lon="2.09244">
        <ele>80.6</ele>
        <time>2023-12-20T13:57:35Z</time>
      </trkpt>
      <trkpt lat="48.57469" lon="2.09252">
        <ele>80.6</ele>
        <time>2023-12-20T13:57:36Z</time>
      </trkpt>
      <trkpt lat="48.57466" lon="2.09257">
        <ele>80.6</ele>
        <time>2023-12-20T13:57:37Z</time>
      </trkpt>
      <trkpt lat="48.57463" lon="2.09259">
        <ele>80</ele>
        <time>2023-12-20T13:57:38Z</time>
      </trkpt>
      <trkpt lat="48.57459" lon="2.0926">
        <ele>80.2</ele>
        <time>2023-12-20T13:57:39Z</time>
      </trkpt>
      <trkpt lat="48.57454" lon="2.0926">
        <ele>80.2</ele>
        <time>2023-12-20T13:57:40Z</time>
      </trkpt>
      <trkpt lat="48.5745" lon="2.0926">
        <ele>80.2</ele>
        <time>2023-12-20T13:57:41Z</time>
      </trkpt>
      <trkpt lat="48.57445" lon="2.0926">
        <ele>80.2</ele>
        <time>2023-12-20T13:57:42Z</time>
      </trkpt>
      <trkpt lat="48.57441" lon="2.09262">
        <ele>81.4</ele>
        <time>2023-12-20T13:57:43Z</time>
      </trkpt>
      <trkpt lat="48.57439" lon="2.09266">
        <ele>81.4</ele>
        <time>2023-12-20T13:57:44Z</time>
      </trkpt>
      <trkpt lat="48.57438" lon="2.09274">
        <ele>81.4</ele>
        <time>2023-12-20T13:57:45Z</time>
      </trkpt>
      <trkpt lat="48.57439" lon="2.09281">
        <ele>80.4</ele>
        <time>2023-12-20T13:57:46Z</time>
      </trkpt>
      <trkpt lat="48.5744" lon="2.09288">
        <ele>79.8</ele>
        <time>2023-12-20T13:57:47Z</time>
      </trkpt>
      <trkpt lat="48.57441" lon="2.09296">
        <ele>79.8</ele>
        <time>2023-12-20T13:57:48Z</time>
      </trkpt>
      <trkpt lat="48.57442" lon="2.09303">
        <ele>79.8</ele>
        <time>2023-12-20T13:57:49Z</time>
      </trkpt>
      <trkpt lat="48.57442" lon="2.0931">
        <ele>79.8</ele>
        <time>2023-12-20T13:57:50Z</time>
      </trkpt>
      <trkpt lat="48.57442" lon="2.09316">
        <ele>81.4</ele>
        <time>2023-12-20T13:57:51Z</time>
      </trkpt>
      <trkpt lat="48.57442" lon="2.09322">
        <ele>81.4</ele>
        <time>2023-12-20T13:57:52Z</time>
      </trkpt>
      <trkpt lat="48.57442" lon="2.0933">
        <ele>81.4</ele>
        <time>2023-12-20T13:57:53Z</time>
      </trkpt>
      <trkpt lat="48.57442" lon="2.09333">
        <ele>81.4</ele>
        <time>2023-12-20T13:57:54Z</time>
      </trkpt>
      <trkpt lat="48.57443" lon="2.09335">
        <ele>82.6</ele>
        <time>2023-12-20T13:57:55Z</time>
      </trkpt>
      <trkpt lat="48.57443" lon="2.09338">
        <ele>82.6</ele>
        <time>2023-12-20T13:57:56Z</time>
      </trkpt>
      <trkpt lat="48.57443" lon="2.0934">
        <ele>81.6</ele>
        <time>2023-12-20T13:58:04Z</time>
      </trkpt>
      <trkpt lat="48.57444" lon="2.09343">
        <ele>81.6</ele>
        <time>2023-12-20T13:58:05Z</time>
      </trkpt>
      <trkpt lat="48.57445" lon="2.09349">
        <ele>81.6</ele>
        <time>2023-12-20T13:58:06Z</time>
      </trkpt>
      <trkpt lat="48.57448" lon="2.09354">
        <ele>81.4</ele>
        <time>2023-12-20T13:58:07Z</time>
      </trkpt>
      <trkpt lat="48.57451" lon="2.09359">
        <ele>81.4</ele>
        <time>2023-12-20T13:58:08Z</time>
      </trkpt>
      <trkpt lat="48.57453" lon="2.09365">
        <ele>81.4</ele>
        <time>2023-12-20T13:58:09Z</time>
      </trkpt>
      <trkpt lat="48.57454" lon="2.09372">
        <ele>80.4</ele>
        <time>2023-12-20T13:58:10Z</time>
      </trkpt>
      <trkpt lat="48.57457" lon="2.0938">
        <ele>79.8</ele>
        <time>2023-12-20T13:58:11Z</time>
      </trkpt>
      <trkpt lat="48.57459" lon="2.09387">
        <ele>79.8</ele>
        <time>2023-12-20T13:58:12Z</time>
      </trkpt>
      <trkpt lat="48.57462" lon="2.09396">
        <ele>79.8</ele>
        <time>2023-12-20T13:58:13Z</time>
      </trkpt>
      <trkpt lat="48.57464" lon="2.09405">
        <ele>79.2</ele>
        <time>2023-12-20T13:58:14Z</time>
      </trkpt>
      <trkpt lat="48.57467" lon="2.09415">
        <ele>79.6</ele>
        <time>2023-12-20T13:58:15Z</time>
      </trkpt>
      <trkpt lat="48.5747" lon="2.09425">
        <ele>79.6</ele>
        <time>2023-12-20T13:58:16Z</time>
      </trkpt>
      <trkpt lat="48.57472" lon="2.09436">
        <ele>79.6</ele>
        <time>2023-12-20T13:58:17Z</time>
      </trkpt>
      <trkpt lat="48.57474" lon="2.09446">
        <ele>79.6</ele>
        <time>2023-12-20T13:58:18Z</time>
      </trkpt>
      <trkpt lat="48.57475" lon="2.09456">
        <ele>79.2</ele>
        <time>2023-12-20T13:58:19Z</time>
      </trkpt>
      <trkpt lat="48.57477" lon="2.09467">
        <ele>79.2</ele>
        <time>2023-12-20T13:58:20Z</time>
      </trkpt>
      <trkpt lat="48.57479" lon="2.09477">
        <ele>79.2</ele>
        <time>2023-12-20T13:58:21Z</time>
      </trkpt>
      <trkpt lat="48.5748" lon="2.09487">
        <ele>79.2</ele>
        <time>2023-12-20T13:58:22Z</time>
      </trkpt>
      <trkpt lat="48.57482" lon="2.09496">
        <ele>79.2</ele>
        <time>2023-12-20T13:58:23Z</time>
      </trkpt>
      <trkpt lat="48.57484" lon="2.09506">
        <ele>79.2</ele>
        <time>2023-12-20T13:58:24Z</time>
      </trkpt>
      <trkpt lat="48.57486" lon="2.09517">
        <ele>79.2</ele>
        <time>2023-12-20T13:58:25Z</time>
      </trkpt>
      <trkpt lat="48.57488" lon="2.09529">
        <ele>79.2</ele>
        <time>2023-12-20T13:58:26Z</time>
      </trkpt>
      <trkpt lat="48.5749" lon="2.0954">
        <ele>78.8</ele>
        <time>2023-12-20T13:58:27Z</time>
      </trkpt>
      <trkpt lat="48.57492" lon="2.0955">
        <ele>78.8</ele>
        <time>2023-12-20T13:58:28Z</time>
      </trkpt>
      <trkpt lat="48.57494" lon="2.09562">
        <ele>78.8</ele>
        <time>2023-12-20T13:58:29Z</time>
      </trkpt>
      <trkpt lat="48.57496" lon="2.09572">
        <ele>78.6</ele>
        <time>2023-12-20T13:58:30Z</time>
      </trkpt>
      <trkpt lat="48.57499" lon="2.09584">
        <ele>78.6</ele>
        <time>2023-12-20T13:58:31Z</time>
      </trkpt>
      <trkpt lat="48.57501" lon="2.09595">
        <ele>78.6</ele>
        <time>2023-12-20T13:58:32Z</time>
      </trkpt>
      <trkpt lat="48.57504" lon="2.09607">
        <ele>78.6</ele>
        <time>2023-12-20T13:58:33Z</time>
      </trkpt>
      <trkpt lat="48.57506" lon="2.0962">
        <ele>78.6</ele>
        <time>2023-12-20T13:58:34Z</time>
      </trkpt>
      <trkpt lat="48.57508" lon="2.09632">
        <ele>78.2</ele>
        <time>2023-12-20T13:58:35Z</time>
      </trkpt>
      <trkpt lat="48.5751" lon="2.09644">
        <ele>78.2</ele>
        <time>2023-12-20T13:58:36Z</time>
      </trkpt>
      <trkpt lat="48.57512" lon="2.09656">
        <ele>78.2</ele>
        <time>2023-12-20T13:58:37Z</time>
      </trkpt>
      <trkpt lat="48.57514" lon="2.09668">
        <ele>78.2</ele>
        <time>2023-12-20T13:58:38Z</time>
      </trkpt>
      <trkpt lat="48.57515" lon="2.0968">
        <ele>77.4</ele>
        <time>2023-12-20T13:58:39Z</time>
      </trkpt>
      <trkpt lat="48.57516" lon="2.09693">
        <ele>77.4</ele>
        <time>2023-12-20T13:58:40Z</time>
      </trkpt>
      <trkpt lat="48.57518" lon="2.09704">
        <ele>77.4</ele>
        <time>2023-12-20T13:58:41Z</time>
      </trkpt>
      <trkpt lat="48.5752" lon="2.09716">
        <ele>77.4</ele>
        <time>2023-12-20T13:58:42Z</time>
      </trkpt>
      <trkpt lat="48.57521" lon="2.09729">
        <ele>77.2</ele>
        <time>2023-12-20T13:58:43Z</time>
      </trkpt>
      <trkpt lat="48.57523" lon="2.09741">
        <ele>77.2</ele>
        <time>2023-12-20T13:58:44Z</time>
      </trkpt>
      <trkpt lat="48.57523" lon="2.09753">
        <ele>77.2</ele>
        <time>2023-12-20T13:58:45Z</time>
      </trkpt>
      <trkpt lat="48.57525" lon="2.09765">
        <ele>77.6</ele>
        <time>2023-12-20T13:58:46Z</time>
      </trkpt>
      <trkpt lat="48.57524" lon="2.09778">
        <ele>77.4</ele>
        <time>2023-12-20T13:58:47Z</time>
      </trkpt>
      <trkpt lat="48.57526" lon="2.0979">
        <ele>77.4</ele>
        <time>2023-12-20T13:58:48Z</time>
      </trkpt>
      <trkpt lat="48.57527" lon="2.09801">
        <ele>77.4</ele>
        <time>2023-12-20T13:58:49Z</time>
      </trkpt>
      <trkpt lat="48.57529" lon="2.09813">
        <ele>77.8</ele>
        <time>2023-12-20T13:58:50Z</time>
      </trkpt>
      <trkpt lat="48.57532" lon="2.09825">
        <ele>77.6</ele>
        <time>2023-12-20T13:58:51Z</time>
      </trkpt>
      <trkpt lat="48.57535" lon="2.09837">
        <ele>77.6</ele>
        <time>2023-12-20T13:58:52Z</time>
      </trkpt>
      <trkpt lat="48.57538" lon="2.09849">
        <ele>77.6</ele>
        <time>2023-12-20T13:58:53Z</time>
      </trkpt>
      <trkpt lat="48.57541" lon="2.0986">
        <ele>77.6</ele>
        <time>2023-12-20T13:58:54Z</time>
      </trkpt>
      <trkpt lat="48.57544" lon="2.09872">
        <ele>77.6</ele>
        <time>2023-12-20T13:58:55Z</time>
      </trkpt>
      <trkpt lat="48.57548" lon="2.09883">
        <ele>77.6</ele>
        <time>2023-12-20T13:58:56Z</time>
      </trkpt>
      <trkpt lat="48.57551" lon="2.09894">
        <ele>77.6</ele>
        <time>2023-12-20T13:58:57Z</time>
      </trkpt>
      <trkpt lat="48.57554" lon="2.09905">
        <ele>77.6</ele>
        <time>2023-12-20T13:58:58Z</time>
      </trkpt>
      <trkpt lat="48.57556" lon="2.09917">
        <ele>77.4</ele>
        <time>2023-12-20T13:58:59Z</time>
      </trkpt>
      <trkpt lat="48.57558" lon="2.09928">
        <ele>77.4</ele>
        <time>2023-12-20T13:59:00Z</time>
      </trkpt>
      <trkpt lat="48.57561" lon="2.0994">
        <ele>77.4</ele>
        <time>2023-12-20T13:59:01Z</time>
      </trkpt>
      <trkpt lat="48.57563" lon="2.09951">
        <ele>77.4</ele>
        <time>2023-12-20T13:59:02Z</time>
      </trkpt>
      <trkpt lat="48.57565" lon="2.09963">
        <ele>77.4</ele>
        <time>2023-12-20T13:59:03Z</time>
      </trkpt>
      <trkpt lat="48.57567" lon="2.09974">
        <ele>77.4</ele>
        <time>2023-12-20T13:59:04Z</time>
      </trkpt>
      <trkpt lat="48.57568" lon="2.09986">
        <ele>77.4</ele>
        <time>2023-12-20T13:59:05Z</time>
      </trkpt>
      <trkpt lat="48.57569" lon="2.09998">
        <ele>77.8</ele>
        <time>2023-12-20T13:59:06Z</time>
      </trkpt>
      <trkpt lat="48.57571" lon="2.1001">
        <ele>77</ele>
        <time>2023-12-20T13:59:07Z</time>
      </trkpt>
      <trkpt lat="48.57572" lon="2.10021">
        <ele>77</ele>
        <time>2023-12-20T13:59:08Z</time>
      </trkpt>
      <trkpt lat="48.57573" lon="2.10033">
        <ele>77</ele>
        <time>2023-12-20T13:59:09Z</time>
      </trkpt>
      <trkpt lat="48.57575" lon="2.10044">
        <ele>77</ele>
        <time>2023-12-20T13:59:10Z</time>
      </trkpt>
      <trkpt lat="48.57576" lon="2.10055">
        <ele>77.6</ele>
        <time>2023-12-20T13:59:11Z</time>
      </trkpt>
      <trkpt lat="48.57577" lon="2.10067">
        <ele>77.6</ele>
        <time>2023-12-20T13:59:12Z</time>
      </trkpt>
      <trkpt lat="48.57578" lon="2.10077">
        <ele>77.6</ele>
        <time>2023-12-20T13:59:13Z</time>
      </trkpt>
      <trkpt lat="48.57581" lon="2.10086">
        <ele>77.6</ele>
        <time>2023-12-20T13:59:14Z</time>
      </trkpt>
      <trkpt lat="48.57585" lon="2.10094">
        <ele>77.4</ele>
        <time>2023-12-20T13:59:15Z</time>
      </trkpt>
      <trkpt lat="48.57592" lon="2.10099">
        <ele>77.4</ele>
        <time>2023-12-20T13:59:16Z</time>
      </trkpt>
      <trkpt lat="48.57598" lon="2.10103">
        <ele>77.4</ele>
        <time>2023-12-20T13:59:17Z</time>
      </trkpt>
      <trkpt lat="48.57604" lon="2.10105">
        <ele>78.4</ele>
        <time>2023-12-20T13:59:18Z</time>
      </trkpt>
      <trkpt lat="48.57611" lon="2.10108">
        <ele>79.2</ele>
        <time>2023-12-20T13:59:19Z</time>
      </trkpt>
      <trkpt lat="48.57618" lon="2.1011">
        <ele>79.2</ele>
        <time>2023-12-20T13:59:20Z</time>
      </trkpt>
      <trkpt lat="48.57624" lon="2.10112">
        <ele>79.2</ele>
        <time>2023-12-20T13:59:21Z</time>
      </trkpt>
      <trkpt lat="48.5763" lon="2.10115">
        <ele>79.2</ele>
        <time>2023-12-20T13:59:22Z</time>
      </trkpt>
      <trkpt lat="48.57636" lon="2.10117">
        <ele>80.8</ele>
        <time>2023-12-20T13:59:23Z</time>
      </trkpt>
      <trkpt lat="48.57642" lon="2.10121">
        <ele>80.8</ele>
        <time>2023-12-20T13:59:24Z</time>
      </trkpt>
      <trkpt lat="48.57649" lon="2.10125">
        <ele>80.8</ele>
        <time>2023-12-20T13:59:25Z</time>
      </trkpt>
      <trkpt lat="48.57655" lon="2.10128">
        <ele>81.8</ele>
        <time>2023-12-20T13:59:26Z</time>
      </trkpt>
      <trkpt lat="48.57662" lon="2.10131">
        <ele>82.2</ele>
        <time>2023-12-20T13:59:27Z</time>
      </trkpt>
      <trkpt lat="48.57669" lon="2.10134">
        <ele>82.2</ele>
        <time>2023-12-20T13:59:28Z</time>
      </trkpt>
      <trkpt lat="48.57677" lon="2.10137">
        <ele>82.2</ele>
        <time>2023-12-20T13:59:29Z</time>
      </trkpt>
      <trkpt lat="48.57685" lon="2.1014">
        <ele>81.2</ele>
        <time>2023-12-20T13:59:30Z</time>
      </trkpt>
      <trkpt lat="48.57692" lon="2.10143">
        <ele>82.2</ele>
        <time>2023-12-20T13:59:31Z</time>
      </trkpt>
      <trkpt lat="48.57699" lon="2.10147">
        <ele>82.2</ele>
        <time>2023-12-20T13:59:32Z</time>
      </trkpt>
      <trkpt lat="48.57706" lon="2.10151">
        <ele>82.2</ele>
        <time>2023-12-20T13:59:33Z</time>
      </trkpt>
      <trkpt lat="48.57712" lon="2.10155">
        <ele>82.2</ele>
        <time>2023-12-20T13:59:34Z</time>
      </trkpt>
      <trkpt lat="48.57718" lon="2.10159">
        <ele>83.8</ele>
        <time>2023-12-20T13:59:35Z</time>
      </trkpt>
      <trkpt lat="48.57724" lon="2.10162">
        <ele>83.8</ele>
        <time>2023-12-20T13:59:36Z</time>
      </trkpt>
      <trkpt lat="48.5773" lon="2.10166">
        <ele>83.8</ele>
        <time>2023-12-20T13:59:37Z</time>
      </trkpt>
      <trkpt lat="48.57735" lon="2.10169">
        <ele>84.8</ele>
        <time>2023-12-20T13:59:38Z</time>
      </trkpt>
      <trkpt lat="48.57741" lon="2.10173">
        <ele>84.6</ele>
        <time>2023-12-20T13:59:39Z</time>
      </trkpt>
      <trkpt lat="48.57746" lon="2.10176">
        <ele>84.6</ele>
        <time>2023-12-20T13:59:40Z</time>
      </trkpt>
      <trkpt lat="48.57752" lon="2.10179">
        <ele>84.6</ele>
        <time>2023-12-20T13:59:41Z</time>
      </trkpt>
      <trkpt lat="48.57757" lon="2.10182">
        <ele>85.6</ele>
        <time>2023-12-20T13:59:42Z</time>
      </trkpt>
      <trkpt lat="48.57762" lon="2.10186">
        <ele>85.8</ele>
        <time>2023-12-20T13:59:43Z</time>
      </trkpt>
      <trkpt lat="48.57768" lon="2.10189">
        <ele>85.8</ele>
        <time>2023-12-20T13:59:44Z</time>
      </trkpt>
      <trkpt lat="48.57773" lon="2.10192">
        <ele>85.8</ele>
        <time>2023-12-20T13:59:45Z</time>
      </trkpt>
      <trkpt lat="48.57779" lon="2.10195">
        <ele>85.8</ele>
        <time>2023-12-20T13:59:46Z</time>
      </trkpt>
      <trkpt lat="48.57784" lon="2.10198">
        <ele>86</ele>
        <time>2023-12-20T13:59:47Z</time>
      </trkpt>
      <trkpt lat="48.5779" lon="2.10201">
        <ele>86</ele>
        <time>2023-12-20T13:59:48Z</time>
      </trkpt>
      <trkpt lat="48.57796" lon="2.10205">
        <ele>86</ele>
        <time>2023-12-20T13:59:49Z</time>
      </trkpt>
      <trkpt lat="48.57801" lon="2.10208">
        <ele>86.4</ele>
        <time>2023-12-20T13:59:50Z</time>
      </trkpt>
      <trkpt lat="48.57807" lon="2.10211">
        <ele>86.6</ele>
        <time>2023-12-20T13:59:51Z</time>
      </trkpt>
      <trkpt lat="48.57813" lon="2.10215">
        <ele>86.6</ele>
        <time>2023-12-20T13:59:52Z</time>
      </trkpt>
      <trkpt lat="48.57818" lon="2.10218">
        <ele>86.6</ele>
        <time>2023-12-20T13:59:53Z</time>
      </trkpt>
      <trkpt lat="48.57824" lon="2.10222">
        <ele>86.6</ele>
        <time>2023-12-20T13:59:54Z</time>
      </trkpt>
      <trkpt lat="48.5783" lon="2.10225">
        <ele>86.4</ele>
        <time>2023-12-20T13:59:55Z</time>
      </trkpt>
      <trkpt lat="48.57836" lon="2.10229">
        <ele>86.4</ele>
        <time>2023-12-20T13:59:56Z</time>
      </trkpt>
      <trkpt lat="48.57842" lon="2.10232">
        <ele>86.4</ele>
        <time>2023-12-20T13:59:57Z</time>
      </trkpt>
      <trkpt lat="48.57847" lon="2.10235">
        <ele>86.8</ele>
        <time>2023-12-20T13:59:58Z</time>
      </trkpt>
      <trkpt lat="48.57853" lon="2.10239">
        <ele>86.4</ele>
        <time>2023-12-20T13:59:59Z</time>
      </trkpt>
      <trkpt lat="48.57859" lon="2.10242">
        <ele>86.4</ele>
        <time>2023-12-20T14:00:00Z</time>
      </trkpt>
      <trkpt lat="48.57865" lon="2.10245">
        <ele>86.4</ele>
        <time>2023-12-20T14:00:01Z</time>
      </trkpt>
      <trkpt lat="48.5787" lon="2.10249">
        <ele>86.4</ele>
        <time>2023-12-20T14:00:02Z</time>
      </trkpt>
      <trkpt lat="48.57876" lon="2.10253">
        <ele>86.4</ele>
        <time>2023-12-20T14:00:03Z</time>
      </trkpt>
      <trkpt lat="48.57882" lon="2.10256">
        <ele>86.4</ele>
        <time>2023-12-20T14:00:04Z</time>
      </trkpt>
      <trkpt lat="48.57888" lon="2.1026">
        <ele>86.4</ele>
        <time>2023-12-20T14:00:05Z</time>
      </trkpt>
      <trkpt lat="48.57894" lon="2.10263">
        <ele>86</ele>
        <time>2023-12-20T14:00:06Z</time>
      </trkpt>
      <trkpt lat="48.57901" lon="2.10267">
        <ele>86</ele>
        <time>2023-12-20T14:00:07Z</time>
      </trkpt>
      <trkpt lat="48.57907" lon="2.10271">
        <ele>86</ele>
        <time>2023-12-20T14:00:08Z</time>
      </trkpt>
      <trkpt lat="48.57913" lon="2.10275">
        <ele>86</ele>
        <time>2023-12-20T14:00:09Z</time>
      </trkpt>
      <trkpt lat="48.5792" lon="2.10279">
        <ele>85</ele>
        <time>2023-12-20T14:00:10Z</time>
      </trkpt>
      <trkpt lat="48.57926" lon="2.10283">
        <ele>84.2</ele>
        <time>2023-12-20T14:00:11Z</time>
      </trkpt>
      <trkpt lat="48.57933" lon="2.10286">
        <ele>84.2</ele>
        <time>2023-12-20T14:00:12Z</time>
      </trkpt>
      <trkpt lat="48.5794" lon="2.1029">
        <ele>84.2</ele>
        <time>2023-12-20T14:00:13Z</time>
      </trkpt>
      <trkpt lat="48.57947" lon="2.10294">
        <ele>84.2</ele>
        <time>2023-12-20T14:00:14Z</time>
      </trkpt>
      <trkpt lat="48.57954" lon="2.10298">
        <ele>83.4</ele>
        <time>2023-12-20T14:00:15Z</time>
      </trkpt>
      <trkpt lat="48.57961" lon="2.10302">
        <ele>83.4</ele>
        <time>2023-12-20T14:00:16Z</time>
      </trkpt>
      <trkpt lat="48.57968" lon="2.10306">
        <ele>83.4</ele>
        <time>2023-12-20T14:00:17Z</time>
      </trkpt>
      <trkpt lat="48.57975" lon="2.1031">
        <ele>82.8</ele>
        <time>2023-12-20T14:00:18Z</time>
      </trkpt>
      <trkpt lat="48.57982" lon="2.10315">
        <ele>82.6</ele>
        <time>2023-12-20T14:00:19Z</time>
      </trkpt>
      <trkpt lat="48.57989" lon="2.10319">
        <ele>82.6</ele>
        <time>2023-12-20T14:00:20Z</time>
      </trkpt>
      <trkpt lat="48.57996" lon="2.10324">
        <ele>82.6</ele>
        <time>2023-12-20T14:00:21Z</time>
      </trkpt>
      <trkpt lat="48.58004" lon="2.10328">
        <ele>82.6</ele>
        <time>2023-12-20T14:00:22Z</time>
      </trkpt>
      <trkpt lat="48.58011" lon="2.10332">
        <ele>81.6</ele>
        <time>2023-12-20T14:00:23Z</time>
      </trkpt>
      <trkpt lat="48.58019" lon="2.10337">
        <ele>81.6</ele>
        <time>2023-12-20T14:00:24Z</time>
      </trkpt>
      <trkpt lat="48.58026" lon="2.10341">
        <ele>81.6</ele>
        <time>2023-12-20T14:00:25Z</time>
      </trkpt>
      <trkpt lat="48.58034" lon="2.10345">
        <ele>82.2</ele>
        <time>2023-12-20T14:00:26Z</time>
      </trkpt>
      <trkpt lat="48.58041" lon="2.1035">
        <ele>81.4</ele>
        <time>2023-12-20T14:00:27Z</time>
      </trkpt>
      <trkpt lat="48.58049" lon="2.10354">
        <ele>81.4</ele>
        <time>2023-12-20T14:00:28Z</time>
      </trkpt>
      <trkpt lat="48.58057" lon="2.10359">
        <ele>81.4</ele>
        <time>2023-12-20T14:00:29Z</time>
      </trkpt>
      <trkpt lat="48.58065" lon="2.10363">
        <ele>81.4</ele>
        <time>2023-12-20T14:00:30Z</time>
      </trkpt>
      <trkpt lat="48.58072" lon="2.10368">
        <ele>80.6</ele>
        <time>2023-12-20T14:00:31Z</time>
      </trkpt>
      <trkpt lat="48.5808" lon="2.10373">
        <ele>80.6</ele>
        <time>2023-12-20T14:00:32Z</time>
      </trkpt>
      <trkpt lat="48.58088" lon="2.10377">
        <ele>80.6</ele>
        <time>2023-12-20T14:00:33Z</time>
      </trkpt>
      <trkpt lat="48.58096" lon="2.10381">
        <ele>80.8</ele>
        <time>2023-12-20T14:00:34Z</time>
      </trkpt>
      <trkpt lat="48.58103" lon="2.10386">
        <ele>81.4</ele>
        <time>2023-12-20T14:00:35Z</time>
      </trkpt>
      <trkpt lat="48.58111" lon="2.1039">
        <ele>81.4</ele>
        <time>2023-12-20T14:00:36Z</time>
      </trkpt>
      <trkpt lat="48.58119" lon="2.10395">
        <ele>81.4</ele>
        <time>2023-12-20T14:00:37Z</time>
      </trkpt>
      <trkpt lat="48.58126" lon="2.10399">
        <ele>81.4</ele>
        <time>2023-12-20T14:00:38Z</time>
      </trkpt>
      <trkpt lat="48.58133" lon="2.10403">
        <ele>80.8</ele>
        <time>2023-12-20T14:00:39Z</time>
      </trkpt>
      <trkpt lat="48.5814" lon="2.10408">
        <ele>80.8</ele>
        <time>2023-12-20T14:00:40Z</time>
      </trkpt>
      <trkpt lat="48.58147" lon="2.10411">
        <ele>80.8</ele>
        <time>2023-12-20T14:00:41Z</time>
      </trkpt>
      <trkpt lat="48.58153" lon="2.10415">
        <ele>81.8</ele>
        <time>2023-12-20T14:00:42Z</time>
      </trkpt>
      <trkpt lat="48.5816" lon="2.10419">
        <ele>83.2</ele>
        <time>2023-12-20T14:00:43Z</time>
      </trkpt>
      <trkpt lat="48.58166" lon="2.10423">
        <ele>83.2</ele>
        <time>2023-12-20T14:00:44Z</time>
      </trkpt>
      <trkpt lat="48.58172" lon="2.10426">
        <ele>83.2</ele>
        <time>2023-12-20T14:00:45Z</time>
      </trkpt>
      <trkpt lat="48.58178" lon="2.10429">
        <ele>84.2</ele>
        <time>2023-12-20T14:00:46Z</time>
      </trkpt>
      <trkpt lat="48.58184" lon="2.10432">
        <ele>85</ele>
        <time>2023-12-20T14:00:47Z</time>
      </trkpt>
      <trkpt lat="48.5819" lon="2.10435">
        <ele>85</ele>
        <time>2023-12-20T14:00:48Z</time>
      </trkpt>
      <trkpt lat="48.58196" lon="2.10439">
        <ele>85</ele>
        <time>2023-12-20T14:00:49Z</time>
      </trkpt>
      <trkpt lat="48.58202" lon="2.10442">
        <ele>85</ele>
        <time>2023-12-20T14:00:50Z</time>
      </trkpt>
      <trkpt lat="48.58207" lon="2.10446">
        <ele>86</ele>
        <time>2023-12-20T14:00:51Z</time>
      </trkpt>
      <trkpt lat="48.58213" lon="2.10449">
        <ele>86</ele>
        <time>2023-12-20T14:00:52Z</time>
      </trkpt>
      <trkpt lat="48.58219" lon="2.10453">
        <ele>86</ele>
        <time>2023-12-20T14:00:53Z</time>
      </trkpt>
      <trkpt lat="48.58224" lon="2.10456">
        <ele>86</ele>
        <time>2023-12-20T14:00:54Z</time>
      </trkpt>
      <trkpt lat="48.5823" lon="2.1046">
        <ele>85.8</ele>
        <time>2023-12-20T14:00:55Z</time>
      </trkpt>
      <trkpt lat="48.58236" lon="2.10463">
        <ele>85.8</ele>
        <time>2023-12-20T14:00:56Z</time>
      </trkpt>
      <trkpt lat="48.58242" lon="2.10466">
        <ele>85.8</ele>
        <time>2023-12-20T14:00:57Z</time>
      </trkpt>
      <trkpt lat="48.58247" lon="2.10469">
        <ele>86.6</ele>
        <time>2023-12-20T14:00:58Z</time>
      </trkpt>
      <trkpt lat="48.58253" lon="2.10473">
        <ele>86.8</ele>
        <time>2023-12-20T14:00:59Z</time>
      </trkpt>
      <trkpt lat="48.58259" lon="2.10476">
        <ele>86.8</ele>
        <time>2023-12-20T14:01:00Z</time>
      </trkpt>
      <trkpt lat="48.58264" lon="2.10479">
        <ele>86.8</ele>
        <time>2023-12-20T14:01:01Z</time>
      </trkpt>
      <trkpt lat="48.5827" lon="2.10483">
        <ele>87.6</ele>
        <time>2023-12-20T14:01:02Z</time>
      </trkpt>
      <trkpt lat="48.58275" lon="2.10486">
        <ele>87</ele>
        <time>2023-12-20T14:01:03Z</time>
      </trkpt>
      <trkpt lat="48.58281" lon="2.10489">
        <ele>87</ele>
        <time>2023-12-20T14:01:04Z</time>
      </trkpt>
      <trkpt lat="48.58287" lon="2.10493">
        <ele>87</ele>
        <time>2023-12-20T14:01:05Z</time>
      </trkpt>
      <trkpt lat="48.58292" lon="2.10496">
        <ele>87</ele>
        <time>2023-12-20T14:01:06Z</time>
      </trkpt>
      <trkpt lat="48.58297" lon="2.10499">
        <ele>87.2</ele>
        <time>2023-12-20T14:01:07Z</time>
      </trkpt>
      <trkpt lat="48.58303" lon="2.10502">
        <ele>87.2</ele>
        <time>2023-12-20T14:01:08Z</time>
      </trkpt>
      <trkpt lat="48.58308" lon="2.10506">
        <ele>87.2</ele>
        <time>2023-12-20T14:01:09Z</time>
      </trkpt>
      <trkpt lat="48.58314" lon="2.10509">
        <ele>87.8</ele>
        <time>2023-12-20T14:01:10Z</time>
      </trkpt>
      <trkpt lat="48.5832" lon="2.10512">
        <ele>87.6</ele>
        <time>2023-12-20T14:01:11Z</time>
      </trkpt>
      <trkpt lat="48.58325" lon="2.10515">
        <ele>87.6</ele>
        <time>2023-12-20T14:01:12Z</time>
      </trkpt>
      <trkpt lat="48.58331" lon="2.10519">
        <ele>87.6</ele>
        <time>2023-12-20T14:01:13Z</time>
      </trkpt>
      <trkpt lat="48.58337" lon="2.10522">
        <ele>87.2</ele>
        <time>2023-12-20T14:01:14Z</time>
      </trkpt>
      <trkpt lat="48.58342" lon="2.10525">
        <ele>87.2</ele>
        <time>2023-12-20T14:01:15Z</time>
      </trkpt>
      <trkpt lat="48.58348" lon="2.10529">
        <ele>87.2</ele>
        <time>2023-12-20T14:01:16Z</time>
      </trkpt>
      <trkpt lat="48.58354" lon="2.10532">
        <ele>87.2</ele>
        <time>2023-12-20T14:01:17Z</time>
      </trkpt>
      <trkpt lat="48.5836" lon="2.10535">
        <ele>88</ele>
        <time>2023-12-20T14:01:18Z</time>
      </trkpt>
      <trkpt lat="48.58365" lon="2.10539">
        <ele>87.6</ele>
        <time>2023-12-20T14:01:19Z</time>
      </trkpt>
      <trkpt lat="48.58371" lon="2.10542">
        <ele>87.6</ele>
        <time>2023-12-20T14:01:20Z</time>
      </trkpt>
      <trkpt lat="48.58377" lon="2.10546">
        <ele>87.6</ele>
        <time>2023-12-20T14:01:21Z</time>
      </trkpt>
      <trkpt lat="48.58383" lon="2.10549">
        <ele>87.4</ele>
        <time>2023-12-20T14:01:22Z</time>
      </trkpt>
      <trkpt lat="48.58389" lon="2.10552">
        <ele>88</ele>
        <time>2023-12-20T14:01:23Z</time>
      </trkpt>
      <trkpt lat="48.58395" lon="2.10555">
        <ele>88</ele>
        <time>2023-12-20T14:01:24Z</time>
      </trkpt>
      <trkpt lat="48.58401" lon="2.10559">
        <ele>88</ele>
        <time>2023-12-20T14:01:25Z</time>
      </trkpt>
      <trkpt lat="48.58407" lon="2.10563">
        <ele>87.4</ele>
        <time>2023-12-20T14:01:26Z</time>
      </trkpt>
      <trkpt lat="48.58413" lon="2.10566">
        <ele>87.8</ele>
        <time>2023-12-20T14:01:27Z</time>
      </trkpt>
      <trkpt lat="48.58419" lon="2.1057">
        <ele>87.8</ele>
        <time>2023-12-20T14:01:28Z</time>
      </trkpt>
      <trkpt lat="48.58425" lon="2.10574">
        <ele>87.8</ele>
        <time>2023-12-20T14:01:29Z</time>
      </trkpt>
      <trkpt lat="48.58431" lon="2.10578">
        <ele>87.6</ele>
        <time>2023-12-20T14:01:30Z</time>
      </trkpt>
      <trkpt lat="48.58437" lon="2.10582">
        <ele>87.6</ele>
        <time>2023-12-20T14:01:31Z</time>
      </trkpt>
      <trkpt lat="48.58444" lon="2.10585">
        <ele>87.6</ele>
        <time>2023-12-20T14:01:32Z</time>
      </trkpt>
      <trkpt lat="48.5845" lon="2.10589">
        <ele>87.6</ele>
        <time>2023-12-20T14:01:33Z</time>
      </trkpt>
      <trkpt lat="48.58456" lon="2.10593">
        <ele>87.6</ele>
        <time>2023-12-20T14:01:34Z</time>
      </trkpt>
      <trkpt lat="48.58463" lon="2.10596">
        <ele>86.8</ele>
        <time>2023-12-20T14:01:35Z</time>
      </trkpt>
      <trkpt lat="48.58469" lon="2.106">
        <ele>86.8</ele>
        <time>2023-12-20T14:01:36Z</time>
      </trkpt>
      <trkpt lat="48.58476" lon="2.10604">
        <ele>86.8</ele>
        <time>2023-12-20T14:01:37Z</time>
      </trkpt>
      <trkpt lat="48.58482" lon="2.10607">
        <ele>87.8</ele>
        <time>2023-12-20T14:01:38Z</time>
      </trkpt>
      <trkpt lat="48.58488" lon="2.10611">
        <ele>87.6</ele>
        <time>2023-12-20T14:01:39Z</time>
      </trkpt>
      <trkpt lat="48.58494" lon="2.10615">
        <ele>87.6</ele>
        <time>2023-12-20T14:01:40Z</time>
      </trkpt>
      <trkpt lat="48.58501" lon="2.10618">
        <ele>87.6</ele>
        <time>2023-12-20T14:01:41Z</time>
      </trkpt>
      <trkpt lat="48.58507" lon="2.10622">
        <ele>87.6</ele>
        <time>2023-12-20T14:01:42Z</time>
      </trkpt>
      <trkpt lat="48.58514" lon="2.10626">
        <ele>87.8</ele>
        <time>2023-12-20T14:01:43Z</time>
      </trkpt>
      <trkpt lat="48.5852" lon="2.10629">
        <ele>87.8</ele>
        <time>2023-12-20T14:01:44Z</time>
      </trkpt>
      <trkpt lat="48.58526" lon="2.10633">
        <ele>87.8</ele>
        <time>2023-12-20T14:01:45Z</time>
      </trkpt>
      <trkpt lat="48.58532" lon="2.10636">
        <ele>88.8</ele>
        <time>2023-12-20T14:01:46Z</time>
      </trkpt>
      <trkpt lat="48.58539" lon="2.1064">
        <ele>88.4</ele>
        <time>2023-12-20T14:01:47Z</time>
      </trkpt>
      <trkpt lat="48.58545" lon="2.10644">
        <ele>88.4</ele>
        <time>2023-12-20T14:01:48Z</time>
      </trkpt>
      <trkpt lat="48.58551" lon="2.10648">
        <ele>88.4</ele>
        <time>2023-12-20T14:01:49Z</time>
      </trkpt>
      <trkpt lat="48.58557" lon="2.10651">
        <ele>88.4</ele>
        <time>2023-12-20T14:01:50Z</time>
      </trkpt>
      <trkpt lat="48.58564" lon="2.10655">
        <ele>88.2</ele>
        <time>2023-12-20T14:01:51Z</time>
      </trkpt>
      <trkpt lat="48.5857" lon="2.10659">
        <ele>88.2</ele>
        <time>2023-12-20T14:01:52Z</time>
      </trkpt>
      <trkpt lat="48.58576" lon="2.10663">
        <ele>88.2</ele>
        <time>2023-12-20T14:01:53Z</time>
      </trkpt>
      <trkpt lat="48.58583" lon="2.10666">
        <ele>87.8</ele>
        <time>2023-12-20T14:01:54Z</time>
      </trkpt>
      <trkpt lat="48.58589" lon="2.1067">
        <ele>87.8</ele>
        <time>2023-12-20T14:01:55Z</time>
      </trkpt>
      <trkpt lat="48.58595" lon="2.10674">
        <ele>87.8</ele>
        <time>2023-12-20T14:01:56Z</time>
      </trkpt>
      <trkpt lat="48.58602" lon="2.10678">
        <ele>87.8</ele>
        <time>2023-12-20T14:01:57Z</time>
      </trkpt>
      <trkpt lat="48.58608" lon="2.10682">
        <ele>88</ele>
        <time>2023-12-20T14:01:58Z</time>
      </trkpt>
      <trkpt lat="48.58614" lon="2.10686">
        <ele>88.4</ele>
        <time>2023-12-20T14:01:59Z</time>
      </trkpt>
      <trkpt lat="48.58621" lon="2.1069">
        <ele>88.4</ele>
        <time>2023-12-20T14:02:00Z</time>
      </trkpt>
      <trkpt lat="48.58627" lon="2.10694">
        <ele>88.4</ele>
        <time>2023-12-20T14:02:01Z</time>
      </trkpt>
      <trkpt lat="48.58634" lon="2.10698">
        <ele>89.2</ele>
        <time>2023-12-20T14:02:02Z</time>
      </trkpt>
      <trkpt lat="48.5864" lon="2.10702">
        <ele>89</ele>
        <time>2023-12-20T14:02:03Z</time>
      </trkpt>
      <trkpt lat="48.58646" lon="2.10707">
        <ele>89</ele>
        <time>2023-12-20T14:02:04Z</time>
      </trkpt>
      <trkpt lat="48.58653" lon="2.10711">
        <ele>89</ele>
        <time>2023-12-20T14:02:05Z</time>
      </trkpt>
      <trkpt lat="48.58659" lon="2.10715">
        <ele>88.8</ele>
        <time>2023-12-20T14:02:06Z</time>
      </trkpt>
      <trkpt lat="48.58666" lon="2.1072">
        <ele>89.2</ele>
        <time>2023-12-20T14:02:07Z</time>
      </trkpt>
      <trkpt lat="48.58672" lon="2.10724">
        <ele>89.2</ele>
        <time>2023-12-20T14:02:08Z</time>
      </trkpt>
      <trkpt lat="48.58678" lon="2.10729">
        <ele>89.2</ele>
        <time>2023-12-20T14:02:09Z</time>
      </trkpt>
      <trkpt lat="48.58685" lon="2.10733">
        <ele>88.4</ele>
        <time>2023-12-20T14:02:10Z</time>
      </trkpt>
      <trkpt lat="48.58691" lon="2.10738">
        <ele>89.4</ele>
        <time>2023-12-20T14:02:11Z</time>
      </trkpt>
      <trkpt lat="48.58698" lon="2.10742">
        <ele>89.4</ele>
        <time>2023-12-20T14:02:12Z</time>
      </trkpt>
      <trkpt lat="48.58705" lon="2.10747">
        <ele>89.4</ele>
        <time>2023-12-20T14:02:13Z</time>
      </trkpt>
      <trkpt lat="48.58711" lon="2.10751">
        <ele>89.2</ele>
        <time>2023-12-20T14:02:14Z</time>
      </trkpt>
      <trkpt lat="48.58718" lon="2.10756">
        <ele>89.4</ele>
        <time>2023-12-20T14:02:15Z</time>
      </trkpt>
      <trkpt lat="48.58724" lon="2.1076">
        <ele>89.4</ele>
        <time>2023-12-20T14:02:16Z</time>
      </trkpt>
      <trkpt lat="48.58731" lon="2.10765">
        <ele>89.4</ele>
        <time>2023-12-20T14:02:17Z</time>
      </trkpt>
      <trkpt lat="48.58737" lon="2.10769">
        <ele>89.4</ele>
        <time>2023-12-20T14:02:18Z</time>
      </trkpt>
      <trkpt lat="48.58744" lon="2.10773">
        <ele>89.2</ele>
        <time>2023-12-20T14:02:19Z</time>
      </trkpt>
      <trkpt lat="48.5875" lon="2.10778">
        <ele>89.2</ele>
        <time>2023-12-20T14:02:20Z</time>
      </trkpt>
      <trkpt lat="48.58757" lon="2.10782">
        <ele>89.2</ele>
        <time>2023-12-20T14:02:21Z</time>
      </trkpt>
      <trkpt lat="48.58763" lon="2.10787">
        <ele>89.6</ele>
        <time>2023-12-20T14:02:22Z</time>
      </trkpt>
      <trkpt lat="48.58769" lon="2.10791">
        <ele>89.2</ele>
        <time>2023-12-20T14:02:23Z</time>
      </trkpt>
      <trkpt lat="48.58776" lon="2.10796">
        <ele>89.2</ele>
        <time>2023-12-20T14:02:24Z</time>
      </trkpt>
      <trkpt lat="48.58782" lon="2.108">
        <ele>89.2</ele>
        <time>2023-12-20T14:02:25Z</time>
      </trkpt>
      <trkpt lat="48.58789" lon="2.10805">
        <ele>89.8</ele>
        <time>2023-12-20T14:02:26Z</time>
      </trkpt>
      <trkpt lat="48.58795" lon="2.10809">
        <ele>89.2</ele>
        <time>2023-12-20T14:02:27Z</time>
      </trkpt>
      <trkpt lat="48.58802" lon="2.10813">
        <ele>89.2</ele>
        <time>2023-12-20T14:02:28Z</time>
      </trkpt>
      <trkpt lat="48.58809" lon="2.10818">
        <ele>89.2</ele>
        <time>2023-12-20T14:02:29Z</time>
      </trkpt>
      <trkpt lat="48.58815" lon="2.10823">
        <ele>90.2</ele>
        <time>2023-12-20T14:02:30Z</time>
      </trkpt>
      <trkpt lat="48.58822" lon="2.10827">
        <ele>90.2</ele>
        <time>2023-12-20T14:02:31Z</time>
      </trkpt>
      <trkpt lat="48.58828" lon="2.10832">
        <ele>90.2</ele>
        <time>2023-12-20T14:02:32Z</time>
      </trkpt>
      <trkpt lat="48.58835" lon="2.10837">
        <ele>90.2</ele>
        <time>2023-12-20T14:02:33Z</time>
      </trkpt>
      <trkpt lat="48.58842" lon="2.10842">
        <ele>89.2</ele>
        <time>2023-12-20T14:02:34Z</time>
      </trkpt>
      <trkpt lat="48.58849" lon="2.10846">
        <ele>88.4</ele>
        <time>2023-12-20T14:02:35Z</time>
      </trkpt>
      <trkpt lat="48.58856" lon="2.10851">
        <ele>88.4</ele>
        <time>2023-12-20T14:02:36Z</time>
      </trkpt>
      <trkpt lat="48.58862" lon="2.10856">
        <ele>88.4</ele>
        <time>2023-12-20T14:02:37Z</time>
      </trkpt>
      <trkpt lat="48.58869" lon="2.1086">
        <ele>88.4</ele>
        <time>2023-12-20T14:02:38Z</time>
      </trkpt>
      <trkpt lat="48.58876" lon="2.10864">
        <ele>88.4</ele>
        <time>2023-12-20T14:02:39Z</time>
      </trkpt>
      <trkpt lat="48.58883" lon="2.10869">
        <ele>88.4</ele>
        <time>2023-12-20T14:02:40Z</time>
      </trkpt>
      <trkpt lat="48.5889" lon="2.10873">
        <ele>88.4</ele>
        <time>2023-12-20T14:02:41Z</time>
      </trkpt>
      <trkpt lat="48.58897" lon="2.10878">
        <ele>89.4</ele>
        <time>2023-12-20T14:02:42Z</time>
      </trkpt>
      <trkpt lat="48.58904" lon="2.10883">
        <ele>88.4</ele>
        <time>2023-12-20T14:02:43Z</time>
      </trkpt>
      <trkpt lat="48.58912" lon="2.10887">
        <ele>88.4</ele>
        <time>2023-12-20T14:02:44Z</time>
      </trkpt>
      <trkpt lat="48.58919" lon="2.10892">
        <ele>88.4</ele>
        <time>2023-12-20T14:02:45Z</time>
      </trkpt>
      <trkpt lat="48.58926" lon="2.10897">
        <ele>88.4</ele>
        <time>2023-12-20T14:02:46Z</time>
      </trkpt>
      <trkpt lat="48.58933" lon="2.10902">
        <ele>87.8</ele>
        <time>2023-12-20T14:02:47Z</time>
      </trkpt>
      <trkpt lat="48.5894" lon="2.10908">
        <ele>87.8</ele>
        <time>2023-12-20T14:02:48Z</time>
      </trkpt>
      <trkpt lat="48.58948" lon="2.10912">
        <ele>87.8</ele>
        <time>2023-12-20T14:02:49Z</time>
      </trkpt>
      <trkpt lat="48.58955" lon="2.10918">
        <ele>87.2</ele>
        <time>2023-12-20T14:02:50Z</time>
      </trkpt>
      <trkpt lat="48.58962" lon="2.10923">
        <ele>87.2</ele>
        <time>2023-12-20T14:02:51Z</time>
      </trkpt>
      <trkpt lat="48.58969" lon="2.10928">
        <ele>87.2</ele>
        <time>2023-12-20T14:02:52Z</time>
      </trkpt>
      <trkpt lat="48.58976" lon="2.10933">
        <ele>87.2</ele>
        <time>2023-12-20T14:02:53Z</time>
      </trkpt>
      <trkpt lat="48.58983" lon="2.10938">
        <ele>87.2</ele>
        <time>2023-12-20T14:02:54Z</time>
      </trkpt>
      <trkpt lat="48.5899" lon="2.10943">
        <ele>87.8</ele>
        <time>2023-12-20T14:02:55Z</time>
      </trkpt>
      <trkpt lat="48.58997" lon="2.10947">
        <ele>87.8</ele>
        <time>2023-12-20T14:02:56Z</time>
      </trkpt>
      <trkpt lat="48.59004" lon="2.10952">
        <ele>87.8</ele>
        <time>2023-12-20T14:02:57Z</time>
      </trkpt>
      <trkpt lat="48.5901" lon="2.10956">
        <ele>88.2</ele>
        <time>2023-12-20T14:02:58Z</time>
      </trkpt>
      <trkpt lat="48.59017" lon="2.10961">
        <ele>88.8</ele>
        <time>2023-12-20T14:02:59Z</time>
      </trkpt>
      <trkpt lat="48.59022" lon="2.10965">
        <ele>88.8</ele>
        <time>2023-12-20T14:03:00Z</time>
      </trkpt>
      <trkpt lat="48.59028" lon="2.10969">
        <ele>88.8</ele>
        <time>2023-12-20T14:03:01Z</time>
      </trkpt>
      <trkpt lat="48.59034" lon="2.10973">
        <ele>89.8</ele>
        <time>2023-12-20T14:03:02Z</time>
      </trkpt>
      <trkpt lat="48.59039" lon="2.10976">
        <ele>91.2</ele>
        <time>2023-12-20T14:03:03Z</time>
      </trkpt>
      <trkpt lat="48.59044" lon="2.1098">
        <ele>91.2</ele>
        <time>2023-12-20T14:03:04Z</time>
      </trkpt>
      <trkpt lat="48.59049" lon="2.10983">
        <ele>91.2</ele>
        <time>2023-12-20T14:03:05Z</time>
      </trkpt>
      <trkpt lat="48.59053" lon="2.10986">
        <ele>91.4</ele>
        <time>2023-12-20T14:03:06Z</time>
      </trkpt>
      <trkpt lat="48.59057" lon="2.10989">
        <ele>92</ele>
        <time>2023-12-20T14:03:07Z</time>
      </trkpt>
      <trkpt lat="48.59061" lon="2.10992">
        <ele>92</ele>
        <time>2023-12-20T14:03:08Z</time>
      </trkpt>
      <trkpt lat="48.59065" lon="2.10995">
        <ele>92</ele>
        <time>2023-12-20T14:03:09Z</time>
      </trkpt>
      <trkpt lat="48.59069" lon="2.10998">
        <ele>93</ele>
        <time>2023-12-20T14:03:10Z</time>
      </trkpt>
      <trkpt lat="48.59073" lon="2.11001">
        <ele>93.8</ele>
        <time>2023-12-20T14:03:11Z</time>
      </trkpt>
      <trkpt lat="48.59077" lon="2.11004">
        <ele>93.8</ele>
        <time>2023-12-20T14:03:12Z</time>
      </trkpt>
      <trkpt lat="48.59081" lon="2.11007">
        <ele>93.8</ele>
        <time>2023-12-20T14:03:13Z</time>
      </trkpt>
      <trkpt lat="48.59085" lon="2.11009">
        <ele>93.8</ele>
        <time>2023-12-20T14:03:14Z</time>
      </trkpt>
      <trkpt lat="48.5909" lon="2.11012">
        <ele>94</ele>
        <time>2023-12-20T14:03:15Z</time>
      </trkpt>
      <trkpt lat="48.59094" lon="2.11015">
        <ele>94</ele>
        <time>2023-12-20T14:03:16Z</time>
      </trkpt>
      <trkpt lat="48.59098" lon="2.11018">
        <ele>94</ele>
        <time>2023-12-20T14:03:17Z</time>
      </trkpt>
      <trkpt lat="48.59102" lon="2.11021">
        <ele>95</ele>
        <time>2023-12-20T14:03:18Z</time>
      </trkpt>
      <trkpt lat="48.59107" lon="2.11024">
        <ele>95.6</ele>
        <time>2023-12-20T14:03:19Z</time>
      </trkpt>
      <trkpt lat="48.59111" lon="2.11027">
        <ele>95.6</ele>
        <time>2023-12-20T14:03:20Z</time>
      </trkpt>
      <trkpt lat="48.59115" lon="2.1103">
        <ele>95.6</ele>
        <time>2023-12-20T14:03:21Z</time>
      </trkpt>
      <trkpt lat="48.5912" lon="2.11033">
        <ele>96.6</ele>
        <time>2023-12-20T14:03:22Z</time>
      </trkpt>
      <trkpt lat="48.59124" lon="2.11035">
        <ele>97.4</ele>
        <time>2023-12-20T14:03:23Z</time>
      </trkpt>
      <trkpt lat="48.59128" lon="2.11039">
        <ele>97.4</ele>
        <time>2023-12-20T14:03:24Z</time>
      </trkpt>
      <trkpt lat="48.59133" lon="2.11042">
        <ele>97.4</ele>
        <time>2023-12-20T14:03:25Z</time>
      </trkpt>
      <trkpt lat="48.59137" lon="2.11045">
        <ele>97.4</ele>
        <time>2023-12-20T14:03:26Z</time>
      </trkpt>
      <trkpt lat="48.59141" lon="2.11048">
        <ele>98.4</ele>
        <time>2023-12-20T14:03:27Z</time>
      </trkpt>
      <trkpt lat="48.59146" lon="2.11051">
        <ele>98.4</ele>
        <time>2023-12-20T14:03:28Z</time>
      </trkpt>
      <trkpt lat="48.5915" lon="2.11054">
        <ele>98.4</ele>
        <time>2023-12-20T14:03:29Z</time>
      </trkpt>
      <trkpt lat="48.59153" lon="2.11058">
        <ele>98.4</ele>
        <time>2023-12-20T14:03:30Z</time>
      </trkpt>
      <trkpt lat="48.59156" lon="2.11062">
        <ele>99.8</ele>
        <time>2023-12-20T14:03:31Z</time>
      </trkpt>
      <trkpt lat="48.5916" lon="2.11067">
        <ele>99.8</ele>
        <time>2023-12-20T14:03:32Z</time>
      </trkpt>
      <trkpt lat="48.59163" lon="2.11073">
        <ele>99.8</ele>
        <time>2023-12-20T14:03:33Z</time>
      </trkpt>
      <trkpt lat="48.59167" lon="2.11079">
        <ele>99.8</ele>
        <time>2023-12-20T14:03:34Z</time>
      </trkpt>
      <trkpt lat="48.59171" lon="2.11084">
        <ele>100.2</ele>
        <time>2023-12-20T14:03:35Z</time>
      </trkpt>
      <trkpt lat="48.59174" lon="2.1109">
        <ele>100.2</ele>
        <time>2023-12-20T14:03:36Z</time>
      </trkpt>
      <trkpt lat="48.59177" lon="2.11097">
        <ele>100.2</ele>
        <time>2023-12-20T14:03:37Z</time>
      </trkpt>
      <trkpt lat="48.5918" lon="2.11103">
        <ele>100.2</ele>
        <time>2023-12-20T14:03:38Z</time>
      </trkpt>
      <trkpt lat="48.59183" lon="2.11109">
        <ele>99.8</ele>
        <time>2023-12-20T14:03:39Z</time>
      </trkpt>
      <trkpt lat="48.59187" lon="2.11115">
        <ele>99.8</ele>
        <time>2023-12-20T14:03:40Z</time>
      </trkpt>
      <trkpt lat="48.5919" lon="2.11122">
        <ele>99.8</ele>
        <time>2023-12-20T14:03:41Z</time>
      </trkpt>
      <trkpt lat="48.59193" lon="2.11128">
        <ele>100.8</ele>
        <time>2023-12-20T14:03:42Z</time>
      </trkpt>
      <trkpt lat="48.59196" lon="2.11135">
        <ele>100.6</ele>
        <time>2023-12-20T14:03:43Z</time>
      </trkpt>
      <trkpt lat="48.592" lon="2.11141">
        <ele>100.6</ele>
        <time>2023-12-20T14:03:44Z</time>
      </trkpt>
      <trkpt lat="48.59203" lon="2.11148">
        <ele>100.6</ele>
        <time>2023-12-20T14:03:45Z</time>
      </trkpt>
      <trkpt lat="48.59206" lon="2.11154">
        <ele>101.6</ele>
        <time>2023-12-20T14:03:46Z</time>
      </trkpt>
      <trkpt lat="48.5921" lon="2.1116">
        <ele>101.4</ele>
        <time>2023-12-20T14:03:47Z</time>
      </trkpt>
      <trkpt lat="48.59213" lon="2.11167">
        <ele>101.4</ele>
        <time>2023-12-20T14:03:48Z</time>
      </trkpt>
      <trkpt lat="48.59216" lon="2.11173">
        <ele>101.4</ele>
        <time>2023-12-20T14:03:49Z</time>
      </trkpt>
      <trkpt lat="48.59219" lon="2.11179">
        <ele>101.4</ele>
        <time>2023-12-20T14:03:50Z</time>
      </trkpt>
      <trkpt lat="48.59223" lon="2.11185">
        <ele>101.8</ele>
        <time>2023-12-20T14:03:51Z</time>
      </trkpt>
      <trkpt lat="48.59226" lon="2.11191">
        <ele>101.8</ele>
        <time>2023-12-20T14:03:52Z</time>
      </trkpt>
      <trkpt lat="48.5923" lon="2.11197">
        <ele>101.8</ele>
        <time>2023-12-20T14:03:53Z</time>
      </trkpt>
      <trkpt lat="48.59233" lon="2.11203">
        <ele>100.8</ele>
        <time>2023-12-20T14:03:54Z</time>
      </trkpt>
      <trkpt lat="48.59237" lon="2.11209">
        <ele>101</ele>
        <time>2023-12-20T14:03:55Z</time>
      </trkpt>
      <trkpt lat="48.5924" lon="2.11215">
        <ele>101</ele>
        <time>2023-12-20T14:03:56Z</time>
      </trkpt>
      <trkpt lat="48.59244" lon="2.1122">
        <ele>101</ele>
        <time>2023-12-20T14:03:57Z</time>
      </trkpt>
      <trkpt lat="48.59247" lon="2.11225">
        <ele>101.8</ele>
        <time>2023-12-20T14:03:58Z</time>
      </trkpt>
      <trkpt lat="48.59251" lon="2.11231">
        <ele>102</ele>
        <time>2023-12-20T14:03:59Z</time>
      </trkpt>
      <trkpt lat="48.59254" lon="2.11236">
        <ele>102</ele>
        <time>2023-12-20T14:04:00Z</time>
      </trkpt>
      <trkpt lat="48.59258" lon="2.11241">
        <ele>102</ele>
        <time>2023-12-20T14:04:01Z</time>
      </trkpt>
      <trkpt lat="48.59262" lon="2.11247">
        <ele>102</ele>
        <time>2023-12-20T14:04:02Z</time>
      </trkpt>
      <trkpt lat="48.59266" lon="2.11252">
        <ele>102.8</ele>
        <time>2023-12-20T14:04:03Z</time>
      </trkpt>
      <trkpt lat="48.5927" lon="2.11257">
        <ele>102.8</ele>
        <time>2023-12-20T14:04:04Z</time>
      </trkpt>
      <trkpt lat="48.59275" lon="2.11262">
        <ele>102.8</ele>
        <time>2023-12-20T14:04:05Z</time>
      </trkpt>
      <trkpt lat="48.59279" lon="2.11267">
        <ele>102.8</ele>
        <time>2023-12-20T14:04:06Z</time>
      </trkpt>
      <trkpt lat="48.59283" lon="2.11272">
        <ele>102.4</ele>
        <time>2023-12-20T14:04:07Z</time>
      </trkpt>
      <trkpt lat="48.59287" lon="2.11277">
        <ele>102.4</ele>
        <time>2023-12-20T14:04:08Z</time>
      </trkpt>
      <trkpt lat="48.59292" lon="2.11283">
        <ele>102.4</ele>
        <time>2023-12-20T14:04:09Z</time>
      </trkpt>
      <trkpt lat="48.59296" lon="2.11288">
        <ele>102.8</ele>
        <time>2023-12-20T14:04:10Z</time>
      </trkpt>
      <trkpt lat="48.593" lon="2.11293">
        <ele>102.4</ele>
        <time>2023-12-20T14:04:11Z</time>
      </trkpt>
      <trkpt lat="48.59304" lon="2.11299">
        <ele>102.4</ele>
        <time>2023-12-20T14:04:12Z</time>
      </trkpt>
      <trkpt lat="48.59309" lon="2.11304">
        <ele>102.4</ele>
        <time>2023-12-20T14:04:13Z</time>
      </trkpt>
      <trkpt lat="48.59313" lon="2.1131">
        <ele>102.4</ele>
        <time>2023-12-20T14:04:14Z</time>
      </trkpt>
      <trkpt lat="48.59318" lon="2.11315">
        <ele>102.4</ele>
        <time>2023-12-20T14:04:15Z</time>
      </trkpt>
      <trkpt lat="48.59322" lon="2.1132">
        <ele>102.4</ele>
        <time>2023-12-20T14:04:16Z</time>
      </trkpt>
      <trkpt lat="48.59326" lon="2.11325">
        <ele>102.4</ele>
        <time>2023-12-20T14:04:17Z</time>
      </trkpt>
      <trkpt lat="48.59331" lon="2.11331">
        <ele>102.4</ele>
        <time>2023-12-20T14:04:18Z</time>
      </trkpt>
      <trkpt lat="48.59335" lon="2.11336">
        <ele>102.2</ele>
        <time>2023-12-20T14:04:19Z</time>
      </trkpt>
      <trkpt lat="48.5934" lon="2.11341">
        <ele>102.2</ele>
        <time>2023-12-20T14:04:20Z</time>
      </trkpt>
      <trkpt lat="48.59343" lon="2.11348">
        <ele>102.2</ele>
        <time>2023-12-20T14:04:21Z</time>
      </trkpt>
      <trkpt lat="48.59344" lon="2.11355">
        <ele>102.4</ele>
        <time>2023-12-20T14:04:22Z</time>
      </trkpt>
      <trkpt lat="48.59347" lon="2.11362">
        <ele>101.8</ele>
        <time>2023-12-20T14:04:23Z</time>
      </trkpt>
      <trkpt lat="48.5935" lon="2.11367">
        <ele>101.8</ele>
        <time>2023-12-20T14:04:24Z</time>
      </trkpt>
      <trkpt lat="48.59353" lon="2.11372">
        <ele>101.8</ele>
        <time>2023-12-20T14:04:25Z</time>
      </trkpt>
      <trkpt lat="48.59357" lon="2.11377">
        <ele>102.6</ele>
        <time>2023-12-20T14:04:26Z</time>
      </trkpt>
      <trkpt lat="48.59362" lon="2.11382">
        <ele>102.8</ele>
        <time>2023-12-20T14:04:27Z</time>
      </trkpt>
      <trkpt lat="48.59366" lon="2.11388">
        <ele>102.8</ele>
        <time>2023-12-20T14:04:28Z</time>
      </trkpt>
      <trkpt lat="48.5937" lon="2.11393">
        <ele>102.8</ele>
        <time>2023-12-20T14:04:29Z</time>
      </trkpt>
      <trkpt lat="48.59374" lon="2.11399">
        <ele>103.4</ele>
        <time>2023-12-20T14:04:30Z</time>
      </trkpt>
      <trkpt lat="48.59378" lon="2.11406">
        <ele>103.4</ele>
        <time>2023-12-20T14:04:31Z</time>
      </trkpt>
      <trkpt lat="48.59382" lon="2.11411">
        <ele>103.4</ele>
        <time>2023-12-20T14:04:32Z</time>
      </trkpt>
      <trkpt lat="48.59387" lon="2.11417">
        <ele>103.4</ele>
        <time>2023-12-20T14:04:33Z</time>
      </trkpt>
      <trkpt lat="48.59392" lon="2.11423">
        <ele>103.4</ele>
        <time>2023-12-20T14:04:34Z</time>
      </trkpt>
      <trkpt lat="48.59396" lon="2.1143">
        <ele>102.2</ele>
        <time>2023-12-20T14:04:35Z</time>
      </trkpt>
      <trkpt lat="48.59401" lon="2.11436">
        <ele>102.2</ele>
        <time>2023-12-20T14:04:36Z</time>
      </trkpt>
      <trkpt lat="48.59407" lon="2.11442">
        <ele>102.2</ele>
        <time>2023-12-20T14:04:37Z</time>
      </trkpt>
      <trkpt lat="48.59412" lon="2.11448">
        <ele>102.2</ele>
        <time>2023-12-20T14:04:38Z</time>
      </trkpt>
      <trkpt lat="48.59418" lon="2.11455">
        <ele>101.8</ele>
        <time>2023-12-20T14:04:39Z</time>
      </trkpt>
      <trkpt lat="48.59423" lon="2.11462">
        <ele>101.8</ele>
        <time>2023-12-20T14:04:40Z</time>
      </trkpt>
      <trkpt lat="48.59428" lon="2.11469">
        <ele>101.8</ele>
        <time>2023-12-20T14:04:41Z</time>
      </trkpt>
      <trkpt lat="48.59434" lon="2.11476">
        <ele>101.8</ele>
        <time>2023-12-20T14:04:42Z</time>
      </trkpt>
      <trkpt lat="48.5944" lon="2.11483">
        <ele>101</ele>
        <time>2023-12-20T14:04:43Z</time>
      </trkpt>
      <trkpt lat="48.59445" lon="2.1149">
        <ele>101</ele>
        <time>2023-12-20T14:04:44Z</time>
      </trkpt>
      <trkpt lat="48.59451" lon="2.11497">
        <ele>101</ele>
        <time>2023-12-20T14:04:45Z</time>
      </trkpt>
      <trkpt lat="48.59457" lon="2.11504">
        <ele>101</ele>
        <time>2023-12-20T14:04:46Z</time>
      </trkpt>
      <trkpt lat="48.59463" lon="2.11512">
        <ele>101.4</ele>
        <time>2023-12-20T14:04:47Z</time>
      </trkpt>
      <trkpt lat="48.59468" lon="2.11519">
        <ele>101.4</ele>
        <time>2023-12-20T14:04:48Z</time>
      </trkpt>
      <trkpt lat="48.59474" lon="2.11526">
        <ele>101.4</ele>
        <time>2023-12-20T14:04:49Z</time>
      </trkpt>
      <trkpt lat="48.5948" lon="2.11533">
        <ele>101.4</ele>
        <time>2023-12-20T14:04:50Z</time>
      </trkpt>
      <trkpt lat="48.59486" lon="2.1154">
        <ele>101.6</ele>
        <time>2023-12-20T14:04:51Z</time>
      </trkpt>
      <trkpt lat="48.59492" lon="2.11547">
        <ele>101.6</ele>
        <time>2023-12-20T14:04:52Z</time>
      </trkpt>
      <trkpt lat="48.59498" lon="2.11554">
        <ele>101.6</ele>
        <time>2023-12-20T14:04:53Z</time>
      </trkpt>
      <trkpt lat="48.59503" lon="2.11561">
        <ele>102.4</ele>
        <time>2023-12-20T14:04:54Z</time>
      </trkpt>
      <trkpt lat="48.59509" lon="2.11568">
        <ele>102.6</ele>
        <time>2023-12-20T14:04:55Z</time>
      </trkpt>
      <trkpt lat="48.59515" lon="2.11575">
        <ele>102.6</ele>
        <time>2023-12-20T14:04:56Z</time>
      </trkpt>
      <trkpt lat="48.59521" lon="2.11582">
        <ele>102.6</ele>
        <time>2023-12-20T14:04:57Z</time>
      </trkpt>
      <trkpt lat="48.59526" lon="2.11589">
        <ele>101.6</ele>
        <time>2023-12-20T14:04:58Z</time>
      </trkpt>
      <trkpt lat="48.59532" lon="2.11596">
        <ele>101.2</ele>
        <time>2023-12-20T14:04:59Z</time>
      </trkpt>
      <trkpt lat="48.59538" lon="2.11603">
        <ele>101.2</ele>
        <time>2023-12-20T14:05:00Z</time>
      </trkpt>
      <trkpt lat="48.59544" lon="2.1161">
        <ele>101.2</ele>
        <time>2023-12-20T14:05:01Z</time>
      </trkpt>
      <trkpt lat="48.59549" lon="2.11617">
        <ele>102.2</ele>
        <time>2023-12-20T14:05:02Z</time>
      </trkpt>
      <trkpt lat="48.59555" lon="2.11623">
        <ele>102.2</ele>
        <time>2023-12-20T14:05:03Z</time>
      </trkpt>
      <trkpt lat="48.5956" lon="2.11631">
        <ele>102.2</ele>
        <time>2023-12-20T14:05:04Z</time>
      </trkpt>
      <trkpt lat="48.59566" lon="2.11638">
        <ele>102.2</ele>
        <time>2023-12-20T14:05:05Z</time>
      </trkpt>
      <trkpt lat="48.59571" lon="2.11645">
        <ele>102.2</ele>
        <time>2023-12-20T14:05:06Z</time>
      </trkpt>
      <trkpt lat="48.59577" lon="2.11652">
        <ele>101.4</ele>
        <time>2023-12-20T14:05:07Z</time>
      </trkpt>
      <trkpt lat="48.59583" lon="2.11659">
        <ele>101.4</ele>
        <time>2023-12-20T14:05:08Z</time>
      </trkpt>
      <trkpt lat="48.59589" lon="2.11664">
        <ele>101.4</ele>
        <time>2023-12-20T14:05:09Z</time>
      </trkpt>
      <trkpt lat="48.59595" lon="2.11668">
        <ele>102.4</ele>
        <time>2023-12-20T14:05:10Z</time>
      </trkpt>
      <trkpt lat="48.59599" lon="2.11672">
        <ele>103</ele>
        <time>2023-12-20T14:05:11Z</time>
      </trkpt>
      <trkpt lat="48.59603" lon="2.11675">
        <ele>103</ele>
        <time>2023-12-20T14:05:12Z</time>
      </trkpt>
      <trkpt lat="48.59607" lon="2.11678">
        <ele>103</ele>
        <time>2023-12-20T14:05:13Z</time>
      </trkpt>
      <trkpt lat="48.5961" lon="2.11683">
        <ele>103</ele>
        <time>2023-12-20T14:05:14Z</time>
      </trkpt>
      <trkpt lat="48.59613" lon="2.11688">
        <ele>102.2</ele>
        <time>2023-12-20T14:05:15Z</time>
      </trkpt>
      <trkpt lat="48.59616" lon="2.11695">
        <ele>102.2</ele>
        <time>2023-12-20T14:05:16Z</time>
      </trkpt>
      <trkpt lat="48.59618" lon="2.11703">
        <ele>102.2</ele>
        <time>2023-12-20T14:05:17Z</time>
      </trkpt>
      <trkpt lat="48.59621" lon="2.11711">
        <ele>102.2</ele>
        <time>2023-12-20T14:05:18Z</time>
      </trkpt>
      <trkpt lat="48.59624" lon="2.1172">
        <ele>101.8</ele>
        <time>2023-12-20T14:05:19Z</time>
      </trkpt>
      <trkpt lat="48.59629" lon="2.11725">
        <ele>101.8</ele>
        <time>2023-12-20T14:05:20Z</time>
      </trkpt>
      <trkpt lat="48.59636" lon="2.11727">
        <ele>101.8</ele>
        <time>2023-12-20T14:05:21Z</time>
      </trkpt>
      <trkpt lat="48.59642" lon="2.11729">
        <ele>101.8</ele>
        <time>2023-12-20T14:05:22Z</time>
      </trkpt>
      <trkpt lat="48.59649" lon="2.11732">
        <ele>102</ele>
        <time>2023-12-20T14:05:23Z</time>
      </trkpt>
      <trkpt lat="48.59654" lon="2.11736">
        <ele>102</ele>
        <time>2023-12-20T14:05:24Z</time>
      </trkpt>
      <trkpt lat="48.5966" lon="2.11741">
        <ele>102</ele>
        <time>2023-12-20T14:05:25Z</time>
      </trkpt>
      <trkpt lat="48.59665" lon="2.11747">
        <ele>102</ele>
        <time>2023-12-20T14:05:26Z</time>
      </trkpt>
      <trkpt lat="48.5967" lon="2.11753">
        <ele>102.2</ele>
        <time>2023-12-20T14:05:27Z</time>
      </trkpt>
      <trkpt lat="48.59676" lon="2.11759">
        <ele>102.2</ele>
        <time>2023-12-20T14:05:28Z</time>
      </trkpt>
      <trkpt lat="48.59681" lon="2.11766">
        <ele>102.2</ele>
        <time>2023-12-20T14:05:29Z</time>
      </trkpt>
      <trkpt lat="48.59687" lon="2.11773">
        <ele>101.6</ele>
        <time>2023-12-20T14:05:30Z</time>
      </trkpt>
      <trkpt lat="48.59692" lon="2.11779">
        <ele>102</ele>
        <time>2023-12-20T14:05:31Z</time>
      </trkpt>
      <trkpt lat="48.59698" lon="2.11786">
        <ele>102</ele>
        <time>2023-12-20T14:05:32Z</time>
      </trkpt>
      <trkpt lat="48.59704" lon="2.11794">
        <ele>102</ele>
        <time>2023-12-20T14:05:33Z</time>
      </trkpt>
      <trkpt lat="48.5971" lon="2.11801">
        <ele>102</ele>
        <time>2023-12-20T14:05:34Z</time>
      </trkpt>
      <trkpt lat="48.59716" lon="2.11808">
        <ele>101.6</ele>
        <time>2023-12-20T14:05:35Z</time>
      </trkpt>
      <trkpt lat="48.59722" lon="2.11815">
        <ele>101.6</ele>
        <time>2023-12-20T14:05:36Z</time>
      </trkpt>
      <trkpt lat="48.59728" lon="2.11821">
        <ele>101.6</ele>
        <time>2023-12-20T14:05:37Z</time>
      </trkpt>
      <trkpt lat="48.59734" lon="2.11828">
        <ele>101.6</ele>
        <time>2023-12-20T14:05:38Z</time>
      </trkpt>
      <trkpt lat="48.59741" lon="2.11835">
        <ele>101.6</ele>
        <time>2023-12-20T14:05:39Z</time>
      </trkpt>
      <trkpt lat="48.59747" lon="2.11841">
        <ele>101.6</ele>
        <time>2023-12-20T14:05:40Z</time>
      </trkpt>
      <trkpt lat="48.59754" lon="2.11848">
        <ele>101.6</ele>
        <time>2023-12-20T14:05:41Z</time>
      </trkpt>
      <trkpt lat="48.5976" lon="2.11855">
        <ele>101.6</ele>
        <time>2023-12-20T14:05:42Z</time>
      </trkpt>
      <trkpt lat="48.59767" lon="2.11861">
        <ele>100</ele>
        <time>2023-12-20T14:05:43Z</time>
      </trkpt>
      <trkpt lat="48.59774" lon="2.11867">
        <ele>100</ele>
        <time>2023-12-20T14:05:44Z</time>
      </trkpt>
      <trkpt lat="48.59781" lon="2.11874">
        <ele>100</ele>
        <time>2023-12-20T14:05:45Z</time>
      </trkpt>
      <trkpt lat="48.59789" lon="2.1188">
        <ele>100</ele>
        <time>2023-12-20T14:05:46Z</time>
      </trkpt>
      <trkpt lat="48.59796" lon="2.11886">
        <ele>100.4</ele>
        <time>2023-12-20T14:05:47Z</time>
      </trkpt>
      <trkpt lat="48.59803" lon="2.11892">
        <ele>100.4</ele>
        <time>2023-12-20T14:05:48Z</time>
      </trkpt>
      <trkpt lat="48.5981" lon="2.11897">
        <ele>100.4</ele>
        <time>2023-12-20T14:05:49Z</time>
      </trkpt>
      <trkpt lat="48.59817" lon="2.11903">
        <ele>100.4</ele>
        <time>2023-12-20T14:05:50Z</time>
      </trkpt>
      <trkpt lat="48.59824" lon="2.11908">
        <ele>99.4</ele>
        <time>2023-12-20T14:05:51Z</time>
      </trkpt>
      <trkpt lat="48.59831" lon="2.11913">
        <ele>99.4</ele>
        <time>2023-12-20T14:05:52Z</time>
      </trkpt>
      <trkpt lat="48.59839" lon="2.11917">
        <ele>99.4</ele>
        <time>2023-12-20T14:05:53Z</time>
      </trkpt>
      <trkpt lat="48.59846" lon="2.11922">
        <ele>100.4</ele>
        <time>2023-12-20T14:05:54Z</time>
      </trkpt>
      <trkpt lat="48.59854" lon="2.11926">
        <ele>99.4</ele>
        <time>2023-12-20T14:05:55Z</time>
      </trkpt>
      <trkpt lat="48.59861" lon="2.1193">
        <ele>99.4</ele>
        <time>2023-12-20T14:05:56Z</time>
      </trkpt>
      <trkpt lat="48.59869" lon="2.11935">
        <ele>99.4</ele>
        <time>2023-12-20T14:05:57Z</time>
      </trkpt>
      <trkpt lat="48.59877" lon="2.11939">
        <ele>99.4</ele>
        <time>2023-12-20T14:05:58Z</time>
      </trkpt>
      <trkpt lat="48.59884" lon="2.11943">
        <ele>99</ele>
        <time>2023-12-20T14:05:59Z</time>
      </trkpt>
      <trkpt lat="48.59892" lon="2.11947">
        <ele>99</ele>
        <time>2023-12-20T14:06:00Z</time>
      </trkpt>
      <trkpt lat="48.599" lon="2.11951">
        <ele>99</ele>
        <time>2023-12-20T14:06:01Z</time>
      </trkpt>
      <trkpt lat="48.59907" lon="2.11955">
        <ele>99</ele>
        <time>2023-12-20T14:06:02Z</time>
      </trkpt>
      <trkpt lat="48.59915" lon="2.11959">
        <ele>98.8</ele>
        <time>2023-12-20T14:06:03Z</time>
      </trkpt>
      <trkpt lat="48.59923" lon="2.11963">
        <ele>98.8</ele>
        <time>2023-12-20T14:06:04Z</time>
      </trkpt>
      <trkpt lat="48.5993" lon="2.11966">
        <ele>98.8</ele>
        <time>2023-12-20T14:06:05Z</time>
      </trkpt>
      <trkpt lat="48.59938" lon="2.1197">
        <ele>98.8</ele>
        <time>2023-12-20T14:06:06Z</time>
      </trkpt>
      <trkpt lat="48.59946" lon="2.11974">
        <ele>99</ele>
        <time>2023-12-20T14:06:07Z</time>
      </trkpt>
      <trkpt lat="48.59953" lon="2.11978">
        <ele>99</ele>
        <time>2023-12-20T14:06:08Z</time>
      </trkpt>
      <trkpt lat="48.59961" lon="2.11981">
        <ele>99</ele>
        <time>2023-12-20T14:06:09Z</time>
      </trkpt>
      <trkpt lat="48.59969" lon="2.11985">
        <ele>99</ele>
        <time>2023-12-20T14:06:10Z</time>
      </trkpt>
      <trkpt lat="48.59976" lon="2.11989">
        <ele>99.2</ele>
        <time>2023-12-20T14:06:11Z</time>
      </trkpt>
      <trkpt lat="48.59984" lon="2.11993">
        <ele>99.2</ele>
        <time>2023-12-20T14:06:12Z</time>
      </trkpt>
      <trkpt lat="48.59992" lon="2.11996">
        <ele>99.2</ele>
        <time>2023-12-20T14:06:13Z</time>
      </trkpt>
      <trkpt lat="48.6" lon="2.12">
        <ele>99.2</ele>
        <time>2023-12-20T14:06:14Z</time>
      </trkpt>
      <trkpt lat="48.60008" lon="2.12003">
        <ele>99.6</ele>
        <time>2023-12-20T14:06:15Z</time>
      </trkpt>
      <trkpt lat="48.60016" lon="2.12006">
        <ele>99.6</ele>
        <time>2023-12-20T14:06:16Z</time>
      </trkpt>
      <trkpt lat="48.60024" lon="2.12009">
        <ele>99.6</ele>
        <time>2023-12-20T14:06:17Z</time>
      </trkpt>
      <trkpt lat="48.60032" lon="2.12012">
        <ele>99.6</ele>
        <time>2023-12-20T14:06:18Z</time>
      </trkpt>
      <trkpt lat="48.6004" lon="2.12015">
        <ele>99.4</ele>
        <time>2023-12-20T14:06:19Z</time>
      </trkpt>
      <trkpt lat="48.60049" lon="2.12018">
        <ele>99.4</ele>
        <time>2023-12-20T14:06:20Z</time>
      </trkpt>
      <trkpt lat="48.60057" lon="2.12021">
        <ele>99.4</ele>
        <time>2023-12-20T14:06:21Z</time>
      </trkpt>
      <trkpt lat="48.60065" lon="2.12024">
        <ele>100</ele>
        <time>2023-12-20T14:06:22Z</time>
      </trkpt>
      <trkpt lat="48.60073" lon="2.12027">
        <ele>99</ele>
        <time>2023-12-20T14:06:23Z</time>
      </trkpt>
      <trkpt lat="48.6008" lon="2.12031">
        <ele>99</ele>
        <time>2023-12-20T14:06:24Z</time>
      </trkpt>
      <trkpt lat="48.60087" lon="2.12034">
        <ele>99</ele>
        <time>2023-12-20T14:06:25Z</time>
      </trkpt>
      <trkpt lat="48.60095" lon="2.12037">
        <ele>99</ele>
        <time>2023-12-20T14:06:26Z</time>
      </trkpt>
      <trkpt lat="48.60102" lon="2.1204">
        <ele>99.8</ele>
        <time>2023-12-20T14:06:27Z</time>
      </trkpt>
      <trkpt lat="48.60109" lon="2.12043">
        <ele>99.8</ele>
        <time>2023-12-20T14:06:28Z</time>
      </trkpt>
      <trkpt lat="48.60116" lon="2.12046">
        <ele>99.8</ele>
        <time>2023-12-20T14:06:29Z</time>
      </trkpt>
      <trkpt lat="48.60123" lon="2.12049">
        <ele>99.2</ele>
        <time>2023-12-20T14:06:30Z</time>
      </trkpt>
      <trkpt lat="48.6013" lon="2.12052">
        <ele>98.8</ele>
        <time>2023-12-20T14:06:31Z</time>
      </trkpt>
      <trkpt lat="48.60136" lon="2.12055">
        <ele>98.8</ele>
        <time>2023-12-20T14:06:32Z</time>
      </trkpt>
      <trkpt lat="48.60143" lon="2.12058">
        <ele>98.8</ele>
        <time>2023-12-20T14:06:33Z</time>
      </trkpt>
      <trkpt lat="48.6015" lon="2.12061">
        <ele>98.8</ele>
        <time>2023-12-20T14:06:34Z</time>
      </trkpt>
      <trkpt lat="48.60157" lon="2.12064">
        <ele>98.8</ele>
        <time>2023-12-20T14:06:35Z</time>
      </trkpt>
      <trkpt lat="48.60164" lon="2.12067">
        <ele>98.8</ele>
        <time>2023-12-20T14:06:36Z</time>
      </trkpt>
      <trkpt lat="48.60171" lon="2.1207">
        <ele>98.8</ele>
        <time>2023-12-20T14:06:37Z</time>
      </trkpt>
      <trkpt lat="48.60179" lon="2.12073">
        <ele>98</ele>
        <time>2023-12-20T14:06:38Z</time>
      </trkpt>
      <trkpt lat="48.60186" lon="2.12077">
        <ele>98</ele>
        <time>2023-12-20T14:06:39Z</time>
      </trkpt>
      <trkpt lat="48.60193" lon="2.12081">
        <ele>98</ele>
        <time>2023-12-20T14:06:40Z</time>
      </trkpt>
      <trkpt lat="48.60199" lon="2.12086">
        <ele>98</ele>
        <time>2023-12-20T14:06:41Z</time>
      </trkpt>
      <trkpt lat="48.60205" lon="2.12092">
        <ele>97.6</ele>
        <time>2023-12-20T14:06:42Z</time>
      </trkpt>
      <trkpt lat="48.60211" lon="2.12097">
        <ele>98.6</ele>
        <time>2023-12-20T14:06:43Z</time>
      </trkpt>
      <trkpt lat="48.60217" lon="2.12101">
        <ele>98.6</ele>
        <time>2023-12-20T14:06:44Z</time>
      </trkpt>
      <trkpt lat="48.60221" lon="2.12104">
        <ele>98.6</ele>
        <time>2023-12-20T14:06:45Z</time>
      </trkpt>
      <trkpt lat="48.60226" lon="2.12103">
        <ele>98</ele>
        <time>2023-12-20T14:06:46Z</time>
      </trkpt>
      <trkpt lat="48.60229" lon="2.12098">
        <ele>98.4</ele>
        <time>2023-12-20T14:06:47Z</time>
      </trkpt>
      <trkpt lat="48.60232" lon="2.12092">
        <ele>98.4</ele>
        <time>2023-12-20T14:06:48Z</time>
      </trkpt>
      <trkpt lat="48.60234" lon="2.12086">
        <ele>98.4</ele>
        <time>2023-12-20T14:06:49Z</time>
      </trkpt>
      <trkpt lat="48.60236" lon="2.12079">
        <ele>98.8</ele>
        <time>2023-12-20T14:06:50Z</time>
      </trkpt>
      <trkpt lat="48.60238" lon="2.12072">
        <ele>98.6</ele>
        <time>2023-12-20T14:06:51Z</time>
      </trkpt>
      <trkpt lat="48.6024" lon="2.12066">
        <ele>98.6</ele>
        <time>2023-12-20T14:06:52Z</time>
      </trkpt>
      <trkpt lat="48.60242" lon="2.12059">
        <ele>98.6</ele>
        <time>2023-12-20T14:06:53Z</time>
      </trkpt>
      <trkpt lat="48.60244" lon="2.12053">
        <ele>99.2</ele>
        <time>2023-12-20T14:06:54Z</time>
      </trkpt>
      <trkpt lat="48.60245" lon="2.12046">
        <ele>99.8</ele>
        <time>2023-12-20T14:06:55Z</time>
      </trkpt>
      <trkpt lat="48.60247" lon="2.1204">
        <ele>99.8</ele>
        <time>2023-12-20T14:06:56Z</time>
      </trkpt>
      <trkpt lat="48.60249" lon="2.12033">
        <ele>99.8</ele>
        <time>2023-12-20T14:06:57Z</time>
      </trkpt>
      <trkpt lat="48.60251" lon="2.12027">
        <ele>100.2</ele>
        <time>2023-12-20T14:06:58Z</time>
      </trkpt>
      <trkpt lat="48.60253" lon="2.12021">
        <ele>100.4</ele>
        <time>2023-12-20T14:06:59Z</time>
      </trkpt>
      <trkpt lat="48.60254" lon="2.12015">
        <ele>100.4</ele>
        <time>2023-12-20T14:07:00Z</time>
      </trkpt>
      <trkpt lat="48.60256" lon="2.12009">
        <ele>100.4</ele>
        <time>2023-12-20T14:07:01Z</time>
      </trkpt>
      <trkpt lat="48.60258" lon="2.12002">
        <ele>100.4</ele>
        <time>2023-12-20T14:07:02Z</time>
      </trkpt>
      <trkpt lat="48.6026" lon="2.11996">
        <ele>100.8</ele>
        <time>2023-12-20T14:07:03Z</time>
      </trkpt>
      <trkpt lat="48.60261" lon="2.1199">
        <ele>100.8</ele>
        <time>2023-12-20T14:07:04Z</time>
      </trkpt>
      <trkpt lat="48.60263" lon="2.11983">
        <ele>100.8</ele>
        <time>2023-12-20T14:07:05Z</time>
      </trkpt>
      <trkpt lat="48.60265" lon="2.11976">
        <ele>100.8</ele>
        <time>2023-12-20T14:07:06Z</time>
      </trkpt>
      <trkpt lat="48.60266" lon="2.11969">
        <ele>100.8</ele>
        <time>2023-12-20T14:07:07Z</time>
      </trkpt>
      <trkpt lat="48.60268" lon="2.11962">
        <ele>100.8</ele>
        <time>2023-12-20T14:07:08Z</time>
      </trkpt>
      <trkpt lat="48.60269" lon="2.11955">
        <ele>100.8</ele>
        <time>2023-12-20T14:07:09Z</time>
      </trkpt>
      <trkpt lat="48.6027" lon="2.11948">
        <ele>100.8</ele>
        <time>2023-12-20T14:07:10Z</time>
      </trkpt>
      <trkpt lat="48.60271" lon="2.11941">
        <ele>101.4</ele>
        <time>2023-12-20T14:07:11Z</time>
      </trkpt>
      <trkpt lat="48.60272" lon="2.11934">
        <ele>101.4</ele>
        <time>2023-12-20T14:07:12Z</time>
      </trkpt>
      <trkpt lat="48.60272" lon="2.11926">
        <ele>101.4</ele>
        <time>2023-12-20T14:07:13Z</time>
      </trkpt>
      <trkpt lat="48.60273" lon="2.1192">
        <ele>102.2</ele>
        <time>2023-12-20T14:07:14Z</time>
      </trkpt>
      <trkpt lat="48.60273" lon="2.11913">
        <ele>102.2</ele>
        <time>2023-12-20T14:07:15Z</time>
      </trkpt>
      <trkpt lat="48.60274" lon="2.11906">
        <ele>102.2</ele>
        <time>2023-12-20T14:07:16Z</time>
      </trkpt>
      <trkpt lat="48.60274" lon="2.119">
        <ele>102.2</ele>
        <time>2023-12-20T14:07:17Z</time>
      </trkpt>
      <trkpt lat="48.60274" lon="2.11893">
        <ele>102.2</ele>
        <time>2023-12-20T14:07:18Z</time>
      </trkpt>
      <trkpt lat="48.60274" lon="2.11886">
        <ele>102.8</ele>
        <time>2023-12-20T14:07:19Z</time>
      </trkpt>
      <trkpt lat="48.60274" lon="2.1188">
        <ele>102.8</ele>
        <time>2023-12-20T14:07:20Z</time>
      </trkpt>
      <trkpt lat="48.60274" lon="2.11873">
        <ele>102.8</ele>
        <time>2023-12-20T14:07:21Z</time>
      </trkpt>
      <trkpt lat="48.60274" lon="2.11866">
        <ele>103.8</ele>
        <time>2023-12-20T14:07:22Z</time>
      </trkpt>
      <trkpt lat="48.60274" lon="2.11859">
        <ele>104.2</ele>
        <time>2023-12-20T14:07:23Z</time>
      </trkpt>
      <trkpt lat="48.60274" lon="2.11852">
        <ele>104.2</ele>
        <time>2023-12-20T14:07:24Z</time>
      </trkpt>
      <trkpt lat="48.60274" lon="2.11844">
        <ele>104.2</ele>
        <time>2023-12-20T14:07:25Z</time>
      </trkpt>
      <trkpt lat="48.60274" lon="2.11837">
        <ele>104.6</ele>
        <time>2023-12-20T14:07:26Z</time>
      </trkpt>
      <trkpt lat="48.60273" lon="2.1183">
        <ele>105</ele>
        <time>2023-12-20T14:07:27Z</time>
      </trkpt>
      <trkpt lat="48.60272" lon="2.11823">
        <ele>105</ele>
        <time>2023-12-20T14:07:28Z</time>
      </trkpt>
      <trkpt lat="48.60271" lon="2.11816">
        <ele>105</ele>
        <time>2023-12-20T14:07:29Z</time>
      </trkpt>
      <trkpt lat="48.6027" lon="2.11808">
        <ele>105</ele>
        <time>2023-12-20T14:07:30Z</time>
      </trkpt>
      <trkpt lat="48.60269" lon="2.11802">
        <ele>105</ele>
        <time>2023-12-20T14:07:31Z</time>
      </trkpt>
      <trkpt lat="48.60269" lon="2.11796">
        <ele>105</ele>
        <time>2023-12-20T14:07:32Z</time>
      </trkpt>
      <trkpt lat="48.60269" lon="2.11789">
        <ele>105</ele>
        <time>2023-12-20T14:07:33Z</time>
      </trkpt>
      <trkpt lat="48.60268" lon="2.11783">
        <ele>106</ele>
        <time>2023-12-20T14:07:34Z</time>
      </trkpt>
      <trkpt lat="48.60268" lon="2.11776">
        <ele>106.2</ele>
        <time>2023-12-20T14:07:35Z</time>
      </trkpt>
      <trkpt lat="48.60267" lon="2.1177">
        <ele>106.2</ele>
        <time>2023-12-20T14:07:36Z</time>
      </trkpt>
      <trkpt lat="48.60267" lon="2.11763">
        <ele>106.2</ele>
        <time>2023-12-20T14:07:37Z</time>
      </trkpt>
      <trkpt lat="48.60266" lon="2.11757">
        <ele>106.4</ele>
        <time>2023-12-20T14:07:38Z</time>
      </trkpt>
      <trkpt lat="48.60265" lon="2.1175">
        <ele>106.4</ele>
        <time>2023-12-20T14:07:39Z</time>
      </trkpt>
      <trkpt lat="48.60264" lon="2.11744">
        <ele>106.4</ele>
        <time>2023-12-20T14:07:40Z</time>
      </trkpt>
      <trkpt lat="48.60263" lon="2.11737">
        <ele>106.4</ele>
        <time>2023-12-20T14:07:41Z</time>
      </trkpt>
      <trkpt lat="48.60262" lon="2.11731">
        <ele>106.4</ele>
        <time>2023-12-20T14:07:42Z</time>
      </trkpt>
      <trkpt lat="48.60261" lon="2.11725">
        <ele>106.2</ele>
        <time>2023-12-20T14:07:43Z</time>
      </trkpt>
      <trkpt lat="48.60259" lon="2.11718">
        <ele>106.2</ele>
        <time>2023-12-20T14:07:44Z</time>
      </trkpt>
      <trkpt lat="48.60257" lon="2.11711">
        <ele>106.2</ele>
        <time>2023-12-20T14:07:45Z</time>
      </trkpt>
      <trkpt lat="48.60256" lon="2.11705">
        <ele>107.2</ele>
        <time>2023-12-20T14:07:46Z</time>
      </trkpt>
      <trkpt lat="48.60254" lon="2.11699">
        <ele>107.2</ele>
        <time>2023-12-20T14:07:47Z</time>
      </trkpt>
      <trkpt lat="48.60252" lon="2.11692">
        <ele>107.2</ele>
        <time>2023-12-20T14:07:48Z</time>
      </trkpt>
      <trkpt lat="48.60251" lon="2.11685">
        <ele>107.2</ele>
        <time>2023-12-20T14:07:49Z</time>
      </trkpt>
      <trkpt lat="48.60249" lon="2.11679">
        <ele>107.2</ele>
        <time>2023-12-20T14:07:50Z</time>
      </trkpt>
      <trkpt lat="48.60247" lon="2.11673">
        <ele>107.8</ele>
        <time>2023-12-20T14:07:51Z</time>
      </trkpt>
      <trkpt lat="48.60245" lon="2.11666">
        <ele>107.8</ele>
        <time>2023-12-20T14:07:52Z</time>
      </trkpt>
      <trkpt lat="48.60243" lon="2.11659">
        <ele>107.8</ele>
        <time>2023-12-20T14:07:53Z</time>
      </trkpt>
      <trkpt lat="48.60242" lon="2.11652">
        <ele>108.4</ele>
        <time>2023-12-20T14:07:54Z</time>
      </trkpt>
      <trkpt lat="48.6024" lon="2.11646">
        <ele>108.6</ele>
        <time>2023-12-20T14:07:55Z</time>
      </trkpt>
      <trkpt lat="48.60239" lon="2.11639">
        <ele>108.6</ele>
        <time>2023-12-20T14:07:56Z</time>
      </trkpt>
      <trkpt lat="48.60237" lon="2.11632">
        <ele>108.6</ele>
        <time>2023-12-20T14:07:57Z</time>
      </trkpt>
      <trkpt lat="48.60236" lon="2.11626">
        <ele>108.6</ele>
        <time>2023-12-20T14:07:58Z</time>
      </trkpt>
      <trkpt lat="48.60235" lon="2.1162">
        <ele>109</ele>
        <time>2023-12-20T14:07:59Z</time>
      </trkpt>
      <trkpt lat="48.60233" lon="2.11613">
        <ele>109</ele>
        <time>2023-12-20T14:08:00Z</time>
      </trkpt>
      <trkpt lat="48.60231" lon="2.11607">
        <ele>109</ele>
        <time>2023-12-20T14:08:01Z</time>
      </trkpt>
      <trkpt lat="48.6023" lon="2.11601">
        <ele>109</ele>
        <time>2023-12-20T14:08:02Z</time>
      </trkpt>
      <trkpt lat="48.60227" lon="2.11594">
        <ele>109.8</ele>
        <time>2023-12-20T14:08:03Z</time>
      </trkpt>
      <trkpt lat="48.60226" lon="2.11587">
        <ele>109.8</ele>
        <time>2023-12-20T14:08:04Z</time>
      </trkpt>
      <trkpt lat="48.60224" lon="2.11581">
        <ele>109.8</ele>
        <time>2023-12-20T14:08:05Z</time>
      </trkpt>
      <trkpt lat="48.60223" lon="2.11574">
        <ele>110.2</ele>
        <time>2023-12-20T14:08:06Z</time>
      </trkpt>
      <trkpt lat="48.60221" lon="2.11567">
        <ele>110</ele>
        <time>2023-12-20T14:08:07Z</time>
      </trkpt>
      <trkpt lat="48.6022" lon="2.1156">
        <ele>110</ele>
        <time>2023-12-20T14:08:08Z</time>
      </trkpt>
      <trkpt lat="48.60218" lon="2.11553">
        <ele>110</ele>
        <time>2023-12-20T14:08:09Z</time>
      </trkpt>
      <trkpt lat="48.60217" lon="2.11546">
        <ele>110</ele>
        <time>2023-12-20T14:08:10Z</time>
      </trkpt>
      <trkpt lat="48.60216" lon="2.11539">
        <ele>110.2</ele>
        <time>2023-12-20T14:08:11Z</time>
      </trkpt>
      <trkpt lat="48.60215" lon="2.11532">
        <ele>110.2</ele>
        <time>2023-12-20T14:08:12Z</time>
      </trkpt>
      <trkpt lat="48.60213" lon="2.11525">
        <ele>110.2</ele>
        <time>2023-12-20T14:08:13Z</time>
      </trkpt>
      <trkpt lat="48.60211" lon="2.11518">
        <ele>111.2</ele>
        <time>2023-12-20T14:08:14Z</time>
      </trkpt>
      <trkpt lat="48.60209" lon="2.11512">
        <ele>111.4</ele>
        <time>2023-12-20T14:08:15Z</time>
      </trkpt>
      <trkpt lat="48.60207" lon="2.11504">
        <ele>111.4</ele>
        <time>2023-12-20T14:08:16Z</time>
      </trkpt>
      <trkpt lat="48.60206" lon="2.11497">
        <ele>111.4</ele>
        <time>2023-12-20T14:08:17Z</time>
      </trkpt>
      <trkpt lat="48.60204" lon="2.1149">
        <ele>111.4</ele>
        <time>2023-12-20T14:08:18Z</time>
      </trkpt>
      <trkpt lat="48.60203" lon="2.11483">
        <ele>111.2</ele>
        <time>2023-12-20T14:08:19Z</time>
      </trkpt>
      <trkpt lat="48.60201" lon="2.11476">
        <ele>111.2</ele>
        <time>2023-12-20T14:08:20Z</time>
      </trkpt>
      <trkpt lat="48.60199" lon="2.11469">
        <ele>111.2</ele>
        <time>2023-12-20T14:08:21Z</time>
      </trkpt>
      <trkpt lat="48.60198" lon="2.11462">
        <ele>110.8</ele>
        <time>2023-12-20T14:08:22Z</time>
      </trkpt>
      <trkpt lat="48.60196" lon="2.11456">
        <ele>111</ele>
        <time>2023-12-20T14:08:23Z</time>
      </trkpt>
      <trkpt lat="48.60194" lon="2.11449">
        <ele>111</ele>
        <time>2023-12-20T14:08:24Z</time>
      </trkpt>
      <trkpt lat="48.60193" lon="2.11443">
        <ele>111</ele>
        <time>2023-12-20T14:08:25Z</time>
      </trkpt>
      <trkpt lat="48.60191" lon="2.11436">
        <ele>111</ele>
        <time>2023-12-20T14:08:26Z</time>
      </trkpt>
      <trkpt lat="48.60189" lon="2.11429">
        <ele>111.2</ele>
        <time>2023-12-20T14:08:27Z</time>
      </trkpt>
      <trkpt lat="48.60188" lon="2.11422">
        <ele>111.2</ele>
        <time>2023-12-20T14:08:28Z</time>
      </trkpt>
      <trkpt lat="48.60187" lon="2.11415">
        <ele>111.2</ele>
        <time>2023-12-20T14:08:29Z</time>
      </trkpt>
      <trkpt lat="48.60185" lon="2.11408">
        <ele>112.2</ele>
        <time>2023-12-20T14:08:30Z</time>
      </trkpt>
      <trkpt lat="48.60184" lon="2.11401">
        <ele>112.2</ele>
        <time>2023-12-20T14:08:31Z</time>
      </trkpt>
      <trkpt lat="48.60183" lon="2.11394">
        <ele>112.2</ele>
        <time>2023-12-20T14:08:32Z</time>
      </trkpt>
      <trkpt lat="48.60181" lon="2.11386">
        <ele>112.2</ele>
        <time>2023-12-20T14:08:33Z</time>
      </trkpt>
      <trkpt lat="48.6018" lon="2.11379">
        <ele>112.8</ele>
        <time>2023-12-20T14:08:34Z</time>
      </trkpt>
      <trkpt lat="48.60179" lon="2.11372">
        <ele>113</ele>
        <time>2023-12-20T14:08:35Z</time>
      </trkpt>
      <trkpt lat="48.60178" lon="2.11364">
        <ele>113</ele>
        <time>2023-12-20T14:08:36Z</time>
      </trkpt>
      <trkpt lat="48.60177" lon="2.11357">
        <ele>113</ele>
        <time>2023-12-20T14:08:37Z</time>
      </trkpt>
      <trkpt lat="48.60176" lon="2.1135">
        <ele>113.2</ele>
        <time>2023-12-20T14:08:38Z</time>
      </trkpt>
      <trkpt lat="48.60175" lon="2.11342">
        <ele>113</ele>
        <time>2023-12-20T14:08:39Z</time>
      </trkpt>
      <trkpt lat="48.60174" lon="2.11335">
        <ele>113</ele>
        <time>2023-12-20T14:08:40Z</time>
      </trkpt>
      <trkpt lat="48.60173" lon="2.11328">
        <ele>113</ele>
        <time>2023-12-20T14:08:41Z</time>
      </trkpt>
      <trkpt lat="48.60172" lon="2.11321">
        <ele>114</ele>
        <time>2023-12-20T14:08:42Z</time>
      </trkpt>
      <trkpt lat="48.60171" lon="2.11314">
        <ele>113.4</ele>
        <time>2023-12-20T14:08:43Z</time>
      </trkpt>
      <trkpt lat="48.6017" lon="2.11306">
        <ele>113.4</ele>
        <time>2023-12-20T14:08:44Z</time>
      </trkpt>
      <trkpt lat="48.60169" lon="2.11299">
        <ele>113.4</ele>
        <time>2023-12-20T14:08:45Z</time>
      </trkpt>
      <trkpt lat="48.60168" lon="2.11292">
        <ele>114</ele>
        <time>2023-12-20T14:08:46Z</time>
      </trkpt>
      <trkpt lat="48.60167" lon="2.11284">
        <ele>113.8</ele>
        <time>2023-12-20T14:08:47Z</time>
      </trkpt>
      <trkpt lat="48.60166" lon="2.11277">
        <ele>113.8</ele>
        <time>2023-12-20T14:08:48Z</time>
      </trkpt>
      <trkpt lat="48.60166" lon="2.11269">
        <ele>113.8</ele>
        <time>2023-12-20T14:08:49Z</time>
      </trkpt>
      <trkpt lat="48.60165" lon="2.11262">
        <ele>113.8</ele>
        <time>2023-12-20T14:08:50Z</time>
      </trkpt>
      <trkpt lat="48.60164" lon="2.11255">
        <ele>113.2</ele>
        <time>2023-12-20T14:08:51Z</time>
      </trkpt>
      <trkpt lat="48.60163" lon="2.11247">
        <ele>113.2</ele>
        <time>2023-12-20T14:08:52Z</time>
      </trkpt>
      <trkpt lat="48.60162" lon="2.1124">
        <ele>113.2</ele>
        <time>2023-12-20T14:08:53Z</time>
      </trkpt>
      <trkpt lat="48.60161" lon="2.11232">
        <ele>114.2</ele>
        <time>2023-12-20T14:08:54Z</time>
      </trkpt>
      <trkpt lat="48.6016" lon="2.11225">
        <ele>114</ele>
        <time>2023-12-20T14:08:55Z</time>
      </trkpt>
      <trkpt lat="48.60159" lon="2.11217">
        <ele>114</ele>
        <time>2023-12-20T14:08:56Z</time>
      </trkpt>
      <trkpt lat="48.60159" lon="2.1121">
        <ele>114</ele>
        <time>2023-12-20T14:08:57Z</time>
      </trkpt>
      <trkpt lat="48.60158" lon="2.11202">
        <ele>114.8</ele>
        <time>2023-12-20T14:08:58Z</time>
      </trkpt>
      <trkpt lat="48.60157" lon="2.11195">
        <ele>115.2</ele>
        <time>2023-12-20T14:08:59Z</time>
      </trkpt>
      <trkpt lat="48.60157" lon="2.11187">
        <ele>115.2</ele>
        <time>2023-12-20T14:09:00Z</time>
      </trkpt>
      <trkpt lat="48.60156" lon="2.1118">
        <ele>115.2</ele>
        <time>2023-12-20T14:09:01Z</time>
      </trkpt>
      <trkpt lat="48.60156" lon="2.11172">
        <ele>115.6</ele>
        <time>2023-12-20T14:09:02Z</time>
      </trkpt>
      <trkpt lat="48.60155" lon="2.11164">
        <ele>115.6</ele>
        <time>2023-12-20T14:09:03Z</time>
      </trkpt>
      <trkpt lat="48.60155" lon="2.11156">
        <ele>115.6</ele>
        <time>2023-12-20T14:09:04Z</time>
      </trkpt>
      <trkpt lat="48.60155" lon="2.11149">
        <ele>115.6</ele>
        <time>2023-12-20T14:09:05Z</time>
      </trkpt>
      <trkpt lat="48.60155" lon="2.11141">
        <ele>115.8</ele>
        <time>2023-12-20T14:09:06Z</time>
      </trkpt>
      <trkpt lat="48.60155" lon="2.11133">
        <ele>115.8</ele>
        <time>2023-12-20T14:09:07Z</time>
      </trkpt>
      <trkpt lat="48.60155" lon="2.11125">
        <ele>115.8</ele>
        <time>2023-12-20T14:09:08Z</time>
      </trkpt>
      <trkpt lat="48.60156" lon="2.11117">
        <ele>115.8</ele>
        <time>2023-12-20T14:09:09Z</time>
      </trkpt>
      <trkpt lat="48.60156" lon="2.1111">
        <ele>116.2</ele>
        <time>2023-12-20T14:09:10Z</time>
      </trkpt>
      <trkpt lat="48.60156" lon="2.11102">
        <ele>115.8</ele>
        <time>2023-12-20T14:09:11Z</time>
      </trkpt>
      <trkpt lat="48.60157" lon="2.11094">
        <ele>115.8</ele>
        <time>2023-12-20T14:09:12Z</time>
      </trkpt>
      <trkpt lat="48.60158" lon="2.11086">
        <ele>115.8</ele>
        <time>2023-12-20T14:09:13Z</time>
      </trkpt>
      <trkpt lat="48.60158" lon="2.11078">
        <ele>116.6</ele>
        <time>2023-12-20T14:09:14Z</time>
      </trkpt>
      <trkpt lat="48.60159" lon="2.1107">
        <ele>116.6</ele>
        <time>2023-12-20T14:09:15Z</time>
      </trkpt>
      <trkpt lat="48.60159" lon="2.11063">
        <ele>116.6</ele>
        <time>2023-12-20T14:09:16Z</time>
      </trkpt>
      <trkpt lat="48.6016" lon="2.11055">
        <ele>116.6</ele>
        <time>2023-12-20T14:09:17Z</time>
      </trkpt>
      <trkpt lat="48.6016" lon="2.11048">
        <ele>117.4</ele>
        <time>2023-12-20T14:09:18Z</time>
      </trkpt>
      <trkpt lat="48.60161" lon="2.1104">
        <ele>117.4</ele>
        <time>2023-12-20T14:09:19Z</time>
      </trkpt>
      <trkpt lat="48.60161" lon="2.11033">
        <ele>117.4</ele>
        <time>2023-12-20T14:09:20Z</time>
      </trkpt>
      <trkpt lat="48.60162" lon="2.11026">
        <ele>117.4</ele>
        <time>2023-12-20T14:09:21Z</time>
      </trkpt>
      <trkpt lat="48.60162" lon="2.11019">
        <ele>117.4</ele>
        <time>2023-12-20T14:09:22Z</time>
      </trkpt>
      <trkpt lat="48.60163" lon="2.11011">
        <ele>118.4</ele>
        <time>2023-12-20T14:09:23Z</time>
      </trkpt>
      <trkpt lat="48.60163" lon="2.11004">
        <ele>118.4</ele>
        <time>2023-12-20T14:09:24Z</time>
      </trkpt>
      <trkpt lat="48.60164" lon="2.10997">
        <ele>118.4</ele>
        <time>2023-12-20T14:09:25Z</time>
      </trkpt>
      <trkpt lat="48.60165" lon="2.1099">
        <ele>118.8</ele>
        <time>2023-12-20T14:09:26Z</time>
      </trkpt>
      <trkpt lat="48.60165" lon="2.10982">
        <ele>118.2</ele>
        <time>2023-12-20T14:09:27Z</time>
      </trkpt>
      <trkpt lat="48.60166" lon="2.10975">
        <ele>118.2</ele>
        <time>2023-12-20T14:09:28Z</time>
      </trkpt>
      <trkpt lat="48.60167" lon="2.10967">
        <ele>118.2</ele>
        <time>2023-12-20T14:09:29Z</time>
      </trkpt>
      <trkpt lat="48.60167" lon="2.1096">
        <ele>119.2</ele>
        <time>2023-12-20T14:09:30Z</time>
      </trkpt>
      <trkpt lat="48.60168" lon="2.10953">
        <ele>120.2</ele>
        <time>2023-12-20T14:09:31Z</time>
      </trkpt>
      <trkpt lat="48.60168" lon="2.10945">
        <ele>120.2</ele>
        <time>2023-12-20T14:09:32Z</time>
      </trkpt>
      <trkpt lat="48.60169" lon="2.10938">
        <ele>120.2</ele>
        <time>2023-12-20T14:09:33Z</time>
      </trkpt>
      <trkpt lat="48.60169" lon="2.1093">
        <ele>121.2</ele>
        <time>2023-12-20T14:09:34Z</time>
      </trkpt>
      <trkpt lat="48.6017" lon="2.10923">
        <ele>121.2</ele>
        <time>2023-12-20T14:09:35Z</time>
      </trkpt>
      <trkpt lat="48.6017" lon="2.10915">
        <ele>121.2</ele>
        <time>2023-12-20T14:09:36Z</time>
      </trkpt>
      <trkpt lat="48.60171" lon="2.10908">
        <ele>121.2</ele>
        <time>2023-12-20T14:09:37Z</time>
      </trkpt>
      <trkpt lat="48.60171" lon="2.109">
        <ele>121.2</ele>
        <time>2023-12-20T14:09:38Z</time>
      </trkpt>
      <trkpt lat="48.60172" lon="2.10893">
        <ele>122.2</ele>
        <time>2023-12-20T14:09:39Z</time>
      </trkpt>
      <trkpt lat="48.60172" lon="2.10886">
        <ele>122.2</ele>
        <time>2023-12-20T14:09:40Z</time>
      </trkpt>
      <trkpt lat="48.60173" lon="2.10878">
        <ele>122.2</ele>
        <time>2023-12-20T14:09:41Z</time>
      </trkpt>
      <trkpt lat="48.60173" lon="2.10871">
        <ele>122.2</ele>
        <time>2023-12-20T14:09:42Z</time>
      </trkpt>
      <trkpt lat="48.60174" lon="2.10864">
        <ele>123</ele>
        <time>2023-12-20T14:09:43Z</time>
      </trkpt>
      <trkpt lat="48.60174" lon="2.10857">
        <ele>123</ele>
        <time>2023-12-20T14:09:44Z</time>
      </trkpt>
      <trkpt lat="48.60175" lon="2.10849">
        <ele>123</ele>
        <time>2023-12-20T14:09:45Z</time>
      </trkpt>
      <trkpt lat="48.60175" lon="2.10842">
        <ele>123</ele>
        <time>2023-12-20T14:09:46Z</time>
      </trkpt>
      <trkpt lat="48.60176" lon="2.10834">
        <ele>124.4</ele>
        <time>2023-12-20T14:09:47Z</time>
      </trkpt>
      <trkpt lat="48.60176" lon="2.10827">
        <ele>124.4</ele>
        <time>2023-12-20T14:09:48Z</time>
      </trkpt>
      <trkpt lat="48.60176" lon="2.1082">
        <ele>124.4</ele>
        <time>2023-12-20T14:09:49Z</time>
      </trkpt>
      <trkpt lat="48.60177" lon="2.10813">
        <ele>124.4</ele>
        <time>2023-12-20T14:09:50Z</time>
      </trkpt>
      <trkpt lat="48.60177" lon="2.10806">
        <ele>125.4</ele>
        <time>2023-12-20T14:09:51Z</time>
      </trkpt>
      <trkpt lat="48.60177" lon="2.10799">
        <ele>125.4</ele>
        <time>2023-12-20T14:09:52Z</time>
      </trkpt>
      <trkpt lat="48.60178" lon="2.10792">
        <ele>125.4</ele>
        <time>2023-12-20T14:09:53Z</time>
      </trkpt>
      <trkpt lat="48.60179" lon="2.10785">
        <ele>124.8</ele>
        <time>2023-12-20T14:09:54Z</time>
      </trkpt>
      <trkpt lat="48.60179" lon="2.10778">
        <ele>125</ele>
        <time>2023-12-20T14:09:55Z</time>
      </trkpt>
      <trkpt lat="48.6018" lon="2.10771">
        <ele>125</ele>
        <time>2023-12-20T14:09:56Z</time>
      </trkpt>
      <trkpt lat="48.6018" lon="2.10765">
        <ele>125</ele>
        <time>2023-12-20T14:09:57Z</time>
      </trkpt>
      <trkpt lat="48.6018" lon="2.10758">
        <ele>126</ele>
        <time>2023-12-20T14:09:58Z</time>
      </trkpt>
      <trkpt lat="48.60181" lon="2.10751">
        <ele>125.8</ele>
        <time>2023-12-20T14:09:59Z</time>
      </trkpt>
      <trkpt lat="48.60182" lon="2.10746">
        <ele>125.8</ele>
        <time>2023-12-20T14:10:00Z</time>
      </trkpt>
      <trkpt lat="48.60182" lon="2.1074">
        <ele>125.8</ele>
        <time>2023-12-20T14:10:01Z</time>
      </trkpt>
      <trkpt lat="48.60182" lon="2.10734">
        <ele>125.8</ele>
        <time>2023-12-20T14:10:02Z</time>
      </trkpt>
      <trkpt lat="48.60181" lon="2.10727">
        <ele>126.4</ele>
        <time>2023-12-20T14:10:03Z</time>
      </trkpt>
      <trkpt lat="48.6018" lon="2.10721">
        <ele>126.4</ele>
        <time>2023-12-20T14:10:04Z</time>
      </trkpt>
      <trkpt lat="48.60179" lon="2.10716">
        <ele>126.4</ele>
        <time>2023-12-20T14:10:05Z</time>
      </trkpt>
      <trkpt lat="48.60178" lon="2.10711">
        <ele>126.4</ele>
        <time>2023-12-20T14:10:06Z</time>
      </trkpt>
      <trkpt lat="48.60177" lon="2.10704">
        <ele>126.2</ele>
        <time>2023-12-20T14:10:07Z</time>
      </trkpt>
      <trkpt lat="48.60177" lon="2.10699">
        <ele>126.2</ele>
        <time>2023-12-20T14:10:08Z</time>
      </trkpt>
      <trkpt lat="48.60176" lon="2.10693">
        <ele>126.2</ele>
        <time>2023-12-20T14:10:09Z</time>
      </trkpt>
      <trkpt lat="48.60176" lon="2.10688">
        <ele>125.6</ele>
        <time>2023-12-20T14:10:10Z</time>
      </trkpt>
      <trkpt lat="48.60176" lon="2.10682">
        <ele>125.4</ele>
        <time>2023-12-20T14:10:11Z</time>
      </trkpt>
      <trkpt lat="48.60174" lon="2.10676">
        <ele>125.4</ele>
        <time>2023-12-20T14:10:12Z</time>
      </trkpt>
      <trkpt lat="48.60172" lon="2.1067">
        <ele>125.4</ele>
        <time>2023-12-20T14:10:13Z</time>
      </trkpt>
      <trkpt lat="48.60172" lon="2.10664">
        <ele>125.4</ele>
        <time>2023-12-20T14:10:14Z</time>
      </trkpt>
      <trkpt lat="48.60171" lon="2.10657">
        <ele>125.2</ele>
        <time>2023-12-20T14:10:15Z</time>
      </trkpt>
      <trkpt lat="48.60171" lon="2.1065">
        <ele>125.2</ele>
        <time>2023-12-20T14:10:16Z</time>
      </trkpt>
      <trkpt lat="48.60171" lon="2.10643">
        <ele>125.2</ele>
        <time>2023-12-20T14:10:17Z</time>
      </trkpt>
      <trkpt lat="48.60171" lon="2.10635">
        <ele>124.2</ele>
        <time>2023-12-20T14:10:18Z</time>
      </trkpt>
      <trkpt lat="48.60172" lon="2.10626">
        <ele>123.2</ele>
        <time>2023-12-20T14:10:19Z</time>
      </trkpt>
      <trkpt lat="48.60173" lon="2.10619">
        <ele>123.2</ele>
        <time>2023-12-20T14:10:20Z</time>
      </trkpt>
      <trkpt lat="48.60174" lon="2.10611">
        <ele>123.2</ele>
        <time>2023-12-20T14:10:21Z</time>
      </trkpt>
      <trkpt lat="48.60175" lon="2.10601">
        <ele>122.2</ele>
        <time>2023-12-20T14:10:22Z</time>
      </trkpt>
      <trkpt lat="48.60176" lon="2.10591">
        <ele>120</ele>
        <time>2023-12-20T14:10:23Z</time>
      </trkpt>
      <trkpt lat="48.60176" lon="2.1058">
        <ele>120</ele>
        <time>2023-12-20T14:10:24Z</time>
      </trkpt>
      <trkpt lat="48.60178" lon="2.10567">
        <ele>120</ele>
        <time>2023-12-20T14:10:25Z</time>
      </trkpt>
      <trkpt lat="48.60178" lon="2.10554">
        <ele>119</ele>
        <time>2023-12-20T14:10:26Z</time>
      </trkpt>
      <trkpt lat="48.60178" lon="2.10542">
        <ele>118</ele>
        <time>2023-12-20T14:10:27Z</time>
      </trkpt>
      <trkpt lat="48.60178" lon="2.1053">
        <ele>118</ele>
        <time>2023-12-20T14:10:28Z</time>
      </trkpt>
      <trkpt lat="48.60178" lon="2.10519">
        <ele>118</ele>
        <time>2023-12-20T14:10:29Z</time>
      </trkpt>
      <trkpt lat="48.60179" lon="2.10507">
        <ele>118.4</ele>
        <time>2023-12-20T14:10:30Z</time>
      </trkpt>
      <trkpt lat="48.60178" lon="2.10495">
        <ele>117.8</ele>
        <time>2023-12-20T14:10:31Z</time>
      </trkpt>
      <trkpt lat="48.60177" lon="2.1048">
        <ele>117.8</ele>
        <time>2023-12-20T14:10:32Z</time>
      </trkpt>
      <trkpt lat="48.60176" lon="2.10466">
        <ele>117.8</ele>
        <time>2023-12-20T14:10:33Z</time>
      </trkpt>
      <trkpt lat="48.60175" lon="2.10453">
        <ele>116.8</ele>
        <time>2023-12-20T14:10:34Z</time>
      </trkpt>
      <trkpt lat="48.60176" lon="2.10439">
        <ele>116.4</ele>
        <time>2023-12-20T14:10:35Z</time>
      </trkpt>
      <trkpt lat="48.60177" lon="2.10426">
        <ele>116.4</ele>
        <time>2023-12-20T14:10:36Z</time>
      </trkpt>
      <trkpt lat="48.60178" lon="2.10415">
        <ele>116.4</ele>
        <time>2023-12-20T14:10:37Z</time>
      </trkpt>
      <trkpt lat="48.60179" lon="2.10402">
        <ele>115.6</ele>
        <time>2023-12-20T14:10:38Z</time>
      </trkpt>
      <trkpt lat="48.6018" lon="2.10391">
        <ele>115</ele>
        <time>2023-12-20T14:10:39Z</time>
      </trkpt>
      <trkpt lat="48.60181" lon="2.10376">
        <ele>115</ele>
        <time>2023-12-20T14:10:40Z</time>
      </trkpt>
      <trkpt lat="48.60182" lon="2.10361">
        <ele>115</ele>
        <time>2023-12-20T14:10:41Z</time>
      </trkpt>
      <trkpt lat="48.60184" lon="2.10349">
        <ele>114.4</ele>
        <time>2023-12-20T14:10:42Z</time>
      </trkpt>
      <trkpt lat="48.60186" lon="2.10335">
        <ele>114.2</ele>
        <time>2023-12-20T14:10:43Z</time>
      </trkpt>
      <trkpt lat="48.60188" lon="2.10322">
        <ele>114.2</ele>
        <time>2023-12-20T14:10:44Z</time>
      </trkpt>
      <trkpt lat="48.60191" lon="2.10309">
        <ele>114.2</ele>
        <time>2023-12-20T14:10:45Z</time>
      </trkpt>
      <trkpt lat="48.60194" lon="2.10295">
        <ele>114.2</ele>
        <time>2023-12-20T14:10:46Z</time>
      </trkpt>
      <trkpt lat="48.60198" lon="2.10283">
        <ele>114.2</ele>
        <time>2023-12-20T14:10:47Z</time>
      </trkpt>
      <trkpt lat="48.60201" lon="2.1027">
        <ele>114.2</ele>
        <time>2023-12-20T14:10:48Z</time>
      </trkpt>
      <trkpt lat="48.60204" lon="2.10258">
        <ele>114.2</ele>
        <time>2023-12-20T14:10:49Z</time>
      </trkpt>
      <trkpt lat="48.60207" lon="2.10246">
        <ele>114.6</ele>
        <time>2023-12-20T14:10:50Z</time>
      </trkpt>
      <trkpt lat="48.6021" lon="2.10235">
        <ele>114.8</ele>
        <time>2023-12-20T14:10:51Z</time>
      </trkpt>
      <trkpt lat="48.60212" lon="2.10226">
        <ele>114.8</ele>
        <time>2023-12-20T14:10:52Z</time>
      </trkpt>
      <trkpt lat="48.60215" lon="2.10215">
        <ele>114.8</ele>
        <time>2023-12-20T14:10:53Z</time>
      </trkpt>
      <trkpt lat="48.60218" lon="2.10206">
        <ele>114.8</ele>
        <time>2023-12-20T14:10:54Z</time>
      </trkpt>
      <trkpt lat="48.6022" lon="2.10194">
        <ele>115.2</ele>
        <time>2023-12-20T14:10:55Z</time>
      </trkpt>
      <trkpt lat="48.60221" lon="2.10182">
        <ele>115.2</ele>
        <time>2023-12-20T14:10:56Z</time>
      </trkpt>
      <trkpt lat="48.60221" lon="2.10171">
        <ele>115.2</ele>
        <time>2023-12-20T14:10:57Z</time>
      </trkpt>
      <trkpt lat="48.60222" lon="2.10159">
        <ele>115.8</ele>
        <time>2023-12-20T14:10:58Z</time>
      </trkpt>
      <trkpt lat="48.60222" lon="2.10147">
        <ele>115.8</ele>
        <time>2023-12-20T14:10:59Z</time>
      </trkpt>
      <trkpt lat="48.60222" lon="2.10135">
        <ele>115.8</ele>
        <time>2023-12-20T14:11:00Z</time>
      </trkpt>
      <trkpt lat="48.60222" lon="2.10123">
        <ele>115.8</ele>
        <time>2023-12-20T14:11:01Z</time>
      </trkpt>
      <trkpt lat="48.60223" lon="2.10111">
        <ele>115.8</ele>
        <time>2023-12-20T14:11:02Z</time>
      </trkpt>
      <trkpt lat="48.60223" lon="2.101">
        <ele>115.4</ele>
        <time>2023-12-20T14:11:03Z</time>
      </trkpt>
      <trkpt lat="48.60224" lon="2.10088">
        <ele>115.4</ele>
        <time>2023-12-20T14:11:04Z</time>
      </trkpt>
      <trkpt lat="48.60225" lon="2.10077">
        <ele>115.4</ele>
        <time>2023-12-20T14:11:05Z</time>
      </trkpt>
      <trkpt lat="48.60226" lon="2.10066">
        <ele>116.2</ele>
        <time>2023-12-20T14:11:06Z</time>
      </trkpt>
      <trkpt lat="48.60229" lon="2.10056">
        <ele>116.2</ele>
        <time>2023-12-20T14:11:07Z</time>
      </trkpt>
      <trkpt lat="48.60232" lon="2.10046">
        <ele>116.2</ele>
        <time>2023-12-20T14:11:08Z</time>
      </trkpt>
      <trkpt lat="48.60236" lon="2.10037">
        <ele>116.2</ele>
        <time>2023-12-20T14:11:09Z</time>
      </trkpt>
      <trkpt lat="48.6024" lon="2.10029">
        <ele>116.2</ele>
        <time>2023-12-20T14:11:10Z</time>
      </trkpt>
      <trkpt lat="48.60244" lon="2.10021">
        <ele>116.8</ele>
        <time>2023-12-20T14:11:11Z</time>
      </trkpt>
      <trkpt lat="48.60248" lon="2.10013">
        <ele>116.8</ele>
        <time>2023-12-20T14:11:12Z</time>
      </trkpt>
      <trkpt lat="48.60252" lon="2.10004">
        <ele>116.8</ele>
        <time>2023-12-20T14:11:13Z</time>
      </trkpt>
      <trkpt lat="48.60256" lon="2.09996">
        <ele>116.4</ele>
        <time>2023-12-20T14:11:14Z</time>
      </trkpt>
      <trkpt lat="48.60259" lon="2.09987">
        <ele>117</ele>
        <time>2023-12-20T14:11:15Z</time>
      </trkpt>
      <trkpt lat="48.60262" lon="2.09978">
        <ele>117</ele>
        <time>2023-12-20T14:11:16Z</time>
      </trkpt>
      <trkpt lat="48.60266" lon="2.09969">
        <ele>117</ele>
        <time>2023-12-20T14:11:17Z</time>
      </trkpt>
      <trkpt lat="48.60269" lon="2.0996">
        <ele>116</ele>
        <time>2023-12-20T14:11:18Z</time>
      </trkpt>
      <trkpt lat="48.60271" lon="2.0995">
        <ele>116.8</ele>
        <time>2023-12-20T14:11:19Z</time>
      </trkpt>
      <trkpt lat="48.60273" lon="2.09941">
        <ele>116.8</ele>
        <time>2023-12-20T14:11:20Z</time>
      </trkpt>
      <trkpt lat="48.60276" lon="2.09931">
        <ele>116.8</ele>
        <time>2023-12-20T14:11:21Z</time>
      </trkpt>
      <trkpt lat="48.60278" lon="2.09922">
        <ele>116.8</ele>
        <time>2023-12-20T14:11:22Z</time>
      </trkpt>
      <trkpt lat="48.6028" lon="2.09913">
        <ele>116.4</ele>
        <time>2023-12-20T14:11:23Z</time>
      </trkpt>
      <trkpt lat="48.60283" lon="2.09903">
        <ele>116.4</ele>
        <time>2023-12-20T14:11:24Z</time>
      </trkpt>
      <trkpt lat="48.60285" lon="2.09894">
        <ele>116.4</ele>
        <time>2023-12-20T14:11:25Z</time>
      </trkpt>
      <trkpt lat="48.60287" lon="2.09885">
        <ele>116.2</ele>
        <time>2023-12-20T14:11:26Z</time>
      </trkpt>
      <trkpt lat="48.60289" lon="2.09875">
        <ele>116.8</ele>
        <time>2023-12-20T14:11:27Z</time>
      </trkpt>
      <trkpt lat="48.60291" lon="2.09866">
        <ele>116.8</ele>
        <time>2023-12-20T14:11:28Z</time>
      </trkpt>
      <trkpt lat="48.60293" lon="2.09857">
        <ele>116.8</ele>
        <time>2023-12-20T14:11:29Z</time>
      </trkpt>
      <trkpt lat="48.60295" lon="2.09847">
        <ele>116.8</ele>
        <time>2023-12-20T14:11:30Z</time>
      </trkpt>
      <trkpt lat="48.60296" lon="2.09838">
        <ele>116.6</ele>
        <time>2023-12-20T14:11:31Z</time>
      </trkpt>
      <trkpt lat="48.60298" lon="2.09829">
        <ele>116.6</ele>
        <time>2023-12-20T14:11:32Z</time>
      </trkpt>
      <trkpt lat="48.60299" lon="2.09819">
        <ele>116.6</ele>
        <time>2023-12-20T14:11:33Z</time>
      </trkpt>
      <trkpt lat="48.603" lon="2.0981">
        <ele>117.4</ele>
        <time>2023-12-20T14:11:34Z</time>
      </trkpt>
      <trkpt lat="48.60302" lon="2.098">
        <ele>117.2</ele>
        <time>2023-12-20T14:11:35Z</time>
      </trkpt>
      <trkpt lat="48.60303" lon="2.09791">
        <ele>117.2</ele>
        <time>2023-12-20T14:11:36Z</time>
      </trkpt>
      <trkpt lat="48.60304" lon="2.09782">
        <ele>117.2</ele>
        <time>2023-12-20T14:11:37Z</time>
      </trkpt>
      <trkpt lat="48.60305" lon="2.09773">
        <ele>117.6</ele>
        <time>2023-12-20T14:11:38Z</time>
      </trkpt>
      <trkpt lat="48.60306" lon="2.09764">
        <ele>118.4</ele>
        <time>2023-12-20T14:11:39Z</time>
      </trkpt>
      <trkpt lat="48.60307" lon="2.09755">
        <ele>118.4</ele>
        <time>2023-12-20T14:11:40Z</time>
      </trkpt>
      <trkpt lat="48.60309" lon="2.09747">
        <ele>118.4</ele>
        <time>2023-12-20T14:11:41Z</time>
      </trkpt>
      <trkpt lat="48.60311" lon="2.09739">
        <ele>118.4</ele>
        <time>2023-12-20T14:11:42Z</time>
      </trkpt>
      <trkpt lat="48.60312" lon="2.09731">
        <ele>117.8</ele>
        <time>2023-12-20T14:11:43Z</time>
      </trkpt>
      <trkpt lat="48.60313" lon="2.09723">
        <ele>117.8</ele>
        <time>2023-12-20T14:11:44Z</time>
      </trkpt>
      <trkpt lat="48.60314" lon="2.09715">
        <ele>117.8</ele>
        <time>2023-12-20T14:11:45Z</time>
      </trkpt>
      <trkpt lat="48.60316" lon="2.09706">
        <ele>117.8</ele>
        <time>2023-12-20T14:11:46Z</time>
      </trkpt>
      <trkpt lat="48.60317" lon="2.09697">
        <ele>118.8</ele>
        <time>2023-12-20T14:11:47Z</time>
      </trkpt>
      <trkpt lat="48.60318" lon="2.09688">
        <ele>118.8</ele>
        <time>2023-12-20T14:11:48Z</time>
      </trkpt>
      <trkpt lat="48.60319" lon="2.09678">
        <ele>118.8</ele>
        <time>2023-12-20T14:11:49Z</time>
      </trkpt>
      <trkpt lat="48.6032" lon="2.09669">
        <ele>118.2</ele>
        <time>2023-12-20T14:11:50Z</time>
      </trkpt>
      <trkpt lat="48.60321" lon="2.0966">
        <ele>118.4</ele>
        <time>2023-12-20T14:11:51Z</time>
      </trkpt>
      <trkpt lat="48.60322" lon="2.09652">
        <ele>118.4</ele>
        <time>2023-12-20T14:11:52Z</time>
      </trkpt>
      <trkpt lat="48.60323" lon="2.09643">
        <ele>118.4</ele>
        <time>2023-12-20T14:11:53Z</time>
      </trkpt>
      <trkpt lat="48.60324" lon="2.09634">
        <ele>119.2</ele>
        <time>2023-12-20T14:11:54Z</time>
      </trkpt>
      <trkpt lat="48.60325" lon="2.09626">
        <ele>119.4</ele>
        <time>2023-12-20T14:11:55Z</time>
      </trkpt>
      <trkpt lat="48.60326" lon="2.09617">
        <ele>119.4</ele>
        <time>2023-12-20T14:11:56Z</time>
      </trkpt>
      <trkpt lat="48.60327" lon="2.09609">
        <ele>119.4</ele>
        <time>2023-12-20T14:11:57Z</time>
      </trkpt>
      <trkpt lat="48.60328" lon="2.09601">
        <ele>119.4</ele>
        <time>2023-12-20T14:11:58Z</time>
      </trkpt>
      <trkpt lat="48.60329" lon="2.09593">
        <ele>119.2</ele>
        <time>2023-12-20T14:11:59Z</time>
      </trkpt>
      <trkpt lat="48.6033" lon="2.09584">
        <ele>119.2</ele>
        <time>2023-12-20T14:12:00Z</time>
      </trkpt>
      <trkpt lat="48.60331" lon="2.09576">
        <ele>119.2</ele>
        <time>2023-12-20T14:12:01Z</time>
      </trkpt>
      <trkpt lat="48.60332" lon="2.09568">
        <ele>119.2</ele>
        <time>2023-12-20T14:12:02Z</time>
      </trkpt>
      <trkpt lat="48.60333" lon="2.09559">
        <ele>119.2</ele>
        <time>2023-12-20T14:12:03Z</time>
      </trkpt>
      <trkpt lat="48.60334" lon="2.09551">
        <ele>119.2</ele>
        <time>2023-12-20T14:12:04Z</time>
      </trkpt>
      <trkpt lat="48.60335" lon="2.09543">
        <ele>119.2</ele>
        <time>2023-12-20T14:12:05Z</time>
      </trkpt>
      <trkpt lat="48.60336" lon="2.09535">
        <ele>119.8</ele>
        <time>2023-12-20T14:12:06Z</time>
      </trkpt>
      <trkpt lat="48.60336" lon="2.09527">
        <ele>117.6</ele>
        <time>2023-12-20T14:12:07Z</time>
      </trkpt>
      <trkpt lat="48.60337" lon="2.09519">
        <ele>117.6</ele>
        <time>2023-12-20T14:12:08Z</time>
      </trkpt>
      <trkpt lat="48.60337" lon="2.09511">
        <ele>117.6</ele>
        <time>2023-12-20T14:12:09Z</time>
      </trkpt>
      <trkpt lat="48.60338" lon="2.09502">
        <ele>118.6</ele>
        <time>2023-12-20T14:12:10Z</time>
      </trkpt>
      <trkpt lat="48.60338" lon="2.09494">
        <ele>120</ele>
        <time>2023-12-20T14:12:11Z</time>
      </trkpt>
      <trkpt lat="48.60339" lon="2.09486">
        <ele>120</ele>
        <time>2023-12-20T14:12:12Z</time>
      </trkpt>
      <trkpt lat="48.6034" lon="2.09478">
        <ele>120</ele>
        <time>2023-12-20T14:12:13Z</time>
      </trkpt>
      <trkpt lat="48.6034" lon="2.0947">
        <ele>120</ele>
        <time>2023-12-20T14:12:14Z</time>
      </trkpt>
      <trkpt lat="48.6034" lon="2.09462">
        <ele>119.8</ele>
        <time>2023-12-20T14:12:15Z</time>
      </trkpt>
      <trkpt lat="48.60341" lon="2.09453">
        <ele>119.8</ele>
        <time>2023-12-20T14:12:16Z</time>
      </trkpt>
      <trkpt lat="48.60341" lon="2.09445">
        <ele>119.8</ele>
        <time>2023-12-20T14:12:17Z</time>
      </trkpt>
      <trkpt lat="48.60341" lon="2.09437">
        <ele>120</ele>
        <time>2023-12-20T14:12:18Z</time>
      </trkpt>
      <trkpt lat="48.60341" lon="2.09429">
        <ele>120.2</ele>
        <time>2023-12-20T14:12:19Z</time>
      </trkpt>
      <trkpt lat="48.60342" lon="2.0942">
        <ele>120.2</ele>
        <time>2023-12-20T14:12:20Z</time>
      </trkpt>
      <trkpt lat="48.60342" lon="2.09412">
        <ele>120.2</ele>
        <time>2023-12-20T14:12:21Z</time>
      </trkpt>
      <trkpt lat="48.60342" lon="2.09404">
        <ele>120.2</ele>
        <time>2023-12-20T14:12:22Z</time>
      </trkpt>
      <trkpt lat="48.60341" lon="2.09395">
        <ele>120.2</ele>
        <time>2023-12-20T14:12:23Z</time>
      </trkpt>
      <trkpt lat="48.6034" lon="2.09387">
        <ele>120.2</ele>
        <time>2023-12-20T14:12:24Z</time>
      </trkpt>
      <trkpt lat="48.60339" lon="2.09378">
        <ele>120.2</ele>
        <time>2023-12-20T14:12:25Z</time>
      </trkpt>
      <trkpt lat="48.60339" lon="2.0937">
        <ele>120.2</ele>
        <time>2023-12-20T14:12:26Z</time>
      </trkpt>
      <trkpt lat="48.60338" lon="2.09361">
        <ele>120</ele>
        <time>2023-12-20T14:12:27Z</time>
      </trkpt>
      <trkpt lat="48.60338" lon="2.09352">
        <ele>120</ele>
        <time>2023-12-20T14:12:28Z</time>
      </trkpt>
      <trkpt lat="48.60337" lon="2.09344">
        <ele>120</ele>
        <time>2023-12-20T14:12:29Z</time>
      </trkpt>
      <trkpt lat="48.60337" lon="2.09335">
        <ele>120</ele>
        <time>2023-12-20T14:12:30Z</time>
      </trkpt>
      <trkpt lat="48.60336" lon="2.09327">
        <ele>120.2</ele>
        <time>2023-12-20T14:12:31Z</time>
      </trkpt>
      <trkpt lat="48.60335" lon="2.09318">
        <ele>120.2</ele>
        <time>2023-12-20T14:12:32Z</time>
      </trkpt>
      <trkpt lat="48.60335" lon="2.0931">
        <ele>120.2</ele>
        <time>2023-12-20T14:12:33Z</time>
      </trkpt>
      <trkpt lat="48.60334" lon="2.09301">
        <ele>120.2</ele>
        <time>2023-12-20T14:12:34Z</time>
      </trkpt>
      <trkpt lat="48.60333" lon="2.09293">
        <ele>120.2</ele>
        <time>2023-12-20T14:12:35Z</time>
      </trkpt>
      <trkpt lat="48.60333" lon="2.09284">
        <ele>120.2</ele>
        <time>2023-12-20T14:12:36Z</time>
      </trkpt>
      <trkpt lat="48.60332" lon="2.09276">
        <ele>120.2</ele>
        <time>2023-12-20T14:12:37Z</time>
      </trkpt>
      <trkpt lat="48.60331" lon="2.09267">
        <ele>120.6</ele>
        <time>2023-12-20T14:12:38Z</time>
      </trkpt>
      <trkpt lat="48.60331" lon="2.09258">
        <ele>120.8</ele>
        <time>2023-12-20T14:12:39Z</time>
      </trkpt>
      <trkpt lat="48.6033" lon="2.0925">
        <ele>120.8</ele>
        <time>2023-12-20T14:12:40Z</time>
      </trkpt>
      <trkpt lat="48.6033" lon="2.09241">
        <ele>120.8</ele>
        <time>2023-12-20T14:12:41Z</time>
      </trkpt>
      <trkpt lat="48.60329" lon="2.09232">
        <ele>120.8</ele>
        <time>2023-12-20T14:12:42Z</time>
      </trkpt>
      <trkpt lat="48.60328" lon="2.09224">
        <ele>121.2</ele>
        <time>2023-12-20T14:12:43Z</time>
      </trkpt>
      <trkpt lat="48.60327" lon="2.09215">
        <ele>121.2</ele>
        <time>2023-12-20T14:12:44Z</time>
      </trkpt>
      <trkpt lat="48.60327" lon="2.09207">
        <ele>121.2</ele>
        <time>2023-12-20T14:12:45Z</time>
      </trkpt>
      <trkpt lat="48.60326" lon="2.09198">
        <ele>121.2</ele>
        <time>2023-12-20T14:12:46Z</time>
      </trkpt>
      <trkpt lat="48.60326" lon="2.0919">
        <ele>121.8</ele>
        <time>2023-12-20T14:12:47Z</time>
      </trkpt>
      <trkpt lat="48.60325" lon="2.09181">
        <ele>121.8</ele>
        <time>2023-12-20T14:12:48Z</time>
      </trkpt>
      <trkpt lat="48.60324" lon="2.09172">
        <ele>121.8</ele>
        <time>2023-12-20T14:12:49Z</time>
      </trkpt>
      <trkpt lat="48.60324" lon="2.09163">
        <ele>121.8</ele>
        <time>2023-12-20T14:12:50Z</time>
      </trkpt>
      <trkpt lat="48.60323" lon="2.09155">
        <ele>122</ele>
        <time>2023-12-20T14:12:51Z</time>
      </trkpt>
      <trkpt lat="48.60323" lon="2.09146">
        <ele>122</ele>
        <time>2023-12-20T14:12:52Z</time>
      </trkpt>
      <trkpt lat="48.60323" lon="2.09138">
        <ele>122</ele>
        <time>2023-12-20T14:12:53Z</time>
      </trkpt>
      <trkpt lat="48.60322" lon="2.09129">
        <ele>122</ele>
        <time>2023-12-20T14:12:54Z</time>
      </trkpt>
      <trkpt lat="48.60322" lon="2.0912">
        <ele>122.2</ele>
        <time>2023-12-20T14:12:55Z</time>
      </trkpt>
      <trkpt lat="48.60322" lon="2.09112">
        <ele>122.2</ele>
        <time>2023-12-20T14:12:56Z</time>
      </trkpt>
      <trkpt lat="48.60321" lon="2.09103">
        <ele>122.2</ele>
        <time>2023-12-20T14:12:57Z</time>
      </trkpt>
      <trkpt lat="48.60321" lon="2.09094">
        <ele>122.2</ele>
        <time>2023-12-20T14:12:58Z</time>
      </trkpt>
      <trkpt lat="48.60321" lon="2.09085">
        <ele>122</ele>
        <time>2023-12-20T14:12:59Z</time>
      </trkpt>
      <trkpt lat="48.6032" lon="2.09077">
        <ele>122</ele>
        <time>2023-12-20T14:13:00Z</time>
      </trkpt>
      <trkpt lat="48.6032" lon="2.09068">
        <ele>122</ele>
        <time>2023-12-20T14:13:01Z</time>
      </trkpt>
      <trkpt lat="48.60319" lon="2.09059">
        <ele>122</ele>
        <time>2023-12-20T14:13:02Z</time>
      </trkpt>
      <trkpt lat="48.60319" lon="2.0905">
        <ele>121.6</ele>
        <time>2023-12-20T14:13:03Z</time>
      </trkpt>
      <trkpt lat="48.60319" lon="2.09041">
        <ele>121.6</ele>
        <time>2023-12-20T14:13:04Z</time>
      </trkpt>
      <trkpt lat="48.60318" lon="2.09031">
        <ele>121.6</ele>
        <time>2023-12-20T14:13:05Z</time>
      </trkpt>
      <trkpt lat="48.60318" lon="2.09022">
        <ele>121.2</ele>
        <time>2023-12-20T14:13:06Z</time>
      </trkpt>
      <trkpt lat="48.60318" lon="2.09013">
        <ele>120.8</ele>
        <time>2023-12-20T14:13:07Z</time>
      </trkpt>
      <trkpt lat="48.60318" lon="2.09004">
        <ele>120.8</ele>
        <time>2023-12-20T14:13:08Z</time>
      </trkpt>
      <trkpt lat="48.60317" lon="2.08995">
        <ele>120.8</ele>
        <time>2023-12-20T14:13:09Z</time>
      </trkpt>
      <trkpt lat="48.60317" lon="2.08985">
        <ele>120.8</ele>
        <time>2023-12-20T14:13:10Z</time>
      </trkpt>
      <trkpt lat="48.60317" lon="2.08976">
        <ele>120.6</ele>
        <time>2023-12-20T14:13:11Z</time>
      </trkpt>
      <trkpt lat="48.60316" lon="2.08967">
        <ele>120.6</ele>
        <time>2023-12-20T14:13:12Z</time>
      </trkpt>
      <trkpt lat="48.60316" lon="2.08958">
        <ele>120.6</ele>
        <time>2023-12-20T14:13:13Z</time>
      </trkpt>
      <trkpt lat="48.60316" lon="2.08949">
        <ele>120.2</ele>
        <time>2023-12-20T14:13:14Z</time>
      </trkpt>
      <trkpt lat="48.60315" lon="2.0894">
        <ele>121</ele>
        <time>2023-12-20T14:13:15Z</time>
      </trkpt>
      <trkpt lat="48.60315" lon="2.08931">
        <ele>121</ele>
        <time>2023-12-20T14:13:16Z</time>
      </trkpt>
      <trkpt lat="48.60315" lon="2.08922">
        <ele>121</ele>
        <time>2023-12-20T14:13:17Z</time>
      </trkpt>
      <trkpt lat="48.60314" lon="2.08913">
        <ele>121.6</ele>
        <time>2023-12-20T14:13:18Z</time>
      </trkpt>
      <trkpt lat="48.60314" lon="2.08904">
        <ele>122.2</ele>
        <time>2023-12-20T14:13:19Z</time>
      </trkpt>
      <trkpt lat="48.60313" lon="2.08895">
        <ele>122.2</ele>
        <time>2023-12-20T14:13:20Z</time>
      </trkpt>
      <trkpt lat="48.60313" lon="2.08886">
        <ele>122.2</ele>
        <time>2023-12-20T14:13:21Z</time>
      </trkpt>
      <trkpt lat="48.60312" lon="2.08878">
        <ele>122.2</ele>
        <time>2023-12-20T14:13:22Z</time>
      </trkpt>
      <trkpt lat="48.60312" lon="2.08869">
        <ele>122.2</ele>
        <time>2023-12-20T14:13:23Z</time>
      </trkpt>
      <trkpt lat="48.60312" lon="2.08861">
        <ele>122.2</ele>
        <time>2023-12-20T14:13:24Z</time>
      </trkpt>
      <trkpt lat="48.60311" lon="2.08853">
        <ele>122.2</ele>
        <time>2023-12-20T14:13:25Z</time>
      </trkpt>
      <trkpt lat="48.60311" lon="2.08845">
        <ele>123</ele>
        <time>2023-12-20T14:13:26Z</time>
      </trkpt>
      <trkpt lat="48.60311" lon="2.08837">
        <ele>123.2</ele>
        <time>2023-12-20T14:13:27Z</time>
      </trkpt>
      <trkpt lat="48.60311" lon="2.08829">
        <ele>123.2</ele>
        <time>2023-12-20T14:13:28Z</time>
      </trkpt>
      <trkpt lat="48.6031" lon="2.08821">
        <ele>123.2</ele>
        <time>2023-12-20T14:13:29Z</time>
      </trkpt>
      <trkpt lat="48.6031" lon="2.08812">
        <ele>122.4</ele>
        <time>2023-12-20T14:13:30Z</time>
      </trkpt>
      <trkpt lat="48.6031" lon="2.08803">
        <ele>122.6</ele>
        <time>2023-12-20T14:13:31Z</time>
      </trkpt>
      <trkpt lat="48.60309" lon="2.08795">
        <ele>122.6</ele>
        <time>2023-12-20T14:13:32Z</time>
      </trkpt>
      <trkpt lat="48.60309" lon="2.08785">
        <ele>122.6</ele>
        <time>2023-12-20T14:13:33Z</time>
      </trkpt>
      <trkpt lat="48.60307" lon="2.08776">
        <ele>123.2</ele>
        <time>2023-12-20T14:13:34Z</time>
      </trkpt>
      <trkpt lat="48.60306" lon="2.08767">
        <ele>123.6</ele>
        <time>2023-12-20T14:13:35Z</time>
      </trkpt>
      <trkpt lat="48.60305" lon="2.08759">
        <ele>123.6</ele>
        <time>2023-12-20T14:13:36Z</time>
      </trkpt>
      <trkpt lat="48.60303" lon="2.08751">
        <ele>123.6</ele>
        <time>2023-12-20T14:13:37Z</time>
      </trkpt>
      <trkpt lat="48.60302" lon="2.08742">
        <ele>123.2</ele>
        <time>2023-12-20T14:13:38Z</time>
      </trkpt>
      <trkpt lat="48.60301" lon="2.08734">
        <ele>123.2</ele>
        <time>2023-12-20T14:13:39Z</time>
      </trkpt>
      <trkpt lat="48.603" lon="2.08725">
        <ele>123.2</ele>
        <time>2023-12-20T14:13:40Z</time>
      </trkpt>
      <trkpt lat="48.60299" lon="2.08717">
        <ele>123.2</ele>
        <time>2023-12-20T14:13:41Z</time>
      </trkpt>
      <trkpt lat="48.60297" lon="2.08709">
        <ele>122.2</ele>
        <time>2023-12-20T14:13:42Z</time>
      </trkpt>
      <trkpt lat="48.60296" lon="2.087">
        <ele>122</ele>
        <time>2023-12-20T14:13:43Z</time>
      </trkpt>
      <trkpt lat="48.60294" lon="2.08691">
        <ele>122</ele>
        <time>2023-12-20T14:13:44Z</time>
      </trkpt>
      <trkpt lat="48.60293" lon="2.08682">
        <ele>122</ele>
        <time>2023-12-20T14:13:45Z</time>
      </trkpt>
      <trkpt lat="48.60292" lon="2.08673">
        <ele>122</ele>
        <time>2023-12-20T14:13:46Z</time>
      </trkpt>
      <trkpt lat="48.6029" lon="2.08664">
        <ele>122.2</ele>
        <time>2023-12-20T14:13:47Z</time>
      </trkpt>
      <trkpt lat="48.60289" lon="2.08655">
        <ele>122.2</ele>
        <time>2023-12-20T14:13:48Z</time>
      </trkpt>
      <trkpt lat="48.60287" lon="2.08646">
        <ele>122.2</ele>
        <time>2023-12-20T14:13:49Z</time>
      </trkpt>
      <trkpt lat="48.60286" lon="2.08637">
        <ele>122.2</ele>
        <time>2023-12-20T14:13:50Z</time>
      </trkpt>
      <trkpt lat="48.60286" lon="2.08628">
        <ele>121.6</ele>
        <time>2023-12-20T14:13:51Z</time>
      </trkpt>
      <trkpt lat="48.60286" lon="2.08619">
        <ele>121.6</ele>
        <time>2023-12-20T14:13:52Z</time>
      </trkpt>
      <trkpt lat="48.60286" lon="2.0861">
        <ele>121.6</ele>
        <time>2023-12-20T14:13:53Z</time>
      </trkpt>
      <trkpt lat="48.60286" lon="2.08601">
        <ele>122.6</ele>
        <time>2023-12-20T14:13:54Z</time>
      </trkpt>
      <trkpt lat="48.60285" lon="2.08592">
        <ele>123.4</ele>
        <time>2023-12-20T14:13:55Z</time>
      </trkpt>
      <trkpt lat="48.60285" lon="2.08584">
        <ele>123.4</ele>
        <time>2023-12-20T14:13:56Z</time>
      </trkpt>
      <trkpt lat="48.60284" lon="2.08576">
        <ele>123.4</ele>
        <time>2023-12-20T14:13:57Z</time>
      </trkpt>
      <trkpt lat="48.60282" lon="2.08569">
        <ele>123.4</ele>
        <time>2023-12-20T14:13:58Z</time>
      </trkpt>
      <trkpt lat="48.60281" lon="2.08562">
        <ele>124.6</ele>
        <time>2023-12-20T14:13:59Z</time>
      </trkpt>
      <trkpt lat="48.6028" lon="2.08556">
        <ele>124.6</ele>
        <time>2023-12-20T14:14:00Z</time>
      </trkpt>
      <trkpt lat="48.60278" lon="2.0855">
        <ele>124.6</ele>
        <time>2023-12-20T14:14:01Z</time>
      </trkpt>
      <trkpt lat="48.60276" lon="2.08544">
        <ele>123.6</ele>
        <time>2023-12-20T14:14:02Z</time>
      </trkpt>
      <trkpt lat="48.60274" lon="2.08536">
        <ele>122.6</ele>
        <time>2023-12-20T14:14:03Z</time>
      </trkpt>
      <trkpt lat="48.60272" lon="2.08528">
        <ele>122.6</ele>
        <time>2023-12-20T14:14:04Z</time>
      </trkpt>
      <trkpt lat="48.6027" lon="2.0852">
        <ele>122.6</ele>
        <time>2023-12-20T14:14:05Z</time>
      </trkpt>
      <trkpt lat="48.60268" lon="2.08512">
        <ele>122.6</ele>
        <time>2023-12-20T14:14:06Z</time>
      </trkpt>
      <trkpt lat="48.60267" lon="2.08503">
        <ele>120.6</ele>
        <time>2023-12-20T14:14:07Z</time>
      </trkpt>
      <trkpt lat="48.60265" lon="2.08494">
        <ele>120.6</ele>
        <time>2023-12-20T14:14:08Z</time>
      </trkpt>
      <trkpt lat="48.60263" lon="2.08485">
        <ele>120.6</ele>
        <time>2023-12-20T14:14:09Z</time>
      </trkpt>
      <trkpt lat="48.6026" lon="2.08476">
        <ele>120</ele>
        <time>2023-12-20T14:14:10Z</time>
      </trkpt>
      <trkpt lat="48.60258" lon="2.08467">
        <ele>119.4</ele>
        <time>2023-12-20T14:14:11Z</time>
      </trkpt>
      <trkpt lat="48.60256" lon="2.08457">
        <ele>119.4</ele>
        <time>2023-12-20T14:14:12Z</time>
      </trkpt>
      <trkpt lat="48.60254" lon="2.08447">
        <ele>119.4</ele>
        <time>2023-12-20T14:14:13Z</time>
      </trkpt>
      <trkpt lat="48.60251" lon="2.08437">
        <ele>119.4</ele>
        <time>2023-12-20T14:14:14Z</time>
      </trkpt>
      <trkpt lat="48.60249" lon="2.08427">
        <ele>119.6</ele>
        <time>2023-12-20T14:14:15Z</time>
      </trkpt>
      <trkpt lat="48.60248" lon="2.08416">
        <ele>119.6</ele>
        <time>2023-12-20T14:14:16Z</time>
      </trkpt>
      <trkpt lat="48.60246" lon="2.08406">
        <ele>119.6</ele>
        <time>2023-12-20T14:14:17Z</time>
      </trkpt>
      <trkpt lat="48.60243" lon="2.08396">
        <ele>119.6</ele>
        <time>2023-12-20T14:14:18Z</time>
      </trkpt>
      <trkpt lat="48.60241" lon="2.08386">
        <ele>119</ele>
        <time>2023-12-20T14:14:19Z</time>
      </trkpt>
      <trkpt lat="48.60239" lon="2.08375">
        <ele>119</ele>
        <time>2023-12-20T14:14:20Z</time>
      </trkpt>
      <trkpt lat="48.60237" lon="2.08365">
        <ele>119</ele>
        <time>2023-12-20T14:14:21Z</time>
      </trkpt>
      <trkpt lat="48.60235" lon="2.08355">
        <ele>120</ele>
        <time>2023-12-20T14:14:22Z</time>
      </trkpt>
      <trkpt lat="48.60234" lon="2.08345">
        <ele>120.4</ele>
        <time>2023-12-20T14:14:23Z</time>
      </trkpt>
      <trkpt lat="48.60232" lon="2.08335">
        <ele>120.4</ele>
        <time>2023-12-20T14:14:24Z</time>
      </trkpt>
      <trkpt lat="48.60229" lon="2.08325">
        <ele>120.4</ele>
        <time>2023-12-20T14:14:25Z</time>
      </trkpt>
      <trkpt lat="48.60227" lon="2.08316">
        <ele>120.2</ele>
        <time>2023-12-20T14:14:26Z</time>
      </trkpt>
      <trkpt lat="48.60224" lon="2.08307">
        <ele>120.4</ele>
        <time>2023-12-20T14:14:27Z</time>
      </trkpt>
      <trkpt lat="48.60221" lon="2.08298">
        <ele>120.4</ele>
        <time>2023-12-20T14:14:28Z</time>
      </trkpt>
      <trkpt lat="48.60218" lon="2.08289">
        <ele>120.4</ele>
        <time>2023-12-20T14:14:29Z</time>
      </trkpt>
      <trkpt lat="48.60214" lon="2.0828">
        <ele>120.4</ele>
        <time>2023-12-20T14:14:30Z</time>
      </trkpt>
      <trkpt lat="48.6021" lon="2.08271">
        <ele>119.6</ele>
        <time>2023-12-20T14:14:31Z</time>
      </trkpt>
      <trkpt lat="48.60206" lon="2.08262">
        <ele>119.6</ele>
        <time>2023-12-20T14:14:32Z</time>
      </trkpt>
      <trkpt lat="48.60203" lon="2.08254">
        <ele>119.6</ele>
        <time>2023-12-20T14:14:33Z</time>
      </trkpt>
      <trkpt lat="48.60199" lon="2.08245">
        <ele>120.2</ele>
        <time>2023-12-20T14:14:34Z</time>
      </trkpt>
      <trkpt lat="48.60195" lon="2.08236">
        <ele>120.6</ele>
        <time>2023-12-20T14:14:35Z</time>
      </trkpt>
      <trkpt lat="48.60191" lon="2.08228">
        <ele>120.6</ele>
        <time>2023-12-20T14:14:36Z</time>
      </trkpt>
      <trkpt lat="48.60187" lon="2.08219">
        <ele>120.6</ele>
        <time>2023-12-20T14:14:37Z</time>
      </trkpt>
      <trkpt lat="48.60182" lon="2.0821">
        <ele>121.2</ele>
        <time>2023-12-20T14:14:38Z</time>
      </trkpt>
      <trkpt lat="48.60178" lon="2.08202">
        <ele>121.4</ele>
        <time>2023-12-20T14:14:39Z</time>
      </trkpt>
      <trkpt lat="48.60175" lon="2.08193">
        <ele>121.4</ele>
        <time>2023-12-20T14:14:40Z</time>
      </trkpt>
      <trkpt lat="48.60171" lon="2.08183">
        <ele>121.4</ele>
        <time>2023-12-20T14:14:41Z</time>
      </trkpt>
      <trkpt lat="48.60167" lon="2.08174">
        <ele>121.4</ele>
        <time>2023-12-20T14:14:42Z</time>
      </trkpt>
      <trkpt lat="48.60163" lon="2.08166">
        <ele>121.2</ele>
        <time>2023-12-20T14:14:43Z</time>
      </trkpt>
      <trkpt lat="48.60158" lon="2.08158">
        <ele>121.2</ele>
        <time>2023-12-20T14:14:44Z</time>
      </trkpt>
      <trkpt lat="48.60154" lon="2.0815">
        <ele>121.2</ele>
        <time>2023-12-20T14:14:45Z</time>
      </trkpt>
      <trkpt lat="48.60149" lon="2.08142">
        <ele>121.8</ele>
        <time>2023-12-20T14:14:46Z</time>
      </trkpt>
      <trkpt lat="48.60144" lon="2.08135">
        <ele>122.2</ele>
        <time>2023-12-20T14:14:47Z</time>
      </trkpt>
      <trkpt lat="48.6014" lon="2.08127">
        <ele>122.2</ele>
        <time>2023-12-20T14:14:48Z</time>
      </trkpt>
      <trkpt lat="48.60135" lon="2.08119">
        <ele>122.2</ele>
        <time>2023-12-20T14:14:49Z</time>
      </trkpt>
      <trkpt lat="48.6013" lon="2.08111">
        <ele>122.2</ele>
        <time>2023-12-20T14:14:50Z</time>
      </trkpt>
      <trkpt lat="48.60126" lon="2.08103">
        <ele>119.4</ele>
        <time>2023-12-20T14:14:51Z</time>
      </trkpt>
      <trkpt lat="48.60122" lon="2.08096">
        <ele>119.4</ele>
        <time>2023-12-20T14:14:52Z</time>
      </trkpt>
      <trkpt lat="48.60118" lon="2.08089">
        <ele>119.4</ele>
        <time>2023-12-20T14:14:53Z</time>
      </trkpt>
      <trkpt lat="48.60113" lon="2.08083">
        <ele>120.4</ele>
        <time>2023-12-20T14:14:54Z</time>
      </trkpt>
      <trkpt lat="48.60109" lon="2.08077">
        <ele>124</ele>
        <time>2023-12-20T14:14:55Z</time>
      </trkpt>
      <trkpt lat="48.60104" lon="2.08071">
        <ele>124</ele>
        <time>2023-12-20T14:14:56Z</time>
      </trkpt>
      <trkpt lat="48.601" lon="2.08065">
        <ele>124</ele>
        <time>2023-12-20T14:14:57Z</time>
      </trkpt>
      <trkpt lat="48.60095" lon="2.08059">
        <ele>123.4</ele>
        <time>2023-12-20T14:14:58Z</time>
      </trkpt>
      <trkpt lat="48.60091" lon="2.08052">
        <ele>123.6</ele>
        <time>2023-12-20T14:14:59Z</time>
      </trkpt>
      <trkpt lat="48.60087" lon="2.08046">
        <ele>123.6</ele>
        <time>2023-12-20T14:15:00Z</time>
      </trkpt>
      <trkpt lat="48.60082" lon="2.0804">
        <ele>123.6</ele>
        <time>2023-12-20T14:15:01Z</time>
      </trkpt>
      <trkpt lat="48.60078" lon="2.08033">
        <ele>123.6</ele>
        <time>2023-12-20T14:15:02Z</time>
      </trkpt>
      <trkpt lat="48.60073" lon="2.08027">
        <ele>123.6</ele>
        <time>2023-12-20T14:15:03Z</time>
      </trkpt>
      <trkpt lat="48.60069" lon="2.08021">
        <ele>123.6</ele>
        <time>2023-12-20T14:15:04Z</time>
      </trkpt>
      <trkpt lat="48.60064" lon="2.08015">
        <ele>123.6</ele>
        <time>2023-12-20T14:15:05Z</time>
      </trkpt>
      <trkpt lat="48.6006" lon="2.08008">
        <ele>123.6</ele>
        <time>2023-12-20T14:15:06Z</time>
      </trkpt>
      <trkpt lat="48.60055" lon="2.08002">
        <ele>124</ele>
        <time>2023-12-20T14:15:07Z</time>
      </trkpt>
      <trkpt lat="48.6005" lon="2.07996">
        <ele>124</ele>
        <time>2023-12-20T14:15:08Z</time>
      </trkpt>
      <trkpt lat="48.60046" lon="2.0799">
        <ele>124</ele>
        <time>2023-12-20T14:15:09Z</time>
      </trkpt>
      <trkpt lat="48.60042" lon="2.07983">
        <ele>124</ele>
        <time>2023-12-20T14:15:10Z</time>
      </trkpt>
      <trkpt lat="48.60038" lon="2.07977">
        <ele>122.6</ele>
        <time>2023-12-20T14:15:11Z</time>
      </trkpt>
      <trkpt lat="48.60033" lon="2.07971">
        <ele>122.6</ele>
        <time>2023-12-20T14:15:12Z</time>
      </trkpt>
      <trkpt lat="48.60029" lon="2.07965">
        <ele>122.6</ele>
        <time>2023-12-20T14:15:13Z</time>
      </trkpt>
      <trkpt lat="48.60024" lon="2.07959">
        <ele>123.2</ele>
        <time>2023-12-20T14:15:14Z</time>
      </trkpt>
      <trkpt lat="48.6002" lon="2.07953">
        <ele>123.2</ele>
        <time>2023-12-20T14:15:15Z</time>
      </trkpt>
      <trkpt lat="48.60016" lon="2.07947">
        <ele>123.2</ele>
        <time>2023-12-20T14:15:16Z</time>
      </trkpt>
      <trkpt lat="48.60012" lon="2.0794">
        <ele>123.2</ele>
        <time>2023-12-20T14:15:17Z</time>
      </trkpt>
      <trkpt lat="48.60008" lon="2.07934">
        <ele>124</ele>
        <time>2023-12-20T14:15:18Z</time>
      </trkpt>
      <trkpt lat="48.60004" lon="2.07928">
        <ele>123.2</ele>
        <time>2023-12-20T14:15:19Z</time>
      </trkpt>
      <trkpt lat="48.59999" lon="2.07922">
        <ele>123.2</ele>
        <time>2023-12-20T14:15:20Z</time>
      </trkpt>
      <trkpt lat="48.59995" lon="2.07915">
        <ele>123.2</ele>
        <time>2023-12-20T14:15:21Z</time>
      </trkpt>
      <trkpt lat="48.59991" lon="2.07909">
        <ele>123.2</ele>
        <time>2023-12-20T14:15:22Z</time>
      </trkpt>
      <trkpt lat="48.59987" lon="2.07902">
        <ele>124</ele>
        <time>2023-12-20T14:15:23Z</time>
      </trkpt>
      <trkpt lat="48.59983" lon="2.07896">
        <ele>124</ele>
        <time>2023-12-20T14:15:24Z</time>
      </trkpt>
      <trkpt lat="48.59979" lon="2.07889">
        <ele>124</ele>
        <time>2023-12-20T14:15:25Z</time>
      </trkpt>
      <trkpt lat="48.59975" lon="2.07883">
        <ele>123</ele>
        <time>2023-12-20T14:15:26Z</time>
      </trkpt>
      <trkpt lat="48.59971" lon="2.07876">
        <ele>123.6</ele>
        <time>2023-12-20T14:15:27Z</time>
      </trkpt>
      <trkpt lat="48.59967" lon="2.0787">
        <ele>123.6</ele>
        <time>2023-12-20T14:15:28Z</time>
      </trkpt>
      <trkpt lat="48.59963" lon="2.07863">
        <ele>123.6</ele>
        <time>2023-12-20T14:15:29Z</time>
      </trkpt>
      <trkpt lat="48.59959" lon="2.07856">
        <ele>123.6</ele>
        <time>2023-12-20T14:15:30Z</time>
      </trkpt>
      <trkpt lat="48.59955" lon="2.07849">
        <ele>123.4</ele>
        <time>2023-12-20T14:15:31Z</time>
      </trkpt>
      <trkpt lat="48.59951" lon="2.07843">
        <ele>123.4</ele>
        <time>2023-12-20T14:15:32Z</time>
      </trkpt>
      <trkpt lat="48.59947" lon="2.07836">
        <ele>123.4</ele>
        <time>2023-12-20T14:15:33Z</time>
      </trkpt>
      <trkpt lat="48.59942" lon="2.07829">
        <ele>123.4</ele>
        <time>2023-12-20T14:15:34Z</time>
      </trkpt>
      <trkpt lat="48.59938" lon="2.07823">
        <ele>121.2</ele>
        <time>2023-12-20T14:15:35Z</time>
      </trkpt>
      <trkpt lat="48.59934" lon="2.07816">
        <ele>121.2</ele>
        <time>2023-12-20T14:15:36Z</time>
      </trkpt>
      <trkpt lat="48.5993" lon="2.07809">
        <ele>121.2</ele>
        <time>2023-12-20T14:15:37Z</time>
      </trkpt>
      <trkpt lat="48.59926" lon="2.07802">
        <ele>121.2</ele>
        <time>2023-12-20T14:15:38Z</time>
      </trkpt>
      <trkpt lat="48.59922" lon="2.07795">
        <ele>121.6</ele>
        <time>2023-12-20T14:15:39Z</time>
      </trkpt>
      <trkpt lat="48.59918" lon="2.07789">
        <ele>121.6</ele>
        <time>2023-12-20T14:15:40Z</time>
      </trkpt>
      <trkpt lat="48.59913" lon="2.07784">
        <ele>121.6</ele>
        <time>2023-12-20T14:15:41Z</time>
      </trkpt>
      <trkpt lat="48.5991" lon="2.07777">
        <ele>121.6</ele>
        <time>2023-12-20T14:15:42Z</time>
      </trkpt>
      <trkpt lat="48.59905" lon="2.07771">
        <ele>122</ele>
        <time>2023-12-20T14:15:43Z</time>
      </trkpt>
      <trkpt lat="48.59901" lon="2.07764">
        <ele>122</ele>
        <time>2023-12-20T14:15:44Z</time>
      </trkpt>
      <trkpt lat="48.59897" lon="2.07757">
        <ele>122</ele>
        <time>2023-12-20T14:15:45Z</time>
      </trkpt>
      <trkpt lat="48.59893" lon="2.07751">
        <ele>122</ele>
        <time>2023-12-20T14:15:46Z</time>
      </trkpt>
      <trkpt lat="48.59889" lon="2.07742">
        <ele>119.2</ele>
        <time>2023-12-20T14:15:47Z</time>
      </trkpt>
      <trkpt lat="48.59886" lon="2.07733">
        <ele>119.2</ele>
        <time>2023-12-20T14:15:48Z</time>
      </trkpt>
      <trkpt lat="48.59883" lon="2.07723">
        <ele>119.2</ele>
        <time>2023-12-20T14:15:49Z</time>
      </trkpt>
      <trkpt lat="48.5988" lon="2.07714">
        <ele>118.2</ele>
        <time>2023-12-20T14:15:50Z</time>
      </trkpt>
      <trkpt lat="48.59877" lon="2.07705">
        <ele>118.2</ele>
        <time>2023-12-20T14:15:51Z</time>
      </trkpt>
      <trkpt lat="48.59874" lon="2.07695">
        <ele>118.2</ele>
        <time>2023-12-20T14:15:52Z</time>
      </trkpt>
      <trkpt lat="48.59869" lon="2.07686">
        <ele>118.2</ele>
        <time>2023-12-20T14:15:53Z</time>
      </trkpt>
      <trkpt lat="48.59867" lon="2.07678">
        <ele>117.2</ele>
        <time>2023-12-20T14:15:54Z</time>
      </trkpt>
      <trkpt lat="48.59862" lon="2.0767">
        <ele>116.2</ele>
        <time>2023-12-20T14:15:55Z</time>
      </trkpt>
      <trkpt lat="48.59856" lon="2.07662">
        <ele>116.2</ele>
        <time>2023-12-20T14:15:56Z</time>
      </trkpt>
      <trkpt lat="48.59851" lon="2.07656">
        <ele>116.2</ele>
        <time>2023-12-20T14:15:57Z</time>
      </trkpt>
      <trkpt lat="48.59844" lon="2.0765">
        <ele>115.2</ele>
        <time>2023-12-20T14:15:58Z</time>
      </trkpt>
      <trkpt lat="48.59837" lon="2.07642">
        <ele>113</ele>
        <time>2023-12-20T14:15:59Z</time>
      </trkpt>
      <trkpt lat="48.59829" lon="2.07636">
        <ele>113</ele>
        <time>2023-12-20T14:16:00Z</time>
      </trkpt>
      <trkpt lat="48.5982" lon="2.07629">
        <ele>113</ele>
        <time>2023-12-20T14:16:01Z</time>
      </trkpt>
      <trkpt lat="48.59812" lon="2.07622">
        <ele>113.2</ele>
        <time>2023-12-20T14:16:02Z</time>
      </trkpt>
      <trkpt lat="48.59803" lon="2.07616">
        <ele>113.2</ele>
        <time>2023-12-20T14:16:03Z</time>
      </trkpt>
      <trkpt lat="48.59795" lon="2.0761">
        <ele>113.2</ele>
        <time>2023-12-20T14:16:04Z</time>
      </trkpt>
      <trkpt lat="48.59786" lon="2.07604">
        <ele>113.2</ele>
        <time>2023-12-20T14:16:05Z</time>
      </trkpt>
      <trkpt lat="48.59778" lon="2.07599">
        <ele>113.2</ele>
        <time>2023-12-20T14:16:06Z</time>
      </trkpt>
      <trkpt lat="48.59769" lon="2.07593">
        <ele>112.8</ele>
        <time>2023-12-20T14:16:07Z</time>
      </trkpt>
      <trkpt lat="48.59761" lon="2.07587">
        <ele>112.8</ele>
        <time>2023-12-20T14:16:08Z</time>
      </trkpt>
      <trkpt lat="48.59754" lon="2.0758">
        <ele>112.8</ele>
        <time>2023-12-20T14:16:09Z</time>
      </trkpt>
      <trkpt lat="48.59746" lon="2.07573">
        <ele>113.8</ele>
        <time>2023-12-20T14:16:10Z</time>
      </trkpt>
      <trkpt lat="48.59739" lon="2.07565">
        <ele>113.4</ele>
        <time>2023-12-20T14:16:11Z</time>
      </trkpt>
      <trkpt lat="48.59733" lon="2.07556">
        <ele>113.4</ele>
        <time>2023-12-20T14:16:12Z</time>
      </trkpt>
      <trkpt lat="48.59727" lon="2.07546">
        <ele>113.4</ele>
        <time>2023-12-20T14:16:13Z</time>
      </trkpt>
      <trkpt lat="48.59722" lon="2.07536">
        <ele>113.4</ele>
        <time>2023-12-20T14:16:14Z</time>
      </trkpt>
      <trkpt lat="48.59717" lon="2.07526">
        <ele>113</ele>
        <time>2023-12-20T14:16:15Z</time>
      </trkpt>
      <trkpt lat="48.59713" lon="2.07515">
        <ele>113</ele>
        <time>2023-12-20T14:16:16Z</time>
      </trkpt>
      <trkpt lat="48.59709" lon="2.07505">
        <ele>113</ele>
        <time>2023-12-20T14:16:17Z</time>
      </trkpt>
      <trkpt lat="48.59704" lon="2.07496">
        <ele>114</ele>
        <time>2023-12-20T14:16:18Z</time>
      </trkpt>
      <trkpt lat="48.597" lon="2.07486">
        <ele>114.4</ele>
        <time>2023-12-20T14:16:19Z</time>
      </trkpt>
      <trkpt lat="48.59695" lon="2.07477">
        <ele>114.4</ele>
        <time>2023-12-20T14:16:20Z</time>
      </trkpt>
      <trkpt lat="48.59691" lon="2.07468">
        <ele>114.4</ele>
        <time>2023-12-20T14:16:21Z</time>
      </trkpt>
      <trkpt lat="48.59687" lon="2.0746">
        <ele>115.4</ele>
        <time>2023-12-20T14:16:22Z</time>
      </trkpt>
      <trkpt lat="48.59682" lon="2.07452">
        <ele>115.4</ele>
        <time>2023-12-20T14:16:23Z</time>
      </trkpt>
      <trkpt lat="48.59678" lon="2.07444">
        <ele>115.4</ele>
        <time>2023-12-20T14:16:24Z</time>
      </trkpt>
      <trkpt lat="48.59673" lon="2.07437">
        <ele>115.4</ele>
        <time>2023-12-20T14:16:25Z</time>
      </trkpt>
      <trkpt lat="48.59669" lon="2.0743">
        <ele>115.4</ele>
        <time>2023-12-20T14:16:26Z</time>
      </trkpt>
      <trkpt lat="48.59664" lon="2.07423">
        <ele>116.2</ele>
        <time>2023-12-20T14:16:27Z</time>
      </trkpt>
      <trkpt lat="48.5966" lon="2.07416">
        <ele>116.2</ele>
        <time>2023-12-20T14:16:28Z</time>
      </trkpt>
      <trkpt lat="48.59656" lon="2.07409">
        <ele>116.2</ele>
        <time>2023-12-20T14:16:29Z</time>
      </trkpt>
      <trkpt lat="48.59651" lon="2.07403">
        <ele>116.2</ele>
        <time>2023-12-20T14:16:30Z</time>
      </trkpt>
      <trkpt lat="48.59647" lon="2.07396">
        <ele>116</ele>
        <time>2023-12-20T14:16:31Z</time>
      </trkpt>
      <trkpt lat="48.59644" lon="2.0739">
        <ele>116</ele>
        <time>2023-12-20T14:16:32Z</time>
      </trkpt>
      <trkpt lat="48.59639" lon="2.07385">
        <ele>116</ele>
        <time>2023-12-20T14:16:33Z</time>
      </trkpt>
      <trkpt lat="48.59635" lon="2.07378">
        <ele>116.6</ele>
        <time>2023-12-20T14:16:34Z</time>
      </trkpt>
      <trkpt lat="48.59631" lon="2.07372">
        <ele>116.4</ele>
        <time>2023-12-20T14:16:35Z</time>
      </trkpt>
      <trkpt lat="48.59627" lon="2.07367">
        <ele>116.4</ele>
        <time>2023-12-20T14:16:36Z</time>
      </trkpt>
      <trkpt lat="48.59623" lon="2.07362">
        <ele>116.4</ele>
        <time>2023-12-20T14:16:37Z</time>
      </trkpt>
      <trkpt lat="48.59619" lon="2.07357">
        <ele>117.2</ele>
        <time>2023-12-20T14:16:38Z</time>
      </trkpt>
      <trkpt lat="48.59615" lon="2.07352">
        <ele>117.8</ele>
        <time>2023-12-20T14:16:39Z</time>
      </trkpt>
      <trkpt lat="48.59611" lon="2.07347">
        <ele>117.8</ele>
        <time>2023-12-20T14:16:40Z</time>
      </trkpt>
      <trkpt lat="48.59607" lon="2.07342">
        <ele>117.8</ele>
        <time>2023-12-20T14:16:41Z</time>
      </trkpt>
      <trkpt lat="48.59603" lon="2.07338">
        <ele>118.4</ele>
        <time>2023-12-20T14:16:42Z</time>
      </trkpt>
      <trkpt lat="48.59598" lon="2.07335">
        <ele>118.8</ele>
        <time>2023-12-20T14:16:43Z</time>
      </trkpt>
      <trkpt lat="48.59594" lon="2.07331">
        <ele>118.8</ele>
        <time>2023-12-20T14:16:44Z</time>
      </trkpt>
      <trkpt lat="48.59589" lon="2.07328">
        <ele>118.8</ele>
        <time>2023-12-20T14:16:45Z</time>
      </trkpt>
      <trkpt lat="48.59585" lon="2.07324">
        <ele>118.8</ele>
        <time>2023-12-20T14:16:46Z</time>
      </trkpt>
      <trkpt lat="48.5958" lon="2.0732">
        <ele>119.6</ele>
        <time>2023-12-20T14:16:47Z</time>
      </trkpt>
      <trkpt lat="48.59576" lon="2.07316">
        <ele>119.6</ele>
        <time>2023-12-20T14:16:48Z</time>
      </trkpt>
      <trkpt lat="48.59571" lon="2.07313">
        <ele>119.6</ele>
        <time>2023-12-20T14:16:49Z</time>
      </trkpt>
      <trkpt lat="48.59567" lon="2.07309">
        <ele>119.6</ele>
        <time>2023-12-20T14:16:50Z</time>
      </trkpt>
      <trkpt lat="48.59562" lon="2.07305">
        <ele>119.8</ele>
        <time>2023-12-20T14:16:51Z</time>
      </trkpt>
      <trkpt lat="48.59558" lon="2.07301">
        <ele>119.8</ele>
        <time>2023-12-20T14:16:52Z</time>
      </trkpt>
      <trkpt lat="48.59554" lon="2.07298">
        <ele>119.8</ele>
        <time>2023-12-20T14:16:53Z</time>
      </trkpt>
      <trkpt lat="48.59549" lon="2.07294">
        <ele>119.8</ele>
        <time>2023-12-20T14:16:54Z</time>
      </trkpt>
      <trkpt lat="48.59545" lon="2.0729">
        <ele>119.6</ele>
        <time>2023-12-20T14:16:55Z</time>
      </trkpt>
      <trkpt lat="48.59541" lon="2.07286">
        <ele>119.6</ele>
        <time>2023-12-20T14:16:56Z</time>
      </trkpt>
      <trkpt lat="48.59537" lon="2.07283">
        <ele>119.6</ele>
        <time>2023-12-20T14:16:57Z</time>
      </trkpt>
      <trkpt lat="48.59532" lon="2.07279">
        <ele>119.6</ele>
        <time>2023-12-20T14:16:58Z</time>
      </trkpt>
      <trkpt lat="48.59528" lon="2.07274">
        <ele>120</ele>
        <time>2023-12-20T14:16:59Z</time>
      </trkpt>
      <trkpt lat="48.59525" lon="2.0727">
        <ele>120</ele>
        <time>2023-12-20T14:17:00Z</time>
      </trkpt>
      <trkpt lat="48.5952" lon="2.07265">
        <ele>120</ele>
        <time>2023-12-20T14:17:01Z</time>
      </trkpt>
      <trkpt lat="48.59516" lon="2.0726">
        <ele>120</ele>
        <time>2023-12-20T14:17:02Z</time>
      </trkpt>
      <trkpt lat="48.59512" lon="2.07256">
        <ele>120.4</ele>
        <time>2023-12-20T14:17:03Z</time>
      </trkpt>
      <trkpt lat="48.59508" lon="2.0725">
        <ele>120.4</ele>
        <time>2023-12-20T14:17:04Z</time>
      </trkpt>
      <trkpt lat="48.59505" lon="2.07245">
        <ele>120.4</ele>
        <time>2023-12-20T14:17:05Z</time>
      </trkpt>
      <trkpt lat="48.59501" lon="2.0724">
        <ele>121.4</ele>
        <time>2023-12-20T14:17:06Z</time>
      </trkpt>
      <trkpt lat="48.59498" lon="2.07236">
        <ele>122.4</ele>
        <time>2023-12-20T14:17:07Z</time>
      </trkpt>
      <trkpt lat="48.59495" lon="2.07231">
        <ele>122.4</ele>
        <time>2023-12-20T14:17:08Z</time>
      </trkpt>
      <trkpt lat="48.59492" lon="2.07227">
        <ele>122.4</ele>
        <time>2023-12-20T14:17:09Z</time>
      </trkpt>
      <trkpt lat="48.59488" lon="2.07222">
        <ele>122.2</ele>
        <time>2023-12-20T14:17:10Z</time>
      </trkpt>
      <trkpt lat="48.59484" lon="2.07218">
        <ele>122.2</ele>
        <time>2023-12-20T14:17:11Z</time>
      </trkpt>
      <trkpt lat="48.59481" lon="2.07213">
        <ele>122.2</ele>
        <time>2023-12-20T14:17:12Z</time>
      </trkpt>
      <trkpt lat="48.59477" lon="2.07208">
        <ele>122.2</ele>
        <time>2023-12-20T14:17:13Z</time>
      </trkpt>
      <trkpt lat="48.59474" lon="2.07203">
        <ele>122.2</ele>
        <time>2023-12-20T14:17:14Z</time>
      </trkpt>
      <trkpt lat="48.5947" lon="2.07197">
        <ele>122.4</ele>
        <time>2023-12-20T14:17:15Z</time>
      </trkpt>
      <trkpt lat="48.59467" lon="2.07192">
        <ele>122.4</ele>
        <time>2023-12-20T14:17:16Z</time>
      </trkpt>
      <trkpt lat="48.59463" lon="2.07187">
        <ele>122.4</ele>
        <time>2023-12-20T14:17:17Z</time>
      </trkpt>
      <trkpt lat="48.5946" lon="2.07182">
        <ele>122.4</ele>
        <time>2023-12-20T14:17:18Z</time>
      </trkpt>
      <trkpt lat="48.59457" lon="2.07177">
        <ele>122.6</ele>
        <time>2023-12-20T14:17:19Z</time>
      </trkpt>
      <trkpt lat="48.59455" lon="2.07172">
        <ele>122.6</ele>
        <time>2023-12-20T14:17:20Z</time>
      </trkpt>
      <trkpt lat="48.59451" lon="2.07167">
        <ele>122.6</ele>
        <time>2023-12-20T14:17:21Z</time>
      </trkpt>
      <trkpt lat="48.59448" lon="2.07163">
        <ele>122.6</ele>
        <time>2023-12-20T14:17:22Z</time>
      </trkpt>
      <trkpt lat="48.59445" lon="2.07158">
        <ele>123</ele>
        <time>2023-12-20T14:17:23Z</time>
      </trkpt>
      <trkpt lat="48.59442" lon="2.07153">
        <ele>123</ele>
        <time>2023-12-20T14:17:24Z</time>
      </trkpt>
      <trkpt lat="48.59439" lon="2.07149">
        <ele>123</ele>
        <time>2023-12-20T14:17:25Z</time>
      </trkpt>
      <trkpt lat="48.59435" lon="2.07144">
        <ele>123.2</ele>
        <time>2023-12-20T14:17:26Z</time>
      </trkpt>
      <trkpt lat="48.59431" lon="2.07139">
        <ele>123.2</ele>
        <time>2023-12-20T14:17:27Z</time>
      </trkpt>
      <trkpt lat="48.59428" lon="2.07135">
        <ele>123.2</ele>
        <time>2023-12-20T14:17:28Z</time>
      </trkpt>
      <trkpt lat="48.59424" lon="2.0713">
        <ele>123.2</ele>
        <time>2023-12-20T14:17:29Z</time>
      </trkpt>
      <trkpt lat="48.59421" lon="2.07124">
        <ele>123.2</ele>
        <time>2023-12-20T14:17:30Z</time>
      </trkpt>
      <trkpt lat="48.59417" lon="2.0712">
        <ele>122.8</ele>
        <time>2023-12-20T14:17:31Z</time>
      </trkpt>
      <trkpt lat="48.59414" lon="2.07114">
        <ele>122.8</ele>
        <time>2023-12-20T14:17:32Z</time>
      </trkpt>
      <trkpt lat="48.5941" lon="2.07109">
        <ele>122.8</ele>
        <time>2023-12-20T14:17:33Z</time>
      </trkpt>
      <trkpt lat="48.59407" lon="2.07104">
        <ele>122.8</ele>
        <time>2023-12-20T14:17:34Z</time>
      </trkpt>
      <trkpt lat="48.59404" lon="2.07099">
        <ele>122.6</ele>
        <time>2023-12-20T14:17:35Z</time>
      </trkpt>
      <trkpt lat="48.594" lon="2.07094">
        <ele>122.6</ele>
        <time>2023-12-20T14:17:36Z</time>
      </trkpt>
      <trkpt lat="48.59396" lon="2.07089">
        <ele>122.6</ele>
        <time>2023-12-20T14:17:37Z</time>
      </trkpt>
      <trkpt lat="48.59392" lon="2.07084">
        <ele>123.6</ele>
        <time>2023-12-20T14:17:38Z</time>
      </trkpt>
      <trkpt lat="48.59389" lon="2.0708">
        <ele>123.4</ele>
        <time>2023-12-20T14:17:39Z</time>
      </trkpt>
      <trkpt lat="48.59385" lon="2.07075">
        <ele>123.4</ele>
        <time>2023-12-20T14:17:40Z</time>
      </trkpt>
      <trkpt lat="48.59382" lon="2.07071">
        <ele>123.4</ele>
        <time>2023-12-20T14:17:41Z</time>
      </trkpt>
      <trkpt lat="48.59378" lon="2.07066">
        <ele>124.2</ele>
        <time>2023-12-20T14:17:42Z</time>
      </trkpt>
      <trkpt lat="48.59374" lon="2.07062">
        <ele>124.2</ele>
        <time>2023-12-20T14:17:43Z</time>
      </trkpt>
      <trkpt lat="48.5937" lon="2.07057">
        <ele>124.2</ele>
        <time>2023-12-20T14:17:44Z</time>
      </trkpt>
      <trkpt lat="48.59365" lon="2.07053">
        <ele>124.2</ele>
        <time>2023-12-20T14:17:45Z</time>
      </trkpt>
      <trkpt lat="48.59361" lon="2.07048">
        <ele>124.2</ele>
        <time>2023-12-20T14:17:46Z</time>
      </trkpt>
      <trkpt lat="48.59357" lon="2.07044">
        <ele>125</ele>
        <time>2023-12-20T14:17:47Z</time>
      </trkpt>
      <trkpt lat="48.59353" lon="2.07039">
        <ele>125</ele>
        <time>2023-12-20T14:17:48Z</time>
      </trkpt>
      <trkpt lat="48.5935" lon="2.07035">
        <ele>125</ele>
        <time>2023-12-20T14:17:49Z</time>
      </trkpt>
      <trkpt lat="48.59346" lon="2.0703">
        <ele>124.4</ele>
        <time>2023-12-20T14:17:50Z</time>
      </trkpt>
      <trkpt lat="48.59342" lon="2.07025">
        <ele>124.6</ele>
        <time>2023-12-20T14:17:51Z</time>
      </trkpt>
      <trkpt lat="48.59338" lon="2.0702">
        <ele>124.6</ele>
        <time>2023-12-20T14:17:52Z</time>
      </trkpt>
      <trkpt lat="48.59334" lon="2.07015">
        <ele>124.6</ele>
        <time>2023-12-20T14:17:53Z</time>
      </trkpt>
      <trkpt lat="48.5933" lon="2.0701">
        <ele>125.4</ele>
        <time>2023-12-20T14:17:54Z</time>
      </trkpt>
      <trkpt lat="48.59326" lon="2.07005">
        <ele>125.8</ele>
        <time>2023-12-20T14:17:55Z</time>
      </trkpt>
      <trkpt lat="48.59323" lon="2.07">
        <ele>125.8</ele>
        <time>2023-12-20T14:17:56Z</time>
      </trkpt>
      <trkpt lat="48.59319" lon="2.06995">
        <ele>125.8</ele>
        <time>2023-12-20T14:17:57Z</time>
      </trkpt>
      <trkpt lat="48.59315" lon="2.0699">
        <ele>124.8</ele>
        <time>2023-12-20T14:17:58Z</time>
      </trkpt>
      <trkpt lat="48.59312" lon="2.06986">
        <ele>124.4</ele>
        <time>2023-12-20T14:17:59Z</time>
      </trkpt>
      <trkpt lat="48.59308" lon="2.06982">
        <ele>124.4</ele>
        <time>2023-12-20T14:18:00Z</time>
      </trkpt>
      <trkpt lat="48.59304" lon="2.06977">
        <ele>124.4</ele>
        <time>2023-12-20T14:18:01Z</time>
      </trkpt>
      <trkpt lat="48.593" lon="2.06972">
        <ele>124.4</ele>
        <time>2023-12-20T14:18:02Z</time>
      </trkpt>
      <trkpt lat="48.59296" lon="2.06967">
        <ele>124.2</ele>
        <time>2023-12-20T14:18:03Z</time>
      </trkpt>
      <trkpt lat="48.59293" lon="2.06962">
        <ele>124.2</ele>
        <time>2023-12-20T14:18:04Z</time>
      </trkpt>
      <trkpt lat="48.59289" lon="2.06957">
        <ele>124.2</ele>
        <time>2023-12-20T14:18:05Z</time>
      </trkpt>
      <trkpt lat="48.59286" lon="2.06951">
        <ele>125.2</ele>
        <time>2023-12-20T14:18:06Z</time>
      </trkpt>
      <trkpt lat="48.59282" lon="2.06946">
        <ele>124.8</ele>
        <time>2023-12-20T14:18:07Z</time>
      </trkpt>
      <trkpt lat="48.59278" lon="2.06941">
        <ele>124.8</ele>
        <time>2023-12-20T14:18:08Z</time>
      </trkpt>
      <trkpt lat="48.59274" lon="2.06937">
        <ele>124.8</ele>
        <time>2023-12-20T14:18:09Z</time>
      </trkpt>
      <trkpt lat="48.59271" lon="2.06932">
        <ele>125.4</ele>
        <time>2023-12-20T14:18:10Z</time>
      </trkpt>
      <trkpt lat="48.59267" lon="2.06927">
        <ele>125.6</ele>
        <time>2023-12-20T14:18:11Z</time>
      </trkpt>
      <trkpt lat="48.59263" lon="2.06922">
        <ele>125.6</ele>
        <time>2023-12-20T14:18:12Z</time>
      </trkpt>
      <trkpt lat="48.59259" lon="2.06917">
        <ele>125.6</ele>
        <time>2023-12-20T14:18:13Z</time>
      </trkpt>
      <trkpt lat="48.59255" lon="2.06911">
        <ele>125.4</ele>
        <time>2023-12-20T14:18:14Z</time>
      </trkpt>
      <trkpt lat="48.59252" lon="2.06905">
        <ele>124.8</ele>
        <time>2023-12-20T14:18:15Z</time>
      </trkpt>
      <trkpt lat="48.59249" lon="2.06898">
        <ele>124.8</ele>
        <time>2023-12-20T14:18:16Z</time>
      </trkpt>
      <trkpt lat="48.59246" lon="2.06891">
        <ele>124.8</ele>
        <time>2023-12-20T14:18:17Z</time>
      </trkpt>
      <trkpt lat="48.59243" lon="2.06885">
        <ele>124.8</ele>
        <time>2023-12-20T14:18:18Z</time>
      </trkpt>
      <trkpt lat="48.59241" lon="2.06877">
        <ele>125.6</ele>
        <time>2023-12-20T14:18:19Z</time>
      </trkpt>
      <trkpt lat="48.59238" lon="2.06871">
        <ele>125.6</ele>
        <time>2023-12-20T14:18:20Z</time>
      </trkpt>
      <trkpt lat="48.59236" lon="2.06864">
        <ele>125.6</ele>
        <time>2023-12-20T14:18:21Z</time>
      </trkpt>
      <trkpt lat="48.59234" lon="2.06857">
        <ele>125</ele>
        <time>2023-12-20T14:18:22Z</time>
      </trkpt>
      <trkpt lat="48.59231" lon="2.0685">
        <ele>125.4</ele>
        <time>2023-12-20T14:18:23Z</time>
      </trkpt>
      <trkpt lat="48.59229" lon="2.06843">
        <ele>125.4</ele>
        <time>2023-12-20T14:18:24Z</time>
      </trkpt>
      <trkpt lat="48.59227" lon="2.06836">
        <ele>125.4</ele>
        <time>2023-12-20T14:18:25Z</time>
      </trkpt>
      <trkpt lat="48.59225" lon="2.06829">
        <ele>125.4</ele>
        <time>2023-12-20T14:18:26Z</time>
      </trkpt>
      <trkpt lat="48.59223" lon="2.06822">
        <ele>125.8</ele>
        <time>2023-12-20T14:18:27Z</time>
      </trkpt>
      <trkpt lat="48.59221" lon="2.06815">
        <ele>125.8</ele>
        <time>2023-12-20T14:18:28Z</time>
      </trkpt>
      <trkpt lat="48.59219" lon="2.06808">
        <ele>125.8</ele>
        <time>2023-12-20T14:18:29Z</time>
      </trkpt>
      <trkpt lat="48.59218" lon="2.06801">
        <ele>125.6</ele>
        <time>2023-12-20T14:18:30Z</time>
      </trkpt>
      <trkpt lat="48.59216" lon="2.06794">
        <ele>125.8</ele>
        <time>2023-12-20T14:18:31Z</time>
      </trkpt>
      <trkpt lat="48.59214" lon="2.06786">
        <ele>125.8</ele>
        <time>2023-12-20T14:18:32Z</time>
      </trkpt>
      <trkpt lat="48.59213" lon="2.06779">
        <ele>125.8</ele>
        <time>2023-12-20T14:18:33Z</time>
      </trkpt>
      <trkpt lat="48.59211" lon="2.06771">
        <ele>125.8</ele>
        <time>2023-12-20T14:18:34Z</time>
      </trkpt>
      <trkpt lat="48.59209" lon="2.06764">
        <ele>125.8</ele>
        <time>2023-12-20T14:18:35Z</time>
      </trkpt>
      <trkpt lat="48.59208" lon="2.06756">
        <ele>126.2</ele>
        <time>2023-12-20T14:18:36Z</time>
      </trkpt>
      <trkpt lat="48.59206" lon="2.06748">
        <ele>126.2</ele>
        <time>2023-12-20T14:18:37Z</time>
      </trkpt>
      <trkpt lat="48.59205" lon="2.0674">
        <ele>126.2</ele>
        <time>2023-12-20T14:18:38Z</time>
      </trkpt>
      <trkpt lat="48.59203" lon="2.06732">
        <ele>126.8</ele>
        <time>2023-12-20T14:18:39Z</time>
      </trkpt>
      <trkpt lat="48.59202" lon="2.06724">
        <ele>126.8</ele>
        <time>2023-12-20T14:18:40Z</time>
      </trkpt>
      <trkpt lat="48.592" lon="2.06716">
        <ele>126.8</ele>
        <time>2023-12-20T14:18:41Z</time>
      </trkpt>
      <trkpt lat="48.59199" lon="2.06709">
        <ele>126.2</ele>
        <time>2023-12-20T14:18:42Z</time>
      </trkpt>
      <trkpt lat="48.59198" lon="2.06701">
        <ele>126.2</ele>
        <time>2023-12-20T14:18:43Z</time>
      </trkpt>
      <trkpt lat="48.59197" lon="2.06693">
        <ele>126.2</ele>
        <time>2023-12-20T14:18:44Z</time>
      </trkpt>
      <trkpt lat="48.59197" lon="2.06685">
        <ele>126.2</ele>
        <time>2023-12-20T14:18:45Z</time>
      </trkpt>
      <trkpt lat="48.59197" lon="2.06677">
        <ele>126.2</ele>
        <time>2023-12-20T14:18:46Z</time>
      </trkpt>
      <trkpt lat="48.59197" lon="2.06669">
        <ele>126.2</ele>
        <time>2023-12-20T14:18:47Z</time>
      </trkpt>
      <trkpt lat="48.59198" lon="2.06662">
        <ele>126.2</ele>
        <time>2023-12-20T14:18:48Z</time>
      </trkpt>
      <trkpt lat="48.59198" lon="2.06654">
        <ele>126.2</ele>
        <time>2023-12-20T14:18:49Z</time>
      </trkpt>
      <trkpt lat="48.59199" lon="2.06646">
        <ele>127</ele>
        <time>2023-12-20T14:18:50Z</time>
      </trkpt>
      <trkpt lat="48.59199" lon="2.06638">
        <ele>127.6</ele>
        <time>2023-12-20T14:18:51Z</time>
      </trkpt>
      <trkpt lat="48.592" lon="2.0663">
        <ele>127.6</ele>
        <time>2023-12-20T14:18:52Z</time>
      </trkpt>
      <trkpt lat="48.592" lon="2.06622">
        <ele>127.6</ele>
        <time>2023-12-20T14:18:53Z</time>
      </trkpt>
      <trkpt lat="48.59201" lon="2.06615">
        <ele>126.8</ele>
        <time>2023-12-20T14:18:54Z</time>
      </trkpt>
      <trkpt lat="48.59203" lon="2.06607">
        <ele>127.6</ele>
        <time>2023-12-20T14:18:55Z</time>
      </trkpt>
      <trkpt lat="48.59204" lon="2.06599">
        <ele>127.6</ele>
        <time>2023-12-20T14:18:56Z</time>
      </trkpt>
      <trkpt lat="48.59205" lon="2.0659">
        <ele>127.6</ele>
        <time>2023-12-20T14:18:57Z</time>
      </trkpt>
      <trkpt lat="48.59207" lon="2.06582">
        <ele>127</ele>
        <time>2023-12-20T14:18:58Z</time>
      </trkpt>
      <trkpt lat="48.59208" lon="2.06575">
        <ele>127.8</ele>
        <time>2023-12-20T14:18:59Z</time>
      </trkpt>
      <trkpt lat="48.59209" lon="2.06567">
        <ele>127.8</ele>
        <time>2023-12-20T14:19:00Z</time>
      </trkpt>
      <trkpt lat="48.5921" lon="2.0656">
        <ele>127.8</ele>
        <time>2023-12-20T14:19:01Z</time>
      </trkpt>
      <trkpt lat="48.59211" lon="2.06553">
        <ele>127.8</ele>
        <time>2023-12-20T14:19:02Z</time>
      </trkpt>
      <trkpt lat="48.59212" lon="2.06546">
        <ele>127.4</ele>
        <time>2023-12-20T14:19:03Z</time>
      </trkpt>
      <trkpt lat="48.59213" lon="2.06539">
        <ele>127.4</ele>
        <time>2023-12-20T14:19:04Z</time>
      </trkpt>
      <trkpt lat="48.59214" lon="2.06531">
        <ele>127.4</ele>
        <time>2023-12-20T14:19:05Z</time>
      </trkpt>
      <trkpt lat="48.59215" lon="2.06524">
        <ele>128.4</ele>
        <time>2023-12-20T14:19:06Z</time>
      </trkpt>
      <trkpt lat="48.59215" lon="2.06518">
        <ele>129</ele>
        <time>2023-12-20T14:19:07Z</time>
      </trkpt>
      <trkpt lat="48.59216" lon="2.06512">
        <ele>129</ele>
        <time>2023-12-20T14:19:08Z</time>
      </trkpt>
      <trkpt lat="48.59216" lon="2.06506">
        <ele>129</ele>
        <time>2023-12-20T14:19:09Z</time>
      </trkpt>
      <trkpt lat="48.59218" lon="2.065">
        <ele>129</ele>
        <time>2023-12-20T14:19:10Z</time>
      </trkpt>
      <trkpt lat="48.5922" lon="2.06494">
        <ele>129.4</ele>
        <time>2023-12-20T14:19:11Z</time>
      </trkpt>
      <trkpt lat="48.59223" lon="2.0649">
        <ele>129.4</ele>
        <time>2023-12-20T14:19:12Z</time>
      </trkpt>
      <trkpt lat="48.59227" lon="2.06487">
        <ele>129.4</ele>
        <time>2023-12-20T14:19:13Z</time>
      </trkpt>
      <trkpt lat="48.59231" lon="2.06485">
        <ele>129.8</ele>
        <time>2023-12-20T14:19:14Z</time>
      </trkpt>
      <trkpt lat="48.59235" lon="2.06484">
        <ele>130.4</ele>
        <time>2023-12-20T14:19:15Z</time>
      </trkpt>
      <trkpt lat="48.59239" lon="2.06482">
        <ele>130.4</ele>
        <time>2023-12-20T14:19:16Z</time>
      </trkpt>
      <trkpt lat="48.59243" lon="2.0648">
        <ele>130.4</ele>
        <time>2023-12-20T14:19:17Z</time>
      </trkpt>
      <trkpt lat="48.59247" lon="2.06478">
        <ele>131</ele>
        <time>2023-12-20T14:19:18Z</time>
      </trkpt>
      <trkpt lat="48.59251" lon="2.06476">
        <ele>131.4</ele>
        <time>2023-12-20T14:19:19Z</time>
      </trkpt>
      <trkpt lat="48.59255" lon="2.06474">
        <ele>131.4</ele>
        <time>2023-12-20T14:19:20Z</time>
      </trkpt>
      <trkpt lat="48.59258" lon="2.06472">
        <ele>131.4</ele>
        <time>2023-12-20T14:19:21Z</time>
      </trkpt>
      <trkpt lat="48.59262" lon="2.0647">
        <ele>131.4</ele>
        <time>2023-12-20T14:19:22Z</time>
      </trkpt>
      <trkpt lat="48.59266" lon="2.06467">
        <ele>131.8</ele>
        <time>2023-12-20T14:19:23Z</time>
      </trkpt>
      <trkpt lat="48.5927" lon="2.06465">
        <ele>131.8</ele>
        <time>2023-12-20T14:19:24Z</time>
      </trkpt>
      <trkpt lat="48.59275" lon="2.06463">
        <ele>131.8</ele>
        <time>2023-12-20T14:19:25Z</time>
      </trkpt>
      <trkpt lat="48.59279" lon="2.06461">
        <ele>132.6</ele>
        <time>2023-12-20T14:19:26Z</time>
      </trkpt>
      <trkpt lat="48.59284" lon="2.06458">
        <ele>133</ele>
        <time>2023-12-20T14:19:27Z</time>
      </trkpt>
      <trkpt lat="48.59288" lon="2.06457">
        <ele>133</ele>
        <time>2023-12-20T14:19:28Z</time>
      </trkpt>
      <trkpt lat="48.59292" lon="2.06455">
        <ele>133</ele>
        <time>2023-12-20T14:19:29Z</time>
      </trkpt>
      <trkpt lat="48.59296" lon="2.06453">
        <ele>133</ele>
        <time>2023-12-20T14:19:30Z</time>
      </trkpt>
      <trkpt lat="48.593" lon="2.06452">
        <ele>133.6</ele>
        <time>2023-12-20T14:19:31Z</time>
      </trkpt>
      <trkpt lat="48.59304" lon="2.0645">
        <ele>133.6</ele>
        <time>2023-12-20T14:19:32Z</time>
      </trkpt>
      <trkpt lat="48.59308" lon="2.06448">
        <ele>133.6</ele>
        <time>2023-12-20T14:19:33Z</time>
      </trkpt>
      <trkpt lat="48.59312" lon="2.06446">
        <ele>133.6</ele>
        <time>2023-12-20T14:19:34Z</time>
      </trkpt>
      <trkpt lat="48.59316" lon="2.06445">
        <ele>134.4</ele>
        <time>2023-12-20T14:19:35Z</time>
      </trkpt>
      <trkpt lat="48.59321" lon="2.06444">
        <ele>134.4</ele>
        <time>2023-12-20T14:19:36Z</time>
      </trkpt>
      <trkpt lat="48.59325" lon="2.06443">
        <ele>134.4</ele>
        <time>2023-12-20T14:19:37Z</time>
      </trkpt>
      <trkpt lat="48.59329" lon="2.06441">
        <ele>134.4</ele>
        <time>2023-12-20T14:19:38Z</time>
      </trkpt>
      <trkpt lat="48.59334" lon="2.0644">
        <ele>135</ele>
        <time>2023-12-20T14:19:39Z</time>
      </trkpt>
      <trkpt lat="48.59338" lon="2.06438">
        <ele>135</ele>
        <time>2023-12-20T14:19:40Z</time>
      </trkpt>
      <trkpt lat="48.59342" lon="2.06435">
        <ele>135</ele>
        <time>2023-12-20T14:19:41Z</time>
      </trkpt>
      <trkpt lat="48.59347" lon="2.06433">
        <ele>135</ele>
        <time>2023-12-20T14:19:42Z</time>
      </trkpt>
      <trkpt lat="48.59351" lon="2.06431">
        <ele>135.4</ele>
        <time>2023-12-20T14:19:43Z</time>
      </trkpt>
      <trkpt lat="48.59355" lon="2.06428">
        <ele>135.4</ele>
        <time>2023-12-20T14:19:44Z</time>
      </trkpt>
      <trkpt lat="48.5936" lon="2.06426">
        <ele>135.4</ele>
        <time>2023-12-20T14:19:45Z</time>
      </trkpt>
      <trkpt lat="48.59364" lon="2.06424">
        <ele>136.4</ele>
        <time>2023-12-20T14:19:46Z</time>
      </trkpt>
      <trkpt lat="48.59368" lon="2.06421">
        <ele>136.8</ele>
        <time>2023-12-20T14:19:47Z</time>
      </trkpt>
      <trkpt lat="48.59373" lon="2.0642">
        <ele>136.8</ele>
        <time>2023-12-20T14:19:48Z</time>
      </trkpt>
      <trkpt lat="48.59377" lon="2.06419">
        <ele>136.8</ele>
        <time>2023-12-20T14:19:49Z</time>
      </trkpt>
      <trkpt lat="48.59382" lon="2.06417">
        <ele>135.8</ele>
        <time>2023-12-20T14:19:50Z</time>
      </trkpt>
      <trkpt lat="48.59386" lon="2.06414">
        <ele>135.6</ele>
        <time>2023-12-20T14:19:51Z</time>
      </trkpt>
      <trkpt lat="48.59389" lon="2.06409">
        <ele>135.6</ele>
        <time>2023-12-20T14:19:52Z</time>
      </trkpt>
      <trkpt lat="48.59392" lon="2.06404">
        <ele>135.6</ele>
        <time>2023-12-20T14:19:53Z</time>
      </trkpt>
      <trkpt lat="48.59394" lon="2.06398">
        <ele>135</ele>
        <time>2023-12-20T14:19:54Z</time>
      </trkpt>
      <trkpt lat="48.59398" lon="2.06392">
        <ele>134.8</ele>
        <time>2023-12-20T14:19:55Z</time>
      </trkpt>
      <trkpt lat="48.59402" lon="2.06387">
        <ele>134.8</ele>
        <time>2023-12-20T14:19:56Z</time>
      </trkpt>
      <trkpt lat="48.59407" lon="2.06382">
        <ele>134.8</ele>
        <time>2023-12-20T14:19:57Z</time>
      </trkpt>
      <trkpt lat="48.59411" lon="2.06377">
        <ele>135.2</ele>
        <time>2023-12-20T14:19:58Z</time>
      </trkpt>
      <trkpt lat="48.59416" lon="2.06372">
        <ele>134.4</ele>
        <time>2023-12-20T14:19:59Z</time>
      </trkpt>
      <trkpt lat="48.59421" lon="2.06366">
        <ele>134.4</ele>
        <time>2023-12-20T14:20:00Z</time>
      </trkpt>
      <trkpt lat="48.59427" lon="2.06361">
        <ele>134.4</ele>
        <time>2023-12-20T14:20:01Z</time>
      </trkpt>
      <trkpt lat="48.59432" lon="2.06355">
        <ele>133.4</ele>
        <time>2023-12-20T14:20:02Z</time>
      </trkpt>
      <trkpt lat="48.59438" lon="2.0635">
        <ele>132.6</ele>
        <time>2023-12-20T14:20:03Z</time>
      </trkpt>
      <trkpt lat="48.59443" lon="2.06345">
        <ele>132.6</ele>
        <time>2023-12-20T14:20:04Z</time>
      </trkpt>
      <trkpt lat="48.59449" lon="2.06339">
        <ele>132.6</ele>
        <time>2023-12-20T14:20:05Z</time>
      </trkpt>
      <trkpt lat="48.59454" lon="2.06333">
        <ele>132.6</ele>
        <time>2023-12-20T14:20:06Z</time>
      </trkpt>
      <trkpt lat="48.5946" lon="2.06327">
        <ele>132.6</ele>
        <time>2023-12-20T14:20:07Z</time>
      </trkpt>
      <trkpt lat="48.59465" lon="2.06322">
        <ele>132.6</ele>
        <time>2023-12-20T14:20:08Z</time>
      </trkpt>
      <trkpt lat="48.59471" lon="2.06316">
        <ele>132.6</ele>
        <time>2023-12-20T14:20:09Z</time>
      </trkpt>
      <trkpt lat="48.59477" lon="2.06311">
        <ele>132.2</ele>
        <time>2023-12-20T14:20:10Z</time>
      </trkpt>
      <trkpt lat="48.59482" lon="2.06305">
        <ele>132.8</ele>
        <time>2023-12-20T14:20:11Z</time>
      </trkpt>
      <trkpt lat="48.59488" lon="2.063">
        <ele>132.8</ele>
        <time>2023-12-20T14:20:12Z</time>
      </trkpt>
      <trkpt lat="48.59494" lon="2.06294">
        <ele>132.8</ele>
        <time>2023-12-20T14:20:13Z</time>
      </trkpt>
      <trkpt lat="48.59499" lon="2.06289">
        <ele>131.8</ele>
        <time>2023-12-20T14:20:14Z</time>
      </trkpt>
      <trkpt lat="48.59505" lon="2.06283">
        <ele>131.8</ele>
        <time>2023-12-20T14:20:15Z</time>
      </trkpt>
      <trkpt lat="48.5951" lon="2.06277">
        <ele>131.8</ele>
        <time>2023-12-20T14:20:16Z</time>
      </trkpt>
      <trkpt lat="48.59516" lon="2.06271">
        <ele>131.8</ele>
        <time>2023-12-20T14:20:17Z</time>
      </trkpt>
      <trkpt lat="48.59521" lon="2.06264">
        <ele>132.4</ele>
        <time>2023-12-20T14:20:18Z</time>
      </trkpt>
      <trkpt lat="48.59526" lon="2.06258">
        <ele>132.6</ele>
        <time>2023-12-20T14:20:19Z</time>
      </trkpt>
      <trkpt lat="48.59531" lon="2.06252">
        <ele>132.6</ele>
        <time>2023-12-20T14:20:20Z</time>
      </trkpt>
      <trkpt lat="48.59536" lon="2.06247">
        <ele>132.6</ele>
        <time>2023-12-20T14:20:21Z</time>
      </trkpt>
      <trkpt lat="48.59541" lon="2.06241">
        <ele>132.6</ele>
        <time>2023-12-20T14:20:22Z</time>
      </trkpt>
      <trkpt lat="48.59546" lon="2.06235">
        <ele>133</ele>
        <time>2023-12-20T14:20:23Z</time>
      </trkpt>
      <trkpt lat="48.5955" lon="2.0623">
        <ele>133</ele>
        <time>2023-12-20T14:20:24Z</time>
      </trkpt>
      <trkpt lat="48.59555" lon="2.06224">
        <ele>133</ele>
        <time>2023-12-20T14:20:25Z</time>
      </trkpt>
      <trkpt lat="48.59559" lon="2.06219">
        <ele>133.8</ele>
        <time>2023-12-20T14:20:26Z</time>
      </trkpt>
      <trkpt lat="48.59564" lon="2.06213">
        <ele>134</ele>
        <time>2023-12-20T14:20:27Z</time>
      </trkpt>
      <trkpt lat="48.59568" lon="2.06208">
        <ele>134</ele>
        <time>2023-12-20T14:20:28Z</time>
      </trkpt>
      <trkpt lat="48.59573" lon="2.06203">
        <ele>134</ele>
        <time>2023-12-20T14:20:29Z</time>
      </trkpt>
      <trkpt lat="48.59577" lon="2.06198">
        <ele>134</ele>
        <time>2023-12-20T14:20:30Z</time>
      </trkpt>
      <trkpt lat="48.59581" lon="2.06193">
        <ele>134.2</ele>
        <time>2023-12-20T14:20:31Z</time>
      </trkpt>
      <trkpt lat="48.59586" lon="2.06187">
        <ele>134.2</ele>
        <time>2023-12-20T14:20:32Z</time>
      </trkpt>
      <trkpt lat="48.5959" lon="2.06182">
        <ele>134.2</ele>
        <time>2023-12-20T14:20:33Z</time>
      </trkpt>
      <trkpt lat="48.59594" lon="2.06176">
        <ele>134.4</ele>
        <time>2023-12-20T14:20:34Z</time>
      </trkpt>
      <trkpt lat="48.59599" lon="2.06171">
        <ele>134.4</ele>
        <time>2023-12-20T14:20:35Z</time>
      </trkpt>
      <trkpt lat="48.59603" lon="2.06166">
        <ele>134.4</ele>
        <time>2023-12-20T14:20:36Z</time>
      </trkpt>
      <trkpt lat="48.59608" lon="2.06161">
        <ele>134.4</ele>
        <time>2023-12-20T14:20:37Z</time>
      </trkpt>
      <trkpt lat="48.59612" lon="2.06156">
        <ele>134.4</ele>
        <time>2023-12-20T14:20:38Z</time>
      </trkpt>
      <trkpt lat="48.59616" lon="2.0615">
        <ele>135.4</ele>
        <time>2023-12-20T14:20:39Z</time>
      </trkpt>
      <trkpt lat="48.5962" lon="2.06145">
        <ele>135.4</ele>
        <time>2023-12-20T14:20:40Z</time>
      </trkpt>
      <trkpt lat="48.59625" lon="2.0614">
        <ele>135.4</ele>
        <time>2023-12-20T14:20:41Z</time>
      </trkpt>
      <trkpt lat="48.59629" lon="2.06135">
        <ele>135.8</ele>
        <time>2023-12-20T14:20:42Z</time>
      </trkpt>
      <trkpt lat="48.59634" lon="2.0613">
        <ele>135.8</ele>
        <time>2023-12-20T14:20:43Z</time>
      </trkpt>
      <trkpt lat="48.59638" lon="2.06124">
        <ele>135.8</ele>
        <time>2023-12-20T14:20:44Z</time>
      </trkpt>
      <trkpt lat="48.59643" lon="2.06119">
        <ele>135.8</ele>
        <time>2023-12-20T14:20:45Z</time>
      </trkpt>
      <trkpt lat="48.59647" lon="2.06114">
        <ele>135.8</ele>
        <time>2023-12-20T14:20:46Z</time>
      </trkpt>
      <trkpt lat="48.59651" lon="2.06109">
        <ele>136.2</ele>
        <time>2023-12-20T14:20:47Z</time>
      </trkpt>
      <trkpt lat="48.59656" lon="2.06104">
        <ele>136.2</ele>
        <time>2023-12-20T14:20:48Z</time>
      </trkpt>
      <trkpt lat="48.5966" lon="2.06099">
        <ele>136.2</ele>
        <time>2023-12-20T14:20:49Z</time>
      </trkpt>
      <trkpt lat="48.59664" lon="2.06094">
        <ele>137</ele>
        <time>2023-12-20T14:20:50Z</time>
      </trkpt>
      <trkpt lat="48.59668" lon="2.0609">
        <ele>137</ele>
        <time>2023-12-20T14:20:51Z</time>
      </trkpt>
      <trkpt lat="48.59672" lon="2.06085">
        <ele>137</ele>
        <time>2023-12-20T14:20:52Z</time>
      </trkpt>
      <trkpt lat="48.59676" lon="2.0608">
        <ele>137</ele>
        <time>2023-12-20T14:20:53Z</time>
      </trkpt>
      <trkpt lat="48.5968" lon="2.06075">
        <ele>137.4</ele>
        <time>2023-12-20T14:20:54Z</time>
      </trkpt>
      <trkpt lat="48.59684" lon="2.06071">
        <ele>137.8</ele>
        <time>2023-12-20T14:20:55Z</time>
      </trkpt>
      <trkpt lat="48.59688" lon="2.06066">
        <ele>137.8</ele>
        <time>2023-12-20T14:20:56Z</time>
      </trkpt>
      <trkpt lat="48.59692" lon="2.06061">
        <ele>137.8</ele>
        <time>2023-12-20T14:20:57Z</time>
      </trkpt>
      <trkpt lat="48.59696" lon="2.06058">
        <ele>137.8</ele>
        <time>2023-12-20T14:20:58Z</time>
      </trkpt>
      <trkpt lat="48.597" lon="2.06054">
        <ele>138.4</ele>
        <time>2023-12-20T14:20:59Z</time>
      </trkpt>
      <trkpt lat="48.59704" lon="2.0605">
        <ele>138.4</ele>
        <time>2023-12-20T14:21:00Z</time>
      </trkpt>
      <trkpt lat="48.59708" lon="2.06046">
        <ele>138.4</ele>
        <time>2023-12-20T14:21:01Z</time>
      </trkpt>
      <trkpt lat="48.59713" lon="2.06042">
        <ele>139.4</ele>
        <time>2023-12-20T14:21:02Z</time>
      </trkpt>
      <trkpt lat="48.59718" lon="2.06037">
        <ele>140.2</ele>
        <time>2023-12-20T14:21:03Z</time>
      </trkpt>
      <trkpt lat="48.59722" lon="2.06034">
        <ele>140.2</ele>
        <time>2023-12-20T14:21:04Z</time>
      </trkpt>
      <trkpt lat="48.59726" lon="2.0603">
        <ele>140.2</ele>
        <time>2023-12-20T14:21:05Z</time>
      </trkpt>
      <trkpt lat="48.5973" lon="2.06027">
        <ele>140.2</ele>
        <time>2023-12-20T14:21:06Z</time>
      </trkpt>
      <trkpt lat="48.59735" lon="2.06023">
        <ele>139.8</ele>
        <time>2023-12-20T14:21:07Z</time>
      </trkpt>
      <trkpt lat="48.59739" lon="2.06018">
        <ele>139.8</ele>
        <time>2023-12-20T14:21:08Z</time>
      </trkpt>
      <trkpt lat="48.59744" lon="2.06014">
        <ele>139.8</ele>
        <time>2023-12-20T14:21:09Z</time>
      </trkpt>
      <trkpt lat="48.59748" lon="2.06011">
        <ele>140.4</ele>
        <time>2023-12-20T14:21:10Z</time>
      </trkpt>
      <trkpt lat="48.59753" lon="2.06007">
        <ele>141.2</ele>
        <time>2023-12-20T14:21:11Z</time>
      </trkpt>
      <trkpt lat="48.59757" lon="2.06002">
        <ele>141.2</ele>
        <time>2023-12-20T14:21:12Z</time>
      </trkpt>
      <trkpt lat="48.59761" lon="2.05999">
        <ele>141.2</ele>
        <time>2023-12-20T14:21:13Z</time>
      </trkpt>
      <trkpt lat="48.59765" lon="2.05996">
        <ele>142.2</ele>
        <time>2023-12-20T14:21:14Z</time>
      </trkpt>
      <trkpt lat="48.59769" lon="2.05992">
        <ele>143.6</ele>
        <time>2023-12-20T14:21:15Z</time>
      </trkpt>
      <trkpt lat="48.59773" lon="2.05988">
        <ele>143.6</ele>
        <time>2023-12-20T14:21:16Z</time>
      </trkpt>
      <trkpt lat="48.59776" lon="2.05985">
        <ele>143.6</ele>
        <time>2023-12-20T14:21:17Z</time>
      </trkpt>
      <trkpt lat="48.5978" lon="2.05981">
        <ele>144</ele>
        <time>2023-12-20T14:21:18Z</time>
      </trkpt>
      <trkpt lat="48.59783" lon="2.05978">
        <ele>144.6</ele>
        <time>2023-12-20T14:21:19Z</time>
      </trkpt>
      <trkpt lat="48.59787" lon="2.05974">
        <ele>144.6</ele>
        <time>2023-12-20T14:21:20Z</time>
      </trkpt>
      <trkpt lat="48.5979" lon="2.0597">
        <ele>144.6</ele>
        <time>2023-12-20T14:21:21Z</time>
      </trkpt>
      <trkpt lat="48.59794" lon="2.05967">
        <ele>145.4</ele>
        <time>2023-12-20T14:21:22Z</time>
      </trkpt>
      <trkpt lat="48.59797" lon="2.05963">
        <ele>145.8</ele>
        <time>2023-12-20T14:21:23Z</time>
      </trkpt>
      <trkpt lat="48.59801" lon="2.0596">
        <ele>145.8</ele>
        <time>2023-12-20T14:21:24Z</time>
      </trkpt>
      <trkpt lat="48.59804" lon="2.05956">
        <ele>145.8</ele>
        <time>2023-12-20T14:21:25Z</time>
      </trkpt>
      <trkpt lat="48.59808" lon="2.05953">
        <ele>145.8</ele>
        <time>2023-12-20T14:21:26Z</time>
      </trkpt>
      <trkpt lat="48.59811" lon="2.05949">
        <ele>145.8</ele>
        <time>2023-12-20T14:21:27Z</time>
      </trkpt>
      <trkpt lat="48.59815" lon="2.05946">
        <ele>145.8</ele>
        <time>2023-12-20T14:21:28Z</time>
      </trkpt>
      <trkpt lat="48.59818" lon="2.05943">
        <ele>145.8</ele>
        <time>2023-12-20T14:21:29Z</time>
      </trkpt>
      <trkpt lat="48.59822" lon="2.05939">
        <ele>146.4</ele>
        <time>2023-12-20T14:21:30Z</time>
      </trkpt>
      <trkpt lat="48.59825" lon="2.05936">
        <ele>146.2</ele>
        <time>2023-12-20T14:21:31Z</time>
      </trkpt>
      <trkpt lat="48.59829" lon="2.05933">
        <ele>146.2</ele>
        <time>2023-12-20T14:21:32Z</time>
      </trkpt>
      <trkpt lat="48.59832" lon="2.05929">
        <ele>146.2</ele>
        <time>2023-12-20T14:21:33Z</time>
      </trkpt>
      <trkpt lat="48.59835" lon="2.05926">
        <ele>146.2</ele>
        <time>2023-12-20T14:21:34Z</time>
      </trkpt>
      <trkpt lat="48.59839" lon="2.05923">
        <ele>146.4</ele>
        <time>2023-12-20T14:21:35Z</time>
      </trkpt>
      <trkpt lat="48.59842" lon="2.05919">
        <ele>146.4</ele>
        <time>2023-12-20T14:21:36Z</time>
      </trkpt>
      <trkpt lat="48.59846" lon="2.05916">
        <ele>146.4</ele>
        <time>2023-12-20T14:21:37Z</time>
      </trkpt>
      <trkpt lat="48.59849" lon="2.05913">
        <ele>146.4</ele>
        <time>2023-12-20T14:21:38Z</time>
      </trkpt>
      <trkpt lat="48.59853" lon="2.05909">
        <ele>147.2</ele>
        <time>2023-12-20T14:21:39Z</time>
      </trkpt>
      <trkpt lat="48.59856" lon="2.05905">
        <ele>147.2</ele>
        <time>2023-12-20T14:21:40Z</time>
      </trkpt>
      <trkpt lat="48.5986" lon="2.05902">
        <ele>147.2</ele>
        <time>2023-12-20T14:21:41Z</time>
      </trkpt>
      <trkpt lat="48.59863" lon="2.05898">
        <ele>147.2</ele>
        <time>2023-12-20T14:21:42Z</time>
      </trkpt>
      <trkpt lat="48.59867" lon="2.05894">
        <ele>147.2</ele>
        <time>2023-12-20T14:21:43Z</time>
      </trkpt>
      <trkpt lat="48.5987" lon="2.05891">
        <ele>147.2</ele>
        <time>2023-12-20T14:21:44Z</time>
      </trkpt>
      <trkpt lat="48.59874" lon="2.05887">
        <ele>147.2</ele>
        <time>2023-12-20T14:21:45Z</time>
      </trkpt>
      <trkpt lat="48.59877" lon="2.05884">
        <ele>147.2</ele>
        <time>2023-12-20T14:21:46Z</time>
      </trkpt>
      <trkpt lat="48.59881" lon="2.0588">
        <ele>147.4</ele>
        <time>2023-12-20T14:21:47Z</time>
      </trkpt>
      <trkpt lat="48.59885" lon="2.05877">
        <ele>147.4</ele>
        <time>2023-12-20T14:21:48Z</time>
      </trkpt>
      <trkpt lat="48.59888" lon="2.05873">
        <ele>147.4</ele>
        <time>2023-12-20T14:21:49Z</time>
      </trkpt>
      <trkpt lat="48.59891" lon="2.05871">
        <ele>148.4</ele>
        <time>2023-12-20T14:21:50Z</time>
      </trkpt>
      <trkpt lat="48.59892" lon="2.0587">
        <ele>148.8</ele>
        <time>2023-12-20T14:21:51Z</time>
      </trkpt>
      <trkpt lat="48.59893" lon="2.05869">
        <ele>148.8</ele>
        <time>2023-12-20T14:21:52Z</time>
      </trkpt>
      <trkpt lat="48.59893" lon="2.05869">
        <ele>148.8</ele>
        <time>2023-12-20T14:22:07Z</time>
      </trkpt>
      <trkpt lat="48.59894" lon="2.05867">
        <ele>148.8</ele>
        <time>2023-12-20T14:22:08Z</time>
      </trkpt>
      <trkpt lat="48.59896" lon="2.05866">
        <ele>148.8</ele>
        <time>2023-12-20T14:22:09Z</time>
      </trkpt>
      <trkpt lat="48.59897" lon="2.05863">
        <ele>148.2</ele>
        <time>2023-12-20T14:22:10Z</time>
      </trkpt>
      <trkpt lat="48.599" lon="2.05861">
        <ele>148.2</ele>
        <time>2023-12-20T14:22:11Z</time>
      </trkpt>
      <trkpt lat="48.59903" lon="2.05859">
        <ele>148.2</ele>
        <time>2023-12-20T14:22:12Z</time>
      </trkpt>
      <trkpt lat="48.59906" lon="2.05855">
        <ele>148.2</ele>
        <time>2023-12-20T14:22:13Z</time>
      </trkpt>
      <trkpt lat="48.5991" lon="2.05852">
        <ele>148.2</ele>
        <time>2023-12-20T14:22:14Z</time>
      </trkpt>
      <trkpt lat="48.59913" lon="2.05848">
        <ele>148.2</ele>
        <time>2023-12-20T14:22:15Z</time>
      </trkpt>
      <trkpt lat="48.59917" lon="2.05844">
        <ele>148.2</ele>
        <time>2023-12-20T14:22:16Z</time>
      </trkpt>
      <trkpt lat="48.59922" lon="2.0584">
        <ele>148.2</ele>
        <time>2023-12-20T14:22:17Z</time>
      </trkpt>
      <trkpt lat="48.59926" lon="2.05835">
        <ele>148.2</ele>
        <time>2023-12-20T14:22:18Z</time>
      </trkpt>
      <trkpt lat="48.59931" lon="2.05831">
        <ele>147.4</ele>
        <time>2023-12-20T14:22:19Z</time>
      </trkpt>
      <trkpt lat="48.59935" lon="2.05826">
        <ele>147.4</ele>
        <time>2023-12-20T14:22:20Z</time>
      </trkpt>
      <trkpt lat="48.5994" lon="2.05822">
        <ele>147.4</ele>
        <time>2023-12-20T14:22:21Z</time>
      </trkpt>
      <trkpt lat="48.59945" lon="2.05817">
        <ele>147.4</ele>
        <time>2023-12-20T14:22:22Z</time>
      </trkpt>
      <trkpt lat="48.5995" lon="2.05813">
        <ele>147.2</ele>
        <time>2023-12-20T14:22:23Z</time>
      </trkpt>
      <trkpt lat="48.59955" lon="2.05809">
        <ele>147.2</ele>
        <time>2023-12-20T14:22:24Z</time>
      </trkpt>
      <trkpt lat="48.5996" lon="2.05804">
        <ele>147.2</ele>
        <time>2023-12-20T14:22:25Z</time>
      </trkpt>
      <trkpt lat="48.59965" lon="2.05799">
        <ele>146.2</ele>
        <time>2023-12-20T14:22:26Z</time>
      </trkpt>
      <trkpt lat="48.5997" lon="2.05794">
        <ele>145.8</ele>
        <time>2023-12-20T14:22:27Z</time>
      </trkpt>
      <trkpt lat="48.59975" lon="2.05788">
        <ele>145.8</ele>
        <time>2023-12-20T14:22:28Z</time>
      </trkpt>
      <trkpt lat="48.59981" lon="2.05782">
        <ele>145.8</ele>
        <time>2023-12-20T14:22:29Z</time>
      </trkpt>
      <trkpt lat="48.59986" lon="2.05777">
        <ele>144.8</ele>
        <time>2023-12-20T14:22:30Z</time>
      </trkpt>
      <trkpt lat="48.59991" lon="2.05771">
        <ele>142.8</ele>
        <time>2023-12-20T14:22:31Z</time>
      </trkpt>
      <trkpt lat="48.59997" lon="2.05766">
        <ele>142.8</ele>
        <time>2023-12-20T14:22:32Z</time>
      </trkpt>
      <trkpt lat="48.60003" lon="2.0576">
        <ele>142.8</ele>
        <time>2023-12-20T14:22:33Z</time>
      </trkpt>
      <trkpt lat="48.60009" lon="2.05754">
        <ele>142.4</ele>
        <time>2023-12-20T14:22:34Z</time>
      </trkpt>
      <trkpt lat="48.60015" lon="2.05748">
        <ele>141.8</ele>
        <time>2023-12-20T14:22:35Z</time>
      </trkpt>
      <trkpt lat="48.60021" lon="2.05741">
        <ele>141.8</ele>
        <time>2023-12-20T14:22:36Z</time>
      </trkpt>
      <trkpt lat="48.60028" lon="2.05734">
        <ele>141.8</ele>
        <time>2023-12-20T14:22:37Z</time>
      </trkpt>
      <trkpt lat="48.60035" lon="2.05727">
        <ele>140.8</ele>
        <time>2023-12-20T14:22:38Z</time>
      </trkpt>
      <trkpt lat="48.60042" lon="2.05719">
        <ele>139.6</ele>
        <time>2023-12-20T14:22:39Z</time>
      </trkpt>
      <trkpt lat="48.60049" lon="2.05711">
        <ele>139.6</ele>
        <time>2023-12-20T14:22:40Z</time>
      </trkpt>
      <trkpt lat="48.60056" lon="2.05703">
        <ele>139.6</ele>
        <time>2023-12-20T14:22:41Z</time>
      </trkpt>
      <trkpt lat="48.60063" lon="2.05695">
        <ele>138.6</ele>
        <time>2023-12-20T14:22:42Z</time>
      </trkpt>
      <trkpt lat="48.60071" lon="2.05687">
        <ele>136.4</ele>
        <time>2023-12-20T14:22:43Z</time>
      </trkpt>
      <trkpt lat="48.60079" lon="2.0568">
        <ele>136.4</ele>
        <time>2023-12-20T14:22:44Z</time>
      </trkpt>
      <trkpt lat="48.60086" lon="2.05672">
        <ele>136.4</ele>
        <time>2023-12-20T14:22:45Z</time>
      </trkpt>
      <trkpt lat="48.60094" lon="2.05664">
        <ele>136.8</ele>
        <time>2023-12-20T14:22:46Z</time>
      </trkpt>
      <trkpt lat="48.60102" lon="2.05656">
        <ele>136.8</ele>
        <time>2023-12-20T14:22:47Z</time>
      </trkpt>
      <trkpt lat="48.6011" lon="2.05648">
        <ele>136.8</ele>
        <time>2023-12-20T14:22:48Z</time>
      </trkpt>
      <trkpt lat="48.60117" lon="2.0564">
        <ele>136.8</ele>
        <time>2023-12-20T14:22:49Z</time>
      </trkpt>
      <trkpt lat="48.60124" lon="2.05631">
        <ele>136.8</ele>
        <time>2023-12-20T14:22:50Z</time>
      </trkpt>
      <trkpt lat="48.60131" lon="2.05623">
        <ele>137.6</ele>
        <time>2023-12-20T14:22:51Z</time>
      </trkpt>
      <trkpt lat="48.60138" lon="2.05615">
        <ele>137.6</ele>
        <time>2023-12-20T14:22:52Z</time>
      </trkpt>
      <trkpt lat="48.60145" lon="2.05608">
        <ele>137.6</ele>
        <time>2023-12-20T14:22:53Z</time>
      </trkpt>
      <trkpt lat="48.60151" lon="2.05601">
        <ele>138.6</ele>
        <time>2023-12-20T14:22:54Z</time>
      </trkpt>
      <trkpt lat="48.60157" lon="2.05594">
        <ele>138.2</ele>
        <time>2023-12-20T14:22:55Z</time>
      </trkpt>
      <trkpt lat="48.60163" lon="2.05587">
        <ele>138.2</ele>
        <time>2023-12-20T14:22:56Z</time>
      </trkpt>
      <trkpt lat="48.6017" lon="2.0558">
        <ele>138.2</ele>
        <time>2023-12-20T14:22:57Z</time>
      </trkpt>
      <trkpt lat="48.60176" lon="2.05573">
        <ele>138.2</ele>
        <time>2023-12-20T14:22:58Z</time>
      </trkpt>
      <trkpt lat="48.60182" lon="2.05567">
        <ele>138.2</ele>
        <time>2023-12-20T14:22:59Z</time>
      </trkpt>
      <trkpt lat="48.60188" lon="2.0556">
        <ele>138.2</ele>
        <time>2023-12-20T14:23:00Z</time>
      </trkpt>
      <trkpt lat="48.60194" lon="2.05553">
        <ele>138.2</ele>
        <time>2023-12-20T14:23:01Z</time>
      </trkpt>
      <trkpt lat="48.602" lon="2.05546">
        <ele>138.4</ele>
        <time>2023-12-20T14:23:02Z</time>
      </trkpt>
      <trkpt lat="48.60206" lon="2.05539">
        <ele>137.8</ele>
        <time>2023-12-20T14:23:03Z</time>
      </trkpt>
      <trkpt lat="48.60211" lon="2.05534">
        <ele>137.8</ele>
        <time>2023-12-20T14:23:04Z</time>
      </trkpt>
      <trkpt lat="48.60217" lon="2.05529">
        <ele>137.8</ele>
        <time>2023-12-20T14:23:05Z</time>
      </trkpt>
      <trkpt lat="48.60223" lon="2.05522">
        <ele>138.8</ele>
        <time>2023-12-20T14:23:06Z</time>
      </trkpt>
      <trkpt lat="48.60228" lon="2.05515">
        <ele>138.4</ele>
        <time>2023-12-20T14:23:07Z</time>
      </trkpt>
      <trkpt lat="48.60234" lon="2.0551">
        <ele>138.4</ele>
        <time>2023-12-20T14:23:08Z</time>
      </trkpt>
      <trkpt lat="48.60239" lon="2.05504">
        <ele>138.4</ele>
        <time>2023-12-20T14:23:09Z</time>
      </trkpt>
      <trkpt lat="48.60245" lon="2.05497">
        <ele>139.4</ele>
        <time>2023-12-20T14:23:10Z</time>
      </trkpt>
      <trkpt lat="48.6025" lon="2.05491">
        <ele>140.2</ele>
        <time>2023-12-20T14:23:11Z</time>
      </trkpt>
      <trkpt lat="48.60255" lon="2.05485">
        <ele>140.2</ele>
        <time>2023-12-20T14:23:12Z</time>
      </trkpt>
      <trkpt lat="48.60261" lon="2.05478">
        <ele>140.2</ele>
        <time>2023-12-20T14:23:13Z</time>
      </trkpt>
      <trkpt lat="48.60266" lon="2.05472">
        <ele>140</ele>
        <time>2023-12-20T14:23:14Z</time>
      </trkpt>
      <trkpt lat="48.60271" lon="2.05465">
        <ele>140.4</ele>
        <time>2023-12-20T14:23:15Z</time>
      </trkpt>
      <trkpt lat="48.60277" lon="2.0546">
        <ele>140.4</ele>
        <time>2023-12-20T14:23:16Z</time>
      </trkpt>
      <trkpt lat="48.60282" lon="2.05454">
        <ele>140.4</ele>
        <time>2023-12-20T14:23:17Z</time>
      </trkpt>
      <trkpt lat="48.60287" lon="2.05449">
        <ele>140.4</ele>
        <time>2023-12-20T14:23:18Z</time>
      </trkpt>
      <trkpt lat="48.60292" lon="2.05443">
        <ele>140.2</ele>
        <time>2023-12-20T14:23:19Z</time>
      </trkpt>
      <trkpt lat="48.60298" lon="2.05437">
        <ele>140.2</ele>
        <time>2023-12-20T14:23:20Z</time>
      </trkpt>
      <trkpt lat="48.60303" lon="2.05431">
        <ele>140.2</ele>
        <time>2023-12-20T14:23:21Z</time>
      </trkpt>
      <trkpt lat="48.60309" lon="2.05425">
        <ele>141.2</ele>
        <time>2023-12-20T14:23:22Z</time>
      </trkpt>
      <trkpt lat="48.60314" lon="2.0542">
        <ele>141.2</ele>
        <time>2023-12-20T14:23:23Z</time>
      </trkpt>
      <trkpt lat="48.60319" lon="2.05414">
        <ele>141.2</ele>
        <time>2023-12-20T14:23:24Z</time>
      </trkpt>
      <trkpt lat="48.60325" lon="2.05409">
        <ele>141.2</ele>
        <time>2023-12-20T14:23:25Z</time>
      </trkpt>
      <trkpt lat="48.6033" lon="2.05404">
        <ele>141.8</ele>
        <time>2023-12-20T14:23:26Z</time>
      </trkpt>
      <trkpt lat="48.60335" lon="2.05398">
        <ele>141.4</ele>
        <time>2023-12-20T14:23:27Z</time>
      </trkpt>
      <trkpt lat="48.60341" lon="2.05393">
        <ele>141.4</ele>
        <time>2023-12-20T14:23:28Z</time>
      </trkpt>
      <trkpt lat="48.60347" lon="2.05389">
        <ele>141.4</ele>
        <time>2023-12-20T14:23:29Z</time>
      </trkpt>
      <trkpt lat="48.60352" lon="2.05383">
        <ele>141.4</ele>
        <time>2023-12-20T14:23:30Z</time>
      </trkpt>
      <trkpt lat="48.60357" lon="2.05378">
        <ele>141</ele>
        <time>2023-12-20T14:23:31Z</time>
      </trkpt>
      <trkpt lat="48.60363" lon="2.05374">
        <ele>141</ele>
        <time>2023-12-20T14:23:32Z</time>
      </trkpt>
      <trkpt lat="48.60368" lon="2.05369">
        <ele>141</ele>
        <time>2023-12-20T14:23:33Z</time>
      </trkpt>
      <trkpt lat="48.60374" lon="2.05363">
        <ele>141.2</ele>
        <time>2023-12-20T14:23:34Z</time>
      </trkpt>
      <trkpt lat="48.60379" lon="2.05358">
        <ele>141</ele>
        <time>2023-12-20T14:23:35Z</time>
      </trkpt>
      <trkpt lat="48.60384" lon="2.05353">
        <ele>141</ele>
        <time>2023-12-20T14:23:36Z</time>
      </trkpt>
      <trkpt lat="48.60389" lon="2.05348">
        <ele>141</ele>
        <time>2023-12-20T14:23:37Z</time>
      </trkpt>
      <trkpt lat="48.60394" lon="2.05344">
        <ele>141</ele>
        <time>2023-12-20T14:23:38Z</time>
      </trkpt>
      <trkpt lat="48.604" lon="2.05339">
        <ele>140.4</ele>
        <time>2023-12-20T14:23:39Z</time>
      </trkpt>
      <trkpt lat="48.60405" lon="2.05333">
        <ele>140.4</ele>
        <time>2023-12-20T14:23:40Z</time>
      </trkpt>
      <trkpt lat="48.6041" lon="2.05328">
        <ele>140.4</ele>
        <time>2023-12-20T14:23:41Z</time>
      </trkpt>
      <trkpt lat="48.60414" lon="2.05322">
        <ele>139.8</ele>
        <time>2023-12-20T14:23:42Z</time>
      </trkpt>
      <trkpt lat="48.6042" lon="2.05317">
        <ele>139.4</ele>
        <time>2023-12-20T14:23:43Z</time>
      </trkpt>
      <trkpt lat="48.60425" lon="2.05312">
        <ele>139.4</ele>
        <time>2023-12-20T14:23:44Z</time>
      </trkpt>
      <trkpt lat="48.60431" lon="2.05309">
        <ele>139.4</ele>
        <time>2023-12-20T14:23:45Z</time>
      </trkpt>
      <trkpt lat="48.60437" lon="2.05303">
        <ele>139.4</ele>
        <time>2023-12-20T14:23:46Z</time>
      </trkpt>
      <trkpt lat="48.60443" lon="2.05297">
        <ele>138.8</ele>
        <time>2023-12-20T14:23:47Z</time>
      </trkpt>
      <trkpt lat="48.6045" lon="2.05292">
        <ele>138.8</ele>
        <time>2023-12-20T14:23:48Z</time>
      </trkpt>
      <trkpt lat="48.60455" lon="2.05286">
        <ele>138.8</ele>
        <time>2023-12-20T14:23:49Z</time>
      </trkpt>
      <trkpt lat="48.60461" lon="2.0528">
        <ele>137.8</ele>
        <time>2023-12-20T14:23:50Z</time>
      </trkpt>
      <trkpt lat="48.60467" lon="2.05274">
        <ele>137.8</ele>
        <time>2023-12-20T14:23:51Z</time>
      </trkpt>
      <trkpt lat="48.60474" lon="2.05269">
        <ele>137.8</ele>
        <time>2023-12-20T14:23:52Z</time>
      </trkpt>
      <trkpt lat="48.6048" lon="2.05263">
        <ele>137.8</ele>
        <time>2023-12-20T14:23:53Z</time>
      </trkpt>
      <trkpt lat="48.60485" lon="2.05257">
        <ele>136.8</ele>
        <time>2023-12-20T14:23:54Z</time>
      </trkpt>
      <trkpt lat="48.60492" lon="2.0525">
        <ele>136</ele>
        <time>2023-12-20T14:23:55Z</time>
      </trkpt>
      <trkpt lat="48.60499" lon="2.05244">
        <ele>136</ele>
        <time>2023-12-20T14:23:56Z</time>
      </trkpt>
      <trkpt lat="48.60506" lon="2.05237">
        <ele>136</ele>
        <time>2023-12-20T14:23:57Z</time>
      </trkpt>
      <trkpt lat="48.60515" lon="2.0523">
        <ele>135</ele>
        <time>2023-12-20T14:23:58Z</time>
      </trkpt>
      <trkpt lat="48.60523" lon="2.05224">
        <ele>133.8</ele>
        <time>2023-12-20T14:23:59Z</time>
      </trkpt>
      <trkpt lat="48.60531" lon="2.05217">
        <ele>133.8</ele>
        <time>2023-12-20T14:24:00Z</time>
      </trkpt>
      <trkpt lat="48.60538" lon="2.05209">
        <ele>133.8</ele>
        <time>2023-12-20T14:24:01Z</time>
      </trkpt>
      <trkpt lat="48.60546" lon="2.05201">
        <ele>133</ele>
        <time>2023-12-20T14:24:02Z</time>
      </trkpt>
      <trkpt lat="48.60553" lon="2.05194">
        <ele>132.8</ele>
        <time>2023-12-20T14:24:03Z</time>
      </trkpt>
      <trkpt lat="48.60562" lon="2.05186">
        <ele>132.8</ele>
        <time>2023-12-20T14:24:04Z</time>
      </trkpt>
      <trkpt lat="48.6057" lon="2.05178">
        <ele>132.8</ele>
        <time>2023-12-20T14:24:05Z</time>
      </trkpt>
      <trkpt lat="48.60578" lon="2.05171">
        <ele>132.4</ele>
        <time>2023-12-20T14:24:06Z</time>
      </trkpt>
      <trkpt lat="48.60586" lon="2.05164">
        <ele>133</ele>
        <time>2023-12-20T14:24:07Z</time>
      </trkpt>
      <trkpt lat="48.60595" lon="2.05157">
        <ele>133</ele>
        <time>2023-12-20T14:24:08Z</time>
      </trkpt>
      <trkpt lat="48.60602" lon="2.0515">
        <ele>133</ele>
        <time>2023-12-20T14:24:09Z</time>
      </trkpt>
      <trkpt lat="48.6061" lon="2.05143">
        <ele>134</ele>
        <time>2023-12-20T14:24:10Z</time>
      </trkpt>
      <trkpt lat="48.60617" lon="2.05136">
        <ele>134.4</ele>
        <time>2023-12-20T14:24:11Z</time>
      </trkpt>
      <trkpt lat="48.60624" lon="2.05129">
        <ele>134.4</ele>
        <time>2023-12-20T14:24:12Z</time>
      </trkpt>
      <trkpt lat="48.60631" lon="2.05123">
        <ele>134.4</ele>
        <time>2023-12-20T14:24:13Z</time>
      </trkpt>
      <trkpt lat="48.60638" lon="2.05117">
        <ele>135.4</ele>
        <time>2023-12-20T14:24:14Z</time>
      </trkpt>
      <trkpt lat="48.60644" lon="2.05112">
        <ele>136.8</ele>
        <time>2023-12-20T14:24:15Z</time>
      </trkpt>
      <trkpt lat="48.6065" lon="2.05107">
        <ele>136.8</ele>
        <time>2023-12-20T14:24:16Z</time>
      </trkpt>
      <trkpt lat="48.60657" lon="2.05102">
        <ele>136.8</ele>
        <time>2023-12-20T14:24:17Z</time>
      </trkpt>
      <trkpt lat="48.60662" lon="2.05098">
        <ele>137.8</ele>
        <time>2023-12-20T14:24:18Z</time>
      </trkpt>
      <trkpt lat="48.60667" lon="2.05094">
        <ele>139.2</ele>
        <time>2023-12-20T14:24:19Z</time>
      </trkpt>
      <trkpt lat="48.60672" lon="2.0509">
        <ele>139.2</ele>
        <time>2023-12-20T14:24:20Z</time>
      </trkpt>
      <trkpt lat="48.60678" lon="2.05087">
        <ele>139.2</ele>
        <time>2023-12-20T14:24:21Z</time>
      </trkpt>
      <trkpt lat="48.60683" lon="2.05083">
        <ele>139.2</ele>
        <time>2023-12-20T14:24:22Z</time>
      </trkpt>
      <trkpt lat="48.60688" lon="2.0508">
        <ele>139.8</ele>
        <time>2023-12-20T14:24:23Z</time>
      </trkpt>
      <trkpt lat="48.60693" lon="2.05077">
        <ele>139.8</ele>
        <time>2023-12-20T14:24:24Z</time>
      </trkpt>
      <trkpt lat="48.60697" lon="2.05073">
        <ele>139.8</ele>
        <time>2023-12-20T14:24:25Z</time>
      </trkpt>
      <trkpt lat="48.60702" lon="2.0507">
        <ele>139.8</ele>
        <time>2023-12-20T14:24:26Z</time>
      </trkpt>
      <trkpt lat="48.60706" lon="2.05066">
        <ele>141.4</ele>
        <time>2023-12-20T14:24:27Z</time>
      </trkpt>
      <trkpt lat="48.60711" lon="2.05063">
        <ele>141.4</ele>
        <time>2023-12-20T14:24:28Z</time>
      </trkpt>
      <trkpt lat="48.60716" lon="2.05059">
        <ele>141.4</ele>
        <time>2023-12-20T14:24:29Z</time>
      </trkpt>
      <trkpt lat="48.6072" lon="2.05057">
        <ele>142.2</ele>
        <time>2023-12-20T14:24:30Z</time>
      </trkpt>
      <trkpt lat="48.60724" lon="2.05054">
        <ele>142.2</ele>
        <time>2023-12-20T14:24:31Z</time>
      </trkpt>
      <trkpt lat="48.60728" lon="2.05052">
        <ele>142.2</ele>
        <time>2023-12-20T14:24:32Z</time>
      </trkpt>
      <trkpt lat="48.60732" lon="2.05049">
        <ele>142.2</ele>
        <time>2023-12-20T14:24:33Z</time>
      </trkpt>
      <trkpt lat="48.60735" lon="2.05048">
        <ele>143.2</ele>
        <time>2023-12-20T14:24:34Z</time>
      </trkpt>
      <trkpt lat="48.60739" lon="2.05045">
        <ele>144</ele>
        <time>2023-12-20T14:24:35Z</time>
      </trkpt>
      <trkpt lat="48.60743" lon="2.05043">
        <ele>144</ele>
        <time>2023-12-20T14:24:36Z</time>
      </trkpt>
      <trkpt lat="48.60747" lon="2.0504">
        <ele>144</ele>
        <time>2023-12-20T14:24:37Z</time>
      </trkpt>
      <trkpt lat="48.60751" lon="2.05039">
        <ele>144</ele>
        <time>2023-12-20T14:24:38Z</time>
      </trkpt>
      <trkpt lat="48.60754" lon="2.05037">
        <ele>144.4</ele>
        <time>2023-12-20T14:24:39Z</time>
      </trkpt>
      <trkpt lat="48.60758" lon="2.05036">
        <ele>144.4</ele>
        <time>2023-12-20T14:24:40Z</time>
      </trkpt>
      <trkpt lat="48.60762" lon="2.05034">
        <ele>144.4</ele>
        <time>2023-12-20T14:24:41Z</time>
      </trkpt>
      <trkpt lat="48.60766" lon="2.05031">
        <ele>145.4</ele>
        <time>2023-12-20T14:24:42Z</time>
      </trkpt>
      <trkpt lat="48.60769" lon="2.05028">
        <ele>145.8</ele>
        <time>2023-12-20T14:24:43Z</time>
      </trkpt>
      <trkpt lat="48.60773" lon="2.05026">
        <ele>145.8</ele>
        <time>2023-12-20T14:24:44Z</time>
      </trkpt>
      <trkpt lat="48.60776" lon="2.05024">
        <ele>145.8</ele>
        <time>2023-12-20T14:24:45Z</time>
      </trkpt>
      <trkpt lat="48.6078" lon="2.05021">
        <ele>146.4</ele>
        <time>2023-12-20T14:24:46Z</time>
      </trkpt>
      <trkpt lat="48.60783" lon="2.05019">
        <ele>146.8</ele>
        <time>2023-12-20T14:24:47Z</time>
      </trkpt>
      <trkpt lat="48.60787" lon="2.05016">
        <ele>146.8</ele>
        <time>2023-12-20T14:24:48Z</time>
      </trkpt>
      <trkpt lat="48.6079" lon="2.05014">
        <ele>146.8</ele>
        <time>2023-12-20T14:24:49Z</time>
      </trkpt>
      <trkpt lat="48.60794" lon="2.05011">
        <ele>147.6</ele>
        <time>2023-12-20T14:24:50Z</time>
      </trkpt>
      <trkpt lat="48.60798" lon="2.05009">
        <ele>148.4</ele>
        <time>2023-12-20T14:24:51Z</time>
      </trkpt>
      <trkpt lat="48.60801" lon="2.05006">
        <ele>148.4</ele>
        <time>2023-12-20T14:24:52Z</time>
      </trkpt>
      <trkpt lat="48.60805" lon="2.05003">
        <ele>148.4</ele>
        <time>2023-12-20T14:24:53Z</time>
      </trkpt>
      <trkpt lat="48.60808" lon="2.05001">
        <ele>148.4</ele>
        <time>2023-12-20T14:24:54Z</time>
      </trkpt>
      <trkpt lat="48.60812" lon="2.04998">
        <ele>149</ele>
        <time>2023-12-20T14:24:55Z</time>
      </trkpt>
      <trkpt lat="48.60815" lon="2.04996">
        <ele>149</ele>
        <time>2023-12-20T14:24:56Z</time>
      </trkpt>
      <trkpt lat="48.60819" lon="2.04993">
        <ele>149</ele>
        <time>2023-12-20T14:24:57Z</time>
      </trkpt>
      <trkpt lat="48.60822" lon="2.04992">
        <ele>149.2</ele>
        <time>2023-12-20T14:24:58Z</time>
      </trkpt>
      <trkpt lat="48.60826" lon="2.04989">
        <ele>149.8</ele>
        <time>2023-12-20T14:24:59Z</time>
      </trkpt>
      <trkpt lat="48.6083" lon="2.04984">
        <ele>149.8</ele>
        <time>2023-12-20T14:25:00Z</time>
      </trkpt>
      <trkpt lat="48.60833" lon="2.0498">
        <ele>149.8</ele>
        <time>2023-12-20T14:25:01Z</time>
      </trkpt>
      <trkpt lat="48.60836" lon="2.04976">
        <ele>149.8</ele>
        <time>2023-12-20T14:25:02Z</time>
      </trkpt>
      <trkpt lat="48.60839" lon="2.04973">
        <ele>150.8</ele>
        <time>2023-12-20T14:25:03Z</time>
      </trkpt>
      <trkpt lat="48.60842" lon="2.04969">
        <ele>150.8</ele>
        <time>2023-12-20T14:25:04Z</time>
      </trkpt>
      <trkpt lat="48.60845" lon="2.04965">
        <ele>150.8</ele>
        <time>2023-12-20T14:25:05Z</time>
      </trkpt>
      <trkpt lat="48.60848" lon="2.04961">
        <ele>150</ele>
        <time>2023-12-20T14:25:06Z</time>
      </trkpt>
      <trkpt lat="48.60851" lon="2.04957">
        <ele>150.2</ele>
        <time>2023-12-20T14:25:07Z</time>
      </trkpt>
      <trkpt lat="48.60854" lon="2.04953">
        <ele>150.2</ele>
        <time>2023-12-20T14:25:08Z</time>
      </trkpt>
      <trkpt lat="48.60856" lon="2.04949">
        <ele>150.2</ele>
        <time>2023-12-20T14:25:09Z</time>
      </trkpt>
      <trkpt lat="48.60859" lon="2.04945">
        <ele>150.8</ele>
        <time>2023-12-20T14:25:10Z</time>
      </trkpt>
      <trkpt lat="48.60862" lon="2.04941">
        <ele>150.6</ele>
        <time>2023-12-20T14:25:11Z</time>
      </trkpt>
      <trkpt lat="48.60865" lon="2.04938">
        <ele>150.6</ele>
        <time>2023-12-20T14:25:12Z</time>
      </trkpt>
      <trkpt lat="48.60868" lon="2.04934">
        <ele>150.6</ele>
        <time>2023-12-20T14:25:13Z</time>
      </trkpt>
      <trkpt lat="48.60871" lon="2.0493">
        <ele>150.6</ele>
        <time>2023-12-20T14:25:14Z</time>
      </trkpt>
      <trkpt lat="48.60874" lon="2.04926">
        <ele>150.6</ele>
        <time>2023-12-20T14:25:15Z</time>
      </trkpt>
      <trkpt lat="48.60878" lon="2.04922">
        <ele>150.6</ele>
        <time>2023-12-20T14:25:16Z</time>
      </trkpt>
      <trkpt lat="48.60882" lon="2.04918">
        <ele>150.6</ele>
        <time>2023-12-20T14:25:17Z</time>
      </trkpt>
      <trkpt lat="48.60885" lon="2.04914">
        <ele>151.4</ele>
        <time>2023-12-20T14:25:18Z</time>
      </trkpt>
      <trkpt lat="48.6089" lon="2.04911">
        <ele>151.6</ele>
        <time>2023-12-20T14:25:19Z</time>
      </trkpt>
      <trkpt lat="48.60894" lon="2.04908">
        <ele>151.6</ele>
        <time>2023-12-20T14:25:20Z</time>
      </trkpt>
      <trkpt lat="48.60898" lon="2.04904">
        <ele>151.6</ele>
        <time>2023-12-20T14:25:21Z</time>
      </trkpt>
      <trkpt lat="48.60902" lon="2.049">
        <ele>151</ele>
        <time>2023-12-20T14:25:22Z</time>
      </trkpt>
      <trkpt lat="48.60906" lon="2.04897">
        <ele>150.6</ele>
        <time>2023-12-20T14:25:23Z</time>
      </trkpt>
      <trkpt lat="48.60911" lon="2.04893">
        <ele>150.6</ele>
        <time>2023-12-20T14:25:24Z</time>
      </trkpt>
      <trkpt lat="48.60916" lon="2.04888">
        <ele>150.6</ele>
        <time>2023-12-20T14:25:25Z</time>
      </trkpt>
      <trkpt lat="48.6092" lon="2.04884">
        <ele>150.6</ele>
        <time>2023-12-20T14:25:26Z</time>
      </trkpt>
      <trkpt lat="48.60924" lon="2.04878">
        <ele>150.2</ele>
        <time>2023-12-20T14:25:27Z</time>
      </trkpt>
      <trkpt lat="48.60928" lon="2.04873">
        <ele>150.2</ele>
        <time>2023-12-20T14:25:28Z</time>
      </trkpt>
      <trkpt lat="48.60933" lon="2.04867">
        <ele>150.2</ele>
        <time>2023-12-20T14:25:29Z</time>
      </trkpt>
      <trkpt lat="48.60938" lon="2.04861">
        <ele>149.2</ele>
        <time>2023-12-20T14:25:30Z</time>
      </trkpt>
      <trkpt lat="48.60942" lon="2.04855">
        <ele>148.8</ele>
        <time>2023-12-20T14:25:31Z</time>
      </trkpt>
      <trkpt lat="48.60947" lon="2.04848">
        <ele>148.8</ele>
        <time>2023-12-20T14:25:32Z</time>
      </trkpt>
      <trkpt lat="48.60952" lon="2.04841">
        <ele>148.8</ele>
        <time>2023-12-20T14:25:33Z</time>
      </trkpt>
      <trkpt lat="48.60957" lon="2.04834">
        <ele>147.8</ele>
        <time>2023-12-20T14:25:34Z</time>
      </trkpt>
      <trkpt lat="48.60962" lon="2.04828">
        <ele>146.8</ele>
        <time>2023-12-20T14:25:35Z</time>
      </trkpt>
      <trkpt lat="48.60967" lon="2.0482">
        <ele>146.8</ele>
        <time>2023-12-20T14:25:36Z</time>
      </trkpt>
      <trkpt lat="48.60972" lon="2.04813">
        <ele>146.8</ele>
        <time>2023-12-20T14:25:37Z</time>
      </trkpt>
      <trkpt lat="48.60978" lon="2.04805">
        <ele>145.8</ele>
        <time>2023-12-20T14:25:38Z</time>
      </trkpt>
      <trkpt lat="48.60983" lon="2.04797">
        <ele>144.4</ele>
        <time>2023-12-20T14:25:39Z</time>
      </trkpt>
      <trkpt lat="48.60989" lon="2.04789">
        <ele>144.4</ele>
        <time>2023-12-20T14:25:40Z</time>
      </trkpt>
      <trkpt lat="48.60995" lon="2.0478">
        <ele>144.4</ele>
        <time>2023-12-20T14:25:41Z</time>
      </trkpt>
      <trkpt lat="48.61001" lon="2.04772">
        <ele>143.4</ele>
        <time>2023-12-20T14:25:42Z</time>
      </trkpt>
      <trkpt lat="48.61007" lon="2.04763">
        <ele>143.2</ele>
        <time>2023-12-20T14:25:43Z</time>
      </trkpt>
      <trkpt lat="48.61013" lon="2.04755">
        <ele>143.2</ele>
        <time>2023-12-20T14:25:44Z</time>
      </trkpt>
      <trkpt lat="48.61019" lon="2.04745">
        <ele>143.2</ele>
        <time>2023-12-20T14:25:45Z</time>
      </trkpt>
      <trkpt lat="48.61025" lon="2.04735">
        <ele>142.4</ele>
        <time>2023-12-20T14:25:46Z</time>
      </trkpt>
      <trkpt lat="48.61031" lon="2.04726">
        <ele>141.8</ele>
        <time>2023-12-20T14:25:47Z</time>
      </trkpt>
      <trkpt lat="48.61038" lon="2.04717">
        <ele>141.8</ele>
        <time>2023-12-20T14:25:48Z</time>
      </trkpt>
      <trkpt lat="48.61044" lon="2.04707">
        <ele>141.8</ele>
        <time>2023-12-20T14:25:49Z</time>
      </trkpt>
      <trkpt lat="48.6105" lon="2.04698">
        <ele>140.8</ele>
        <time>2023-12-20T14:25:50Z</time>
      </trkpt>
      <trkpt lat="48.61057" lon="2.04688">
        <ele>140</ele>
        <time>2023-12-20T14:25:51Z</time>
      </trkpt>
      <trkpt lat="48.61062" lon="2.04677">
        <ele>140</ele>
        <time>2023-12-20T14:25:52Z</time>
      </trkpt>
      <trkpt lat="48.61068" lon="2.04665">
        <ele>140</ele>
        <time>2023-12-20T14:25:53Z</time>
      </trkpt>
      <trkpt lat="48.61074" lon="2.04653">
        <ele>140</ele>
        <time>2023-12-20T14:25:54Z</time>
      </trkpt>
      <trkpt lat="48.6108" lon="2.04642">
        <ele>140.2</ele>
        <time>2023-12-20T14:25:55Z</time>
      </trkpt>
      <trkpt lat="48.61086" lon="2.04631">
        <ele>140.2</ele>
        <time>2023-12-20T14:25:56Z</time>
      </trkpt>
      <trkpt lat="48.61092" lon="2.0462">
        <ele>140.2</ele>
        <time>2023-12-20T14:25:57Z</time>
      </trkpt>
      <trkpt lat="48.61099" lon="2.04609">
        <ele>139.2</ele>
        <time>2023-12-20T14:25:58Z</time>
      </trkpt>
      <trkpt lat="48.61106" lon="2.04598">
        <ele>136.4</ele>
        <time>2023-12-20T14:25:59Z</time>
      </trkpt>
      <trkpt lat="48.61113" lon="2.04587">
        <ele>136.4</ele>
        <time>2023-12-20T14:26:00Z</time>
      </trkpt>
      <trkpt lat="48.6112" lon="2.04576">
        <ele>136.4</ele>
        <time>2023-12-20T14:26:01Z</time>
      </trkpt>
      <trkpt lat="48.61127" lon="2.04566">
        <ele>135.4</ele>
        <time>2023-12-20T14:26:02Z</time>
      </trkpt>
      <trkpt lat="48.61134" lon="2.04555">
        <ele>134</ele>
        <time>2023-12-20T14:26:03Z</time>
      </trkpt>
      <trkpt lat="48.61142" lon="2.04544">
        <ele>134</ele>
        <time>2023-12-20T14:26:04Z</time>
      </trkpt>
      <trkpt lat="48.61149" lon="2.04532">
        <ele>134</ele>
        <time>2023-12-20T14:26:05Z</time>
      </trkpt>
      <trkpt lat="48.61156" lon="2.04521">
        <ele>134</ele>
        <time>2023-12-20T14:26:06Z</time>
      </trkpt>
      <trkpt lat="48.61163" lon="2.0451">
        <ele>132.4</ele>
        <time>2023-12-20T14:26:07Z</time>
      </trkpt>
      <trkpt lat="48.6117" lon="2.045">
        <ele>132.4</ele>
        <time>2023-12-20T14:26:08Z</time>
      </trkpt>
      <trkpt lat="48.61178" lon="2.0449">
        <ele>132.4</ele>
        <time>2023-12-20T14:26:09Z</time>
      </trkpt>
      <trkpt lat="48.61185" lon="2.04478">
        <ele>131.4</ele>
        <time>2023-12-20T14:26:10Z</time>
      </trkpt>
      <trkpt lat="48.61192" lon="2.04467">
        <ele>131.2</ele>
        <time>2023-12-20T14:26:11Z</time>
      </trkpt>
      <trkpt lat="48.612" lon="2.04456">
        <ele>131.2</ele>
        <time>2023-12-20T14:26:12Z</time>
      </trkpt>
      <trkpt lat="48.61207" lon="2.04444">
        <ele>131.2</ele>
        <time>2023-12-20T14:26:13Z</time>
      </trkpt>
      <trkpt lat="48.61214" lon="2.04433">
        <ele>130.2</ele>
        <time>2023-12-20T14:26:14Z</time>
      </trkpt>
      <trkpt lat="48.61221" lon="2.04421">
        <ele>128.4</ele>
        <time>2023-12-20T14:26:15Z</time>
      </trkpt>
      <trkpt lat="48.61229" lon="2.04412">
        <ele>128.4</ele>
        <time>2023-12-20T14:26:16Z</time>
      </trkpt>
      <trkpt lat="48.61236" lon="2.04401">
        <ele>128.4</ele>
        <time>2023-12-20T14:26:17Z</time>
      </trkpt>
      <trkpt lat="48.61243" lon="2.0439">
        <ele>127.4</ele>
        <time>2023-12-20T14:26:18Z</time>
      </trkpt>
      <trkpt lat="48.6125" lon="2.04379">
        <ele>126</ele>
        <time>2023-12-20T14:26:19Z</time>
      </trkpt>
      <trkpt lat="48.61257" lon="2.04369">
        <ele>126</ele>
        <time>2023-12-20T14:26:20Z</time>
      </trkpt>
      <trkpt lat="48.61264" lon="2.04357">
        <ele>126</ele>
        <time>2023-12-20T14:26:21Z</time>
      </trkpt>
      <trkpt lat="48.61271" lon="2.04346">
        <ele>125</ele>
        <time>2023-12-20T14:26:22Z</time>
      </trkpt>
      <trkpt lat="48.61277" lon="2.04334">
        <ele>125.6</ele>
        <time>2023-12-20T14:26:23Z</time>
      </trkpt>
      <trkpt lat="48.61284" lon="2.04323">
        <ele>125.6</ele>
        <time>2023-12-20T14:26:24Z</time>
      </trkpt>
      <trkpt lat="48.61292" lon="2.04314">
        <ele>125.6</ele>
        <time>2023-12-20T14:26:25Z</time>
      </trkpt>
      <trkpt lat="48.61299" lon="2.04302">
        <ele>124.6</ele>
        <time>2023-12-20T14:26:26Z</time>
      </trkpt>
      <trkpt lat="48.61306" lon="2.04291">
        <ele>123.8</ele>
        <time>2023-12-20T14:26:27Z</time>
      </trkpt>
      <trkpt lat="48.61313" lon="2.04279">
        <ele>123.8</ele>
        <time>2023-12-20T14:26:28Z</time>
      </trkpt>
      <trkpt lat="48.6132" lon="2.04269">
        <ele>123.8</ele>
        <time>2023-12-20T14:26:29Z</time>
      </trkpt>
      <trkpt lat="48.61327" lon="2.04257">
        <ele>124.4</ele>
        <time>2023-12-20T14:26:30Z</time>
      </trkpt>
      <trkpt lat="48.61333" lon="2.04245">
        <ele>125.2</ele>
        <time>2023-12-20T14:26:31Z</time>
      </trkpt>
      <trkpt lat="48.61339" lon="2.04233">
        <ele>125.2</ele>
        <time>2023-12-20T14:26:32Z</time>
      </trkpt>
      <trkpt lat="48.61345" lon="2.0422">
        <ele>125.2</ele>
        <time>2023-12-20T14:26:33Z</time>
      </trkpt>
      <trkpt lat="48.61351" lon="2.04208">
        <ele>124.4</ele>
        <time>2023-12-20T14:26:34Z</time>
      </trkpt>
      <trkpt lat="48.61356" lon="2.04196">
        <ele>124.6</ele>
        <time>2023-12-20T14:26:35Z</time>
      </trkpt>
      <trkpt lat="48.6136" lon="2.04183">
        <ele>124.6</ele>
        <time>2023-12-20T14:26:36Z</time>
      </trkpt>
      <trkpt lat="48.61365" lon="2.0417">
        <ele>124.6</ele>
        <time>2023-12-20T14:26:37Z</time>
      </trkpt>
      <trkpt lat="48.61369" lon="2.04158">
        <ele>125.6</ele>
        <time>2023-12-20T14:26:38Z</time>
      </trkpt>
      <trkpt lat="48.61373" lon="2.04146">
        <ele>125.8</ele>
        <time>2023-12-20T14:26:39Z</time>
      </trkpt>
      <trkpt lat="48.61378" lon="2.04133">
        <ele>125.8</ele>
        <time>2023-12-20T14:26:40Z</time>
      </trkpt>
      <trkpt lat="48.61382" lon="2.04121">
        <ele>125.8</ele>
        <time>2023-12-20T14:26:41Z</time>
      </trkpt>
      <trkpt lat="48.61387" lon="2.04109">
        <ele>126.6</ele>
        <time>2023-12-20T14:26:42Z</time>
      </trkpt>
      <trkpt lat="48.61391" lon="2.04098">
        <ele>126.2</ele>
        <time>2023-12-20T14:26:43Z</time>
      </trkpt>
      <trkpt lat="48.61395" lon="2.04087">
        <ele>126.2</ele>
        <time>2023-12-20T14:26:44Z</time>
      </trkpt>
      <trkpt lat="48.61399" lon="2.04076">
        <ele>126.2</ele>
        <time>2023-12-20T14:26:45Z</time>
      </trkpt>
      <trkpt lat="48.61403" lon="2.04065">
        <ele>126.2</ele>
        <time>2023-12-20T14:26:46Z</time>
      </trkpt>
      <trkpt lat="48.61407" lon="2.04054">
        <ele>126.6</ele>
        <time>2023-12-20T14:26:47Z</time>
      </trkpt>
      <trkpt lat="48.6141" lon="2.04044">
        <ele>126.6</ele>
        <time>2023-12-20T14:26:48Z</time>
      </trkpt>
      <trkpt lat="48.61414" lon="2.04034">
        <ele>126.6</ele>
        <time>2023-12-20T14:26:49Z</time>
      </trkpt>
      <trkpt lat="48.61417" lon="2.04023">
        <ele>127.4</ele>
        <time>2023-12-20T14:26:50Z</time>
      </trkpt>
      <trkpt lat="48.61421" lon="2.04014">
        <ele>127</ele>
        <time>2023-12-20T14:26:51Z</time>
      </trkpt>
      <trkpt lat="48.61424" lon="2.04004">
        <ele>127</ele>
        <time>2023-12-20T14:26:52Z</time>
      </trkpt>
      <trkpt lat="48.61427" lon="2.03994">
        <ele>127</ele>
        <time>2023-12-20T14:26:53Z</time>
      </trkpt>
      <trkpt lat="48.61431" lon="2.03985">
        <ele>127</ele>
        <time>2023-12-20T14:26:54Z</time>
      </trkpt>
      <trkpt lat="48.61434" lon="2.03976">
        <ele>127.4</ele>
        <time>2023-12-20T14:26:55Z</time>
      </trkpt>
      <trkpt lat="48.61437" lon="2.03966">
        <ele>127.4</ele>
        <time>2023-12-20T14:26:56Z</time>
      </trkpt>
      <trkpt lat="48.6144" lon="2.03957">
        <ele>127.4</ele>
        <time>2023-12-20T14:26:57Z</time>
      </trkpt>
      <trkpt lat="48.61443" lon="2.03947">
        <ele>128.2</ele>
        <time>2023-12-20T14:26:58Z</time>
      </trkpt>
      <trkpt lat="48.61446" lon="2.03938">
        <ele>128.8</ele>
        <time>2023-12-20T14:26:59Z</time>
      </trkpt>
      <trkpt lat="48.61448" lon="2.03928">
        <ele>128.8</ele>
        <time>2023-12-20T14:27:00Z</time>
      </trkpt>
      <trkpt lat="48.61451" lon="2.03919">
        <ele>128.8</ele>
        <time>2023-12-20T14:27:01Z</time>
      </trkpt>
      <trkpt lat="48.61454" lon="2.0391">
        <ele>128.4</ele>
        <time>2023-12-20T14:27:02Z</time>
      </trkpt>
      <trkpt lat="48.61457" lon="2.03901">
        <ele>128.6</ele>
        <time>2023-12-20T14:27:03Z</time>
      </trkpt>
      <trkpt lat="48.6146" lon="2.03892">
        <ele>128.6</ele>
        <time>2023-12-20T14:27:04Z</time>
      </trkpt>
      <trkpt lat="48.61463" lon="2.03883">
        <ele>128.6</ele>
        <time>2023-12-20T14:27:05Z</time>
      </trkpt>
      <trkpt lat="48.61466" lon="2.03874">
        <ele>128.6</ele>
        <time>2023-12-20T14:27:06Z</time>
      </trkpt>
      <trkpt lat="48.61469" lon="2.03865">
        <ele>129</ele>
        <time>2023-12-20T14:27:07Z</time>
      </trkpt>
      <trkpt lat="48.61472" lon="2.03856">
        <ele>129</ele>
        <time>2023-12-20T14:27:08Z</time>
      </trkpt>
      <trkpt lat="48.61475" lon="2.03848">
        <ele>129</ele>
        <time>2023-12-20T14:27:09Z</time>
      </trkpt>
      <trkpt lat="48.61478" lon="2.03839">
        <ele>130</ele>
        <time>2023-12-20T14:27:10Z</time>
      </trkpt>
      <trkpt lat="48.61481" lon="2.0383">
        <ele>130.4</ele>
        <time>2023-12-20T14:27:11Z</time>
      </trkpt>
      <trkpt lat="48.61484" lon="2.03821">
        <ele>130.4</ele>
        <time>2023-12-20T14:27:12Z</time>
      </trkpt>
      <trkpt lat="48.61488" lon="2.03812">
        <ele>130.4</ele>
        <time>2023-12-20T14:27:13Z</time>
      </trkpt>
      <trkpt lat="48.61491" lon="2.03803">
        <ele>130.8</ele>
        <time>2023-12-20T14:27:14Z</time>
      </trkpt>
      <trkpt lat="48.61494" lon="2.03795">
        <ele>130.6</ele>
        <time>2023-12-20T14:27:15Z</time>
      </trkpt>
      <trkpt lat="48.61497" lon="2.03786">
        <ele>130.6</ele>
        <time>2023-12-20T14:27:16Z</time>
      </trkpt>
      <trkpt lat="48.615" lon="2.03777">
        <ele>130.6</ele>
        <time>2023-12-20T14:27:17Z</time>
      </trkpt>
      <trkpt lat="48.61503" lon="2.03768">
        <ele>131.6</ele>
        <time>2023-12-20T14:27:18Z</time>
      </trkpt>
      <trkpt lat="48.61507" lon="2.03759">
        <ele>131.6</ele>
        <time>2023-12-20T14:27:19Z</time>
      </trkpt>
      <trkpt lat="48.6151" lon="2.0375">
        <ele>131.6</ele>
        <time>2023-12-20T14:27:20Z</time>
      </trkpt>
      <trkpt lat="48.61513" lon="2.03742">
        <ele>131.6</ele>
        <time>2023-12-20T14:27:21Z</time>
      </trkpt>
      <trkpt lat="48.61516" lon="2.03733">
        <ele>131.8</ele>
        <time>2023-12-20T14:27:22Z</time>
      </trkpt>
      <trkpt lat="48.61519" lon="2.03724">
        <ele>131.6</ele>
        <time>2023-12-20T14:27:23Z</time>
      </trkpt>
      <trkpt lat="48.61523" lon="2.03715">
        <ele>131.6</ele>
        <time>2023-12-20T14:27:24Z</time>
      </trkpt>
      <trkpt lat="48.61526" lon="2.03706">
        <ele>131.6</ele>
        <time>2023-12-20T14:27:25Z</time>
      </trkpt>
      <trkpt lat="48.61529" lon="2.03697">
        <ele>131.6</ele>
        <time>2023-12-20T14:27:26Z</time>
      </trkpt>
      <trkpt lat="48.61532" lon="2.03688">
        <ele>131.4</ele>
        <time>2023-12-20T14:27:27Z</time>
      </trkpt>
      <trkpt lat="48.61535" lon="2.0368">
        <ele>131.4</ele>
        <time>2023-12-20T14:27:28Z</time>
      </trkpt>
      <trkpt lat="48.61538" lon="2.03671">
        <ele>131.4</ele>
        <time>2023-12-20T14:27:29Z</time>
      </trkpt>
      <trkpt lat="48.61541" lon="2.03662">
        <ele>131.4</ele>
        <time>2023-12-20T14:27:30Z</time>
      </trkpt>
      <trkpt lat="48.61544" lon="2.03653">
        <ele>132.4</ele>
        <time>2023-12-20T14:27:31Z</time>
      </trkpt>
      <trkpt lat="48.61547" lon="2.03644">
        <ele>132.4</ele>
        <time>2023-12-20T14:27:32Z</time>
      </trkpt>
      <trkpt lat="48.61551" lon="2.03635">
        <ele>132.4</ele>
        <time>2023-12-20T14:27:33Z</time>
      </trkpt>
      <trkpt lat="48.61554" lon="2.03626">
        <ele>132.4</ele>
        <time>2023-12-20T14:27:34Z</time>
      </trkpt>
      <trkpt lat="48.61557" lon="2.03617">
        <ele>132.6</ele>
        <time>2023-12-20T14:27:35Z</time>
      </trkpt>
      <trkpt lat="48.6156" lon="2.03608">
        <ele>132.6</ele>
        <time>2023-12-20T14:27:36Z</time>
      </trkpt>
      <trkpt lat="48.61564" lon="2.03599">
        <ele>132.6</ele>
        <time>2023-12-20T14:27:37Z</time>
      </trkpt>
      <trkpt lat="48.61567" lon="2.0359">
        <ele>132.6</ele>
        <time>2023-12-20T14:27:38Z</time>
      </trkpt>
      <trkpt lat="48.6157" lon="2.03581">
        <ele>133.2</ele>
        <time>2023-12-20T14:27:39Z</time>
      </trkpt>
      <trkpt lat="48.61573" lon="2.03573">
        <ele>133.2</ele>
        <time>2023-12-20T14:27:40Z</time>
      </trkpt>
      <trkpt lat="48.61576" lon="2.03564">
        <ele>133.2</ele>
        <time>2023-12-20T14:27:41Z</time>
      </trkpt>
      <trkpt lat="48.6158" lon="2.03555">
        <ele>133.2</ele>
        <time>2023-12-20T14:27:42Z</time>
      </trkpt>
      <trkpt lat="48.61583" lon="2.03547">
        <ele>134</ele>
        <time>2023-12-20T14:27:43Z</time>
      </trkpt>
      <trkpt lat="48.61586" lon="2.03538">
        <ele>134</ele>
        <time>2023-12-20T14:27:44Z</time>
      </trkpt>
      <trkpt lat="48.61589" lon="2.0353">
        <ele>134</ele>
        <time>2023-12-20T14:27:45Z</time>
      </trkpt>
      <trkpt lat="48.61593" lon="2.03522">
        <ele>134</ele>
        <time>2023-12-20T14:27:46Z</time>
      </trkpt>
      <trkpt lat="48.61596" lon="2.03514">
        <ele>134.4</ele>
        <time>2023-12-20T14:27:47Z</time>
      </trkpt>
      <trkpt lat="48.61598" lon="2.03507">
        <ele>134.4</ele>
        <time>2023-12-20T14:27:48Z</time>
      </trkpt>
      <trkpt lat="48.61601" lon="2.03501">
        <ele>134.4</ele>
        <time>2023-12-20T14:27:49Z</time>
      </trkpt>
      <trkpt lat="48.61604" lon="2.03494">
        <ele>134.4</ele>
        <time>2023-12-20T14:27:50Z</time>
      </trkpt>
      <trkpt lat="48.61606" lon="2.03488">
        <ele>134.6</ele>
        <time>2023-12-20T14:27:51Z</time>
      </trkpt>
      <trkpt lat="48.61609" lon="2.03481">
        <ele>134.6</ele>
        <time>2023-12-20T14:27:52Z</time>
      </trkpt>
      <trkpt lat="48.61612" lon="2.03474">
        <ele>134.6</ele>
        <time>2023-12-20T14:27:53Z</time>
      </trkpt>
      <trkpt lat="48.61615" lon="2.03467">
        <ele>134.6</ele>
        <time>2023-12-20T14:27:54Z</time>
      </trkpt>
      <trkpt lat="48.61618" lon="2.0346">
        <ele>134.4</ele>
        <time>2023-12-20T14:27:55Z</time>
      </trkpt>
      <trkpt lat="48.61621" lon="2.03453">
        <ele>134.4</ele>
        <time>2023-12-20T14:27:56Z</time>
      </trkpt>
      <trkpt lat="48.61624" lon="2.03446">
        <ele>134.4</ele>
        <time>2023-12-20T14:27:57Z</time>
      </trkpt>
      <trkpt lat="48.61627" lon="2.03438">
        <ele>133.4</ele>
        <time>2023-12-20T14:27:58Z</time>
      </trkpt>
      <trkpt lat="48.61631" lon="2.0343">
        <ele>134</ele>
        <time>2023-12-20T14:27:59Z</time>
      </trkpt>
      <trkpt lat="48.61634" lon="2.03422">
        <ele>134</ele>
        <time>2023-12-20T14:28:00Z</time>
      </trkpt>
      <trkpt lat="48.61638" lon="2.03415">
        <ele>134</ele>
        <time>2023-12-20T14:28:01Z</time>
      </trkpt>
      <trkpt lat="48.61641" lon="2.03406">
        <ele>134</ele>
        <time>2023-12-20T14:28:02Z</time>
      </trkpt>
      <trkpt lat="48.61644" lon="2.03398">
        <ele>134.6</ele>
        <time>2023-12-20T14:28:03Z</time>
      </trkpt>
      <trkpt lat="48.61647" lon="2.03391">
        <ele>134.6</ele>
        <time>2023-12-20T14:28:04Z</time>
      </trkpt>
      <trkpt lat="48.61651" lon="2.03384">
        <ele>134.6</ele>
        <time>2023-12-20T14:28:05Z</time>
      </trkpt>
      <trkpt lat="48.61654" lon="2.03376">
        <ele>134.2</ele>
        <time>2023-12-20T14:28:06Z</time>
      </trkpt>
      <trkpt lat="48.61657" lon="2.03369">
        <ele>134.8</ele>
        <time>2023-12-20T14:28:07Z</time>
      </trkpt>
      <trkpt lat="48.6166" lon="2.03362">
        <ele>134.8</ele>
        <time>2023-12-20T14:28:08Z</time>
      </trkpt>
      <trkpt lat="48.61663" lon="2.03356">
        <ele>134.8</ele>
        <time>2023-12-20T14:28:09Z</time>
      </trkpt>
      <trkpt lat="48.61666" lon="2.0335">
        <ele>134</ele>
        <time>2023-12-20T14:28:10Z</time>
      </trkpt>
      <trkpt lat="48.61669" lon="2.03343">
        <ele>133.6</ele>
        <time>2023-12-20T14:28:11Z</time>
      </trkpt>
      <trkpt lat="48.61672" lon="2.03336">
        <ele>133.6</ele>
        <time>2023-12-20T14:28:12Z</time>
      </trkpt>
      <trkpt lat="48.61675" lon="2.03327">
        <ele>133.6</ele>
        <time>2023-12-20T14:28:13Z</time>
      </trkpt>
      <trkpt lat="48.61677" lon="2.03318">
        <ele>133.6</ele>
        <time>2023-12-20T14:28:14Z</time>
      </trkpt>
      <trkpt lat="48.61679" lon="2.03309">
        <ele>133.2</ele>
        <time>2023-12-20T14:28:15Z</time>
      </trkpt>
      <trkpt lat="48.61681" lon="2.033">
        <ele>133.2</ele>
        <time>2023-12-20T14:28:16Z</time>
      </trkpt>
      <trkpt lat="48.61684" lon="2.03291">
        <ele>133.2</ele>
        <time>2023-12-20T14:28:17Z</time>
      </trkpt>
      <trkpt lat="48.61687" lon="2.03282">
        <ele>133.2</ele>
        <time>2023-12-20T14:28:18Z</time>
      </trkpt>
      <trkpt lat="48.61689" lon="2.03274">
        <ele>132.6</ele>
        <time>2023-12-20T14:28:19Z</time>
      </trkpt>
      <trkpt lat="48.61692" lon="2.03265">
        <ele>132.6</ele>
        <time>2023-12-20T14:28:20Z</time>
      </trkpt>
      <trkpt lat="48.61695" lon="2.03256">
        <ele>132.6</ele>
        <time>2023-12-20T14:28:21Z</time>
      </trkpt>
      <trkpt lat="48.61697" lon="2.03248">
        <ele>132.6</ele>
        <time>2023-12-20T14:28:22Z</time>
      </trkpt>
      <trkpt lat="48.61699" lon="2.03239">
        <ele>133.6</ele>
        <time>2023-12-20T14:28:23Z</time>
      </trkpt>
      <trkpt lat="48.61702" lon="2.0323">
        <ele>133.6</ele>
        <time>2023-12-20T14:28:24Z</time>
      </trkpt>
      <trkpt lat="48.61703" lon="2.03222">
        <ele>133.6</ele>
        <time>2023-12-20T14:28:25Z</time>
      </trkpt>
      <trkpt lat="48.61705" lon="2.03213">
        <ele>133.4</ele>
        <time>2023-12-20T14:28:26Z</time>
      </trkpt>
      <trkpt lat="48.61707" lon="2.03205">
        <ele>133.4</ele>
        <time>2023-12-20T14:28:27Z</time>
      </trkpt>
      <trkpt lat="48.61709" lon="2.03196">
        <ele>133.4</ele>
        <time>2023-12-20T14:28:28Z</time>
      </trkpt>
      <trkpt lat="48.6171" lon="2.03188">
        <ele>133.4</ele>
        <time>2023-12-20T14:28:29Z</time>
      </trkpt>
      <trkpt lat="48.61712" lon="2.0318">
        <ele>133.8</ele>
        <time>2023-12-20T14:28:30Z</time>
      </trkpt>
      <trkpt lat="48.61713" lon="2.03171">
        <ele>134.2</ele>
        <time>2023-12-20T14:28:31Z</time>
      </trkpt>
      <trkpt lat="48.61714" lon="2.03163">
        <ele>134.2</ele>
        <time>2023-12-20T14:28:32Z</time>
      </trkpt>
      <trkpt lat="48.61715" lon="2.03154">
        <ele>134.2</ele>
        <time>2023-12-20T14:28:33Z</time>
      </trkpt>
      <trkpt lat="48.61716" lon="2.03146">
        <ele>134.2</ele>
        <time>2023-12-20T14:28:34Z</time>
      </trkpt>
      <trkpt lat="48.61717" lon="2.03138">
        <ele>133.2</ele>
        <time>2023-12-20T14:28:35Z</time>
      </trkpt>
      <trkpt lat="48.61718" lon="2.0313">
        <ele>133.2</ele>
        <time>2023-12-20T14:28:36Z</time>
      </trkpt>
      <trkpt lat="48.61719" lon="2.03122">
        <ele>133.2</ele>
        <time>2023-12-20T14:28:37Z</time>
      </trkpt>
      <trkpt lat="48.6172" lon="2.03114">
        <ele>134.2</ele>
        <time>2023-12-20T14:28:38Z</time>
      </trkpt>
      <trkpt lat="48.6172" lon="2.03106">
        <ele>135.2</ele>
        <time>2023-12-20T14:28:39Z</time>
      </trkpt>
      <trkpt lat="48.61721" lon="2.03098">
        <ele>135.2</ele>
        <time>2023-12-20T14:28:40Z</time>
      </trkpt>
      <trkpt lat="48.61722" lon="2.03091">
        <ele>135.2</ele>
        <time>2023-12-20T14:28:41Z</time>
      </trkpt>
      <trkpt lat="48.61722" lon="2.03083">
        <ele>135.2</ele>
        <time>2023-12-20T14:28:42Z</time>
      </trkpt>
      <trkpt lat="48.61723" lon="2.03075">
        <ele>134.8</ele>
        <time>2023-12-20T14:28:43Z</time>
      </trkpt>
      <trkpt lat="48.61724" lon="2.03068">
        <ele>134.8</ele>
        <time>2023-12-20T14:28:44Z</time>
      </trkpt>
      <trkpt lat="48.61725" lon="2.0306">
        <ele>134.8</ele>
        <time>2023-12-20T14:28:45Z</time>
      </trkpt>
      <trkpt lat="48.61725" lon="2.03053">
        <ele>135.4</ele>
        <time>2023-12-20T14:28:46Z</time>
      </trkpt>
      <trkpt lat="48.61726" lon="2.03046">
        <ele>134.4</ele>
        <time>2023-12-20T14:28:47Z</time>
      </trkpt>
      <trkpt lat="48.61726" lon="2.03037">
        <ele>134.4</ele>
        <time>2023-12-20T14:28:48Z</time>
      </trkpt>
      <trkpt lat="48.61727" lon="2.0303">
        <ele>134.4</ele>
        <time>2023-12-20T14:28:49Z</time>
      </trkpt>
      <trkpt lat="48.61727" lon="2.03023">
        <ele>134.6</ele>
        <time>2023-12-20T14:28:50Z</time>
      </trkpt>
      <trkpt lat="48.61727" lon="2.03016">
        <ele>135.2</ele>
        <time>2023-12-20T14:28:51Z</time>
      </trkpt>
      <trkpt lat="48.61727" lon="2.03008">
        <ele>135.2</ele>
        <time>2023-12-20T14:28:52Z</time>
      </trkpt>
      <trkpt lat="48.61728" lon="2.03001">
        <ele>135.2</ele>
        <time>2023-12-20T14:28:53Z</time>
      </trkpt>
      <trkpt lat="48.61728" lon="2.02993">
        <ele>135.2</ele>
        <time>2023-12-20T14:28:54Z</time>
      </trkpt>
      <trkpt lat="48.61729" lon="2.02986">
        <ele>135</ele>
        <time>2023-12-20T14:28:55Z</time>
      </trkpt>
      <trkpt lat="48.61729" lon="2.02979">
        <ele>135</ele>
        <time>2023-12-20T14:28:56Z</time>
      </trkpt>
      <trkpt lat="48.61729" lon="2.02972">
        <ele>135</ele>
        <time>2023-12-20T14:28:57Z</time>
      </trkpt>
      <trkpt lat="48.61729" lon="2.02964">
        <ele>134.4</ele>
        <time>2023-12-20T14:28:58Z</time>
      </trkpt>
      <trkpt lat="48.6173" lon="2.02958">
        <ele>134.6</ele>
        <time>2023-12-20T14:28:59Z</time>
      </trkpt>
      <trkpt lat="48.61731" lon="2.02951">
        <ele>134.6</ele>
        <time>2023-12-20T14:29:00Z</time>
      </trkpt>
      <trkpt lat="48.61731" lon="2.02946">
        <ele>134.6</ele>
        <time>2023-12-20T14:29:01Z</time>
      </trkpt>
      <trkpt lat="48.61731" lon="2.02943">
        <ele>134.6</ele>
        <time>2023-12-20T14:29:02Z</time>
      </trkpt>
      <trkpt lat="48.61731" lon="2.02939">
        <ele>134.4</ele>
        <time>2023-12-20T14:29:03Z</time>
      </trkpt>
      <trkpt lat="48.6173" lon="2.02934">
        <ele>134.4</ele>
        <time>2023-12-20T14:29:04Z</time>
      </trkpt>
      <trkpt lat="48.6173" lon="2.02928">
        <ele>134.4</ele>
        <time>2023-12-20T14:29:05Z</time>
      </trkpt>
      <trkpt lat="48.61731" lon="2.02921">
        <ele>134.4</ele>
        <time>2023-12-20T14:29:06Z</time>
      </trkpt>
      <trkpt lat="48.61733" lon="2.02915">
        <ele>135</ele>
        <time>2023-12-20T14:29:07Z</time>
      </trkpt>
      <trkpt lat="48.61735" lon="2.02911">
        <ele>135</ele>
        <time>2023-12-20T14:29:08Z</time>
      </trkpt>
      <trkpt lat="48.61738" lon="2.02905">
        <ele>135</ele>
        <time>2023-12-20T14:29:09Z</time>
      </trkpt>
      <trkpt lat="48.61741" lon="2.02899">
        <ele>135</ele>
        <time>2023-12-20T14:29:10Z</time>
      </trkpt>
      <trkpt lat="48.61744" lon="2.02891">
        <ele>134.6</ele>
        <time>2023-12-20T14:29:11Z</time>
      </trkpt>
      <trkpt lat="48.61748" lon="2.02885">
        <ele>134.6</ele>
        <time>2023-12-20T14:29:12Z</time>
      </trkpt>
      <trkpt lat="48.61751" lon="2.02879">
        <ele>134.6</ele>
        <time>2023-12-20T14:29:13Z</time>
      </trkpt>
      <trkpt lat="48.61755" lon="2.02873">
        <ele>134.6</ele>
        <time>2023-12-20T14:29:14Z</time>
      </trkpt>
      <trkpt lat="48.61759" lon="2.02867">
        <ele>134.8</ele>
        <time>2023-12-20T14:29:15Z</time>
      </trkpt>
      <trkpt lat="48.61763" lon="2.02862">
        <ele>134.8</ele>
        <time>2023-12-20T14:29:16Z</time>
      </trkpt>
      <trkpt lat="48.61766" lon="2.02857">
        <ele>134.8</ele>
        <time>2023-12-20T14:29:17Z</time>
      </trkpt>
      <trkpt lat="48.6177" lon="2.02852">
        <ele>134.8</ele>
        <time>2023-12-20T14:29:18Z</time>
      </trkpt>
      <trkpt lat="48.61773" lon="2.02847">
        <ele>135.8</ele>
        <time>2023-12-20T14:29:19Z</time>
      </trkpt>
      <trkpt lat="48.61776" lon="2.02842">
        <ele>135.8</ele>
        <time>2023-12-20T14:29:20Z</time>
      </trkpt>
      <trkpt lat="48.61779" lon="2.02838">
        <ele>135.8</ele>
        <time>2023-12-20T14:29:21Z</time>
      </trkpt>
      <trkpt lat="48.61781" lon="2.02835">
        <ele>136.8</ele>
        <time>2023-12-20T14:29:22Z</time>
      </trkpt>
      <trkpt lat="48.61782" lon="2.02831">
        <ele>136.8</ele>
        <time>2023-12-20T14:29:23Z</time>
      </trkpt>
      <trkpt lat="48.61782" lon="2.02829">
        <ele>136.8</ele>
        <time>2023-12-20T14:29:24Z</time>
      </trkpt>
      <trkpt lat="48.61784" lon="2.02827">
        <ele>136.8</ele>
        <time>2023-12-20T14:29:25Z</time>
      </trkpt>
      <trkpt lat="48.61785" lon="2.02826">
        <ele>137</ele>
        <time>2023-12-20T14:29:26Z</time>
      </trkpt>
      <trkpt lat="48.61786" lon="2.02824">
        <ele>137.4</ele>
        <time>2023-12-20T14:29:27Z</time>
      </trkpt>
      <trkpt lat="48.61787" lon="2.02822">
        <ele>137.4</ele>
        <time>2023-12-20T14:29:28Z</time>
      </trkpt>
      <trkpt lat="48.61787" lon="2.02822">
        <ele>137.2</ele>
        <time>2023-12-20T14:32:05Z</time>
      </trkpt>
      <trkpt lat="48.61799" lon="2.02811">
        <ele>137.4</ele>
        <time>2023-12-20T14:32:06Z</time>
      </trkpt>
      <trkpt lat="48.618" lon="2.0281">
        <ele>137.6</ele>
        <time>2023-12-20T14:32:07Z</time>
      </trkpt>
      <trkpt lat="48.61801" lon="2.02808">
        <ele>137.6</ele>
        <time>2023-12-20T14:32:08Z</time>
      </trkpt>
      <trkpt lat="48.61803" lon="2.02807">
        <ele>137.6</ele>
        <time>2023-12-20T14:32:09Z</time>
      </trkpt>
      <trkpt lat="48.61804" lon="2.02806">
        <ele>137.6</ele>
        <time>2023-12-20T14:32:10Z</time>
      </trkpt>
      <trkpt lat="48.61805" lon="2.02804">
        <ele>137.2</ele>
        <time>2023-12-20T14:32:11Z</time>
      </trkpt>
      <trkpt lat="48.61807" lon="2.02802">
        <ele>137.2</ele>
        <time>2023-12-20T14:32:12Z</time>
      </trkpt>
      <trkpt lat="48.61809" lon="2.028">
        <ele>137.2</ele>
        <time>2023-12-20T14:32:13Z</time>
      </trkpt>
      <trkpt lat="48.61811" lon="2.02797">
        <ele>137.2</ele>
        <time>2023-12-20T14:32:14Z</time>
      </trkpt>
      <trkpt lat="48.61813" lon="2.02794">
        <ele>137</ele>
        <time>2023-12-20T14:32:15Z</time>
      </trkpt>
      <trkpt lat="48.61816" lon="2.02791">
        <ele>137</ele>
        <time>2023-12-20T14:32:16Z</time>
      </trkpt>
      <trkpt lat="48.61818" lon="2.02787">
        <ele>137</ele>
        <time>2023-12-20T14:32:17Z</time>
      </trkpt>
      <trkpt lat="48.6182" lon="2.02783">
        <ele>137</ele>
        <time>2023-12-20T14:32:18Z</time>
      </trkpt>
      <trkpt lat="48.61822" lon="2.02779">
        <ele>136.8</ele>
        <time>2023-12-20T14:32:19Z</time>
      </trkpt>
      <trkpt lat="48.61825" lon="2.02776">
        <ele>136.8</ele>
        <time>2023-12-20T14:32:20Z</time>
      </trkpt>
      <trkpt lat="48.61828" lon="2.02772">
        <ele>136.8</ele>
        <time>2023-12-20T14:32:21Z</time>
      </trkpt>
      <trkpt lat="48.61831" lon="2.02768">
        <ele>136.8</ele>
        <time>2023-12-20T14:32:22Z</time>
      </trkpt>
      <trkpt lat="48.61834" lon="2.02764">
        <ele>136.8</ele>
        <time>2023-12-20T14:32:23Z</time>
      </trkpt>
      <trkpt lat="48.61837" lon="2.0276">
        <ele>136.8</ele>
        <time>2023-12-20T14:32:24Z</time>
      </trkpt>
      <trkpt lat="48.6184" lon="2.02756">
        <ele>136.8</ele>
        <time>2023-12-20T14:32:25Z</time>
      </trkpt>
      <trkpt lat="48.61843" lon="2.02752">
        <ele>136.8</ele>
        <time>2023-12-20T14:32:26Z</time>
      </trkpt>
      <trkpt lat="48.61846" lon="2.02747">
        <ele>137</ele>
        <time>2023-12-20T14:32:27Z</time>
      </trkpt>
      <trkpt lat="48.6185" lon="2.02743">
        <ele>137</ele>
        <time>2023-12-20T14:32:28Z</time>
      </trkpt>
      <trkpt lat="48.61853" lon="2.02738">
        <ele>137</ele>
        <time>2023-12-20T14:32:29Z</time>
      </trkpt>
      <trkpt lat="48.61856" lon="2.02734">
        <ele>137</ele>
        <time>2023-12-20T14:32:30Z</time>
      </trkpt>
      <trkpt lat="48.61859" lon="2.02729">
        <ele>137.6</ele>
        <time>2023-12-20T14:32:31Z</time>
      </trkpt>
      <trkpt lat="48.61862" lon="2.02724">
        <ele>137.6</ele>
        <time>2023-12-20T14:32:32Z</time>
      </trkpt>
      <trkpt lat="48.61865" lon="2.02719">
        <ele>137.6</ele>
        <time>2023-12-20T14:32:33Z</time>
      </trkpt>
      <trkpt lat="48.61869" lon="2.02715">
        <ele>138.2</ele>
        <time>2023-12-20T14:32:34Z</time>
      </trkpt>
      <trkpt lat="48.61872" lon="2.0271">
        <ele>137.8</ele>
        <time>2023-12-20T14:32:35Z</time>
      </trkpt>
      <trkpt lat="48.61875" lon="2.02705">
        <ele>137.8</ele>
        <time>2023-12-20T14:32:36Z</time>
      </trkpt>
      <trkpt lat="48.61878" lon="2.02701">
        <ele>137.8</ele>
        <time>2023-12-20T14:32:37Z</time>
      </trkpt>
      <trkpt lat="48.61882" lon="2.02696">
        <ele>137.8</ele>
        <time>2023-12-20T14:32:38Z</time>
      </trkpt>
      <trkpt lat="48.61885" lon="2.02692">
        <ele>137.6</ele>
        <time>2023-12-20T14:32:39Z</time>
      </trkpt>
      <trkpt lat="48.61889" lon="2.02688">
        <ele>137.6</ele>
        <time>2023-12-20T14:32:40Z</time>
      </trkpt>
      <trkpt lat="48.61892" lon="2.02682">
        <ele>137.6</ele>
        <time>2023-12-20T14:32:41Z</time>
      </trkpt>
      <trkpt lat="48.61895" lon="2.02678">
        <ele>138.2</ele>
        <time>2023-12-20T14:32:42Z</time>
      </trkpt>
      <trkpt lat="48.61897" lon="2.02673">
        <ele>138</ele>
        <time>2023-12-20T14:32:43Z</time>
      </trkpt>
      <trkpt lat="48.619" lon="2.02668">
        <ele>138</ele>
        <time>2023-12-20T14:32:44Z</time>
      </trkpt>
      <trkpt lat="48.61904" lon="2.02663">
        <ele>138</ele>
        <time>2023-12-20T14:32:45Z</time>
      </trkpt>
      <trkpt lat="48.61906" lon="2.02658">
        <ele>139</ele>
        <time>2023-12-20T14:32:46Z</time>
      </trkpt>
      <trkpt lat="48.6191" lon="2.02654">
        <ele>139.4</ele>
        <time>2023-12-20T14:32:47Z</time>
      </trkpt>
      <trkpt lat="48.61913" lon="2.02649">
        <ele>139.4</ele>
        <time>2023-12-20T14:32:48Z</time>
      </trkpt>
      <trkpt lat="48.61916" lon="2.02644">
        <ele>139.4</ele>
        <time>2023-12-20T14:32:49Z</time>
      </trkpt>
      <trkpt lat="48.6192" lon="2.0264">
        <ele>139.4</ele>
        <time>2023-12-20T14:32:50Z</time>
      </trkpt>
      <trkpt lat="48.61923" lon="2.02635">
        <ele>139.4</ele>
        <time>2023-12-20T14:32:51Z</time>
      </trkpt>
      <trkpt lat="48.61927" lon="2.02631">
        <ele>139.4</ele>
        <time>2023-12-20T14:32:52Z</time>
      </trkpt>
      <trkpt lat="48.61929" lon="2.02626">
        <ele>139.4</ele>
        <time>2023-12-20T14:32:53Z</time>
      </trkpt>
      <trkpt lat="48.61932" lon="2.02622">
        <ele>139.4</ele>
        <time>2023-12-20T14:32:54Z</time>
      </trkpt>
      <trkpt lat="48.61935" lon="2.02617">
        <ele>138.6</ele>
        <time>2023-12-20T14:32:55Z</time>
      </trkpt>
      <trkpt lat="48.61937" lon="2.02612">
        <ele>138.6</ele>
        <time>2023-12-20T14:32:56Z</time>
      </trkpt>
      <trkpt lat="48.61938" lon="2.02607">
        <ele>138.6</ele>
        <time>2023-12-20T14:32:57Z</time>
      </trkpt>
      <trkpt lat="48.61939" lon="2.02602">
        <ele>138.6</ele>
        <time>2023-12-20T14:32:58Z</time>
      </trkpt>
      <trkpt lat="48.6194" lon="2.02597">
        <ele>139.4</ele>
        <time>2023-12-20T14:32:59Z</time>
      </trkpt>
      <trkpt lat="48.61943" lon="2.02593">
        <ele>139.4</ele>
        <time>2023-12-20T14:33:00Z</time>
      </trkpt>
      <trkpt lat="48.61945" lon="2.02589">
        <ele>139.4</ele>
        <time>2023-12-20T14:33:01Z</time>
      </trkpt>
      <trkpt lat="48.61948" lon="2.02584">
        <ele>140</ele>
        <time>2023-12-20T14:33:02Z</time>
      </trkpt>
      <trkpt lat="48.6195" lon="2.02579">
        <ele>139.4</ele>
        <time>2023-12-20T14:33:03Z</time>
      </trkpt>
      <trkpt lat="48.61953" lon="2.02574">
        <ele>139.4</ele>
        <time>2023-12-20T14:33:04Z</time>
      </trkpt>
      <trkpt lat="48.61957" lon="2.0257">
        <ele>139.4</ele>
        <time>2023-12-20T14:33:05Z</time>
      </trkpt>
      <trkpt lat="48.61961" lon="2.02565">
        <ele>138.8</ele>
        <time>2023-12-20T14:33:06Z</time>
      </trkpt>
      <trkpt lat="48.61965" lon="2.02561">
        <ele>138.6</ele>
        <time>2023-12-20T14:33:07Z</time>
      </trkpt>
      <trkpt lat="48.6197" lon="2.02557">
        <ele>138.6</ele>
        <time>2023-12-20T14:33:08Z</time>
      </trkpt>
      <trkpt lat="48.61975" lon="2.02554">
        <ele>138.6</ele>
        <time>2023-12-20T14:33:09Z</time>
      </trkpt>
      <trkpt lat="48.6198" lon="2.02551">
        <ele>138.6</ele>
        <time>2023-12-20T14:33:10Z</time>
      </trkpt>
      <trkpt lat="48.61985" lon="2.02547">
        <ele>137.6</ele>
        <time>2023-12-20T14:33:11Z</time>
      </trkpt>
      <trkpt lat="48.6199" lon="2.02544">
        <ele>137.6</ele>
        <time>2023-12-20T14:33:12Z</time>
      </trkpt>
      <trkpt lat="48.61995" lon="2.02541">
        <ele>137.6</ele>
        <time>2023-12-20T14:33:13Z</time>
      </trkpt>
      <trkpt lat="48.62" lon="2.02537">
        <ele>137</ele>
        <time>2023-12-20T14:33:14Z</time>
      </trkpt>
      <trkpt lat="48.62006" lon="2.02534">
        <ele>138.8</ele>
        <time>2023-12-20T14:33:15Z</time>
      </trkpt>
      <trkpt lat="48.62011" lon="2.02531">
        <ele>138.8</ele>
        <time>2023-12-20T14:33:16Z</time>
      </trkpt>
      <trkpt lat="48.62017" lon="2.02528">
        <ele>138.8</ele>
        <time>2023-12-20T14:33:17Z</time>
      </trkpt>
      <trkpt lat="48.62022" lon="2.02525">
        <ele>137.8</ele>
        <time>2023-12-20T14:33:18Z</time>
      </trkpt>
      <trkpt lat="48.62028" lon="2.02521">
        <ele>137</ele>
        <time>2023-12-20T14:33:19Z</time>
      </trkpt>
      <trkpt lat="48.62033" lon="2.02518">
        <ele>137</ele>
        <time>2023-12-20T14:33:20Z</time>
      </trkpt>
      <trkpt lat="48.62039" lon="2.02515">
        <ele>137</ele>
        <time>2023-12-20T14:33:21Z</time>
      </trkpt>
      <trkpt lat="48.62044" lon="2.02511">
        <ele>137</ele>
        <time>2023-12-20T14:33:22Z</time>
      </trkpt>
      <trkpt lat="48.62049" lon="2.02508">
        <ele>137.4</ele>
        <time>2023-12-20T14:33:23Z</time>
      </trkpt>
      <trkpt lat="48.62055" lon="2.02507">
        <ele>137.4</ele>
        <time>2023-12-20T14:33:24Z</time>
      </trkpt>
      <trkpt lat="48.62061" lon="2.02507">
        <ele>137.4</ele>
        <time>2023-12-20T14:33:25Z</time>
      </trkpt>
      <trkpt lat="48.62066" lon="2.02509">
        <ele>137.4</ele>
        <time>2023-12-20T14:33:26Z</time>
      </trkpt>
      <trkpt lat="48.62071" lon="2.02509">
        <ele>137.2</ele>
        <time>2023-12-20T14:33:27Z</time>
      </trkpt>
      <trkpt lat="48.62075" lon="2.02509">
        <ele>137.2</ele>
        <time>2023-12-20T14:33:28Z</time>
      </trkpt>
      <trkpt lat="48.6208" lon="2.0251">
        <ele>137.2</ele>
        <time>2023-12-20T14:33:29Z</time>
      </trkpt>
      <trkpt lat="48.62086" lon="2.02511">
        <ele>137.2</ele>
        <time>2023-12-20T14:33:30Z</time>
      </trkpt>
      <trkpt lat="48.62092" lon="2.02512">
        <ele>136.4</ele>
        <time>2023-12-20T14:33:31Z</time>
      </trkpt>
      <trkpt lat="48.62097" lon="2.02512">
        <ele>136.4</ele>
        <time>2023-12-20T14:33:32Z</time>
      </trkpt>
      <trkpt lat="48.62102" lon="2.0251">
        <ele>136.4</ele>
        <time>2023-12-20T14:33:33Z</time>
      </trkpt>
      <trkpt lat="48.62107" lon="2.02507">
        <ele>136.8</ele>
        <time>2023-12-20T14:33:34Z</time>
      </trkpt>
      <trkpt lat="48.62112" lon="2.02502">
        <ele>137.6</ele>
        <time>2023-12-20T14:33:35Z</time>
      </trkpt>
      <trkpt lat="48.62116" lon="2.02498">
        <ele>137.6</ele>
        <time>2023-12-20T14:33:36Z</time>
      </trkpt>
      <trkpt lat="48.62121" lon="2.02493">
        <ele>137.6</ele>
        <time>2023-12-20T14:33:37Z</time>
      </trkpt>
      <trkpt lat="48.62126" lon="2.02489">
        <ele>137.4</ele>
        <time>2023-12-20T14:33:38Z</time>
      </trkpt>
      <trkpt lat="48.62131" lon="2.02485">
        <ele>137.4</ele>
        <time>2023-12-20T14:33:39Z</time>
      </trkpt>
      <trkpt lat="48.62136" lon="2.02481">
        <ele>137.4</ele>
        <time>2023-12-20T14:33:40Z</time>
      </trkpt>
      <trkpt lat="48.6214" lon="2.02476">
        <ele>137.4</ele>
        <time>2023-12-20T14:33:41Z</time>
      </trkpt>
      <trkpt lat="48.62145" lon="2.0247">
        <ele>138.4</ele>
        <time>2023-12-20T14:33:42Z</time>
      </trkpt>
      <trkpt lat="48.62149" lon="2.02466">
        <ele>138.4</ele>
        <time>2023-12-20T14:33:43Z</time>
      </trkpt>
      <trkpt lat="48.62153" lon="2.0246">
        <ele>138.4</ele>
        <time>2023-12-20T14:33:44Z</time>
      </trkpt>
      <trkpt lat="48.62157" lon="2.02455">
        <ele>138.4</ele>
        <time>2023-12-20T14:33:45Z</time>
      </trkpt>
      <trkpt lat="48.62161" lon="2.02449">
        <ele>138.4</ele>
        <time>2023-12-20T14:33:46Z</time>
      </trkpt>
      <trkpt lat="48.62165" lon="2.02445">
        <ele>138</ele>
        <time>2023-12-20T14:33:47Z</time>
      </trkpt>
      <trkpt lat="48.6217" lon="2.0244">
        <ele>138</ele>
        <time>2023-12-20T14:33:48Z</time>
      </trkpt>
      <trkpt lat="48.62175" lon="2.02434">
        <ele>138</ele>
        <time>2023-12-20T14:33:49Z</time>
      </trkpt>
      <trkpt lat="48.62179" lon="2.02428">
        <ele>138</ele>
        <time>2023-12-20T14:33:50Z</time>
      </trkpt>
      <trkpt lat="48.62183" lon="2.02421">
        <ele>138.8</ele>
        <time>2023-12-20T14:33:51Z</time>
      </trkpt>
      <trkpt lat="48.62187" lon="2.02414">
        <ele>138.8</ele>
        <time>2023-12-20T14:33:52Z</time>
      </trkpt>
      <trkpt lat="48.6219" lon="2.02407">
        <ele>138.8</ele>
        <time>2023-12-20T14:33:53Z</time>
      </trkpt>
      <trkpt lat="48.62191" lon="2.02399">
        <ele>138.8</ele>
        <time>2023-12-20T14:33:54Z</time>
      </trkpt>
      <trkpt lat="48.62192" lon="2.02392">
        <ele>138.6</ele>
        <time>2023-12-20T14:33:55Z</time>
      </trkpt>
      <trkpt lat="48.62193" lon="2.02385">
        <ele>138.6</ele>
        <time>2023-12-20T14:33:56Z</time>
      </trkpt>
      <trkpt lat="48.62194" lon="2.02377">
        <ele>138.6</ele>
        <time>2023-12-20T14:33:57Z</time>
      </trkpt>
      <trkpt lat="48.62195" lon="2.02369">
        <ele>138.6</ele>
        <time>2023-12-20T14:33:58Z</time>
      </trkpt>
      <trkpt lat="48.62195" lon="2.02362">
        <ele>139.6</ele>
        <time>2023-12-20T14:33:59Z</time>
      </trkpt>
      <trkpt lat="48.62195" lon="2.02356">
        <ele>139.6</ele>
        <time>2023-12-20T14:34:00Z</time>
      </trkpt>
      <trkpt lat="48.62195" lon="2.02351">
        <ele>139.6</ele>
        <time>2023-12-20T14:34:01Z</time>
      </trkpt>
      <trkpt lat="48.62195" lon="2.02347">
        <ele>139.6</ele>
        <time>2023-12-20T14:34:02Z</time>
      </trkpt>
      <trkpt lat="48.62196" lon="2.02343">
        <ele>139.4</ele>
        <time>2023-12-20T14:34:03Z</time>
      </trkpt>
      <trkpt lat="48.62197" lon="2.02339">
        <ele>139.4</ele>
        <time>2023-12-20T14:34:04Z</time>
      </trkpt>
      <trkpt lat="48.62197" lon="2.02333">
        <ele>139.4</ele>
        <time>2023-12-20T14:34:05Z</time>
      </trkpt>
      <trkpt lat="48.62198" lon="2.02326">
        <ele>139.4</ele>
        <time>2023-12-20T14:34:06Z</time>
      </trkpt>
      <trkpt lat="48.62198" lon="2.0232">
        <ele>138.8</ele>
        <time>2023-12-20T14:34:07Z</time>
      </trkpt>
      <trkpt lat="48.62198" lon="2.02313">
        <ele>138.8</ele>
        <time>2023-12-20T14:34:08Z</time>
      </trkpt>
      <trkpt lat="48.62198" lon="2.02305">
        <ele>138.8</ele>
        <time>2023-12-20T14:34:09Z</time>
      </trkpt>
      <trkpt lat="48.62197" lon="2.02297">
        <ele>138.2</ele>
        <time>2023-12-20T14:34:10Z</time>
      </trkpt>
      <trkpt lat="48.62197" lon="2.02291">
        <ele>138.4</ele>
        <time>2023-12-20T14:34:11Z</time>
      </trkpt>
      <trkpt lat="48.62197" lon="2.02284">
        <ele>138.4</ele>
        <time>2023-12-20T14:34:12Z</time>
      </trkpt>
      <trkpt lat="48.62197" lon="2.02276">
        <ele>138.4</ele>
        <time>2023-12-20T14:34:13Z</time>
      </trkpt>
      <trkpt lat="48.62197" lon="2.02269">
        <ele>138.4</ele>
        <time>2023-12-20T14:34:14Z</time>
      </trkpt>
      <trkpt lat="48.62198" lon="2.02262">
        <ele>138.6</ele>
        <time>2023-12-20T14:34:15Z</time>
      </trkpt>
      <trkpt lat="48.62198" lon="2.02254">
        <ele>138.6</ele>
        <time>2023-12-20T14:34:16Z</time>
      </trkpt>
      <trkpt lat="48.62198" lon="2.02245">
        <ele>138.6</ele>
        <time>2023-12-20T14:34:17Z</time>
      </trkpt>
      <trkpt lat="48.62198" lon="2.02236">
        <ele>138.6</ele>
        <time>2023-12-20T14:34:18Z</time>
      </trkpt>
      <trkpt lat="48.62198" lon="2.02227">
        <ele>138.4</ele>
        <time>2023-12-20T14:34:19Z</time>
      </trkpt>
      <trkpt lat="48.62198" lon="2.02218">
        <ele>138.4</ele>
        <time>2023-12-20T14:34:20Z</time>
      </trkpt>
      <trkpt lat="48.62199" lon="2.0221">
        <ele>138.4</ele>
        <time>2023-12-20T14:34:21Z</time>
      </trkpt>
      <trkpt lat="48.622" lon="2.02201">
        <ele>139</ele>
        <time>2023-12-20T14:34:22Z</time>
      </trkpt>
      <trkpt lat="48.622" lon="2.02191">
        <ele>137.6</ele>
        <time>2023-12-20T14:34:23Z</time>
      </trkpt>
      <trkpt lat="48.62201" lon="2.02183">
        <ele>137.6</ele>
        <time>2023-12-20T14:34:24Z</time>
      </trkpt>
      <trkpt lat="48.62202" lon="2.02173">
        <ele>137.6</ele>
        <time>2023-12-20T14:34:25Z</time>
      </trkpt>
      <trkpt lat="48.62203" lon="2.02164">
        <ele>138.6</ele>
        <time>2023-12-20T14:34:26Z</time>
      </trkpt>
      <trkpt lat="48.62204" lon="2.02154">
        <ele>138.4</ele>
        <time>2023-12-20T14:34:27Z</time>
      </trkpt>
      <trkpt lat="48.62205" lon="2.02145">
        <ele>138.4</ele>
        <time>2023-12-20T14:34:28Z</time>
      </trkpt>
      <trkpt lat="48.62206" lon="2.02135">
        <ele>138.4</ele>
        <time>2023-12-20T14:34:29Z</time>
      </trkpt>
      <trkpt lat="48.62207" lon="2.02125">
        <ele>138.4</ele>
        <time>2023-12-20T14:34:30Z</time>
      </trkpt>
      <trkpt lat="48.62208" lon="2.02115">
        <ele>137.4</ele>
        <time>2023-12-20T14:34:31Z</time>
      </trkpt>
      <trkpt lat="48.62209" lon="2.02105">
        <ele>137.4</ele>
        <time>2023-12-20T14:34:32Z</time>
      </trkpt>
      <trkpt lat="48.6221" lon="2.02095">
        <ele>137.4</ele>
        <time>2023-12-20T14:34:33Z</time>
      </trkpt>
      <trkpt lat="48.62211" lon="2.02085">
        <ele>138.4</ele>
        <time>2023-12-20T14:34:34Z</time>
      </trkpt>
      <trkpt lat="48.62212" lon="2.02075">
        <ele>137.4</ele>
        <time>2023-12-20T14:34:35Z</time>
      </trkpt>
      <trkpt lat="48.62213" lon="2.02065">
        <ele>137.4</ele>
        <time>2023-12-20T14:34:36Z</time>
      </trkpt>
      <trkpt lat="48.62214" lon="2.02055">
        <ele>137.4</ele>
        <time>2023-12-20T14:34:37Z</time>
      </trkpt>
      <trkpt lat="48.62215" lon="2.02045">
        <ele>138.2</ele>
        <time>2023-12-20T14:34:38Z</time>
      </trkpt>
      <trkpt lat="48.62216" lon="2.02036">
        <ele>138.2</ele>
        <time>2023-12-20T14:34:39Z</time>
      </trkpt>
      <trkpt lat="48.62217" lon="2.02026">
        <ele>138.2</ele>
        <time>2023-12-20T14:34:40Z</time>
      </trkpt>
      <trkpt lat="48.62218" lon="2.02016">
        <ele>138.2</ele>
        <time>2023-12-20T14:34:41Z</time>
      </trkpt>
      <trkpt lat="48.62218" lon="2.02007">
        <ele>138.2</ele>
        <time>2023-12-20T14:34:42Z</time>
      </trkpt>
      <trkpt lat="48.62219" lon="2.01997">
        <ele>138.8</ele>
        <time>2023-12-20T14:34:43Z</time>
      </trkpt>
      <trkpt lat="48.6222" lon="2.01988">
        <ele>138.8</ele>
        <time>2023-12-20T14:34:44Z</time>
      </trkpt>
      <trkpt lat="48.62221" lon="2.01978">
        <ele>138.8</ele>
        <time>2023-12-20T14:34:45Z</time>
      </trkpt>
      <trkpt lat="48.62221" lon="2.01969">
        <ele>138.8</ele>
        <time>2023-12-20T14:34:46Z</time>
      </trkpt>
      <trkpt lat="48.62222" lon="2.0196">
        <ele>138.6</ele>
        <time>2023-12-20T14:34:47Z</time>
      </trkpt>
      <trkpt lat="48.62223" lon="2.0195">
        <ele>138.6</ele>
        <time>2023-12-20T14:34:48Z</time>
      </trkpt>
      <trkpt lat="48.62223" lon="2.01942">
        <ele>138.6</ele>
        <time>2023-12-20T14:34:49Z</time>
      </trkpt>
      <trkpt lat="48.62224" lon="2.01934">
        <ele>139.4</ele>
        <time>2023-12-20T14:34:50Z</time>
      </trkpt>
      <trkpt lat="48.62225" lon="2.01926">
        <ele>139.4</ele>
        <time>2023-12-20T14:34:51Z</time>
      </trkpt>
      <trkpt lat="48.62228" lon="2.01918">
        <ele>139.4</ele>
        <time>2023-12-20T14:34:52Z</time>
      </trkpt>
      <trkpt lat="48.62231" lon="2.01912">
        <ele>139.4</ele>
        <time>2023-12-20T14:34:53Z</time>
      </trkpt>
      <trkpt lat="48.62235" lon="2.01908">
        <ele>140.4</ele>
        <time>2023-12-20T14:34:54Z</time>
      </trkpt>
      <trkpt lat="48.6224" lon="2.01904">
        <ele>141.2</ele>
        <time>2023-12-20T14:34:55Z</time>
      </trkpt>
      <trkpt lat="48.62244" lon="2.01899">
        <ele>141.2</ele>
        <time>2023-12-20T14:34:56Z</time>
      </trkpt>
      <trkpt lat="48.62247" lon="2.01894">
        <ele>141.2</ele>
        <time>2023-12-20T14:34:57Z</time>
      </trkpt>
      <trkpt lat="48.62248" lon="2.01887">
        <ele>140.8</ele>
        <time>2023-12-20T14:34:58Z</time>
      </trkpt>
      <trkpt lat="48.62247" lon="2.01881">
        <ele>141</ele>
        <time>2023-12-20T14:34:59Z</time>
      </trkpt>
      <trkpt lat="48.62246" lon="2.01875">
        <ele>141</ele>
        <time>2023-12-20T14:35:00Z</time>
      </trkpt>
      <trkpt lat="48.62245" lon="2.01869">
        <ele>141</ele>
        <time>2023-12-20T14:35:01Z</time>
      </trkpt>
      <trkpt lat="48.62246" lon="2.01863">
        <ele>140</ele>
        <time>2023-12-20T14:35:02Z</time>
      </trkpt>
      <trkpt lat="48.62249" lon="2.01858">
        <ele>140.8</ele>
        <time>2023-12-20T14:35:03Z</time>
      </trkpt>
      <trkpt lat="48.62252" lon="2.01854">
        <ele>140.8</ele>
        <time>2023-12-20T14:35:04Z</time>
      </trkpt>
      <trkpt lat="48.62255" lon="2.0185">
        <ele>140.8</ele>
        <time>2023-12-20T14:35:05Z</time>
      </trkpt>
      <trkpt lat="48.62256" lon="2.01845">
        <ele>141.8</ele>
        <time>2023-12-20T14:35:06Z</time>
      </trkpt>
      <trkpt lat="48.62257" lon="2.01843">
        <ele>141.6</ele>
        <time>2023-12-20T14:35:07Z</time>
      </trkpt>
    </trkseg>
  </trk>
</gpx>